Date time  Uvelocity_cm/s Vvelocity_cm/s W_velocity_cm/s horizontalSpeedCareful_cm/s TotalSpeedCareful_cm/s HorizontalWindDirection_deg WindElevation_deg SpeedOfSound_cm/sec Temperature_Kelvin pressure_mb2009/04/23 06:37:02.8     176     39    121    181    217  77.4  37.0  33914  285.43 2009/04/23 06:37:03.6     205     35     89    209    227  80.1  24.6  33916  285.44
    195     35     81    199    214  79.6  23.1  33914  285.43
    181     37     64    185    196  78.3  19.2  33916  285.44
    198     68     72    210    223  70.9  18.9  33918  285.48
    232     57     65    240    249  76.1  15.2  33916  285.45
    210    111     65    238    247  62.1  15.3  33916  285.44
     56    141     23    152    154  21.9   8.9  33916  285.44 0855.07
2009/04/23 06:37:03.7     181    219    109    285    305  39.6  22.0  33916  285.44 0855.07
2009/04/23 06:37:03.8     182    190     93    264    279  43.7  20.0  33916  285.45 0855.07
2009/04/23 06:37:03.9     162    183     -7    245    246  41.5  -1.8  33918  285.49 0855.07
2009/04/23 06:37:04.0     213    185      6    283    284  49.1   1.2  33912  285.37 0855.07
2009/04/23 06:37:04.1     120    225    101    256    275  28.1  22.8  33912  285.37 0855.07
2009/04/23 06:37:04.2      78    219     99    233    253  19.8  24.2  33914  285.42 0855.07
2009/04/23 06:37:04.3     146    131     55    197    205  48.0  15.8  33912  285.39 0855.07
2009/04/23 06:37:04.4     222    104      0    246    247  64.9   0.2  33912  285.37 0855.07
2009/04/23 06:37:04.5     248     85     12    263    264  70.9   2.8  33908  285.30 0855.07
2009/04/23 06:37:04.6     259     84     -2    273    274  72.1  -0.5  33912  285.37 0855.07
2009/04/23 06:37:04.7     222     60     46    231    236  74.7  11.4  33908  285.30 0855.07
2009/04/23 06:37:04.8     131    141    102    193    218  43.0  30.1  33916  285.46 0855.07
2009/04/23 06:37:04.9     101     92     50    137    145  47.8  20.4  33914  285.41 0855.07
2009/04/23 06:37:05.0     195     81     48    212    218  67.4  12.9  33908  285.31 0855.07
2009/04/23 06:37:05.1     177     99     85    203    220  60.7  24.1  33908  285.31 0855.07
2009/04/23 06:37:05.2     150     99     94    180    203  56.5  29.8  33914  285.43 0855.07
2009/04/23 06:37:05.3     150     99     91    180    201  56.5  29.1  33912  285.39 0855.07
2009/04/23 06:37:05.4     125    117     80    172    189  46.9  27.1  33914  285.41 0855.07
2009/04/23 06:37:05.5     118     80     61    143    155  55.8  24.6  33912  285.39 0855.07
2009/04/23 06:37:05.6     173     45    110    179    210  75.4  34.8  33902  285.23 0855.07
2009/04/23 06:37:05.7     163     62    119    175    211  69.2  37.4  33906  285.28 0855.07
2009/04/23 06:37:05.8     145     54    101    155    185  69.6  36.0  33908  285.33 0855.07
2009/04/23 06:37:05.9     114     23     90    117    147  78.5  41.7  33908  285.31 0855.07
2009/04/23 06:37:06.0     133     69     41    150    156  62.5  15.6  33904  285.24 0855.07
2009/04/23 06:37:06.1     136     85     56    161    171  57.8  19.4  33900  285.19 0855.07
2009/04/23 06:37:06.2     160     77    148    178    231  64.0  43.8  33908  285.31 0855.07
2009/04/23 06:37:06.3     141     64    169    155    229  65.6  52.5  33908  285.31 0855.07
2009/04/23 06:37:06.4     130     66    169    147    223  62.9  54.3  33902  285.23 0855.07
2009/04/23 06:37:06.5      85     33    160     92    184  68.3  67.5  33902  285.23 0855.07
2009/04/23 06:37:06.6     122    -28    115    126    170 103.3  47.1  33894  285.07 0855.07
2009/04/23 06:37:06.7     190    -90    103    211    234 115.3  28.0  33902  285.23 0855.07
2009/04/23 06:37:06.8     191    -64    123    202    236 108.6  34.2  33908  285.33 0855.07
2009/04/23 06:37:06.9      88    -62     85    108    137 125.1  42.2  33904  285.24 0855.07
2009/04/23 06:37:07.0      29    -88    102     93    138 161.3  52.2  33902  285.21 0855.07
2009/04/23 06:37:07.1      10   -132     40    133    139 175.6  16.8  33910  285.34 0855.07
2009/04/23 06:37:07.2      21    -98     45    101    110 167.5  26.2  33906  285.29 0855.07
2009/04/23 06:37:07.3      97    -70     67    120    137 125.9  31.4  33916  285.44 0855.07
2009/04/23 06:37:07.4      78    -78     94    111    145 135.0  44.3  33906  285.29 0855.07
2009/04/23 06:37:07.5      80    -57     83     99    129 125.5  43.8  33914  285.41 0855.07
2009/04/23 06:37:07.6      95    -21     68     98    119 102.8  38.0  33918  285.48 0855.07
2009/04/23 06:37:07.7     135     10     46    136    144  85.7  18.9  33916  285.46 0855.07
2009/04/23 06:37:07.8     119      0     29    120    124  90.0  13.7  33920  285.51 0855.07
2009/04/23 06:37:07.9     124     -5     -6    125    126  92.5  -3.2  33924  285.58 0855.07
2009/04/23 06:37:08.0     108    -41      5    116    117 110.8   2.9  33922  285.55 0855.07
2009/04/23 06:37:08.1     153    -27     44    156    163 100.1  15.8  33920  285.51 0855.07
2009/04/23 06:37:08.2     159     54     24    169    171  71.2   8.2  33916  285.46 0855.07
2009/04/23 06:37:08.3     171     29      7    174    175  80.3   2.3  33918  285.50 0855.07
2009/04/23 06:37:08.4     113     37     23    119    122  71.8  11.0  33918  285.48 0855.07
2009/04/23 06:37:08.5      83      0     28     84     89  90.0  18.9  33918  285.48 0855.07
2009/04/23 06:37:08.6      66    -31     28     74     79 115.3  21.5  33918  285.48 0855.07
2009/04/23 06:37:08.7      44      7     15     45     48  80.3  18.9  33920  285.51 0855.07
2009/04/23 06:37:08.8      36      2     31     37     48  85.7  45.8  33918  285.50 0855.07
2009/04/23 06:37:08.9      33      2     39     34     51  85.6  54.3  33916  285.44 0855.06
2009/04/23 06:37:09.0      14     -3     42     15     44 105.1  81.2  33918  285.48 0855.06
2009/04/23 06:37:09.1      17      0     31     18     35  90.0  64.7  33918  285.50 0855.06
2009/04/23 06:37:09.2      24      2     37     25     44  83.9  63.6  33920  285.53 0855.06
2009/04/23 06:37:09.3      34      0     29     35     45  90.0  44.8  33918  285.48 0855.06
2009/04/23 06:37:09.4      36     14     15     39     41  68.3  22.0  33918  285.48 0855.06
2009/04/23 06:37:09.5      16      3     14     17     22  78.5  43.7  33918  285.48 0855.06
2009/04/23 06:37:09.6       0      3     35      4     35   4.5  90.0  33918  285.50 0855.06
2009/04/23 06:37:09.7      -7     10     28     13     30 323.9  73.1  33916  285.46 0855.06
2009/04/23 06:37:09.8       0     14     33     15     36 357.3  73.1  33916  285.46 0855.06
2009/04/23 06:37:09.9      23     15     33     28     43  57.6  54.3  33918  285.50 0855.06
2009/04/23 06:37:10.0       6     10     20     13     23  32.5  64.7  33918  285.48 0855.06
2009/04/23 06:37:10.1       8      0     15      9     17  90.0  64.7  33916  285.46 0855.06
2009/04/23 06:37:10.2      -5    -11      6     13     14 205.4  23.0  33914  285.43 0855.06
2009/04/23 06:37:10.3     -21    -13     -1     25     26 237.6  -3.1  33916  285.46 0855.06
2009/04/23 06:37:10.4     -44    -14    -13     47     49 251.6 -15.5  33918  285.48 0855.06
2009/04/23 06:37:10.5     -54     -6    -19     55     58 263.0 -23.3  33918  285.48 0855.06
2009/04/23 06:37:10.6     -57      0    -18     58     60 270.0 -22.8  33918  285.50 0855.06
2009/04/23 06:37:10.7     -33      0    -14     34     36 270.8 -27.4  33918  285.50 0855.06
2009/04/23 06:37:10.8     -17      0    -24     18     30 270.0 -62.9  33918  285.48 0855.06
2009/04/23 06:37:10.9     -42    -11    -35     44     56 254.9 -48.1  33918  285.50 0855.07
2009/04/23 06:37:11.0     -47    -11    -33     49     59 256.7 -42.0  33920  285.53 0855.07
2009/04/23 06:37:11.1     -13    -21    -32     26     41 212.5 -60.8  33926  285.63 0855.07
2009/04/23 06:37:11.2      52    -56      9     77     78 136.7   6.9  33920  285.51 0855.07
2009/04/23 06:37:11.3      45    -63     50     78     92 144.0  35.6  33918  285.48 0855.07
2009/04/23 06:37:11.4      53    -75     57     92    108 144.8  35.5  33916  285.44 0855.07
2009/04/23 06:37:11.5      69    -51     43     86     96 126.4  28.2  33914  285.43 0855.07
2009/04/23 06:37:11.6     111     -3     48    112    121  91.7  24.6  33916  285.44 0855.07
2009/04/23 06:37:11.7     124    -13     61    125    139  96.1  27.8  33914  285.43 0855.07
2009/04/23 06:37:11.8     131    -30     76    135    154 103.3  31.4  33916  285.44 0855.07
2009/04/23 06:37:11.9     133    -44     84    141    164 108.6  33.7  33916  285.44 0855.07
2009/04/23 06:37:12.0     119    -57    104    133    168 115.8  42.2  33918  285.48 0855.07
2009/04/23 06:37:12.1     110    -52     52    122    132 115.4  24.6  33916  285.44 0855.07
2009/04/23 06:37:12.2      59    -48     90     77    118 129.5  54.8  33914  285.43 0855.07
2009/04/23 06:37:12.3      25    -24     95     35    101 133.3  79.2  33914  285.43 0855.07
2009/04/23 06:37:12.4      23    -19     82     31     87 129.6  79.2  33920  285.51 0855.07
2009/04/23 06:37:12.5      22    -56     74     61     95 158.2  56.4  33918  285.48 0855.07
2009/04/23 06:37:12.6      17    -95    111     97    147 169.8  54.3  33914  285.43 0855.07
2009/04/23 06:37:12.7      37    -97     96    104    141 159.1  47.9  33916  285.46 0855.07
2009/04/23 06:37:12.8      23    -80     70     84    109 164.0  43.8  33914  285.41 0855.07
2009/04/23 06:37:12.9      86    -79     41    117    125 132.7  19.4  33916  285.46 0855.07
2009/04/23 06:37:13.0      35   -146     53    151    160 166.6  20.0  33920  285.51 0855.07
2009/04/23 06:37:13.1      13   -159     74    160    176 175.1  26.6  33920  285.51 0855.07
2009/04/23 06:37:13.2     -26   -128     54    131    141 191.6  23.1  33922  285.55 0855.07
2009/04/23 06:37:13.3     -28   -111    107    115    157 194.3  47.9  33924  285.58 0855.07
2009/04/23 06:37:13.4      -9   -140     83    141    163 184.0  33.5  33936  285.80 0855.07
2009/04/23 06:37:13.5     -20   -138    100    140    172 188.5  38.8  33934  285.75 0855.07
2009/04/23 06:37:13.6      -3   -117     87    118    146 181.8  39.7  33930  285.68 0855.07
2009/04/23 06:37:13.7       9   -119    102    120    157 175.6  45.1  33924  285.60 0855.07
2009/04/23 06:37:13.8     -39   -147     56    153    162 195.1  20.7  33914  285.43 0855.07
2009/04/23 06:37:13.9     -53   -171     99    180    205 197.4  31.4  33918  285.48 0855.07
2009/04/23 06:37:14.0      16   -150    162    151    221 173.7  52.2  33932  285.73 0855.07
2009/04/23 06:37:14.1      28   -176    133    179    223 170.9  40.1  33922  285.56 0855.07
2009/04/23 06:37:14.3     -43   -178     77    184    199 193.8  23.8  33912  285.38 0855.07
2009/04/23 06:37:14.3     -63   -165     20    177    179 201.2   6.7  33914  285.43 0855.07
2009/04/23 06:37:14.4     -36   -121     37    127    133 196.5  16.3  33918  285.48 0855.07
2009/04/23 06:37:14.5     -24   -121      1    124    125 191.5   0.8  33916  285.46 0855.07
2009/04/23 06:37:14.6     -42   -104     17    113    115 201.9   9.0  33912  285.39 0855.07
2009/04/23 06:37:14.7     -31    -63     49     71     86 206.3  38.0  33916  285.44 0855.07
2009/04/23 06:37:14.8     -19    -71    108     74    130 195.1  62.6  33914  285.43 0855.07
2009/04/23 06:37:14.9     -52    -82     86     98    130 212.6  45.8  33926  285.61 0855.07
2009/04/23 06:37:15.0      -5    -73    102     74    126 184.4  60.5  33924  285.58 0855.07
2009/04/23 06:37:15.1      -9    -18    101     21    103 207.2  89.0  33924  285.60 0855.07
2009/04/23 06:37:15.2     -52    -82    107     98    145 212.5  52.2  33926  285.63 0855.07
2009/04/23 06:37:15.3     -33    -27    119     43    126 230.5  79.7  33922  285.55 0855.07
2009/04/23 06:37:15.4     -31    -19     98     37    104 237.5  79.2  33918  285.50 0855.07
2009/04/23 06:37:15.5     -48     30     64     57     85 302.4  53.7  33916  285.44 0855.07
2009/04/23 06:37:15.6     -58     -4     76     59     96 265.6  57.9  33916  285.44 0855.07
2009/04/23 06:37:15.7     -67      6     53     68     86 275.2  41.7  33912  285.38 0855.07
2009/04/23 06:37:15.8     -25    -89     74     93    118 196.0  42.2  33918  285.48 0855.07
2009/04/23 06:37:15.9     -21   -113     99    116    152 190.7  44.8  33914  285.43 0855.07
2009/04/23 06:37:16.0     -87     -1     64     88    108 268.7  39.7  33912  285.39 0855.07
2009/04/23 06:37:16.1     -93      0     24     94     98 270.0  14.7  33916  285.46 0855.07
2009/04/23 06:37:16.2     -75    -52     91     92    129 234.9  50.0  33914  285.43 0855.07
2009/04/23 06:37:16.3     -60    -72     97     94    135 219.7  50.2  33916  285.46 0855.07
2009/04/23 06:37:16.4     -79    -35     55     87    102 246.0  35.5  33912  285.38 0855.07
2009/04/23 06:37:16.5     -68    -55     34     88     94 230.9  21.5  33922  285.56 0855.07
2009/04/23 06:37:16.6     -86    -71     35    112    118 230.5  17.4  33922  285.56 0855.07
2009/04/23 06:37:16.7    -121    -32     30    126    130 255.0  13.7  33912  285.39 0855.07
2009/04/23 06:37:16.8    -107    -55     15    121    122 242.9   7.1  33914  285.43 0855.07
2009/04/23 06:37:16.9     -99    -39     46    107    116 248.3  24.6  33918  285.48 0855.07
2009/04/23 06:37:17.0     -66    -59     48     89    101 228.2  30.8  33916  285.44 0855.07
2009/04/23 06:37:17.1     -57    -50     57     76     95 228.7  40.7  33918  285.50 0855.07
2009/04/23 06:37:17.2     -64    -26     40     70     80 248.2  32.4  33918  285.50 0855.07
2009/04/23 06:37:17.3     -60    -31     46     68     82 242.0  37.6  33916  285.46 0855.07
2009/04/23 06:37:17.4     -79    -42     34     90     96 241.6  21.0  33916  285.44 0855.07
2009/04/23 06:37:17.5     -75    -58     33     95    101 232.2  19.4  33914  285.43 0855.07
2009/04/23 06:37:17.6     -77    -70     50    105    116 227.8  27.2  33918  285.48 0855.07
2009/04/23 06:37:17.7     -84    -89     29    123    127 223.3  13.2  33912  285.39 0855.07
2009/04/23 06:37:17.8     -76   -137     60    157    168 209.0  21.7  33910  285.36 0855.07
2009/04/23 06:37:17.9    -112   -135      3    176    177 219.9   1.2  33912  285.39 0855.07
2009/04/23 06:37:18.0    -120    -97     13    155    156 230.9   4.9  33912  285.39 0855.07
2009/04/23 06:37:18.1    -135   -107     29    173    176 231.6   9.5  33910  285.34 0855.07
2009/04/23 06:37:18.2    -116   -126     57    172    182 222.8  18.4  33910  285.34 0855.07
2009/04/23 06:37:18.3     -63   -124     49    140    149 207.2  19.4  33934  285.75 0855.07
2009/04/23 06:37:18.4     -41   -106    101    114    152 201.4  45.9  33918  285.50 0855.07
2009/04/23 06:37:18.5    -111    -52     46    123    131 244.8  21.0  33914  285.41 0855.07
2009/04/23 06:37:18.6    -112    -12     45    113    121 263.4  23.0  33910  285.36 0855.07
2009/04/23 06:37:18.7     -57    -72     23     92     95 218.3  14.3  33910  285.36 0855.07
2009/04/23 06:37:18.8     -85    -48     37     98    104 240.2  21.0  33910  285.36 0855.07
2009/04/23 06:37:18.9     -54    -92     51    107    118 210.7  27.2  33910  285.34 0855.07
2009/04/23 06:37:19.0     -77    -80     45    112    120 223.7  23.0  33906  285.28 0855.07
2009/04/23 06:37:19.1     -83    -39     37     92     99 244.7  23.0  33908  285.31 0855.07
2009/04/23 06:37:19.2     -63    -19     13     66     68 253.2  11.1  33906  285.28 0855.07
2009/04/23 06:37:19.3     -50    -28     27     58     63 240.2  26.2  33906  285.28 0855.07
2009/04/23 06:37:19.4     -36     -7     24     37     44 258.6  36.5  33902  285.21 0855.07
2009/04/23 06:37:19.5     -30      9     44     32     54 288.2  60.5  33898  285.16 0855.07
2009/04/23 06:37:19.6     -57    -41     32     71     77 234.1  26.2  33898  285.16 0855.07
2009/04/23 06:37:19.7     -76    -44      1     89     90 239.8   0.8  33900  285.19 0855.07
2009/04/23 06:37:19.8    -105     -2    -21    106    109 268.7 -11.5  33900  285.18 0855.07
2009/04/23 06:37:19.9    -117     -7      2    118    119 266.5   1.2  33898  285.14 0855.07
2009/04/23 06:37:20.0    -105     -3     -7    106    107 268.3  -4.1  33896  285.13 0855.07
2009/04/23 06:37:20.1    -115    -66      6    133    134 240.2   2.9  33902  285.21 0855.07
2009/04/23 06:37:20.2    -111    -36     10    117    118 251.6   4.9  33906  285.28 0855.07
2009/04/23 06:37:20.3    -123    -13      9    124    125 263.8   4.4  33900  285.18 0855.07
2009/04/23 06:37:20.4    -128      0      0    129    130 269.6  -0.3  33898  285.14 0855.07
2009/04/23 06:37:20.5     -98      0      5     99    100 270.0   2.9  33902  285.23 0855.07
2009/04/23 06:37:20.6     -56     -6     24     57     61 263.0  23.1  33904  285.26 0855.07
2009/04/23 06:37:20.7     -57    -15     42     60     73 254.9  39.5  33908  285.33 0855.07
2009/04/23 06:37:20.8     -78     -6     31     79     84 265.6  22.0  33912  285.38 0855.07
2009/04/23 06:37:20.9    -125    -22     60    127    140 259.9  27.1  33910  285.34 0855.07
2009/04/23 06:37:21.0    -105    -34     74    111    133 251.8  36.5  33914  285.43 0855.07
2009/04/23 06:37:21.1     -93     -2     74     94    119 268.3  42.2  33916  285.44 0855.07
2009/04/23 06:37:21.2     -91      0     69     92    115 270.4  40.1  33912  285.38 0855.07
2009/04/23 06:37:21.3     -92      0     58     93    109 270.0  35.5  33912  285.39 0855.07
2009/04/23 06:37:21.4     -82    -16     40     84     93 258.5  27.2  33912  285.39 0855.07
2009/04/23 06:37:21.5    -108    -30     55    113    125 254.5  27.8  33912  285.39 0855.07
2009/04/23 06:37:21.6    -103    -16     82    105    133 260.8  42.2  33908  285.33 0855.07
2009/04/23 06:37:21.7     -99    -39     87    107    137 248.3  43.7  33908  285.33 0855.07
2009/04/23 06:37:21.8     -77    -49     74     92    118 237.1  43.7  33912  285.38 0855.07
2009/04/23 06:37:21.9     -59    -63     49     87     99 223.2  31.9  33916  285.44 0855.07
2009/04/23 06:37:22.0     -99    -77     39    126    132 232.2  17.3  33914  285.41 0855.07
2009/04/23 06:37:22.1     -85    -67     46    109    118 231.8  24.1  33916  285.46 0855.07
2009/04/23 06:37:22.2   12195    -46  -5802  12198  13507  90.2 -31.7  31864  251.94 0855.07
2009/04/23 06:37:22.3     -76    -73     39    106    112 226.0  20.4  33918  285.48 0855.07
2009/04/23 06:37:22.4     -85    -68     31    109    114 231.4  15.8  33918  285.50 0855.07
2009/04/23 06:37:22.5     -77    -71     27    106    110 227.3  14.3  33918  285.48 0855.07
2009/04/23 06:37:22.6     -64    -57     30     86     92 228.2  19.4  33916  285.44 0855.07
2009/04/23 06:37:22.7     -96    -53     21    110    113 241.2  11.1  33916  285.44 0855.07
2009/04/23 06:37:22.8    -113    -68      6    132    133 238.9   2.9  33912  285.38 0855.07
2009/04/23 06:37:22.9     -65    -85     13    108    109 217.4   6.9  33914  285.43 0855.07
2009/04/23 06:37:23.0     -94   -104     68    141    156 221.9  27.3  33920  285.51 0855.07
2009/04/23 06:37:23.1     -82    -95     75    126    146 221.0  33.5  33914  285.43 0855.07
2009/04/23 06:37:23.2     -93    -68    -11    116    117 234.1  -5.6  33912  285.38 0855.07
2009/04/23 06:37:23.3     -73    -77     33    107    113 223.2  17.3  33914  285.43 0855.07
2009/04/23 06:37:23.4     -73    -76     20    106    108 224.1  11.0  33912  285.38 0855.07
2009/04/23 06:37:23.5     -67    -72     33     99    105 223.3  18.4  33918  285.50 0855.07
2009/04/23 06:37:23.6     -84    -91     81    125    148 222.8  35.6  33924  285.58 0855.07
2009/04/23 06:37:23.7    -108   -103     23    150    152 226.4   9.0  33916  285.44 0855.07
2009/04/23 06:37:23.8     -86    -79     37    117    123 227.3  17.9  33916  285.46 0855.07
2009/04/23 06:37:23.9     -92    -82     35    124    129 228.2  15.8  33918  285.50 0855.06
2009/04/23 06:37:24.0     -68    -69     45     98    107 224.7  26.6  33916  285.46 0855.06
2009/04/23 06:37:24.1     -71    -36     27     80     85 242.9  18.9  33914  285.41 0855.06
2009/04/23 06:37:24.2     -58    -54     41     80     89 226.8  28.7  33916  285.44 0855.06
2009/04/23 06:37:24.3    -107     -6     50    108    119 266.5  27.1  33916  285.46 0855.06
2009/04/23 06:37:24.4    -134    -36     22    139    141 254.9   9.0  33916  285.44 0855.06
2009/04/23 06:37:24.5    -103    -18     17    105    107 259.9   9.5  33914  285.43 0855.06
2009/04/23 06:37:24.6     -96    -16     34     98    104 260.3  19.2  33914  285.41 0855.06
2009/04/23 06:37:24.7    -101    -40     21    109    112 248.2  11.1  33912  285.39 0855.06
2009/04/23 06:37:24.8     -81    -47     53     94    107 239.8  31.4  33910  285.34 0855.06
2009/04/23 06:37:24.9     -64     -5     57     65     86 264.8  46.4  33910  285.34 0855.06
2009/04/23 06:37:25.0     -65     17     43     68     80 285.1  35.5  33912  285.38 0855.06
2009/04/23 06:37:25.1     -92     58     28    109    113 302.4  14.7  33914  285.41 0855.06
2009/04/23 06:37:25.2     -98     49      8    110    111 296.6   4.4  33914  285.41 0855.06
2009/04/23 06:37:25.3     -50     16     31     53     61 287.7  33.5  33914  285.43 0855.06
2009/04/23 06:37:25.4     -32     20     76     38     84 302.5  71.4  33912  285.39 0855.06
2009/04/23 06:37:25.5     -63     29     71     70     99 295.3  50.1  33912  285.39 0855.06
2009/04/23 06:37:25.6     -76     76     87    108    138 315.0  43.3  33914  285.41 0855.06
2009/04/23 06:37:25.7   -6174  10598  -5700  12264  13523 329.8 -31.1  31916  252.79 0855.06
2009/04/23 06:37:25.8     -88    101     62    135    148 319.0  26.6  33912  285.39 0855.06
2009/04/23 06:37:25.9     -70    109     48    130    138 327.4  21.0  33912  285.39 0855.06
2009/04/23 06:37:26.0     -27    100     72    104    126 344.9  37.6  33912  285.39 0855.06
2009/04/23 06:37:26.1     -13     78     52     80     95 350.2  35.6  33910  285.34 0855.06
2009/04/23 06:37:26.2      -6     82     28     83     88 355.6  18.9  33910  285.36 0855.06
2009/04/23 06:37:26.3       8    106    -15    107    109   4.5  -8.2  33914  285.43 0855.06
2009/04/23 06:37:26.4      -4    114    -32    115    120 357.8 -15.5  33914  285.41 0855.06
2009/04/23 06:37:26.5     -20    121    -12    123    124 350.2  -5.6  33914  285.41 0855.06
2009/04/23 06:37:26.6     -19    128    -22    130    132 351.5  -9.8  33914  285.41 0855.06
2009/04/23 06:37:26.7     -32    134     -7    138    139 346.6  -3.2  33912  285.39 0855.06
2009/04/23 06:37:26.8     -51    127    -12    137    138 338.1  -5.2  33912  285.38 0855.06
2009/04/23 06:37:26.9     -75    108      6    132    133 325.3   2.9  33912  285.39 0855.06
2009/04/23 06:37:27.0     -21    112     -4    115    116 349.3  -2.2  33916  285.44 0855.06
2009/04/23 06:37:27.1      -8    105      5    106    107 355.5   2.9  33916  285.44 0855.06
2009/04/23 06:37:27.2     -10     84      4     85     86 352.9   3.3  33916  285.44 0855.06
2009/04/23 06:37:27.3     -14     73     -9     75     76 348.5  -7.3  33916  285.44 0855.06
2009/04/23 06:37:27.4     -22     47    -15     52     54 334.7 -21.7  33914  285.43 0855.06
2009/04/23 06:37:27.5       3     50    -15     51     53   4.5 -22.8  33914  285.41 0855.06
2009/04/23 06:37:27.6      -1     58    -19     59     61 358.2 -23.8  33914  285.43 0855.06
2009/04/23 06:37:27.7      -3     42    -17     43     46 355.5 -26.4  33912  285.39 0855.06
2009/04/23 06:37:27.8       0     14    -26     15     30 357.3 -71.2  33912  285.39 0855.06
2009/04/23 06:37:27.9      11      7    -40     14     42  57.6 -84.6  33912  285.39 0855.06
2009/04/23 06:37:28.0       8     30    -44     32     54  15.1 -64.9  33914  285.41 0855.06
2009/04/23 06:37:28.1      18     31    -35     37     50  30.7 -53.4  33912  285.39 0855.06
2009/04/23 06:37:28.3      37     29    -43     48     64  51.4 -52.3  33912  285.38 0855.06
2009/04/23 06:37:28.4      45     58    -50     74     89  37.8 -41.4  33910  285.36 0855.06
2009/04/23 06:37:28.5      53     53    -43     75     86  45.0 -37.3  33912  285.38 0855.06
2009/04/23 06:37:28.6      58     56    -24     81     84  46.0 -21.7  33912  285.38 0855.06
2009/04/23 06:37:28.7      68     41     -2     80     81  58.9  -1.8  33910  285.36 0855.06
2009/04/23 06:37:28.8      64     39     25     76     81  58.5  18.4  33912  285.39 0855.06
2009/04/23 06:37:28.9      48     35      5     60     61  54.0   4.9  33914  285.41 0855.06
2009/04/23 06:37:29.0      39     34    -29     53     60  48.7 -35.8  33914  285.41 0855.06
2009/04/23 06:37:29.1      64     65    -31     92     97  44.7 -23.6  33912  285.39 0855.06
2009/04/23 06:37:29.2      42     64    -34     77     84  33.4 -29.0  33914  285.41 0855.06
2009/04/23 06:37:29.3      55     45    -26     72     76  50.4 -23.3  33912  285.39 0855.06
2009/04/23 06:37:29.4      58     54      0     80     81  46.8  -0.3  33912  285.39 0855.06
2009/04/23 06:37:29.5      50     30    -16     59     62  59.3 -15.5  33912  285.39 0855.06
2009/04/23 06:37:29.6      48     35    -19     60     62  54.0 -22.8  33914  285.41 0855.06
2009/04/23 06:37:29.7      22     39    -31     46     55  29.9 -40.0  33912  285.39 0855.06
2009/04/23 06:37:29.8      24     31    -24     40     46  37.8 -38.8  33914  285.43 0855.06
2009/04/23 06:37:29.9       3     33    -15     34     37   6.2 -29.5  33914  285.43 0855.06
2009/04/23 06:37:30.0       0     28     -8     29     31 359.1 -15.5  33916  285.44 0855.06
2009/04/23 06:37:30.1      -8     29      2     31     32 344.9   4.9  33912  285.39 0855.06
2009/04/23 06:37:30.2     -18     34     14     39     41 331.0  20.0  33916  285.44 0855.06
2009/04/23 06:37:30.3     -16     28      9     33     35 331.0  15.3  33912  285.39 0855.06
2009/04/23 06:37:30.4      -3     22      8     23     25 350.2  19.2  33912  285.39 0855.06
2009/04/23 06:37:30.5     -16     18     24     25     34 318.6  52.0  33914  285.41 0855.06
2009/04/23 06:37:30.6     -22      7     31     24     39 288.6  56.4  33912  285.39 0855.06
2009/04/23 06:37:30.7      -8      0     44      9     44 270.0  90.0  33912  285.39 0855.06
2009/04/23 06:37:30.8     -18     30     35     36     50 329.3  51.1  33912  285.39 0855.06
2009/04/23 06:37:30.9       9     21     37     24     44  23.6  63.6  33910  285.36 0855.06
2009/04/23 06:37:31.0      26      7     46     27     53  74.9  66.8  33914  285.41 0855.06
2009/04/23 06:37:31.1       5      4     47      7     47  50.5  90.0  33914  285.43 0855.06
2009/04/23 06:37:31.2      13      0     48     14     50  89.2  82.8  33914  285.43 0855.06
2009/04/23 06:37:31.3      11     12     38     17     41  43.2  75.0  33914  285.43 0855.06
2009/04/23 06:37:31.4      -4      0     28      5     28 270.0  90.0  33912  285.39 0855.06
2009/04/23 06:37:31.5     -12      8     27     15     30 302.4  68.8  33912  285.38 0855.06
2009/04/23 06:37:31.6      -6      7     36     10     37 316.8  82.8  33912  285.38 0855.06
2009/04/23 06:37:31.7     -12     -8     40     15     42 237.6  79.2  33912  285.39 0855.06
2009/04/23 06:37:31.8     -22      7     31     24     39 288.6  56.4  33912  285.39 0855.06
2009/04/23 06:37:31.9     -20      7     32     22     38 290.0  62.6  33912  285.39 0855.06
2009/04/23 06:37:32.0     -22      7     43     24     49 288.2  68.8  33912  285.39 0855.07
2009/04/23 06:37:32.1     -24     17     43     30     52 306.0  61.5  33910  285.36 0855.07
2009/04/23 06:37:32.2     -26     15     39     31     49 300.7  56.4  33912  285.38 0855.07
2009/04/23 06:37:32.3     -26      0     32     27     41 270.0  55.4  33916  285.46 0855.07
2009/04/23 06:37:32.4     -36      2     23     37     43 274.3  35.5  33918  285.50 0855.07
2009/04/23 06:37:32.5     -26      0     32     27     41 270.0  55.4  33916  285.46 0855.07
2009/04/23 06:37:32.6     -18      0     28     19     33 270.0  62.6  33916  285.46 0855.07
2009/04/23 06:37:32.7      -7      7     36     11     37 315.0  80.7  33914  285.41 0855.07
2009/04/23 06:37:32.8       5      4     32      7     32  50.5  89.0  33910  285.36 0855.07
2009/04/23 06:37:32.9      -7      0     18      8     19 270.0  77.1  33912  285.39 0855.07
2009/04/23 06:37:33.0     -20      4     20     21     29 281.5  52.0  33910  285.36 0855.07
2009/04/23 06:37:33.1     -42    -10     18     44     47 256.7  23.0  33908  285.33 0855.07
2009/04/23 06:37:33.2     -42     17     44     46     63 292.6  50.0  33910  285.34 0855.07
2009/04/23 06:37:33.3     -26     13     73     30     78 297.1  77.1  33908  285.31 0855.07
2009/04/23 06:37:33.4       0     48     66     49     82 359.1  59.4  33912  285.38 0855.07
2009/04/23 06:37:33.5     -26     40     61     48     77 326.6  56.4  33910  285.36 0855.07
2009/04/23 06:37:33.6     -12     36     52     39     65 341.3  60.5  33912  285.38 0855.07
2009/04/23 06:37:33.7       0      7     20      8     21 357.3  77.1  33910  285.34 0855.07
2009/04/23 06:37:33.8      33    -33     57     47     73 134.9  56.3  33910  285.34 0855.07
2009/04/23 06:37:33.9      31    -10     87     33     93 108.2  78.6  33910  285.36 0855.07
2009/04/23 06:37:34.0     -46     23     68     52     85 297.1  59.0  33910  285.36 0855.06
2009/04/23 06:37:34.1     -21    -13     73     26     77 237.6  81.2  33910  285.36 0855.06
2009/04/23 06:37:34.2     -24    -63     71     68     98 200.9  50.7  33910  285.34 0855.06
2009/04/23 06:37:34.3     -38    -40    109     56    122 224.1  70.8  33910  285.34 0855.06
2009/04/23 06:37:34.4     -30    -48    112     57    125 212.5  71.0  33908  285.31 0855.06
2009/04/23 06:37:34.5     -32    -50    110     60    125 212.5  68.8  33908  285.33 0855.06
2009/04/23 06:37:34.6       8    -67     97     68    118 172.9  61.5  33910  285.36 0855.06
2009/04/23 06:37:34.7     -10    -76     85     77    114 188.0  52.7  33908  285.31 0855.06
2009/04/23 06:37:34.8     -45    -48     96     67    117 223.2  62.1  33908  285.31 0855.06
2009/04/23 06:37:34.9     -24    -63    118     68    136 200.9  66.8  33908  285.31 0855.06
2009/04/23 06:37:35.0     -35    -44     77     57     95 218.7  60.0  33908  285.31 0855.06
2009/04/23 06:37:35.1     -34    -73     87     81    118 205.3  52.1  33904  285.26 0855.06
2009/04/23 06:37:35.2     -10    -78    105     79    131 188.0  59.0  33908  285.31 0855.06
2009/04/23 06:37:35.3       3    -57     80     58     98 176.4  60.5  33906  285.28 0855.06
2009/04/23 06:37:35.4       5    -10     67     12     68 151.0  90.0  33906  285.29 0855.06
2009/04/23 06:37:35.5     -15      4     71     16     72 285.1  89.0  33910  285.34 0855.06
2009/04/23 06:37:35.6     -18     30     82     36     89 329.3  74.5  33912  285.38 0855.06
2009/04/23 06:37:35.7      -6     31     70     32     76 348.4  73.1  33912  285.38 0855.06
2009/04/23 06:37:35.8      -9     72     64     73     97 352.9  45.8  33910  285.34 0855.06
2009/04/23 06:37:35.9     -17     54     54     57     78 341.7  48.5  33910  285.36 0855.06
2009/04/23 06:37:36.0     -23      8     57     25     62 290.0  75.0  33912  285.38 0855.07
2009/04/23 06:37:36.1      -1    -18     50     19     53 184.5  80.2  33914  285.41 0855.07
2009/04/23 06:37:36.2      -5    -42     40     43     58 188.0  49.0  33910  285.34 0855.07
2009/04/23 06:37:36.3     -38    -46     37     60     70 219.6  35.5  33908  285.31 0855.07
2009/04/23 06:37:36.4     -21    -25     60     33     68 219.6  68.8  33910  285.36 0855.07
2009/04/23 06:37:36.5     -18    -17     51     25     56 226.7  72.8  33910  285.36 0855.07
2009/04/23 06:37:36.6     -46    -36     24     59     63 231.4  23.0  33910  285.34 0855.07
2009/04/23 06:37:36.7     -20    -34     40     40     56 210.7  50.1  33910  285.34 0855.07
2009/04/23 06:37:36.8     -30    -10     24     32     40 250.0  40.7  33912  285.38 0855.07
2009/04/23 06:37:36.9     -35      0      1     36     37 270.0   2.9  33912  285.39 0855.07
2009/04/23 06:37:37.0     -43      8     -4     44     45 280.6  -5.2  33912  285.38 0855.07
2009/04/23 06:37:37.1     -39     22     -1     45     46 299.8  -2.2  33912  285.39 0855.07
2009/04/23 06:37:37.2     -63     33     -1     72     73 298.0  -1.3  33912  285.38 0855.07
2009/04/23 06:37:37.3     -48     58     -9     76     77 320.3  -7.3  33914  285.41 0855.07
2009/04/23 06:37:37.4     -68     67    -15     96     98 314.4  -9.3  33912  285.39 0855.07
2009/04/23 06:37:37.5    -104     96      6    142    143 312.7   2.8  33910  285.36 0855.07
2009/04/23 06:37:37.6     -91     79     10    121    122 310.9   4.9  33912  285.38 0855.07
2009/04/23 06:37:37.7     -58     83     -6    102    103 324.8  -3.7  33912  285.39 0855.07
2009/04/23 06:37:37.8     -32     81      4     88     89 338.2   2.9  33910  285.36 0855.07
2009/04/23 06:37:37.9      -4     58     21     59     62 355.5  20.0  33912  285.38 0855.07
2009/04/23 06:37:38.0       2     38     30     39     49   4.4  41.7  33912  285.38 0855.06
2009/04/23 06:37:38.1      -2     32     47     33     57 355.5  61.5  33910  285.34 0855.06
2009/04/23 06:37:38.2       0     32     40     33     51 359.1  56.4  33912  285.39 0855.06
2009/04/23 06:37:38.3      29      9     49     31     57  71.4  64.7  33908  285.33 0855.06
2009/04/23 06:37:38.4      29     -2     56     30     63  94.4  68.9  33910  285.36 0855.06
2009/04/23 06:37:38.5       9    -38     53     40     66 166.6  59.4  33906  285.29 0855.06
2009/04/23 06:37:38.6      11    -49     57     51     76 167.5  52.2  33906  285.29 0855.06
2009/04/23 06:37:38.7      10    -50     64     52     82 168.5  56.4  33912  285.38 0855.06
2009/04/23 06:37:38.8      -3    -65     76     66    100 182.7  54.3  33904  285.24 0855.06
2009/04/23 06:37:38.9       0    -63     77     64    100 180.9  56.3  33904  285.26 0855.06
2009/04/23 06:37:39.0     -15    -58     64     61     88 195.2  50.7  33904  285.26 0855.07
2009/04/23 06:37:39.1      -6    -42     73     43     84 188.9  66.2  33904  285.26 0855.07
2009/04/23 06:37:39.2      -2    -58     70     59     91 182.7  55.8  33906  285.28 0855.07
2009/04/23 06:37:39.3     -24    -64    103     69    123 200.9  63.2  33898  285.14 0855.07
2009/04/23 06:37:39.4     -72    -77     80    106    132 223.3  41.6  33898  285.14 0855.07
2009/04/23 06:37:39.5     -72    -15     83     74    111 257.6  53.7  33898  285.14 0855.07
2009/04/23 06:37:39.6    -100    -59     72    117    137 239.3  35.0  33894  285.07 0855.07
2009/04/23 06:37:39.7     -89    -38     58     97    113 246.9  34.0  33898  285.16 0855.07
2009/04/23 06:37:39.8     -52    -22     68     57     88 246.5  55.8  33900  285.18 0855.07
2009/04/23 06:37:39.9     -41    -38     46     57     73 226.9  43.7  33908  285.31 0855.07
2009/04/23 06:37:40.0      -9    -47     70     49     85 191.6  62.1  33910  285.36 0855.07
2009/04/23 06:37:40.1      12    -54     99     56    113 167.5  68.3  33910  285.34 0855.07
2009/04/23 06:37:40.2       6   -122     45    123    130 176.9  21.0  33910  285.36 0855.07
2009/04/23 06:37:40.3      44   -154     52    161    170 164.0  17.9  33910  285.34 0855.07
2009/04/23 06:37:40.4      25   -157     66    160    173 170.7  23.6  33914  285.43 0855.07
2009/04/23 06:37:40.5      19   -153     86    155    177 172.9  31.4  33912  285.38 0855.07
2009/04/23 06:37:40.6      12   -150     45    151    158 175.1  16.6  33912  285.38 0855.07
2009/04/23 06:37:40.7      29   -142     39    146    152 168.4  15.2  33914  285.41 0855.07
2009/04/23 06:37:40.8      15   -133     64    134    148 173.3  27.3  33914  285.43 0855.07
2009/04/23 06:37:40.9      30   -142     64    146    159 168.0  25.3  33914  285.43 0855.07
2009/04/23 06:37:41.0       2   -146     34    147    151 179.1  13.2  33916  285.44 0855.07
2009/04/23 06:37:41.1      22   -164     -9    166    167 172.2  -3.3  33912  285.39 0855.07
2009/04/23 06:37:41.2      35   -179    -14    183    184 168.9  -4.4  33914  285.43 0855.07
2009/04/23 06:37:41.3      42   -210    -39    215    219 168.5 -10.5  33914  285.41 0855.07
2009/04/23 06:37:41.4      60   -208    -15    217    218 163.7  -4.1  33910  285.36 0855.07
2009/04/23 06:37:41.5      94   -197     -8    219    220 154.5  -2.2  33912  285.39 0855.07
2009/04/23 06:37:41.6      86   -172    -16    193    194 153.5  -4.9  33914  285.43 0855.07
2009/04/23 06:37:41.7      96   -150      7    179    180 147.4   2.3  33912  285.39 0855.07
2009/04/23 06:37:41.8     111   -151    -19    188    190 143.5  -6.0  33914  285.41 0855.07
2009/04/23 06:37:41.9      80   -155    -55    175    184 152.6 -17.6  33916  285.44 0855.07
2009/04/23 06:37:42.0      61   -146    -32    159    163 157.3 -11.3  33914  285.41 0855.07
2009/04/23 06:37:42.1      63   -133     -3    148    149 154.7  -1.3  33914  285.41 0855.07
2009/04/23 06:37:42.2      40   -131    -15    138    139 163.1  -6.2  33914  285.43 0855.07
2009/04/23 06:37:42.3      32   -118    -33    123    128 164.9 -15.4  33916  285.44 0855.07
2009/04/23 06:37:42.4      54   -141     -5    152    153 159.1  -2.2  33918  285.48 0855.07
2009/04/23 06:37:42.5      58   -141     -6    153    154 157.7  -2.6  33918  285.48 0855.07
2009/04/23 06:37:42.6      70   -173      1    187    188 157.9   0.5  33924  285.60 0855.07
2009/04/23 06:37:42.7      64   -136    -29    151    154 154.5 -11.1  33926  285.63 0855.07
2009/04/23 06:37:42.8      36   -135    -28    140    143 164.9 -11.3  33924  285.60 0855.07
2009/04/23 06:37:42.9      33   -135    -28    140    143 166.2 -11.3  33930  285.68 0855.06
2009/04/23 06:37:43.0      33   -131    -32    136    140 165.7 -13.4  33932  285.73 0855.06
2009/04/23 06:37:43.1      35   -119    -10    125    126 163.5  -4.6  33934  285.75 0855.06
2009/04/23 06:37:43.2      48   -120    -10    130    131 158.1  -4.6  33932  285.73 0855.06
2009/04/23 06:37:43.3      42   -106     13    115    116 158.2   6.5  33930  285.70 0855.06
2009/04/23 06:37:43.4      59   -111      6    126    127 151.9   2.8  33932  285.71 0855.06
2009/04/23 06:37:43.5      49   -102     25    114    117 154.5  12.6  33926  285.61 0855.06
2009/04/23 06:37:43.6      37   -101     22    108    111 159.5  11.6  33920  285.53 0855.06
2009/04/23 06:37:43.7      28   -105     34    109    115 164.9  17.3  33918  285.48 0855.06
2009/04/23 06:37:43.8      18   -115     15    117    118 171.1   7.5  33920  285.51 0855.06
2009/04/23 06:37:43.9      34   -114     -4    120    121 163.1  -2.2  33918  285.50 0855.06
2009/04/23 06:37:44.0      67   -131     -8    148    149 152.9  -3.1  33920  285.51 0855.06
2009/04/23 06:37:44.1      16   -128    -45    130    138 172.9 -19.1  33916  285.46 0855.06
2009/04/23 06:37:44.2      11   -143    -20    144    146 175.6  -8.2  33924  285.58 0855.06
2009/04/23 06:37:44.3      15   -157     -7    158    159 174.2  -2.6  33928  285.65 0855.06
2009/04/23 06:37:44.4      15   -155     -8    156    157 174.2  -3.3  33934  285.75 0855.06
2009/04/23 06:37:44.5      21   -156    -10    158    159 172.0  -3.7  33938  285.82 0855.06
2009/04/23 06:37:44.6      35   -159      5    163    164 167.3   1.8  33930  285.70 0855.06
2009/04/23 06:37:44.7      12   -156     15    157    158 175.5   5.7  33924  285.58 0855.06
2009/04/23 06:37:44.8      -1   -159     11    160    161 180.4   4.2  33920  285.53 0855.06
2009/04/23 06:37:44.9       6   -158    -20    159    161 177.8  -7.5  33920  285.53 0855.06
2009/04/23 06:37:45.0   -6087  10418  -5808  12067  13391 329.7 -32.1  31864  251.95 0855.06
2009/04/23 06:37:45.1      28   -162     -6    165    166 170.0  -2.1  33930  285.70 0855.06
2009/04/23 06:37:45.2      17   -161     13    162    163 173.8   4.9  33922  285.56 0855.06
2009/04/23 06:37:45.3      11   -151     20    152    154 175.6   7.5  33924  285.58 0855.06
2009/04/23 06:37:45.4      15   -144     28    145    148 173.7  11.0  33924  285.58 0855.06
2009/04/23 06:37:45.5      -2   -122     10    123    124 181.4   5.0  33924  285.58 0855.06
2009/04/23 06:37:45.6       1   -130     -5    131    132 179.5  -2.2  33918  285.48 0855.06
2009/04/23 06:37:45.7       9   -119      1    120    121 175.6   0.7  33920  285.51 0855.06
2009/04/23 06:37:45.8      24   -143     20    146    148 170.3   8.0  33920  285.51 0855.06
2009/04/23 06:37:46.0   -6044 -10626  -5756  12226  13513 209.6 -31.4  31926  252.95 0855.06
2009/04/23 06:37:46.1      42   -140      8    147    148 163.1   3.3  33920  285.53 0855.06
2009/04/23 06:37:46.1      67   -114     -7    133    134 149.7  -3.1  33920  285.53 0855.06
2009/04/23 06:37:46.2      60   -103    -27    120    124 149.7 -12.9  33920  285.53 0855.06
2009/04/23 06:37:46.3      40   -129    -27    136    139 162.6 -11.5  33918  285.48 0855.06
2009/04/23 06:37:46.4      22   -132     -2    134    135 170.2  -1.3  33918  285.48 0855.06
2009/04/23 06:37:46.5      54   -149     -6    159    160 160.0  -2.2  33920  285.53 0855.06
2009/04/23 06:37:46.6      41   -147     -3    153    154 164.4  -1.2  33924  285.60 0855.06
2009/04/23 06:37:46.7      41   -153     -7    159    160 164.8  -2.8  33924  285.58 0855.06
2009/04/23 06:37:46.8      34   -143     12    147    148 166.6   4.9  33926  285.61 0855.06
2009/04/23 06:37:46.9      34   -136     12    141    142 165.7   4.9  33924  285.58 0855.06
2009/04/23 06:37:47.0      53   -134     38    145    150 158.2  14.7  33924  285.58 0855.06
2009/04/23 06:37:47.1      52   -119     47    131    139 156.3  20.4  33922  285.56 0855.06
2009/04/23 06:37:47.2      47   -116     53    126    136 157.7  24.1  33926  285.61 0855.06
2009/04/23 06:37:47.3      39   -117     14    124    125 161.5   6.9  33926  285.61 0855.06
2009/04/23 06:37:47.4      49    -97     35    109    115 153.3  17.9  33922  285.56 0855.06
2009/04/23 06:37:47.5      23   -105     57    108    122 167.5  29.8  33926  285.61 0855.06
2009/04/23 06:37:47.6      47    -98     53    109    121 154.1  27.8  33926  285.61 0855.06
2009/04/23 06:37:47.7      48   -110     56    121    133 156.4  26.6  33922  285.56 0855.06
2009/04/23 06:37:47.8      54   -113     65    126    141 154.6  29.3  33924  285.58 0855.06
2009/04/23 06:37:47.9      60   -110     90    126    154 151.5  39.5  33924  285.58 0855.06
2009/04/23 06:37:48.0      87   -136     93    162    186 147.5  32.1  33924  285.58 0855.06
2009/04/23 06:37:48.1      82   -159     99    180    205 152.6  31.4  33918  285.48 0855.06
2009/04/23 06:37:48.2      94   -148     77    176    192 147.5  25.1  33922  285.55 0855.06
2009/04/23 06:37:48.3      86   -116     67    145    159 143.5  26.6  33920  285.51 0855.06
2009/04/23 06:37:48.4      59   -113     57    128    140 152.4  25.2  33922  285.55 0855.06
2009/04/23 06:37:48.5      21   -127     62    129    143 170.3  27.2  33920  285.51 0855.06
2009/04/23 06:37:48.6      11   -124     86    125    151 174.7  37.6  33920  285.51 0855.06
2009/04/23 06:37:48.7      23   -114     85    117    144 168.5  39.7  33920  285.53 0855.06
2009/04/23 06:37:48.8      23    -91     77     94    121 165.7  43.7  33920  285.53 0855.06
2009/04/23 06:37:48.9      38   -130     77    136    156 163.5  31.9  33920  285.53 0855.06
2009/04/23 06:37:49.0      35   -140     94    145    172 165.7  35.6  33920  285.53 0855.06
2009/04/23 06:37:49.1      28   -121     82    125    149 166.6  35.6  33924  285.58 0855.06
2009/04/23 06:37:49.2       8   -116     82    117    142 176.0  38.0  33934  285.75 0855.06
2009/04/23 06:37:49.3      24   -110     66    113    130 167.5  33.4  33936  285.80 0855.06
2009/04/23 06:37:49.4       0   -142     74    143    161 180.0  29.5  33936  285.78 0855.06
2009/04/23 06:37:49.6      18   -131     59    133    145 172.0  25.2  33924  285.58 0855.06
2009/04/23 06:37:49.7       8   -115     48    116    125 175.6  23.6  33924  285.60 0855.06
2009/04/23 06:37:49.8      16    -92     53     94    107 169.8  31.4  33928  285.66 0855.06
2009/04/23 06:37:49.8      33   -125     31    130    134 164.9  13.7  33930  285.68 0855.06
2009/04/23 06:37:49.9      37   -120     21    126    128 162.6   9.5  33922  285.55 0855.06
2009/04/23 06:37:50.0      73   -109     26    132    135 146.2  11.1  33920  285.53 0855.06
2009/04/23 06:37:50.1      86   -118     27    147    150 144.0  10.6  33920  285.51 0855.06
2009/04/23 06:37:50.2      83   -124      7    150    151 146.2   2.9  33918  285.50 0855.06
2009/04/23 06:37:50.3      48   -135    -23    144    146 160.4  -9.3  33916  285.44 0855.06
2009/04/23 06:37:50.5      13   -113    -14    114    115 173.3  -7.3  33914  285.43 0855.06
2009/04/23 06:37:50.5      27   -101      8    105    106 164.8   4.9  33918  285.50 0855.06
2009/04/23 06:37:50.6      31    -94      6     99    100 161.7   3.8  33916  285.46 0855.06
2009/04/23 06:37:50.8      40   -115    -14    122    123 160.8  -6.7  33916  285.46 0855.06
2009/04/23 06:37:50.8      40   -105     25    113    116 159.1  12.6  33922  285.56 0855.06
2009/04/23 06:37:50.9      67   -101     40    122    129 146.6  18.4  33920  285.53 0855.06
2009/04/23 06:37:51.0      47    -96     29    108    113 153.7  15.3  33924  285.58 0855.06
2009/04/23 06:37:51.1      43    -96      5    106    107 155.9   2.8  33920  285.53 0855.06
2009/04/23 06:37:51.2      24   -111     26    114    118 167.5  13.2  33922  285.55 0855.06
2009/04/23 06:37:51.3      30   -117     37    121    127 165.3  17.3  33924  285.60 0855.06
2009/04/23 06:37:51.4      25   -125     51    128    137 168.5  23.0  33922  285.55 0855.06
2009/04/23 06:37:51.5      13   -122     43    123    131 173.7  19.4  33922  285.55 0855.06
2009/04/23 06:37:51.6       0   -123     42    124    132 180.4  18.9  33922  285.56 0855.06
2009/04/23 06:37:51.7      -4   -110     43    111    119 182.2  22.0  33920  285.51 0855.06
2009/04/23 06:37:51.8     -10   -115     27    116    120 185.3  13.2  33922  285.56 0855.06
2009/04/23 06:37:51.9      -3    -97     23     98    101 181.8  13.2  33922  285.56 0855.06
2009/04/23 06:37:52.0       5    -72     27     73     77 175.5  20.0  33924  285.60 0855.06
2009/04/23 06:37:52.1      -6    -66     26     67     71 185.3  22.0  33926  285.61 0855.06
2009/04/23 06:37:52.2      15    -87     26     89     93 169.8  16.8  33932  285.71 0855.06
2009/04/23 06:37:52.3       4    -69     18     70     73 176.4  14.3  33932  285.71 0855.06
2009/04/23 06:37:52.4      -7    -62     37     63     73 187.1  33.5  33936  285.80 0855.06
2009/04/23 06:37:52.5       4    -57     33     58     66 175.5  32.4  33930  285.70 0855.06
2009/04/23 06:37:52.6      21    -63     23     67     72 161.7  19.4  33926  285.61 0855.06
2009/04/23 06:37:52.7      31    -48     22     58     62 147.5  22.0  33926  285.61 0855.06
2009/04/23 06:37:52.8      32    -30     24     45     51 133.1  30.3  33926  285.61 0855.06
2009/04/23 06:37:52.9      21    -13     28     26     38 122.4  48.2  33926  285.63 0855.05
2009/04/23 06:37:53.0      10     -9     24     14     27 133.3  64.7  33926  285.63 0855.05
2009/04/23 06:37:53.1       9     -3     17     10     19 111.7  64.7  33924  285.60 0855.05
2009/04/23 06:37:53.2      15     -8     12     18     21 118.9  37.6  33924  285.60 0855.05
2009/04/23 06:37:53.3      17     -7     10     19     21 111.7  29.3  33924  285.58 0855.05
2009/04/23 06:37:53.4      13      1      7     14     15  82.1  27.2  33924  285.60 0855.05
2009/04/23 06:37:53.5      14      3      8     15     17  74.9  31.4  33924  285.60 0855.05
2009/04/23 06:37:53.6      14      3      8     15     17  74.9  31.4  33924  285.60 0855.05
2009/04/23 06:37:53.7       8      3      2      9     10  68.3  15.3  33924  285.60 0855.05
2009/04/23 06:37:53.8       6      6      0      9     10  46.9  -1.3  33924  285.58 0855.05
2009/04/23 06:37:53.9       8      3      2      9     10  68.3  15.3  33924  285.60 0855.05
2009/04/23 06:37:54.0       5     10      6     12     13  29.0  27.2  33924  285.58 0855.05
2009/04/23 06:37:54.1       5      4      6      7      9  50.5  52.0  33924  285.58 0855.05
2009/04/23 06:37:54.2       7      0      8      8     11  90.0  50.1  33922  285.55 0855.05
2009/04/23 06:37:54.3       2      0     10      3     10  90.0  84.9  33924  285.58 0855.05
2009/04/23 06:37:54.4       7      0      8      8     11  90.0  50.1  33922  285.55 0855.05
2009/04/23 06:37:54.5       7      0      8      8     11  90.0  50.1  33922  285.55 0855.05
2009/04/23 06:37:54.6       7      0      8      8     11  90.0  50.1  33922  285.55 0855.05
2009/04/23 06:37:54.7       0      0     12      0     12   0.0 -90.0  33922  285.55 0855.05
2009/04/23 06:37:54.8      -2      3      9      4      9 327.5  81.2  33924  285.58 0855.05
2009/04/23 06:37:55.0      -2      3     10      4     10 327.5  77.1  33924  285.58 0855.06
2009/04/23 06:37:55.1       0     11     10     12     15 355.5  47.9  33924  285.58 0855.06
2009/04/23 06:37:55.2     -15      9     11     18     21 302.5  33.5  33926  285.63 0855.06
2009/04/23 06:37:55.3     -23     11     16     26     30 297.1  35.5  33926  285.63 0855.06
2009/04/23 06:37:55.4     -32     13     22     35     41 293.5  35.5  33924  285.60 0855.06
2009/04/23 06:37:55.5     -36     17     28     40     48 295.4  38.6  33924  285.60 0855.06
2009/04/23 06:37:55.6     -26     28     24     39     45 316.6  35.5  33924  285.58 0855.06
2009/04/23 06:37:55.7     -22     22     31     32     44 315.0  51.1  33922  285.55 0855.06
2009/04/23 06:37:55.8     -21     25     33     33     46 320.4  50.1  33924  285.58 0855.06
2009/04/23 06:37:55.9     -19     30     35     36     50 327.5  51.1  33922  285.55 0855.06
2009/04/23 06:37:56.0     -33     33     33     47     57 315.0  38.6  33924  285.58 0855.06
2009/04/23 06:37:56.1     -45     42     21     62     66 313.1  19.4  33924  285.58 0855.06
2009/04/23 06:37:56.2     -66     35      7     75     76 298.0   5.9  33920  285.53 0855.06
2009/04/23 06:37:56.3    -105     67     43    125    133 302.4  18.9  33910  285.36 0855.06
2009/04/23 06:37:56.4    -106    113     54    156    166 316.8  19.2  33916  285.44 0855.06
2009/04/23 06:37:56.5     -79    133    -22    155    157 329.3  -8.2  33916  285.46 0855.06
2009/04/23 06:37:56.6     -87     98     -5    132    133 318.6  -2.2  33918  285.48 0855.06
2009/04/23 06:37:56.7     -98     98     16    139    141 314.9   6.9  33920  285.51 0855.06
2009/04/23 06:37:56.8    -114    104    -10    155    156 312.2  -3.9  33922  285.55 0855.06
2009/04/23 06:37:56.9     -93    120    -16    152    153 322.2  -6.2  33920  285.51 0855.06
2009/04/23 06:37:57.0     -95    124    -18    157    159 322.6  -6.7  33920  285.53 0855.07
2009/04/23 06:37:57.1     -82    138     -6    161    162 329.3  -2.2  33920  285.53 0855.07
2009/04/23 06:37:57.2     -87    141    -36    166    170 328.4 -12.4  33920  285.51 0855.07
2009/04/23 06:37:57.3    -102    123    -44    161    168 320.3 -15.5  33920  285.53 0855.07
2009/04/23 06:37:57.4     -69     96    -38    119    124 324.0 -23.3  33922  285.55 0855.07
2009/04/23 06:37:57.5     -56     49    -55     75     93 311.3 -44.5  33920  285.53 0855.07
2009/04/23 06:37:57.6     -25     57    -38     63     73 336.4 -38.8  33920  285.53 0855.07
2009/04/23 06:37:57.7     -45     30    -23     55     59 303.3 -27.5  33916  285.46 0855.07
2009/04/23 06:37:57.8     -96     -3    -20     97    100 267.9 -11.9  33918  285.50 0855.07
2009/04/23 06:37:57.9     -82    -47     25     95     99 239.8  15.2  33916  285.46 0855.07
2009/04/23 06:37:58.0     -57    -11     24     59     63 258.5  23.0  33910  285.36 0855.07
2009/04/23 06:37:58.1     -36    -21    -18     43     46 239.3 -27.4  33912  285.39 0855.07
2009/04/23 06:37:58.2     -21    -21    -16     31     34 225.0 -33.7  33918  285.48 0855.07
2009/04/23 06:37:58.3      -1    -22    -13     23     26 182.7 -37.9  33918  285.50 0855.07
2009/04/23 06:37:58.4      15     15    -14     22     26  45.0 -39.9  33918  285.50 0855.07
2009/04/23 06:37:58.5      14     22    -19     27     33  32.5 -44.1  33918  285.48 0855.07
2009/04/23 06:37:58.6      -1     40    -47     41     62 357.4 -57.7  33914  285.43 0855.07
2009/04/23 06:37:58.7      10     55    -63     56     84  10.7 -57.7  33918  285.48 0855.07
2009/04/23 06:37:58.8      46     63    -95     79    123  36.1 -60.2  33918  285.48 0855.07
2009/04/23 06:37:58.9      48    102    -26    113    117  25.3 -13.3  33914  285.41 0855.07
2009/04/23 06:37:59.0      42    106     13    115    116  21.8   6.5  33916  285.46 0855.07
2009/04/23 06:37:59.1      21    101     41    104    111  12.0  22.5  33916  285.46 0855.07
2009/04/23 06:37:59.2      -1     65     54     66     85 359.1  43.7  33916  285.44 0855.07
2009/04/23 06:37:59.3     -31    -19     77     37     85 237.6  72.4  33914  285.43 0855.07
2009/04/23 06:37:59.4     -67     15     39     69     79 283.3  32.4  33916  285.46 0855.07
2009/04/23 06:37:59.5    -104     28     16    108    110 285.5   8.5  33912  285.39 0855.07
2009/04/23 06:37:59.6    -104     53     -4    117    118 297.1  -2.2  33916  285.46 0855.07
2009/04/23 06:37:59.7     -62     91    -65    111    128 325.7 -37.9  33916  285.44 0855.07
2009/04/23 06:37:59.8     -96    101    -59    140    151 316.3 -28.5  33918  285.48 0855.07
2009/04/23 06:37:59.9     -91    112    -53    145    154 320.8 -24.8  33918  285.50 0855.07
2009/04/23 06:38:00.0    -126    126    -50    179    185 314.9 -20.2  33918  285.48 0855.07
2009/04/23 06:38:00.1    -124    132    -52    182    189 316.8 -20.7  33922  285.55 0855.07
2009/04/23 06:38:00.2    -130    130    -51    185    193 315.0 -15.5  33920  285.51 0855.07
2009/04/23 06:38:00.3    -142    128    -37    192    196 312.2 -10.9  33918  285.50 0855.07
2009/04/23 06:38:00.4    -135    126    -45    185    191 313.1 -13.7  33918  285.50 0855.07
2009/04/23 06:38:00.5    -152    126    -60    198    208 309.6 -17.0  33920  285.53 0855.07
2009/04/23 06:38:00.6    -128    129    -47    182    188 315.2 -14.5  33918  285.50 0855.07
2009/04/23 06:38:00.7    -103    141    -52    175    183 323.7 -16.8  33918  285.50 0855.07
2009/04/23 06:38:00.8     -86    135    -56    161    171 327.4 -19.4  33922  285.55 0855.07
2009/04/23 06:38:00.9     -51    130    -42    140    147 338.6 -16.6  33918  285.50 0855.07
2009/04/23 06:38:01.0     -77     99    -42    126    134 322.1 -18.7  33920  285.53 0855.07
2009/04/23 06:38:01.1     -97     91    -41    134    140 313.1 -21.8  33920  285.53 0855.07
2009/04/23 06:38:01.2     -77     93    -68    122    139 320.4 -35.8  33920  285.51 0855.07
2009/04/23 06:38:01.3    -109    102    -52    150    158 313.2 -24.4  33916  285.46 0855.07
2009/04/23 06:38:01.4     -50    127    -61    137    149 338.2 -30.1  33918  285.48 0855.07
2009/04/23 06:38:01.5     -77    163    -65    181    192 334.7 -24.6  33916  285.44 0855.07
2009/04/23 06:38:01.6     -59    170    -61    181    192 340.8 -18.7  33914  285.43 0855.07
2009/04/23 06:38:01.7    -102    190    -65    216    226 331.7 -16.8  33916  285.46 0855.07
2009/04/23 06:38:01.8     -75    184    -71    199    212 337.7 -19.6  33916  285.46 0855.07
2009/04/23 06:38:01.9     -38    193    -59    197    206 348.7 -16.8  33916  285.44 0855.07
2009/04/23 06:38:02.0     -98    155    -74    184    198 327.5 -27.4  33916  285.46 0855.08
2009/04/23 06:38:02.1     -58    175    -89    185    205 341.7 -31.7  33916  285.46 0855.08
2009/04/23 06:38:02.2     -71    145   -103    162    191 333.7 -39.9  33914  285.41 0855.08
2009/04/23 06:38:02.3    -101    159   -110    189    218 327.5 -37.3  33912  285.39 0855.08
2009/04/23 06:38:02.4     -43    143   -107    150    184 343.1 -43.5  33914  285.43 0855.08
2009/04/23 06:38:02.5     -86     68   -112    110    156 308.2 -54.8  33914  285.41 0855.08
2009/04/23 06:38:02.6     -97     80   -160    126    203 309.6 -62.3  33910  285.36 0855.08
2009/04/23 06:38:02.7     -50    137    -99    146    176 340.0 -41.7  33910  285.36 0855.08
2009/04/23 06:38:02.8     -41    124    -75    131    150 341.7 -36.8  33914  285.43 0855.08
2009/04/23 06:38:02.9     -51    132    -63    142    155 338.6 -29.6  33912  285.38 0855.08
2009/04/23 06:38:03.0     -61     39    -34     73     80 302.4 -31.0  33910  285.34 0855.08
2009/04/23 06:38:03.1     -22     -1    -63     23     67 265.6 -84.6  33912  285.39 0855.08
2009/04/23 06:38:03.2     -12     53    -24     55     60 346.6 -29.5  33912  285.38 0855.08
2009/04/23 06:38:03.4     -28     83    -48     88    100 341.3 -35.7  33912  285.39 0855.08
2009/04/23 06:38:03.5      -5    108     -6    109    110 356.9  -3.2  33912  285.39 0855.08
2009/04/23 06:38:03.5      36    163      6    167    168  12.5   2.1  33910  285.36 0855.08
2009/04/23 06:38:03.6      30    191    -10    194    195   9.1  -3.2  33910  285.34 0855.08
2009/04/23 06:38:03.7      -5    191    -22    192    194 358.4  -6.7  33910  285.34 0855.08
2009/04/23 06:38:03.8      -7    200      6    201    202 358.0   1.8  33908  285.33 0855.08
2009/04/23 06:38:03.9       0    196      0    197    198 359.8   0.0  33908  285.31 0855.08
2009/04/23 06:38:04.0      47    144     35    152    157  18.3  13.2  33908  285.33 0855.07
2009/04/23 06:38:04.1      51    152     26    161    164  18.7   9.3  33908  285.31 0855.07
2009/04/23 06:38:04.2      15    138    -41    139    146   6.3 -16.6  33908  285.33 0855.07
2009/04/23 06:38:04.3      20    129    -81    131    154   8.9 -39.9  33908  285.31 0855.07
2009/04/23 06:38:04.4      39     97    -72    105    127  21.9 -42.0  33912  285.38 0855.07
2009/04/23 06:38:04.5       8    112    -45    113    121   4.5 -27.4  33910  285.36 0855.07
2009/04/23 06:38:04.6      19     88    -25     91     95  12.5 -15.5  33910  285.36 0855.07
2009/04/23 06:38:04.7       6     77    -47     78     91   4.5 -38.4  33912  285.39 0855.07
2009/04/23 06:38:04.8     -13     68    -78     70    104 349.3 -57.7  33912  285.38 0855.07
2009/04/23 06:38:04.9     -21     43   -122     48    131 333.7 -81.5  33910  285.34 0855.07
2009/04/23 06:38:05.0     -31     -3    -94     32     99 263.9 -85.6  33910  285.34 0855.07
2009/04/23 06:38:05.1      26     35    -69     44     81  37.0 -69.1  33910  285.36 0855.07
2009/04/23 06:38:05.2      29     79    -66     85    107  20.0 -46.6  33912  285.39 0855.07
2009/04/23 06:38:05.3      26     27    -51     38     63  43.2 -63.8  33912  285.38 0855.07
2009/04/23 06:38:05.4      36    -31    -71     48     85 130.4 -67.6  33912  285.38 0855.07
2009/04/23 06:38:05.5      24    -46    -39     53     65 151.9 -44.1  33910  285.36 0855.07
2009/04/23 06:38:05.6      26    -23    -40     35     53 131.3 -58.7  33910  285.34 0855.07
2009/04/23 06:38:05.7      22    -35    -73     42     84 148.4 -71.6  33910  285.36 0855.07
2009/04/23 06:38:05.9      47     59    -78     76    108  38.7 -54.5  33910  285.36 0855.07
2009/04/23 06:38:06.0      48     35    -80     60    100  54.0 -63.8  33908  285.33 0855.07
2009/04/23 06:38:06.0      40     14    -32     43     53  70.9 -45.1  33910  285.36 0855.07
2009/04/23 06:38:06.1      49     21    -51     54     74  66.5 -53.4  33912  285.39 0855.07
2009/04/23 06:38:06.2      28     26    -65     39     75  46.9 -69.1  33910  285.36 0855.07
2009/04/23 06:38:06.3      35      2    -52     36     63  85.7 -65.9  33908  285.33 0855.07
2009/04/23 06:38:06.4      41      7    -53     42     67  80.3 -61.9  33910  285.36 0855.07
2009/04/23 06:38:06.5      63      0    -45     64     78  90.0 -43.0  33912  285.39 0855.07
2009/04/23 06:38:06.6      66    -21    -65     70     95 107.7 -52.3  33910  285.36 0855.07
2009/04/23 06:38:06.7      91     -4    -80     92    121  92.6 -50.2  33910  285.34 0855.07
2009/04/23 06:38:06.8      85    -22    -36     88     95 104.6 -28.0  33912  285.39 0855.07
2009/04/23 06:38:06.9      92    -12    -21     93     96  97.9 -12.9  33914  285.41 0855.07
2009/04/23 06:38:07.0      71    -11    -24     72     75  98.8 -23.6  33912  285.38 0855.07
2009/04/23 06:38:07.1      36     13     -5     39     40  70.0  -8.2  33912  285.39 0855.07
2009/04/23 06:38:07.2     -42      5    -41     43     59 277.0 -53.4  33912  285.39 0855.07
2009/04/23 06:38:07.3     -49     -3    -96     50    108 265.6 -75.2  33912  285.38 0855.07
2009/04/23 06:38:07.4     -50    -30    -92     59    109 239.3 -69.0  33906  285.29 0855.07
2009/04/23 06:38:07.5     -24    -38    -80     46     92 212.5 -71.6  33910  285.34 0855.07
2009/04/23 06:38:07.6     -15    -32    -75     36     83 205.4 -77.3  33910  285.34 0855.07
2009/04/23 06:38:07.7       2    -16    -76     17     77 172.0 -90.0  33910  285.36 0855.07
2009/04/23 06:38:07.8      54    -78    -89     95    130 145.3 -52.4  33914  285.43 0855.07
2009/04/23 06:38:07.9      81    -55    -72     98    121 124.2 -44.5  33914  285.41 0855.07
2009/04/23 06:38:08.0      56    -47    -87     74    114 129.6 -59.8  33908  285.31 0855.07
2009/04/23 06:38:08.1      54    -50    -61     74     95 133.1 -48.1  33908  285.33 0855.07
2009/04/23 06:38:08.2      61    -39    -51     73     89 122.4 -43.0  33912  285.38 0855.07
2009/04/23 06:38:08.3      56    -46    -26     73     77 129.6 -23.3  33912  285.38 0855.07
2009/04/23 06:38:08.4      40    -58   -122     71    141 144.8 -71.6  33914  285.41 0855.07
2009/04/23 06:38:08.5     -10   -107    -85    108    137 185.3 -46.6  33916  285.44 0855.07
2009/04/23 06:38:08.6      40   -149   -120    155    196 164.8 -46.1  33912  285.39 0855.07
2009/04/23 06:38:08.7      77    -83   -114    114    161 137.2 -54.5  33910  285.36 0855.07
2009/04/23 06:38:08.8      74    -34    -98     82    127 115.2 -60.7  33914  285.41 0855.07
2009/04/23 06:38:08.9      52    -66   -106     85    135 141.7 -61.3  33912  285.38 0855.07
2009/04/23 06:38:09.0      77    -66    -29    102    107 130.4 -16.0  33916  285.46 0855.07
2009/04/23 06:38:09.1      76    -45     35     89     95 120.7  22.5  33916  285.44 0855.07
2009/04/23 06:38:09.2       0    -46     26     47     53 180.0  31.4  33912  285.39 0855.07
2009/04/23 06:38:09.3       0      0     14      1     14  90.0  90.0  33912  285.39 0855.07
2009/04/23 06:38:09.4      64    -76     -6    100    101 139.9  -3.7  33912  285.38 0855.07
2009/04/23 06:38:09.5      19   -109    -50    111    121 169.8 -30.1  33912  285.38 0855.07
2009/04/23 06:38:09.6      40   -119    -40    126    133 161.3 -17.6  33910  285.36 0855.07
2009/04/23 06:38:09.7      33    -60    -34     69     76 151.0 -31.7  33908  285.31 0855.07
2009/04/23 06:38:09.8      58    -39    -11     71     72 124.2  -9.3  33910  285.36 0855.07
2009/04/23 06:38:09.9      84    -66     -4    107    108 128.2  -2.2  33912  285.38 0855.07
2009/04/23 06:38:10.0      90    -16     60     92    109 100.6  35.6  33912  285.38 0855.06
2009/04/23 06:38:10.1     107     -9    110    108    154  95.2  50.1  33912  285.38 0855.06
2009/04/23 06:38:10.2     114     -7     83    115    141  93.9  39.7  33910  285.34 0855.06
2009/04/23 06:38:10.3     142    -30     90    146    171 101.9  34.8  33912  285.38 0855.06
2009/04/23 06:38:10.4     122    -47     74    131    150 111.3  31.4  33912  285.39 0855.06
2009/04/23 06:38:10.5      95    -21     65     98    117 102.8  37.0  33912  285.38 0855.06
2009/04/23 06:38:10.6     133     -3     36    134    139  91.7  15.3  33912  285.39 0855.06
2009/04/23 06:38:10.7     171      0     33    172    176  90.1  10.8  33912  285.38 0855.06
2009/04/23 06:38:10.8     170      7      9    171    172  87.6   3.1  33912  285.39 0855.06
2009/04/23 06:38:10.9     142    -28     47    145    153 101.5  18.1  33912  285.39 0855.06
2009/04/23 06:38:11.0     145    -22     55    147    156  98.8  21.5  33914  285.41 0855.06
2009/04/23 06:38:11.1     132    -39     48    138    147 106.8  19.4  33914  285.41 0855.06
2009/04/23 06:38:11.2     133    -22     48    135    143  99.7  20.0  33912  285.39 0855.06
2009/04/23 06:38:11.3     135     -6     59    136    148  92.6  25.1  33912  285.39 0855.06
2009/04/23 06:38:11.4     117     -2     72    118    138  91.3  34.4  33914  285.41 0855.06
2009/04/23 06:38:11.5     102    -39     63    110    126 110.8  32.4  33914  285.43 0855.06
2009/04/23 06:38:11.6      85    -37     38     93    100 113.5  23.1  33914  285.41 0855.06
2009/04/23 06:38:11.7     107    -71     54    129    139 123.7  23.6  33914  285.41 0855.06
2009/04/23 06:38:11.8     108    -37     40    115    122 109.1  19.4  33912  285.39 0855.06
2009/04/23 06:38:11.9      74    -34     14     82     84 115.2  10.1  33914  285.41 0855.06
2009/04/23 06:38:12.0      73    -37     30     82     87 117.1  20.4  33914  285.43 0855.06
2009/04/23 06:38:12.1      77    -49     16     92     94 122.4  10.1  33912  285.39 0855.06
2009/04/23 06:38:12.2      87    -48     11    100    101 119.3   6.5  33912  285.39 0855.06
2009/04/23 06:38:12.3      80    -67      6    105    106 130.0   3.3  33914  285.43 0855.06
2009/04/23 06:38:12.4      70    -59      4     92     93 130.0   2.9  33916  285.44 0855.06
2009/04/23 06:38:12.5      76    -48     32     91     97 122.4  19.4  33912  285.39 0855.06
2009/04/23 06:38:12.6      74    -64     14     98    100 130.9   8.5  33916  285.44 0855.06
2009/04/23 06:38:12.7      66    -77     47    102    112 139.5  26.6  33914  285.41 0855.06
2009/04/23 06:38:12.8      99   -105     51    145    154 136.7  19.4  33918  285.48 0855.06
2009/04/23 06:38:12.9     100   -111     42    150    156 138.1  15.8  33918  285.48 0855.06
2009/04/23 06:38:13.0      87   -105     32    137    141 140.4  13.1  33914  285.41 0855.06
2009/04/23 06:38:13.1     107    -86     23    138    140 128.6   9.5  33916  285.44 0855.06
2009/04/23 06:38:13.2      96    -96     16    137    138 135.0   6.9  33914  285.43 0855.06
2009/04/23 06:38:13.3     112   -105     30    154    157 133.2  11.1  33918  285.48 0855.06
2009/04/23 06:38:13.4      94    -99     14    137    138 136.3   5.9  33916  285.44 0855.06
2009/04/23 06:38:13.5      85    -96     31    129    133 138.6  13.7  33918  285.48 0855.06
2009/04/23 06:38:13.6      80    -82     -2    115    116 135.9  -1.2  33918  285.50 0855.06
2009/04/23 06:38:13.7      66    -80     12    104    105 140.4   6.9  33916  285.46 0855.06
2009/04/23 06:38:13.8      51    -93     21    107    110 151.0  11.1  33920  285.51 0855.06
2009/04/23 06:38:13.9      39    -82     -5     91     92 154.6  -3.1  33920  285.53 0855.06
2009/04/23 06:38:14.0      34    -73    -29     81     87 154.6 -19.7  33926  285.61 0855.06
2009/04/23 06:38:14.1      41    -86     -9     96     97 154.5  -5.6  33926  285.63 0855.06
2009/04/23 06:38:14.2      63    -70     -8     95     96 138.1  -5.2  33920  285.53 0855.06
2009/04/23 06:38:14.3      82    -90     -8    122    123 137.7  -4.1  33920  285.51 0855.06
2009/04/23 06:38:14.4      70   -114      6    135    136 148.4   2.8  33918  285.50 0855.06
2009/04/23 06:38:14.5      70   -114      6    135    136 148.4   2.8  33918  285.50 0855.06
2009/04/23 06:38:14.7      67   -121     61    139    151 151.0  25.2  33916  285.46 0855.06
2009/04/23 06:38:14.7      65   -129     56    145    155 153.3  21.5  33916  285.46 0855.06
2009/04/23 06:38:14.8      75   -126     76    147    165 149.3  29.5  33918  285.48 0855.06
2009/04/23 06:38:14.9      67   -130     76    147    165 152.8  29.5  33922  285.55 0855.06
2009/04/23 06:38:15.0      60   -103     70    120    138 149.7  33.4  33918  285.48 0855.06
2009/04/23 06:38:15.1      68    -79     92    105    139 139.5  45.8  33920  285.51 0855.06
2009/04/23 06:38:15.2      37    -58     83     69    107 147.5  56.3  33918  285.50 0855.06
2009/04/23 06:38:15.3      37     -2     78     38     86  94.4  72.4  33920  285.51 0855.06
2009/04/23 06:38:15.4      -1     -5     56      6     56 198.5  90.0  33918  285.50 0855.06
2009/04/23 06:38:15.5      16    -22     57     28     63 143.9  72.8  33918  285.48 0855.06
2009/04/23 06:38:15.6       7      0     42      8     42  90.0  90.0  33918  285.48 0855.06
2009/04/23 06:38:15.7       8      8     34     12     36  46.9  81.2  33918  285.50 0855.06
2009/04/23 06:38:15.8      10     19     37     22     43  27.2  66.8  33920  285.51 0855.06
2009/04/23 06:38:15.9       2      7     37      8     37  18.5  89.0  33918  285.48 0855.06
2009/04/23 06:38:16.0     -23     15     32     28     42 302.4  53.3  33918  285.48 0855.06
2009/04/23 06:38:16.1     -16      0     63     17     65 270.0  84.9  33922  285.55 0855.06
2009/04/23 06:38:16.3     -18    -18     59     26     64 225.0  76.1  33922  285.56 0855.06
2009/04/23 06:38:16.3     -23    -67     56     72     91 199.2  42.2  33920  285.53 0855.06
2009/04/23 06:38:16.4     -10    -71     56     72     91 188.0  42.2  33920  285.51 0855.06
2009/04/23 06:38:16.5     -36    -66     47     76     89 209.0  35.0  33924  285.58 0855.06
2009/04/23 06:38:16.6     -23    -50     34     56     65 205.3  35.5  33924  285.60 0855.06
2009/04/23 06:38:16.7      -6    -49     26     50     56 188.0  29.3  33926  285.61 0855.06
2009/04/23 06:38:16.8     -22    -41     32     47     56 208.1  36.5  33922  285.55 0855.06
2009/04/23 06:38:16.9     -29    -65      8     72     73 204.5   6.9  33920  285.53 0855.06
2009/04/23 06:38:17.1      15    -32     29     36     46 154.5  42.7  33920  285.51 0855.06
2009/04/23 06:38:17.2      31    -15     32     35     47 117.1  47.9  33918  285.48 0855.06
2009/04/23 06:38:17.2       7    -45     49     46     67 171.1  52.1  33912  285.39 0855.06
2009/04/23 06:38:17.3      -3    -57     37     58     68 183.6  35.5  33910  285.36 0855.06
2009/04/23 06:38:17.4     -13    -21     40     26     47 212.5  64.6  33912  285.39 0855.06
2009/04/23 06:38:17.5     -12    -37     32     40     51 198.7  43.7  33910  285.34 0855.06
2009/04/23 06:38:17.6      16    -21     39     27     47 142.2  62.6  33904  285.26 0855.06
2009/04/23 06:38:17.7      30    -34     22     46     51 138.6  27.2  33906  285.29 0855.06
2009/04/23 06:38:17.8       5    -41     47     42     63 172.0  52.2  33910  285.36 0855.06
2009/04/23 06:38:17.9       5    -48     53     49     72 173.8  52.2  33910  285.34 0855.06
2009/04/23 06:38:18.0      -9    -41     55     43     69 193.4  57.5  33910  285.36 0855.07
2009/04/23 06:38:18.1       1    -41     49     42     64 178.2  54.3  33910  285.34 0855.07
2009/04/23 06:38:18.2      -2    -25     38     26     46 184.5  62.6  33912  285.38 0855.07
2009/04/23 06:38:18.3       1    -17     29     18     34 175.5  64.7  33910  285.36 0855.07
2009/04/23 06:38:18.5      12    -27     16     30     34 154.6  29.3  33910  285.36 0855.07
2009/04/23 06:38:18.6      16    -21     13     27     29 142.2  27.3  33912  285.38 0855.07
2009/04/23 06:38:18.6      25    -22     11     34     37 131.3  18.9  33910  285.34 0855.07
2009/04/23 06:38:18.7      33    -22     11     40     42 124.2  15.3  33908  285.31 0855.07
2009/04/23 06:38:18.8      27    -14      6     31     32 118.9  11.0  33908  285.31 0855.07
2009/04/23 06:38:18.9      17      0     11     18     21  90.0  33.5  33908  285.33 0855.07
2009/04/23 06:38:19.0      28     19     28     35     44  55.8  42.7  33912  285.38 0855.07
2009/04/23 06:38:19.1      47     12     19     49     52  74.9  22.0  33910  285.36 0855.07
2009/04/23 06:38:19.2      41      7     25     42     48  79.4  34.4  33912  285.38 0855.07
2009/04/23 06:38:19.3      45      7     31     46     55  80.3  35.6  33910  285.34 0855.07
2009/04/23 06:38:19.4      38     16     48     42     63  67.4  53.3  33912  285.38 0855.07
2009/04/23 06:38:19.5      62     10     73     63     96  80.3  54.8  33914  285.41 0855.07
2009/04/23 06:38:19.6      73     48     71     88    113  56.7  43.7  33912  285.39 0855.07
2009/04/23 06:38:19.7     114     70     57    134    145  58.5  24.1  33914  285.43 0855.07
2009/04/23 06:38:19.8     100     54     64    114    130  61.6  31.9  33916  285.46 0855.07
2009/04/23 06:38:19.9      78      7     76     79    109  84.8  49.0  33914  285.43 0855.07
2009/04/23 06:38:20.0     121      0    -24    122    125  90.4 -11.3  33912  285.38 0855.07
2009/04/23 06:38:20.1      81      0      9     82     83  90.0   6.9  33914  285.41 0855.07
2009/04/23 06:38:20.2      72     34    -85     80    116  64.7 -56.0  33916  285.44 0855.07
2009/04/23 06:38:20.3      97     14    -19     99    101  81.6 -10.9  33916  285.44 0855.07
2009/04/23 06:38:20.4      92     55      8    108    109  59.3   4.4  33914  285.41 0855.07
2009/04/23 06:38:20.5      57     63     32     86     91  41.9  21.0  33914  285.43 0855.07
2009/04/23 06:38:20.6      47     29     54     56     77  58.5  51.1  33916  285.46 0855.07
2009/04/23 06:38:20.7      42      2     35     43     55  86.5  43.7  33916  285.44 0855.07
2009/04/23 06:38:20.8      15     -2     21     16     26  97.9  58.5  33918  285.48 0855.07
2009/04/23 06:38:20.9      43    -27      9     52     53 122.4  10.1  33916  285.44 0855.07
2009/04/23 06:38:21.0      62    -34      2     71     72 118.8   1.8  33916  285.46 0855.07
2009/04/23 06:38:21.1      99    -16      5    101    102  99.2   2.9  33916  285.46 0855.07
2009/04/23 06:38:21.3     110    -17     11    112    113  99.2   5.9  33914  285.43 0855.07
2009/04/23 06:38:21.4     117    -35     14    123    124 106.8   6.9  33914  285.41 0855.07
2009/04/23 06:38:21.5      96      2    -25     97    101  88.3 -14.5  33914  285.43 0855.07
2009/04/23 06:38:21.6      96    -15    -40     98    105  98.8 -27.5  33914  285.43 0855.07
2009/04/23 06:38:21.7     120     36     -6    126    127  73.2  -3.1  33914  285.43 0855.07
2009/04/23 06:38:21.8     145     19      7    147    148  82.5   2.8  33916  285.44 0855.07
2009/04/23 06:38:21.9     185     35     12    189    190  79.2   3.8  33914  285.41 0855.07
2009/04/23 06:38:22.0     171     46     31    178    181  74.9  10.1  33912  285.39 0855.07
2009/04/23 06:38:22.1     177     50    -10    185    186  74.1  -3.2  33916  285.44 0855.07
2009/04/23 06:38:22.2     181     35     22    185    187  78.8   6.9  33914  285.41 0855.07
2009/04/23 06:38:22.3    6250 -10483   5817  12203  13518 149.2  27.4  31922  252.87 0855.07
2009/04/23 06:38:22.4     142     31     49    146    155  77.6  18.6  33914  285.41 0855.07
2009/04/23 06:38:22.5     160     33     66    164    176  78.3  23.1  33910  285.36 0855.07
2009/04/23 06:38:22.6      92     17    108     94    143  79.0  54.3  33916  285.44 0855.07
2009/04/23 06:38:22.7      99      7    101    100    142  85.6  50.1  33916  285.44 0855.07
2009/04/23 06:38:22.8     154     21    131    156    203  82.0  44.3  33914  285.43 0855.07
2009/04/23 06:38:22.9     143     73     98    161    188  62.9  34.4  33914  285.41 0855.07
2009/04/23 06:38:23.0     118     85     67    146    160  54.0  26.2  33914  285.43 0855.07
2009/04/23 06:38:23.1     126     33     64    131    145  75.4  27.3  33916  285.46 0855.07
2009/04/23 06:38:23.2     153     50    103    162    191  71.8  35.5  33914  285.41 0855.07
2009/04/23 06:38:23.3     142     57     97    154    182  68.2  35.5  33912  285.39 0855.07
2009/04/23 06:38:23.4     130     14     95    131    161  83.8  39.7  33914  285.41 0855.07
2009/04/23 06:38:23.5     110      2    109    111    155  88.7  50.0  33916  285.44 0855.07
2009/04/23 06:38:23.6      66    -26     90     72    115 111.7  56.4  33914  285.43 0855.07
2009/04/23 06:38:23.7      97    -44     84    107    136 114.4  42.2  33914  285.43 0855.07
2009/04/23 06:38:23.8     112    -59     82    127    151 118.0  35.6  33918  285.48 0855.07
2009/04/23 06:38:23.9     101    -33    102    107    147 108.2  48.5  33918  285.50 0855.07
2009/04/23 06:38:24.0     101    -32    103    106    147 107.7  49.4  33918  285.48 0855.07
2009/04/23 06:38:24.1     118    -39    115    125    169 108.2  47.5  33918  285.50 0855.07
2009/04/23 06:38:24.2      77    -30    115     83    141 111.8  60.5  33918  285.48 0855.07
2009/04/23 06:38:24.3     105     -3    105    106    149  91.7  50.0  33916  285.44 0855.07
2009/04/23 06:38:24.4     106    -28     83    110    137 105.1  41.2  33918  285.50 0855.07
2009/04/23 06:38:24.5     100     46     82    111    138  65.2  40.1  33914  285.41 0855.07
2009/04/23 06:38:24.6      67     10     70     68     97  81.2  49.7  33916  285.44 0855.07
2009/04/23 06:38:24.7      63    -39     79     75    108 121.5  51.6  33918  285.50 0855.07
2009/04/23 06:38:24.8      62    -15     81     64    103 104.2  57.5  33918  285.48 0855.07
2009/04/23 06:38:24.9      65    -10     69     66     95  98.8  51.2  33918  285.50 0855.07
2009/04/23 06:38:25.0      58    -30     71     66     96 118.0  51.6  33916  285.44 0855.07
2009/04/23 06:38:25.1       3    -48     54     49     72 176.4  52.2  33912  285.39 0855.08
2009/04/23 06:38:25.2       9    -67     66     68     94 171.9  50.5  33912  285.38 0855.08
2009/04/23 06:38:25.3      22    -47     62     52     80 154.7  55.4  33910  285.34 0855.08
2009/04/23 06:38:25.4       7    -60     48     61     77 172.9  43.7  33912  285.39 0855.08
2009/04/23 06:38:25.5      23    -50     63     56     84 155.5  53.3  33914  285.41 0855.08
2009/04/23 06:38:25.6       4    -42     53     43     68 173.8  56.4  33916  285.44 0855.08
2009/04/23 06:38:25.7      43    -36     55     57     79 129.5  49.4  33914  285.43 0855.08
2009/04/23 06:38:25.8      63    -20     81     67    105 108.2  56.3  33910  285.36 0855.08
2009/04/23 06:38:25.9      16     -3     54     17     56 101.5  80.7  33916  285.44 0855.08
2009/04/23 06:38:26.0    6161  10575   5822  12237  13551  30.2  27.3  31932  253.04 0855.08
2009/04/23 06:38:26.1      62     15     49     64     80  75.8  41.2  33912  285.39 0855.08
2009/04/23 06:38:26.2     105     18     58    107    121  80.3  30.8  33910  285.36 0855.08
2009/04/23 06:38:26.3     146     30     94    150    177  78.1  35.2  33908  285.33 0855.08
2009/04/23 06:38:26.4     144     27     92    147    173  79.4  35.5  33908  285.33 0855.08
2009/04/23 06:38:26.5     143     56     31    154    158  68.3  11.4  33910  285.34 0855.08
2009/04/23 06:38:26.6      99     53     55    113    125  62.0  27.8  33912  285.38 0855.08
2009/04/23 06:38:26.7      65    -10     57     66     87  98.8  45.8  33910  285.34 0855.08
2009/04/23 06:38:26.8      72    -72     82    103    131 135.0  43.3  33918  285.50 0855.08
2009/04/23 06:38:26.9      75    -54     73     93    118 126.0  42.2  33916  285.46 0855.08
2009/04/23 06:38:27.0      57    -54     56     79     96 133.2  38.6  33912  285.39 0855.08
2009/04/23 06:38:27.1      46    -45     65     65     91 134.9  50.1  33914  285.41 0855.08
2009/04/23 06:38:27.2      50    -52     49     73     87 135.9  37.0  33918  285.48 0855.09
2009/04/23 06:38:27.3      35    -34     28     49     56 134.1  33.5  33918  285.48 0855.09
2009/04/23 06:38:27.4      33    -22      2     40     41 124.2   2.9  33920  285.51 0855.09
2009/04/23 06:38:27.5      31    -19     29     37     47 122.5  42.7  33920  285.53 0855.09
2009/04/23 06:38:27.6      26    -28     22     39     44 136.6  32.4  33918  285.50 0855.09
2009/04/23 06:38:27.7     -19    -11     39     23     45 239.3  65.7  33916  285.44 0855.09
2009/04/23 06:38:27.8     -13    -43     35     45     57 196.9  42.7  33916  285.46 0855.09
2009/04/23 06:38:27.9       0    -43     14     44     47 180.0  18.4  33914  285.41 0855.09
2009/04/23 06:38:28.0      15    -26     15     31     34 149.3  27.2  33912  285.38 0855.09
2009/04/23 06:38:28.1      26    -21     15     34     37 129.6  25.1  33912  285.38 0855.09
2009/04/23 06:38:28.2       3      0     24      4     24  90.0  90.0  33910  285.36 0855.09
2009/04/23 06:38:28.3       7      0     35      8     35  90.0  89.0  33912  285.39 0855.09
2009/04/23 06:38:28.4      20     12     44     24     50  57.6  68.8  33914  285.43 0855.09
2009/04/23 06:38:28.5      50     16     36     53     64  71.8  37.6  33910  285.36 0855.09
2009/04/23 06:38:28.6      -1    -10     38     11     39 188.0  80.7  33910  285.36 0855.09
2009/04/23 06:38:28.7     -12     -8     40     15     42 237.6  79.2  33912  285.39 0855.09
2009/04/23 06:38:28.8      -8      3     32      9     33 295.3  82.8  33910  285.36 0855.09
2009/04/23 06:38:28.9       9     -3     30     10     31 111.7  81.0  33910  285.34 0855.09
2009/04/23 06:38:29.0      13     -5     13     14     19 111.7  52.0  33912  285.39 0855.09
2009/04/23 06:38:29.1      17    -22      9     28     30 142.2  18.9  33912  285.38 0855.09
2009/04/23 06:38:29.2      16    -15     44     23     49 133.1  70.8  33912  285.39 0855.09
2009/04/23 06:38:29.3      16    -22     50     28     57 143.9  67.7  33914  285.43 0855.09
2009/04/23 06:38:29.4      39    -14     60     42     73 110.8  60.6  33914  285.41 0855.09
2009/04/23 06:38:29.5      26     20     43     34     54  52.2  57.5  33912  285.39 0855.09
2009/04/23 06:38:29.6     -12     15     46     20     50 320.4  74.0  33914  285.43 0855.09
2009/04/23 06:38:29.7       0     28     35     29     45   0.9  55.4  33916  285.44 0855.09
2009/04/23 06:38:29.8       2     42     43     43     60   2.7  50.1  33912  285.38 0855.09
2009/04/23 06:38:29.9      41     43     69     60     91  44.1  54.8  33908  285.31 0855.09
2009/04/23 06:38:30.0      60      0     83     61    103  90.0  60.0  33912  285.38 0855.09
2009/04/23 06:38:30.1      94     -7     91     95    131  94.4  49.0  33912  285.39 0855.09
2009/04/23 06:38:30.2      70     18     68     73     99  75.0  48.0  33912  285.38 0855.09
2009/04/23 06:38:30.3      36     20     63     42     75  60.2  64.6  33910  285.36 0855.09
2009/04/23 06:38:30.4      56     30     64     64     90  61.2  50.1  33914  285.41 0855.09
2009/04/23 06:38:30.5      22    -14     55     27     61 122.5  72.8  33914  285.43 0855.09
2009/04/23 06:38:30.6     -10    -14     39     18     42 216.1  74.0  33918  285.48 0855.09
2009/04/23 06:38:30.7      23     19     71     30     77  50.5  77.0  33912  285.38 0855.09
2009/04/23 06:38:30.8      31     18     86     37     93  59.3  75.5  33912  285.38 0855.09
2009/04/23 06:38:30.9      40     12     69     42     80  73.2  66.2  33908  285.33 0855.09
2009/04/23 06:38:31.0      29     10     62     31     69  70.0  72.8  33906  285.29 0855.09
2009/04/23 06:38:31.1       3     21     51     22     55   9.8  75.0  33908  285.31 0855.09
2009/04/23 06:38:31.2      -1    -16     51     17     53 184.4  81.0  33914  285.43 0855.10
2009/04/23 06:38:31.3       2    -34     62     35     71 175.6  68.8  33916  285.44 0855.10
2009/04/23 06:38:31.4       9    -77     69     78    104 172.9  46.9  33918  285.50 0855.10
2009/04/23 06:38:31.5       0    -85     80     86    117 180.0  47.9  33920  285.51 0855.10
2009/04/23 06:38:31.6      -6   -111     66    112    130 183.1  33.5  33924  285.60 0855.10
2009/04/23 06:38:31.7     -14    -67    118     69    136 192.5  66.8  33930  285.68 0855.10
2009/04/23 06:38:31.8      -9    -70     84     71    109 188.0  56.3  33926  285.61 0855.10
2009/04/23 06:38:31.9       5    -74     73     75    104 175.5  50.0  33920  285.53 0855.10
2009/04/23 06:38:32.0      29    -79     58     85    102 159.5  37.6  33918  285.50 0855.10
2009/04/23 06:38:32.1      28   -106     76    110    133 164.8  37.6  33918  285.50 0855.10
2009/04/23 06:38:32.2      29   -109     66    113    130 164.9  33.4  33916  285.46 0855.10
2009/04/23 06:38:32.3      39   -110     87    117    145 160.4  40.1  33916  285.46 0855.10
2009/04/23 06:38:32.4      31   -107     87    112    141 163.5  41.7  33920  285.51 0855.10
2009/04/23 06:38:32.5      31   -114     88    119    148 164.9  39.7  33916  285.46 0855.10
2009/04/23 06:38:32.6      31    -94     77    100    126 161.7  41.6  33918  285.48 0855.10
2009/04/23 06:38:32.7      87   -102     90    135    162 139.5  37.0  33918  285.48 0855.10
2009/04/23 06:38:32.8      75   -147     66    166    178 152.8  23.0  33916  285.44 0855.10
2009/04/23 06:38:32.9      65   -110     68    128    144 149.3  30.8  33918  285.48 0855.10
2009/04/23 06:38:33.0      91    -96     96    133    164 136.7  39.3  33916  285.46 0855.10
2009/04/23 06:38:33.1      76    -97     92    124    154 142.2  39.7  33916  285.46 0855.10
2009/04/23 06:38:33.2      61   -122     79    137    158 153.3  32.7  33916  285.46 0855.10
2009/04/23 06:38:33.3      59   -148     94    160    185 158.2  33.5  33920  285.53 0855.10
2009/04/23 06:38:33.4      84   -132     88    157    179 147.4  31.6  33916  285.44 0855.10
2009/04/23 06:38:33.5      79   -104     82    131    154 142.6  35.5  33916  285.44 0855.10
2009/04/23 06:38:33.6      52   -158     29    167    170 161.5   9.9  33916  285.44 0855.10
2009/04/23 06:38:33.7      57   -179     64    188    199 162.2  18.9  33918  285.48 0855.10
2009/04/23 06:38:33.8      45   -173     34    179    183 165.3  11.0  33924  285.58 0855.10
2009/04/23 06:38:33.9      60   -118     44    133    141 152.8  18.4  33912  285.38 0855.10
2009/04/23 06:38:34.0      73   -115     29    137    141 147.5  12.2  33912  285.39 0855.10
2009/04/23 06:38:34.1      77    -83    100    114    151 137.2  45.8  33912  285.38 0855.10
2009/04/23 06:38:34.2      96   -130     77    162    179 143.5  27.2  33912  285.38 0855.10
2009/04/23 06:38:34.3      44   -159     69    166    179 164.4  23.8  33916  285.44 0855.10
2009/04/23 06:38:34.4      43   -157     72    163    178 164.6  25.1  33918  285.48 0855.10
2009/04/23 06:38:34.5      97   -134     58    166    176 144.0  19.4  33916  285.46 0855.10
2009/04/23 06:38:34.6      97   -117      7    153    154 140.4   2.9  33912  285.39 0855.10
2009/04/23 06:38:34.7      73   -132     41    151    157 151.0  15.2  33916  285.46 0855.10
2009/04/23 06:38:34.8      62   -131     47    145    153 154.7  17.9  33918  285.50 0855.10
2009/04/23 06:38:34.9      69   -138     55    155    164 153.3  20.0  33920  285.51 0855.10
2009/04/23 06:38:35.0      55   -133     54    145    154 157.3  20.9  33918  285.48 0855.10
2009/04/23 06:38:35.1      36   -127     55    133    143 164.0  23.1  33918  285.48 0855.10
2009/04/23 06:38:35.2      45   -127     64    135    149 160.4  27.2  33918  285.48 0855.10
2009/04/23 06:38:35.3      33   -131     66    136    151 165.7  27.3  33920  285.51 0855.10
2009/04/23 06:38:35.4      32   -119     72    124    143 164.8  33.4  33922  285.55 0855.10
2009/04/23 06:38:35.5      77   -132     73    153    169 149.7  27.3  33920  285.53 0855.10
2009/04/23 06:38:35.6      52   -133     84    143    165 158.6  33.1  33918  285.50 0855.10
2009/04/23 06:38:35.7      88   -121     74    150    167 144.0  28.0  33920  285.51 0855.10
2009/04/23 06:38:35.8      72   -131     88    150    173 151.1  33.5  33920  285.51 0855.10
2009/04/23 06:38:35.9      66   -130    117    146    187 152.9  43.3  33920  285.53 0855.10
2009/04/23 06:38:36.0      81   -125    113    150    187 147.0  40.7  33918  285.50 0855.10
2009/04/23 06:38:36.1      37   -143    108    148    183 165.3  39.7  33918  285.48 0855.10
2009/04/23 06:38:36.2      77   -147     91    167    190 152.4  31.0  33916  285.44 0855.10
2009/04/23 06:38:36.3      62   -155     94    168    192 158.2  31.9  33916  285.46 0855.10
2009/04/23 06:38:36.4      56   -140    105    151    183 158.2  38.4  33918  285.48 0855.10
2009/04/23 06:38:36.5      63   -131    112    146    184 154.1  41.4  33916  285.44 0855.10
2009/04/23 06:38:36.6     -10   -128    107    129    167 184.5  44.1  33918  285.48 0855.10
2009/04/23 06:38:36.7      24   -122    103    125    161 168.9  44.1  33920  285.53 0855.10
2009/04/23 06:38:36.8      43   -139    115    146    185 162.6  42.2  33916  285.46 0855.10
2009/04/23 06:38:36.9      42   -139    134    146    198 163.1  47.7  33920  285.53 0855.10
2009/04/23 06:38:37.0      78   -131    109    153    187 149.2  39.1  33918  285.50 0855.10
2009/04/23 06:38:37.1      73   -101     97    126    159 144.0  41.4  33920  285.51 0855.10
2009/04/23 06:38:37.2      60   -110     73    126    145 151.5  32.9  33918  285.50 0855.10
2009/04/23 06:38:37.3      36   -102     21    109    112 160.4  11.1  33920  285.51 0855.10
2009/04/23 06:38:37.4      42   -138     -8    145    146 163.1  -3.2  33944  285.92 0855.10
2009/04/23 06:38:37.5      23   -113     40    116    123 168.4  19.4  33944  285.93 0855.10
2009/04/23 06:38:37.6       0   -109     32    110    115 180.4  16.3  33936  285.80 0855.10
2009/04/23 06:38:37.7      -5   -131     46    132    141 182.2  19.4  33934  285.76 0855.10
2009/04/23 06:38:37.8     -24   -121     82    124    148 191.6  36.5  33932  285.71 0855.10
2009/04/23 06:38:37.9      -9    -98     82     99    128 185.8  43.8  33932  285.73 0855.10
2009/04/23 06:38:38.0       2   -143     49    144    153 179.0  18.9  33928  285.66 0855.10
2009/04/23 06:38:38.1     -26   -172     11    174    175 188.7   3.8  33916  285.46 0855.10
2009/04/23 06:38:38.2     -50   -169     29    177    180 196.5   9.3  33920  285.53 0855.10
2009/04/23 06:38:38.3     -42   -166     28    172    175 194.3   9.5  33918  285.50 0855.10
2009/04/23 06:38:38.4     -31   -131     41    135    142 193.4  16.8  33916  285.46 0855.10
2009/04/23 06:38:38.5     -24   -143     45    146    153 189.7  17.3  33920  285.51 0855.10
2009/04/23 06:38:38.6      84   -155     34    177    181 151.5  11.0  33918  285.48 0855.10
2009/04/23 06:38:38.7      81   -171     36    190    194 154.7  11.0  33920  285.51 0855.10
2009/04/23 06:38:38.8      64   -185    -25    196    198 160.8  -7.3  33914  285.43 0855.10
2009/04/23 06:38:38.9      44   -145    -19    152    154 163.1  -7.2  33916  285.44 0855.10
2009/04/23 06:38:39.0      78   -161     -3    180    181 154.1  -1.3  33916  285.44 0855.10
2009/04/23 06:38:39.1      61   -173    -32    184    187 160.6 -10.1  33916  285.46 0855.10
2009/04/23 06:38:39.2      58   -156      3    167    168 159.5   1.2  33918  285.50 0855.10
2009/04/23 06:38:39.3      50   -123     25    134    137 157.7  10.6  33920  285.53 0855.10
2009/04/23 06:38:39.4      46   -178     10    184    185 165.3   3.3  33920  285.51 0855.10
2009/04/23 06:38:39.5      82   -172     19    191    192 154.5   5.9  33920  285.51 0855.10
2009/04/23 06:38:39.6      58   -165    -36    176    180 160.4 -11.6  33916  285.46 0855.10
2009/04/23 06:38:39.7      67   -148    -28    163    166 155.7  -9.8  33916  285.46 0855.10
2009/04/23 06:38:39.8      86   -126    -33    153    157 145.7 -12.4  33918  285.50 0855.10
2009/04/23 06:38:39.9      85   -125    -23    152    154 145.8  -8.8  33916  285.46 0855.10
2009/04/23 06:38:40.0      67   -119    -12    137    138 150.6  -5.2  33916  285.46 0855.10
2009/04/23 06:38:40.1      83    -95    -12    127    128 139.0  -5.6  33918  285.48 0855.10
2009/04/23 06:38:40.2      77   -104     11    130    131 143.5   4.9  33918  285.48 0855.10
2009/04/23 06:38:40.3      77   -101     10    128    129 142.6   4.9  33916  285.46 0855.10
2009/04/23 06:38:40.4      70    -96    -16    119    121 143.9  -7.7  33916  285.46 0855.10
2009/04/23 06:38:40.5      25   -128     20    131    133 168.9   8.9  33914  285.41 0855.10
2009/04/23 06:38:40.6      10   -133     18    134    136 175.5   8.0  33916  285.46 0855.10
2009/04/23 06:38:40.7       4   -135     37    136    141 178.2  15.3  33916  285.46 0855.10
2009/04/23 06:38:40.8      24   -154     28    156    159 171.1  10.3  33916  285.44 0855.10
2009/04/23 06:38:40.9      31   -174     20    177    179 169.8   6.7  33914  285.43 0855.10
2009/04/23 06:38:41.0      12   -202     29    203    206 176.6   8.2  33916  285.46 0855.10
2009/04/23 06:38:41.1     -14   -174     13    175    176 184.9   4.4  33916  285.44 0855.10
2009/04/23 06:38:41.2      29   -147     62    150    162 168.5  23.6  33916  285.46 0855.11
2009/04/23 06:38:41.3      29   -147     62    150    162 168.5  23.6  33916  285.46 0855.11
2009/04/23 06:38:41.4      40   -157     65    163    175 165.7  23.0  33920  285.51 0855.11
2009/04/23 06:38:41.6      -2   -143     44    144    151 180.9  17.3  33928  285.66 0855.11
2009/04/23 06:38:41.6     -21   -113     47    116    125 190.7  23.0  33930  285.70 0855.11
2009/04/23 06:38:41.7       8    -97     31     98    103 175.1  17.9  33920  285.51 0855.11
2009/04/23 06:38:41.8      25    -93     30     97    102 164.9  17.3  33916  285.44 0855.11
2009/04/23 06:38:41.9      15   -106     -2    108    109 172.0  -1.3  33920  285.53 0855.11
2009/04/23 06:38:42.0      -9   -133    -17    134    136 184.0  -7.2  33922  285.55 0855.11
2009/04/23 06:38:42.1       0   -120     38    121    127 180.4  17.4  33920  285.51 0855.11
2009/04/23 06:38:42.2       1   -103     43    104    112 179.1  23.1  33922  285.56 0855.11
2009/04/23 06:38:42.3     -39   -130     54    136    146 196.9  23.0  33922  285.56 0855.11
2009/04/23 06:38:42.4     -33    -98     35    104    111 198.7  18.9  33920  285.53 0855.11
2009/04/23 06:38:42.5     -37   -142     -6    147    148 194.7  -2.6  33918  285.48 0855.11
2009/04/23 06:38:42.6     -12    -99    -11    100    101 187.1  -6.7  33918  285.48 0855.11
2009/04/23 06:38:42.7       7   -131     -9    132    133 176.9  -4.1  33922  285.55 0855.11
2009/04/23 06:38:42.8      41   -151    -33    157    161 164.6 -12.2  33920  285.53 0855.11
2009/04/23 06:38:42.9      34   -157    -36    161    166 167.5 -12.6  33920  285.51 0855.11
2009/04/23 06:38:43.0      77   -184     -7    200    201 157.1  -2.1  33916  285.46 0855.11
2009/04/23 06:38:43.1      83   -178    -15    197    198 155.1  -4.6  33918  285.48 0855.11
2009/04/23 06:38:43.2      75   -188     -7    203    204 158.2  -2.2  33920  285.51 0855.11
2009/04/23 06:38:43.3      71   -179     41    193    198 158.2  12.2  33918  285.48 0855.11
2009/04/23 06:38:43.5      68   -151     45    166    173 155.5  15.3  33916  285.46 0855.11
2009/04/23 06:38:43.6      63   -132     24    147    150 154.6   9.5  33918  285.50 0855.11
2009/04/23 06:38:43.7      59   -145     31    157    161 157.7  11.1  33918  285.50 0855.11
2009/04/23 06:38:43.8      51   -141     39    151    157 159.9  14.7  33920  285.53 0855.11
2009/04/23 06:38:43.9      51   -136     -3    146    147 159.5  -1.3  33918  285.48 0855.11
2009/04/23 06:38:44.0      60   -118     44    133    141 152.9  18.4  33920  285.51 0855.11
2009/04/23 06:38:44.1      53   -117     14    129    130 155.5   6.5  33918  285.50 0855.11
2009/04/23 06:38:44.2      45   -123     10    132    133 160.0   4.4  33920  285.51 0855.11
2009/04/23 06:38:44.3      59   -124     15    138    139 154.5   6.5  33918  285.50 0855.11
2009/04/23 06:38:44.4      55   -105      5    119    120 152.4   2.8  33920  285.51 0855.11
2009/04/23 06:38:44.5      55   -112     24    126    129 153.7  11.1  33918  285.50 0855.11
2009/04/23 06:38:44.6      49   -122     26    132    135 158.2  11.1  33918  285.50 0855.11
2009/04/23 06:38:44.7      47   -117     32    127    132 158.1  14.3  33920  285.53 0855.11
2009/04/23 06:38:44.8      47   -117     32    127    132 158.1  14.3  33920  285.53 0855.11
2009/04/23 06:38:44.9      48   -109     41    120    127 156.4  18.9  33920  285.51 0855.11
2009/04/23 06:38:45.0      63   -110     33    127    132 150.1  14.7  33920  285.53 0855.11
2009/04/23 06:38:45.1      51    -91      5    105    106 150.6   2.9  33920  285.53 0855.11
2009/04/23 06:38:45.2      50    -82     19     97     99 148.8  11.1  33920  285.51 0855.11
2009/04/23 06:38:45.3      37    -65     37     76     84 150.1  27.8  33920  285.53 0855.11
2009/04/23 06:38:45.4      46    -79     31     92     98 149.7  18.9  33922  285.56 0855.11
2009/04/23 06:38:45.5      50    -97     19    110    112 152.8  10.1  33922  285.55 0855.11
2009/04/23 06:38:45.6      48   -101     18    112    114 154.5   9.5  33920  285.53 0855.11
2009/04/23 06:38:45.6      49   -109     25    120    123 155.9  12.2  33918  285.50 0855.11
2009/04/23 06:38:45.7      32    -98      9    104    105 161.7   5.4  33918  285.50 0855.11
2009/04/23 06:38:45.9      32    -75      2     82     83 156.8   1.8  33920  285.53 0855.11
2009/04/23 06:38:45.9      44    -76     13     89     90 149.7   8.5  33920  285.53 0855.11
2009/04/23 06:38:46.0      22    -68     16     72     74 161.7  13.2  33918  285.50 0855.11
2009/04/23 06:38:46.1      14    -90     28     92     97 171.1  17.3  33920  285.53 0855.11
2009/04/23 06:38:46.3       7   -139      2    140    141 176.9   0.8  33920  285.53 0855.11
2009/04/23 06:38:46.3      20   -146      0    148    149 172.0   0.2  33920  285.51 0855.10
2009/04/23 06:38:46.4      14   -134    -17    135    137 173.7  -7.2  33920  285.51 0855.10
2009/04/23 06:38:46.5      16   -146    -13    147    148 173.7  -5.1  33920  285.51 0855.10
2009/04/23 06:38:46.6      11   -149      7    150    151 175.5   2.9  33922  285.55 0855.10
2009/04/23 06:38:46.7      -6   -144    -12    145    146 182.6  -5.1  33924  285.58 0855.10
2009/04/23 06:38:46.8     -29   -117      1    121    122 194.3   0.8  33930  285.70 0855.10
2009/04/23 06:38:46.9       9   -109      5    110    111 175.1   2.8  33930  285.68 0855.10
2009/04/23 06:38:47.0      22   -107     21    110    113 168.0  11.1  33930  285.68 0855.10
2009/04/23 06:38:47.1      33    -98     41    104    111 161.3  22.5  33928  285.65 0855.10
2009/04/23 06:38:47.2      28    -75     35     81     88 159.1  25.1  33928  285.66 0855.10
2009/04/23 06:38:47.3       9    -83     70     84    109 173.8  43.8  33932  285.73 0855.10
2009/04/23 06:38:47.4      15    -79     65     81    103 169.3  43.3  33928  285.65 0855.10
2009/04/23 06:38:47.5      18    -92     53     94    107 168.4  31.4  33928  285.66 0855.10
2009/04/23 06:38:47.6      35   -109     33    115    120 162.2  16.3  33920  285.53 0855.10
2009/04/23 06:38:47.7      19    -83     32     86     91 166.6  21.0  33920  285.53 0855.10
2009/04/23 06:38:47.8      15    -75     28     77     81 168.4  20.4  33920  285.53 0855.10
2009/04/23 06:38:47.9      17    -39     44     43     61 156.4  50.1  33918  285.50 0855.10
2009/04/23 06:38:48.0      39    -42     44     58     72 136.8  41.7  33918  285.50 0855.10
2009/04/23 06:38:48.1      35    -56     46     67     81 147.5  38.0  33920  285.51 0855.10
2009/04/23 06:38:48.2       7    -68     34     69     76 173.8  27.3  33920  285.53 0855.10
2009/04/23 06:38:48.3      -8    -69     16     70     72 187.1  13.2  33920  285.51 0855.11
2009/04/23 06:38:48.4      -7    -66     18     67     70 186.2  15.2  33920  285.53 0855.11
2009/04/23 06:38:48.5      -3    -58     37     59     69 183.6  35.5  33920  285.51 0855.11
2009/04/23 06:38:48.6      10    -74     37     75     83 172.0  28.2  33918  285.48 0855.11
2009/04/23 06:38:48.7      14    -83     48     85     97 170.2  32.4  33918  285.50 0855.11
2009/04/23 06:38:48.8      38    -79     50     88    101 154.1  31.9  33922  285.55 0855.11
2009/04/23 06:38:48.9      44    -75     55     88    103 149.7  35.5  33920  285.53 0855.11
2009/04/23 06:38:49.0      36    -63     55     73     91 150.1  41.2  33918  285.48 0855.11
2009/04/23 06:38:49.1      37    -44     41     58     71 140.4  39.5  33916  285.46 0855.11
2009/04/23 06:38:49.2      35    -38     28     52     59 137.7  31.3  33918  285.48 0855.11
2009/04/23 06:38:49.3      36    -36     31     51     59 134.9  34.4  33916  285.44 0855.11
2009/04/23 06:38:49.4      30    -41     18     51     55 143.9  19.4  33918  285.50 0855.11
2009/04/23 06:38:49.6       5    -41      4     42     43 172.0   5.9  33920  285.53 0855.11
2009/04/23 06:38:49.7       0    -41     10     42     44 180.0  13.2  33920  285.53 0855.11
2009/04/23 06:38:49.8      11    -43     11     45     47 164.9  14.3  33920  285.53 0855.11
2009/04/23 06:38:49.9      18    -34      5     39     40 151.0   8.0  33920  285.53 0855.11
2009/04/23 06:38:50.0      25    -26     -1     37     38 136.8  -2.2  33922  285.55 0855.11
2009/04/23 06:38:50.1      22    -25     -3     34     35 138.6  -5.2  33920  285.51 0855.11
2009/04/23 06:38:50.2      17    -17     -8     25     26 134.9 -23.8  33922  285.55 0855.11
2009/04/23 06:38:50.3       5    -10     -6     12     13 151.0 -31.6  33920  285.53 0855.11
2009/04/23 06:38:50.4       3    -14     -8     15     17 164.9 -35.8  33918  285.50 0855.11
2009/04/23 06:38:50.5       0     -2    -10      3     10 161.5 -89.3  33920  285.53 0855.11
2009/04/23 06:38:50.6      -1     -6    -13      7     14 189.7 -69.1  33918  285.50 0855.11
2009/04/23 06:38:50.7      -6    -10    -13     13     18 212.5 -54.5  33918  285.50 0855.11
2009/04/23 06:38:50.8     -12     -6     -7     14     15 241.1 -31.6  33918  285.48 0855.11
2009/04/23 06:38:50.9       0      6      0      7      8 357.3  -2.2  33918  285.50 0855.11
2009/04/23 06:38:51.0       0     10      2     11     12 355.5  11.1  33918  285.50 0855.11
2009/04/23 06:38:51.1       0     10      2     11     12 355.5  11.1  33918  285.50 0855.11
2009/04/23 06:38:51.2      -8     12      4     15     16 327.5  15.3  33922  285.55 0855.11
2009/04/23 06:38:51.3     -10      5      0     12     13 298.9  -2.2  33922  285.56 0855.11
2009/04/23 06:38:51.4     -37     -2     16     38     41 265.6  24.1  33924  285.58 0855.11
2009/04/23 06:38:51.5     -34     12     10     37     39 290.0  15.3  33926  285.63 0855.11
2009/04/23 06:38:51.6     -43     29      6     53     54 304.2   6.9  33922  285.55 0855.11
2009/04/23 06:38:51.7     -54     18    -19     57     61 288.4 -18.7  33920  285.53 0855.11
2009/04/23 06:38:51.8     -45     15    -17     48     50 288.4 -23.3  33922  285.56 0855.11
2009/04/23 06:38:51.9     -24     27    -24     37     44 318.6 -40.9  33920  285.53 0855.11
2009/04/23 06:38:52.0     -41     25    -12     49     51 301.5 -14.5  33922  285.55 0855.11
2009/04/23 06:38:52.1     -49      7      2     50     51 278.8   2.8  33922  285.55 0855.11
2009/04/23 06:38:52.2     -49      0     -1     50     51 269.2  -2.2  33920  285.51 0855.11
2009/04/23 06:38:52.3     -37    -13      2     40     41 250.0   2.9  33922  285.56 0855.11
2009/04/23 06:38:52.4     -34    -30    -11     46     48 228.7 -13.4  33922  285.56 0855.12
2009/04/23 06:38:52.5     -34    -59    -31     69     75 209.9 -31.5  33918  285.50 0855.12
2009/04/23 06:38:52.6     -51    -10    -56     53     77 258.5 -55.6  33916  285.46 0855.12
2009/04/23 06:38:52.7     -82     -4    -50     83     96 267.0 -38.8  33920  285.53 0855.12
2009/04/23 06:38:52.8    -116    -26    -39    119    125 257.2 -23.8  33918  285.48 0855.12
2009/04/23 06:38:52.9    -110    -38    -42    117    124 250.9 -24.4  33916  285.44 0855.12
2009/04/23 06:38:53.0    -110    -91    -44    143    149 230.4 -22.3  33916  285.44 0855.12
2009/04/23 06:38:53.1    -118    -60    -41    133    139 242.9 -22.3  33916  285.44 0855.12
2009/04/23 06:38:53.2    -111    -86    -40    141    147 232.2 -16.0  33916  285.44 0855.12
2009/04/23 06:38:53.3     -68    -85    -12    110    111 218.7  -6.7  33918  285.48 0855.12
2009/04/23 06:38:53.4     -54   -106    -16    120    122 207.2  -7.7  33914  285.41 0855.12
2009/04/23 06:38:53.5     -51   -107    -32    119    124 205.9 -15.0  33914  285.41 0855.12
2009/04/23 06:38:53.6     -44   -130    -41    138    143 198.7 -21.7  33912  285.38 0855.12
2009/04/23 06:38:53.7     -60   -117    -45    132    139 207.1 -23.3  33912  285.39 0855.12
2009/04/23 06:38:53.8     -42   -106    -32    115    119 201.8 -20.2  33912  285.39 0855.12
2009/04/23 06:38:53.9     -68   -144    -12    160    161 205.4  -4.6  33916  285.46 0855.12
2009/04/23 06:38:54.0     -88   -110    -25    141    144 218.7 -10.3  33918  285.50 0855.12
2009/04/23 06:38:54.1     -41    -83    -68     93    115 206.7 -44.1  33920  285.53 0855.12
2009/04/23 06:38:54.2     -43    -76    -36     88     95 209.4 -28.0  33920  285.53 0855.12
2009/04/23 06:38:54.3      -7    -58    -38     59     70 187.1 -40.0  33920  285.51 0855.12
2009/04/23 06:38:54.4     -20    -92    -68     95    116 192.5 -43.5  33916  285.46 0855.11
2009/04/23 06:38:54.5    -118    -51    -79    129    151 246.5 -39.4  33914  285.43 0855.11
2009/04/23 06:38:54.6    -146    -34    -32    150    154 256.7 -12.2  33910  285.36 0855.11
2009/04/23 06:38:54.7    -122    -76     43    144    151 238.0  16.8  33918  285.48 0855.11
2009/04/23 06:38:54.8     -62    -75     31     98    103 219.7  17.9  33922  285.55 0855.11
2009/04/23 06:38:54.9     -47    -69     23     84     88 214.7  15.3  33918  285.48 0855.11
2009/04/23 06:38:55.0     -51    -54     44     75     86 223.2  33.5  33922  285.55 0855.11
2009/04/23 06:38:55.1     -45    -59     25     75     80 217.0  18.4  33920  285.51 0855.11
2009/04/23 06:38:55.2     -52    -30     32     61     68 240.2  29.3  33920  285.51 0855.11
2009/04/23 06:38:55.3     -59    -28     18     66     69 244.8  15.2  33918  285.50 0855.11
2009/04/23 06:38:55.4     -37    -31      1     49     50 230.5   1.8  33922  285.55 0855.11
2009/04/23 06:38:55.5     -40    -66     -2     78     79 211.6  -1.8  33924  285.58 0855.11
2009/04/23 06:38:55.6     -53    -53     -9     75     76 225.0  -7.3  33922  285.56 0855.11
2009/04/23 06:38:55.7     -63    -36    -32     73     79 240.2 -29.0  33920  285.53 0855.11
2009/04/23 06:38:55.8     -68    -43    -15     81     83 237.5 -10.9  33920  285.51 0855.11
2009/04/23 06:38:55.9     -75    -36    -26     84     87 244.6 -22.8  33920  285.51 0855.11
2009/04/23 06:38:56.0     -70    -45    -37     84     91 237.5 -29.5  33914  285.41 0855.11
2009/04/23 06:38:56.1    -138     -1    -38    139    145 269.2 -15.5  33916  285.46 0855.11
2009/04/23 06:38:56.2    -140     25    -64    143    156 280.1 -30.1  33914  285.43 0855.11
2009/04/23 06:38:56.3    -153     58    -61    164    174 290.8 -25.1  33916  285.46 0855.11
2009/04/23 06:38:56.4     -95     45    -29    106    111 295.4 -15.5  33912  285.38 0855.11
2009/04/23 06:38:56.5    -116     39     12    123    124 288.6   5.9  33916  285.46 0855.11
2009/04/23 06:38:56.6    -117     23     21    120    122 281.5  10.1  33918  285.48 0855.11
2009/04/23 06:38:56.7    -126    -22     27    129    132 259.9  12.2  33918  285.48 0855.11
2009/04/23 06:38:56.8    -151    -25     33    154    158 260.3  12.2  33914  285.41 0855.11
2009/04/23 06:38:56.9    -203    -21    -48    205    211 263.9 -13.2  33912  285.38 0855.11
2009/04/23 06:38:57.0    -196    -15    -15    197    198 265.4  -4.6  33910  285.34 0855.11
2009/04/23 06:38:57.1    -219     -3    -18    220    221 269.2  -4.9  33910  285.36 0855.11
2009/04/23 06:38:57.2    -228    -35    -34    231    234 261.2  -8.6  33912  285.39 0855.11
2009/04/23 06:38:57.3    -222    -20     -6    223    224 264.8  -1.8  33916  285.44 0855.11
2009/04/23 06:38:57.4    -197    -34    -35    200    204 260.1 -10.1  33910  285.36 0855.11
2009/04/23 06:38:57.5    -193    -53    -55    201    209 254.7 -15.5  33912  285.39 0855.11
2009/04/23 06:38:57.6    -188    -62    -70    199    212 251.6 -19.4  33914  285.41 0855.11
2009/04/23 06:38:57.7    -238    -59    -75    246    257 256.1 -21.7  33916  285.45 0855.11
2009/04/23 06:38:57.8    -328   -203   -183    386    427 238.2 -31.6  33972  286.38 0855.11
2009/04/23 06:38:57.9    -237    -68    -92    247    263 254.0 -25.4  33914  285.40 0855.11
2009/04/23 06:38:58.0    -246    -61    -85    254    269 255.9 -18.6  33914  285.40 0855.11
2009/04/23 06:38:58.1    -226    -85    -67    242    251 249.2 -20.2  33912  285.37 0855.11
2009/04/23 06:38:58.2    -202   -107    -69    229    239 242.0 -21.7  33910  285.35 0855.11
2009/04/23 06:38:58.3    -191    -75    -34    206    209 248.5  -9.4  33910  285.36 0855.11
2009/04/23 06:38:58.4    -166    -76     -8    183    184 245.4  -2.6  33916  285.46 0855.11
2009/04/23 06:38:58.5    -158    -96    -25    185    187 238.7  -7.7  33916  285.44 0855.11
2009/04/23 06:38:58.6    -149   -106    -55    183    191 234.5 -21.7  33914  285.41 0855.11
2009/04/23 06:38:58.7    -125   -123    -55    176    184 225.6 -22.5  33912  285.39 0855.11
2009/04/23 06:38:58.8    -122   -119    -53    171    179 225.8 -22.3  33912  285.39 0855.11
2009/04/23 06:38:58.9    -114   -117    -41    164    170 224.3 -14.3  33912  285.39 0855.11
2009/04/23 06:38:59.0    -110   -110    -53    156    165 225.0 -18.9  33912  285.39 0855.11
2009/04/23 06:38:59.1    -115    -83    -52    142    151 234.1 -25.4  33912  285.39 0855.11
2009/04/23 06:38:59.2    -104    -85    -45    135    142 230.9 -23.6  33914  285.43 0855.11
2009/04/23 06:38:59.3    -171    -80    -59    189    199 244.8 -17.5  33916  285.46 0855.11
2009/04/23 06:38:59.4    -147    -75    -81    166    184 243.0 -32.2  33918  285.48 0855.11
2009/04/23 06:38:59.5    -149   -128    -54    197    204 229.3 -20.0  33918  285.48 0855.11
2009/04/23 06:38:59.6    -158   -106    -70    191    203 236.0 -25.3  33918  285.50 0855.11
2009/04/23 06:38:59.7    -136   -127   -126    187    225 226.9 -41.7  33918  285.48 0855.11
2009/04/23 06:38:59.8    -109   -134    -82    173    191 219.2 -31.5  33916  285.44 0855.11
2009/04/23 06:38:59.9     -77   -170    -73    187    200 204.3 -26.9  33910  285.34 0855.11
2009/04/23 06:39:00.0    -126   -182    -70    222    233 214.7 -17.6  33912  285.39 0855.11
2009/04/23 06:39:00.1     -66   -200    -31    211    214 198.3  -8.6  33916  285.44 0855.11
2009/04/23 06:39:00.2     -90   -156    -64    181    193 209.9 -19.6  33916  285.46 0855.11
2009/04/23 06:39:00.3    -124   -120    -72    173    187 226.0 -28.2  33918  285.48 0855.11
2009/04/23 06:39:00.4    -120   -123    -70    172    185 224.3 -27.5  33916  285.44 0855.10
2009/04/23 06:39:00.5    -114    -94    -68    149    163 230.5 -30.3  33920  285.53 0855.10
2009/04/23 06:39:00.6    -118    -68    -65    137    151 239.8 -31.6  33922  285.56 0855.10
2009/04/23 06:39:00.7     -97    -67    -75    118    139 235.4 -39.9  33922  285.56 0855.10
2009/04/23 06:39:00.8     -74    -59    -73     95    119 231.4 -46.1  33918  285.50 0855.10
2009/04/23 06:39:00.9     -60    -78    -64     99    117 217.8 -40.0  33920  285.53 0855.10
2009/04/23 06:39:01.0     -42   -106    -75    115    137 201.8 -40.4  33916  285.44 0855.10
2009/04/23 06:39:01.1     -48   -123    -78    133    154 201.4 -37.9  33916  285.44 0855.10
2009/04/23 06:39:01.2     -99    -95    -91    138    165 226.4 -40.7  33918  285.48 0855.10
2009/04/23 06:39:01.3     -84    -97    -68    129    145 221.0 -34.7  33920  285.53 0855.10
2009/04/23 06:39:01.4     -85   -103    -83    134    157 219.7 -39.2  33922  285.56 0855.10
2009/04/23 06:39:01.5    -103   -106    -79    148    167 224.1 -34.7  33926  285.61 0855.10
2009/04/23 06:39:01.6    -135   -117    -75    179    194 229.1 -28.2  33922  285.55 0855.10
2009/04/23 06:39:01.7     -77   -117    -95    141    170 213.4 -41.7  33926  285.61 0855.10
2009/04/23 06:39:01.8     -97   -130   -134    163    211 216.7 -48.1  33920  285.53 0855.10
2009/04/23 06:39:01.9     -75   -147    -66    166    178 207.2 -27.4  33916  285.44 0855.10
2009/04/23 06:39:02.0     -52   -114    -84    126    151 204.5 -41.4  33916  285.44 0855.10
2009/04/23 06:39:02.1     -69   -164    -70    179    192 202.9 -26.9  33916  285.46 0855.10
2009/04/23 06:39:02.2     -90   -147    -21    173    175 211.4  -7.2  33916  285.46 0855.10
2009/04/23 06:39:02.3     -77   -119     -7    142    143 213.0  -3.1  33918  285.48 0855.10
2009/04/23 06:39:02.4     -41   -118    -11    125    126 199.2  -5.2  33918  285.48 0855.09
2009/04/23 06:39:02.5      13   -136    -43    137    144 174.2 -17.5  33920  285.53 0855.09
2009/04/23 06:39:02.6      17   -167     -6    168    169 174.0  -2.1  33918  285.50 0855.09
2009/04/23 06:39:02.7     -16   -168    -19    169    171 185.6  -6.7  33916  285.46 0855.09
2009/04/23 06:39:02.8     -26   -223    -14    225    226 186.9  -3.7  33918  285.48 0855.09
2009/04/23 06:39:02.9       9   -200    -63    201    211 177.4 -17.6  33918  285.50 0855.09
2009/04/23 06:39:03.0      20   -236    -46    237    242 174.9 -11.1  33920  285.52 0855.09
2009/04/23 06:39:03.1      15   -198    -25    199    201 175.5  -7.3  33916  285.46 0855.09
2009/04/23 06:39:03.2      29   -233    -18    235    236 172.9  -4.4  33920  285.52 0855.09
2009/04/23 06:39:03.3      24   -211     56    213    221 173.3  14.7  33922  285.56 0855.09
2009/04/23 06:39:03.4      43   -173     26    179    181 166.0   8.5  33920  285.53 0855.09
2009/04/23 06:39:03.5      61   -128     -2    142    143 154.5  -1.2  33916  285.46 0855.09
2009/04/23 06:39:03.6      77   -119     -3    143    144 147.0  -1.3  33918  285.48 0855.09
2009/04/23 06:39:03.7      50   -150    -61    159    170 161.3 -26.4  33918  285.48 0855.09
2009/04/23 06:39:03.8      10   -158    -63    159    171 176.4 -27.2  33916  285.46 0855.09
2009/04/23 06:39:03.9       1   -179    -24    180    182 179.5  -7.7  33918  285.48 0855.09
2009/04/23 06:39:04.0      11   -158    -17    159    160 176.0  -6.2  33916  285.46 0855.09
2009/04/23 06:39:04.1      15   -136     -3    137    138 173.3  -1.3  33920  285.51 0855.09
2009/04/23 06:39:04.2      10   -134     -2    135    136 175.5  -1.3  33920  285.51 0855.09
2009/04/23 06:39:04.3       2   -123     -6    124    125 179.0  -3.1  33920  285.53 0855.09
2009/04/23 06:39:04.4       7   -102     19    103    105 176.0  10.6  33920  285.51 0855.09
2009/04/23 06:39:04.5      17   -140      2    142    143 172.9   0.8  33922  285.55 0855.09
2009/04/23 06:39:04.6    6124  10511   5819  12163  13483  30.2  27.4  31900  252.54 0855.09
2009/04/23 06:39:04.7      -5   -112      4    113    114 182.7   2.3  33920  285.53 0855.09
2009/04/23 06:39:04.8     -15   -131    -20    132    134 186.7  -8.8  33920  285.53 0855.09
2009/04/23 06:39:04.9     -19   -136    -27    138    141 188.0 -11.3  33920  285.53 0855.09
2009/04/23 06:39:05.0     -22   -100     -5    103    104 192.5  -3.2  33918  285.48 0855.09
2009/04/23 06:39:05.1     -23   -104     19    107    109 192.5  10.1  33922  285.55 0855.09
2009/04/23 06:39:05.2      35   -132    -13    137    138 164.8  -5.6  33922  285.55 0855.09
2009/04/23 06:39:05.3      61   -119     43    134    141 152.8  17.9  33918  285.50 0855.09
2009/04/23 06:39:05.4      32   -143     37    147    152 167.1  14.3  33920  285.53 0855.09
2009/04/23 06:39:05.5      32   -174     29    177    180 169.5   9.3  33922  285.56 0855.09
2009/04/23 06:39:05.6      54   -136     24    147    150 158.1   9.5  33918  285.48 0855.09
2009/04/23 06:39:05.7      49   -150      9    159    160 161.7   3.3  33916  285.46 0855.09
2009/04/23 06:39:05.8      52   -174     44    182    188 163.3  13.7  33918  285.48 0855.09
2009/04/23 06:39:05.9      49   -147     58    156    166 161.3  21.5  33920  285.53 0855.09
2009/04/23 06:39:06.0      31   -132     53    136    145 166.6  22.5  33918  285.50 0855.09
2009/04/23 06:39:06.1      62   -148      7    161    162 157.3   2.8  33918  285.50 0855.09
2009/04/23 06:39:06.2      69   -143      5    159    160 154.1   2.1  33918  285.48 0855.09
2009/04/23 06:39:06.3      72   -121     17    141    143 149.3   6.9  33918  285.48 0855.09
2009/04/23 06:39:06.4      64   -109     15    127    128 149.7   7.1  33920  285.53 0855.09
2009/04/23 06:39:06.5      55   -113     24    126    129 154.1  11.0  33922  285.55 0855.09
2009/04/23 06:39:06.6      38   -113     37    120    126 161.3  17.3  33922  285.55 0855.09
2009/04/23 06:39:06.7      20    -99     34    101    107 168.5  18.9  33920  285.53 0855.09
2009/04/23 06:39:06.8      14   -120     39    121    128 173.3  17.9  33922  285.56 0855.09
2009/04/23 06:39:06.9       2   -152     57    153    163 179.0  21.3  33918  285.48 0855.09
2009/04/23 06:39:07.0       1   -154     60    155    166 179.5  22.0  33918  285.50 0855.09
2009/04/23 06:39:07.1     -15   -143     49    144    153 186.2  18.9  33920  285.53 0855.09
2009/04/23 06:39:07.2     -24   -121     27    124    128 191.6  12.6  33930  285.68 0855.09
2009/04/23 06:39:07.3     -24   -102     28    105    109 193.4  15.3  33932  285.73 0855.09
2009/04/23 06:39:07.4      -7    -85     58     86    103 185.3  37.0  33934  285.76 0855.09
2009/04/23 06:39:07.5       0   -133     54    134    144 180.4  23.0  33928  285.65 0855.09
2009/04/23 06:39:07.6       0   -141     39    142    148 180.0  15.3  33922  285.55 0855.09
2009/04/23 06:39:07.7     -16   -156     27    157    160 186.2   9.9  33918  285.48 0855.09
2009/04/23 06:39:07.8      -6   -158     32    159    163 182.5  11.4  33920  285.53 0855.09
2009/04/23 06:39:07.9      41   -131     49    138    146 162.6  20.0  33920  285.51 0855.09
2009/04/23 06:39:08.0      26   -131     49    134    142 168.5  20.9  33920  285.53 0855.09
2009/04/23 06:39:08.1      17   -125     43    127    135 172.0  18.9  33922  285.55 0855.09
2009/04/23 06:39:08.2      10   -137     27    138    141 175.5  11.1  33920  285.53 0855.09
2009/04/23 06:39:08.3      -1   -144     12    145    146 180.5   5.0  33918  285.50 0855.09
2009/04/23 06:39:08.4     -36   -120     28    126    130 197.0  12.6  33920  285.51 0855.09
2009/04/23 06:39:08.5     -15   -125     38    126    132 187.1  16.8  33920  285.53 0855.09
2009/04/23 06:39:08.6      -9   -115     41    116    123 184.9  20.0  33922  285.55 0855.09
2009/04/23 06:39:08.7      28    -98     68    102    122 164.0  37.4  33920  285.53 0855.09
2009/04/23 06:39:08.8      31    -94     57    100    115 161.7  32.4  33922  285.55 0855.09
2009/04/23 06:39:08.9      42    -55     53     70     87 143.0  41.2  33922  285.55 0855.09
2009/04/23 06:39:09.0      24    -41     50     48     69 149.3  50.1  33918  285.50 0855.09
2009/04/23 06:39:09.1      -2     -3     51      4     51 212.5  90.0  33924  285.58 0855.09
2009/04/23 06:39:09.2     -81    -50     23     96     99 238.5  13.7  33926  285.61 0855.09
2009/04/23 06:39:09.3     -51    -74     31     91     97 214.7  18.9  33926  285.63 0855.09
2009/04/23 06:39:09.4     -33    -96     50    102    113 199.2  27.8  33926  285.61 0855.09
2009/04/23 06:39:09.5     -51   -128     98    138    169 201.8  38.8  33928  285.66 0855.09
2009/04/23 06:39:09.6     -64   -136     98    151    180 205.5  36.0  33928  285.66 0855.09
2009/04/23 06:39:09.7     -59   -124     84    138    161 205.3  34.2  33930  285.70 0855.09
2009/04/23 06:39:09.8     -16   -102     69    104    124 188.9  36.5  33934  285.76 0855.09
2009/04/23 06:39:09.9      51    -93     94    107    142 151.0  45.9  33922  285.56 0855.09
2009/04/23 06:39:10.0      -1    -72     66     73     98 180.9  47.5  33922  285.55 0855.09
2009/04/23 06:39:10.1      -4    -53     49     54     72 184.4  47.9  33924  285.58 0855.09
2009/04/23 06:39:10.2      -9    -67     36     68     76 188.1  30.3  33928  285.65 0855.09
2009/04/23 06:39:10.3      24    -97     57    101    115 165.7  31.9  33928  285.66 0855.09
2009/04/23 06:39:10.4      42    -85     60     95    112 153.7  35.5  33928  285.65 0855.09
2009/04/23 06:39:10.5      56    -83     55    101    115 145.7  31.4  33920  285.53 0855.09
2009/04/23 06:39:10.6      59    -74     60     95    112 141.3  35.5  33920  285.51 0855.09
2009/04/23 06:39:10.7      91    -41     57    100    115 114.4  32.4  33920  285.53 0855.09
2009/04/23 06:39:10.8      49    -46     76     68    101 133.1  53.3  33922  285.55 0855.09
2009/04/23 06:39:10.9      31    -71     57     78     96 156.4  39.7  33922  285.56 0855.09
2009/04/23 06:39:11.0      44    -69     56     82     99 147.4  38.0  33924  285.58 0855.09
2009/04/23 06:39:11.1       2   -119     54    120    131 178.6  26.2  33922  285.55 0855.09
2009/04/23 06:39:11.2      -1   -135     49    136    144 180.8  20.0  33918  285.50 0855.09
2009/04/23 06:39:11.3       9   -118     61    119    133 175.6  29.3  33918  285.50 0855.09
2009/04/23 06:39:11.4      23   -105     64    108    125 167.5  33.5  33920  285.53 0855.09
2009/04/23 06:39:11.5       9   -119     74    120    140 175.6  35.0  33922  285.55 0855.09
2009/04/23 06:39:11.6      39   -120     80    127    150 161.7  35.5  33920  285.51 0855.09
2009/04/23 06:39:11.7      34   -143     87    147    170 166.6  33.5  33922  285.55 0855.09
2009/04/23 06:39:11.8      49   -150    102    158    188 161.7  35.6  33922  285.56 0855.09
2009/04/23 06:39:11.9      58   -119    111    133    173 153.7  44.1  33922  285.56 0855.09
2009/04/23 06:39:12.0       9   -143    119    144    186 176.4  43.8  33920  285.53 0855.09
2009/04/23 06:39:12.1      -3   -141    102    142    174 181.4  39.1  33920  285.53 0855.09
2009/04/23 06:39:12.2       9   -119     85    120    147 175.5  39.1  33918  285.50 0855.09
2009/04/23 06:39:12.3      -1   -166     64    167    178 180.5  22.0  33920  285.51 0855.09
2009/04/23 06:39:12.4       2   -130     57    131    142 179.0  25.1  33922  285.55 0855.09
2009/04/23 06:39:12.5      16   -114     23    116    119 172.0  11.6  33920  285.53 0855.09
2009/04/23 06:39:12.6      18    -92      2     94     95 168.4   1.8  33922  285.55 0855.09
2009/04/23 06:39:12.7      23    -91     22     94     97 165.7  13.7  33920  285.53 0855.09
2009/04/23 06:39:12.8      -8    -62     38     63     73 188.1  34.4  33920  285.51 0855.09
2009/04/23 06:39:12.9      -7    -46     64     47     79 189.8  60.0  33918  285.48 0855.09
2009/04/23 06:39:13.0      -1    -10     77     11     77 188.0  90.0  33920  285.53 0855.09
2009/04/23 06:39:13.1      31     31     23     45     50  45.0  29.3  33922  285.55 0855.09
2009/04/23 06:39:13.2      56     56     18     80     83  45.1  12.6  33924  285.58 0855.09
2009/04/23 06:39:13.3      35     44      5     57     58  38.7   5.9  33924  285.60 0855.09
2009/04/23 06:39:13.4      40     25     16     48     51  58.5  19.4  33922  285.56 0855.10
2009/04/23 06:39:13.5      32      7     18     33     37  76.7  31.4  33922  285.55 0855.10
2009/04/23 06:39:13.6      54      0     26     55     60  90.0  27.2  33922  285.56 0855.10
2009/04/23 06:39:13.7      47    -11     33     49     59 103.3  37.6  33924  285.58 0855.10
2009/04/23 06:39:13.8       0    -59     67     60     89 180.9  53.7  33924  285.60 0855.10
2009/04/23 06:39:13.9     -25    -25     48     36     60 225.0  59.4  33928  285.66 0855.10
2009/04/23 06:39:14.0     -34    -23     55     42     69 235.8  57.5  33926  285.63 0855.10
2009/04/23 06:39:14.1     -14    -14     48     21     52 225.0  75.0  33922  285.56 0855.10
2009/04/23 06:39:14.2       0    -14     26     15     30 182.7  66.8  33924  285.60 0855.10
2009/04/23 06:39:14.3       0    -17     11     18     21 180.9  33.5  33924  285.58 0855.10
2009/04/23 06:39:14.4     -20    -34     20     40     44 210.7  29.3  33924  285.58 0855.10
2009/04/23 06:39:14.5     -16     -5     16     17     23 251.4  50.0  33924  285.60 0855.10
2009/04/23 06:39:14.6       0     15     13     16     20 357.3  43.7  33922  285.56 0855.10
2009/04/23 06:39:14.7      -3     31      0     32     33 353.8   0.8  33924  285.58 0855.10
2009/04/23 06:39:14.8      -1     47      2     48     49 358.2   2.8  33924  285.60 0855.10
2009/04/23 06:39:14.9     -22     39     18     46     49 330.1  22.0  33922  285.55 0855.10
2009/04/23 06:39:15.0      -6     16     18     18     25 338.2  50.1  33922  285.55 0855.10
2009/04/23 06:39:15.1       5     16     24     17     29  18.7  62.6  33920  285.51 0855.10
2009/04/23 06:39:15.2       2     23     37     24     44   6.2  63.6  33916  285.46 0855.10
2009/04/23 06:39:15.3      -2     35     46     36     58 355.5  56.4  33918  285.50 0855.10
2009/04/23 06:39:15.4      -2     36     38     37     53 355.6  49.1  33920  285.51 0855.10
2009/04/23 06:39:15.5       0     23     26     24     35 359.1  50.1  33920  285.51 0855.10
2009/04/23 06:39:15.6       8     65     28     66     71   7.1  24.1  33918  285.48 0855.10
2009/04/23 06:39:15.7      23     39     28     46     53  30.7  35.5  33918  285.48 0855.10
2009/04/23 06:39:15.8      31     31     17     44     47  45.0  21.0  33918  285.50 0855.10
2009/04/23 06:39:15.9      57     35     -2     68     69  58.5  -2.2  33918  285.50 0855.10
2009/04/23 06:39:43.9      -1   -135     68    136    152 180.8  28.2  33942  285.90 0855.07
2009/04/23 06:39:44.0       6   -134     96    135    165 177.4  38.8  33942  285.88 0855.07
2009/04/23 06:39:44.1       7   -122    106    123    162 176.4  45.4  33944  285.92 0855.07
2009/04/23 06:39:44.2     -23   -150    105    152    184 188.9  37.8  33946  285.95 0855.07
2009/04/23 06:39:44.3       0   -121    110    122    164 180.4  46.9  33944  285.92 0855.07
2009/04/23 06:39:44.4     -11   -147    135    148    200 184.4  47.1  33942  285.88 0855.07
2009/04/23 06:39:44.5     -18   -141    128    143    191 187.6  46.6  33942  285.88 0855.07
2009/04/23 06:39:44.6      -6   -154    150    155    215 182.2  49.4  33942  285.88 0855.07
2009/04/23 06:39:44.7     -52   -124    121    135    181 202.7  46.9  33938  285.83 0855.07
2009/04/23 06:39:44.8     -73   -289     60    299    306 194.2  11.4  33938  285.81 0855.07
2009/04/23 06:39:44.9     -33   -241     87    244    260 187.8  19.6  33944  285.91 0855.07
2009/04/23 06:39:45.0    -114   -251     38    276    279 204.5   8.0  33934  285.74 0855.07
2009/04/23 06:39:45.1      -7   -248     80    249    262 181.8  17.9  33936  285.79 0855.07
2009/04/23 06:39:45.2     -83   -241     60    256    263 199.1  13.2  33932  285.72 0855.07
2009/04/23 06:39:45.3     -46   -237     29    242    244 191.1   6.9  33932  285.72 0855.07
2009/04/23 06:39:45.4     -11   -148    104    149    181 184.4  38.6  33936  285.80 0855.07
2009/04/23 06:39:45.5     -20   -128    126    130    181 188.9  49.2  33942  285.90 0855.07
2009/04/23 06:39:45.6     -40   -136    118    142    184 196.5  43.8  33942  285.90 0855.07
2009/04/23 06:39:45.7     -22   -115    125    118    171 191.1  51.6  33942  285.88 0855.07
2009/04/23 06:39:45.8     -24   -118    111    121    164 191.6  47.7  33942  285.88 0855.07
2009/04/23 06:39:45.9     -35   -106    101    112    150 198.5  46.9  33942  285.88 0855.07
2009/04/23 06:39:46.0     -24   -118     97    121    155 191.6  43.7  33942  285.88 0855.07
2009/04/23 06:39:46.1      -6   -123     86    124    150 183.1  38.0  33942  285.88 0855.07
2009/04/23 06:39:46.2     -14   -108     92    109    142 187.6  44.3  33942  285.88 0855.07
2009/04/23 06:39:46.3     -23   -115     83    118    144 191.5  38.6  33940  285.87 0855.07
2009/04/23 06:39:46.4     -47   -120    107    129    167 201.4  44.1  33942  285.90 0855.07
2009/04/23 06:39:46.5     -35   -116    126    122    175 197.0  50.9  33936  285.78 0855.07
2009/04/23 06:39:46.6     -74    -92    116    119    166 218.7  49.4  33936  285.80 0855.07
2009/04/23 06:39:46.7     -85    -88     99    123    157 224.1  43.3  33936  285.78 0855.07
2009/04/23 06:39:46.8     -67    -74    102    101    143 222.3  50.1  33934  285.76 0855.07
2009/04/23 06:39:46.9     -67    -20     96     70    118 253.2  60.5  33932  285.73 0855.07
2009/04/23 06:39:47.0     -46    -39     85     61    104 229.6  60.6  33930  285.68 0855.07
2009/04/23 06:39:47.1     -47    -24     81     53     96 242.9  64.6  33928  285.65 0855.07
2009/04/23 06:39:47.2     -99    -26     71    103    125 254.9  37.6  33928  285.66 0855.07
2009/04/23 06:39:47.3     -99    -32     68    105    125 251.8  35.6  33934  285.76 0855.07
2009/04/23 06:39:47.4     -90      3     73     91    116 272.1  43.7  33932  285.73 0855.07
2009/04/23 06:39:47.5     -99    -54     69    114    133 241.2  34.4  33934  285.75 0855.07
2009/04/23 06:39:47.6     -26    -80     74     85    112 197.8  45.4  33934  285.76 0855.07
2009/04/23 06:39:47.7     -69    -95     66    118    135 216.1  31.9  33932  285.71 0855.07
2009/04/23 06:39:47.8     -68   -107     63    128    142 212.6  27.8  33934  285.75 0855.07
2009/04/23 06:39:47.9     -66    -92     64    114    130 216.0  31.9  33936  285.78 0855.07
2009/04/23 06:39:48.0     -63    -91     87    111    141 214.7  42.2  33934  285.75 0855.07
2009/04/23 06:39:48.1     -56    -81    108     99    146 214.7  52.2  33930  285.70 0855.07
2009/04/23 06:39:48.2     -30    -67     78     74    107 204.5  51.6  33932  285.73 0855.07
2009/04/23 06:39:48.3     -13    -13     80     19     82 226.7  86.9  33932  285.71 0855.07
2009/04/23 06:39:48.4     -15    -32     53     36     64 205.5  62.6  33930  285.70 0855.07
2009/04/23 06:39:48.5     -54    -38     69     67     96 234.9  50.1  33930  285.68 0855.07
2009/04/23 06:39:48.6     -77    -41     41     88     97 241.6  26.6  33932  285.71 0855.07
2009/04/23 06:39:48.7     -15    -87     72     89    114 190.2  43.7  33934  285.75 0855.07
2009/04/23 06:39:48.8     -21    -67     98     71    121 197.8  60.5  33932  285.71 0855.07
2009/04/23 06:39:48.9     -47    -69     91     84    123 214.7  52.2  33940  285.85 0855.07
2009/04/23 06:39:49.0     -46    -73    104     87    135 212.5  56.3  33938  285.83 0855.07
2009/04/23 06:39:49.1     -62    -61     90     88    125 225.4  50.1  33930  285.70 0855.07
2009/04/23 06:39:49.2     -59    -48     69     77    103 230.5  47.5  33930  285.68 0855.07
2009/04/23 06:39:49.3     -43    -54     67     70     96 218.7  49.4  33930  285.68 0855.07
2009/04/23 06:39:49.4     -61   -114     89    130    157 208.1  37.8  33936  285.80 0855.07
2009/04/23 06:39:49.5     -82   -148     62    170    180 209.0  21.0  33934  285.76 0855.07
2009/04/23 06:39:49.6     -94   -167     84    192    209 209.4  25.2  33934  285.76 0855.07
2009/04/23 06:39:49.7     -81   -143     72    165    180 209.6  25.1  33936  285.78 0855.07
2009/04/23 06:39:49.8     -67   -157     62    171    181 203.2  20.7  33934  285.76 0855.07
2009/04/23 06:39:49.9     -52   -137     39    147    153 200.9  15.0  33932  285.71 0855.07
2009/04/23 06:39:50.0     -77   -195     -8    210    211 201.6  -2.2  33938  285.83 0855.07
2009/04/23 06:39:50.1     -75   -188      0    203    204 201.8   0.0  33940  285.85 0855.07
2009/04/23 06:39:50.2     -62   -193     13    203    204 197.8   3.8  33940  285.85 0855.07
2009/04/23 06:39:50.3     -68   -166     -7    180    181 202.5  -2.2  33942  285.88 0855.07
2009/04/23 06:39:50.4     -66   -163     18    176    177 202.1   5.9  33938  285.82 0855.07
2009/04/23 06:39:50.5     -52   -178     38    186    190 196.3  11.6  33938  285.82 0855.07
2009/04/23 06:39:50.6     -47   -174     18    181    182 195.1   5.7  33942  285.88 0855.07
2009/04/23 06:39:50.7     -31   -163      6    167    168 190.9   2.1  33940  285.87 0855.07
2009/04/23 06:39:50.8     -44   -173     -7    179    180 194.5  -2.2  33940  285.87 0855.07
2009/04/23 06:39:50.9     -49   -185      0    192    193 195.1  -0.3  33940  285.85 0855.07
2009/04/23 06:39:51.0     -36   -178    -10    182    183 191.6  -3.3  33940  285.87 0855.07
2009/04/23 06:39:51.1      -8   -185     50    186    193 182.7  15.2  33944  285.93 0855.07
2009/04/23 06:39:51.2     -30   -170     59    173    183 190.0  18.9  33940  285.87 0855.07
2009/04/23 06:39:51.3     -45   -168     10    174    175 195.1   3.3  33938  285.82 0855.07
2009/04/23 06:39:51.4     -32   -178     34    181    185 190.2  10.6  33938  285.83 0855.07
2009/04/23 06:39:51.5     -24   -178     61    180    191 187.8  18.9  33940  285.85 0855.07
2009/04/23 06:39:51.6     -18   -184     39    185    190 185.8  12.0  33938  285.82 0855.07
2009/04/23 06:39:51.7      -7   -156     77    157    174 182.7  28.0  33944  285.93 0855.07
2009/04/23 06:39:51.8     -54   -111     74    124    144 206.3  34.0  33946  285.95 0855.07
2009/04/23 06:39:51.9     -68    -69     92     98    134 224.7  48.5  33944  285.93 0855.07
2009/04/23 06:39:52.0     -61    -73     61     96    113 219.7  35.5  33942  285.88 0855.07
2009/04/23 06:39:52.1     -27   -125     80    129    151 192.5  35.5  33944  285.93 0855.07
2009/04/23 06:39:52.2     -16   -139     64    140    153 186.7  27.1  33940  285.87 0855.07
2009/04/23 06:39:52.3     -10   -145     50    146    155 184.0  18.9  33938  285.83 0855.07
2009/04/23 06:39:52.4       7   -140     61    141    153 176.9  25.1  33942  285.88 0855.07
2009/04/23 06:39:52.5     -13   -157     55    158    168 185.1  19.4  33942  285.88 0855.07
2009/04/23 06:39:52.6      -7   -152     66    153    166 182.7  24.9  33944  285.92 0855.07
2009/04/23 06:39:52.7     -25   -105     95    109    144 193.8  45.8  33942  285.90 0855.07
2009/04/23 06:39:52.8     -38    -91     62     99    116 202.7  35.5  33942  285.88 0855.08
2009/04/23 06:39:52.9     -32    -95     57    101    115 198.7  31.9  33946  285.95 0855.08
2009/04/23 06:39:53.0     -41    -91     42    101    109 204.5  23.1  33938  285.83 0855.08
2009/04/23 06:39:53.1     -41    -92     70    101    122 204.1  38.0  33938  285.83 0855.08
2009/04/23 06:39:53.2     -61    -59     40     85     93 226.0  27.1  33938  285.82 0855.08
2009/04/23 06:39:53.3     -66    -61     31     91     97 227.3  18.9  33938  285.83 0855.08
2009/04/23 06:39:53.4     -66    -52     21     85     88 231.8  14.3  33938  285.82 0855.08
2009/04/23 06:39:53.5     -34    -58     46     68     82 210.7  37.6  33940  285.87 0855.08
2009/04/23 06:39:53.6      21    -67     60     71     92 162.2  44.3  33940  285.85 0855.08
2009/04/23 06:39:53.7       8    -63     63     64     89 172.0  50.5  33940  285.87 0855.08
2009/04/23 06:39:53.8      -3     -3     64      5     64 226.7  90.0  33942  285.90 0855.08
2009/04/23 06:39:53.9      -6    -18     60     20     63 200.0  81.0  33940  285.85 0855.08
2009/04/23 06:39:54.0       9     -3     37     10     38 111.7  82.8  33938  285.83 0855.08
2009/04/23 06:39:54.1      10     18     37     21     42  29.0  67.7  33942  285.90 0855.08
2009/04/23 06:39:54.2       0     28     23     29     37 359.1  43.7  33944  285.92 0855.08
2009/04/23 06:39:54.3       0     26     31     27     41 359.1  54.3  33942  285.90 0855.08
2009/04/23 06:39:54.4      21     15     30     26     39  54.0  54.3  33942  285.90 0855.08
2009/04/23 06:39:54.5      24     19     17     31     35  52.2  33.5  33944  285.93 0855.08
2009/04/23 06:39:54.6      10      2     11     11     15  74.9  50.1  33942  285.90 0855.08
2009/04/23 06:39:54.7       0     -2     16      3     16 161.5  90.0  33940  285.85 0855.08
2009/04/23 06:39:54.8     -30    -38     48     49     68 217.8  51.1  33938  285.83 0855.08
2009/04/23 06:39:54.9      -7    -62     64     63     89 187.1  49.7  33946  285.95 0855.08
2009/04/23 06:39:55.0     -13    -66     36     68     76 191.6  30.3  33946  285.97 0855.08
2009/04/23 06:39:55.1      -9    -60     49     61     78 188.9  43.7  33946  285.97 0855.08
2009/04/23 06:39:55.2     -25    -82     90     86    124 197.4  50.7  33950  286.02 0855.08
2009/04/23 06:39:55.3     -51   -117     90    128    156 203.7  38.6  33944  285.93 0855.08
2009/04/23 06:39:55.4     -93   -166    118    191    224 209.4  35.0  33948  286.00 0855.08
2009/04/23 06:39:55.5     -75   -127    109    148    183 210.7  39.7  33946  285.95 0855.08
2009/04/23 06:39:55.6     -80   -100    110    129    169 218.7  44.5  33950  286.02 0855.08
2009/04/23 06:39:55.7     -44    -87     93     98    135 207.2  49.0  33950  286.02 0855.08
2009/04/23 06:39:55.8     -48    -67     67     83    106 216.1  43.7  33948  285.98 0855.08
2009/04/23 06:39:55.9      24    -24     48     34     58 135.0  61.5  33950  286.02 0855.08
2009/04/23 06:39:56.0      47    -13     65     49     81 105.9  59.0  33946  285.97 0855.08
2009/04/23 06:39:56.1      45    -42     64     62     89 133.1  50.1  33950  286.02 0855.08
2009/04/23 06:39:56.2      52    -46     51     70     86 131.3  39.7  33950  286.03 0855.08
2009/04/23 06:39:56.3      48    -19     46     52     69 111.7  46.9  33948  286.00 0855.08
2009/04/23 06:39:56.4      -3    -12     58     13     59 195.1  88.0  33952  286.07 0855.08
2009/04/23 06:39:56.5      -6    -19     52     21     56 198.5  78.2  33952  286.07 0855.08
2009/04/23 06:39:56.6      15      4     49     16     51  74.9  80.7  33952  286.07 0855.08
2009/04/23 06:39:56.7      14     10     41     18     44  54.0  76.1  33952  286.05 0855.08
2009/04/23 06:39:56.8      23      0     42     24     48  90.0  66.8  33948  285.98 0855.07
2009/04/23 06:39:56.9      39     22     46     45     64  60.2  49.1  33946  285.95 0855.07
2009/04/23 06:39:57.0      56     22     52     61     80  68.3  44.8  33946  285.97 0855.07
2009/04/23 06:39:57.1      75     33     54     83     99  66.0  36.0  33946  285.97 0855.07
2009/04/23 06:39:57.2      83     45     44     95    104  61.6  26.6  33946  285.97 0855.07
2009/04/23 06:39:57.3      90     41     45    100    109  65.2  26.2  33946  285.97 0855.07
2009/04/23 06:39:57.4      66     49     31     83     88  53.6  21.0  33946  285.97 0855.07
2009/04/23 06:39:57.5      72     46     37     86     93  57.5  24.6  33946  285.95 0855.07
2009/04/23 06:39:57.6      99     26     59    103    118  75.0  32.4  33946  285.95 0855.07
2009/04/23 06:39:57.7     112     38     62    119    134  70.9  29.3  33944  285.93 0855.07
2009/04/23 06:39:57.8     110     15     86    112    141  82.1  41.7  33946  285.95 0855.07
2009/04/23 06:39:57.9     109     32     59    114    128  73.6  29.2  33946  285.95 0855.07
2009/04/23 06:39:58.0      80     38     79     89    119  64.7  46.4  33944  285.92 0855.07
2009/04/23 06:39:58.1      77     37     69     86    110  64.2  43.7  33946  285.95 0855.07
2009/04/23 06:39:58.2      64     17     70     67     96  74.9  50.7  33946  285.97 0855.07
2009/04/23 06:39:58.3      16      3     27     17     31  78.5  64.7  33948  286.00 0855.07
2009/04/23 06:39:58.4     -24    -27     20     37     42 221.4  30.3  33950  286.03 0855.07
2009/04/23 06:39:58.5      -7    -34     67     35     75 191.6  69.8  33952  286.07 0855.07
2009/04/23 06:39:58.6     -39    -97     69    105    125 201.8  36.0  33952  286.05 0855.07
2009/04/23 06:39:58.7     -54    -51     97     75    122 226.9  58.4  33946  285.97 0855.07
2009/04/23 06:39:58.8     -30    -91     64     96    115 198.3  36.0  33948  286.00 0855.07
2009/04/23 06:39:58.9     -52    -88     55    103    116 210.7  30.8  33952  286.05 0855.07
2009/04/23 06:39:59.0     -48    -58     74     76    106 219.7  50.0  33950  286.02 0855.07
2009/04/23 06:39:59.1     -60    -49     70     78    104 230.5  46.9  33948  286.00 0855.07
2009/04/23 06:39:59.2     -64    -41     62     77     98 237.5  43.7  33950  286.03 0855.07
2009/04/23 06:41:42.5     -61   -161    -47    173    180 200.7 -15.4  33948  285.98 0855.05
2009/04/23 06:41:42.6     -77   -147    -66    167    179 207.6 -27.2  33946  285.97 0855.05
2009/04/23 06:41:42.7     -56   -112    -26    126    129 206.7 -11.9  33946  285.95 0855.05
2009/04/23 06:41:42.8     -33   -118    -13    123    124 196.0  -6.2  33942  285.90 0855.05
2009/04/23 06:41:42.9     -36   -111    -21    117    119 198.3 -10.3  33946  285.95 0855.05
2009/04/23 06:41:43.0     -30   -122    -30    126    130 193.8 -13.4  33944  285.93 0855.05
2009/04/23 06:41:43.1     -42   -136    -50    143    152 197.4 -19.6  33940  285.85 0855.05
2009/04/23 06:41:43.2     -54   -129    -59    140    151 202.7 -28.5  33946  285.95 0855.05
2009/04/23 06:41:43.3     -13   -128    -44    129    137 186.2 -19.1  33944  285.93 0855.05
2009/04/23 06:41:43.4     -31   -125    -16    129    131 194.3  -7.3  33942  285.90 0855.05
2009/04/23 06:41:43.5     -23   -117      6    120    121 191.1   3.3  33946  285.95 0855.05
2009/04/23 06:41:43.6     -58   -107    -21    122    124 208.5  -9.8  33940  285.85 0855.05
2009/04/23 06:41:43.7     -53   -122    -32    134    138 203.6 -13.4  33938  285.83 0855.05
2009/04/23 06:41:43.8     -54   -122    -26    134    137 204.1 -11.3  33938  285.83 0855.05
2009/04/23 06:41:43.9     -68   -124    -18    142    144 209.0  -7.2  33940  285.85 0855.05
2009/04/23 06:41:44.0     -60   -118    -11    133    134 207.2  -5.1  33940  285.87 0855.05
2009/04/23 06:41:44.1     -62   -105    -39    123    129 210.7 -23.3  33938  285.82 0855.05
2009/04/23 06:41:44.2     -79   -117    -50    142    151 214.3 -19.6  33942  285.88 0855.05
2009/04/23 06:41:44.3    -103   -110    -41    151    157 223.2 -15.4  33940  285.87 0855.05
2009/04/23 06:41:44.4     -91   -115    -53    147    156 218.3 -24.8  33944  285.92 0855.05
2009/04/23 06:41:44.5     -90    -99    -50    135    143 222.3 -25.4  33946  285.95 0855.04
2009/04/23 06:41:44.6     -94    -79    -42    123    129 230.0 -23.3  33946  285.95 0855.04
2009/04/23 06:41:44.7     -74    -95    -24    121    124 217.8 -11.3  33942  285.88 0855.04
2009/04/23 06:41:44.8     -77   -105    -30    131    135 216.1 -12.9  33940  285.87 0855.04
2009/04/23 06:41:44.9     -59   -104    -41    120    128 209.9 -19.1  33940  285.87 0855.04
2009/04/23 06:41:45.0     -10    -88    -15     89     91 186.7  -9.8  33940  285.85 0855.04
2009/04/23 06:41:45.1     -10    -88    -15     89     91 186.7  -9.8  33940  285.85 0855.04
2009/04/23 06:41:45.2     -15    -89    -28     91     96 189.8 -17.0  33938  285.82 0855.04
2009/04/23 06:41:45.3     -12    -81    -21     83     86 188.9 -14.5  33938  285.83 0855.04
2009/04/23 06:41:45.4     -15    -75    -22     77     80 191.6 -20.7  33938  285.82 0855.04
2009/04/23 06:41:45.5      -2    -66    -22     67     71 181.8 -18.7  33940  285.87 0855.04
2009/04/23 06:41:45.6      22    -47    -10     53     55 154.6 -11.3  33940  285.85 0855.04
2009/04/23 06:41:45.7      30    -45     -2     55     56 146.6  -2.2  33942  285.88 0855.04
2009/04/23 06:41:45.8      16    -48     10     51     52 160.8  11.1  33942  285.90 0855.04
2009/04/23 06:41:45.9       5    -49     32     50     59 173.8  35.6  33942  285.90 0855.04
2009/04/23 06:41:46.0       8    -47     22     48     52 170.2  27.1  33942  285.88 0855.04
2009/04/23 06:41:46.1      -3    -48     11     49     51 184.4  13.2  33944  285.92 0855.04
2009/04/23 06:41:46.2     -10    -52     10     54     56 191.5  11.1  33942  285.88 0855.04
2009/04/23 06:41:46.3     -31    -27    -21     42     46 229.6 -32.6  33940  285.87 0855.04
2009/04/23 06:41:46.4     -25    -30    -40     40     56 219.7 -54.5  33942  285.88 0855.05
2009/04/23 06:41:46.5     -23    -37    -36     44     56 211.6 -48.1  33940  285.87 0855.05
2009/04/23 06:41:46.6     -26    -64    -40     70     80 201.9 -36.8  33940  285.87 0855.05
2009/04/23 06:41:46.7     -23    -72    -24     76     79 198.3 -22.8  33944  285.92 0855.05
2009/04/23 06:41:46.8      -6    -89    -33     90     95 184.0 -24.8  33942  285.88 0855.05
2009/04/23 06:41:46.9     -13    -99    -32    100    106 188.0 -18.1  33940  285.87 0855.05
2009/04/23 06:41:47.0     -28   -107    -18    111    113 194.7  -9.3  33940  285.87 0855.05
2009/04/23 06:41:47.1     -75    -91    -39    119    125 219.6 -23.8  33944  285.92 0855.05
2009/04/23 06:41:47.2     -68   -102    -19    123    125 213.8  -8.8  33940  285.87 0855.05
2009/04/23 06:41:47.3     -50   -118     -7    129    130 203.2  -3.1  33946  285.95 0855.05
2009/04/23 06:41:47.4     -59   -125    -28    139    142 205.5 -11.5  33942  285.90 0855.05
2009/04/23 06:41:47.5     -51   -112      6    124    125 204.5   2.8  33944  285.92 0855.05
2009/04/23 06:41:47.6     -38    -91      5     99    100 202.7   2.9  33944  285.92 0855.05
2009/04/23 06:41:47.7     -20   -107    -11    109    110 190.7  -6.2  33942  285.88 0855.05
2009/04/23 06:41:47.8     -22   -109     -6    112    113 191.5  -3.1  33942  285.90 0855.05
2009/04/23 06:41:47.9     -14   -113    -14    114    115 187.1  -7.3  33944  285.92 0855.05
2009/04/23 06:41:48.0      -1   -120    -13    121    122 180.5  -6.2  33944  285.92 0855.05
2009/04/23 06:41:48.1     -14   -128      0    129    130 186.3  -0.3  33944  285.92 0855.05
2009/04/23 06:41:48.2     -25   -126    -42    129    136 191.6 -18.1  33946  285.95 0855.05
2009/04/23 06:41:48.3     -16   -123    -15    125    127 187.6  -7.2  33946  285.95 0855.05
2009/04/23 06:41:48.4     -24   -117     -5    120    121 191.6  -2.6  33944  285.93 0855.05
2009/04/23 06:41:48.5     -16   -123    -15    125    127 187.6  -7.2  33946  285.95 0855.05
2009/04/23 06:41:48.6      -5   -124    -16    125    127 182.6  -7.7  33944  285.92 0855.05
2009/04/23 06:41:48.7      14   -137     -7    138    139 173.8  -3.2  33944  285.92 0855.05
2009/04/23 06:41:48.8      17   -123      6    125    126 172.0   2.8  33944  285.92 0855.05
2009/04/23 06:41:48.9      13   -129     -2    130    131 174.2  -1.2  33944  285.92 0855.05
2009/04/23 06:41:49.0       7   -136     -5    137    138 176.9  -2.2  33944  285.93 0855.05
2009/04/23 06:41:49.1      17   -140     -7    142    143 172.9  -3.1  33946  285.95 0855.05
2009/04/23 06:41:49.2      -5   -126    -10    127    128 182.6  -4.6  33948  286.00 0855.05
2009/04/23 06:41:49.3     -14   -128    -14    129    130 186.3  -6.2  33944  285.93 0855.05
2009/04/23 06:41:49.4      -1   -120    -13    121    122 180.5  -6.2  33944  285.92 0855.05
2009/04/23 06:41:49.5       2    -99    -22    100    103 178.6 -12.4  33946  285.95 0855.05
2009/04/23 06:41:49.6       9   -115    -26    116    120 175.5 -12.9  33944  285.93 0855.05
2009/04/23 06:41:49.7      -1   -105    -29    106    110 180.9 -15.4  33944  285.93 0855.05
2009/04/23 06:41:49.8      12   -103    -22    104    107 172.9 -12.4  33944  285.92 0855.05
2009/04/23 06:41:49.9       7    -93     -2     94     95 175.5  -1.8  33946  285.95 0855.05
2009/04/23 06:41:50.0      13    -84      4     86     87 171.1   2.9  33946  285.95 0855.05
2009/04/23 06:41:50.1      15    -56     -7     59     60 164.9  -7.2  33944  285.92 0855.05
2009/04/23 06:41:50.2       5    -42    -15     43     46 172.0 -19.7  33944  285.92 0855.05
2009/04/23 06:41:50.3       2    -35    -17     36     39 175.6 -30.6  33944  285.92 0855.05
2009/04/23 06:41:50.4     -27    -22    -26     35     43 230.5 -45.1  33944  285.92 0855.05
2009/04/23 06:41:50.5     -12    -31    -13     34     36 201.8 -23.3  33944  285.93 0855.05
2009/04/23 06:41:50.6     -15    -31      6     35     36 205.5  11.0  33942  285.88 0855.05
2009/04/23 06:41:50.7     -42    -17      2     46     47 247.4   2.9  33944  285.93 0855.05
2009/04/23 06:41:50.9     -39    -25     -5     47     48 236.7  -6.2  33942  285.88 0855.05
2009/04/23 06:41:50.9      -6    -25     -7     26     27 193.4 -15.5  33942  285.90 0855.05
2009/04/23 06:41:51.0       4    -52      2     53     54 175.6   2.8  33940  285.87 0855.05
2009/04/23 06:41:51.2      -7    -60    -20     61     65 187.1 -18.7  33946  285.95 0855.05
2009/04/23 06:41:51.3      -6    -74    -10     75     76 185.3  -8.2  33942  285.88 0855.05
2009/04/23 06:41:51.4      -5   -126    -19    127    129 182.7  -8.8  33944  285.93 0855.05
2009/04/23 06:41:51.5     -26   -130    -37    133    139 191.6 -15.5  33944  285.92 0855.05
2009/04/23 06:41:51.6      -7   -128    -28    129    133 183.1 -12.4  33944  285.92 0855.05
2009/04/23 06:41:51.7      -7   -153      0    154    155 182.7   0.2  33940  285.87 0855.05
2009/04/23 06:41:51.8     -13   -164     -6    165    166 184.9  -2.2  33942  285.90 0855.05
2009/04/23 06:41:51.9     -14   -153      7    154    155 185.3   2.8  33942  285.88 0855.05
2009/04/23 06:41:52.0       2   -140      6    141    142 179.0   2.8  33942  285.90 0855.05
2009/04/23 06:41:52.1       1   -127     -8    128    129 179.1  -3.7  33944  285.93 0855.05
2009/04/23 06:41:52.2     -16   -110    -14    112    113 188.5  -7.3  33944  285.93 0855.05
2009/04/23 06:41:52.3      -2   -101     -6    102    103 181.4  -3.7  33940  285.87 0855.05
2009/04/23 06:41:52.4      -8   -108    -14    109    110 184.5  -7.3  33940  285.87 0855.05
2009/04/23 06:41:52.5       3   -108      0    109    110 178.2  -0.3  33944  285.93 0855.05
2009/04/23 06:41:52.6       1   -106     -4    107    108 179.1  -2.2  33942  285.88 0855.05
2009/04/23 06:41:52.7      -3    -98    -16     99    101 181.8  -9.3  33946  285.95 0855.05
2009/04/23 06:41:52.7     -24   -101    -20    104    106 193.8 -10.9  33944  285.92 0855.05
2009/04/23 06:41:52.9     -45    -87    -30     99    103 207.6 -21.7  33944  285.93 0855.05
2009/04/23 06:41:53.0    -142   -231   -102    272    290 211.7 -25.7  34006  286.95 0855.05
2009/04/23 06:41:53.0     -55    -80    -12     98     99 214.3  -7.3  33946  285.95 0855.05
2009/04/23 06:41:53.2     -59    -86     13    105    106 214.3   7.5  33944  285.93 0855.05
2009/04/23 06:41:53.3     -36   -107     16    113    115 198.7   8.5  33942  285.88 0855.05
2009/04/23 06:41:53.4     -59   -100     19    117    119 210.7   9.5  33940  285.87 0855.05
2009/04/23 06:41:53.5     -75    -91     -3    119    120 219.6  -1.8  33944  285.93 0855.05
2009/04/23 06:41:53.6     -58    -85    -15    104    106 214.3  -8.2  33946  285.95 0855.05
2009/04/23 06:41:53.7     -26    -90     18     94     96 196.5  11.0  33944  285.93 0855.05
2009/04/23 06:41:53.8     -13    -77     47     79     91 189.8  34.0  33942  285.90 0855.05
2009/04/23 06:41:53.9       4    -73     80     74    108 176.4  52.2  33944  285.92 0855.05
2009/04/23 06:41:54.0     -10    -81     68     82    106 187.6  43.8  33942  285.90 0855.05
2009/04/23 06:41:54.1     -10    -81     68     82    106 187.6  43.8  33942  285.90 0855.05
2009/04/23 06:41:54.2      -5    -73     73     74    103 184.5  50.5  33942  285.90 0855.05
2009/04/23 06:41:54.3      -2    -81     64     82    104 181.8  42.2  33942  285.90 0855.05
2009/04/23 06:41:54.4     -19    -96     48     98    109 191.5  27.8  33942  285.90 0855.05
2009/04/23 06:41:54.5       3    -98     37     99    105 178.2  21.5  33944  285.93 0855.05
2009/04/23 06:41:54.6       1   -104     41    105    112 179.1  22.5  33942  285.90 0855.05
2009/04/23 06:41:54.6       0   -128     49    129    137 180.0  22.0  33944  285.92 0855.05
2009/04/23 06:41:54.8      17   -158     37    159    164 173.8  13.2  33946  285.95 0855.05
2009/04/23 06:41:54.9      36   -152     26    157    160 166.6   9.5  33942  285.90 0855.05
2009/04/23 06:41:55.0      17   -124     37    126    132 172.0  16.3  33944  285.93 0855.05
2009/04/23 06:41:55.1      28   -132     48    135    143 168.0  20.0  33944  285.92 0855.05
2009/04/23 06:41:55.2      35   -107     53    113    124 161.7  27.1  33944  285.92 0855.05
2009/04/23 06:41:55.3      29   -126     48    130    138 166.7  21.0  33946  285.95 0855.05
2009/04/23 06:41:55.4      23   -138     45    141    149 170.2  17.9  33944  285.92 0855.05
2009/04/23 06:41:55.5      20   -121     26    123    126 170.3  12.2  33946  285.97 0855.05
2009/04/23 06:41:55.6       8   -107     28    108    112 175.6  14.7  33946  285.95 0855.05
2009/04/23 06:41:55.7     -14   -107      8    108    109 187.6   4.4  33956  286.14 0855.05
2009/04/23 06:41:55.8     -18   -122     10    124    125 188.5   5.0  33954  286.10 0855.05
2009/04/23 06:41:55.9      15   -145     12    146    147 173.8   4.9  33954  286.08 0855.05
2009/04/23 06:41:56.0     -49   -135     28    144    147 200.0  11.0  33960  286.20 0855.05
2009/04/23 06:41:56.1     -82   -111     36    139    144 216.5  14.7  33962  286.22 0855.05
2009/04/23 06:41:56.2     -66    -83     20    107    110 218.3  11.0  33962  286.24 0855.05
2009/04/23 06:41:56.3     -64   -100    -18    119    121 212.6  -8.8  33952  286.07 0855.05
2009/04/23 06:41:56.4     -89   -122     11    152    153 216.1   4.4  33958  286.15 0855.05
2009/04/23 06:41:56.5    -103   -104     23    147    149 224.5   9.0  33954  286.08 0855.05
2009/04/23 06:41:56.6     -85   -113      7    142    143 217.0   2.9  33950  286.03 0855.05
2009/04/23 06:41:56.7     -71    -89     22    115    118 218.7  11.1  33952  286.05 0855.05
2009/04/23 06:41:56.8     -49    -85     13     99    100 210.3   8.0  33950  286.02 0855.05
2009/04/23 06:41:56.9     -35   -105     -4    111    112 198.7  -2.2  33946  285.97 0855.05
2009/04/23 06:41:57.0     -63    -95    -14    115    116 213.8  -7.2  33950  286.03 0855.05
2009/04/23 06:41:57.1     -82    -95    -34    126    131 221.0 -15.4  33950  286.03 0855.05
2009/04/23 06:41:57.2     -53    -84    -12    100    101 212.1  -7.3  33948  286.00 0855.05
2009/04/23 06:41:57.3     -34   -103     -8    109    110 198.3  -4.6  33950  286.03 0855.05
2009/04/23 06:41:57.4     -32    -86      4     92     93 200.5   2.9  33950  286.02 0855.05
2009/04/23 06:41:57.5     -31    -91     -5     97     98 198.7  -3.1  33948  286.00 0855.05
2009/04/23 06:41:57.6     -28   -120    -29    124    128 193.4 -13.3  33948  285.98 0855.05
2009/04/23 06:41:57.7     -12   -146    -13    147    148 184.9  -5.2  33946  285.95 0855.05
2009/04/23 06:41:57.8     -26   -133      6    136    137 191.1   2.9  33950  286.02 0855.05
2009/04/23 06:41:57.9     -32   -109      5    114    115 196.5   2.9  33954  286.08 0855.05
2009/04/23 06:41:58.0     -47   -100    -20    111    113 205.3 -10.3  33946  285.97 0855.05
2009/04/23 06:41:58.1      24    -73      9     77     78 161.5   6.9  33948  286.00 0855.05
2009/04/23 06:41:58.2      48   -103     -7    114    115 154.7  -3.7  33950  286.02 0855.05
2009/04/23 06:41:58.3       0   -112    -14    113    114 180.5  -7.2  33948  285.98 0855.05
2009/04/23 06:41:58.4      32    -95    -12    101    102 161.3  -7.2  33948  285.98 0855.05
2009/04/23 06:41:58.5      37    -83     23     91     94 155.9  14.3  33948  286.00 0855.05
2009/04/23 06:41:58.6   -6065 -10598  -5757  12210  13499 209.8 -31.5  31936  253.09 0855.05
2009/04/23 06:41:58.7      11    -72      3     73     74 171.1   2.8  33948  285.98 0855.05
2009/04/23 06:41:58.8     -25   -107      5    110    111 193.4   2.8  33946  285.97 0855.05
2009/04/23 06:41:58.9      -8   -124     44    125    133 184.0  19.4  33950  286.03 0855.05
2009/04/23 06:41:59.0     -16   -102     35    104    110 188.9  18.9  33952  286.07 0855.05
2009/04/23 06:41:59.1     -25   -108     25    112    115 193.4  12.6  33950  286.03 0855.05
2009/04/23 06:41:59.2     -38   -124     -2    130    131 197.4  -1.2  33950  286.02 0855.05
2009/04/23 06:41:59.3     -33   -100     -7    106    107 198.3  -4.1  33950  286.02 0855.05
2009/04/23 06:41:59.4     -27    -94     -3     98     99 196.0  -2.2  33950  286.03 0855.05
2009/04/23 06:41:59.5      -7    -81     -8     82     83 185.3  -5.6  33948  286.00 0855.05
2009/04/23 06:41:59.6      -5    -66      5     67     68 184.4   4.9  33950  286.02 0855.05
2009/04/23 06:41:59.7      -2    -89    -13     90     91 181.8  -8.2  33952  286.07 0855.05
2009/04/23 06:41:59.8     -19   -105    -18    107    109 190.7  -9.8  33954  286.08 0855.05
2009/04/23 06:41:59.9     -30    -78    -24     84     87 201.4 -21.2  33952  286.05 0855.05
2009/04/23 06:42:00.0     -30    -78    -22     84     87 201.4 -15.0  33954  286.08 0855.05
2009/04/23 06:42:00.1     -40    -87    -34     96    103 204.9 -19.7  33950  286.02 0855.05
2009/04/23 06:42:00.2     -23    -86    -35     90     96 195.1 -25.9  33950  286.02 0855.05
2009/04/23 06:42:00.3      -5    -75    -27     76     80 184.5 -24.4  33946  285.97 0855.05
2009/04/23 06:42:00.4     -25    -76      5     81     82 198.5   3.8  33946  285.97 0855.05
2009/04/23 06:42:00.5      -5    -79     -8     80     81 183.6  -6.2  33950  286.02 0855.05
2009/04/23 06:42:00.6     -12    -58    -16     60     63 191.6 -15.4  33948  286.00 0855.05
2009/04/23 06:42:00.7       0    -58      7     59     60 179.1   6.9  33946  285.97 0855.05
2009/04/23 06:42:00.8       0    -43      6     44     45 180.0   8.0  33948  286.00 0855.05
2009/04/23 06:42:00.9      19    -46    -10     50     52 157.3 -11.3  33950  286.02 0855.05
2009/04/23 06:42:01.0      35    -56     23     67     72 147.5  19.4  33948  285.98 0855.05
2009/04/23 06:42:01.1      27    -48     18     56     60 151.0  18.4  33948  285.98 0855.05
2009/04/23 06:42:01.2      34    -51     26     62     67 145.7  23.1  33948  285.98 0855.05
2009/04/23 06:42:01.3      41    -87     45     97    106 154.5  26.6  33944  285.93 0855.05
2009/04/23 06:42:01.4      66    -87     13    110    111 143.0   6.9  33946  285.95 0855.05
2009/04/23 06:42:01.5      45    -93     22    104    107 154.1  12.2  33944  285.93 0855.04
2009/04/23 06:42:01.6      60   -101     22    118    121 149.3  10.6  33944  285.93 0855.04
2009/04/23 06:42:01.7      56    -95     17    111    113 149.3   9.0  33946  285.95 0855.04
2009/04/23 06:42:01.8      27    -80     20     85     88 160.8  13.7  33946  285.95 0855.04
2009/04/23 06:42:01.9      -4    -75     14     76     78 183.6  10.6  33948  286.00 0855.04
2009/04/23 06:42:02.0      28    -81    -14     86     88 160.8  -9.8  33948  286.00 0855.04
2009/04/23 06:42:02.1      31    -84     17     90     92 159.5  11.1  33950  286.02 0855.04
2009/04/23 06:42:02.2      12    -94     39     95    102 172.4  23.1  33948  286.00 0855.04
2009/04/23 06:42:02.3      -7   -112     25    113    116 184.0  12.6  33954  286.08 0855.04
2009/04/23 06:42:02.4     -15   -124     38    125    131 187.1  17.3  33960  286.20 0855.04
2009/04/23 06:42:02.5       6    -97     59     98    114 176.0  34.4  33958  286.15 0855.04
2009/04/23 06:42:02.6     -15   -101     54    103    116 188.5  29.8  33960  286.19 0855.04
2009/04/23 06:42:02.7     -13   -107     45    108    117 187.1  23.1  33958  286.15 0855.04
2009/04/23 06:42:02.8     -36    -84     73     92    117 203.6  43.3  33958  286.15 0855.04
2009/04/23 06:42:02.9      14    -77     52     79     94 169.3  35.6  33956  286.14 0855.04
2009/04/23 06:42:03.0       3    -45     31     46     55 175.5  35.6  33956  286.14 0855.04
2009/04/23 06:42:03.1     -18    -38     29     43     51 205.4  37.6  33958  286.17 0855.04
2009/04/23 06:42:03.2     -44    -60      3     75     76 216.1   2.8  33956  286.12 0855.04
2009/04/23 06:42:03.3     -62    -75     25     98    102 219.7  14.7  33958  286.15 0855.04
2009/04/23 06:42:03.4     -49   -103     13    115    116 205.5   6.9  33956  286.14 0855.04
2009/04/23 06:42:03.5     -63    -87     51    108    119 216.1  27.2  33958  286.17 0855.04
2009/04/23 06:42:03.6     -45    -96     50    107    118 205.3  26.6  33960  286.19 0855.04
2009/04/23 06:42:03.7     -68    -85     60    110    125 218.7  31.4  33956  286.12 0855.04
2009/04/23 06:42:03.8     -17    -62     41     65     76 196.0  35.5  33956  286.12 0855.04
2009/04/23 06:42:03.9     -12   -104     49    105    115 186.7  27.1  33952  286.07 0855.04
2009/04/23 06:42:04.0     -16   -106     76    108    132 188.9  38.6  33952  286.05 0855.04
2009/04/23 06:42:04.1      10   -114     84    115    142 174.7  39.7  33954  286.08 0855.04
2009/04/23 06:42:04.2      40   -121     65    128    143 161.5  29.2  33952  286.07 0855.04
2009/04/23 06:42:04.3      21   -164     58    166    177 172.7  19.4  33964  286.25 0855.04
2009/04/23 06:42:04.4     -26   -151     72    154    170 189.8  27.1  33960  286.20 0855.04
2009/04/23 06:42:04.5     -30   -114     51    119    129 195.1  25.1  33962  286.22 0855.04
2009/04/23 06:42:04.6      -7    -99     12    100    101 184.4   7.1  33964  286.25 0855.04
2009/04/23 06:42:04.7     -41   -103     47    111    120 201.8  24.6  33964  286.27 0855.04
2009/04/23 06:42:04.8      52   -109     70    121    139 154.5  32.4  33954  286.08 0855.04
2009/04/23 06:42:04.9      51    -97     38    110    117 151.9  19.4  33950  286.03 0855.04
2009/04/23 06:42:05.0      -5    -71     19     72     75 184.5  15.3  33952  286.05 0855.04
2009/04/23 06:42:05.1     -26    -64     41     70     81 201.8  32.9  33952  286.05 0855.04
2009/04/23 06:42:05.2     -34    -57      3     67     68 210.7   2.9  33952  286.05 0855.04
2009/04/23 06:42:05.3      -1    -17     24     18     30 184.5  58.5  33948  286.00 0855.04
2009/04/23 06:42:05.4      24    -27     24     37     44 138.6  36.5  33948  286.00 0855.04
2009/04/23 06:42:05.5     -12    -53     54     55     77 193.4  51.1  33952  286.05 0855.04
2009/04/23 06:42:05.6       0    -42     41     43     59 180.9  49.0  33952  286.05 0855.04
2009/04/23 06:42:05.7      26    -28     48     39     61 136.6  56.4  33950  286.03 0855.04
2009/04/23 06:42:05.8      26    -16     41     31     51 122.4  58.5  33948  286.00 0855.04
2009/04/23 06:42:05.9      17    -39     44     43     61 156.4  50.1  33950  286.03 0855.04
2009/04/23 06:42:06.0      23    -23     40     33     51 135.0  56.4  33950  286.03 0855.04
2009/04/23 06:42:06.1       9    -27     43     29     51 161.5  62.6  33946  285.97 0855.04
2009/04/23 06:42:06.2       4    -42     46     43     62 173.8  52.1  33948  286.00 0855.04
2009/04/23 06:42:06.3      25    -42     51     50     71 149.3  50.1  33948  286.00 0855.04
2009/04/23 06:42:06.4      24    -56     41     62     74 156.4  35.6  33952  286.05 0855.04
2009/04/23 06:42:06.5      50    -48     12     70     72 134.1  10.1  33954  286.08 0855.04
2009/04/23 06:42:06.6      47    -57      3     75     76 140.3   2.9  33952  286.05 0855.04
2009/04/23 06:42:06.7      43    -70     29     83     89 148.4  19.4  33950  286.03 0855.04
2009/04/23 06:42:06.8      59    -71     17     93     95 140.4  10.6  33950  286.02 0855.04
2009/04/23 06:42:06.9      80    -75     38    110    117 133.2  19.4  33950  286.02 0855.04
2009/04/23 06:42:07.0     106    -67     30    126    130 122.4  13.7  33950  286.02 0855.04
2009/04/23 06:42:07.1     113    -62     23    130    133 118.8  10.1  33948  286.00 0855.04
2009/04/23 06:42:07.2     113    -71     31    134    138 122.0  13.1  33946  285.97 0855.04
2009/04/23 06:42:07.3     107    -53      2    120    121 116.6   1.2  33952  286.05 0855.04
2009/04/23 06:42:07.4      98    -47    -12    109    110 115.8  -6.7  33950  286.02 0855.04
2009/04/23 06:42:07.5      84    -45     -5     96     97 118.0  -3.1  33948  286.00 0855.04
2009/04/23 06:42:07.6      89    -44     -2    100    101 116.6  -1.3  33952  286.05 0855.04
2009/04/23 06:42:07.7      76    -23      5     80     81 106.8   3.8  33950  286.02 0855.04
2009/04/23 06:42:07.8      75     -5      3     76     77  94.4   2.9  33950  286.02 0855.04
2009/04/23 06:42:07.9      64    -19     -3     67     68 106.8  -3.2  33948  286.00 0855.04
2009/04/23 06:42:08.0      38    -13    -17     41     44 110.0 -27.4  33950  286.03 0855.04
2009/04/23 06:42:08.1      29    -18      0     35     36 122.5  -1.3  33948  286.00 0855.04
2009/04/23 06:42:08.2      24    -36     24     44     50 145.7  31.4  33952  286.05 0855.04
2009/04/23 06:42:08.3      49    -46     -1     68     69 133.1  -1.3  33950  286.03 0855.04
2009/04/23 06:42:08.4      26    -42    -15     50     53 148.4 -16.6  33950  286.03 0855.04
2009/04/23 06:42:08.5       4    -57    -20     58     61 175.5 -23.3  33948  286.00 0855.04
2009/04/23 06:42:08.6      20    -49    -20     54     57 157.3 -24.4  33948  286.00 0855.04
2009/04/23 06:42:08.7      28    -46    -15     55     58 148.4 -15.4  33948  286.00 0855.04
2009/04/23 06:42:08.8      35    -47     12     59     61 143.0  12.2  33948  285.98 0855.04
2009/04/23 06:42:08.9      36    -55     23     67     71 146.6  19.2  33950  286.03 0855.04
2009/04/23 06:42:09.0      63    -52     34     82     88 129.5  23.6  33952  286.05 0855.04
2009/04/23 06:42:09.1      85    -54     50    101    112 122.5  27.3  33952  286.05 0855.04
2009/04/23 06:42:09.2      66    -73     64     99    117 137.7  35.6  33952  286.07 0855.04
2009/04/23 06:42:09.3      56    -71     45     91    101 141.7  28.2  33952  286.05 0855.04
2009/04/23 06:42:09.4      70    -62     54     94    108 131.8  32.4  33948  286.00 0855.04
2009/04/23 06:42:09.5      73    -78     70    108    128 136.8  35.6  33950  286.03 0855.04
2009/04/23 06:42:09.6     107    -73     49    130    138 124.6  21.5  33952  286.07 0855.04
2009/04/23 06:42:09.7     104    -92     59    140    151 131.4  24.1  33952  286.05 0855.04
2009/04/23 06:42:09.8      83   -113     44    141    148 143.9  17.3  33952  286.05 0855.04
2009/04/23 06:42:09.9      91    -91     66    129    144 135.0  29.3  33954  286.08 0855.04
2009/04/23 06:42:10.0     110    -90     71    143    159 129.5  28.5  33954  286.10 0855.04
2009/04/23 06:42:10.1      91    -91     66    129    144 135.0  29.3  33954  286.08 0855.04
2009/04/23 06:42:10.2     114    -54     51    127    136 115.4  23.0  33952  286.05 0855.04
2009/04/23 06:42:10.3     109    -58     76    124    145 118.4  35.0  33952  286.05 0855.04
2009/04/23 06:42:10.4     104    -52     68    117    135 116.6  33.4  33952  286.05 0855.04
2009/04/23 06:42:10.5      95    -65     57    116    129 124.2  27.8  33954  286.10 0855.04
2009/04/23 06:42:10.6      79    -74     57    109    123 133.1  29.3  33954  286.08 0855.04
2009/04/23 06:42:10.7      66    -73     64     99    117 137.7  35.6  33952  286.07 0855.04
2009/04/23 06:42:10.8      60    -95     63    113    129 147.5  31.4  33952  286.05 0855.04
2009/04/23 06:42:10.9      57    -99     75    115    137 150.1  36.0  33954  286.08 0855.04
2009/04/23 06:42:11.0      70    -60     62     93    111 130.9  36.5  33954  286.08 0855.04
2009/04/23 06:42:11.1      69    -53     63     88    108 127.8  39.7  33956  286.14 0855.04
2009/04/23 06:42:11.2      63    -58     57     87    104 132.7  36.0  33956  286.12 0855.04
2009/04/23 06:42:11.3      53    -44     63     69     93 129.6  47.9  33958  286.17 0855.04
2009/04/23 06:42:11.4      53    -44     56     69     88 129.6  43.7  33954  286.08 0855.04
2009/04/23 06:42:11.5      45    -54     64     71     95 140.3  46.9  33954  286.10 0855.03
2009/04/23 06:42:11.6      28    -77     62     82    102 160.0  41.2  33956  286.12 0855.03
2009/04/23 06:42:11.7      -1    -74     55     75     93 180.9  40.1  33954  286.08 0855.03
2009/04/23 06:42:11.8       2    -69     51     70     86 178.2  39.7  33954  286.10 0855.03
2009/04/23 06:42:11.9      -1    -74     69     75    101 180.9  47.9  33952  286.07 0855.03
2009/04/23 06:42:12.0      40   -109     58    117    130 160.0  27.8  33950  286.02 0855.03
2009/04/23 06:42:12.1      84    -82     63    118    133 134.0  30.3  33950  286.02 0855.03
2009/04/23 06:42:12.2      55    -86     48    103    113 147.4  27.1  33952  286.05 0855.03
2009/04/23 06:42:12.3      38    -75     50     85     98 153.3  32.9  33952  286.05 0855.03
2009/04/23 06:42:12.4      14    -99     56    101    115 171.5  31.4  33952  286.05 0855.03
2009/04/23 06:42:12.5      29    -92     62     97    115 162.2  35.5  33954  286.08 0855.04
2009/04/23 06:42:12.6      16    -79     64     81    103 168.4  42.7  33956  286.12 0855.04
2009/04/23 06:42:12.7      38    -46     54     60     80 140.3  46.9  33954  286.10 0855.04
2009/04/23 06:42:12.8      37    -36     57     52     77 134.0  52.2  33954  286.08 0855.04
2009/04/23 06:42:12.9      45    -28     62     54     82 122.4  54.3  33954  286.08 0855.04
2009/04/23 06:42:13.0      62    -34     57     71     91 118.9  43.7  33950  286.03 0855.04
2009/04/23 06:42:13.1      31    -48     62     58     84 147.4  51.6  33952  286.07 0855.04
2009/04/23 06:42:13.2      48    -46     51     67     84 134.1  41.2  33954  286.10 0855.04
2009/04/23 06:42:13.3      68    -32     50     76     90 115.2  36.5  33952  286.05 0855.04
2009/04/23 06:42:13.4      68    -22     60     72     93 108.2  44.3  33954  286.10 0855.04
2009/04/23 06:42:13.5      51    -37     68     64     93 126.0  51.2  33954  286.08 0855.04
2009/04/23 06:42:13.6      59    -48     63     77     99 129.5  43.7  33952  286.05 0855.04
2009/04/23 06:42:13.7      78    -32     64     85    106 112.6  40.7  33954  286.08 0855.04
2009/04/23 06:42:13.8      67    -22     60     71     92 108.4  44.3  33954  286.10 0855.04
2009/04/23 06:42:13.9      65    -19     44     68     80 106.8  36.0  33954  286.08 0855.04
2009/04/23 06:42:14.0      55    -24     53     61     80 113.5  45.8  33956  286.12 0855.04
2009/04/23 06:42:14.1      65    -21     63     69     93 108.6  47.9  33958  286.15 0855.04
2009/04/23 06:42:14.2      67    -22     60     71     92 108.4  44.3  33954  286.10 0855.04
2009/04/23 06:42:14.3      46    -32     64     57     85 125.1  53.7  33954  286.10 0855.04
2009/04/23 06:42:14.4      52    -30     44     61     75 119.8  39.5  33954  286.08 0855.04
2009/04/23 06:42:14.5      16    -26     48     31     57 147.5  64.6  33952  286.07 0855.04
2009/04/23 06:42:14.6      -7    -38     50     39     63 191.6  57.5  33956  286.12 0855.04
2009/04/23 06:42:14.7      32    -10     27     34     43 108.4  42.7  33954  286.08 0855.04
2009/04/23 06:42:14.8      14    -19     30     24     38 143.9  56.4  33952  286.07 0855.04
2009/04/23 06:42:14.9       1    -35     35     36     50 177.3  51.1  33954  286.08 0855.04
2009/04/23 06:42:15.0      26    -36     38     45     58 143.9  44.8  33952  286.05 0855.04
2009/04/23 06:42:15.1      50    -30     46     59     74 120.7  42.7  33952  286.07 0855.04
2009/04/23 06:42:15.2      33    -42     26     54     59 141.3  27.3  33954  286.08 0855.04
2009/04/23 06:42:15.3      30    -55     32     63     70 151.0  28.2  33952  286.05 0855.04
2009/04/23 06:42:15.4      30    -64     24     72     77 154.5  18.9  33954  286.08 0855.04
2009/04/23 06:42:15.5      21    -64     13     68     70 161.3  11.1  33954  286.10 0855.04
2009/04/23 06:42:15.6      19    -63     24     66     70 163.1  20.0  33956  286.12 0855.04
2009/04/23 06:42:15.7       2    -72      3     73     74 178.2   2.9  33954  286.08 0855.04
2009/04/23 06:42:15.8       0    -64     20     65     69 180.0  17.3  33952  286.07 0855.04
2009/04/23 06:42:15.9      -1    -72      3     73     74 180.9   2.8  33954  286.08 0855.04
2009/04/23 06:42:16.0      -5    -68      8     69     70 184.5   6.9  33950  286.03 0855.04
2009/04/23 06:42:16.1       2    -84     -3     85     86 178.2  -2.6  33954  286.10 0855.04
2009/04/23 06:42:16.2      22    -87     -2     90     91 165.7  -1.8  33954  286.10 0855.04
2009/04/23 06:42:16.3      22    -59     16     64     67 159.1  14.3  33952  286.07 0855.04
2009/04/23 06:42:16.4      11    -53      2     55     56 167.5   2.9  33954  286.10 0855.04
2009/04/23 06:42:16.5       1    -61     -8     62     63 179.0  -7.3  33954  286.08 0855.04
2009/04/23 06:42:16.6       5    -65    -18     66     69 175.6 -15.5  33954  286.08 0855.04
2009/04/23 06:42:16.7       8    -60     -1     61     62 172.0  -1.2  33954  286.10 0855.04
2009/04/23 06:42:16.8      19    -50     11     54     56 159.1  12.2  33954  286.08 0855.04
2009/04/23 06:42:16.9      28    -43     28     52     59 146.6  31.3  33952  286.07 0855.04
2009/04/23 06:42:17.0      20    -42     20     47     51 153.7  24.1  33952  286.05 0855.04
2009/04/23 06:42:17.1      36    -35     18     51     55 134.0  19.4  33954  286.08 0855.04
2009/04/23 06:42:17.2      34    -33      5     48     49 134.1   6.9  33952  286.05 0855.04
2009/04/23 06:42:17.3      35    -28     12     45     47 128.6  15.3  33952  286.07 0855.04
2009/04/23 06:42:17.4      47    -36     11     60     62 127.8  11.0  33954  286.08 0855.04
2009/04/23 06:42:17.5      52    -43     13     68     70 129.6  11.1  33954  286.08 0855.04
2009/04/23 06:42:17.6      57    -47      8     74     75 129.5   6.9  33954  286.10 0855.04
2009/04/23 06:42:17.7      60    -38      4     72     73 122.4   3.8  33954  286.08 0855.04
2009/04/23 06:42:17.8      46    -38      1     60     61 129.6   1.8  33954  286.08 0855.04
2009/04/23 06:42:17.9      52    -39     -1     65     66 126.9  -1.3  33954  286.10 0855.04
2009/04/23 06:42:18.0      40    -42      7     59     60 136.6   6.9  33954  286.08 0855.04
2009/04/23 06:42:18.2      28    -35     22     46     51 141.3  27.2  33954  286.08 0855.04
2009/04/23 06:42:18.2      25    -42     18     49     52 149.3  20.0  33954  286.08 0855.04
2009/04/23 06:42:18.3      25    -56     21     62     66 155.5  18.9  33956  286.12 0855.04
2009/04/23 06:42:18.5       4    -68     24     69     74 176.4  19.2  33956  286.12 0855.04
2009/04/23 06:42:18.5      -3    -59     29     60     66 183.6  27.2  33954  286.10 0855.04
2009/04/23 06:42:18.6      -4    -53     42     54     68 184.5  43.7  33956  286.12 0855.04
2009/04/23 06:42:18.8       7    -22     55     24     60 161.3  75.0  33954  286.10 0855.04
2009/04/23 06:42:18.9      -8    -42     54     43     69 191.6  56.4  33958  286.15 0855.04
2009/04/23 06:42:19.0     -15    -49     68     52     85 196.9  59.0  33956  286.14 0855.04
2009/04/23 06:42:19.0     -12    -36     61     38     71 198.5  64.7  33956  286.14 0855.04
2009/04/23 06:42:19.1     -15    -43     57     46     73 200.0  56.4  33956  286.14 0855.04
2009/04/23 06:42:19.2     -17    -17     68     25     72 225.1  80.2  33954  286.10 0855.04
2009/04/23 06:42:19.4       3     -7     38      8     38 154.6  89.0  33956  286.12 0855.04
2009/04/23 06:42:19.4      37     31     54     49     72  50.5  52.2  33954  286.08 0855.04
2009/04/23 06:42:19.5      16     -7     43     18     46 115.3  77.1  33954  286.08 0855.04
2009/04/23 06:42:19.7      26    -41     45     49     66 147.5  47.9  33952  286.05 0855.04
2009/04/23 06:42:19.8      62    -34     51     71     87 118.9  39.1  33952  286.05 0855.04
2009/04/23 06:42:19.8      64    -59     70     88    112 132.7  43.7  33948  285.98 0855.04
2009/04/23 06:42:20.0      54    -78     52     95    108 145.3  30.8  33950  286.02 0855.04
2009/04/23 06:42:20.1      95    -59     56    113    126 122.0  28.2  33952  286.05 0855.04
2009/04/23 06:42:20.1      68    -68     67     97    117 134.9  38.0  33952  286.07 0855.04
2009/04/23 06:42:20.3      53    -84     51    100    112 147.5  28.7  33952  286.05 0855.04
2009/04/23 06:42:20.4      67    -59     57     90    106 131.8  35.5  33950  286.02 0855.04
2009/04/23 06:42:20.5      60    -62     44     87     97 136.3  28.2  33950  286.03 0855.04
2009/04/23 06:42:20.6      12    -62     58     64     86 168.4  47.5  33952  286.05 0855.03
2009/04/23 06:42:20.6      -4    -54     69     55     88 184.4  56.4  33952  286.05 0855.03
2009/04/23 06:42:20.8       1    -74     68     75    101 179.1  47.5  33952  286.05 0855.03
2009/04/23 06:42:20.9     -34    -50     47     61     77 214.3  42.7  33958  286.17 0855.03
2009/04/23 06:42:20.9     -45    -63     35     78     85 216.0  25.7  33960  286.19 0855.03
2009/04/23 06:42:21.1     -28    -74     37     80     88 200.9  26.2  33958  286.17 0855.03
2009/04/23 06:42:21.2     -12    -60     28     62     68 191.5  26.2  33958  286.15 0855.03
2009/04/23 06:42:21.3     -29    -49     30     58     65 210.7  30.3  33956  286.14 0855.03
2009/04/23 06:42:21.4     -43    -49     51     66     83 221.4  41.7  33958  286.17 0855.03
2009/04/23 06:42:21.5     -33    -71     49     79     92 205.3  35.5  33960  286.20 0855.03
2009/04/23 06:42:21.6     -23    -86     44     90    100 195.1  27.8  33960  286.19 0855.03
2009/04/23 06:42:21.7     -10    -69     52     70     87 188.9  40.7  33960  286.20 0855.03
2009/04/23 06:42:21.8      -9    -76     50     77     91 187.1  35.6  33964  286.25 0855.03
2009/04/23 06:42:21.9     -10    -81     49     82     95 187.6  34.4  33966  286.29 0855.03
2009/04/23 06:42:22.0       1    -71     43     72     83 179.0  34.0  33960  286.19 0855.03
2009/04/23 06:42:22.1      12    -86     53     87    101 172.0  34.4  33960  286.20 0855.03
2009/04/23 06:42:22.2      21    -67     47     71     85 162.2  36.5  33952  286.05 0855.03
2009/04/23 06:42:22.3      17    -99     65    101    120 169.8  35.6  33952  286.07 0855.03
2009/04/23 06:42:22.4     -18    -82     32     85     90 192.5  21.5  33952  286.07 0855.03
2009/04/23 06:42:22.5     -29    -89     15     94     96 198.3   9.5  33954  286.08 0855.03
2009/04/23 06:42:22.6     -28   -135     28    139    142 192.0  11.6  33950  286.03 0855.03
2009/04/23 06:42:22.7     -38   -112     28    119    123 198.7  13.2  33952  286.05 0855.03
2009/04/23 06:42:22.8     -32   -101     33    107    113 197.8  17.3  33952  286.05 0855.03
2009/04/23 06:42:22.9     -28   -104     38    108    115 195.1  19.4  33952  286.05 0855.03
2009/04/23 06:42:23.0     -11   -108     61    109    124 186.2  31.9  33952  286.07 0855.03
2009/04/23 06:42:23.1       7    -94     41     95    103 175.5  24.6  33956  286.12 0855.03
2009/04/23 06:42:23.2      66    -80     58    105    119 140.4  31.4  33952  286.07 0855.03
2009/04/23 06:42:23.3      52    -92     45    106    115 150.6  24.1  33954  286.08 0855.03
2009/04/23 06:42:23.4      27    -99     49    103    114 164.4  27.3  33952  286.07 0855.03
2009/04/23 06:42:23.5      30   -115     62    119    134 165.3  29.3  33954  286.08 0855.03
2009/04/23 06:42:23.6      38   -125     38    131    137 163.0  16.3  33952  286.05 0855.03
2009/04/23 06:42:23.7      23    -98     25    101    105 166.6  14.3  33952  286.07 0855.03
2009/04/23 06:42:23.8       9    -98     44     99    108 174.7  25.7  33954  286.08 0855.03
2009/04/23 06:42:23.9      48   -120     12    130    131 158.2   5.4  33952  286.05 0855.03
2009/04/23 06:42:24.0       4   -104     41    105    112 177.8  22.5  33952  286.07 0855.03
2009/04/23 06:42:24.1      32   -138     54    142    151 166.6  21.5  33952  286.07 0855.03
2009/04/23 06:42:24.2      39   -123     64    130    144 162.2  28.2  33952  286.05 0855.03
2009/04/23 06:42:24.3      40   -137     70    143    159 163.5  28.0  33956  286.12 0855.03
2009/04/23 06:42:24.4      16   -123     82    125    149 172.4  35.6  33956  286.12 0855.03
2009/04/23 06:42:24.5      23   -105     82    108    135 167.5  41.6  33952  286.07 0855.03
2009/04/23 06:42:24.6       7    -84     66     85    107 174.7  42.2  33956  286.14 0855.03
2009/04/23 06:42:24.7      -9    -90     81     91    121 186.2  46.4  33956  286.12 0855.03
2009/04/23 06:42:24.8     -52   -119     58    131    143 203.7  25.1  33950  286.02 0855.03
2009/04/23 06:42:24.9     -29   -154     30    157    160 190.7  10.8  33946  285.95 0855.03
2009/04/23 06:42:25.0     -19   -149      7    151    152 187.6   2.9  33944  285.93 0855.03
2009/04/23 06:42:25.1      -8   -140     29    141    145 183.6  11.6  33950  286.03 0855.03
2009/04/23 06:42:25.2       0   -107     32    108    113 179.5  16.8  33954  286.10 0855.03
2009/04/23 06:42:25.3     -37   -138     67    143    157 195.1  26.6  33956  286.14 0855.03
2009/04/23 06:42:25.4      17   -119     45    121    129 171.5  21.0  33952  286.07 0855.03
2009/04/23 06:42:25.5      23   -115     50    118    128 168.4  24.6  33952  286.05 0855.03
2009/04/23 06:42:25.6      43    -94     35    104    111 155.1  18.9  33952  286.07 0855.03
2009/04/23 06:42:25.7       4    -94     70     95    118 177.3  40.1  33960  286.19 0855.03
2009/04/23 06:42:25.8      20   -101     69    104    124 168.4  36.5  33956  286.12 0855.03
2009/04/23 06:42:25.9      22   -110     69    113    132 168.5  34.4  33952  286.05 0855.03
2009/04/23 06:42:26.0       6    -85     57     86    103 175.6  36.5  33954  286.10 0855.03
2009/04/23 06:42:26.1      18    -67     59     70     91 164.8  44.3  33948  286.00 0855.03
2009/04/23 06:42:26.2      33    -99     66    105    124 161.5  35.5  33948  285.98 0855.03
2009/04/23 06:42:26.3      12    -87     66     88    110 171.5  40.7  33950  286.03 0855.03
2009/04/23 06:42:26.5      10   -104     77    105    130 174.2  39.7  33952  286.05 0855.03
2009/04/23 06:42:26.5      40    -64     81     76    111 147.4  52.1  33950  286.03 0855.03
2009/04/23 06:42:26.6       7    -32     62     33     70 166.6  69.8  33950  286.02 0855.03
2009/04/23 06:42:26.7     -12    -27     30     30     42 205.4  50.1  33948  286.00 0855.03
2009/04/23 06:42:26.8     -18    -62     42     65     77 196.9  35.6  33946  285.95 0855.03
2009/04/23 06:42:26.9       4    -57     53     58     78 175.5  47.9  33944  285.93 0855.03
2009/04/23 06:42:27.0      32    -64     52     72     88 152.8  39.7  33944  285.93 0855.03
2009/04/23 06:42:27.1       5    -66     73     67     99 175.5  52.2  33942  285.90 0855.03
2009/04/23 06:42:27.2       9    -61     90     62    109 171.1  62.1  33942  285.88 0855.03
2009/04/23 06:42:27.3       0   -113     95    114    148 179.5  43.8  33946  285.97 0855.03
2009/04/23 06:42:27.4     -20   -121     80    123    146 189.7  35.6  33944  285.93 0855.03
2009/04/23 06:42:27.5     -16    -99     93    101    137 189.3  47.9  33940  285.85 0855.03
2009/04/23 06:42:27.6     -21   -105    114    108    157 191.5  51.6  33940  285.85 0855.03
2009/04/23 06:42:27.7     -15   -110    120    112    164 188.1  52.0  33938  285.83 0855.03
2009/04/23 06:42:27.8      13    -90    135     92    163 171.5  62.8  33940  285.85 0855.03
2009/04/23 06:42:27.9     -25   -125    129    128    181 191.5  50.1  33936  285.78 0855.03
2009/04/23 06:42:28.0     -66   -120    116    138    180 209.0  44.3  33944  285.92 0855.03
2009/04/23 06:42:28.1     -51   -144    131    153    201 199.6  45.4  33938  285.83 0855.03
2009/04/23 06:42:28.2      -7   -112    145    113    183 183.6  58.2  33934  285.76 0855.03
2009/04/23 06:42:28.3     -18   -104    136    106    172 189.8  57.9  33940  285.85 0855.03
2009/04/23 06:42:28.4    -107   -107     42    152    158 225.1  15.6  33950  286.02 0855.03
2009/04/23 06:42:28.5    -111   -168     55    202    210 213.6  15.2  33948  285.98 0855.03
2009/04/23 06:42:28.6    -107   -161     38    194    198 213.8  11.1  33948  285.98 0855.03
2009/04/23 06:42:28.7    -108   -169     16    201    202 212.6   4.6  33946  285.95 0855.03
2009/04/23 06:42:28.8     -65   -160     33    173    177 202.1  10.8  33948  285.98 0855.03
2009/04/23 06:42:28.9     -38   -116     33    123    128 198.5  15.2  33946  285.97 0855.03
2009/04/23 06:42:29.0     -33   -101     69    107    127 198.3  35.6  33946  285.95 0855.03
2009/04/23 06:42:29.1     -40    -85     48     95    106 205.3  28.7  33948  286.00 0855.03
2009/04/23 06:42:29.2     -49    -99     -3    111    112 206.3  -1.8  33948  286.00 0855.03
2009/04/23 06:42:29.3     -42   -103     72    112    133 202.3  35.6  33944  285.93 0855.03
2009/04/23 06:42:29.4    -117   -150     19    191    192 218.1   5.7  33946  285.97 0855.03
2009/04/23 06:42:29.5    -103   -129      8    166    167 218.7   2.9  33948  285.98 0855.03
2009/04/23 06:42:29.6    -124   -101     -3    161    162 230.9  -1.3  33938  285.83 0855.03
2009/04/23 06:42:29.7    -104   -104     26    148    151 225.0  10.1  33944  285.92 0855.03
2009/04/23 06:42:29.8     -90   -123      0    153    154 216.1  -0.3  33942  285.90 0855.03
2009/04/23 06:42:29.9     -66    -71    -19     98    100 222.8 -11.3  33942  285.88 0855.03
2009/04/23 06:42:30.0   -6178 -10531  -5777  12209  13506 210.4 -31.5  31940  253.15 0855.03
2009/04/23 06:42:30.1     -89   -122     21    152    154 216.1   8.0  33946  285.95 0855.03
2009/04/23 06:42:30.2     -72   -121     12    142    143 210.8   4.9  33944  285.93 0855.03
2009/04/23 06:42:30.3     -42    -90      9    100    101 204.9   5.4  33942  285.90 0855.03
2009/04/23 06:42:30.4     -31    -90      3     96     97 199.2   2.3  33942  285.90 0855.03
2009/04/23 06:42:30.5     -66   -112     -2    131    132 210.7  -1.3  33942  285.90 0855.03
2009/04/23 06:42:30.6     -76   -105     -5    130    131 216.0  -2.2  33940  285.85 0855.03
2009/04/23 06:42:30.7     -59   -122    -24    136    139 205.9 -10.3  33940  285.87 0855.03
2009/04/23 06:42:30.8     -54   -141    -12    152    153 200.9  -4.6  33946  285.95 0855.03
2009/04/23 06:42:30.9     -62   -125    -12    140    141 206.3  -5.1  33942  285.90 0855.03
2009/04/23 06:42:31.0     -80    -58     15    100    102 234.0   9.0  33940  285.87 0855.03
2009/04/23 06:42:31.1     -77    -37     19     86     89 244.2  12.6  33942  285.90 0855.03
2009/04/23 06:42:31.2     -67    -67     33     96    102 225.1  19.4  33944  285.93 0855.03
2009/04/23 06:42:31.3     -66   -129     51    146    155 207.2  19.6  33940  285.87 0855.03
2009/04/23 06:42:31.4     -18    -55     66     59     88 198.7  53.3  33942  285.90 0855.03
2009/04/23 06:42:31.5     -63    -75     33     99    105 220.1  18.4  33934  285.76 0855.03
2009/04/23 06:42:31.6    -108    -51     26    120    123 244.6  12.6  33938  285.82 0855.03
2009/04/23 06:42:31.7    -126   -104    -12    164    165 230.5  -4.4  33936  285.80 0855.03
2009/04/23 06:42:31.8    -105    -92    -12    140    141 228.7  -5.2  33930  285.68 0855.03
2009/04/23 06:42:31.9    -129     27     31    132    136 281.9  13.2  33934  285.76 0855.03
2009/04/23 06:42:32.0    -121     -3     -2    122    123 268.3  -1.3  33932  285.73 0855.03
2009/04/23 06:42:32.1    -107     -4     -7    108    109 267.4  -3.7  33936  285.80 0855.03
2009/04/23 06:42:32.2     -93    -16     26     95     99 260.3  15.3  33934  285.76 0855.03
2009/04/23 06:42:32.3    -114    -72     37    136    141 237.6  15.3  33934  285.76 0855.03
2009/04/23 06:42:32.4     -80    -72     70    108    128 227.8  35.6  33932  285.73 0855.03
2009/04/23 06:42:32.5     -60    -38     38     72     81 237.6  30.3  33934  285.75 0855.03
2009/04/23 06:42:32.6     -80    -27    -37     85     92 250.9 -29.5  33932  285.73 0855.02
2009/04/23 06:42:32.7    -120      0    -63    121    136 269.6 -33.7  33932  285.73 0855.02
2009/04/23 06:42:32.8     -93     -7    -15     94     96 265.6  -9.3  33932  285.71 0855.02
2009/04/23 06:42:32.9    -125    -10      0    126    127 265.2  -0.3  33928  285.66 0855.02
2009/04/23 06:42:33.0    -156    -33    -46    160    167 257.8 -16.0  33930  285.70 0855.02
2009/04/23 06:42:33.1    -170     -3    -47    171    178 268.7 -15.5  33932  285.73 0855.02
2009/04/23 06:42:33.2    -167    -35    -33    171    175 258.1 -11.1  33936  285.78 0855.02
2009/04/23 06:42:33.3    -141    -51     -3    151    152 250.1  -1.2  33938  285.83 0855.02
2009/04/23 06:42:33.4    -129    -72     34    149    154 240.7  13.1  33936  285.78 0855.02
2009/04/23 06:42:33.5    -146    -58     28    158    161 248.3  10.3  33936  285.78 0855.02
2009/04/23 06:42:33.6    -145    -68     -6    161    162 244.8  -2.2  33928  285.65 0855.02
2009/04/23 06:42:33.7    -133    -53    -40    144    150 248.3 -15.5  33928  285.65 0855.02
2009/04/23 06:42:33.8    -103    -50      3    115    116 243.8   1.8  33928  285.66 0855.02
2009/04/23 06:42:33.9     -65    -65     14     93     95 225.0   8.5  33934  285.75 0855.02
2009/04/23 06:42:34.0     -88    -60     21    107    110 235.8  11.1  33938  285.82 0855.02
2009/04/23 06:42:34.1     -69    -34    -23     77     80 243.8 -21.2  33932  285.73 0855.02
2009/04/23 06:42:34.2     -65    -37    -46     75     87 240.2 -39.4  33930  285.70 0855.02
2009/04/23 06:42:34.3     -41    -52    -37     67     76 217.8 -35.8  33930  285.70 0855.02
2009/04/23 06:42:34.4     -34    -30    -11     46     48 227.8 -13.4  33932  285.71 0855.02
2009/04/23 06:42:34.5     -15    -27     24     31     39 209.0  43.7  33932  285.73 0855.02
2009/04/23 06:42:34.6       5    -67     38     68     77 175.6  31.4  33938  285.83 0855.02
2009/04/23 06:42:34.7      48    -58      3     76     77 140.3   2.8  33936  285.78 0855.02
2009/04/23 06:42:34.8      48    -12    -20     50     53 104.2 -26.4  33932  285.73 0855.02
2009/04/23 06:42:34.9     -20     21    -29     30     41 316.8 -54.4  33936  285.78 0855.02
2009/04/23 06:42:35.0     -47    -11    -39     49     62 256.7 -48.1  33934  285.76 0855.02
2009/04/23 06:42:35.1     -94     -5    -61     95    112 266.5 -40.0  33934  285.75 0855.02
2009/04/23 06:42:35.2    -102    -67    -46    123    131 236.7 -25.4  33932  285.71 0855.02
2009/04/23 06:42:35.3    -110      1    -23    111    114 270.8 -11.9  33934  285.75 0855.02
2009/04/23 06:42:35.4     -97    -17    -38     99    106 259.9 -26.4  33934  285.75 0855.02
2009/04/23 06:42:35.5     -83    -31     -8     89     90 249.6  -5.6  33936  285.80 0855.02
2009/04/23 06:42:35.6     -76    -31    -19     83     86 247.4 -13.4  33932  285.71 0855.03
2009/04/23 06:42:35.7    -115    -23    -20    118    120 258.5  -9.8  33930  285.68 0855.03
2009/04/23 06:42:35.8    -125     -3    -56    126    137 268.3 -29.6  33928  285.65 0855.03
2009/04/23 06:42:35.9    -135     36    -96    140    169 285.1 -42.2  33928  285.65 0855.03
2009/04/23 06:42:36.0    -169     71    -72    184    197 292.8 -26.9  33930  285.70 0855.03
2009/04/23 06:42:36.1    -163     47    -83    170    189 286.2 -31.8  33928  285.65 0855.03
2009/04/23 06:42:36.2    -168     36    -88    172    193 282.2 -33.7  33928  285.66 0855.03
2009/04/23 06:42:36.3    -166     43    -82    172    190 284.8 -31.7  33934  285.75 0855.03
2009/04/23 06:42:36.4    -138     41    -73    145    162 286.8 -33.1  33934  285.76 0855.03
2009/04/23 06:42:36.5    -129     14    -57    130    141 276.2 -29.5  33932  285.71 0855.03
2009/04/23 06:42:36.6    -105      0    -69    106    126 270.0 -40.0  33934  285.75 0855.03
2009/04/23 06:42:36.7     -99      3    -88    100    133 272.1 -50.3  33938  285.82 0855.03
2009/04/23 06:42:36.8     -53     17    -99     56    113 288.6 -72.7  33936  285.78 0855.03
2009/04/23 06:42:36.9      -2     -1    -71      3     71 237.6 -90.0  33934  285.75 0855.03
2009/04/23 06:42:37.0      -3      0     -4      4      5 270.0 -54.5  33934  285.76 0855.03
2009/04/23 06:42:37.1     -49      8     23     50     55 279.7  27.1  33934  285.76 0855.03
2009/04/23 06:42:37.2     -64      0     24     65     69 270.0  20.0  33936  285.78 0855.03
2009/04/23 06:42:37.3     -48     16     38     51     63 289.1  40.7  33934  285.75 0855.03
2009/04/23 06:42:37.4     -33     18     25     38     45 298.9  35.6  33938  285.82 0855.03
2009/04/23 06:42:37.5     -40      6      5     41     42 278.8   6.9  33936  285.80 0855.03
2009/04/23 06:42:37.6     -48      3     -1     49     50 274.4  -2.2  33934  285.76 0855.02
2009/04/23 06:42:37.7     -83    -43      0     94     95 242.5   0.2  33932  285.73 0855.02
2009/04/23 06:42:37.8     -89      4    -32     90     95 272.6 -23.8  33932  285.73 0855.02
2009/04/23 06:42:37.9    -127    -14    -37    128    133 263.4 -21.2  33936  285.80 0855.02
2009/04/23 06:42:38.0    -131    -34    -30    136    140 255.4 -12.4  33934  285.76 0855.02
2009/04/23 06:42:38.1    -148    -35    -44    153    159 256.7 -20.7  33936  285.78 0855.02
2009/04/23 06:42:38.2    -160     53    -86    169    189 288.4 -33.1  33942  285.90 0855.02
2009/04/23 06:42:38.3    -153     50   -113    162    197 288.2 -42.8  33946  285.95 0855.02
2009/04/23 06:42:38.4    -154     18   -122    156    198 277.0 -46.4  33942  285.90 0855.02
2009/04/23 06:42:38.5    -130     18   -179    132    222 277.9 -64.9  33940  285.85 0855.02
2009/04/23 06:42:38.6    -131     11   -147    132    197 275.2 -57.9  33940  285.85 0855.02
2009/04/23 06:42:38.7    -151    -73   -117    168    204 244.2 -42.4  33936  285.80 0855.02
2009/04/23 06:42:38.8    -148   -126    -92    195    215 229.6 -31.5  33936  285.78 0855.02
2009/04/23 06:42:38.9    -157    -54    -75    167    183 250.9 -30.1  33936  285.78 0855.02
2009/04/23 06:42:39.0    -151   -113    -57    189    198 233.1 -16.8  33936  285.78 0855.02
2009/04/23 06:42:39.1    -178   -143     -8    229    230 231.1  -2.2  33938  285.83 0855.02
2009/04/23 06:42:39.2    -154   -146     10    213    214 226.4   2.9  33934  285.76 0855.02
2009/04/23 06:42:39.3    -141    -84    -44    165    171 239.3 -15.0  33934  285.76 0855.02
2009/04/23 06:42:39.4    -116   -133    -16    177    178 221.0  -5.4  33924  285.60 0855.02
2009/04/23 06:42:39.5    -148   -174      3    229    230 220.3   0.8  33928  285.65 0855.02
2009/04/23 06:42:39.6    -135   -173     19    220    221 217.9   5.2  33930  285.70 0855.02
2009/04/23 06:42:39.7    -187   -138     41    233    237 233.4  10.1  33928  285.66 0855.02
2009/04/23 06:42:39.8    -133   -132     67    188    200 225.1  19.6  33946  285.95 0855.02
2009/04/23 06:42:39.9    -116   -140     96    183    206 219.6  29.5  33930  285.68 0855.02
2009/04/23 06:42:40.0    -113   -126     81    170    188 222.1  27.3  33932  285.71 0855.02
2009/04/23 06:42:40.1     -98    -99    105    140    175 224.9  40.7  33934  285.75 0855.02
2009/04/23 06:42:40.2    -112    -81    106    139    174 234.0  41.2  33936  285.78 0855.02
2009/04/23 06:42:40.3    -148    -44     93    155    180 253.2  34.0  33938  285.83 0855.02
2009/04/23 06:42:40.4     -94   -113     79    148    167 219.7  30.3  33934  285.76 0855.02
2009/04/23 06:42:40.5     -99    -99     42    141    148 225.0  16.8  33934  285.75 0855.02
2009/04/23 06:42:40.6    -118    -75     60    141    153 237.5  24.1  33930  285.68 0855.02
2009/04/23 06:42:40.7    -102    -74     74    127    146 234.0  33.4  33936  285.78 0855.02
2009/04/23 06:42:40.8    -160    -66     60    174    185 247.6  19.2  33922  285.55 0855.02
2009/04/23 06:42:40.9    -119     -6     27    120    124 267.0  12.6  33928  285.65 0855.02
2009/04/23 06:42:41.0     -93    -96     31    134    138 224.1  13.1  33926  285.63 0855.02
2009/04/23 06:42:41.1     -80   -103     77    131    151 217.8  33.5  33926  285.63 0855.02
2009/04/23 06:42:41.2     -33   -117      7    122    123 196.0   3.3  33928  285.66 0855.02
2009/04/23 06:42:41.3     -25    -79     25     83     87 197.8  16.8  33928  285.66 0855.02
2009/04/23 06:42:41.4     -38    -52     33     65     72 216.1  28.2  33928  285.65 0855.02
2009/04/23 06:42:41.5     -26    -99     42    103    111 195.2  23.1  33926  285.61 0855.02
2009/04/23 06:42:41.6       9    -69     41     70     81 172.0  32.9  33926  285.63 0855.02
2009/04/23 06:42:41.7      54    -22     11     59     61 112.6  11.1  33926  285.63 0855.02
2009/04/23 06:42:41.8      58    -53    -28     79     84 132.2 -19.7  33930  285.70 0855.02
2009/04/23 06:42:41.9      43    -92    -28    102    106 154.5 -15.4  33932  285.71 0855.02
2009/04/23 06:42:42.0       0    -85     18     86     88 180.0  12.2  33930  285.68 0855.02
2009/04/23 06:42:42.1       0    -60     41     61     73 179.1  36.5  33930  285.70 0855.02
2009/04/23 06:42:42.2       0     -3     38      4     38 184.5  90.0  33930  285.68 0855.02
2009/04/23 06:42:42.3     -20      7     56     22     60 290.0  77.1  33930  285.70 0855.02
2009/04/23 06:42:42.4      14     17     60     23     64  39.6  79.2  33932  285.73 0855.02
2009/04/23 06:42:42.5      10     41     42     43     60  14.3  50.0  33934  285.75 0855.02
2009/04/23 06:42:42.6      76     54     42     94    102  54.5  25.7  33936  285.80 0855.02
2009/04/23 06:42:42.7      46     -3     66     47     81  94.3  61.1  33934  285.75 0855.02
2009/04/23 06:42:42.8      -6     -2     67      7     67 251.8  90.0  33934  285.76 0855.02
2009/04/23 06:42:42.9     -11      7     47     14     49 302.4  81.8  33936  285.80 0855.02
2009/04/23 06:42:43.0      -6      6     29      9     30 313.3  80.7  33936  285.78 0855.02
2009/04/23 06:42:43.1      13     34     35     37     50  21.8  49.0  33934  285.76 0855.02
2009/04/23 06:42:43.2       3     31     43     32     53   6.2  59.4  33934  285.76 0855.02
2009/04/23 06:42:43.3      28     26     48     39     61  46.7  56.4  33936  285.78 0855.02
2009/04/23 06:42:43.4      43      3     35     44     56  84.8  43.7  33934  285.76 0855.02
2009/04/23 06:42:43.5      40    -20     30     45     54 117.1  36.5  33934  285.76 0855.02
2009/04/23 06:42:43.6      30    -27     37     41     55 131.3  46.9  33934  285.76 0855.01
2009/04/23 06:42:43.7      57    -29     29     65     71 117.1  26.2  33934  285.75 0855.01
2009/04/23 06:42:43.8      45    -42     23     62     66 133.1  20.0  33932  285.73 0855.01
2009/04/23 06:42:43.9      20    -70     11     73     74 164.0   9.0  33936  285.78 0855.01
2009/04/23 06:42:44.0      29    -66     35     73     80 156.4  27.8  33934  285.76 0855.01
2009/04/23 06:42:44.1      41    -60     25     73     78 145.7  19.4  33936  285.78 0855.01
2009/04/23 06:42:44.2      46    -43     24     64     68 133.1  20.0  33934  285.76 0855.01
2009/04/23 06:42:44.3      53    -49     30     73     78 133.2  23.0  33938  285.82 0855.01
2009/04/23 06:42:44.4      70    -87     20    112    114 141.3  10.1  33936  285.80 0855.01
2009/04/23 06:42:44.5      75    -62      8     98     99 129.5   4.9  33936  285.78 0855.01
2009/04/23 06:42:44.6     102    -53      5    116    117 117.5   2.8  33934  285.76 0855.01
2009/04/23 06:42:44.7     102    -79     -7    130    131 127.8  -3.2  33936  285.78 0855.01
2009/04/23 06:42:44.8      72    -65    -25     98    102 132.2 -14.5  33936  285.80 0855.01
2009/04/23 06:42:44.9     110    -75     11    134    135 124.1   4.9  33936  285.80 0855.01
2009/04/23 06:42:45.0     128     -8     64    129    144  93.9  28.2  33938  285.83 0855.01
2009/04/23 06:42:45.1     107      3     33    108    114  88.3  17.3  33938  285.82 0855.01
2009/04/23 06:42:45.2     108     13     44    109    117  83.0  23.0  33938  285.82 0855.01
2009/04/23 06:42:45.3      90     21     20     93     96  76.3  12.2  33934  285.76 0855.01
2009/04/23 06:42:45.4      84     15      3     86     87  79.4   2.3  33936  285.78 0855.01
2009/04/23 06:42:45.5      86     22      7     89     90  75.4   4.9  33936  285.80 0855.01
2009/04/23 06:42:45.6      85     14      1     87     88  80.3   1.2  33938  285.82 0855.01
2009/04/23 06:42:45.7      95      7      4     96     97  85.6   2.8  33936  285.78 0855.01
2009/04/23 06:42:45.8      77     23     -3     81     82  73.2  -2.2  33936  285.80 0855.01
2009/04/23 06:42:45.9      71     32     -6     78     79  65.6  -4.6  33936  285.78 0855.01
2009/04/23 06:42:46.0      76     -5    -32     77     83  94.3 -28.0  33936  285.78 0855.01
2009/04/23 06:42:46.2     101     14    -21    103    106  82.0 -11.5  33936  285.80 0855.01
2009/04/23 06:42:46.3      81     17      2     83     84  78.1   1.8  33936  285.78 0855.01
2009/04/23 06:42:46.4      73     29     -3     79     80  68.3  -2.6  33936  285.78 0855.01
2009/04/23 06:42:46.4      58     38     -3     70     71  56.7  -3.1  33936  285.78 0855.01
2009/04/23 06:42:46.6      58     38     -3     70     71  56.7  -3.1  33936  285.78 0855.01
2009/04/23 06:42:46.6      66     25      3     71     72  69.2   2.8  33936  285.78 0855.01
2009/04/23 06:42:46.8      75     19     11     78     79  75.8   8.5  33934  285.76 0855.01
2009/04/23 06:42:46.9      63      4     17     64     67  85.7  15.2  33938  285.82 0855.01
2009/04/23 06:42:47.0     117     -4     14    118    119  92.1   7.1  33938  285.83 0855.01
2009/04/23 06:42:47.1     146     -4     23    147    149  91.7   8.9  33940  285.85 0855.01
2009/04/23 06:42:47.2     152     15      1    153    154  84.3   0.7  33940  285.85 0855.01
2009/04/23 06:42:47.3     136     10     11    137    138  85.6   5.0  33938  285.82 0855.01
2009/04/23 06:42:47.4     144     48    -19    153    155  71.4  -7.2  33936  285.80 0855.01
2009/04/23 06:42:47.5  -12173     56   5859  12176  13512 270.3  27.7  31876  252.14 0855.01
2009/04/23 06:42:47.6      88     17     17     90     92  78.5  11.1  33940  285.85 0855.01
2009/04/23 06:42:47.7      61    -18     39     64     74 106.8  35.5  33938  285.82 0855.01
2009/04/23 06:42:47.8      95      4     63     96    114  87.4  35.6  33942  285.88 0855.01
2009/04/23 06:42:47.9     118     -8     74    119    140  93.9  35.5  33938  285.82 0855.01
2009/04/23 06:42:48.0     110    -15     60    112    127  98.0  30.8  33936  285.80 0855.01
2009/04/23 06:42:48.1      94    -35     57    101    115 110.4  31.9  33934  285.76 0855.01
2009/04/23 06:42:48.2      81    -26     48     86     98 107.7  31.4  33936  285.80 0855.01
2009/04/23 06:42:48.3      78    -12     44     79     90  98.8  31.4  33938  285.82 0855.01
2009/04/23 06:42:48.4      57     -2     56     58     80  92.6  49.4  33938  285.83 0855.01
2009/04/23 06:42:48.5      63     -6     41     64     76  96.1  35.5  33938  285.83 0855.01
2009/04/23 06:42:48.6      70    -10     41     71     81  98.8  32.9  33938  285.83 0855.01
2009/04/23 06:42:48.7      71    -12     36     73     81  99.7  28.2  33936  285.80 0855.01
2009/04/23 06:42:48.8      84      0     85     85    120  90.0  50.1  33936  285.80 0855.01
2009/04/23 06:42:48.9      58     -4     89     59    106  94.4  63.6  33938  285.82 0855.01
2009/04/23 06:42:49.0      57      0     80     58     98  90.0  60.5  33940  285.85 0855.01
2009/04/23 06:42:49.1      85    -28     68     90    112 108.2  41.2  33940  285.85 0855.01
2009/04/23 06:42:49.2      90    -22     48     93    104 104.2  29.8  33938  285.82 0855.01
2009/04/23 06:42:49.3      85    -30     49     91    103 109.5  31.3  33938  285.83 0855.01
2009/04/23 06:42:49.4      76    -15     48     78     91 101.4  35.0  33938  285.82 0855.01
2009/04/23 06:42:49.5     122    -10     57    123    135  94.8  27.1  33938  285.82 0855.01
2009/04/23 06:42:49.6     126    -16     61    128    141  97.5  27.2  33938  285.82 0855.01
2009/04/23 06:42:49.7      67    -22     58     71     91 108.4  43.7  33936  285.78 0855.02
2009/04/23 06:42:49.8      66     -9     32     67     74  97.9  27.1  33938  285.82 0855.02
2009/04/23 06:42:49.9      69      0     -2     70     71  89.2  -2.2  33938  285.83 0855.02
2009/04/23 06:42:50.0      66     -4     -3     67     68  93.5  -3.2  33940  285.85 0855.02
2009/04/23 06:42:50.1      63    -17      4     66     67 105.0   3.8  33940  285.87 0855.02
2009/04/23 06:42:50.2      60     19     12     63     65  72.3  11.0  33938  285.82 0855.02
2009/04/23 06:42:50.3      81     15     32     83     88  79.4  21.5  33936  285.80 0855.02
2009/04/23 06:42:50.4      86     24     37     90     97  74.5  23.0  33936  285.80 0855.02
2009/04/23 06:42:50.5      83     22     48     86     98  74.9  31.4  33938  285.82 0855.02
2009/04/23 06:42:50.6     103     22     42    106    114  77.6  22.5  33936  285.78 0855.02
2009/04/23 06:42:50.7     100     15     50    102    113  81.2  27.8  33936  285.80 0855.02
2009/04/23 06:42:50.8     104     22     55    107    120  78.1  29.3  33936  285.78 0855.02
2009/04/23 06:42:50.9      82     14     59     84    102  79.9  39.1  33936  285.80 0855.02
2009/04/23 06:42:51.0      84     19     74     87    114  76.7  44.8  33938  285.82 0855.02
2009/04/23 06:42:51.1     101     31     71    106    127  72.7  37.0  33940  285.87 0855.02
2009/04/23 06:42:51.2     107     30     80    112    137  74.1  39.5  33940  285.87 0855.02
2009/04/23 06:42:51.3     124     32     70    129    146  75.4  30.8  33940  285.85 0855.02
2009/04/23 06:42:51.4     107     42     57    116    129  68.3  27.8  33938  285.82 0855.02
2009/04/23 06:42:51.5     107     40     53    115    126  69.2  26.6  33936  285.80 0855.02
2009/04/23 06:42:51.6      79     47     60     92    109  59.3  35.6  33936  285.78 0855.02
2009/04/23 06:42:51.7      80     61     78    101    127  52.7  41.7  33940  285.87 0855.01
2009/04/23 06:42:51.8      91     68     77    114    137  53.1  37.4  33938  285.83 0855.01
2009/04/23 06:42:51.9      61     82     85    103    133  36.5  43.7  33936  285.80 0855.01
2009/04/23 06:42:52.0      72     63     91     96    132  48.7  48.5  33936  285.80 0855.01
2009/04/23 06:42:52.1      84     71     78    111    135  49.6  38.0  33938  285.82 0855.01
2009/04/23 06:42:52.2      91     79     61    121    135  49.1  28.7  33940  285.85 0855.01
2009/04/23 06:42:52.3      73     72     57    103    117  45.6  31.4  33938  285.83 0855.01
2009/04/23 06:42:52.4      87     84     57    122    134  46.0  27.1  33940  285.85 0855.01
2009/04/23 06:42:52.5     123     96     40    157    163  52.2  14.5  33938  285.82 0855.01
2009/04/23 06:42:52.6     108     89     49    140    149  50.5  19.4  33940  285.85 0855.01
2009/04/23 06:42:52.7     105     49     30    117    121  64.8  14.7  33938  285.82 0855.01
2009/04/23 06:42:52.8     103     70     48    125    133  55.9  21.5  33940  285.87 0855.01
2009/04/23 06:42:52.9     100     81     45    129    137  50.9  19.4  33940  285.87 0855.01
2009/04/23 06:42:53.0      89     65     48    111    120  54.0  25.1  33940  285.87 0855.01
2009/04/23 06:42:53.1      87     71     45    113    121  50.9  23.0  33940  285.87 0855.01
2009/04/23 06:42:53.2      79     78     39    112    119  45.4  19.4  33938  285.82 0855.01
2009/04/23 06:42:53.3      61     84     81    104    131  36.1  41.7  33934  285.76 0855.01
2009/04/23 06:42:53.4     101     83     67    131    147  50.5  29.2  33936  285.80 0855.01
2009/04/23 06:42:53.5      88     79     69    119    137  48.2  32.9  33936  285.80 0855.01
2009/04/23 06:42:53.6      63    129     68    144    159  26.3  27.2  33936  285.80 0855.01
2009/04/23 06:42:53.7      69    102     60    124    137  34.3  27.3  33936  285.78 0855.02
2009/04/23 06:42:53.8     106     76     79    131    152  54.1  34.4  33934  285.75 0855.02
2009/04/23 06:42:53.9      79     66     84    104    133  50.0  43.7  33932  285.71 0855.02
2009/04/23 06:42:54.0       7     92     89     93    128   4.5  49.0  33936  285.80 0855.02
2009/04/23 06:42:54.1      61     97     79    115    139  32.1  37.6  33934  285.76 0855.02
2009/04/23 06:42:54.2      71     99     82    122    146  35.6  37.0  33932  285.71 0855.02
2009/04/23 06:42:54.3      49     84     93     98    135  30.7  49.0  33938  285.82 0855.02
2009/04/23 06:42:54.4      71     60     90     94    130  49.6  49.0  33936  285.78 0855.02
2009/04/23 06:42:54.5      40     40     86     57    103  45.1  63.6  33936  285.80 0855.02
2009/04/23 06:42:54.6      33     33     78     47     91  45.0  66.2  33934  285.75 0855.02
2009/04/23 06:42:54.7       6     26     66     27     71  13.4  77.1  33934  285.76 0855.02
2009/04/23 06:42:54.8      13     57     78     59     97  13.4  59.0  33932  285.71 0855.02
2009/04/23 06:42:54.9      54     62     66     83    106  41.0  42.7  33932  285.71 0855.02
2009/04/23 06:42:55.0      69     68     52     98    110  45.4  30.3  33932  285.71 0855.02
2009/04/23 06:42:55.1      58     22     71     63     94  69.2  53.7  33932  285.71 0855.02
2009/04/23 06:42:55.2      41     31     86     52    100  52.2  65.7  33932  285.73 0855.02
2009/04/23 06:42:55.3      49     18     84     53     99  69.2  64.7  33934  285.75 0855.02
2009/04/23 06:42:55.4      47     32     64     58     86  55.8  52.7  33936  285.78 0855.02
2009/04/23 06:42:55.5      30     30     73     43     84  45.0  66.2  33936  285.78 0855.02
2009/04/23 06:42:55.6      45     30     84     55    100  55.8  64.1  33932  285.71 0855.02
2009/04/23 06:42:55.7      41     -7     63     42     75 100.6  64.6  33936  285.78 0855.02
2009/04/23 06:42:55.8      77      5     68     78    103  85.6  46.4  33936  285.80 0855.02
2009/04/23 06:42:55.9      73      6     57     74     93  84.8  42.2  33938  285.82 0855.02
2009/04/23 06:42:56.0      51     10     57     53     77  78.5  52.1  33938  285.82 0855.02
2009/04/23 06:42:56.1      51     20     72     55     90  68.3  58.5  33938  285.83 0855.02
2009/04/23 06:42:56.2      62     20     82     66    105  71.8  56.9  33940  285.85 0855.02
2009/04/23 06:42:56.3      69     26    101     74    125  69.2  60.5  33938  285.82 0855.02
2009/04/23 06:42:56.4      58     36     99     69    120  58.5  61.5  33940  285.87 0855.02
2009/04/23 06:42:56.5      22     17     63     28     68  52.2  75.0  33954  286.10 0855.02
2009/04/23 06:42:56.6      36     12     84     39     92  71.4  73.5  33954  286.08 0855.02
2009/04/23 06:42:56.7      88    106    130    139    190  39.7  47.9  33920  285.53 0855.02
2009/04/23 06:42:56.8      21     15     32     26     41  54.0  56.4  34022  287.23 0855.02
2009/04/23 06:42:56.9      45     25      2     52     53  60.2   2.9  33998  286.84 0855.02
2009/04/23 06:42:57.0      52    -10     30     54     61 101.5  31.4  33990  286.69 0855.02
2009/04/23 06:42:57.1      24    -36     17     44     47 145.7  21.0  25788  165.04 0855.02
2009/04/23 06:42:57.2     -19    -19     26     27     37 225.0  52.0  25786  165.00 0855.02
2009/04/23 06:42:57.3      33     -6     21     34     39 101.4  34.4  34010  287.03 0855.02
2009/04/23 06:42:57.4      52     46     51     70     86  48.7  39.7  33988  286.67 0855.02
2009/04/23 06:42:57.5     102    123    140    160    212  39.7  45.8  33892  285.06 0855.02
2009/04/23 06:42:57.6     -29    -33     44     45     62 221.4  50.0  25776  164.87 0855.02
2009/04/23 06:42:57.7     -15     -1     50     16     52 265.7  80.7  33974  286.42 0855.02
2009/04/23 06:42:57.8      -7     26     46     27     53 344.9  66.8  33964  286.25 0855.02
2009/04/23 06:42:57.9     -11      3     31     12     33 288.4  81.2  33956  286.12 0855.02
2009/04/23 06:42:58.0       6      6     49      9     49  46.7  90.0  33946  285.97 0855.02
2009/04/23 06:42:58.1      19     12     40     23     46  57.6  66.8  33950  286.02 0855.02
2009/04/23 06:42:58.2      -4     12     13     13     18 341.3  50.1  25768  164.78 0855.02
2009/04/23 06:42:58.3   -1319   2309  -1239   2660   2934 330.3 -31.1  34940  302.95 0855.02
2009/04/23 06:42:58.4       2     36     15     37     39   4.4  24.1  33962  286.22 0855.02
2009/04/23 06:42:58.5       2     37     29     38     47   4.4  41.7  25752  164.58 0855.02
2009/04/23 06:42:58.6       0     51     20     52     55 359.1  21.0  33940  285.85 0855.02
2009/04/23 06:42:58.7      -6     48     23     49     54 352.9  27.1  33936  285.78 0855.03
2009/04/23 06:42:58.8      -9     52     20     53     56 350.2  20.0  33964  286.27 0855.03
2009/04/23 06:42:58.9     -76     62     77     99    125 309.1  41.7  33900  285.19 0855.03
2009/04/23 06:42:59.0      16     41     17     45     48  21.8  20.0  25752  164.56 0855.03
2009/04/23 06:42:59.1  -12161    245   5974  12165  13552 271.2  28.1  31772  250.50 0855.03
2009/04/23 06:42:59.2       0     22      0     23     24   0.9  -1.3  34000  286.86 0855.03
2009/04/23 06:42:59.3      -2     26     -3     27     28 355.5  -7.2  25736  164.36 0855.03
2009/04/23 06:42:59.4       5     23    -28     24     36  13.4 -58.7  34002  286.89 0855.03
2009/04/23 06:42:59.5      -7     26    -25     27     36 344.9 -54.4  34010  287.03 0855.03
2009/04/23 06:42:59.6      -6     21    -49     23     54 343.1 -77.5  33978  286.51 0855.03
2009/04/23 06:42:59.7     -15     41    -12     44     46 339.1 -15.5  34020  287.20 0855.03
2009/04/23 06:42:59.8       6     70    -40     71     81   5.3 -36.3  33910  285.34 0855.03
2009/04/23 06:42:59.9     -32     54    -22     63     67 329.3 -19.6  33902  285.23 0855.03
2009/04/23 06:43:00.0     -14     43    -15     46     48 341.7 -23.8  25682  163.68 0855.03
2009/04/23 06:43:00.1      -7     50     -9     51     52 352.0 -10.3  25682  163.67 0855.03
2009/04/23 06:43:00.2      32     32    -35     46     57  44.2 -46.1  33970  286.35 0855.03
2009/04/23 06:43:00.3      18     -3    -35     19     39 101.5 -73.2  33972  286.41 0855.03
2009/04/23 06:43:00.4    -367     -5    156    368    399 269.2  24.3  33740  282.49 0855.03
2009/04/23 06:43:00.5  -12303      0   5838  12306  13620 270.0  27.3  31946  253.25 0855.03
2009/04/23 06:43:00.6      16    -26    -44     31     53 147.5 -65.9  33966  286.30 0855.03
2009/04/23 06:43:00.7     220    -16   -122    221    252  94.4 -35.8  33878  284.80 0855.03
2009/04/23 06:43:00.8      25    -11    -22     28     35 113.5 -48.1  33980  286.52 0855.03
2009/04/23 06:43:00.9      33    -15    -22     37     43 115.3 -37.9  33956  286.14 0855.03
2009/04/23 06:43:01.0      24    -15    -24     29     37 122.5 -48.2  33958  286.17 0855.03
2009/04/23 06:43:01.1      29     -8    -14     31     34 105.1 -29.5  33956  286.12 0855.03
2009/04/23 06:43:01.2      28    -23    -13     37     39 129.6 -23.3  33930  285.70 0855.03
2009/04/23 06:43:01.3      17    -17    -23     25     33 135.0 -54.4  25766  164.76 0855.03
2009/04/23 06:43:01.4    1366  -2329   1260   2700   2979 149.6  26.9  34948  303.07 0855.03
2009/04/23 06:43:01.5      25    -11     -9     28     29 113.5 -23.8  33960  286.19 0855.03
2009/04/23 06:43:01.6   -5867  10198  -5605  11766  13032 330.1 -31.8  31668  248.85 0855.03
2009/04/23 06:43:01.7      31      3     11     32     34  83.9  18.9  33990  286.71 0855.03
2009/04/23 06:43:01.8      16     35     18     39     42  25.4  26.2  33972  286.41 0855.03
2009/04/23 06:43:01.9      25     36     18     45     48  35.2  21.0  25768  164.77 0855.03
2009/04/23 06:43:02.0      24     33     -3     42     43  36.1  -4.1  33994  286.78 0855.03
2009/04/23 06:43:02.1      15     17    -24     24     33  41.4 -54.5  34000  286.86 0855.03
2009/04/23 06:43:02.2      22    152     18    154    156   8.5   6.7  25506  161.45 0855.03
2009/04/23 06:43:02.3       0      1     -1      2      2 341.5 -23.6  39394  385.10 0855.03
2009/04/23 06:43:02.4      59     97     56    114    127  31.6  28.2  25466  160.94 0855.03
2009/04/23 06:43:02.5       2     -3      2      4      4 147.5  35.5  39374  384.73 0855.03
2009/04/23 06:43:02.6       4     -8      5     10     11 151.0  27.2  39360  384.45 0855.03
2009/04/23 06:43:02.7   -6115 -10628  -5815  12262  13570 209.9 -31.7  32012  254.29 0855.03
2009/04/23 06:43:02.8      10     -3     17     11     20 108.4  62.6  34010  287.03 0855.03
2009/04/23 06:43:02.9       7     -3     19      8     20 115.3  77.1  34034  287.43 0855.03
2009/04/23 06:43:03.0      16      0      4     17     18  90.0  15.3  34026  287.30 0855.03
2009/04/23 06:43:03.1      19    -23     -5     31     32 140.3  -9.3  34012  287.08 0855.03
2009/04/23 06:43:03.2      21    -21     -5     31     32 135.0  -9.3  34022  287.25 0855.03
2009/04/23 06:43:03.3       4    -23      0     24     25 170.2   0.8  33994  286.78 0855.03
2009/04/23 06:43:03.4      24     -9     -2     26     27 111.7  -5.2  33980  286.52 0855.03
2009/04/23 06:43:03.5      40      7      5     41     42  79.4   8.0  33954  286.10 0855.03
2009/04/23 06:43:03.6      75      5     -3     76     77  85.7  -2.2  33940  285.87 0855.03
2009/04/23 06:43:03.7      90     14     18     92     94  81.2  11.6  33940  285.87 0855.03
2009/04/23 06:43:03.8      87     15      7     89     90  80.3   4.9  33938  285.83 0855.03
2009/04/23 06:43:03.9      98     13     30     99    104  82.0  16.8  33942  285.88 0855.03
2009/04/23 06:43:04.0      72    -24     38     76     84 108.6  28.7  33940  285.85 0855.03
2009/04/23 06:43:04.1      54      4     36     55     65  85.7  35.6  33940  285.85 0855.03
2009/04/23 06:43:04.2      41     17     34     45     56  67.4  40.7  33938  285.82 0855.03
2009/04/23 06:43:04.3      44     31     10     54     56  54.9  11.1  33936  285.78 0855.03
2009/04/23 06:43:04.4      37     34     18     51     55  47.8  19.4  33938  285.82 0855.03
2009/04/23 06:43:04.5      40      7      9     41     43  79.4  13.2  33938  285.83 0855.03
2009/04/23 06:43:04.6      28     -3     28     29     40  97.9  50.0  33940  285.85 0855.03
2009/04/23 06:43:04.7      42    -11     28     44     52 105.1  35.5  33940  285.85 0855.02
2009/04/23 06:43:04.8      38     -2     16     39     42  94.4  23.0  33938  285.82 0855.02
2009/04/23 06:43:04.9      21      7     22     23     31  71.4  50.0  33942  285.88 0855.02
2009/04/23 06:43:05.0      24     -4     38     25     45  99.7  64.6  33940  285.85 0855.02
2009/04/23 06:43:05.1      32     -2     47     33     57  94.4  61.5  33940  285.85 0855.02
2009/04/23 06:43:05.2      30     -6     44     31     53 101.5  61.5  33942  285.88 0855.02
2009/04/23 06:43:05.3      33     -2     48     34     58  94.4  61.5  33938  285.83 0855.02
2009/04/23 06:43:05.4      28      3     42     29     51  82.1  62.6  33940  285.85 0855.02
2009/04/23 06:43:05.5      43     35     56     56     79  50.4  50.1  33938  285.83 0855.02
2009/04/23 06:43:05.6      34     51     26     62     67  34.3  23.1  33938  285.82 0855.02
2009/04/23 06:43:05.7      21     51     19     56     60  22.7  19.4  33938  285.83 0855.02
2009/04/23 06:43:05.8      28     59     23     66     71  25.5  19.4  33938  285.82 0855.02
2009/04/23 06:43:05.9      55     39     40     68     78  54.9  33.5  33938  285.82 0855.02
2009/04/23 06:43:06.0      60     38     24     72     76  57.6  18.4  33938  285.82 0855.02
2009/04/23 06:43:06.1      67     37     12     77     78  61.1   9.0  33940  285.87 0855.02
2009/04/23 06:43:06.2      61     39     -1     73     74  57.6  -1.3  33938  285.83 0855.02
2009/04/23 06:43:06.3      51     58      1     78     79  41.4   0.8  33938  285.82 0855.02
2009/04/23 06:43:06.4      51     50      0     72     73  45.9  -0.3  33938  285.82 0855.02
2009/04/23 06:43:06.5      64     60     -3     88     89  46.9  -2.2  33936  285.80 0855.02
2009/04/23 06:43:06.6      66     62      1     91     92  46.9   1.2  33938  285.83 0855.02
2009/04/23 06:43:06.7      55     71     -3     90     91  37.8  -2.2  33934  285.76 0855.03
2009/04/23 06:43:06.8      46     56    -17     73     76  39.7 -13.4  33938  285.82 0855.03
2009/04/23 06:43:06.9      49     59     -4     77     78  39.7  -3.1  33938  285.82 0855.03
2009/04/23 06:43:07.0      50     36      0     62     63  54.0   0.8  33936  285.80 0855.03
2009/04/23 06:43:07.1      57     41     -5     71     72  54.0  -4.1  33936  285.80 0855.03
2009/04/23 06:43:07.2      74     59     11     95     96  51.4   6.9  33936  285.80 0855.03
2009/04/23 06:43:07.3      64     30    -14     71     73  64.6 -11.3  33936  285.78 0855.03
2009/04/23 06:43:07.4      62     29    -22     69     73  64.8 -17.6  33938  285.82 0855.03
2009/04/23 06:43:07.5      83     45    -12     95     96  61.1  -7.3  33934  285.76 0855.03
2009/04/23 06:43:07.6     113     53     24    125    128  64.7  11.0  33934  285.75 0855.03
2009/04/23 06:43:07.7     164     80    -10    183    184  63.8  -3.3  33930  285.70 0855.03
2009/04/23 06:43:07.8     127     90     14    156    157  54.5   5.4  33932  285.73 0855.03
2009/04/23 06:43:07.9     118     81     22    144    146  55.4   8.9  33930  285.68 0855.03
2009/04/23 06:43:08.0     106     99      7    146    147  46.9   2.8  33932  285.71 0855.03
2009/04/23 06:43:08.1     109    124     11    166    167  41.4   3.8  33932  285.71 0855.03
2009/04/23 06:43:08.2      73     97     56    122    134  37.0  27.1  33930  285.70 0855.03
2009/04/23 06:43:08.3      81     78     81    113    139  46.0  39.5  33930  285.70 0855.03
2009/04/23 06:43:08.4     100     79     70    128    145  51.8  31.4  33932  285.71 0855.03
2009/04/23 06:43:08.5     118     86     41    147    153  54.0  15.8  33930  285.68 0855.03
2009/04/23 06:43:08.6      96     69    -19    119    121  54.0  -9.4  33930  285.70 0855.03
2009/04/23 06:43:08.7     158     52     29    167    170  71.8  10.1  33932  285.71 0855.03
2009/04/23 06:43:08.8     162     68     44    176    182  67.2  14.3  33930  285.68 0855.03
2009/04/23 06:43:08.9     141     56     -3    152    153  68.2  -1.3  33932  285.73 0855.03
2009/04/23 06:43:09.0     168     52    -12    176    177  72.7  -4.1  33934  285.75 0855.03
2009/04/23 06:43:09.1     196     65    -35    207    211  71.6  -9.8  33934  285.75 0855.03
2009/04/23 06:43:09.2     167     71    -19    182    184  66.9  -6.2  33932  285.71 0855.03
2009/04/23 06:43:09.3     155     98      9    184    185  57.8   2.8  33934  285.75 0855.03
2009/04/23 06:43:09.4     139    107     42    176    182  52.5  13.5  33932  285.73 0855.03
2009/04/23 06:43:09.5     148     65     57    162    172  66.0  19.4  33938  285.82 0855.03
2009/04/23 06:43:09.6     184     41     29    189    192  77.2   8.8  33934  285.75 0855.03
2009/04/23 06:43:09.7     180     48     51    187    194  74.9  15.3  33928  285.66 0855.03
2009/04/23 06:43:09.8     192     38     40    196    201  78.6  11.6  33930  285.70 0855.03
2009/04/23 06:43:09.9     185     35     49    189    196  79.2  14.5  33934  285.75 0855.03
2009/04/23 06:43:10.0     181     39     34    186    190  77.8  10.3  33930  285.70 0855.03
2009/04/23 06:43:10.1     173     45     32    179    182  75.4  10.3  33932  285.71 0855.03
2009/04/23 06:43:10.2     166     49      8    174    175  73.4   2.8  33932  285.73 0855.03
2009/04/23 06:43:10.3     168     34     23    172    174  78.6   7.8  33932  285.71 0855.03
2009/04/23 06:43:10.4     168     49     62    176    186  73.6  20.2  33930  285.68 0855.03
2009/04/23 06:43:10.5     143     33     80    147    167  76.7  30.6  33928  285.65 0855.03
2009/04/23 06:43:10.6     191     15     46    192    198  85.4  13.7  33924  285.58 0855.03
2009/04/23 06:43:10.7     103     41    132    111    172  68.3  55.8  33926  285.63 0855.03
2009/04/23 06:43:10.8     139     37    121    144    188  75.0  44.1  33924  285.60 0855.03
2009/04/23 06:43:10.9     171     10     83    172    190  86.5  27.3  33934  285.75 0855.03
2009/04/23 06:43:11.0     175     13     34    176    180  85.7  11.1  33934  285.76 0855.03
2009/04/23 06:43:11.1     138     20     49    140    149  81.6  19.4  33932  285.73 0855.03
2009/04/23 06:43:11.2     107      3      5    108    109  87.9   2.9  33934  285.75 0855.03
2009/04/23 06:43:11.3      93     18     37     95    101  78.5  22.5  33930  285.68 0855.03
2009/04/23 06:43:11.4     145     47     52    153    162  71.8  18.9  33930  285.68 0855.03
2009/04/23 06:43:11.5     145     39     50    151    160  74.9  18.6  33932  285.71 0855.03
2009/04/23 06:43:11.6     152     13     73    153    169  84.8  27.3  33930  285.70 0855.03
2009/04/23 06:43:11.7     138      8     31    139    143  86.5  12.6  33934  285.75 0855.03
2009/04/23 06:43:11.8     133      2     13    134    135  89.1   5.9  33930  285.70 0855.03
2009/04/23 06:43:11.9     121     -1     -6    122    123  90.8  -3.1  33932  285.73 0855.03
2009/04/23 06:43:12.0     101     30    -21    106    109  73.2 -11.5  33936  285.78 0855.03
2009/04/23 06:43:12.1      62     24    -18     67     70  68.2 -15.5  33936  285.80 0855.03
2009/04/23 06:43:12.2      52     33    -34     62     70  57.6 -35.8  33938  285.82 0855.03
2009/04/23 06:43:12.3      55      5    -16     56     59  84.8 -16.6  33934  285.76 0855.03
2009/04/23 06:43:12.4      43      3    -13     44     46  84.8 -16.6  33936  285.78 0855.03
2009/04/23 06:43:12.5      42      0     -1     43     44  90.0  -2.2  33936  285.78 0855.03
2009/04/23 06:43:12.6      34     15    -13     38     41  65.6 -18.7  33936  285.78 0855.03
2009/04/23 06:43:12.7      27     32    -13     43     46  40.5 -17.6  33936  285.80 0855.04
2009/04/23 06:43:12.8      29     21     -4     37     38  54.0  -7.2  33936  285.78 0855.04
2009/04/23 06:43:12.9      19     -4    -19     20     27 103.3 -56.4  33936  285.78 0855.04
2009/04/23 06:43:13.0      25    -19    -15     32     35 127.8 -31.6  33934  285.75 0855.04
2009/04/23 06:43:13.1      12    -38    -26     40     47 162.2 -40.0  33932  285.71 0855.04
2009/04/23 06:43:13.2      22    -47    -31     53     61 154.6 -37.9  33934  285.76 0855.04
2009/04/23 06:43:13.3      17    -54    -34     57     66 161.7 -38.8  33934  285.76 0855.04
2009/04/23 06:43:13.4      26    -55    -26     62     67 154.5 -27.5  33934  285.76 0855.04
2009/04/23 06:43:13.5      27    -70    -22     76     80 159.1 -16.0  33938  285.82 0855.04
2009/04/23 06:43:13.6      41    -64    -21     77     79 147.5 -20.2  33938  285.83 0855.04
2009/04/23 06:43:13.7      42    -60    -25     74     78 144.8 -23.6  33936  285.78 0855.04
2009/04/23 06:43:13.9      40    -69    -16     80     82 149.7 -11.9  33942  285.88 0855.04
2009/04/23 06:43:14.0      24    -62     -1     67     68 158.2  -1.3  33942  285.88 0855.04
2009/04/23 06:43:14.1      25    -45    -14     52     53 150.1 -20.7  33940  285.87 0855.04
2009/04/23 06:43:14.2      21    -24     -9     33     35 138.6 -15.5  33942  285.88 0855.04
2009/04/23 06:43:14.3      24    -36      9     44     46 145.7  12.2  33942  285.90 0855.04
2009/04/23 06:43:14.4      31    -36     16     48     51 139.5  19.2  33940  285.87 0855.04
2009/04/23 06:43:14.5      24    -35      0     43     44 145.7   0.8  33938  285.82 0855.04
2009/04/23 06:43:14.6      19    -52    -20     56     60 159.1 -19.7  33940  285.87 0855.04
2009/04/23 06:43:14.7      55    -61    -24     83     87 138.1 -16.6  33938  285.82 0855.04
2009/04/23 06:43:14.8      49    -52    -14     72     74 136.8 -11.3  33936  285.80 0855.04
2009/04/23 06:43:14.9      50    -69     -1     86     87 143.9  -1.3  33936  285.78 0855.04
2009/04/23 06:43:15.0      45    -77     -4     90     91 149.7  -3.1  33936  285.78 0855.04
2009/04/23 06:43:15.1      43    -81     12     92     93 151.9   7.5  33934  285.76 0855.04
2009/04/23 06:43:15.2      16   -107    -21    109    112 171.5 -10.9  33936  285.78 0855.04
2009/04/23 06:43:15.3      24    -94    -28     98    102 165.3 -16.0  33938  285.82 0855.04
2009/04/23 06:43:15.4      28   -103    -21    107    110 164.4 -11.3  33936  285.80 0855.04
2009/04/23 06:43:15.5      33   -100    -15    106    108 161.3  -8.2  33936  285.80 0855.04
2009/04/23 06:43:15.6      30   -108    -14    113    114 164.4  -7.2  33934  285.76 0855.04
2009/04/23 06:43:15.7      23    -98    -12    101    102 166.6  -7.3  33936  285.80 0855.04
2009/04/23 06:43:15.8      59   -104      6    120    121 150.1   3.3  33936  285.80 0855.04
2009/04/23 06:43:15.9      44    -94      7    105    106 154.7   3.8  33936  285.80 0855.04
2009/04/23 06:43:16.0      28    -94      3     99    100 163.1   1.8  33936  285.78 0855.04
2009/04/23 06:43:16.1      24   -109    -12    112    113 167.1  -6.2  33936  285.80 0855.04
2009/04/23 06:43:16.2      42   -125     -1    132    133 161.3  -0.7  33936  285.78 0855.04
2009/04/23 06:43:16.3      51   -119     -2    130    131 156.8  -1.3  33936  285.80 0855.04
2009/04/23 06:43:16.4      47   -113     -4    123    124 157.3  -2.2  33938  285.82 0855.04
2009/04/23 06:43:16.5      32   -114     -4    119    120 164.0  -2.2  33938  285.82 0855.04
2009/04/23 06:43:16.6      36   -126     -2    132    133 164.0  -1.3  33936  285.80 0855.04
2009/04/23 06:43:16.7      43   -115      6    123    124 159.5   2.8  33938  285.82 0855.04
2009/04/23 06:43:16.8      50   -114      1    125    126 156.4   0.8  33938  285.83 0855.04
2009/04/23 06:43:16.9      32   -105    -10    110    111 163.1  -5.2  33938  285.82 0855.04
2009/04/23 06:43:17.0      34   -102     -7    108    109 161.3  -4.1  33934  285.76 0855.04
2009/04/23 06:43:17.1      40   -109     -4    117    118 159.5  -2.2  33934  285.76 0855.04
2009/04/23 06:43:17.2      33   -118      6    123    124 164.4   2.9  33936  285.80 0855.04
2009/04/23 06:43:17.3       1   -120      3    121    122 179.5   1.8  33934  285.76 0855.04
2009/04/23 06:43:17.4      -4   -131     -9    132    133 181.8  -4.1  33932  285.71 0855.04
2009/04/23 06:43:17.5      -1   -125     -5    126    127 180.5  -2.6  33932  285.73 0855.04
2009/04/23 06:43:17.6      29   -132     -3    136    137 167.5  -1.3  33932  285.73 0855.04
2009/04/23 06:43:17.7      49   -125      5    135    136 158.6   2.3  33934  285.76 0855.04
2009/04/23 06:43:17.8      36   -126     -9    132    133 164.0  -4.1  33932  285.71 0855.04
2009/04/23 06:43:17.9      57   -144    -17    156    158 158.2  -6.5  33930  285.70 0855.04
2009/04/23 06:43:18.0      89   -115     -5    146    147 142.2  -2.2  33930  285.70 0855.04
2009/04/23 06:43:18.1     132    -74     52    152    161 119.3  19.2  33932  285.71 0855.04
2009/04/23 06:43:18.2     108    -83     33    137    142 127.3  13.7  33928  285.66 0855.04
2009/04/23 06:43:18.3      82    -48     36     96    102 120.7  21.5  33934  285.75 0855.04
2009/04/23 06:43:18.4      57     22      1     62     63  68.3   1.8  33934  285.75 0855.04
2009/04/23 06:43:18.5      -5     70    -20     71     73 355.5 -20.7  33932  285.73 0855.04
2009/04/23 06:43:18.6     -13     98    -56     99    113 352.4 -36.3  33936  285.80 0855.04
2009/04/23 06:43:18.7    -121     57    -50    135    143 295.4 -25.4  33942  285.90 0855.04
2009/04/23 06:43:18.8     -97     61    -72    115    135 302.4 -39.9  33940  285.87 0855.04
2009/04/23 06:43:18.9     -90    102    -37    137    143 318.5 -15.4  33948  286.00 0855.04
2009/04/23 06:43:19.0    -113     49    -40    124    131 293.5 -18.1  33942  285.88 0855.04
2009/04/23 06:43:19.1     -92     58    -37    110    116 302.4 -23.6  33942  285.90 0855.04
2009/04/23 06:43:19.2    -105     32    -55    110    122 287.3 -32.6  33940  285.85 0855.04
2009/04/23 06:43:19.3     -72     24    -50     77     91 288.6 -40.0  33940  285.85 0855.04
2009/04/23 06:43:19.4     -48     19    -65     52     83 291.7 -61.3  33938  285.82 0855.04
2009/04/23 06:43:19.5     -42     26    -35     50     61 302.4 -43.0  33934  285.76 0855.04
2009/04/23 06:43:19.6     -46     34    -46     58     74 306.9 -48.1  33932  285.73 0855.04
2009/04/23 06:43:19.7     -78     56    -23     97    100 306.0 -13.4  33938  285.82 0855.04
2009/04/23 06:43:19.8    -110     60    -41    126    133 298.8 -18.1  33934  285.75 0855.04
2009/04/23 06:43:19.9    -102     90    -27    137    140 311.3 -11.3  33932  285.71 0855.04
2009/04/23 06:43:20.0    -110     70    -58    131    143 302.4 -29.5  33930  285.70 0855.04
2009/04/23 06:43:20.1    -139     51    -19    149    151 290.4  -7.3  33930  285.70 0855.04
2009/04/23 06:43:20.2    -113     30     -2    118    119 285.1  -1.3  33932  285.71 0855.04
2009/04/23 06:43:20.3    -129     18     13    131    132 277.9   5.9  33938  285.82 0855.04
2009/04/23 06:43:20.4     -95     19     21     97    100 281.4  12.6  33940  285.85 0855.04
2009/04/23 06:43:20.5    -108      0     23    109    112 270.0  12.2  33942  285.90 0855.04
2009/04/23 06:43:20.6    -103     -6     29    104    109 266.5  15.8  33940  285.85 0855.04
2009/04/23 06:43:20.7     -87     14     14     89     91 279.2   9.0  33938  285.82 0855.04
2009/04/23 06:43:20.8    -111     21    -14    114    115 281.0  -7.2  33938  285.83 0855.04
2009/04/23 06:43:20.9    -122     13    -20    123    125 276.1  -9.3  33932  285.73 0855.04
2009/04/23 06:43:21.0    -118     11     -4    119    120 275.7  -2.2  33930  285.70 0855.04
2009/04/23 06:43:21.1    -109     -2    -26    110    114 268.7 -13.4  33928  285.65 0855.04
2009/04/23 06:43:21.2    -116     -1    -38    117    123 269.1 -23.3  33930  285.70 0855.04
2009/04/23 06:43:21.3    -136    -10    -64    137    151 265.6 -31.5  33930  285.68 0855.04
2009/04/23 06:43:21.4    -137     -1     18    138    140 269.2   7.5  33928  285.65 0855.04
2009/04/23 06:43:21.5    -129      3    -11    130    131 271.7  -5.2  33924  285.58 0855.04
2009/04/23 06:43:21.6    -131     17      0    133    134 277.5  -0.3  33924  285.58 0855.04
2009/04/23 06:43:21.7    -136    -54    -43    147    153 248.2 -21.7  33926  285.61 0855.04
2009/04/23 06:43:21.8     -96   -110    -50    147    156 221.0 -19.1  33924  285.60 0855.04
2009/04/23 06:43:21.9     -90   -102    -41    137    143 221.5 -21.7  33926  285.63 0855.04
2009/04/23 06:43:22.0     -80    -68    -31    106    110 229.6 -21.2  33928  285.66 0855.04
2009/04/23 06:43:22.1     -97    -93     -5    135    136 226.0  -2.2  33924  285.60 0855.04
2009/04/23 06:43:22.2    -118    -86    -29    147    150 234.0 -11.3  33922  285.56 0855.04
2009/04/23 06:43:22.3    -102    -90    -27    137    140 228.7 -11.3  33924  285.58 0855.04
2009/04/23 06:43:22.4     -95    -95      1    135    136 225.1   0.8  33920  285.53 0855.04
2009/04/23 06:43:22.5    -108    -68     13    128    129 237.6   5.9  33926  285.63 0855.04
2009/04/23 06:43:22.6     -90    -54    -36    106    111 238.9 -23.3  33924  285.58 0855.04
2009/04/23 06:43:22.7    -104    -27    -52    108    119 255.0 -31.7  33920  285.51 0855.04
2009/04/23 06:43:22.8    -110     16    -20    112    114 278.4 -10.3  33926  285.63 0855.04
2009/04/23 06:43:22.9     -79     30    -33     85     91 290.8 -26.4  33924  285.60 0855.04
2009/04/23 06:43:23.0     -69     19    -29     72     77 285.9 -27.4  33926  285.61 0855.04
2009/04/23 06:43:23.1     -43    -21     18     49     52 243.8  20.0  33928  285.65 0855.04
2009/04/23 06:43:23.2     -44    -44      0     63     64 225.0  -0.3  33926  285.63 0855.04
2009/04/23 06:43:23.3     -69    -32    -25     77     81 244.8 -18.1  33928  285.66 0855.04
2009/04/23 06:43:23.4     -62     -8    -20     63     66 262.0 -23.8  33926  285.63 0855.04
2009/04/23 06:43:23.5     -74    -25      8     79     80 251.4   5.9  33928  285.65 0855.04
2009/04/23 06:43:23.6     -35    -32      9     48     49 227.8  11.1  33926  285.63 0855.04
2009/04/23 06:43:23.7     -26    -38     12     47     49 214.3  15.3  33926  285.61 0855.04
2009/04/23 06:43:23.8     -19    -33     13     39     42 209.9  18.4  33928  285.66 0855.04
2009/04/23 06:43:23.9      -1    -42      2     43     44 181.8   2.9  33928  285.66 0855.04
2009/04/23 06:43:24.0      -9    -38     11     40     42 193.4  16.3  33930  285.68 0855.04
2009/04/23 06:43:24.1     -56    -54     34     78     85 225.9  25.1  33930  285.68 0855.04
2009/04/23 06:43:24.2     -31    -95     41    101    109 198.5  23.0  33930  285.68 0855.04
2009/04/23 06:43:24.3     -26    -81     35     86     92 197.8  23.0  33928  285.65 0855.04
2009/04/23 06:43:24.4     -19    -67     24     70     75 196.0  19.4  33926  285.61 0855.04
2009/04/23 06:43:24.5     -21    -65     13     69     71 197.8  11.0  33928  285.66 0855.04
2009/04/23 06:43:24.6       0    -56     10     57     58 180.9  10.1  33926  285.63 0855.04
2009/04/23 06:43:24.7       4    -56     12     57     59 175.5  12.2  33928  285.66 0855.04
2009/04/23 06:43:24.8      19    -44     10     49     51 156.4  12.2  33928  285.65 0855.04
2009/04/23 06:43:24.9       0    -20      7     21     23 180.9  19.4  33930  285.68 0855.04
2009/04/23 06:43:25.0     -23    -15     -3     28     29 237.5  -7.2  33930  285.68 0855.04
2009/04/23 06:43:25.1     -37    -16    -16     41     44 246.5 -25.4  33926  285.63 0855.04
2009/04/23 06:43:25.2     -55    -23    -40     60     72 247.4 -40.9  33926  285.61 0855.04
2009/04/23 06:43:25.3     -35      0    -35     36     50 270.0 -55.5  33928  285.65 0855.04
2009/04/23 06:43:25.4     -41      0     25     42     48 270.0  34.4  33926  285.61 0855.04
2009/04/23 06:43:25.5     -47     -2     20     48     52 266.5  24.1  33924  285.58 0855.04
2009/04/23 06:43:25.6     -70    -10      8     71     72 261.2   6.9  33914  285.41 0855.04
2009/04/23 06:43:25.7     -65    -10     -1     66     67 261.2  -1.2  33914  285.41 0855.04
2009/04/23 06:43:25.8     -66      4     -8     67     68 274.3  -7.3  33914  285.41 0855.03
2009/04/23 06:43:25.9     -67      0    -18     68     71 270.0 -15.5  33918  285.48 0855.03
2009/04/23 06:43:26.0     -69      2      2     70     71 271.7   1.8  33916  285.44 0855.03
2009/04/23 06:43:26.1     -76     -3    -14     77     79 267.4 -10.3  33926  285.61 0855.03
2009/04/23 06:43:26.2     -74     -5     -9     75     76 265.6  -7.3  33922  285.56 0855.03
2009/04/23 06:43:26.3     -66      5     -8     67     68 274.4  -7.3  33920  285.51 0855.03
2009/04/23 06:43:26.4     -57      0     -1     58     59 270.0  -1.3  33920  285.53 0855.03
2009/04/23 06:43:26.5     -52      8      3     53     54 278.8   3.8  33920  285.53 0855.03
2009/04/23 06:43:26.6     -43      2     10     44     46 273.5  13.2  33918  285.48 0855.03
2009/04/23 06:43:26.7     -18      2      0     19     20 277.9  -2.2  33918  285.50 0855.03
2009/04/23 06:43:26.8     -26     17     -9     32     34 304.2 -15.5  33922  285.56 0855.03
2009/04/23 06:43:26.9     -38     53      3     66     67 324.8   2.9  33926  285.61 0855.03
2009/04/23 06:43:27.0     -32     54    -13     63     65 329.3 -12.4  33926  285.63 0855.03
2009/04/23 06:43:27.1     -36     46    -28     59     65 322.2 -31.6  33926  285.63 0855.03
2009/04/23 06:43:27.2     -45     37    -37     59     69 309.6 -39.9  33930  285.68 0855.03
2009/04/23 06:43:27.3     -50     25    -43     57     71 297.1 -46.1  33928  285.65 0855.03
2009/04/23 06:43:27.4     -35     31    -42     47     63 311.3 -52.3  33926  285.63 0855.03
2009/04/23 06:43:27.5      -2     27    -22     28     35 355.5 -48.1  33926  285.61 0855.03
2009/04/23 06:43:27.6      22     55     22     60     63  21.8  20.0  33922  285.55 0855.03
2009/04/23 06:43:27.7      41     64     12     77     78  32.6   9.0  33924  285.60 0855.03
2009/04/23 06:43:27.8      40     54      3     68     69  37.0   2.9  33926  285.63 0855.03
2009/04/23 06:43:27.9      33     52    -13     62     64  32.5 -12.4  33928  285.66 0855.03
2009/04/23 06:43:28.0      43     52    -18     68     71  39.7 -15.5  33928  285.66 0855.03
2009/04/23 06:43:28.1      38     18     -8     43     44  63.8 -11.3  33928  285.65 0855.03
2009/04/23 06:43:28.2      57     23    -19     62     64  67.4 -22.8  33928  285.66 0855.03
2009/04/23 06:43:28.3      39     22    -33     45     55  60.2 -44.1  33926  285.63 0855.03
2009/04/23 06:43:28.4      22     17    -30     29     41  52.2 -54.5  33926  285.61 0855.03
2009/04/23 06:43:28.5      15     16    -26     22     34  43.2 -58.7  33926  285.61 0855.03
2009/04/23 06:43:28.6      23     19    -29     31     42  50.5 -53.4  33924  285.58 0855.03
2009/04/23 06:43:28.7      50     14    -17     52     54  74.1 -23.8  33926  285.61 0855.03
2009/04/23 06:43:28.8      45     24    -21     52     56  62.0 -26.4  33924  285.60 0855.03
2009/04/23 06:43:28.9      41     17    -13     45     47  67.4 -16.6  33924  285.58 0855.03
2009/04/23 06:43:29.0      46     25     -7     53     54  61.1  -8.2  33924  285.58 0855.03
2009/04/23 06:43:29.1      37     37    -16     53     55  45.1 -22.8  33926  285.61 0855.03
2009/04/23 06:43:29.2      32     54     -4     63     64  30.7  -4.1  33926  285.63 0855.03
2009/04/23 06:43:29.3      -5     50    -17     51     54 353.8 -18.7  33928  285.66 0855.03
2009/04/23 06:43:29.4     -18     53    -24     57     61 341.3 -27.5  33930  285.68 0855.03
2009/04/23 06:43:29.5     -13     54    -27     56     62 345.7 -31.6  33932  285.71 0855.03
2009/04/23 06:43:29.6      -4     62    -20     63     66 355.5 -23.8  33930  285.68 0855.03
2009/04/23 06:43:29.7     -17     53    -13     56     58 341.3 -13.4  33930  285.68 0855.03
2009/04/23 06:43:29.8     -17     63    -13     66     68 344.8 -11.3  33926  285.63 0855.03
2009/04/23 06:43:29.9     -19     56    -24     60     64 341.3 -27.4  33928  285.66 0855.03
2009/04/23 06:43:30.0     -20     77    -27     80     84 344.9 -23.6  33930  285.68 0855.03
2009/04/23 06:43:30.1       6     81    -14     82     84   4.5  -9.8  33926  285.63 0855.03
2009/04/23 06:43:30.2      19     82      4     85     86  13.4   2.9  33926  285.63 0855.03
2009/04/23 06:43:30.3      -2     88     37     89     96 358.2  23.6  33924  285.58 0855.03
2009/04/23 06:43:30.4      -6     78     53     79     95 355.5  36.5  33928  285.66 0855.03
2009/04/23 06:43:30.5     -18     54     61     57     83 341.5  51.6  33926  285.61 0855.03
2009/04/23 06:43:30.6     -43     68     37     81     89 327.4  26.2  33926  285.63 0855.03
2009/04/23 06:43:30.7     -17     53      5     56     57 341.3   5.9  33926  285.61 0855.03
2009/04/23 06:43:30.8     -13     45     33     48     58 343.1  36.5  33924  285.58 0855.03
2009/04/23 06:43:30.9      -4     55     31     56     64 355.5  31.4  33928  285.65 0855.03
2009/04/23 06:43:31.0      -6     70     33     71     78 354.7  26.6  33926  285.63 0855.03
2009/04/23 06:43:31.1     -14     78     26     80     85 349.3  17.9  33924  285.60 0855.03
2009/04/23 06:43:31.2      -7     98     35     99    106 355.6  19.4  33926  285.63 0855.03
2009/04/23 06:43:31.3       0     92     27     93     97   0.0  16.3  33926  285.61 0855.03
2009/04/23 06:43:31.4     -15     76     26     78     83 348.4  18.9  33926  285.63 0855.03
2009/04/23 06:43:31.5     -18     85     21     87     90 348.0  13.7  33924  285.60 0855.03
2009/04/23 06:43:31.6       0     49     33     50     59 359.1  36.5  33926  285.63 0855.03
2009/04/23 06:43:31.7     -13     54     33     56     65 345.7  33.5  33926  285.63 0855.03
2009/04/23 06:43:31.8     -14     32     39     35     52 336.4  53.3  33924  285.60 0855.04
2009/04/23 06:43:31.9      -8     22     44     24     50 340.0  68.8  33924  285.60 0855.04
2009/04/23 06:43:32.0      -8     14     37     17     40 331.0  74.0  33926  285.63 0855.04
2009/04/23 06:43:32.1     -14      3     38     15     40 285.1  78.2  33926  285.63 0855.04
2009/04/23 06:43:32.2     -14     15     26     21     33 316.8  56.4  33926  285.61 0855.04
2009/04/23 06:43:32.3     -23      0     17     24     29 270.0  37.6  33926  285.61 0855.04
2009/04/23 06:43:32.4     -23      0     17     24     29 270.0  37.6  33926  285.61 0855.04
2009/04/23 06:43:32.5     -23      0     17     24     29 270.0  37.6  33926  285.61 0855.04
2009/04/23 06:43:32.6     -22     11     27     25     36 297.1  50.1  33922  285.56 0855.04
2009/04/23 06:43:32.7     -21     15     31     27     41 306.0  54.3  33924  285.60 0855.04
2009/04/23 06:43:32.8     -31      0     35     32     47 270.0  52.2  33926  285.61 0855.04
2009/04/23 06:43:33.0     -32    -16     35     37     50 242.9  49.0  33926  285.61 0855.04
2009/04/23 06:43:33.0     -31      0     22     32     38 269.2  37.6  33924  285.60 0855.04
2009/04/23 06:43:33.1      -3      0     22      4     22 270.0  90.0  33926  285.61 0855.04
2009/04/23 06:43:33.2       0    -15     19     16     24 179.1  54.3  33926  285.63 0855.04
2009/04/23 06:43:33.3      17    -22     17     29     33 142.2  33.5  33928  285.66 0855.04
2009/04/23 06:43:33.4      10    -42     17     44     47 166.6  21.0  33928  285.66 0855.04
2009/04/23 06:43:33.5      15    -57     15     60     62 164.9  14.3  33930  285.68 0855.04
2009/04/23 06:43:33.6      13    -67    -19     69     72 168.4 -15.4  33932  285.71 0855.04
2009/04/23 06:43:33.7       0    -80    -11     81     82 180.5  -8.2  33934  285.76 0855.04
2009/04/23 06:43:33.8       7    -53     -1     54     55 172.0  -1.3  33932  285.73 0855.04
2009/04/23 06:43:33.9      13    -45     13     48     50 163.1  15.3  33934  285.76 0855.04
2009/04/23 06:43:34.0     -13    -28     39     32     50 205.5  56.4  33934  285.75 0855.04
2009/04/23 06:43:34.1     -54    -34     45     64     78 237.6  38.6  33934  285.75 0855.04
2009/04/23 06:43:34.2     -54    -51     53     75     91 226.8  39.1  33934  285.75 0855.04
2009/04/23 06:43:34.3     -20    -77     43     80     90 195.1  30.3  33936  285.78 0855.04
2009/04/23 06:43:34.4     -64   -101     44    120    127 212.5  21.0  33934  285.76 0855.04
2009/04/23 06:43:34.5     -61   -103     24    120    123 210.7  11.6  33936  285.78 0855.04
2009/04/23 06:43:34.6     -50    -86     15    100    102 210.3   8.5  33938  285.82 0855.04
2009/04/23 06:43:34.7     -44    -80     18     92     94 209.0  11.1  33938  285.82 0855.04
2009/04/23 06:43:34.8     -61    -62      9     88     89 224.7   5.9  33936  285.80 0855.04
2009/04/23 06:43:34.9     -52    -91     -2    106    107 209.9  -1.3  33938  285.82 0855.04
2009/04/23 06:43:35.0     -64   -102    -13    121    122 212.5  -6.2  33934  285.76 0855.04
2009/04/23 06:43:35.1     -78   -106      4    132    133 216.5   1.8  33928  285.65 0855.04
2009/04/23 06:43:35.2     -53    -97    -17    111    113 208.9  -8.8  33932  285.73 0855.04
2009/04/23 06:43:35.3     -43   -115    -21    123    125 200.5  -9.8  33934  285.75 0855.04
2009/04/23 06:43:35.4     -14   -135     29    136    140 186.2  12.2  33928  285.66 0855.04
2009/04/23 06:43:35.5     -32   -124     20    129    131 194.7   8.9  33934  285.76 0855.04
2009/04/23 06:43:35.6     -37   -102     29    109    113 200.0  15.2  33932  285.73 0855.04
2009/04/23 06:43:35.7     -34    -83     33     90     95 202.7  20.4  33932  285.73 0855.04
2009/04/23 06:43:35.8     -31    -66      3     74     75 205.5   2.8  33932  285.73 0855.04
2009/04/23 06:43:35.9     -12    -54     -2     56     57 192.5  -2.2  33932  285.71 0855.04
2009/04/23 06:43:36.0     -14    -42     24     45     51 199.2  30.3  33930  285.68 0855.04
2009/04/23 06:43:36.1       0    -21     32     22     38 180.9  62.6  33930  285.70 0855.04
2009/04/23 06:43:36.2       0     -7     33      8     33 182.7  86.9  33930  285.70 0855.04
2009/04/23 06:43:36.3      -2     -7     35      8     35 198.5  89.0  33932  285.71 0855.04
2009/04/23 06:43:36.4       5    -11     32     13     34 154.6  79.2  33936  285.80 0855.04
2009/04/23 06:43:36.5      -5    -16     34     17     38 198.7  72.8  33934  285.75 0855.04
2009/04/23 06:43:36.6     -11    -16     33     20     38 216.1  64.7  33930  285.68 0855.04
2009/04/23 06:43:36.7      -8    -22     37     24     44 200.0  63.6  33930  285.68 0855.04
2009/04/23 06:43:36.8      12    -31     32     34     46 158.2  50.0  33930  285.70 0855.05
2009/04/23 06:43:36.9       4    -39     36     40     53 172.9  47.9  33926  285.63 0855.05
2009/04/23 06:43:37.0       9    -27     42     29     51 161.3  62.6  33928  285.66 0855.05
2009/04/23 06:43:37.1       7    -22     35     24     42 161.7  62.6  33926  285.61 0855.05
2009/04/23 06:43:37.2       0    -48     41     49     63 180.0  44.8  33926  285.63 0855.05
2009/04/23 06:43:37.3      -2    -50     50     51     71 182.7  50.0  33924  285.58 0855.05
2009/04/23 06:43:37.4      -6    -42     53     43     68 188.9  56.4  33928  285.66 0855.05
2009/04/23 06:43:37.5     -13    -71     47     73     86 190.7  35.6  33940  285.85 0855.05
2009/04/23 06:43:37.6     -12    -61     33     63     71 191.6  30.3  33940  285.85 0855.05
2009/04/23 06:43:37.7     -25    -53     20     59     63 205.4  19.4  33940  285.85 0855.05
2009/04/23 06:43:37.8     -19    -43     26     48     54 203.6  31.4  33944  285.92 0855.05
2009/04/23 06:43:37.9       0    -44     45     45     63 180.9  50.1  33946  285.95 0855.05
2009/04/23 06:43:38.0      -4    -49     38     50     62 185.3  41.7  33946  285.97 0855.05
2009/04/23 06:43:38.1      -1    -56     11     57     59 181.8  11.0  33942  285.90 0855.05
2009/04/23 06:43:38.2       4    -52      2     53     54 175.6   2.8  33940  285.87 0855.05
2009/04/23 06:43:38.3      17    -46     23     50     55 160.0  27.1  33946  285.95 0855.05
2009/04/23 06:43:38.4      11    -43     24     45     51 165.7  30.3  33942  285.90 0855.05
2009/04/23 06:43:38.5      12    -35     25     38     45 161.3  35.6  33940  285.87 0855.05
2009/04/23 06:43:38.6      12    -38     19     40     44 162.2  26.2  33936  285.80 0855.05
2009/04/23 06:43:38.7       8    -30     28     32     42 164.9  46.9  33942  285.88 0855.05
2009/04/23 06:43:38.8      16    -38     31     42     52 156.4  40.7  33944  285.93 0855.05
2009/04/23 06:43:38.9      36    -37     21     52     56 135.9  22.0  33944  285.93 0855.05
2009/04/23 06:43:39.0      26    -26    -11     38     40 134.9 -16.6  33944  285.92 0855.05
2009/04/23 06:43:39.1       3    -29     16     30     34 173.8  29.3  33942  285.90 0855.05
2009/04/23 06:43:39.2     -17    -56     46     59     74 196.9  42.7  33946  285.95 0855.05
2009/04/23 06:43:39.3     -30    -48     12     57     59 212.6  12.2  33940  285.87 0855.05
2009/04/23 06:43:39.4     -44    -38      7     59     60 228.7   6.9  33934  285.76 0855.05
2009/04/23 06:43:39.5     -57    -51      9     77     78 227.8   6.9  33932  285.73 0855.05
2009/04/23 06:43:39.6     -45    -68     21     82     85 213.4  14.7  33934  285.76 0855.05
2009/04/23 06:43:39.7     -31    -95      5    101    102 198.5   2.9  33934  285.75 0855.05
2009/04/23 06:43:39.8     -16   -107    -30    109    114 188.5 -15.5  33936  285.80 0855.05
2009/04/23 06:43:39.9     -22   -114    -20    117    119 191.1  -9.8  33936  285.78 0855.05
2009/04/23 06:43:40.0     -24    -91    -13     95     97 195.1  -8.2  33942  285.90 0855.05
2009/04/23 06:43:40.2     -16    -54     20     57     61 196.9  19.4  33946  285.95 0855.05
2009/04/23 06:43:40.2     -19    -58     33     62     70 198.3  30.3  33952  286.05 0855.05
2009/04/23 06:43:40.3     -19    -58     40     62     73 198.5  35.6  33956  286.14 0855.05
2009/04/23 06:43:40.5     -18    -49     46     53     70 200.9  44.8  33952  286.05 0855.05
2009/04/23 06:43:40.5     -14    -54     53     56     77 195.1  49.0  33944  285.93 0855.05
2009/04/23 06:43:40.6     -17    -43     62     47     77 201.8  59.4  33936  285.80 0855.05
2009/04/23 06:43:40.8     -19    -37     61     42     74 208.1  63.6  33934  285.76 0855.05
2009/04/23 06:43:40.8      -5    -46     54     47     71 187.1  55.4  33936  285.78 0855.05
2009/04/23 06:43:40.9      -6    -45     43     46     62 188.0  48.0  33940  285.87 0855.05
2009/04/23 06:43:41.1      17    -29     39     34     51 149.3  54.3  33936  285.78 0855.05
2009/04/23 06:43:41.1      32    -51     46     61     76 147.4  40.7  33934  285.75 0855.05
2009/04/23 06:43:41.2      14    -42     55     45     71 160.8  56.4  33930  285.68 0855.05
2009/04/23 06:43:41.4      11    -43     44     45     62 165.7  50.0  33928  285.66 0855.05
2009/04/23 06:43:41.5      16    -29     43     34     54 151.0  57.5  33932  285.71 0855.05
2009/04/23 06:43:41.6      18    -30     37     36     51 149.3  50.1  33926  285.63 0855.05
2009/04/23 06:43:41.7      49    -15     48     52     70 107.7  47.9  33928  285.66 0855.05
2009/04/23 06:43:41.8      77    -15     61     79     99 101.5  41.7  33926  285.63 0855.05
2009/04/23 06:43:41.9      87    -35     62     94    112 112.2  36.0  33928  285.66 0855.05
2009/04/23 06:43:42.0      89    -59     47    107    116 123.7  25.1  33930  285.70 0855.05
2009/04/23 06:43:42.1      96    -85     52    129    139 131.4  23.0  33940  285.85 0855.05
2009/04/23 06:43:42.2     117    -58     67    131    147 116.6  29.2  33934  285.75 0855.05
2009/04/23 06:43:42.3     114    -41     55    122    133 110.0  25.7  33942  285.90 0855.05
2009/04/23 06:43:42.4      99    -51     54    112    124 117.1  27.8  33944  285.93 0855.05
2009/04/23 06:43:42.5      49    -46     41     68     79 133.1  34.0  33950  286.02 0855.05
2009/04/23 06:43:42.6      14    -83    -18     85     88 170.2 -12.4  33950  286.02 0855.05
2009/04/23 06:43:42.7       3    -92    -11     93     94 177.8  -7.3  33944  285.93 0855.05
2009/04/23 06:43:42.8      -3    -72    -30     73     78 182.7 -27.4  33942  285.88 0855.05
2009/04/23 06:43:42.9     -13    -67    -24     69     73 191.5 -23.3  33942  285.88 0855.05
2009/04/23 06:43:43.0     -33    -61      4     70     71 209.0   3.8  33942  285.88 0855.05
2009/04/23 06:43:43.1     -26    -33     66     43     78 218.7  64.6  33946  285.95 0855.05
2009/04/23 06:43:43.2     -11    -49     35     51     61 192.5  38.6  33948  285.98 0855.05
2009/04/23 06:43:43.3     -12    -63     31     65     72 191.5  27.2  33948  285.98 0855.05
2009/04/23 06:43:43.4     -31    -32     35     45     57 224.2  42.7  33944  285.93 0855.05
2009/04/23 06:43:43.5     -36    -77      6     86     87 205.4   4.4  33944  285.93 0855.05
2009/04/23 06:43:43.6     -28   -106    -13    110    111 195.2  -7.2  33946  285.97 0855.05
2009/04/23 06:43:43.7     -51   -100    -31    113    118 207.2 -15.5  33952  286.05 0855.05
2009/04/23 06:43:43.8      16    -86     16     88     90 168.9  10.6  33952  286.07 0855.05
2009/04/23 06:43:43.9      22    -56     -2     61     62 158.2  -2.2  33954  286.08 0855.05
2009/04/23 06:43:44.0      28    -84     31     89     95 161.3  19.4  33956  286.12 0855.05
2009/04/23 06:43:44.1       9    -78     41     79     89 172.9  29.8  33954  286.10 0855.05
2009/04/23 06:43:44.2     -28    -86     55     91    106 198.5  34.4  33952  286.05 0855.05
2009/04/23 06:43:44.3     -12    -70     53     72     89 189.8  40.1  33950  286.03 0855.05
2009/04/23 06:43:44.4      10    -93     33     94    100 173.3  19.4  33952  286.05 0855.05
2009/04/23 06:43:44.5      -3    -50     38     51     63 184.5  40.7  33950  286.03 0855.05
2009/04/23 06:43:44.6      -3    -45     75     46     87 184.5  65.1  33954  286.08 0855.05
2009/04/23 06:43:44.7     -16    -78     55     80     97 191.6  37.6  33946  285.95 0855.05
2009/04/23 06:43:44.8      -2    -82     23     83     87 181.8  15.8  33942  285.88 0855.05
2009/04/23 06:43:44.9       8    -98     32     99    105 175.1  17.9  33944  285.92 0855.05
2009/04/23 06:43:45.0       0    -97     13     98     99 179.5   8.0  33942  285.90 0855.05
2009/04/23 06:43:45.1      -1    -72     -5     73     74 181.0  -4.1  33940  285.85 0855.05
2009/04/23 06:43:45.2      -6    -77    -22     78     81 184.5 -20.7  33940  285.87 0855.05
2009/04/23 06:43:45.3      -7    -96    -11     97     98 184.4  -6.7  33942  285.90 0855.05
2009/04/23 06:43:45.4       0    -99     -3    100    101 180.0  -2.2  33944  285.93 0855.05
2009/04/23 06:43:45.5      12    -87     17     88     90 171.5  11.1  33952  286.05 0855.05
2009/04/23 06:43:45.6      16    -78     16     80     82 168.4  11.6  33950  286.03 0855.05
2009/04/23 06:43:45.7      31    -64     25     72     77 153.7  19.2  33948  286.00 0855.05
2009/04/23 06:43:45.8      19    -59     12     63     65 161.5  11.0  33948  285.98 0855.05
2009/04/23 06:43:45.9      21    -58     -2     62     63 160.0  -2.2  33940  285.87 0855.05
2009/04/23 06:43:46.0       1    -52     -2     53     54 178.2  -2.2  33936  285.78 0855.05
2009/04/23 06:43:46.1       0    -45     -7     46     47 180.0  -9.3  33936  285.80 0855.05
2009/04/23 06:43:46.2      14    -53     -8     55     56 164.9  -8.2  33936  285.78 0855.05
2009/04/23 06:43:46.3      12    -44    -16     46     49 164.0 -19.7  33934  285.76 0855.05
2009/04/23 06:43:46.4      14    -38     -8     41     42 160.0 -11.3  33936  285.80 0855.05
2009/04/23 06:43:46.5      21    -37    -12     43     45 150.1 -16.6  33936  285.80 0855.05
2009/04/23 06:43:46.6      26    -31     -8     41     42 139.5 -11.3  33936  285.80 0855.05
2009/04/23 06:43:46.7      18    -29     -4     35     36 147.5  -7.2  33936  285.80 0855.05
2009/04/23 06:43:46.8      14    -36      7     39     40 158.2  11.1  33938  285.82 0855.05
2009/04/23 06:43:46.9      18    -30     11     36     38 149.3  17.3  33936  285.78 0855.05
2009/04/23 06:43:47.0      19    -43     12     48     50 156.4  14.3  33938  285.82 0855.05
2009/04/23 06:43:47.1      11    -34     17     36     39 161.3  26.2  33934  285.76 0855.05
2009/04/23 06:43:47.2      17    -22     17     28     32 142.2  35.5  33934  285.76 0855.05
2009/04/23 06:43:47.3      22    -22     15     32     35 135.0  27.2  33936  285.78 0855.05
2009/04/23 06:43:47.4      14    -30     18     34     38 154.7  29.3  33936  285.78 0855.05
2009/04/23 06:43:47.5       7    -32     15     33     36 166.6  27.1  33936  285.78 0855.05
2009/04/23 06:43:47.6       7    -37      6     38     39 168.4  10.1  33934  285.76 0855.05
2009/04/23 06:43:47.7      12    -31     11     34     37 158.2  18.9  33934  285.76 0855.05
2009/04/23 06:43:47.8      12    -38      5     41     42 161.5   6.9  33936  285.80 0855.05
2009/04/23 06:43:47.9      12    -38      5     41     42 161.5   6.9  33936  285.80 0855.05
2009/04/23 06:43:48.0      15    -30     12     34     37 152.8  19.4  33936  285.78 0855.05
2009/04/23 06:43:48.1      13    -21     20     26     32 147.5  43.7  33936  285.78 0855.05
2009/04/23 06:43:48.2       5    -39     13     40     43 172.0  18.4  33936  285.80 0855.05
2009/04/23 06:43:48.3       3    -45     12     46     48 175.5  15.3  33938  285.83 0855.05
2009/04/23 06:43:48.4       3    -39     17     40     43 175.5  23.0  33940  285.87 0855.05
2009/04/23 06:43:48.5       0    -33     28     34     44 180.9  44.8  33940  285.85 0855.05
2009/04/23 06:43:48.6       4    -19     26     20     32 166.6  56.4  33936  285.80 0855.05
2009/04/23 06:43:48.7      12     -8     33     15     36 126.0  73.1  33936  285.78 0855.05
2009/04/23 06:43:48.8      24     -1     32     25     40  94.4  58.5  33936  285.80 0855.05
2009/04/23 06:43:48.9      35      0     28     36     45  90.0  41.7  33936  285.78 0855.05
2009/04/23 06:43:49.0      42    -11     42     44     60 105.1  49.0  33932  285.73 0855.05
2009/04/23 06:43:49.1      28      3     42     29     51  82.1  62.6  33932  285.73 0855.05
2009/04/23 06:43:49.2      21    -13     34     25     42 122.4  59.4  33934  285.75 0855.05
2009/04/23 06:43:49.3      16    -10     23     19     29 122.4  56.4  33934  285.76 0855.05
2009/04/23 06:43:49.4      -1      6     26      7     26 350.3  84.9  33934  285.76 0855.05
2009/04/23 06:43:49.5     -16      2     25     17     30 277.9  62.6  33938  285.82 0855.05
2009/04/23 06:43:49.6      -6     26     26     27     37 346.6  52.0  33938  285.82 0855.05
2009/04/23 06:43:49.7      29     10     42     31     52  70.0  59.4  33932  285.73 0855.05
2009/04/23 06:43:49.8      35      7     52     36     63  78.5  61.5  33930  285.68 0855.05
2009/04/23 06:43:49.9      45      0     64     46     78  90.0  60.5  33926  285.63 0855.05
2009/04/23 06:43:50.0       0      3     50      4     50 350.3  90.0  33932  285.71 0855.05
2009/04/23 06:43:50.1      -7    -11     32     14     34 212.5  73.1  33938  285.83 0855.05
2009/04/23 06:43:50.2      -5      2     32      6     32 295.3  89.1  33936  285.80 0855.05
2009/04/23 06:43:50.3      28      2     62     29     68  85.6  73.1  33932  285.71 0855.05
2009/04/23 06:43:50.4      45     21     64     50     81  64.6  57.9  33930  285.70 0855.05
2009/04/23 06:43:50.5      35     32     61     48     77  46.9  56.4  33932  285.71 0855.05
2009/04/23 06:43:50.6      68     20     54     72     90  73.2  41.2  33932  285.73 0855.05
2009/04/23 06:43:50.7      79     11     63     80    101  82.0  42.7  33930  285.68 0855.05
2009/04/23 06:43:50.8      64     21     77     68    102  71.4  53.7  33930  285.68 0855.05
2009/04/23 06:43:50.9      15     -8     65     18     67 118.9  84.8  33930  285.70 0855.06
2009/04/23 06:43:51.0       0    -13     39     14     41 182.7  80.2  33932  285.71 0855.06
2009/04/23 06:43:51.1      -7    -24     32     26     41 196.9  56.4  33932  285.73 0855.06
2009/04/23 06:43:51.2      -5    -49     33     50     59 186.2  36.5  33930  285.68 0855.06
2009/04/23 06:43:51.3       5    -49     40     50     64 173.8  43.7  33928  285.66 0855.06
2009/04/23 06:43:51.4       5    -34     53     35     63 170.2  63.6  33928  285.66 0855.06
2009/04/23 06:43:51.5       0    -97     62     98    115 179.5  35.5  33950  286.03 0855.06
2009/04/23 06:43:51.6     -13    -85     72     87    112 188.9  43.8  33942  285.88 0855.06
2009/04/23 06:43:51.7       1    -73     69     74    101 179.1  47.9  33934  285.75 0855.06
2009/04/23 06:43:51.8     -14    -67     55     69     88 192.5  43.7  33932  285.71 0855.06
2009/04/23 06:43:51.9     -48    -50     53     70     87 224.1  41.2  33938  285.82 0855.06
2009/04/23 06:43:52.0     -54    -58     30     80     85 223.3  21.5  33936  285.78 0855.06
2009/04/23 06:43:52.1     -78    -36     26     86     90 245.2  16.8  33928  285.65 0855.06
2009/04/23 06:43:52.2     -78    -36     26     86     90 245.2  16.8  33928  285.65 0855.06
2009/04/23 06:43:52.3     -71    -62     27     95     99 228.7  16.3  33936  285.78 0855.06
2009/04/23 06:43:52.4     -71    -45     57     85    102 237.5  37.0  33932  285.73 0855.06
2009/04/23 06:43:52.5     -64    -98     74    118    139 213.0  35.5  33942  285.88 0855.06
2009/04/23 06:43:52.6     -64    -86     27    108    112 216.5  14.3  33942  285.90 0855.06
2009/04/23 06:43:52.7     -47   -113     30    123    127 202.7  13.7  33940  285.87 0855.06
2009/04/23 06:43:52.8     -50    -72     57     88    104 214.7  35.6  33940  285.87 0855.06
2009/04/23 06:43:52.9     -57   -120     57    133    144 205.5  24.6  33940  285.85 0855.06
2009/04/23 06:43:53.0     -32    -91     46     97    107 199.6  27.1  33936  285.80 0855.06
2009/04/23 06:43:53.1     -29    -88     15     93     95 198.3   9.5  33938  285.82 0855.06
2009/04/23 06:43:53.2     -39   -106     -7    114    115 200.5  -3.7  33938  285.82 0855.06
2009/04/23 06:43:53.3     -36    -95     -1    102    103 200.9  -0.7  33940  285.87 0855.06
2009/04/23 06:43:53.4     -24   -103     -6    106    107 193.4  -3.7  33942  285.88 0855.06
2009/04/23 06:43:53.5     -60   -115     10    130    131 207.6   4.4  33946  285.97 0855.06
2009/04/23 06:43:53.6     -43   -121      0    129    130 199.6   0.2  33944  285.92 0855.06
2009/04/23 06:43:53.7     -34   -102      5    108    109 198.7   2.9  33946  285.97 0855.06
2009/04/23 06:43:53.8     -63    -78     28    101    105 219.2  15.8  33942  285.88 0855.06
2009/04/23 06:43:53.9     -86   -102     26    134    137 220.1  11.1  33936  285.80 0855.06
2009/04/23 06:43:54.0     -67   -106     32    126    131 212.1  14.3  33938  285.83 0855.06
2009/04/23 06:43:54.1     -62    -95     35    114    120 213.4  17.3  33940  285.87 0855.06
2009/04/23 06:43:54.2     -64    -86      7    108    109 216.5   3.8  33940  285.85 0855.06
2009/04/23 06:43:54.3     -69    -85      4    110    111 219.2   2.3  33936  285.78 0855.06
2009/04/23 06:43:54.4     -46    -73      4     87     88 212.6   2.8  33936  285.78 0855.06
2009/04/23 06:43:54.5     -40    -78      4     88     89 207.2   2.9  33940  285.85 0855.06
2009/04/23 06:43:54.6     -28    -70      3     76     77 201.8   2.9  33940  285.85 0855.06
2009/04/23 06:43:54.7     -35    -64     14     74     76 209.0  11.0  33942  285.88 0855.06
2009/04/23 06:43:54.8     -46    -56     20     73     76 219.7  15.3  33942  285.90 0855.06
2009/04/23 06:43:54.9     -42    -67     22     80     84 212.5  15.8  33944  285.92 0855.06
2009/04/23 06:43:55.0     -25    -67     19     72     75 200.9  15.3  33948  286.00 0855.06
2009/04/23 06:43:55.1     -28    -73     30     79     84 200.9  21.0  33956  286.12 0855.06
2009/04/23 06:43:55.2     -23    -89     30     92     97 194.7  18.4  33954  286.10 0855.06
2009/04/23 06:43:55.3     -34   -101     15    107    109 198.7   8.0  33944  285.93 0855.06
2009/04/23 06:43:55.4     -25    -76     44     81     92 198.7  30.8  33934  285.76 0855.06
2009/04/23 06:43:55.5     -35    -63     20     73     76 209.0  15.3  33938  285.83 0855.06
2009/04/23 06:43:55.6     -25    -67     19     72     75 200.9  15.3  33948  286.00 0855.06
2009/04/23 06:43:55.7     -32    -67     43     75     86 205.3  32.9  33938  285.83 0855.06
2009/04/23 06:43:55.8     -25    -51     42     57     70 206.3  39.7  33936  285.80 0855.06
2009/04/23 06:43:55.9     -28    -28      2     40     41 225.1   2.9  33944  285.92 0855.06
2009/04/23 06:43:56.0     -18    -28      6     34     35 212.5  11.1  33952  286.07 0855.06
2009/04/23 06:43:56.1     -28    -87     40     92    100 198.3  25.1  33944  285.93 0855.06
2009/04/23 06:43:56.2     -34    -91     30     98    103 200.5  17.3  33940  285.85 0855.06
2009/04/23 06:43:56.3     -14    -70     25     72     77 191.6  19.4  33942  285.90 0855.06
2009/04/23 06:43:56.4     -20    -70      1     73     74 196.0   0.8  33940  285.85 0855.06
2009/04/23 06:43:56.5     -18    -54      0     58     59 198.7   0.8  33938  285.83 0855.06
2009/04/23 06:43:56.6      -6    -47     14     48     51 188.0  16.3  33940  285.87 0855.06
2009/04/23 06:43:56.7     -19    -50     20     54     57 200.9  20.0  33942  285.90 0855.06
2009/04/23 06:43:56.8     -20    -53     16     57     60 200.9  16.3  33940  285.87 0855.06
2009/04/23 06:43:56.9     -26    -50     20     57     61 207.2  19.4  33942  285.88 0855.06
2009/04/23 06:43:57.0      -9    -28     38     30     48 198.7  57.5  33938  285.83 0855.06
2009/04/23 06:43:57.1      28     -9     57     30     64 108.6  69.8  33930  285.70 0855.06
2009/04/23 06:43:57.2      25    -11     51     28     58 113.5  68.8  33930  285.68 0855.06
2009/04/23 06:43:57.3       5    -13     43     15     45 158.2  81.2  33926  285.63 0855.06
2009/04/23 06:43:57.4       0    -48     44     49     65 180.0  47.9  33926  285.63 0855.06
2009/04/23 06:43:57.5      14    -49     48     52     70 164.0  47.9  33928  285.66 0855.06
2009/04/23 06:43:57.6      18    -35     59     40     71 152.8  63.6  33926  285.63 0855.06
2009/04/23 06:43:57.7      40    -27     44     49     65 124.2  47.9  33928  285.66 0855.06
2009/04/23 06:43:57.8      21    -25     48     33     58 140.3  63.6  33930  285.70 0855.06
2009/04/23 06:43:57.9      12    -54     39     56     68 167.5  38.6  33932  285.71 0855.07
2009/04/23 06:43:58.0     -14    -69     46     71     84 191.6  35.6  33936  285.80 0855.07
2009/04/23 06:43:58.1     -24    -79     43     83     93 197.4  29.3  33934  285.75 0855.07
2009/04/23 06:43:58.2     -17    -64     35     67     75 195.2  30.3  33932  285.71 0855.07
2009/04/23 06:43:58.3     -28    -70     40     76     85 201.8  30.3  33934  285.76 0855.07
2009/04/23 06:43:58.4     -20    -57     46     61     76 200.0  40.7  33932  285.71 0855.07
2009/04/23 06:43:58.5      -4    -61     62     62     87 184.5  50.1  33934  285.76 0855.07
2009/04/23 06:43:58.6      -6    -81     46     82     94 184.5  32.4  33932  285.71 0855.07
2009/04/23 06:43:58.7       1    -73     41     74     84 179.0  31.9  33934  285.75 0855.07
2009/04/23 06:43:58.8       7   -101     55    102    115 175.5  30.8  33930  285.68 0855.07
2009/04/23 06:43:58.9       0   -107     68    108    127 180.0  35.5  33932  285.73 0855.07
2009/04/23 06:43:59.0      19   -129     66    131    146 171.5  28.2  33930  285.68 0855.07
2009/04/23 06:43:59.1      -4   -137     40    138    144 181.8  16.3  33946  285.97 0855.07
2009/04/23 06:43:59.2     -71   -133     42    151    157 208.1  15.8  33950  286.02 0855.07
2009/04/23 06:43:59.3     -54   -121     26    133    136 204.1  11.1  33942  285.88 0855.07
2009/04/23 06:43:59.4     -62    -71     -8     95     96 221.0  -5.2  33942  285.88 0855.07
2009/04/23 06:43:59.5     -60    -77     -2     98     99 217.8  -1.3  33940  285.85 0855.07
2009/04/23 06:43:59.6     -33   -117     60    122    135 196.0  27.8  33938  285.82 0855.07
2009/04/23 06:43:59.7     -43   -130     57    137    148 198.3  23.6  33934  285.75 0855.07
2009/04/23 06:43:59.8     -34   -122     47    127    135 195.6  20.9  33934  285.75 0855.07
2009/04/23 06:43:59.9     -27   -107     39    111    118 194.3  19.4  33932  285.71 0855.07
2009/04/23 06:44:00.0     -22   -115     30    118    122 191.1  14.7  33932  285.71 0855.07
2009/04/23 06:44:00.1     -19   -119     10    121    122 189.3   4.9  33930  285.70 0855.07
2009/04/23 06:44:00.2     -13   -115      1    116    117 186.7   0.8  33932  285.73 0855.07
2009/04/23 06:44:00.3     -26   -109     -4    113    114 193.4  -2.2  33932  285.71 0855.07
2009/04/23 06:44:00.4     -24   -106    -14    109    110 192.9  -7.3  33934  285.75 0855.07
2009/04/23 06:44:00.5     -21   -101    -13    104    105 192.0  -7.2  33932  285.71 0855.07
2009/04/23 06:44:00.6     -30    -89     -6     95     96 198.7  -3.7  33934  285.75 0855.07
2009/04/23 06:44:00.7     -30    -86     -7     92     93 199.6  -4.6  33932  285.71 0855.07
2009/04/23 06:44:00.8     -37    -90    -14     98    100 202.7  -8.2  33934  285.75 0855.07
2009/04/23 06:44:00.9     -28    -87    -10     92     93 198.3  -6.7  33932  285.73 0855.07
2009/04/23 06:44:01.0     -30    -67    -20     74     77 204.5 -15.4  33932  285.73 0855.07
2009/04/23 06:44:01.1     -41    -64    -20     77     80 212.6 -14.5  33934  285.76 0855.07
2009/04/23 06:44:01.2     -58    -78     -7     98     99 216.5  -4.1  33934  285.76 0855.07
2009/04/23 06:44:01.3     -54    -86     -4    102    103 212.5  -2.2  33934  285.76 0855.07
2009/04/23 06:44:01.4     -39    -97    -15    105    107 201.8  -8.2  33934  285.75 0855.07
2009/04/23 06:44:01.5     -41   -110    -19    118    120 200.5  -9.3  33934  285.76 0855.07
2009/04/23 06:44:01.6     -55   -106    -34    120    125 207.6 -16.0  33934  285.76 0855.07
2009/04/23 06:44:01.7     -58   -108    -38    123    129 208.5 -17.5  33934  285.75 0855.07
2009/04/23 06:44:01.8     -57   -102    -38    118    123 209.4 -23.8  33936  285.78 0855.07
2009/04/23 06:44:01.9     -38   -111    -39    118    124 199.2 -23.8  33934  285.76 0855.07
2009/04/23 06:44:02.0     -60   -130    -40    144    150 204.9 -15.5  33934  285.75 0855.07
2009/04/23 06:44:02.1     -41   -103     40    111    117 201.8  20.9  33938  285.82 0855.07
2009/04/23 06:44:02.2     -34    -71     27     80     85 205.9  18.9  33938  285.82 0855.07
2009/04/23 06:44:02.3     -27    -67     47     73     86 201.8  35.6  33926  285.63 0855.07
2009/04/23 06:44:02.4     -40    -39     61     57     83 225.9  51.6  33936  285.80 0855.07
2009/04/23 06:44:02.5      20    -17     27     27     38 131.3  50.1  33938  285.82 0855.07
2009/04/23 06:44:02.6      14    -22     41     27     49 147.4  63.6  33944  285.92 0855.07
2009/04/23 06:44:02.7       0    -45     46     46     65 180.9  50.1  33946  285.95 0855.07
2009/04/23 06:44:02.8      -5    -46     68     47     82 187.1  62.1  33940  285.85 0855.07
2009/04/23 06:44:02.9       1    -11     41     12     42 172.0  83.9  33942  285.90 0855.07
2009/04/23 06:44:03.0      18     10     39     21     44  59.3  68.8  33944  285.92 0855.07
2009/04/23 06:44:03.1       4     13     31     14     34  18.7  75.0  33944  285.92 0855.07
2009/04/23 06:44:03.2      12      8     40     15     42  57.6  79.2  33940  285.87 0855.07
2009/04/23 06:44:03.3      25     25     44     36     56  45.0  56.4  33932  285.71 0855.07
2009/04/23 06:44:03.4      46     18     53     50     72  68.3  52.1  33928  285.65 0855.07
2009/04/23 06:44:03.5      58     19     52     62     80  71.8  44.8  33926  285.63 0855.07
2009/04/23 06:44:03.6      45      7     44     46     63  80.3  50.0  33924  285.60 0855.07
2009/04/23 06:44:03.7      15     17     35     24     42  41.4  62.6  33928  285.66 0855.07
2009/04/23 06:44:03.8      10     22     33     25     41  25.4  58.5  33926  285.63 0855.07
2009/04/23 06:44:03.9      17     14     37     23     43  50.5  64.7  33926  285.63 0855.07
2009/04/23 06:44:04.0      17     22     24     29     37  37.8  43.8  33930  285.68 0855.07
2009/04/23 06:44:04.1       9     21     23     24     33  23.6  52.0  33926  285.61 0855.07
2009/04/23 06:44:04.2       0     14      7     15     16 357.3  27.2  33926  285.63 0855.07
2009/04/23 06:44:04.3      -5      9      6     11     12 327.5  31.4  33926  285.63 0855.07
2009/04/23 06:44:04.4     -21     21     -4     31     32 315.0  -7.2  33926  285.63 0855.07
2009/04/23 06:44:04.5     -21     31     -3     38     39 325.7  -5.2  33930  285.70 0855.07
2009/04/23 06:44:04.6     -33     18     -1     38     39 298.9  -2.2  33928  285.66 0855.07
2009/04/23 06:44:04.7     -27     17      2     33     34 302.5   4.9  33932  285.71 0855.07
2009/04/23 06:44:04.8     -38      2     15     39     41 274.4  22.0  33932  285.73 0855.07
2009/04/23 06:44:04.9     -35      2     24     36     43 274.4  37.6  33932  285.71 0855.07
2009/04/23 06:44:05.0     -44     14      7     47     48 288.4   9.0  33932  285.71 0855.07
2009/04/23 06:44:05.1     -48      3     13     49     51 274.3  15.3  33932  285.71 0855.07
2009/04/23 06:44:05.2     -44     14      7     47     48 288.4   9.0  33932  285.71 0855.07
2009/04/23 06:44:05.3     -36      0     10     37     39 269.2  15.3  33932  285.71 0855.07
2009/04/23 06:44:05.4     -35      0     24     36     43 270.0  37.6  33932  285.73 0855.07
2009/04/23 06:44:05.5     -39     11     16     41     44 285.9  21.0  33932  285.73 0855.07
2009/04/23 06:44:05.6     -12     11      6     17     19 313.3  19.4  33930  285.70 0855.07
2009/04/23 06:44:05.7     -10    -10      8     15     17 225.0  31.4  33932  285.71 0855.07
2009/04/23 06:44:05.8     -17    -22     16     28     32 217.8  33.5  33930  285.70 0855.07
2009/04/23 06:44:05.9     -29    -10      2     31     32 250.0   4.9  33932  285.71 0855.07
2009/04/23 06:44:06.0     -29    -18     -1     35     36 237.5  -3.1  33932  285.73 0855.07
2009/04/23 06:44:06.1     -30    -30      0     43     44 225.1  -0.3  33930  285.68 0855.07
2009/04/23 06:44:06.2     -31    -38     -6     50     51 219.6  -7.2  33932  285.71 0855.07
2009/04/23 06:44:06.3     -23    -68     18     73     76 199.2  14.3  33930  285.68 0855.07
2009/04/23 06:44:06.5     -18    -59     44     62     76 197.8  39.5  33928  285.65 0855.07
2009/04/23 06:44:06.5     -37    -78     56     87    103 205.4  35.6  33930  285.70 0855.07
2009/04/23 06:44:06.6     -47    -73     66     88    110 213.0  40.7  33928  285.66 0855.07
2009/04/23 06:44:06.8     -49    -71     44     87     97 214.7  28.2  33932  285.71 0855.07
2009/04/23 06:44:06.9     -26    -46     53     54     75 209.9  51.1  33932  285.71 0855.07
2009/04/23 06:44:06.9     -45    -36     44     58     72 231.4  41.7  33932  285.71 0855.07
2009/04/23 06:44:07.1     -59    -22     35     64     72 249.2  31.3  33932  285.71 0855.07
2009/04/23 06:44:07.1     -68    -22     24     72     77 251.6  18.9  33932  285.71 0855.07
2009/04/23 06:44:07.2     -41    -15     40     44     59 250.0  47.9  33934  285.76 0855.07
2009/04/23 06:44:07.4     -32     -8     35     34     48 254.9  49.1  33932  285.71 0855.07
2009/04/23 06:44:07.5     -15    -21     38     26     46 216.1  62.6  33930  285.70 0855.07
2009/04/23 06:44:07.5      -3    -21     34     22     40 189.8  63.6  33932  285.71 0855.07
2009/04/23 06:44:07.7       8     -8     36     12     37 133.1  81.0  33932  285.71 0855.07
2009/04/23 06:44:07.7       7      6     35     10     36  46.9  82.8  33928  285.66 0855.07
2009/04/23 06:44:07.8       8     26     17     28     32  18.3  35.5  33928  285.65 0855.07
2009/04/23 06:44:07.9       8     24     22     26     34  18.5  45.8  33928  285.65 0855.07
2009/04/23 06:44:08.1      22     22     42     32     52  45.0  57.5  33926  285.63 0855.07
2009/04/23 06:44:08.2       7     19     42     21     46  21.8  71.9  33928  285.66 0855.07
2009/04/23 06:44:08.3       0    -52     48     53     71 180.0  47.9  33930  285.68 0855.07
2009/04/23 06:44:08.3      -6    -31     57     32     65 191.5  68.8  33930  285.68 0855.07
2009/04/23 06:44:08.4     -37    -45     70     59     91 219.6  55.8  33932  285.71 0855.07
2009/04/23 06:44:08.5     -25    -48     63     55     83 208.1  53.7  33934  285.75 0855.07
2009/04/23 06:44:08.6      16    -22     70     28     75 143.9  77.1  33932  285.71 0855.07
2009/04/23 06:44:08.7      24    -42     44     49     65 150.1  47.9  33934  285.76 0855.07
2009/04/23 06:44:08.9      26    -78     18     83     86 161.3  12.6  33936  285.80 0855.07
2009/04/23 06:44:09.0      62    -75      4     98     99 140.4   2.8  33932  285.73 0855.07
2009/04/23 06:44:09.1      75    -74     46    106    115 134.9  25.1  33934  285.75 0855.07
2009/04/23 06:44:09.2      98    -82     53    128    138 130.0  23.1  33934  285.76 0855.07
2009/04/23 06:44:09.3     120   -100     46    157    164 129.6  16.6  33934  285.75 0855.07
2009/04/23 06:44:09.4      96   -112     26    148    151 139.5  10.1  33936  285.78 0855.07
2009/04/23 06:44:09.5      88   -106     37    138    144 140.3  15.3  33936  285.80 0855.07
2009/04/23 06:44:09.6      90   -109     33    142    146 140.3  13.1  33936  285.80 0855.07
2009/04/23 06:44:09.7      68   -142     42    158    164 154.5  15.0  33936  285.80 0855.07
2009/04/23 06:44:09.8      91   -160     64    185    196 150.4  19.2  33938  285.82 0855.07
2009/04/23 06:44:09.9      92   -125      0    156    157 143.5  -0.3  33940  285.85 0855.07
2009/04/23 06:44:10.0      74   -116     -7    138    139 147.5  -3.2  33938  285.83 0855.08
2009/04/23 06:44:10.1      50   -107      0    119    120 154.7   0.2  33934  285.75 0855.08
2009/04/23 06:44:10.2      48   -104     67    115    133 155.1  33.5  33938  285.82 0855.08
2009/04/23 06:44:10.3      34   -139    125    144    190 166.2  45.4  33936  285.80 0855.08
2009/04/23 06:44:10.4       7   -153    145    154    211 177.3  48.2  33936  285.78 0855.08
2009/04/23 06:44:10.5       5   -105    126    106    164 176.9  55.6  33934  285.75 0855.08
2009/04/23 06:44:10.6      14    -83    107     85    136 170.2  56.9  33932  285.73 0855.08
2009/04/23 06:44:10.7      44   -109     58    118    131 157.7  27.8  33932  285.73 0855.08
2009/04/23 06:44:10.8      45   -127     71    135    152 160.4  29.8  33932  285.71 0855.08
2009/04/23 06:44:10.9      37   -147     72    152    168 165.7  27.2  33932  285.71 0855.08
2009/04/23 06:44:11.0      -4   -165     76    166    182 181.4  26.4  33932  285.71 0855.08
2009/04/23 06:44:11.1      -9   -149     77    150    168 183.6  29.3  33932  285.71 0855.08
2009/04/23 06:44:11.2     -24   -133     84    136    159 190.2  34.8  33928  285.65 0855.08
2009/04/23 06:44:11.3     -39   -144     83    150    171 195.2  31.4  33934  285.75 0855.08
2009/04/23 06:44:11.4     -58   -154     96    165    190 200.9  32.9  33938  285.82 0855.08
2009/04/23 06:44:11.5     -89   -142     58    168    178 212.1  19.2  33936  285.78 0855.08
2009/04/23 06:44:11.6    -109   -112     24    157    159 224.1   9.0  33936  285.78 0855.08
2009/04/23 06:44:11.7     -97    -97     48    138    147 225.2  19.2  33934  285.75 0855.08
2009/04/23 06:44:11.8    -130    -79      3    153    154 238.5   1.2  33932  285.71 0855.08
2009/04/23 06:44:11.9     -83   -111     16    139    141 217.0   6.9  33936  285.80 0855.08
2009/04/23 06:44:12.0     -77   -127     -8    149    150 211.2  -3.1  33938  285.83 0855.08
2009/04/23 06:44:12.1     -82   -151      8    172    173 208.5   2.9  33934  285.76 0855.08
2009/04/23 06:44:12.2     -97   -126    -21    160    162 217.8  -7.7  33932  285.73 0855.08
2009/04/23 06:44:12.3     -92   -134     -6    163    164 214.5  -2.3  33928  285.66 0855.08
2009/04/23 06:44:12.4     -99   -114    -16    152    153 221.0  -6.2  33928  285.66 0855.08
2009/04/23 06:44:12.5     -62   -130    -29    145    148 205.5 -11.3  33932  285.73 0855.08
2009/04/23 06:44:12.6     -58   -123    -22    137    139 205.3  -9.3  33934  285.75 0855.08
2009/04/23 06:44:12.7   -6112 -10623  -5774  12256  13548 209.9 -31.4  31956  253.42 0855.08
2009/04/23 06:44:12.8      13   -161    -24    162    164 175.1  -8.6  33938  285.82 0855.08
2009/04/23 06:44:12.9      27   -171     13    174    175 170.9   4.4  33944  285.93 0855.08
2009/04/23 06:44:13.0      25   -160     14    162    163 171.1   5.2  33938  285.83 0855.08
2009/04/23 06:44:13.1       6   -167     38    168    173 177.8  12.9  33936  285.80 0855.08
2009/04/23 06:44:13.2      -6   -164     21    165    167 182.2   7.5  33938  285.83 0855.08
2009/04/23 06:44:13.3       5   -179     34    180    184 178.2  10.8  33934  285.76 0855.08
2009/04/23 06:44:13.4      12   -158     23    159    161 175.5   8.2  33936  285.80 0855.08
2009/04/23 06:44:13.5      36   -122     44    128    136 163.5  18.9  33938  285.82 0855.08
2009/04/23 06:44:13.6      44   -132     64    140    153 161.3  27.1  33938  285.83 0855.08
2009/04/23 06:44:13.7      31   -155     33    159    163 168.4  12.0  33938  285.82 0855.08
2009/04/23 06:44:13.8      -9   -185     -3    186    187 182.9  -1.2  33940  285.87 0855.08
2009/04/23 06:44:13.9     -13   -189     -7    190    191 184.0  -2.1  33936  285.78 0855.08
2009/04/23 06:44:14.0       7   -174     -6    175    176 177.5  -2.2  33938  285.82 0855.08
2009/04/23 06:44:14.1      -8   -178    -15    179    180 182.7  -4.9  33934  285.76 0855.08
2009/04/23 06:44:14.2      15   -186    -10    187    188 175.1  -3.1  33936  285.78 0855.08
2009/04/23 06:44:14.3      18   -180    -17    182    183 174.0  -5.4  33936  285.78 0855.08
2009/04/23 06:44:14.4      22   -176    -23    178    180 172.7  -7.5  33938  285.83 0855.08
2009/04/23 06:44:14.5      17   -150      7    152    153 173.3   2.8  33938  285.83 0855.08
2009/04/23 06:44:14.6       0   -177     10    178    179 180.2   3.3  33936  285.80 0855.08
2009/04/23 06:44:14.7      -8   -157     -6    158    159 183.1  -2.2  33936  285.80 0855.08
2009/04/23 06:44:14.8     -26   -125    -44    128    136 192.0 -19.1  33936  285.80 0855.08
2009/04/23 06:44:14.9      34   -127    -17    132    134 164.9  -7.3  33938  285.82 0855.08
2009/04/23 06:44:15.0      42   -168     -6    174    175 166.0  -2.3  33940  285.85 0855.08
2009/04/23 06:44:15.1      48   -152    -35    160    164 162.2 -12.6  33938  285.82 0855.08
2009/04/23 06:44:15.2      38   -149    -46    154    161 165.7 -16.8  33938  285.82 0855.08
2009/04/23 06:44:15.3      40   -158    -49    164    172 165.7 -16.6  33940  285.87 0855.08
2009/04/23 06:44:15.4      53   -161    -45    170    177 161.5 -15.0  33940  285.87 0855.08
2009/04/23 06:44:15.5      64   -148    -51    162    170 156.6 -17.6  33942  285.90 0855.08
2009/04/23 06:44:15.6      75   -163    -63    180    191 155.3 -19.4  33940  285.85 0855.08
2009/04/23 06:44:15.7     101   -152    -36    183    187 146.4 -11.1  33940  285.87 0855.08
2009/04/23 06:44:15.8     101   -134    -27    169    172 143.0  -9.3  33942  285.90 0855.08
2009/04/23 06:44:15.9      65   -121    -28    138    141 151.5 -11.5  33940  285.87 0855.08
2009/04/23 06:44:16.0      58   -119    -35    133    138 153.7 -15.0  33942  285.90 0855.07
2009/04/23 06:44:16.1      74   -148    -15    166    167 153.5  -5.4  33944  285.92 0855.07
2009/04/23 06:44:16.2      93   -174    -59    198    207 151.7 -16.8  33946  285.95 0855.07
2009/04/23 06:44:16.3     109   -158    -53    193    201 145.3 -15.5  33946  285.97 0855.07
2009/04/23 06:44:16.4      76   -171     27    188    190 155.9   8.2  33944  285.92 0855.07
2009/04/23 06:44:16.5      59   -197    -17    206    207 163.3  -4.9  33950  286.02 0855.07
2009/04/23 06:44:16.6      67   -198    -16    210    211 161.3  -4.4  33946  285.95 0855.07
2009/04/23 06:44:16.7       0   -225    -30    226    229 180.0  -7.7  33938  285.83 0855.07
2009/04/23 06:44:16.8      -5   -223    -29    224    226 181.4  -7.5  33938  285.83 0855.07
2009/04/23 06:44:16.9     -46   -177    -12    183    184 194.7  -3.9  33940  285.87 0855.07
2009/04/23 06:44:17.0     -52   -156    -17    165    166 198.7  -6.0  33942  285.88 0855.07
2009/04/23 06:44:17.1     -31   -152     -3    156    157 191.5  -1.1  33948  285.98 0855.07
2009/04/23 06:44:17.2     -10   -135     -8    136    137 184.5  -3.7  33946  285.97 0855.07
2009/04/23 06:44:17.3      27   -144    -25    147    150 169.3  -9.8  33944  285.93 0855.07
2009/04/23 06:44:17.4      46   -170    -30    177    180 164.9  -9.8  33946  285.97 0855.07
2009/04/23 06:44:17.5      70   -127    -44    146    153 151.1 -16.8  33944  285.93 0855.07
2009/04/23 06:44:17.6      84    -69     26    110    114 129.5  13.7  33944  285.93 0855.07
2009/04/23 06:44:17.7      59    -82     30    102    107 144.4  16.8  33944  285.93 0855.07
2009/04/23 06:44:17.8      87    -87     -6    124    125 134.9  -3.1  33946  285.95 0855.07
2009/04/23 06:44:17.9      94    -78      1    123    124 129.6   0.7  33938  285.83 0855.07
2009/04/23 06:44:18.0     102   -115     43    154    161 138.5  15.8  33944  285.93 0855.08
2009/04/23 06:44:18.1      63   -163     43    175    181 158.8  13.9  33944  285.93 0855.08
2009/04/23 06:44:18.2      34   -164     15    168    169 168.0   5.2  33942  285.90 0855.08
2009/04/23 06:44:18.3      32   -176     29    179    182 169.5   9.3  33944  285.92 0855.08
2009/04/23 06:44:18.4      68   -190     72    203    215 160.2  20.0  33948  285.98 0855.08
2009/04/23 06:44:18.5      95   -193     76    216    230 153.9  19.4  33946  285.97 0855.08
2009/04/23 06:44:18.6      95   -193     74    216    229 153.9  18.9  33946  285.97 0855.08
2009/04/23 06:44:18.7      70   -224     75    235    247 162.4  17.7  33948  285.98 0855.08
2009/04/23 06:44:18.8     125   -207     34    242    245 148.8   8.0  33944  285.91 0855.08
2009/04/23 06:44:18.9     130   -221     50    257    262 149.5  11.1  33950  286.03 0855.08
2009/04/23 06:44:19.0     132   -238     32    273    275 151.0   6.9  33950  286.01 0855.07
2009/04/23 06:44:19.1     130   -226      7    261    262 150.1   1.6  33952  286.06 0855.07
2009/04/23 06:44:19.2     129   -231     30    265    267 150.8   6.5  33958  286.15 0855.07
2009/04/23 06:44:19.3     142   -224     -5    266    267 147.7  -1.3  33950  286.03 0855.07
2009/04/23 06:44:19.4     122   -208     -7    242    243 149.5  -1.8  33956  286.13 0855.07
2009/04/23 06:44:19.5     129   -202    -17    241    242 147.4  -4.1  33952  286.06 0855.07
2009/04/23 06:44:19.6     143   -192     -5    240    241 143.3  -1.3  33954  286.09 0855.07
2009/04/23 06:44:19.7     135   -179    -45    225    230 143.0 -11.5  33948  286.00 0855.07
2009/04/23 06:44:19.8     127   -193    -21    232    233 146.6  -5.2  33952  286.05 0855.07
2009/04/23 06:44:19.9     105   -205    -15    231    232 152.8  -3.7  33954  286.08 0855.07
2009/04/23 06:44:20.0      87   -200     11    219    220 156.4   2.9  33950  286.03 0855.07
2009/04/23 06:44:20.1      53   -215     50    222    228 166.0  12.9  33952  286.07 0855.07
2009/04/23 06:44:20.2      57   -231     22    239    241 166.0   5.4  33954  286.08 0855.07
2009/04/23 06:44:20.3      37   -248     54    251    257 171.5  12.2  33950  286.03 0855.07
2009/04/23 06:44:20.4      12   -226     58    227    235 176.9  14.5  33946  285.95 0855.07
2009/04/23 06:44:20.5      38   -220     25    224    226 170.2   6.5  33948  285.98 0855.07
2009/04/23 06:44:20.6      16   -247     13    248    249 176.2   3.1  33946  285.96 0855.07
2009/04/23 06:44:20.7      -8   -266     15    267    268 181.8   3.3  33948  285.99 0855.07
2009/04/23 06:44:20.8     -41   -301     -5    304    305 187.8  -1.1  33950  286.01 0855.07
2009/04/23 06:44:20.9     -24   -312     27    314    316 184.5   5.1  33956  286.13 0855.07
2009/04/23 06:44:21.0     -34   -317     20    319    320 186.3   3.7  33962  286.21 0855.07
2009/04/23 06:44:21.1     -48   -302     15    306    307 189.1   2.9  33958  286.16 0855.07
2009/04/23 06:44:21.2     -32   -297      8    299    300 186.3   1.6  33964  286.25 0855.07
2009/04/23 06:44:21.3     -30   -329    -10    331    332 185.4  -1.8  33960  286.19 0855.07
2009/04/23 06:44:21.4     -33   -356      4    358    359 185.4   0.7  33958  286.17 0855.07
2009/04/23 06:44:21.5     -24   -315    -51    317    322 184.5  -9.1  33954  286.08 0855.07
2009/04/23 06:44:21.6     -31   -320    -71    322    330 185.6 -12.5  33956  286.13 0855.07
2009/04/23 06:44:21.7     -13   -302    -58    303    309 182.6 -10.9  33962  286.21 0855.07
2009/04/23 06:44:21.8      20   -272    -15    273    274 175.6  -3.2  33962  286.21 0855.07
2009/04/23 06:44:21.9     -15   -243    -27    244    246 183.6  -6.5  33964  286.25 0855.07
2009/04/23 06:44:22.0     -22   -240    -66    242    252 185.3 -15.4  33962  286.21 0855.07
2009/04/23 06:44:22.1     -36   -238    -30    241    243 188.7  -7.3  33962  286.21 0855.07
2009/04/23 06:44:22.2     -47   -235    -46    240    245 191.5 -10.9  33962  286.21 0855.07
2009/04/23 06:44:22.3     -53   -253    -71    259    269 192.0 -15.4  33962  286.21 0855.07
2009/04/23 06:44:22.4     -60   -274    -65    281    289 192.5 -13.2  33962  286.23 0855.07
2009/04/23 06:44:22.5     -52   -264    -54    270    276 191.1 -11.3  33962  286.23 0855.07
2009/04/23 06:44:22.6     -46   -269    -53    273    279 189.7 -11.1  33966  286.28 0855.07
2009/04/23 06:44:22.7     -35   -275    -50    278    283 187.3 -10.3  33964  286.26 0855.07
2009/04/23 06:44:22.8     -32   -258    -46    261    266 187.1 -10.1  33962  286.21 0855.07
2009/04/23 06:44:22.9     -19   -245    -31    246    248 184.5  -7.2  33962  286.21 0855.07
2009/04/23 06:44:23.0     -30   -243    -20    245    246 187.1  -4.9  33962  286.23 0855.07
2009/04/23 06:44:23.1     -34   -236    -17    239    240 188.2  -4.1  33962  286.21 0855.07
2009/04/23 06:44:23.2      -3   -238    -30    239    241 180.9  -7.3  33962  286.21 0855.07
2009/04/23 06:44:23.3      -2   -239    -13    240    241 180.7  -3.1  33962  286.21 0855.07
2009/04/23 06:44:23.4     -52   -234    -36    240    243 192.7  -8.6  33962  286.23 0855.07
2009/04/23 06:44:23.5     -54   -246    -22    252    254 192.5  -5.2  33964  286.26 0855.07
2009/04/23 06:44:23.6     -43   -252    -34    256    259 189.8  -7.7  33966  286.28 0855.07
2009/04/23 06:44:23.7     -24   -240    -22    242    244 185.8  -5.4  33960  286.18 0855.07
2009/04/23 06:44:23.8      -7   -223    -10    224    225 182.0  -2.6  33958  286.15 0855.07
2009/04/23 06:44:23.9       2   -220    -15    221    222 179.3  -3.9  33954  286.08 0855.07
2009/04/23 06:44:24.0     -31   -212    -27    215    217 188.5  -7.3  33960  286.19 0855.07
2009/04/23 06:44:24.1     -28   -202    -29    205    208 188.0  -8.2  33964  286.27 0855.07
2009/04/23 06:44:24.2     -35   -197    -33    201    204 190.2  -9.3  33964  286.25 0855.07
2009/04/23 06:44:24.3     -37   -200    -26    204    206 190.7  -7.3  33964  286.25 0855.07
2009/04/23 06:44:24.4     -32   -204    -27    207    209 188.9  -7.5  33964  286.25 0855.07
2009/04/23 06:44:24.5     -30   -188    -20    191    193 189.1  -6.0  33958  286.17 0855.07
2009/04/23 06:44:24.6     -39   -197    -31    201    204 191.3  -9.0  33960  286.20 0855.07
2009/04/23 06:44:24.7     -61   -183    -44    193    199 198.5 -12.9  33960  286.20 0855.07
2009/04/23 06:44:24.8     -74   -168    -33    184    188 203.8 -10.3  33958  286.17 0855.07
2009/04/23 06:44:24.9     -82   -176      0    195    196 204.9   0.2  33958  286.15 0855.07
2009/04/23 06:44:25.0     -96   -157    -26    185    187 211.4  -8.2  33958  286.15 0855.08
2009/04/23 06:44:25.1     -93   -132    -18    162    164 215.2  -6.5  33964  286.27 0855.08
2009/04/23 06:44:25.2     -86   -135     -9    161    162 212.6  -3.3  33960  286.19 0855.08
2009/04/23 06:44:25.3     -88   -138      0    164    165 212.5   0.0  33960  286.20 0855.08
2009/04/23 06:44:25.4     -55   -155    -21    165    167 199.8  -7.3  33962  286.24 0855.08
2009/04/23 06:44:25.5     -54   -148    -24    158    160 200.1  -8.8  33962  286.24 0855.08
2009/04/23 06:44:25.6     -42   -139    -21    146    148 197.0  -8.2  33962  286.22 0855.08
2009/04/23 06:44:25.7     -37   -138    -18    144    146 195.2  -7.2  33962  286.22 0855.08
2009/04/23 06:44:25.8     -38   -129    -17    135    137 196.5  -7.2  33960  286.20 0855.08
2009/04/23 06:44:25.9     -20   -113    -12    115    116 190.2  -6.2  33962  286.22 0855.08
2009/04/23 06:44:26.0     -12    -86      3     87     88 188.5   2.3  33964  286.25 0855.08
2009/04/23 06:44:26.1     -40    -50     24     65     69 218.7  20.0  33960  286.19 0855.08
2009/04/23 06:44:26.2     -54    -57     35     79     86 223.2  25.1  33958  286.17 0855.08
2009/04/23 06:44:26.3     -90    -52    -13    105    106 239.8  -7.3  33958  286.15 0855.08
2009/04/23 06:44:26.4     -74    -51    -22     90     93 235.4 -13.9  33960  286.20 0855.08
2009/04/23 06:44:26.5     -78    -49    -30     93     97 237.6 -23.8  33960  286.19 0855.08
2009/04/23 06:44:26.6     -78    -49    -30     93     97 237.6 -23.8  33960  286.19 0855.08
2009/04/23 06:44:26.7     -73    -72    -37    103    109 225.6 -24.4  33958  286.15 0855.08
2009/04/23 06:44:26.8     -70    -70    -35     99    106 225.0 -19.6  33960  286.20 0855.08
2009/04/23 06:44:26.9     -73    -70    -31    102    107 226.0 -17.0  33958  286.17 0855.08
2009/04/23 06:44:27.0     -71    -68    -28     99    102 226.0 -20.2  33962  286.22 0855.08
2009/04/23 06:44:27.1     -57    -58    -28     82     86 224.5 -23.3  33962  286.22 0855.08
2009/04/23 06:44:27.2     -55    -55    -31     79     84 225.1 -26.4  33960  286.19 0855.08
2009/04/23 06:44:27.3     -37    -51    -37     64     73 216.1 -36.8  33960  286.20 0855.08
2009/04/23 06:44:27.4     -37    -58    -37     70     79 212.6 -34.7  33962  286.22 0855.08
2009/04/23 06:44:27.5     -35    -64    -48     74     88 209.0 -40.4  33960  286.19 0855.08
2009/04/23 06:44:27.6     -40    -64    -46     76     88 212.6 -38.8  33958  286.17 0855.08
2009/04/23 06:44:27.7     -48    -58    -46     76     88 219.6 -38.8  33962  286.22 0855.08
2009/04/23 06:44:27.8     -70    -45    -44     84     94 237.6 -34.2  33956  286.14 0855.08
2009/04/23 06:44:27.9     -39    -41    -57     57     80 223.2 -54.5  33956  286.12 0855.08
2009/04/23 06:44:28.0     -52    -49    -78     72    106 226.9 -56.6  33950  286.02 0855.08
2009/04/23 06:44:28.1     -70    -45    -77     84    113 237.6 -52.3  33952  286.05 0855.08
2009/04/23 06:44:28.2     -54    -35    -65     65     91 236.7 -54.5  33950  286.03 0855.08
2009/04/23 06:44:28.3     -36    -65    -72     75    103 208.9 -53.4  33952  286.07 0855.08
2009/04/23 06:44:28.4     -26    -70    -73     75    104 200.9 -54.4  33948  286.00 0855.08
2009/04/23 06:44:28.5      20    -75    -74     78    107 164.9 -52.9  33952  286.05 0855.08
2009/04/23 06:44:28.6      59    -74    -64     95    114 141.3 -40.9  33952  286.05 0855.08
2009/04/23 06:44:28.7      57   -104    -33    119    123 151.1 -20.2  33958  286.15 0855.08
2009/04/23 06:44:28.8      67    -99    -49    120    129 145.7 -27.4  33956  286.14 0855.08
2009/04/23 06:44:28.9      39   -115    -55    122    133 161.3 -30.1  33956  286.12 0855.08
2009/04/23 06:44:29.0      40   -131    -17    138    140 163.0  -7.3  33960  286.19 0855.09
2009/04/23 06:44:29.1      37   -157    -19    162    164 166.6  -6.7  33956  286.12 0855.09
2009/04/23 06:44:29.2      29   -160    -18    163    165 169.5  -6.5  33958  286.17 0855.09
2009/04/23 06:44:29.3      39   -157    -15    162    163 166.0  -5.6  33956  286.14 0855.09
2009/04/23 06:44:29.4      31   -139    -23    143    145 167.1  -9.3  33958  286.15 0855.09
2009/04/23 06:44:29.5      19   -154    -31    156    160 172.9 -11.3  33960  286.19 0855.09
2009/04/23 06:44:29.6      30   -150    -16    154    155 168.4  -6.2  33958  286.17 0855.09
2009/04/23 06:44:29.7      27   -158     -6    161    162 170.3  -2.2  33960  286.19 0855.09
2009/04/23 06:44:29.8      34   -170     -6    174    175 168.5  -2.2  33956  286.14 0855.09
2009/04/23 06:44:29.9      30   -206    -10    209    210 171.5  -2.8  33958  286.17 0855.09
2009/04/23 06:44:30.0      42   -197    -15    202    203 168.0  -4.4  33956  286.12 0855.09
2009/04/23 06:44:30.1      42   -159      1    165    166 165.1   0.5  33954  286.10 0855.09
2009/04/23 06:44:30.2      24   -161    -15    163    164 171.5  -5.4  33956  286.14 0855.09
2009/04/23 06:44:30.3      34   -163    -23    167    169 168.0  -8.0  33954  286.10 0855.09
2009/04/23 06:44:30.4      43   -171    -11    177    178 165.7  -3.7  33956  286.14 0855.09
2009/04/23 06:44:30.5      42   -131    -46    138    146 162.2 -18.7  33954  286.10 0855.09
2009/04/23 06:44:30.6      17   -119    -41    121    128 171.5 -18.7  33956  286.12 0855.09
2009/04/23 06:44:30.7       8   -147    -41    148    154 176.9 -15.5  33952  286.07 0855.09
2009/04/23 06:44:30.8       9   -153    -41    154    160 176.4 -15.0  33950  286.03 0855.09
2009/04/23 06:44:30.9       9   -155    -56    156    165 176.4 -24.6  33952  286.05 0855.09
2009/04/23 06:44:31.0      49   -172    -35    179    183 164.0 -11.3  33952  286.07 0855.09
2009/04/23 06:44:31.1      17   -141    -41    143    148 172.9 -20.7  33956  286.12 0855.09
2009/04/23 06:44:31.2     -10   -136    -71    137    154 184.5 -33.7  33956  286.12 0855.09
2009/04/23 06:44:31.3     -22   -132    -70    134    151 189.8 -33.7  33956  286.12 0855.09
2009/04/23 06:44:31.4       1   -141    -54    142    151 179.5 -25.9  33958  286.17 0855.09
2009/04/23 06:44:31.5       0   -132    -47    133    141 180.4 -24.8  33958  286.17 0855.09
2009/04/23 06:44:31.6       0   -132    -47    133    141 180.4 -24.8  33958  286.17 0855.09
2009/04/23 06:44:31.7      19   -112    -54    114    126 170.2 -31.6  33956  286.12 0855.09
2009/04/23 06:44:31.8      31    -95    -36    101    108 161.7 -19.6  33954  286.10 0855.09
2009/04/23 06:44:31.9      42    -94    -21    103    106 155.9 -11.9  33956  286.14 0855.09
2009/04/23 06:44:32.0      59   -106    -31    122    127 151.0 -14.5  33954  286.10 0855.09
2009/04/23 06:44:32.1      76   -106    -11    131    132 144.0  -5.2  33954  286.10 0855.09
2009/04/23 06:44:32.2      68    -93    -18    116    118 143.9  -8.8  33952  286.07 0855.09
2009/04/23 06:44:32.3      58    -97     -2    114    115 149.3  -1.3  33952  286.05 0855.09
2009/04/23 06:44:32.5      59    -86     -4    105    106 145.7  -2.6  33956  286.12 0855.09
2009/04/23 06:44:32.6      66    -86     -9    109    110 142.2  -5.2  33954  286.10 0855.09
2009/04/23 06:44:32.6      68    -97    -23    119    122 144.8 -11.3  33956  286.14 0855.09
2009/04/23 06:44:32.8      71   -104    -35    127    132 145.7 -15.5  33954  286.10 0855.09
2009/04/23 06:44:32.8      92   -102    -22    138    140 138.1  -9.3  33952  286.07 0855.09
2009/04/23 06:44:32.9     107    -97      4    145    146 132.2   1.8  33952  286.05 0855.09
2009/04/23 06:44:33.0      91    -97     31    134    138 136.8  13.2  33954  286.10 0855.09
2009/04/23 06:44:33.2      39   -104    -22    112    115 159.1 -11.3  33956  286.14 0855.09
2009/04/23 06:44:33.2      39   -104    -33    112    117 159.5 -16.6  33954  286.08 0855.09
2009/04/23 06:44:33.3      54   -136     -5    147    148 158.1  -2.2  33954  286.08 0855.09
2009/04/23 06:44:33.5      67   -168    -50    181    188 158.2 -15.5  33954  286.08 0855.09
2009/04/23 06:44:33.5     111   -187    -51    218    224 149.3 -13.2  33952  286.05 0855.09
2009/04/23 06:44:33.6     103   -179     10    207    208 150.1   2.9  33954  286.08 0855.09
2009/04/23 06:44:33.7      94   -177      8    201    202 151.9   2.3  33954  286.10 0855.09
2009/04/23 06:44:33.9     107   -121     25    162    164 138.6   8.8  33954  286.08 0855.09
2009/04/23 06:44:34.0     111   -136     56    176    185 140.8  17.9  33954  286.08 0855.09
2009/04/23 06:44:34.1     111   -171     23    205    207 147.0   6.5  33952  286.07 0855.09
2009/04/23 06:44:34.1     134   -184     24    229    231 143.9   6.1  33954  286.10 0855.09
2009/04/23 06:44:34.2     142   -188     51    236    242 143.0  12.4  33954  286.09 0855.09
2009/04/23 06:44:34.4     127   -159     21    204    206 141.3   5.9  33954  286.08 0855.09
2009/04/23 06:44:34.4     107   -182     37    212    216 149.5  10.1  33954  286.08 0855.09
2009/04/23 06:44:34.5      76   -167     59    184    194 155.3  17.9  33950  286.03 0855.09
2009/04/23 06:44:34.7      73   -146     34    164    168 153.3  12.0  33958  286.15 0855.09
2009/04/23 06:44:34.8     -77   -115     94    139    167 213.8  37.3  33962  286.24 0855.09
2009/04/23 06:44:34.9     -34    -97     69    103    123 199.6  37.0  33966  286.30 0855.09
2009/04/23 06:44:35.0     -94    -41     52    103    115 246.0  28.2  33966  286.30 0855.09
2009/04/23 06:44:35.1     -52    -98     88    112    142 208.1  42.2  33958  286.15 0855.10
2009/04/23 06:44:35.1      42    -88     59     98    114 154.1  34.4  33964  286.25 0855.10
2009/04/23 06:44:35.3      79   -112     35    138    143 144.8  14.3  33954  286.08 0855.10
2009/04/23 06:44:35.4     109   -115     63    159    171 136.7  22.8  33952  286.05 0855.10
2009/04/23 06:44:35.4     133   -126     53    184    192 133.6  16.3  33952  286.07 0855.10
2009/04/23 06:44:35.5     130   -135     27    188    190 135.9   8.2  33956  286.14 0855.10
2009/04/23 06:44:35.6      59   -134      7    147    148 156.3   2.8  33970  286.35 0855.10
2009/04/23 06:44:35.8       1    -76     28     77     81 179.1  20.4  33966  286.30 0855.10
2009/04/23 06:44:35.9     -38    -38     45     55     71 225.0  43.7  33972  286.39 0855.10
2009/04/23 06:44:35.9     -86    -27     52     91    104 252.3  32.4  33960  286.20 0855.10
2009/04/23 06:44:36.0     -68      3     13     69     71 272.6  11.0  33962  286.22 0855.10
2009/04/23 06:44:36.2      55    -41     23     69     74 126.9  18.9  33966  286.29 0855.10
2009/04/23 06:44:36.3     -34   -185      0    189    190 190.5   0.0  33952  286.05 0855.10
2009/04/23 06:44:36.4     -41   -188     12    193    194 192.5   3.6  33948  286.00 0855.10
2009/04/23 06:44:36.5     -60   -153    -51    165    173 201.6 -17.3  33946  285.97 0855.10
2009/04/23 06:44:36.6     -62    -99    -46    117    125 212.1 -26.9  33950  286.03 0855.10
2009/04/23 06:44:36.7     -78   -111     -3    136    137 215.2  -1.3  33952  286.07 0855.10
2009/04/23 06:44:36.8     -41   -104    -18    113    115 201.8  -9.3  33950  286.02 0855.10
2009/04/23 06:44:36.9      37   -105     -7    112    113 160.4  -3.7  33952  286.07 0855.10
2009/04/23 06:44:37.0       9   -126     -4    127    128 175.5  -2.2  33954  286.10 0855.10
2009/04/23 06:44:37.1       9   -128      1    129    130 176.0   0.8  33956  286.12 0855.10
2009/04/23 06:44:37.2     -10   -124     -4    125    126 184.9  -2.2  33954  286.08 0855.10
2009/04/23 06:44:37.3     -21   -118    -21    120    122 190.2 -10.3  33954  286.10 0855.10
2009/04/23 06:44:37.4     -67   -150    -12    165    166 204.1  -4.4  33954  286.10 0855.10
2009/04/23 06:44:37.5     -38   -187    -10    191    192 191.5  -3.1  33962  286.24 0855.10
2009/04/23 06:44:37.6     -64   -116     16    133    135 209.0   7.1  33962  286.22 0855.10
2009/04/23 06:44:37.7      -9   -185     14    186    187 182.9   4.6  33960  286.20 0855.10
2009/04/23 06:44:37.8     -27   -186      1    189    190 188.5   0.5  33954  286.08 0855.10
2009/04/23 06:44:37.9     -38   -151    -11    156    157 194.3  -4.1  33954  286.08 0855.10
2009/04/23 06:44:38.0     -59   -151    -19    163    165 201.4  -6.7  33954  286.10 0855.10
2009/04/23 06:44:38.1     -70   -147      6    164    165 205.6   2.3  33956  286.12 0855.10
2009/04/23 06:44:38.2     -48   -170    -22    177    179 196.0  -7.2  33956  286.14 0855.10
2009/04/23 06:44:38.3     -29   -175     14    178    179 189.6   4.6  33956  286.12 0855.10
2009/04/23 06:44:38.4     -31   -156      3    160    161 191.5   1.2  33954  286.08 0855.10
2009/04/23 06:44:38.5     -45   -158      3    165    166 196.0   1.2  33960  286.19 0855.10
2009/04/23 06:44:38.6     -17   -140     -3    142    143 187.1  -1.3  33964  286.27 0855.10
2009/04/23 06:44:38.7     -59   -121    -33    135    140 206.3 -13.9  33956  286.12 0855.10
2009/04/23 06:44:38.8     -62    -86    -34    107    112 216.0 -23.3  33954  286.08 0855.10
2009/04/23 06:44:38.9     -60    -60    -29     86     91 225.0 -19.1  33956  286.14 0855.10
2009/04/23 06:44:39.0     -51    -86     -5    100    101 210.7  -3.1  33956  286.12 0855.10
2009/04/23 06:44:39.1     -48    -86     -5     99    100 209.4  -3.1  33954  286.10 0855.09
2009/04/23 06:44:39.2     -55    -86    -10    103    104 212.5  -5.6  33948  286.00 0855.09
2009/04/23 06:44:39.3     -63    -70     -4     95     96 221.9  -2.6  33948  286.00 0855.09
2009/04/23 06:44:39.4     -71    -48     19     86     89 235.8  12.6  33948  286.00 0855.09
2009/04/23 06:44:39.5     -48    -45     23     67     71 226.9  18.9  33948  286.00 0855.09
2009/04/23 06:44:39.6     -45    -48     36     66     75 223.2  31.4  33950  286.03 0855.09
2009/04/23 06:44:39.7     -51    -47     31     70     76 226.8  25.1  33954  286.08 0855.09
2009/04/23 06:44:39.8     -53    -56     30     78     83 223.3  21.5  33960  286.19 0855.09
2009/04/23 06:44:39.9     -57    -73     15     93     95 218.3   9.5  33956  286.14 0855.09
2009/04/23 06:44:40.0     -39    -62     11     74     75 212.6   9.0  33954  286.08 0855.09
2009/04/23 06:44:40.1     -47    -57     13     75     77 219.6  10.1  33946  285.97 0855.09
2009/04/23 06:44:40.2     -38    -49      6     63     64 217.8   5.9  33946  285.97 0855.09
2009/04/23 06:44:40.3     -24    -61     -3     66     67 201.8  -3.1  33956  286.14 0855.09
2009/04/23 06:44:40.4     -32    -66      3     74     75 206.3   2.9  33956  286.12 0855.09
2009/04/23 06:44:40.5     -42    -71      4     83     84 210.7   2.9  33956  286.12 0855.09
2009/04/23 06:44:40.6     -71    -55     14     90     92 232.2   9.0  33948  286.00 0855.09
2009/04/23 06:44:40.7     -75    -37     17     84     86 243.8  11.6  33948  285.98 0855.09
2009/04/23 06:44:40.8     -87    -35     38     94    101 247.8  23.0  33946  285.95 0855.09
2009/04/23 06:44:40.9     -44    -40     15     60     62 227.8  14.3  33948  286.00 0855.09
2009/04/23 06:44:41.0     -55     37     45     67     80 304.2  37.6  33948  286.00 0855.09
2009/04/23 06:44:41.1     -31     14     61     35     70 295.3  67.7  33944  285.92 0855.09
2009/04/23 06:44:41.2     -12     14     66     19     68 318.6  82.8  33944  285.92 0855.09
2009/04/23 06:44:41.3       8    -14     68     17     70 151.0  86.9  33946  285.95 0855.09
2009/04/23 06:44:41.4      14    -17     51     23     55 140.4  74.0  33954  286.08 0855.09
2009/04/23 06:44:41.5      37    -32     40     50     64 131.3  43.7  33958  286.17 0855.09
2009/04/23 06:44:41.6      38    -34     24     52     57 132.2  27.1  33964  286.27 0855.09
2009/04/23 06:44:41.7      43    -52     13     68     70 140.3  11.1  33972  286.39 0855.09
2009/04/23 06:44:41.8      65    -56     35     86     92 130.9  23.0  33964  286.25 0855.09
2009/04/23 06:44:41.9      50    -53     28     74     79 136.8  21.5  33964  286.27 0855.09
2009/04/23 06:44:42.0      38    -60     25     72     77 147.5  19.2  33964  286.25 0855.09
2009/04/23 06:44:42.1      31    -79     31     86     91 158.2  20.0  33962  286.24 0855.09
2009/04/23 06:44:42.2      26    -84     30     89     95 162.6  18.9  33960  286.19 0855.09
2009/04/23 06:44:42.3      28    -87     12     92     93 162.2   7.5  33954  286.08 0855.09
2009/04/23 06:44:42.4      27    -94     -3     98     99 164.0  -2.2  33950  286.03 0855.09
2009/04/23 06:44:42.5      34   -104     32    110    115 161.7  16.3  33950  286.03 0855.09
2009/04/23 06:44:42.6      40    -95     35    104    110 157.3  18.9  33958  286.15 0855.09
2009/04/23 06:44:42.7      39    -97     28    105    109 157.7  15.3  33962  286.22 0855.09
2009/04/23 06:44:42.8      51    -74     37     91     98 145.3  23.1  33958  286.17 0855.09
2009/04/23 06:44:42.9      33   -119     56    124    136 164.4  26.2  33960  286.19 0855.09
2009/04/23 06:44:43.0      69   -174     26    188    190 158.4   8.0  33952  286.05 0855.09
2009/04/23 06:44:43.1      43   -187     -6    192    193 166.9  -1.8  33952  286.07 0855.09
2009/04/23 06:44:43.2      30    -92      4     97     98 161.7   2.9  33958  286.17 0855.09
2009/04/23 06:44:43.3     -56    -94     83    110    137 210.7  41.2  33960  286.19 0855.09
2009/04/23 06:44:43.4     -14    -77     94     79    122 190.7  55.8  33962  286.24 0855.09
2009/04/23 06:44:43.5      26   -146      7    149    150 169.8   2.8  33952  286.05 0855.09
2009/04/23 06:44:43.6      86   -189     41    208    213 155.5  11.1  33950  286.03 0855.09
2009/04/23 06:44:43.7     168   -247     75    299    309 145.8  14.2  33952  286.06 0855.09
2009/04/23 06:44:43.8      88   -244     90    260    276 160.2  19.2  33954  286.08 0855.09
2009/04/23 06:44:43.9     113   -249     96    274    291 155.5  19.4  33954  286.08 0855.09
2009/04/23 06:44:44.0       0   -217     59    218    226 180.2  15.2  33954  286.10 0855.09
2009/04/23 06:44:44.1      15   -208     45    209    214 175.6  12.2  33958  286.15 0855.09
2009/04/23 06:44:44.2      35   -178    -25    182    184 168.7  -8.0  33952  286.07 0855.09
2009/04/23 06:44:44.3      48   -203     10    209    210 166.6   2.9  33950  286.03 0855.09
2009/04/23 06:44:44.4     -11   -248     53    249    255 182.7  12.0  33956  286.11 0855.09
2009/04/23 06:44:44.5      18   -187     54    188    196 174.2  16.3  33966  286.29 0855.09
2009/04/23 06:44:44.6     -44   -219     -8    224    225 191.6  -2.2  33954  286.08 0855.09
2009/04/23 06:44:44.7     -84   -192     13    210    211 203.8   3.8  33954  286.08 0855.09
2009/04/23 06:44:44.8      -8   -111     52    112    123 184.4  26.6  33966  286.29 0855.09
2009/04/23 06:44:44.9     -19   -110     43    112    119 190.2  21.5  33964  286.25 0855.09
2009/04/23 06:44:45.0     -71   -112     29    133    137 212.5  12.6  33960  286.19 0855.09
2009/04/23 06:44:45.1     -15    -95     23     97    100 189.3  13.7  33966  286.30 0855.09
2009/04/23 06:44:45.2      25    -64    -19     69     72 158.2 -15.5  33966  286.30 0855.09
2009/04/23 06:44:45.3       9    -65    -12     66     68 171.9 -10.3  33966  286.29 0855.09
2009/04/23 06:44:45.4      36    -17     27     40     48 115.3  36.5  33964  286.25 0855.09
2009/04/23 06:44:45.5      59    -32     34     68     76 118.9  28.2  33960  286.20 0855.09
2009/04/23 06:44:45.6      24    -74     63     78    100 161.7  43.3  33968  286.32 0855.09
2009/04/23 06:44:45.7       8   -106     -4    107    108 175.6  -2.2  33960  286.20 0855.09
2009/04/23 06:44:45.8      21   -102    -31    105    109 168.0 -21.7  33960  286.19 0855.09
2009/04/23 06:44:45.9      68    -46     23     83     87 124.2  15.8  33962  286.22 0855.09
2009/04/23 06:44:46.0      62    -45     95     77    122 126.0  56.4  33956  286.12 0855.09
2009/04/23 06:44:46.1      56    -52     68     77    102 133.1  46.4  33952  286.05 0855.10
2009/04/23 06:44:46.2      23    -86     21     90     93 164.9  13.7  33950  286.03 0855.10
2009/04/23 06:44:46.3      21    -87     22     90     93 166.2  14.3  33950  286.03 0855.10
2009/04/23 06:44:46.4      24   -139     16    142    143 170.2   6.5  33952  286.07 0855.10
2009/04/23 06:44:46.5      73   -114     42    136    143 147.5  17.3  33952  286.05 0855.10
2009/04/23 06:44:46.6      81    -99     50    129    138 140.8  22.5  33956  286.12 0855.10
2009/04/23 06:44:46.7      76   -130     59    151    162 149.7  22.3  33958  286.15 0855.10
2009/04/23 06:44:46.8      91   -126     21    156    158 143.9   8.0  33952  286.07 0855.10
2009/04/23 06:44:46.9      56    -47     25     74     79 130.4  18.9  33960  286.20 0855.10
2009/04/23 06:44:47.0      69    -89     90    113    144 142.2  42.7  33956  286.12 0855.10
2009/04/23 06:44:47.1      81    -97     65    127    142 139.9  29.3  33952  286.07 0855.10
2009/04/23 06:44:47.2      96    -43     -7    106    107 114.0  -4.1  33952  286.05 0855.10
2009/04/23 06:44:47.3      14     29     33     33     46  25.4  50.1  33952  286.07 0855.10
2009/04/23 06:44:47.4      61    -90     89    109    140 145.7  43.7  33952  286.07 0855.10
2009/04/23 06:44:47.5      75   -124     72    146    162 148.8  28.2  33952  286.07 0855.10
2009/04/23 06:44:47.6      38   -103     67    110    128 159.5  34.4  33950  286.02 0855.10
2009/04/23 06:44:47.7      50    -77     64     92    112 147.0  38.6  33948  285.98 0855.10
2009/04/23 06:44:47.8      64    -51     41     82     91 128.6  28.2  33948  286.00 0855.10
2009/04/23 06:44:47.9      90    -55     12    106    107 121.5   6.5  33948  285.98 0855.10
2009/04/23 06:44:48.0      81    -41      4     91     92 117.1   2.9  33950  286.03 0855.10
2009/04/23 06:44:48.1      80    -40      6     90     91 117.1   3.8  33948  286.00 0855.09
2009/04/23 06:44:48.2     100    -63     13    119    120 122.4   6.5  33946  285.97 0855.09
2009/04/23 06:44:48.3     104    -85     26    135    138 129.1  11.1  33946  285.97 0855.09
2009/04/23 06:44:48.4     111    -72     29    133    137 122.9  12.6  33944  285.93 0855.09
2009/04/23 06:44:48.5     127   -104     15    165    166 129.5   5.4  33946  285.97 0855.09
2009/04/23 06:44:48.6     160   -140      0    213    214 131.1  -0.3  33950  286.02 0855.09
2009/04/23 06:44:48.7     117   -167     59    205    214 145.0  16.0  33964  286.25 0855.09
2009/04/23 06:44:48.8      55   -139     68    150    164 158.2  26.2  33966  286.29 0855.09
2009/04/23 06:44:48.9      44   -216     82    221    235 168.5  21.0  33954  286.10 0855.09
2009/04/23 06:44:49.0     -59   -155     36    166    170 200.9  12.4  33958  286.15 0855.09
2009/04/23 06:44:49.1       0    -30     54     31     62 180.9  68.8  33958  286.17 0855.09
2009/04/23 06:44:49.2      14    -49    102     52    114 164.0  70.8  33960  286.19 0855.09
2009/04/23 06:44:49.3      59    -43     90     74    116 125.9  56.4  33958  286.15 0855.09
2009/04/23 06:44:49.4      65    -99     57    119    131 146.6  27.3  33950  286.03 0855.09
2009/04/23 06:44:49.5      36   -111     68    117    135 161.7  33.4  33962  286.22 0855.09
2009/04/23 06:44:49.6      61   -116     -2    132    133 152.4  -1.3  33958  286.15 0855.09
2009/04/23 06:44:49.7      24    -23     68     34     76 133.3  71.9  33964  286.25 0855.09
2009/04/23 06:44:49.8      41      9     21     42     46  77.6  28.2  33966  286.29 0855.09
2009/04/23 06:44:49.9      22     -7    -11     24     26 108.2 -29.5  33968  286.32 0855.09
2009/04/23 06:44:50.0       8      0      2      9     10  89.2  15.3  33966  286.30 0855.09
2009/04/23 06:44:50.1     -35     41     32     54     62 319.5  33.5  33962  286.24 0855.09
2009/04/23 06:44:50.2     -42     80     56     91    106 331.9  35.0  33960  286.19 0855.09
2009/04/23 06:44:50.3     -43     32     62     54     82 306.9  54.3  33958  286.17 0855.09
2009/04/23 06:44:50.4      -1     42     47     43     63 357.4  52.2  33958  286.17 0855.09
2009/04/23 06:44:50.5      34     11     53     36     64  71.8  62.6  33956  286.12 0855.09
2009/04/23 06:44:50.6      -4     22     28     23     36 348.4  56.4  33956  286.12 0855.09
2009/04/23 06:44:50.7     -72    -19     31     75     81 255.0  23.6  33954  286.08 0855.09
2009/04/23 06:44:50.8      31    -91     66     97    117 160.8  37.0  33966  286.30 0855.09
2009/04/23 06:44:50.9      55    -55     80     79    112 135.0  49.7  33968  286.32 0855.09
2009/04/23 06:44:51.0      -6    -85    105     86    135 184.4  56.4  33956  286.14 0855.09
2009/04/23 06:44:51.1      42    -64     83     77    113 146.6  52.1  33954  286.08 0855.09
2009/04/23 06:44:51.2      22    -29     56     37     67 142.2  64.6  33950  286.03 0855.09
2009/04/23 06:44:51.3      14    -17     48     23     53 140.4  72.9  33950  286.02 0855.09
2009/04/23 06:44:51.4       6    -29     30     30     42 168.4  50.1  33956  286.12 0855.09
2009/04/23 06:44:51.5      15    -21     42     26     49 143.9  64.7  33948  286.00 0855.09
2009/04/23 06:44:51.6       8    -12     43     15     45 147.4  81.2  33948  285.98 0855.09
2009/04/23 06:44:51.7      -4    -45     42     46     62 185.3  47.9  33954  286.10 0855.09
2009/04/23 06:44:51.8     -69    -81     -8    107    108 220.5  -4.6  33956  286.14 0855.09
2009/04/23 06:44:51.9     -65    -69    -21     95     98 223.2 -12.4  33958  286.17 0855.09
2009/04/23 06:44:52.0    -135   -160    -57    210    218 220.3 -15.4  34014  287.11 0855.09
2009/04/23 06:44:52.1    -101    -61      6    119    120 238.9   3.3  33956  286.14 0855.09
2009/04/23 06:44:52.2    -103    -75     13    128    129 233.6   5.9  33956  286.12 0855.09
2009/04/23 06:44:52.3     -70    -55     34     90     96 231.8  21.0  33954  286.10 0855.09
2009/04/23 06:44:52.4     -47    -44     17     65     68 226.8  15.3  33954  286.08 0855.09
2009/04/23 06:44:52.5     -67    -76    -33    102    108 221.4 -18.1  33952  286.07 0855.09
2009/04/23 06:44:52.6     -83    -40      9     93     94 244.2   5.9  33950  286.02 0855.09
2009/04/23 06:44:52.7     -81    -27     30     86     92 251.4  19.2  33952  286.07 0855.09
2009/04/23 06:44:52.8     -68      0     13     69     71 270.0  11.0  33954  286.08 0855.09
2009/04/23 06:44:52.9     -54     -6     13     55     57 263.0  13.2  33954  286.08 0855.09
2009/04/23 06:44:53.0     -44     -7     22     45     50 260.3  27.3  33954  286.08 0855.09
2009/04/23 06:44:53.1     -43     -6     22     44     49 261.2  27.3  33954  286.08 0855.09
2009/04/23 06:44:53.2     -58    -15     37     61     71 254.9  35.5  33952  286.07 0855.09
2009/04/23 06:44:53.3     -81     30      4     87     88 290.8   2.8  33954  286.08 0855.09
2009/04/23 06:44:53.4     -48      0    -11     49     51 270.0 -13.4  33952  286.07 0855.09
2009/04/23 06:44:53.5       7     -7    -28     11     30 135.0 -83.6  33952  286.07 0855.09
2009/04/23 06:44:53.6      40    -27     31     49     57 124.2  35.5  33956  286.12 0855.09
2009/04/23 06:44:53.7      14    -42    -16     45     47 161.3 -23.3  33950  286.03 0855.09
2009/04/23 06:44:53.8      60    -38     48     72     86 122.5  36.5  33950  286.03 0855.09
2009/04/23 06:44:53.9      43    -68     71     81    107 147.5  45.8  33954  286.08 0855.09
2009/04/23 06:44:54.0      18    -82     52     85     99 167.5  34.4  33956  286.14 0855.09
2009/04/23 06:44:54.1       0   -108     17    109    111 180.0   9.0  33954  286.10 0855.09
2009/04/23 06:44:54.2     -10    -81     36     82     89 187.6  25.7  33956  286.14 0855.09
2009/04/23 06:44:54.3      -9    -76     30     77     82 187.1  22.0  33956  286.12 0855.09
2009/04/23 06:44:54.4     -50    -62     27     80     85 218.7  18.9  33952  286.05 0855.09
2009/04/23 06:44:54.5     -54    -65     24     85     89 219.6  16.3  33952  286.07 0855.09
2009/04/23 06:44:54.6     -74    -52     17     91     93 234.9  11.0  33950  286.02 0855.09
2009/04/23 06:44:54.7     -41    -48      2     64     65 220.5   1.8  33950  286.03 0855.09
2009/04/23 06:44:54.8     -28    -70     15     76     78 201.9  11.1  33954  286.08 0855.09
2009/04/23 06:44:54.9     -14    -91     39     93    100 188.9  24.1  33952  286.07 0855.09
2009/04/23 06:44:55.0     -67   -124      3    142    143 208.5   1.2  33950  286.02 0855.09
2009/04/23 06:44:55.1     -76   -117     27    140    143 213.0  11.1  33950  286.03 0855.09
2009/04/23 06:44:55.2     -49    -87     63    100    118 209.4  35.5  33952  286.07 0855.09
2009/04/23 06:44:55.3     -86    -85     71    122    141 225.2  32.9  33956  286.12 0855.09
2009/04/23 06:44:55.4     -48    -73     73     88    114 213.8  43.7  33954  286.10 0855.09
2009/04/23 06:44:55.5     -85    -30      4     91     92 250.5   2.9  33954  286.10 0855.09
2009/04/23 06:44:55.6    -103      3     -2    104    105 272.1  -1.3  33956  286.14 0855.09
2009/04/23 06:44:55.7     -42      2     57     43     71 273.5  58.5  33952  286.07 0855.09
2009/04/23 06:44:55.8     -13     13     46     19     49 315.0  77.1  33948  286.00 0855.09
2009/04/23 06:44:55.9      -1     42     53     43     68 357.4  56.4  33954  286.08 0855.09
2009/04/23 06:44:56.0     -23     49     71     55     89 334.6  57.9  33952  286.05 0855.09
2009/04/23 06:44:56.1     -57     30     64     65     91 298.0  50.0  33952  286.07 0855.10
2009/04/23 06:44:56.2     -41     29     46     51     68 306.0  47.9  33952  286.05 0855.10
2009/04/23 06:44:56.3       5     17     26     18     31  18.3  62.6  33956  286.12 0855.10
2009/04/23 06:44:56.4      -5     29     14     30     33 350.2  27.1  33952  286.07 0855.10
2009/04/23 06:44:56.5     -24      1     -1     25     26 274.3  -3.1  33950  286.03 0855.10
2009/04/23 06:44:56.6      -6    -11     19     13     23 209.0  60.5  33952  286.05 0855.10
2009/04/23 06:44:56.7     -17    -54     27     57     63 198.3  27.2  33948  285.98 0855.10
2009/04/23 06:44:56.8     -25    -43     22     50     54 210.7  26.2  33950  286.03 0855.10
2009/04/23 06:44:56.9      13    -23    -13     27     29 149.3 -31.7  33948  286.00 0855.10
2009/04/23 06:44:57.0      62    -75    -12     98     99 140.4  -7.3  33952  286.07 0855.10
2009/04/23 06:44:57.1      70    -52    -12     88     89 126.9  -8.2  33956  286.12 0855.10
2009/04/23 06:44:57.2      12    -81     -6     83     84 171.1  -4.1  33954  286.10 0855.10
2009/04/23 06:44:57.3      50    -32      7     60     61 122.5   7.1  33954  286.10 0855.10
2009/04/23 06:44:57.4      88    -42     39     98    105 115.4  23.0  33954  286.08 0855.10
2009/04/23 06:44:57.5      52    -81     26     97    101 147.4  15.3  33948  286.00 0855.10
2009/04/23 06:44:57.6     -19    -35     45     41     60 209.0  52.2  33948  285.98 0855.10
2009/04/23 06:44:57.7     -17    -77     19     79     82 192.9  13.7  33948  286.00 0855.10
2009/04/23 06:44:57.8     -63    -80    -19    103    105 218.3 -10.9  33946  285.95 0855.10
2009/04/23 06:44:57.9     -72    -87      8    114    115 219.6   4.4  33944  285.93 0855.10
2009/04/23 06:44:58.0    -122    -93     37    154    159 232.7  13.7  33950  286.02 0855.10
2009/04/23 06:44:58.1    -142   -129     30    193    196 227.8   9.0  33952  286.05 0855.10
2009/04/23 06:44:58.2    -160    -90      5    184    185 240.5   1.8  33950  286.02 0855.10
2009/04/23 06:44:58.3     -38   -127     34    133    138 197.0  14.7  33950  286.02 0855.10
2009/04/23 06:44:58.4     -48   -137     44    146    153 199.6  16.8  33944  285.92 0855.10
2009/04/23 06:44:58.5     -75    -52     66     92    113 235.4  39.5  33940  285.87 0855.10
2009/04/23 06:44:58.6    -160     26     44    163    169 279.2  15.3  33940  285.87 0855.10
2009/04/23 06:44:58.7    -199     47    -63    205    214 283.3 -22.1  33944  285.92 0855.10
2009/04/23 06:44:58.8    -180     13   -120    181    217 274.4 -41.1  33944  285.92 0855.10
2009/04/23 06:44:58.9    -154     53    -96    164    190 289.1 -37.5  33940  285.87 0855.10
2009/04/23 06:44:59.0     -54     17    -96     57    111 288.2 -71.2  33946  285.95 0855.10
2009/04/23 06:44:59.1     -64     27    -93     70    116 293.5 -63.8  33948  286.00 0855.10
2009/04/23 06:44:59.3     -61   -163      5    175    176 200.7   1.8  33950  286.02 0855.10
2009/04/23 06:44:59.4    -167   -145     43    222    227 229.1  11.0  33948  286.00 0855.10
2009/04/23 06:44:59.4    -182   -150     50    236    242 230.5  12.1  33954  286.09 0855.10
2009/04/23 06:44:59.5    -251   -103     11    272    273 247.6   2.5  33942  285.89 0855.10
2009/04/23 06:44:59.6    -275    -95    -16    292    293 250.9  -3.2  33936  285.77 0855.10
2009/04/23 06:44:59.8    -273    -34     -6    276    277 262.9  -1.3  33940  285.84 0855.10
2009/04/23 06:44:59.8    -222    -75     24    235    237 251.2   5.9  33936  285.79 0855.10
2009/04/23 06:44:59.9    -174    -58     13    184    185 251.6   4.2  33934  285.76 0855.10
2009/04/23 06:45:00.0    -154    -67     30    168    171 246.5  10.3  33940  285.85 0855.10
2009/04/23 06:45:00.2    -143    -95      3    173    174 236.3   1.2  33940  285.87 0855.10
2009/04/23 06:45:00.2    -208    -99     31    231    234 244.6   7.8  33932  285.71 0855.10
2009/04/23 06:45:00.3    -259    -97     -8    277    278 249.4  -1.8  33934  285.74 0855.10
2009/04/23 06:45:00.5    -263   -124    -50    292    297 244.7  -9.8  33936  285.79 0855.10
2009/04/23 06:45:00.5    -249    -64    -33    258    261 255.6  -7.3  33930  285.69 0855.10
2009/04/23 06:45:00.7    -289    -58     -5    295    296 258.6  -1.2  33936  285.77 0855.10
2009/04/23 06:45:00.8    -298   -107    -74    317    326 250.1 -13.2  33940  285.84 0855.10
2009/04/23 06:45:00.8    -247    -92    -17    264    265 249.4  -3.7  33936  285.79 0855.10
2009/04/23 06:45:00.9    -208    -73    -21    221    223 250.7  -5.6  33934  285.75 0855.10
2009/04/23 06:45:01.1    -190    -15     19    191    192 265.4   5.9  33930  285.68 0855.10
2009/04/23 06:45:01.2    -200    -58    -13    209    210 253.8  -3.7  33936  285.80 0855.10
2009/04/23 06:45:01.3    -304     46     26    308    310 278.6   4.9  33938  285.81 0855.10
2009/04/23 06:45:01.4    -228     -6    -18    229    230 268.3  -4.6  33936  285.78 0855.10
2009/04/23 06:45:01.5    -210   -106    -83    236    251 243.1 -19.4  33938  285.81 0855.10
2009/04/23 06:45:01.6    -269    -28    -74    271    282 263.9 -15.4  33936  285.77 0855.10
2009/04/23 06:45:01.7    -293      0    -85    294    306 270.0 -20.7  33940  285.86 0855.10
2009/04/23 06:45:01.7    -262     19   -109    263    284 274.3 -28.5  33938  285.83 0855.10
2009/04/23 06:45:01.9    -256    -22    -89    258    272 265.0 -23.8  33936  285.79 0855.10
2009/04/23 06:45:01.9    -227   -131    -72    263    273 240.0 -15.4  33940  285.86 0855.10
2009/04/23 06:45:02.1    -218   -121    -69    250    260 240.9 -15.4  33938  285.83 0855.10
2009/04/23 06:45:02.2    -179   -142    -68    229    240 231.6 -16.6  33942  285.89 0855.10
2009/04/23 06:45:02.3    -218   -153    -75    267    278 234.9 -15.8  33934  285.76 0855.10
2009/04/23 06:45:02.4    -276   -138    -15    309    310 243.4  -2.8  33924  285.59 0855.10
2009/04/23 06:45:02.5    -277   -104     31    297    299 249.4   6.1  33926  285.61 0855.10
2009/04/23 06:45:02.6    -228    -72     24    240    242 252.5   5.9  33928  285.64 0855.10
2009/04/23 06:45:02.7    -237    -95    -27    256    258 248.0  -6.2  33932  285.71 0855.10
2009/04/23 06:45:02.8    -239    -91    -50    256    261 249.1 -11.1  33938  285.83 0855.10
2009/04/23 06:45:02.9    -283    -52    -99    288    305 259.4 -19.1  33942  285.89 0855.10
2009/04/23 06:45:03.0    -260     24    -88    262    277 275.3 -18.7  33936  285.79 0855.10
2009/04/23 06:45:03.1    -264    -53      3    270    271 258.5   0.7  33938  285.81 0855.10
2009/04/23 06:45:03.2    -280    -80    -24    292    294 254.1  -4.9  33940  285.86 0855.10
2009/04/23 06:45:03.3    -234   -212      4    317    318 227.8   0.8  33940  285.86 0855.10
2009/04/23 06:45:03.4    -220   -144    -52    264    270 236.7 -11.1  33938  285.81 0855.10
2009/04/23 06:45:03.5    -328    -82   -132    339    363 255.9 -26.8  33940  285.87 0855.10
2009/04/23 06:45:03.6    -227     -1    -77    228    241 269.6 -18.7  33936  285.79 0855.10
2009/04/23 06:45:03.7    -225    -24    -61    227    236 263.8 -15.0  33932  285.71 0855.10
2009/04/23 06:45:03.8    -217    -58    -48    225    231 255.0 -12.2  33928  285.65 0855.10
2009/04/23 06:45:03.9    -158    -75    -53    176    184 244.5 -16.8  33928  285.65 0855.10
2009/04/23 06:45:04.0    -199    -77    -58    214    222 248.7 -15.4  33934  285.76 0855.10
2009/04/23 06:45:04.1    -279    -51    -30    284    286 259.5  -6.2  33930  285.67 0855.10
2009/04/23 06:45:04.2    -254    -35    -92    257    274 262.1 -19.7  33936  285.77 0855.10
2009/04/23 06:45:04.3    -228      0    -91    229    246 269.9 -27.4  33928  285.64 0855.10
2009/04/23 06:45:04.4    -161      0    -94    162    187 270.0 -37.3  33932  285.71 0855.10
2009/04/23 06:45:04.5     -96    -79     24    125    128 230.5  11.1  33934  285.76 0855.10
2009/04/23 06:45:04.6   -6122 -10641  -5713  12277  13541 209.9 -31.1  31946  253.26 0855.10
2009/04/23 06:45:04.7    -121   -142     66    187    199 220.5  19.4  33936  285.78 0855.10
2009/04/23 06:45:04.8    -175   -172     68    246    256 225.6  15.6  33938  285.81 0855.10
2009/04/23 06:45:04.9    -242   -170     41    296    299 234.9   8.0  33934  285.74 0855.10
2009/04/23 06:45:05.0    -259   -186     29    319    321 234.3   5.2  33938  285.81 0855.10
2009/04/23 06:45:05.1    -150   -151    -20    213    215 224.8  -5.6  33934  285.75 0855.10
2009/04/23 06:45:05.2    -155    -54    -73    165    180 250.7 -29.7  33934  285.76 0855.10
2009/04/23 06:45:05.3    -171      0    -57    172    181 270.0 -23.8  33934  285.76 0855.10
2009/04/23 06:45:05.4    -264    -32     -1    266    267 263.0  -0.3  33932  285.71 0855.10
2009/04/23 06:45:05.5    -303   -127      9    329    330 247.3   1.6  33926  285.62 0855.10
2009/04/23 06:45:05.6    -244    -64    -69    253    263 255.2 -15.4  33932  285.72 0855.10
2009/04/23 06:45:05.7    -271    -46    -65    275    283 260.3 -13.4  33932  285.72 0855.10
2009/04/23 06:45:05.8    -294   -181     48    346    350 238.4   7.9  33936  285.77 0855.10
2009/04/23 06:45:05.9    -288   -150      6    325    326 242.5   1.1  33930  285.69 0855.10
2009/04/23 06:45:06.0    -192   -123    -67    229    239 237.4 -16.5  33932  285.71 0855.10
2009/04/23 06:45:06.1    -223   -115    -77    252    264 242.7 -17.0  33936  285.77 0855.10
2009/04/23 06:45:06.2    -263   -129    -76    294    304 243.8 -14.5  33926  285.62 0855.10
2009/04/23 06:45:06.3    -227   -130    -80    262    275 240.2 -17.0  33936  285.77 0855.10
2009/04/23 06:45:06.4    -133   -197    -39    238    242 214.1  -9.3  33928  285.66 0855.10
2009/04/23 06:45:06.5     -71   -213    -47    225    230 198.5 -11.9  33936  285.80 0855.10
2009/04/23 06:45:06.6     -54   -182     29    190    193 196.7   8.8  33938  285.83 0855.10
2009/04/23 06:45:06.7     -68   -188     24    200    202 200.0   6.9  33936  285.80 0855.10
2009/04/23 06:45:06.8    -193   -130     -9    233    234 236.0  -2.2  33928  285.64 0855.10
2009/04/23 06:45:06.9    -225    -82    -25    240    242 250.0  -6.0  33924  285.59 0855.10
2009/04/23 06:45:07.0    -154   -133    -62    204    214 229.1 -17.0  33928  285.65 0855.10
2009/04/23 06:45:07.1    -128    -87    -44    155    161 235.8 -20.4  33928  285.66 0855.10
2009/04/23 06:45:07.2    -132   -146     10    197    198 222.1   2.9  33920  285.51 0855.10
2009/04/23 06:45:07.3    -191   -182     18    265    266 226.4   3.9  33928  285.64 0855.10
2009/04/23 06:45:07.4    -183   -177     50    255    260 226.0  11.1  33930  285.67 0855.10
2009/04/23 06:45:07.5    -261   -189     11    323    324 234.1   2.1  33928  285.66 0855.10
2009/04/23 06:45:07.6    -229   -215     89    315    328 226.9  15.8  33934  285.76 0855.10
2009/04/23 06:45:07.7    -257   -163    150    305    339 237.6  28.0  33932  285.73 0855.10
2009/04/23 06:45:07.8    -303   -130     51    330    335 246.7   8.9  33928  285.65 0855.10
2009/04/23 06:45:07.9    -251   -170    115    304    325 235.8  21.6  33932  285.72 0855.10
2009/04/23 06:45:08.0    -294   -157     90    334    347 241.8  15.2  33930  285.70 0855.10
2009/04/23 06:45:08.1    -252   -177     85    309    321 234.9  15.4  33938  285.81 0855.10
2009/04/23 06:45:08.2    -288   -196     81    349    359 235.8  13.1  33926  285.62 0855.10
2009/04/23 06:45:08.3    -252    -80     68    265    274 252.3  14.5  33922  285.54 0855.10
2009/04/23 06:45:08.4    -201     21    -56    203    211 276.2 -15.5  33934  285.75 0855.10
2009/04/23 06:45:08.5    -133   -125     -8    183    184 226.7  -2.6  33928  285.66 0855.10
2009/04/23 06:45:08.6    -151   -203     33    254    257 216.7   7.5  33936  285.77 0855.10
2009/04/23 06:45:08.7    -155   -156    -10    221    222 224.8  -2.6  33934  285.75 0855.10
2009/04/23 06:45:08.8    -118   -143     -7    186    187 219.7  -2.2  33930  285.68 0855.10
2009/04/23 06:45:08.9    -143   -158    -20    214    216 222.1  -5.4  33930  285.70 0855.10
2009/04/23 06:45:09.0    -214   -136    -14    254    255 237.5  -3.2  33924  285.59 0855.10
2009/04/23 06:45:09.1    -221    -68    -51    232    238 252.9 -12.6  33926  285.62 0855.10
2009/04/23 06:45:09.2    -212    -36    -87    216    232 260.4 -27.4  33934  285.75 0855.09
2009/04/23 06:45:09.3    -235     40    -85    239    254 279.7 -19.6  33934  285.74 0855.09
2009/04/23 06:45:09.4    -259     55   -107    265    285 282.2 -27.5  33940  285.86 0855.09
2009/04/23 06:45:09.5    -267     17   -101    268    286 273.7 -25.9  33938  285.83 0855.09
2009/04/23 06:45:09.6    -276    -20    -90    277    292 265.7 -18.1  33932  285.72 0855.09
2009/04/23 06:45:09.7    -292    -44   -108    296    315 261.4 -25.4  33936  285.77 0855.09
2009/04/23 06:45:09.8    -281    -18   -155    282    321 266.3 -35.7  33932  285.71 0855.09
2009/04/23 06:45:09.9    -204    -59    -73    213    226 253.8 -19.1  33930  285.68 0855.09
2009/04/23 06:45:10.0    -211   -128    -44    247    251 238.7 -10.1  33934  285.74 0855.09
2009/04/23 06:45:10.1    -177   -128    -23    219    221 234.1  -6.2  33932  285.73 0855.09
2009/04/23 06:45:10.2    -225   -116    -28    254    256 242.7  -6.5  33934  285.76 0855.09
2009/04/23 06:45:10.3    -194   -107    -64    222    232 241.1 -16.0  33932  285.71 0855.09
2009/04/23 06:45:10.4    -180    -49   -105    187    214 254.7 -36.0  33934  285.75 0855.09
2009/04/23 06:45:10.5    -205     22    -67    207    217 276.4 -23.3  33932  285.73 0855.09
2009/04/23 06:45:10.6    -315    127    -55    340    345 292.0  -9.3  33930  285.68 0855.09
2009/04/23 06:45:10.7    -320    229    -28    394    395 305.6  -4.1  33932  285.72 0855.09
2009/04/23 06:45:10.8    -413    131      6    434    435 287.7   0.8  33928  285.66 0855.09
2009/04/23 06:45:10.9    -413    110      5    428    429 285.0   0.7  33930  285.69 0855.09
2009/04/23 06:45:11.0    -359     64      6    365    366 280.1   1.0  33932  285.73 0855.09
2009/04/23 06:45:11.1    -252    114    -10    277    278 294.4  -2.2  33934  285.74 0855.09
2009/04/23 06:45:11.2    -188    246     -1    310    311 322.6  -0.3  33936  285.77 0855.09
2009/04/23 06:45:11.3    -143    183     43    233    237 321.9  10.6  33932  285.72 0855.09
2009/04/23 06:45:11.4    -122    -47    105    132    168 248.7  42.7  33932  285.71 0855.09
2009/04/23 06:45:11.5     -77    -35    109     85    138 245.2  58.4  33926  285.63 0855.09
2009/04/23 06:45:11.6    -170     83     15    190    191 296.0   4.6  33932  285.73 0855.09
2009/04/23 06:45:11.7    -195     92     14    216    217 295.4   3.8  33926  285.63 0855.09
2009/04/23 06:45:11.8    -184    138     11    230    231 306.9   2.8  33926  285.63 0855.09
2009/04/23 06:45:11.9    -163    -98    -21    191    193 238.9  -6.5  33932  285.71 0855.09
2009/04/23 06:45:12.0    -129   -108    -50    169    177 230.0 -16.6  33950  286.02 0855.09
2009/04/23 06:45:12.1     -62   -131     72    145    161 205.3  28.2  33944  285.92 0855.09
2009/04/23 06:45:12.2     -52   -181     73    189    202 196.0  22.0  33942  285.88 0855.09
2009/04/23 06:45:12.3     -49   -160     88    168    189 197.2  29.8  33942  285.88 0855.09
2009/04/23 06:45:12.4     -41    -97    101    106    146 203.2  48.5  33940  285.85 0855.09
2009/04/23 06:45:12.5       1    -64     50     65     82 179.1  41.7  33936  285.78 0855.09
2009/04/23 06:45:12.6       0    -57     30     58     65 180.9  30.3  33940  285.87 0855.09
2009/04/23 06:45:12.7      28    -68     28     74     79 157.3  21.5  33942  285.90 0855.09
2009/04/23 06:45:12.8      51    -62     35     81     88 140.4  25.1  33944  285.93 0855.09
2009/04/23 06:45:12.9      27    -68     54     74     91 158.2  40.1  33944  285.93 0855.09
2009/04/23 06:45:13.0     -47   -103     82    114    140 204.5  39.5  33948  286.00 0855.09
2009/04/23 06:45:13.1     -66   -135     66    151    164 206.3  25.1  33948  285.98 0855.09
2009/04/23 06:45:13.2     -21   -104     95    107    143 191.6  46.4  33944  285.93 0855.10
2009/04/23 06:45:13.3      11   -108     35    109    115 174.2  17.9  33940  285.85 0855.10
2009/04/23 06:45:13.4     -16    -84     21     86     89 191.1  13.7  33944  285.92 0855.10
2009/04/23 06:45:13.5       8     -8     49     12     50 133.1  88.0  33944  285.93 0855.10
2009/04/23 06:45:13.6      -5     43     75     44     86 352.9  66.8  33942  285.90 0855.10
2009/04/23 06:45:13.7     -45     45     88     64    108 314.9  60.5  33938  285.82 0855.10
2009/04/23 06:45:13.8     -39     22     86     46     97 299.8  69.8  33932  285.73 0855.10
2009/04/23 06:45:13.9     -19     -3     61     20     64 258.5  80.7  33940  285.87 0855.10
2009/04/23 06:45:14.0       0     25     45     26     51 359.1  67.7  33938  285.83 0855.10
2009/04/23 06:45:14.1       5    -11     32     13     34 154.6  79.2  33938  285.83 0855.10
2009/04/23 06:45:14.2      -8      2     51      9     51 288.2  90.0  33938  285.82 0855.10
2009/04/23 06:45:14.3     -35     16     19     39     43 295.4  27.2  33932  285.73 0855.10
2009/04/23 06:45:14.4     -52     17     32     55     63 288.4  32.4  33934  285.76 0855.10
2009/04/23 06:45:14.5     -26     22     26     35     43 309.6  40.7  33934  285.76 0855.10
2009/04/23 06:45:14.6       7      6     22     10     24  46.9  75.0  33934  285.76 0855.10
2009/04/23 06:45:14.7       9    -30     28     32     42 163.1  46.9  33936  285.78 0855.10
2009/04/23 06:45:14.8      -9    -41     23     42     47 192.5  31.4  33940  285.85 0855.10
2009/04/23 06:45:14.9      -5    -39     20     40     44 188.0  29.3  33940  285.87 0855.10
2009/04/23 06:45:15.0       3    -44      2     45     46 175.5   2.9  33942  285.90 0855.10
2009/04/23 06:45:15.1      17    -40      9     44     46 156.4  12.2  33940  285.85 0855.10
2009/04/23 06:45:15.2  -12250    -22   5856  12253  13580 269.9  27.4  31914  252.74 0855.11
2009/04/23 06:45:15.3      13    -21     13     26     29 147.5  27.2  33940  285.87 0855.11
2009/04/23 06:45:15.4       2    -16     10     17     19 172.0  35.5  33938  285.83 0855.11
2009/04/23 06:45:15.5      -3    -21      9     22     23 189.8  21.0  33938  285.82 0855.11
2009/04/23 06:45:15.6       9    -10     19     14     23 136.8  58.5  33938  285.82 0855.11
2009/04/23 06:45:15.7       7    -23     23     25     33 161.5  50.0  33934  285.75 0855.11
2009/04/23 06:45:15.8      25    -19     17     32     36 127.8  29.3  33938  285.82 0855.11
2009/04/23 06:45:15.9      -4    -32     21     33     39 188.0  35.5  33934  285.75 0855.11
2009/04/23 06:45:16.0      11    -18     18     22     28 149.3  45.8  33934  285.76 0855.11
2009/04/23 06:45:16.1      11    -18     11     22     24 149.3  27.2  33932  285.73 0855.11
2009/04/23 06:45:16.2      25     -1     25     26     36  94.4  52.0  33932  285.73 0855.11
2009/04/23 06:45:16.3      39      5     32     40     51  82.1  43.7  33936  285.78 0855.11
2009/04/23 06:45:16.4      49      9     33     50     59  78.5  36.5  33932  285.73 0855.11
2009/04/23 06:45:16.5      38      7     34     39     51  78.5  45.8  33936  285.78 0855.11
2009/04/23 06:45:16.6      32      8     37     34     50  74.9  53.3  33936  285.78 0855.11
2009/04/23 06:45:16.7      24      4     39     25     46  78.5  64.6  33936  285.78 0855.11
2009/04/23 06:45:16.8      16     16     43     24     49  45.0  68.8  33936  285.80 0855.11
2009/04/23 06:45:16.9     -14     20     32     25     40 323.9  58.5  33936  285.80 0855.11
2009/04/23 06:45:17.0      12     36     39     38     54  18.5  49.1  33938  285.82 0855.11
2009/04/23 06:45:17.1      -1     33     33     34     47 357.4  51.1  33936  285.78 0855.11
2009/04/23 06:45:17.2     -31      3      8     32     34 276.1  15.3  33936  285.80 0855.10
2009/04/23 06:45:17.3     -16     -7     15     18     23 244.7  45.8  33940  285.85 0855.10
2009/04/23 06:45:17.4     -28    -18      1     34     35 237.5   2.9  33938  285.82 0855.10
2009/04/23 06:45:17.5      -7    -24     35     26     43 196.9  59.4  33942  285.88 0855.10
2009/04/23 06:45:17.6      -8    -36     22     38     43 193.4  32.4  33940  285.87 0855.10
2009/04/23 06:45:17.7     -24    -50     -7     56     57 206.3  -7.2  33940  285.85 0855.10
2009/04/23 06:45:17.8     -27    -39     -7     48     49 214.3  -9.3  33940  285.85 0855.10
2009/04/23 06:45:17.9      -4    -25      5     26     27 189.8  11.1  33940  285.85 0855.10
2009/04/23 06:45:18.0      22    -47     29     53     60 154.7  31.4  33938  285.83 0855.10
2009/04/23 06:45:18.1      17    -64     31     67     73 164.9  27.1  33940  285.87 0855.10
2009/04/23 06:45:18.2      14    -71     38     73     82 168.5  29.3  33940  285.87 0855.10
2009/04/23 06:45:18.3       4    -85     50     86     99 176.9  32.9  33952  286.07 0855.10
2009/04/23 06:45:18.4      -7    -93     44     94    103 184.5  27.1  33956  286.14 0855.10
2009/04/23 06:45:18.5     -19    -82     47     85     97 193.4  31.9  33948  286.00 0855.10
2009/04/23 06:45:18.6     -14    -84     32     86     91 189.8  21.0  33946  285.97 0855.10
2009/04/23 06:45:18.7      -5    -77     29     78     83 184.4  21.0  33942  285.90 0855.10
2009/04/23 06:45:18.8       2    -93     15     94     96 178.2   9.5  33944  285.92 0855.10
2009/04/23 06:45:18.9      11    -78    -21     79     82 171.5 -15.0  33940  285.87 0855.10
2009/04/23 06:45:19.0       0    -54     47     55     72 180.9  44.8  33938  285.83 0855.10
2009/04/23 06:45:19.1      59    -84     57    104    118 144.8  31.3  33938  285.82 0855.10
2009/04/23 06:45:19.2      68   -115     89    134    160 149.3  36.7  33942  285.88 0855.11
2009/04/23 06:45:19.3      23   -179     87    181    200 172.7  27.4  33946  285.95 0855.11
2009/04/23 06:45:19.4      16   -118     85    120    147 172.0  39.1  33960  286.19 0855.11
2009/04/23 06:45:19.5       6    -97     96     98    137 176.0  50.0  33964  286.25 0855.11
2009/04/23 06:45:19.6      10   -132     76    133    153 175.5  32.4  33954  286.10 0855.11
2009/04/23 06:45:19.7      27    -90     36     95    101 163.1  21.5  33952  286.05 0855.11
2009/04/23 06:45:19.8     -15    -95    104     97    142 189.3  52.2  33954  286.10 0855.11
2009/04/23 06:45:19.9      10   -136     98    137    168 175.6  39.1  33946  285.97 0855.11
2009/04/23 06:45:20.0       0   -130     68    131    147 180.0  29.3  33946  285.95 0855.11
2009/04/23 06:45:20.1      89   -159     60    183    193 150.6  18.4  33948  285.98 0855.11
2009/04/23 06:45:20.2      68    -69     62     98    115 135.3  35.5  33956  286.12 0855.11
2009/04/23 06:45:20.3       8    -97     44     98    107 175.1  26.2  33962  286.24 0855.11
2009/04/23 06:45:20.4       0   -121     90    122    151 180.4  39.7  33958  286.15 0855.11
2009/04/23 06:45:20.5     -37   -113     80    120    144 198.3  36.5  33948  285.98 0855.11
2009/04/23 06:45:20.6       0   -116     66    117    134 180.0  31.9  33946  285.97 0855.11
2009/04/23 06:45:20.7      -9   -128     25    129    132 184.0  11.1  33944  285.92 0855.11
2009/04/23 06:45:20.8       8   -112      5    113    114 175.5   2.8  33942  285.90 0855.11
2009/04/23 06:45:20.9      31    -93     35     99    106 161.3  19.4  33944  285.92 0855.11
2009/04/23 06:45:21.0      47   -120     69    129    146 158.6  30.8  33944  285.92 0855.11
2009/04/23 06:45:21.1      52   -161     65    170    182 162.0  22.0  33942  285.90 0855.11
2009/04/23 06:45:21.2      24   -221     39    223    227 173.7  10.1  33942  285.90 0855.11
2009/04/23 06:45:21.3      30   -236     85    238    252 172.7  20.2  33944  285.91 0855.11
2009/04/23 06:45:21.4      34   -242     75    245    257 172.0  17.1  33944  285.91 0855.11
2009/04/23 06:45:21.5       4   -243     81    244    258 179.0  18.5  33948  285.98 0855.11
2009/04/23 06:45:21.6     -16   -208     83    209    224 184.5  23.0  33944  285.93 0855.11
2009/04/23 06:45:21.7      -4   -163     88    164    186 181.6  30.6  33944  285.92 0855.11
2009/04/23 06:45:21.8      54   -136     91    147    172 158.2  35.2  33942  285.90 0855.11
2009/04/23 06:45:21.9      55   -164     56    174    183 161.3  17.9  33944  285.92 0855.11
2009/04/23 06:45:22.0      31   -189    -17    192    193 170.7  -5.2  33944  285.92 0855.11
2009/04/23 06:45:22.1      25   -184     48    186    193 172.2  14.7  33938  285.83 0855.11
2009/04/23 06:45:22.2      32   -137     78    141    161 166.6  31.4  33944  285.92 0855.12
2009/04/23 06:45:22.3      84   -122     96    149    177 145.3  35.7  33942  285.90 0855.12
2009/04/23 06:45:22.4      28   -106     82    110    137 164.8  40.7  33942  285.90 0855.12
2009/04/23 06:45:22.5      54    -78     85     95    127 145.3  46.4  33942  285.88 0855.12
2009/04/23 06:45:22.6      75    -65     25    100    104 130.9  14.3  33944  285.93 0855.12
2009/04/23 06:45:22.7      47    -44     60     65     88 133.1  47.9  33942  285.90 0855.12
2009/04/23 06:45:22.8      32    -58     54     67     86 151.0  43.3  33944  285.92 0855.12
2009/04/23 06:45:22.9      57    -55     40     80     89 134.1  28.2  33944  285.92 0855.12
2009/04/23 06:45:23.0      96    -87      8    130    131 132.2   3.8  33942  285.90 0855.12
2009/04/23 06:45:23.1     139    -94     59    169    179 124.2  20.0  33942  285.90 0855.12
2009/04/23 06:45:23.2      94   -157     40    184    189 149.0  12.4  33938  285.82 0855.12
2009/04/23 06:45:23.3      70   -165     -7    180    181 157.1  -2.2  33942  285.88 0855.12
2009/04/23 06:45:23.4      55   -218     28    225    227 165.7   7.1  33948  285.98 0855.12
2009/04/23 06:45:23.5      -9   -210     39    211    215 182.7  10.6  33942  285.88 0855.12
2009/04/23 06:45:23.6       0   -186     22    187    189 180.0   6.9  33940  285.87 0855.12
2009/04/23 06:45:23.7      22   -166     58    168    178 172.4  19.2  33942  285.90 0855.12
2009/04/23 06:45:23.8     -15   -145     70    146    161 186.2  27.4  33940  285.87 0855.12
2009/04/23 06:45:23.9      48   -112     63    122    137 156.8  29.3  33944  285.93 0855.12
2009/04/23 06:45:24.0      23   -129     78    132    153 169.8  33.5  33942  285.88 0855.12
2009/04/23 06:45:24.1       7   -134     74    135    153 176.9  31.4  33944  285.92 0855.12
2009/04/23 06:45:24.2      -4   -137     70    138    154 181.8  29.2  33940  285.87 0855.12
2009/04/23 06:45:24.3      43   -134     66    141    155 162.2  27.1  33940  285.87 0855.12
2009/04/23 06:45:24.4      17   -132     47    134    143 172.4  19.4  33944  285.92 0855.12
2009/04/23 06:45:24.5      -1    -94     58     95    111 180.9  35.0  33954  286.10 0855.12
2009/04/23 06:50:18.1     -99     47      5    110    111 295.4   2.9  33934  285.75 0855.02
2009/04/23 06:50:18.2     -96     48     -5    108    109 296.6  -3.1  33932  285.73 0855.02
2009/04/23 06:50:18.3     -76     31      7     83     84 292.2   4.9  33938  285.83 0855.02
2009/04/23 06:50:18.4     -66     -5     15     67     69 265.7  13.2  33934  285.75 0855.02
2009/04/23 06:50:18.5     -43      3     30     44     53 275.2  37.6  33930  285.70 0855.02
2009/04/23 06:50:18.6     -46     26     26     53     59 299.8  27.2  33928  285.66 0855.02
2009/04/23 06:50:18.7     -48     30     10     57     58 302.4  10.1  33930  285.68 0855.02
2009/04/23 06:50:18.8     -53     53     19     75     78 315.0  14.7  33930  285.68 0855.02
2009/04/23 06:50:18.9     -66     53     18     85     87 308.6  12.2  33936  285.80 0855.02
2009/04/23 06:50:19.0    -120     40    -48    127    135 288.6 -25.4  33944  285.92 0855.02
2009/04/23 06:50:19.1    -130     22    -57    132    143 279.7 -29.0  33944  285.93 0855.02
2009/04/23 06:50:19.2     -56     14    -92     58    108 284.2 -69.1  33940  285.87 0855.02
2009/04/23 06:50:19.3     -13    -22    -87     26     90 210.7 -87.7  33936  285.80 0855.02
2009/04/23 06:50:19.4     -57    -25   -101     63    119 246.5 -69.1  33950  286.02 0855.02
2009/04/23 06:50:19.5     -68    -29    -99     75    124 246.5 -63.4  33948  285.98 0855.03
2009/04/23 06:50:19.6     -62      0    -53     63     82 270.9 -49.2  33950  286.03 0855.03
2009/04/23 06:50:19.7     -48    -29    -44     57     72 238.5 -47.1  33952  286.07 0855.03
2009/04/23 06:50:19.8      -3    -38    -45     39     59 184.5 -58.7  33950  286.03 0855.03
2009/04/23 06:50:19.9     -11    -81    -38     82     90 188.0 -31.5  33944  285.93 0855.03
2009/04/23 06:50:20.0     -33    -50    -19     61     63 213.4 -23.8  33946  285.95 0855.03
2009/04/23 06:50:20.1     -15    -49      2     52     53 197.8   2.8  33946  285.95 0855.03
2009/04/23 06:50:20.2     -27    -81      6     86     87 198.7   4.4  33942  285.90 0855.03
2009/04/23 06:50:20.3     -71    -72    -20    102    105 224.5 -11.5  33944  285.93 0855.03
2009/04/23 06:50:20.4     -85    -48    -43     98    107 240.2 -29.0  33950  286.02 0855.03
2009/04/23 06:50:20.5     -94    -32    -36    100    107 250.9 -19.7  33952  286.05 0855.03
2009/04/23 06:50:20.6     -97    -32    -39    103    110 251.6 -25.9  33954  286.08 0855.03
2009/04/23 06:50:20.7     -95    -46    -46    106    115 244.2 -29.5  33954  286.10 0855.03
2009/04/23 06:50:20.8     -92    -35    -46     99    109 248.7 -31.5  33954  286.10 0855.03
2009/04/23 06:50:20.9    -102    -40    -45    110    118 248.3 -27.5  33954  286.10 0855.03
2009/04/23 06:50:21.0     -91    -50    -57    104    118 241.1 -35.7  33954  286.08 0855.03
2009/04/23 06:50:21.1     -79    -23    -68     83    107 253.2 -48.1  33954  286.10 0855.03
2009/04/23 06:50:21.2     -79    -18    -50     82     96 256.7 -39.4  33952  286.05 0855.03
2009/04/23 06:50:21.3     -90    -45    -41    101    109 243.4 -27.4  33950  286.03 0855.03
2009/04/23 06:50:21.4     -50    -47    -11     69     70 226.8  -9.3  33952  286.07 0855.03
2009/04/23 06:50:21.5     -46    -56     -2     73     74 219.6  -2.2  33950  286.02 0855.03
2009/04/23 06:50:21.6     -63    -57    -16     86     88 227.8 -10.9  33952  286.05 0855.03
2009/04/23 06:50:21.7     -40    -27    -17     49     51 235.8 -23.3  33950  286.02 0855.03
2009/04/23 06:50:21.8     -57    -41    -60     71     92 234.1 -48.7  33948  286.00 0855.03
2009/04/23 06:50:21.9     -61    -49    -49     79     92 231.4 -39.9  33950  286.02 0855.03
2009/04/23 06:50:22.0     -75    -71    -21    104    107 226.9 -11.3  33950  286.03 0855.03
2009/04/23 06:50:22.1     -61    -92    -33    111    116 213.4 -16.6  33950  286.02 0855.03
2009/04/23 06:50:22.2     -59    -84    -21    103    106 215.2 -11.5  33950  286.03 0855.03
2009/04/23 06:50:22.4     -79    -53    -66     96    116 236.3 -42.0  33952  286.05 0855.03
2009/04/23 06:50:22.4     -80    -70    -58    107    121 229.1 -35.2  33948  285.98 0855.03
2009/04/23 06:50:22.5     -88    -51    -39    102    109 239.8 -25.9  33950  286.03 0855.03
2009/04/23 06:50:22.6     -57    -47    -15     75     77 230.5 -11.3  33948  286.00 0855.03
2009/04/23 06:50:22.7     -49    -71    -35     87     93 214.7 -26.9  33950  286.03 0855.03
2009/04/23 06:50:22.9     -12    -87    -40     88     96 188.5 -30.6  33950  286.02 0855.03
2009/04/23 06:50:22.9       1    -86    -31     87     93 179.1 -19.7  33952  286.05 0855.03
2009/04/23 06:50:23.1     -17    -64    -30     67     73 195.2 -30.6  33950  286.03 0855.03
2009/04/23 06:50:23.1     -11    -43    -38     45     58 195.1 -49.2  33952  286.05 0855.03
2009/04/23 06:50:23.3       0    -29    -40     30     50 180.9 -62.9  33950  286.03 0855.03
2009/04/23 06:50:23.3      11    -34    -42     36     55 161.3 -59.8  33952  286.07 0855.03
2009/04/23 06:50:23.4      26    -46    -39     54     66 150.1 -43.9  33950  286.03 0855.03
2009/04/23 06:50:23.5      29    -77    -43     83     93 159.1 -33.7  33950  286.02 0855.03
2009/04/23 06:50:23.7      21    -64    -50     68     84 161.7 -44.5  33948  286.00 0855.03
2009/04/23 06:50:23.7      19    -76    -38     79     87 165.7 -31.6  33952  286.05 0855.03
2009/04/23 06:50:23.9       4    -70    -22     71     74 176.4 -23.8  33948  286.00 0855.03
2009/04/23 06:50:24.0      16    -50    -17     53     55 161.3 -23.8  33952  286.05 0855.03
2009/04/23 06:50:24.1      39    -80    -32     90     96 153.7 -19.6  33948  286.00 0855.03
2009/04/23 06:50:24.2       6    -20    -47     21     51 163.1 -78.4  33952  286.05 0855.03
2009/04/23 06:50:24.3       2    -87    -90     88    125 178.2 -54.5  33952  286.05 0855.03
2009/04/23 06:50:24.4      33    -97    -83    103    132 161.3 -48.1  33950  286.02 0855.03
2009/04/23 06:50:24.5      40    -77    -60     88    106 152.4 -42.0  33948  285.98 0855.03
2009/04/23 06:50:24.6       6    -79    -86     80    117 175.5 -56.6  33952  286.05 0855.03
2009/04/23 06:50:24.7       3    -72    -63     73     96 177.3 -49.8  33948  286.00 0855.03
2009/04/23 06:50:24.8     -30    -63    -64     70     94 205.5 -51.9  33948  286.00 0855.03
2009/04/23 06:50:24.9     -19    -58    -60     62     86 198.5 -54.4  33950  286.03 0855.03
2009/04/23 06:50:25.0     -13    -47    -33     49     59 196.0 -42.0  33948  286.00 0855.03
2009/04/23 06:50:25.1      -7    -38    -42     39     57 191.6 -55.6  33948  286.00 0855.03
2009/04/23 06:50:25.2      -4    -57    -20     58     61 184.5 -23.3  33950  286.03 0855.03
2009/04/23 06:50:25.4       0    -91    -16     92     94 180.4 -10.3  33950  286.03 0855.03
2009/04/23 06:50:25.5       2    -84    -11     85     86 178.2  -7.7  33950  286.02 0855.03
2009/04/23 06:50:25.6       7    -84     -7     85     86 175.1  -5.2  33954  286.08 0855.02
2009/04/23 06:50:25.7      10    -72    -20     73     76 172.0 -15.4  33952  286.05 0855.02
2009/04/23 06:50:25.8       5    -72     -2     73     74 175.5  -2.2  33952  286.05 0855.02
2009/04/23 06:50:25.9       1    -72      0     73     74 179.0  -0.3  33952  286.05 0855.02
2009/04/23 06:50:26.0       3    -60    -19     61     64 176.4 -17.6  33948  286.00 0855.02
2009/04/23 06:50:26.1      -5    -68    -22     69     73 184.4 -17.6  33950  286.03 0855.02
2009/04/23 06:50:26.2      -4    -69     -7     70     71 183.6  -6.2  33950  286.03 0855.02
2009/04/23 06:50:26.3     -23    -70    -12     74     76 198.7  -9.3  33950  286.03 0855.02
2009/04/23 06:50:26.4      -5    -73     -9     74     75 184.5  -7.2  33948  286.00 0855.02
2009/04/23 06:50:26.5     -19    -58    -17     62     65 198.7 -15.4  33946  285.97 0855.02
2009/04/23 06:50:26.6     -27    -46    -15     54     57 210.7 -15.5  33950  286.02 0855.02
2009/04/23 06:50:26.7     -27    -28      0     39     40 224.1   0.8  33950  286.02 0855.02
2009/04/23 06:50:26.8     -15    -14     -5     21     22 226.9 -13.4  33950  286.03 0855.02
2009/04/23 06:50:26.9     -13     11     -2     18     19 309.5  -7.3  33948  286.00 0855.02
2009/04/23 06:50:27.0     -12     20     -7     24     26 327.5 -17.6  33946  285.95 0855.02
2009/04/23 06:50:27.1       1     12     -4     13     13   8.0 -23.8  33948  285.98 0855.02
2009/04/23 06:50:27.2      16     -6     -2     18     19 111.7  -7.2  33948  286.00 0855.02
2009/04/23 06:50:27.3      16     -6     -2     18     19 111.7  -7.2  33948  286.00 0855.02
2009/04/23 06:50:27.4      24    -12     -8     28     29 117.1 -23.8  33948  285.98 0855.02
2009/04/23 06:50:27.5      27    -25     -4     38     39 133.1  -7.3  33946  285.97 0855.02
2009/04/23 06:50:27.6      25    -22      4     34     35 131.3   6.9  33948  286.00 0855.02
2009/04/23 06:50:27.7      26    -45     13     53     55 150.1  14.3  33950  286.02 0855.02
2009/04/23 06:50:27.8      14    -38     -1     41     42 160.0  -2.2  33950  286.02 0855.02
2009/04/23 06:50:27.9       7    -37    -12     38     40 168.4 -17.6  33948  286.00 0855.02
2009/04/23 06:50:28.0      43     -7     -4     44     45  99.7  -5.2  33948  286.00 0855.02
2009/04/23 06:50:28.1      66    -39     -3     77     78 120.7  -2.2  33948  286.00 0855.02
2009/04/23 06:50:28.2      57    -54      1     79     80 133.2   0.8  33950  286.03 0855.02
2009/04/23 06:50:28.3      58    -82     21    101    104 144.4  12.2  33950  286.02 0855.02
2009/04/23 06:50:28.4      50    -86      5    100    101 149.7   3.3  33950  286.02 0855.02
2009/04/23 06:50:28.5      45    -76      0     89     90 149.3  -0.3  33950  286.02 0855.02
2009/04/23 06:50:28.6      69    -75     19    103    105 137.2  10.6  33948  286.00 0855.02
2009/04/23 06:50:28.7      49    -69     34     85     91 144.4  22.5  33950  286.02 0855.02
2009/04/23 06:50:28.8      37    -55     36     67     76 145.7  31.3  33954  286.08 0855.02
2009/04/23 06:50:28.9      39    -62     28     74     79 147.5  21.5  33956  286.14 0855.02
2009/04/23 06:50:29.0      14    -42     15     45     48 160.8  19.2  33962  286.22 0855.02
2009/04/23 06:50:29.1     -20    -65     -2     69     70 196.9  -2.2  33960  286.19 0855.02
2009/04/23 06:50:29.2     -14    -53     -1     55     56 195.1  -1.3  33960  286.19 0855.02
2009/04/23 06:50:29.3     -23    -57     -6     62     63 201.9  -6.2  33956  286.14 0855.02
2009/04/23 06:50:29.4     -25    -60     28     66     71 202.7  24.1  33960  286.20 0855.02
2009/04/23 06:50:29.5     -18    -53     28     57     63 198.7  27.3  33962  286.22 0855.02
2009/04/23 06:50:29.6      19    -50     46     54     70 159.1  43.8  33962  286.22 0855.03
2009/04/23 06:50:29.7       5    -57     41     58     71 174.7  39.5  33960  286.19 0855.03
2009/04/23 06:50:29.8      24    -50     37     56     67 154.6  35.6  33962  286.22 0855.03
2009/04/23 06:50:29.9       1    -41     61     42     74 178.2  63.6  33960  286.19 0855.03
2009/04/23 06:50:30.0       6    -51     52     52     73 172.9  50.1  33956  286.14 0855.03
2009/04/23 06:50:30.1       9    -77     23     78     82 172.9  16.8  33952  286.05 0855.03
2009/04/23 06:50:30.2      -4    -52     -6     53     54 184.4  -7.2  33950  286.03 0855.03
2009/04/23 06:50:30.3     -21    -67    -20     71     73 197.8 -20.7  33952  286.05 0855.03
2009/04/23 06:50:30.4     -19    -82    -26     85     88 193.4 -22.3  33950  286.03 0855.03
2009/04/23 06:50:30.5     -20    -84    -30     87     93 193.8 -19.1  33950  286.02 0855.03
2009/04/23 06:50:30.6       4    -82    -28     83     88 176.9 -19.1  33950  286.03 0855.03
2009/04/23 06:50:30.7       0    -83    -25     84     88 180.0 -16.6  33948  286.00 0855.03
2009/04/23 06:50:30.8      -1    -72    -20     73     76 180.9 -15.5  33952  286.05 0855.03
2009/04/23 06:50:30.9      -4    -70    -19     71     74 183.6 -15.5  33950  286.02 0855.03
2009/04/23 06:50:31.0     -18    -47    -31     51     59 200.9 -38.8  33950  286.03 0855.03
2009/04/23 06:50:31.1      -6    -38    -44     39     58 189.8 -57.7  33950  286.02 0855.03
2009/04/23 06:50:31.2      -5    -17    -48     18     51 198.3 -83.6  33950  286.02 0855.03
2009/04/23 06:50:31.3      -2    -13    -37     14     39 191.6 -85.6  33948  286.00 0855.03
2009/04/23 06:50:31.4       0    -33    -42     34     54 179.1 -60.8  33948  286.00 0855.03
2009/04/23 06:50:31.5      -1    -34    -43     35     55 182.6 -60.8  33948  285.98 0855.03
2009/04/23 06:50:31.6      -5    -42    -40     43     58 188.0 -53.4  33946  285.97 0855.03
2009/04/23 06:50:31.7     -13    -13    -32     19     37 226.7 -69.1  33948  286.00 0855.03
2009/04/23 06:50:31.8     -18      5    -24     19     30 288.2 -60.8  33950  286.03 0855.03
2009/04/23 06:50:31.9     -24     24    -13     34     36 314.9 -23.3  33954  286.08 0855.03
2009/04/23 06:50:32.0     -31     31    -10     45     47 314.9 -12.4  33952  286.05 0855.03
2009/04/23 06:50:32.1     -38     39      1     55     56 315.9   1.8  33952  286.07 0855.03
2009/04/23 06:50:32.2     -30     47      0     56     57 327.4  -0.3  33948  286.00 0855.03
2009/04/23 06:50:32.3     -25     23     19     35     39 313.1  31.4  33948  286.00 0855.03
2009/04/23 06:50:32.4     -29      2     31     30     43 274.4  50.1  33948  285.98 0855.03
2009/04/23 06:50:32.5     -23     -8     23     25     33 250.0  50.0  33952  286.05 0855.03
2009/04/23 06:50:32.6     -26    -16     13     31     33 237.6  23.0  33950  286.02 0855.03
2009/04/23 06:50:32.7     -24    -10      9     27     29 246.5  19.4  33950  286.03 0855.03
2009/04/23 06:50:32.8     -35     -7      1     36     37 258.6   2.9  33954  286.08 0855.03
2009/04/23 06:50:32.9     -26    -22     12     35     38 230.4  18.9  33954  286.08 0855.03
2009/04/23 06:50:33.0     -14    -56     11     58     60 194.3  11.1  33954  286.08 0855.03
2009/04/23 06:50:33.1      -3    -76     34     77     84 182.7  24.6  33962  286.24 0855.03
2009/04/23 06:50:33.2       2   -108     44    109    117 178.6  23.0  33962  286.24 0855.03
2009/04/23 06:50:33.3      -8   -106     36    107    114 184.5  18.9  33956  286.12 0855.03
2009/04/23 06:50:33.4     -20    -97     18    100    102 191.6  10.6  33952  286.05 0855.03
2009/04/23 06:50:33.5     -31    -97     14    102    104 197.8   8.0  33954  286.08 0855.03
2009/04/23 06:50:33.6     -16    -88     16     90     92 190.7  10.1  33954  286.08 0855.03
2009/04/23 06:50:33.7     -35    -85     15     93     95 202.7   9.5  33954  286.08 0855.03
2009/04/23 06:50:33.8     -60    -89     18    108    110 213.8   9.5  33954  286.10 0855.03
2009/04/23 06:50:33.9     -73    -93      4    119    120 218.3   2.3  33954  286.08 0855.03
2009/04/23 06:50:34.0     -53    -83     11     99    100 212.5   6.5  33952  286.07 0855.03
2009/04/23 06:50:34.1     -42    -79     21     90     93 208.1  13.7  33950  286.03 0855.03
2009/04/23 06:50:34.2     -54    -65     24     85     89 219.6  16.3  33952  286.07 0855.03
2009/04/23 06:50:34.3     -44    -65     20     79     82 214.3  14.7  33952  286.07 0855.03
2009/04/23 06:50:34.4     -60    -79      4    100    101 217.0   2.8  33954  286.08 0855.03
2009/04/23 06:50:34.5    -104   -110     -5    152    153 223.2  -2.2  33950  286.02 0855.03
2009/04/23 06:50:34.6    -101   -134      3    168    169 217.0   1.2  33954  286.08 0855.03
2009/04/23 06:50:34.7     -90   -163      0    187    188 209.0   0.0  33954  286.10 0855.03
2009/04/23 06:50:34.8    -141   -123    -73    188    201 228.9 -26.7  33954  286.10 0855.03
2009/04/23 06:50:34.9    -123    -51    -71    134    151 247.4 -34.2  33954  286.08 0855.03
2009/04/23 06:50:35.0    -103    -48    -14    114    115 244.7  -7.3  33952  286.07 0855.03
2009/04/23 06:50:35.1    -123      1      7    124    125 270.8   3.3  33952  286.07 0855.03
2009/04/23 06:50:35.2    -125    -79     29    149    152 237.6  11.1  33952  286.07 0855.03
2009/04/23 06:50:35.3    -185    -43    -43    191    196 256.7 -12.9  33952  286.07 0855.03
2009/04/23 06:50:35.4    -213    -22    -39    215    219 263.9 -10.5  33950  286.03 0855.03
2009/04/23 06:50:35.5    -180     -4    -50    181    188 268.5 -15.5  33952  286.05 0855.03
2009/04/23 06:50:35.6    -188     18      0    189    190 275.7   0.0  33952  286.07 0855.02
2009/04/23 06:50:35.7    -148    -93      8    176    177 237.8   2.8  33952  286.07 0855.02
2009/04/23 06:50:35.8    -171    -64    -21    183    185 249.2  -6.7  33950  286.03 0855.02
2009/04/23 06:50:35.9    -136    -80     37    159    164 239.4  13.2  33952  286.05 0855.02
2009/04/23 06:50:36.0    -136    -80      0    159    160 239.4   0.0  33952  286.05 0855.02
2009/04/23 06:50:36.1    -111    -86    -17    141    143 232.3  -7.2  33952  286.07 0855.02
2009/04/23 06:50:36.2    -124    -61     24    139    142 243.8  10.1  33948  286.00 0855.02
2009/04/23 06:50:36.3    -120    -93    -19    153    155 232.2  -7.2  33948  285.98 0855.02
2009/04/23 06:50:36.4    -123    -89    -19    152    154 234.0  -7.3  33948  286.00 0855.02
2009/04/23 06:50:36.5     -76    -75     -4    108    109 225.4  -2.2  33948  285.98 0855.02
2009/04/23 06:50:36.6     -85    -54     -2    101    102 237.5  -1.3  33950  286.03 0855.02
2009/04/23 06:50:36.7    -109    -37    -11    116    117 250.9  -5.6  33948  286.00 0855.02
2009/04/23 06:50:36.8    -112    -49      8    123    124 246.5   3.8  33950  286.02 0855.02
2009/04/23 06:50:36.9     -91    -84     -2    125    126 227.3  -1.2  33954  286.10 0855.02
2009/04/23 06:50:37.0     -97    -80    -19    126    128 230.4  -8.8  33954  286.08 0855.02
2009/04/23 06:50:37.1    -102    -66     -4    122    123 237.1  -2.2  33954  286.08 0855.02
2009/04/23 06:50:37.2     -89    -44      8    100    101 243.4   4.9  33950  286.03 0855.02
2009/04/23 06:50:37.3     -71    -36     -6     80     81 242.9  -4.6  33950  286.03 0855.02
2009/04/23 06:50:37.4     -39    -17    -17     43     46 246.5 -26.4  33948  286.00 0855.02
2009/04/23 06:50:37.5     -26    -16    -21     31     37 237.6 -40.0  33950  286.02 0855.02
2009/04/23 06:50:37.6     -26    -23    -19     35     39 228.7 -35.8  33948  286.00 0855.02
2009/04/23 06:50:37.7     -54    -15    -33     57     65 254.1 -37.9  33948  285.98 0855.02
2009/04/23 06:50:37.8     -73      5    -19     74     77 274.4 -14.5  33948  286.00 0855.02
2009/04/23 06:50:37.9     -56     -4    -14     57     59 265.6 -14.5  33952  286.05 0855.02
2009/04/23 06:50:38.0     -71    -14     -9     73     74 258.5  -7.2  33950  286.02 0855.02
2009/04/23 06:50:38.1    -117    -26     -4    120    121 257.2  -2.2  33950  286.03 0855.02
2009/04/23 06:50:38.2    -109     -8    -10    110    111 265.7  -5.6  33948  286.00 0855.02
2009/04/23 06:50:38.3    -115    -16    -12    117    118 262.0  -6.2  33950  286.03 0855.02
2009/04/23 06:50:38.4     -87    -84    -43    121    129 226.0 -19.6  33952  286.05 0855.02
2009/04/23 06:50:38.5     -59    -77    -44     98    107 217.4 -30.6  33954  286.08 0855.02
2009/04/23 06:50:38.6     -57    -58    -55     82     98 224.5 -41.4  33952  286.07 0855.02
2009/04/23 06:50:38.7     -62    -54    -28     83     88 229.1 -18.7  33954  286.08 0855.02
2009/04/23 06:50:38.8     -56    -46    -17     73     76 230.4 -13.4  33950  286.03 0855.02
2009/04/23 06:50:38.9     -45    -63     -7     78     79 216.1  -5.2  33950  286.02 0855.02
2009/04/23 06:50:39.0     -38    -40      0     56     57 223.2  -0.3  33952  286.05 0855.02
2009/04/23 06:50:39.1     -64    -17      5     67     68 254.9   4.9  33950  286.03 0855.02
2009/04/23 06:50:39.2     -36    -24     11     44     46 236.7  14.3  33948  286.00 0855.02
2009/04/23 06:50:39.3      -3    -30      1     31     32 186.2   2.8  33948  286.00 0855.02
2009/04/23 06:50:39.4       7    -31     -4     32     33 166.6  -7.3  33950  286.02 0855.02
2009/04/23 06:50:39.5      11    -37     -1     39     40 162.2  -2.2  33950  286.03 0855.02
2009/04/23 06:50:39.6       3    -50      0     51     52 176.4   0.8  33952  286.05 0855.02
2009/04/23 06:50:39.7      -9    -65     -1     66     67 188.0  -1.2  33952  286.05 0855.02
2009/04/23 06:50:39.8      -3    -74      0     75     76 182.7  -0.3  33950  286.02 0855.02
2009/04/23 06:50:39.9      -4    -88     -8     89     90 183.1  -5.6  33950  286.03 0855.02
2009/04/23 06:50:40.0     -32    -83    -39     90     98 201.4 -29.0  33950  286.02 0855.02
2009/04/23 06:50:40.1     -20    -99    -12    102    103 191.6  -7.2  33950  286.02 0855.02
2009/04/23 06:50:40.2     -25    -92      5     96     97 195.6   3.3  33948  285.98 0855.02
2009/04/23 06:50:40.3     -29    -92    -12     97     98 197.8  -7.3  33948  285.98 0855.02
2009/04/23 06:50:40.4     -15    -76      0     78     79 191.6   0.2  33946  285.97 0855.02
2009/04/23 06:50:40.5     -23    -88    -21     92     95 195.1 -12.9  33946  285.97 0855.02
2009/04/23 06:50:40.6     -33    -83    -18     90     92 201.8 -11.3  33948  285.98 0855.03
2009/04/23 06:50:40.7     -55    -57     15     80     82 224.1  10.6  33946  285.95 0855.03
2009/04/23 06:50:40.8    -105    -67     34    125    130 237.6  15.3  33950  286.02 0855.03
2009/04/23 06:50:40.9    -152    -84    -71    174    187 240.9 -27.5  33954  286.08 0855.03
2009/04/23 06:50:41.0    -186   -107    -74    215    227 240.0 -23.6  33952  286.07 0855.03
2009/04/23 06:50:41.1    -166   -156    -81    229    242 226.8 -24.4  33952  286.06 0855.03
2009/04/23 06:50:41.2    -210   -122    -46    243    248 239.8 -10.9  33952  286.06 0855.03
2009/04/23 06:50:41.3    -180    -97     -8    205    206 241.6  -2.2  33952  286.07 0855.03
2009/04/23 06:50:41.4    -120    -81     21    146    148 235.9   8.5  33952  286.07 0855.03
2009/04/23 06:50:41.5     -83    -78     26    114    118 226.8  13.1  33950  286.02 0855.03
2009/04/23 06:50:41.6     -64    -77      0    101    102 219.6  -0.3  33950  286.03 0855.03
2009/04/23 06:50:41.7     -32    -96    -22    102    105 198.5 -12.4  33952  286.07 0855.03
2009/04/23 06:50:41.8     -62   -158    -46    170    177 201.4 -15.2  33954  286.10 0855.03
2009/04/23 06:50:41.9     -53   -171    -35    180    184 197.4 -11.1  33952  286.05 0855.03
2009/04/23 06:50:42.0      -8   -209    -26    210    212 182.2  -7.2  33948  286.00 0855.03
2009/04/23 06:50:42.1     -12   -194     -7    195    196 183.6  -2.2  33950  286.02 0855.03
2009/04/23 06:50:42.2      -3   -146    -24    147    150 181.4  -9.3  33948  286.00 0855.03
2009/04/23 06:50:42.3     -24   -168    -24    170    172 188.2  -8.2  33948  285.98 0855.03
2009/04/23 06:50:42.4     -11   -187    -14    188    189 183.4  -4.4  33950  286.03 0855.03
2009/04/23 06:50:42.5       0   -166     -6    167    168 180.2  -2.3  33948  286.00 0855.03
2009/04/23 06:50:42.6     -13   -163     -6    164    165 184.9  -2.2  33950  286.02 0855.03
2009/04/23 06:50:42.7     -60   -189    -19    199    200 197.6  -5.6  33948  286.00 0855.03
2009/04/23 06:50:42.8     -83   -158    -23    179    181 207.9  -7.5  33952  286.05 0855.03
2009/04/23 06:50:42.9     -76   -121      2    144    145 212.1   0.8  33952  286.05 0855.03
2009/04/23 06:50:43.0     -71   -131     29    150    153 208.5  11.1  33952  286.05 0855.03
2009/04/23 06:50:43.1    -101   -111     31    151    155 222.3  11.6  33952  286.05 0855.03
2009/04/23 06:50:43.2    -111   -117      8    162    163 223.4   2.9  33952  286.07 0855.03
2009/04/23 06:50:43.3     -68   -113     21    133    135 211.2   9.0  33950  286.02 0855.03
2009/04/23 06:50:43.4     -52    -95     31    109    114 209.0  16.3  33948  286.00 0855.03
2009/04/23 06:50:43.5     -45    -94      5    105    106 205.4   2.8  33950  286.03 0855.03
2009/04/23 06:50:43.6     -31    -94     12    100    101 198.5   7.1  33948  286.00 0855.03
2009/04/23 06:50:43.7     -64    -94      1    114    115 214.3   0.8  33950  286.02 0855.03
2009/04/23 06:50:43.8     -85    -99      6    131    132 220.5   2.9  33952  286.07 0855.03
2009/04/23 06:50:43.9     -79   -109     -2    135    136 216.1  -1.2  33952  286.07 0855.03
2009/04/23 06:50:44.0     -44    -97      5    107    108 204.5   2.9  33952  286.05 0855.03
2009/04/23 06:50:44.1     -28    -86     17     91     93 198.3  10.6  33948  286.00 0855.03
2009/04/23 06:50:44.2     -15    -77      6     79     80 191.6   4.4  33950  286.02 0855.03
2009/04/23 06:50:44.3     -15    -84     -7     86     87 190.7  -5.2  33952  286.07 0855.03
2009/04/23 06:50:44.4     -20   -103    -13    106    107 191.1  -7.2  33950  286.03 0855.03
2009/04/23 06:50:44.5       9   -113    -19    114    116 175.1  -9.8  33950  286.02 0855.03
2009/04/23 06:50:44.7      23    -85      5     89     90 164.9   3.3  33950  286.03 0855.03
2009/04/23 06:50:44.8      -6    -84      5     85     86 184.4   3.8  33950  286.02 0855.03
2009/04/23 06:50:44.9     -10    -62      6     63     64 189.8   5.9  33948  285.98 0855.03
2009/04/23 06:50:45.0      -1    -52     -7     53     54 181.8  -8.2  33948  286.00 0855.03
2009/04/23 06:50:45.1      -1    -52      4     53     54 181.8   4.9  33950  286.02 0855.03
2009/04/23 06:50:45.2      -2    -37      6     38     39 184.5  10.1  33950  286.03 0855.03
2009/04/23 06:50:45.3     -20    -37      0     43     44 208.1   0.8  33950  286.02 0855.03
2009/04/23 06:50:45.4     -39    -43     20     59     63 222.3  19.4  33950  286.02 0855.03
2009/04/23 06:50:45.5     -59    -59     11     84     85 225.0   8.0  33948  285.98 0855.03
2009/04/23 06:50:45.6     -75    -59     26     96    100 231.4  15.3  33948  285.98 0855.03
2009/04/23 06:50:45.7     -56    -41     20     70     73 234.1  16.3  33948  286.00 0855.03
2009/04/23 06:50:45.8     -61    -43     30     75     80 234.9  23.0  33946  285.97 0855.03
2009/04/23 06:50:45.9     -43    -36     31     57     64 230.5  31.4  33948  286.00 0855.03
2009/04/23 06:50:46.0     -35    -35     40     50     64 225.0  43.7  33948  285.98 0855.03
2009/04/23 06:50:46.1     -27    -39     33     48     58 214.3  36.5  33948  286.00 0855.03
2009/04/23 06:50:46.2     -28    -55     33     62     70 207.2  30.3  33948  286.00 0855.03
2009/04/23 06:50:46.3     -34    -50     40     61     72 214.3  35.6  33948  286.00 0855.03
2009/04/23 06:50:46.4     -47    -50     26     69     73 223.3  20.0  33950  286.03 0855.03
2009/04/23 06:50:46.5     -55    -65     16     86     88 220.5  10.6  33950  286.03 0855.03
2009/04/23 06:50:46.6     -64    -69    -12     95     96 222.8  -7.3  33954  286.08 0855.04
2009/04/23 06:50:46.7     -54    -56    -16     79     81 224.1 -11.9  33954  286.10 0855.04
2009/04/23 06:50:46.8     -55    -55    -18     78     81 225.0 -12.9  33954  286.08 0855.04
2009/04/23 06:50:46.9     -92    -90     12    129    130 225.6   5.4  33952  286.07 0855.04
2009/04/23 06:50:47.0     -91   -103    -12    138    139 221.5  -5.2  33952  286.07 0855.04
2009/04/23 06:50:47.2     -93   -147     -3    175    176 212.3  -1.3  33952  286.07 0855.04
2009/04/23 06:50:47.3    -105    -93    -29    141    145 228.7 -11.9  33952  286.07 0855.04
2009/04/23 06:50:47.4    -133    -56    -57    145    155 246.9 -26.9  33954  286.08 0855.04
2009/04/23 06:50:47.5    -149    -49    -63    158    170 251.6 -26.9  33952  286.05 0855.04
2009/04/23 06:50:47.6    -143    -30    -57    147    157 258.1 -26.7  33954  286.08 0855.04
2009/04/23 06:50:47.7    -144    -39    -43    150    156 254.9 -20.7  33948  286.00 0855.04
2009/04/23 06:50:47.8    -156    -26    -20    159    161 260.3  -7.3  33946  285.97 0855.04
2009/04/23 06:50:47.9    -126    -10    -25    127    130 265.2 -11.3  33950  286.02 0855.04
2009/04/23 06:50:48.0    -126     -9    -45    127    135 265.6 -19.7  33954  286.08 0855.04
2009/04/23 06:50:48.1    -139    -30    -23    143    145 257.6  -9.3  33954  286.08 0855.04
2009/04/23 06:50:48.2    -158    -30    -30    161    164 259.0 -10.9  33954  286.08 0855.04
2009/04/23 06:50:48.3    -150    -72    -46    167    174 244.2 -15.4  33958  286.15 0855.04
2009/04/23 06:50:48.4    -148    -74    -52    166    175 243.4 -17.6  33952  286.07 0855.04
2009/04/23 06:50:48.5    -126    -51    -44    137    145 247.8 -18.1  33956  286.12 0855.04
2009/04/23 06:50:48.6    -113    -65    -42    131    138 239.8 -18.1  33954  286.10 0855.04
2009/04/23 06:50:48.7    -131    -62    -47    146    154 244.6 -18.1  33952  286.05 0855.04
2009/04/23 06:50:48.8    -133    -31    -48    137    145 256.8 -23.3  33954  286.08 0855.04
2009/04/23 06:50:49.0    -119    -43    -52    127    137 250.1 -27.5  33950  286.03 0855.04
2009/04/23 06:50:49.0    -109    -51    -59    121    134 244.6 -32.2  33952  286.05 0855.04
2009/04/23 06:50:49.1    -108    -68    -50    128    137 237.6 -27.4  33956  286.12 0855.04
2009/04/23 06:50:49.2    -106    -69    -55    127    138 236.7 -29.5  33952  286.05 0855.04
2009/04/23 06:50:49.4    -117    -78    -52    141    150 236.3 -25.3  33954  286.08 0855.04
2009/04/23 06:50:49.4    -129    -65    -52    145    154 243.0 -24.4  33952  286.07 0855.04
2009/04/23 06:50:49.5    -157    -64    -65    170    182 247.6 -26.4  33952  286.07 0855.04
2009/04/23 06:50:49.7    -176    -48    -74    183    197 254.7 -27.5  33950  286.03 0855.04
2009/04/23 06:50:49.8    -136    -60    -73    149    165 246.0 -32.4  33952  286.05 0855.04
2009/04/23 06:50:49.9    -124    -81    -68    149    163 236.7 -30.3  33952  286.05 0855.04
2009/04/23 06:50:50.0     -86    -96    -39    130    136 221.9 -17.0  33954  286.08 0855.04
2009/04/23 06:50:50.1     -85   -103    -33    134    139 219.7 -13.9  33954  286.10 0855.04
2009/04/23 06:50:50.2    -114    -90    -53    146    155 231.8 -24.4  33954  286.08 0855.04
2009/04/23 06:50:50.4     -93    -91    -50    131    140 225.6 -25.9  33952  286.05 0855.04
2009/04/23 06:50:50.5     -93    -79    -41    123    129 229.6 -23.6  33954  286.10 0855.04
2009/04/23 06:50:50.6     -93    -79    -41    123    129 229.6 -23.6  33954  286.10 0855.04
2009/04/23 06:50:50.6     -91    -87    -62    127    141 226.4 -31.7  33954  286.08 0855.04
2009/04/23 06:50:50.7     -93    -71    -60    118    132 232.7 -33.6  33952  286.05 0855.04
2009/04/23 06:50:50.8    -107    -74    -37    131    136 235.4 -20.7  33948  286.00 0855.04
2009/04/23 06:50:51.0     -53    -53    -45     76     88 225.0 -37.9  33948  285.98 0855.04
2009/04/23 06:50:51.1     -22    -70    -62     74     96 197.8 -48.7  33950  286.03 0855.04
2009/04/23 06:50:51.2      -2    -77    -44     78     89 181.8 -36.8  33954  286.08 0855.04
2009/04/23 06:50:51.3      -1    -72    -56     73     92 180.9 -46.1  33952  286.05 0855.04
2009/04/23 06:50:51.4      -3    -70    -44     71     83 182.7 -38.8  33950  286.03 0855.04
2009/04/23 06:50:51.5       1    -81    -64     82    104 178.6 -46.6  33952  286.07 0855.04
2009/04/23 06:50:51.6      -4    -93    -50     94    106 182.7 -35.2  33948  286.00 0855.04
2009/04/23 06:50:51.6       0    -82    -48     83     95 180.5 -37.3  33948  285.98 0855.04
2009/04/23 06:50:51.7     -45    -41    -28     62     68 227.8 -30.6  33944  285.93 0855.04
2009/04/23 06:50:51.9     -66    -22    -18     70     73 251.4 -14.5  33946  285.97 0855.04
2009/04/23 06:50:52.0     -76    -47    -13     90     91 238.5  -8.2  33946  285.97 0855.04
2009/04/23 06:50:52.1     -72    -51    -28     89     94 234.9 -17.6  33948  285.98 0855.04
2009/04/23 06:50:52.2     -57    -57    -43     82     92 225.0 -33.7  33950  286.03 0855.04
2009/04/23 06:50:52.2     -84    -27    -47     89    100 251.8 -34.7  33954  286.10 0855.04
2009/04/23 06:50:52.4    -110    -36    -44    116    124 251.6 -25.4  33950  286.03 0855.04
2009/04/23 06:50:52.5    -117    -47    -50    127    136 248.2 -26.9  33948  286.00 0855.04
2009/04/23 06:50:52.6     -94    -59    -63    112    128 238.0 -36.3  33944  285.93 0855.04
2009/04/23 06:50:52.7     -45    -69    -64     83    104 213.0 -45.6  33948  286.00 0855.04
2009/04/23 06:50:52.8     -78    -57    -42     97    105 233.6 -29.0  33944  285.92 0855.04
2009/04/23 06:50:52.9     -61    -32     -7     70     71 242.0  -6.2  33944  285.92 0855.04
2009/04/23 06:50:53.0     -65    -17    -26     68     72 254.9 -26.4  33944  285.92 0855.04
2009/04/23 06:50:53.1     -68    -43    -35     81     88 237.6 -29.5  33944  285.92 0855.04
2009/04/23 06:50:53.2     -89    -65     -4    111    112 234.0  -2.2  33948  285.98 0855.04
2009/04/23 06:50:53.3     -92    -58    -23    109    112 237.6 -11.9  33948  285.98 0855.04
2009/04/23 06:50:53.4     -94    -97    -43    136    142 224.1 -22.8  33952  286.07 0855.04
2009/04/23 06:50:53.5     -87    -90    -41    126    132 224.1 -23.8  33952  286.05 0855.04
2009/04/23 06:50:53.6     -78    -83    -49    115    125 223.2 -29.0  33950  286.02 0855.04
2009/04/23 06:50:53.7     -78    -77    -62    110    126 225.4 -36.3  33954  286.08 0855.04
2009/04/23 06:50:53.8     -70    -98    -55    121    132 215.6 -30.6  33952  286.07 0855.04
2009/04/23 06:50:53.9     -55    -86    -60    103    119 212.5 -37.3  33948  286.00 0855.04
2009/04/23 06:50:54.0     -39    -64    -45     76     88 211.6 -37.9  33950  286.02 0855.04
2009/04/23 06:50:54.1     -40    -64     -9     76     77 212.6  -7.3  33948  286.00 0855.04
2009/04/23 06:50:54.2     -67    -66     -2     95     96 225.4  -1.8  33952  286.05 0855.04
2009/04/23 06:50:54.3     -80    -79    -17    113    115 225.6  -8.8  33950  286.03 0855.04
2009/04/23 06:50:54.4     -77    -77    -22    110    113 225.0 -11.3  33948  286.00 0855.04
2009/04/23 06:50:54.5     -78    -64    -29    102    106 230.5 -20.2  33948  286.00 0855.04
2009/04/23 06:50:54.6     -47   -100    -13    111    112 205.3  -6.7  33950  286.02 0855.04
2009/04/23 06:50:54.7     -39   -122    -24    129    132 197.8 -10.9  33946  285.97 0855.04
2009/04/23 06:50:54.8     -12   -131    -17    132    134 185.3  -7.3  33950  286.03 0855.04
2009/04/23 06:50:54.9       2   -142    -22    143    145 179.0  -8.8  33948  285.98 0855.04
2009/04/23 06:50:55.0      18   -129    -36    131    136 172.0 -15.5  33948  286.00 0855.04
2009/04/23 06:50:55.1      44    -95     -4    105    106 155.1  -2.2  33946  285.97 0855.04
2009/04/23 06:50:55.2      50   -101     22    113    116 153.7  11.1  33952  286.05 0855.04
2009/04/23 06:50:55.3      46   -122     39    131    137 159.1  16.8  33950  286.02 0855.04
2009/04/23 06:50:55.4      51   -111     68    123    140 155.5  31.4  33948  286.00 0855.04
2009/04/23 06:50:55.5      28   -119     61    123    137 166.6  28.2  33948  285.98 0855.04
2009/04/23 06:50:55.6      27   -119     33    123    128 167.1  15.3  33952  286.07 0855.04
2009/04/23 06:50:55.7      13   -102      9    103    104 172.4   5.4  33950  286.03 0855.04
2009/04/23 06:50:55.8      17    -99    -21    101    104 170.2 -11.9  33948  286.00 0855.04
2009/04/23 06:50:55.9      30    -90    -21     96     99 161.3 -12.4  33948  286.00 0855.04
2009/04/23 06:50:56.0      31    -77     -5     84     85 157.7  -3.7  33948  286.00 0855.04
2009/04/23 06:50:56.1       8    -68     -1     69     70 172.9  -1.2  33948  286.00 0855.04
2009/04/23 06:50:56.2     -44    -53     -1     70     71 219.7  -1.3  33948  286.00 0855.04
2009/04/23 06:50:56.3     -89    -93    -16    130    132 223.7  -7.2  33948  286.00 0855.04
2009/04/23 06:50:56.4     -77    -77    -30    110    115 225.0 -15.4  33954  286.08 0855.04
2009/04/23 06:50:56.5     -77    -77    -41    110    117 225.0 -25.4  33948  286.00 0855.04
2009/04/23 06:50:56.6     -60    -66    -18     90     92 222.3 -11.3  33948  285.98 0855.04
2009/04/23 06:50:56.7     -15    -74     -4     76     77 191.6  -3.1  33948  285.98 0855.04
2009/04/23 06:50:56.8       5    -69     -9     70     71 175.5  -7.3  33948  286.00 0855.04
2009/04/23 06:50:56.9      10    -81    -19     82     85 172.4 -13.4  33948  286.00 0855.04
2009/04/23 06:50:57.0       4    -63    -29     64     70 176.4 -31.5  33948  286.00 0855.04
2009/04/23 06:50:57.1      -1    -65    -22     66     69 181.0 -23.6  33946  285.97 0855.04
2009/04/23 06:50:57.2      13    -68    -18     70     73 168.5 -14.5  33950  286.03 0855.04
2009/04/23 06:50:57.3      16    -96     -3     98     99 170.2  -2.2  33948  285.98 0855.04
2009/04/23 06:50:57.4     -11   -112     -2    113    114 185.8  -1.2  33948  286.00 0855.04
2009/04/23 06:50:57.5      -6   -132     -7    133    134 182.6  -3.2  33950  286.02 0855.04
2009/04/23 06:50:57.6      -9   -134     -7    135    136 184.0  -3.1  33948  286.00 0855.04
2009/04/23 06:50:57.7       0   -116     16    117    119 180.0   8.0  33948  286.00 0855.04
2009/04/23 06:50:57.8      -6   -110      9    111    112 183.1   4.9  33948  286.00 0855.04
2009/04/23 06:50:57.9     -27   -109     -4    113    114 194.3  -2.2  33950  286.03 0855.04
2009/04/23 06:50:58.0    -120    -99    -49    156    163 230.5 -22.5  33950  286.03 0855.04
2009/04/23 06:50:58.1    -155   -127    -73    201    213 230.5 -25.1  33948  286.00 0855.04
2009/04/23 06:50:58.2    -186   -126    -81    225    239 235.8 -25.1  33950  286.01 0855.04
2009/04/23 06:50:58.3    -176   -128    -88    218    235 234.0 -27.8  33948  285.98 0855.04
2009/04/23 06:50:58.4    -144    -99    -59    176    185 235.4 -23.6  33948  285.98 0855.04
2009/04/23 06:50:58.5     -63   -168    -69    180    192 200.7 -26.1  33948  285.98 0855.04
2009/04/23 06:50:58.6    -125   -118    -43    173    179 226.7 -13.9  33940  285.87 0855.04
2009/04/23 06:50:58.7    -108    -88      2    140    141 230.9   0.8  33948  285.98 0855.04
2009/04/23 06:50:58.8    -103   -146      7    179    180 215.2   2.5  33950  286.02 0855.04
2009/04/23 06:50:58.9     -88   -127    -19    155    157 214.7  -7.2  33948  285.98 0855.04
2009/04/23 06:50:59.0     -44   -115     11    124    125 200.9   5.4  33948  286.00 0855.04
2009/04/23 06:50:59.1     -16   -113     -5    115    116 188.0  -2.6  33948  285.98 0855.04
2009/04/23 06:50:59.2     -38   -141      3    147    148 195.2   1.2  33948  286.00 0855.04
2009/04/23 06:50:59.3     -68   -143     15    159    160 205.5   5.4  33948  286.00 0855.04
2009/04/23 06:50:59.4     -83    -86      2    120    121 224.1   1.2  33948  286.00 0855.04
2009/04/23 06:50:59.5     -68    -98     -9    120    121 214.7  -4.6  33950  286.02 0855.04
2009/04/23 06:50:59.6     -26   -132     16    135    136 191.5   6.9  33948  286.00 0855.04
2009/04/23 06:50:59.7     -26   -131     13    134    135 191.6   5.9  33948  286.00 0855.04
2009/04/23 06:50:59.8     -77   -157     20    175    177 206.1   6.7  33948  286.00 0855.04
2009/04/23 06:50:59.9    -124   -170    -27    211    213 216.1  -7.5  33950  286.02 0855.04
2009/04/23 06:51:00.0    -109   -184     17    214    215 210.7   4.6  33946  285.97 0855.04
2009/04/23 06:51:00.1    -146   -166     -8    222    223 221.4  -2.2  33948  286.00 0855.04
2009/04/23 06:51:00.2    -146   -176     -8    229    230 219.6  -2.2  33948  285.98 0855.04
2009/04/23 06:51:00.3    -165   -183    -17    247    248 221.9  -4.1  33950  286.01 0855.04
2009/04/23 06:51:00.4    -143   -178    -10    229    230 218.7  -2.6  33946  285.95 0855.04
2009/04/23 06:51:00.5    -174   -143    -20    226    227 230.5  -5.2  33948  286.00 0855.04
2009/04/23 06:51:00.6    -171   -160    -49    235    241 226.8 -11.9  33950  286.01 0855.04
2009/04/23 06:51:00.7    -157   -166    -49    229    235 223.4 -12.2  33950  286.01 0855.04
2009/04/23 06:51:00.8    -155   -146    -18    214    215 226.7  -4.9  33948  285.98 0855.04
2009/04/23 06:51:00.9    -179   -131    -51    223    229 233.8 -12.9  33950  286.02 0855.04
2009/04/23 06:51:01.0    -155   -128    -59    202    211 230.5 -16.4  33950  286.03 0855.04
2009/04/23 06:51:01.1    -157   -113    -61    194    204 234.0 -17.5  33948  286.00 0855.04
2009/04/23 06:51:01.2    -137   -125    -46    186    192 227.6 -13.9  33948  286.00 0855.04
2009/04/23 06:51:01.3    -118   -147    -59    189    197 218.7 -22.3  33952  286.07 0855.04
2009/04/23 06:51:01.4    -119   -114    -69    165    178 226.2 -28.2  33950  286.03 0855.04
2009/04/23 06:51:01.5    -144    -96    -57    174    183 236.3 -23.6  33948  286.00 0855.04
2009/04/23 06:51:01.6    -132    -94    -75    163    179 234.5 -31.0  33950  286.02 0855.04
2009/04/23 06:51:01.7    -126    -80    -53    150    159 237.5 -24.6  33950  286.03 0855.04
2009/04/23 06:51:01.8    -122    -79    -51    146    155 237.1 -19.6  33950  286.02 0855.04
2009/04/23 06:51:01.9    -111    -96    -28    148    151 229.1 -10.9  33952  286.05 0855.04
2009/04/23 06:51:02.0    -113   -113    -29    161    164 225.0 -10.5  33950  286.03 0855.04
2009/04/23 06:51:02.1    -107   -124    -37    165    170 220.8 -12.6  33948  286.00 0855.04
2009/04/23 06:51:02.2     -97   -114    -30    150    154 220.5 -11.3  33950  286.02 0855.04
2009/04/23 06:51:02.3    -104   -111    -36    153    158 223.2 -13.4  33948  286.00 0855.04
2009/04/23 06:51:02.4    -114   -111    -49    160    168 225.6 -17.0  33948  286.00 0855.04
2009/04/23 06:51:02.5    -101   -120    -50    158    166 220.1 -17.6  33950  286.02 0855.04
2009/04/23 06:51:02.6    -105   -110    -54    153    163 223.7 -19.7  33950  286.02 0855.04
2009/04/23 06:51:02.7    -101   -120    -50    158    166 220.1 -17.6  33950  286.02 0855.04
2009/04/23 06:51:02.8     -94   -122    -40    155    161 217.8 -14.7  33948  285.98 0855.04
2009/04/23 06:51:02.9    -101   -123    -46    160    167 219.2 -16.0  33950  286.02 0855.04
2009/04/23 06:51:03.0    -115   -127    -49    172    180 222.1 -16.0  33948  286.00 0855.04
2009/04/23 06:51:03.1     -98   -111    -44    149    156 221.4 -16.6  33948  286.00 0855.04
2009/04/23 06:51:03.2     -85   -103    -33    134    139 219.6 -13.9  33944  285.93 0855.04
2009/04/23 06:51:03.3     -57    -87    -21    105    108 213.4 -11.5  33942  285.88 0855.04
2009/04/23 06:51:03.4     -45    -86     -7     98     99 207.6  -4.1  33942  285.90 0855.04
2009/04/23 06:51:03.5     -33    -99      4    105    106 198.7   2.3  33942  285.88 0855.04
2009/04/23 06:51:03.6     -38   -109     18    116    118 199.6   8.9  33940  285.85 0855.04
2009/04/23 06:51:03.7     -61    -96     31    114    119 212.5  15.3  33942  285.90 0855.05
2009/04/23 06:51:03.8     -42    -98      5    107    108 203.6   2.9  33942  285.88 0855.05
2009/04/23 06:51:03.9     -28    -83     38     88     95 199.2  25.1  33942  285.90 0855.05
2009/04/23 06:51:04.0     -60    -95     49    113    123 212.5  25.1  33944  285.92 0855.05
2009/04/23 06:51:04.1     -44    -84     33     95    101 207.6  19.4  33944  285.92 0855.05
2009/04/23 06:51:04.2     -36   -118     14    124    125 197.0   6.9  33944  285.93 0855.05
2009/04/23 06:51:04.3     -35   -126     30    131    135 195.6  13.2  33942  285.88 0855.05
2009/04/23 06:51:04.4     -72    -99     12    123    124 216.0   5.9  33948  285.98 0855.05
2009/04/23 06:51:04.5     -77    -99     22    126    129 217.8  10.1  33946  285.95 0855.05
2009/04/23 06:51:04.6     -75   -118     -3    140    141 212.5  -1.3  33948  286.00 0855.05
2009/04/23 06:51:04.7     -50   -132    -12    142    143 200.9  -5.1  33950  286.03 0855.05
2009/04/23 06:51:04.8     -52   -131     -5    142    143 201.8  -2.2  33950  286.02 0855.05
2009/04/23 06:51:04.9     -41   -143      2    149    150 196.0   0.8  33948  286.00 0855.05
2009/04/23 06:51:05.0     -49   -138      3    147    148 199.6   1.2  33950  286.03 0855.05
2009/04/23 06:51:05.1     -73   -134     10    153    154 208.9   3.8  33948  286.00 0855.05
2009/04/23 06:51:05.2     -96   -100    -17    139    141 223.7  -7.3  33950  286.02 0855.05
2009/04/23 06:51:05.3    -100    -57    -33    116    121 240.2 -16.0  33950  286.02 0855.05
2009/04/23 06:51:05.4    -101    -37    -30    108    113 249.6 -15.4  33950  286.02 0855.05
2009/04/23 06:51:05.5    -103    -40    -14    111    112 248.7  -7.3  33948  286.00 0855.05
2009/04/23 06:51:05.6     -82    -31    -27     88     92 249.2 -22.3  33950  286.03 0855.05
2009/04/23 06:51:05.7     -73    -24    -49     77     91 251.8 -39.9  33950  286.02 0855.04
2009/04/23 06:51:05.8     -70    -10    -49     71     86 261.2 -42.4  33950  286.03 0855.04
2009/04/23 06:51:05.9     -77    -25    -47     82     94 251.6 -37.3  33950  286.03 0855.04
2009/04/23 06:51:06.0     -68    -22    -40     72     82 251.6 -35.8  33950  286.03 0855.04
2009/04/23 06:51:06.1     -80    -26    -31     85     90 251.6 -25.4  33950  286.03 0855.04
2009/04/23 06:51:06.2     -72    -24    -13     76     78 251.4 -10.3  33948  286.00 0855.04
2009/04/23 06:51:06.3     -75    -39    -22     85     88 242.0 -14.5  33952  286.07 0855.04
2009/04/23 06:51:06.4     -75    -28    -18     81     84 249.6 -12.9  33950  286.02 0855.04
2009/04/23 06:51:06.5     -73     -5    -24     74     77 265.6 -23.8  33948  286.00 0855.04
2009/04/23 06:51:06.6     -78    -12    -38     79     87 261.2 -31.6  33950  286.03 0855.04
2009/04/23 06:51:06.7     -69     -7    -40     70     80 263.9 -36.8  33950  286.02 0855.04
2009/04/23 06:51:06.8     -54    -25    -34     60     68 244.8 -36.8  33950  286.02 0855.04
2009/04/23 06:51:06.9     -38    -36    -31     53     61 226.9 -37.9  33950  286.03 0855.04
2009/04/23 06:51:07.0     -41     -5    -41     42     58 263.0 -56.4  33950  286.02 0855.04
2009/04/23 06:51:07.1     -21    -21    -23     30     37 225.0 -46.1  33950  286.02 0855.04
2009/04/23 06:51:07.2     -29    -34    -15     45     47 220.5 -23.6  33952  286.05 0855.04
2009/04/23 06:51:07.3     -23    -58    -22     63     67 201.9 -19.7  33950  286.03 0855.04
2009/04/23 06:51:07.4     -10    -64    -14     65     67 188.9 -12.4  33950  286.03 0855.04
2009/04/23 06:51:07.5     -18    -70    -14     73     75 195.1 -11.3  33948  286.00 0855.04
2009/04/23 06:51:07.6     -23    -67    -14     72     74 199.2 -11.3  33952  286.05 0855.04
2009/04/23 06:51:07.7     -23    -72     -9     76     77 198.3  -7.3  33950  286.02 0855.04
2009/04/23 06:51:07.8     -21    -63    -18     67     70 198.3 -15.5  33948  286.00 0855.04
2009/04/23 06:51:07.9     -15    -53    -15     56     59 196.0 -15.5  33950  286.02 0855.04
2009/04/23 06:51:08.0     -10    -51    -14     53     56 191.6 -15.4  33952  286.05 0855.04
2009/04/23 06:51:08.1     -12    -46     -7     48     49 195.1  -8.2  33948  286.00 0855.04
2009/04/23 06:51:08.2     -14    -43     -9     46     47 198.7 -11.3  33950  286.02 0855.04
2009/04/23 06:51:08.3      -6    -43    -10     44     46 188.9 -13.4  33950  286.03 0855.04
2009/04/23 06:51:08.4     -14    -49     -2     51     52 196.0  -2.2  33952  286.05 0855.04
2009/04/23 06:51:08.5     -23    -70      2     74     75 198.7   1.8  33950  286.03 0855.04
2009/04/23 06:51:08.6       1    -60     -2     61     62 179.0  -2.2  33950  286.02 0855.04
2009/04/23 06:51:08.7       0    -53     -7     54     55 180.0  -7.3  33948  286.00 0855.04
2009/04/23 06:51:08.8       5    -67    -39     68     78 175.5 -36.8  33950  286.02 0855.04
2009/04/23 06:51:08.9     -26    -68    -45     73     85 200.9 -39.4  33950  286.02 0855.04
2009/04/23 06:51:09.0     -31    -91    -33     97    102 198.7 -23.3  33948  286.00 0855.04
2009/04/23 06:51:09.1     -24   -118    -43    121    129 191.6 -19.6  33948  286.00 0855.04
2009/04/23 06:51:09.2     -41   -126    -43    133    140 198.3 -18.1  33948  286.00 0855.04
2009/04/23 06:51:09.3     -24   -118    -41    121    127 191.6 -23.3  33944  285.93 0855.04
2009/04/23 06:51:09.4     -11   -108    -46    109    118 186.2 -28.5  33948  286.00 0855.04
2009/04/23 06:51:09.5      -5   -105    -40    106    113 183.1 -25.9  33948  285.98 0855.04
2009/04/23 06:51:09.6     -25    -98    -44    102    111 194.7 -29.5  33946  285.97 0855.04
2009/04/23 06:51:09.7     -18    -93    -37     95    101 191.1 -26.9  33946  285.95 0855.05
2009/04/23 06:51:09.8       5    -81    -40     82     91 176.0 -32.2  33948  285.98 0855.05
2009/04/23 06:51:09.9      -5    -74    -39     75     84 184.4 -34.2  33946  285.97 0855.05
2009/04/23 06:51:10.0      -1    -73    -29     74     79 181.0 -26.4  33948  286.00 0855.05
2009/04/23 06:51:10.1      -9    -41    -44     43     61 193.4 -54.5  33948  285.98 0855.05
2009/04/23 06:51:10.2     -35    -28    -33     45     55 231.4 -44.1  33948  286.00 0855.05
2009/04/23 06:51:10.3     -35     -7    -28     36     45 258.5 -46.1  33948  286.00 0855.05
2009/04/23 06:51:10.4     -33    -14    -24     36     43 246.5 -42.0  33948  286.00 0855.05
2009/04/23 06:51:10.5     -33    -14    -24     36     43 246.5 -42.0  33948  286.00 0855.05
2009/04/23 06:51:10.6     -26    -21    -32     34     46 230.4 -54.4  33948  285.98 0855.05
2009/04/23 06:51:10.7     -44    -19    -28     49     56 246.5 -37.9  33942  285.90 0855.05
2009/04/23 06:51:10.8     -48    -37    -46     61     76 232.2 -45.1  33940  285.85 0855.05
2009/04/23 06:51:10.9     -46    -47    -46     66     80 224.2 -43.0  33942  285.88 0855.05
2009/04/23 06:51:11.0     -50    -28    -32     58     66 240.2 -35.8  33942  285.90 0855.05
2009/04/23 06:51:11.1     -13    -21    -47     26     53 212.5 -73.2  33944  285.93 0855.05
2009/04/23 06:51:11.2       1    -53    -41     54     67 178.2 -45.1  33946  285.95 0855.05
2009/04/23 06:51:11.3      10    -58    -28     59     65 170.2 -31.6  33942  285.90 0855.05
2009/04/23 06:51:11.4      21    -65    -45     69     82 161.7 -40.9  33944  285.92 0855.05
2009/04/23 06:51:11.5      19    -93    -34     95    100 168.4 -24.4  33942  285.88 0855.05
2009/04/23 06:51:11.6      15   -103    -13    105    106 171.5  -7.3  33944  285.92 0855.05
2009/04/23 06:51:11.7      13    -78    -26     80     84 170.2 -23.8  33942  285.90 0855.04
2009/04/23 06:51:11.8      -3    -62    -44     63     76 183.6 -42.0  33944  285.93 0855.04
2009/04/23 06:51:11.9     -10    -75    -37     76     84 188.0 -32.2  33942  285.90 0855.04
2009/04/23 06:51:12.0      -1    -71    -38     72     81 180.9 -34.7  33944  285.93 0855.04
2009/04/23 06:51:12.1      -4    -85    -24     86     89 183.1 -20.7  33944  285.93 0855.04
2009/04/23 06:51:12.2     -14    -81    -19     83     86 190.2 -13.4  33942  285.90 0855.04
2009/04/23 06:51:12.3     -33    -83    -10     90     91 201.8  -6.7  33940  285.87 0855.04
2009/04/23 06:51:12.4     -49    -89      2    102    103 208.9   1.2  33942  285.88 0855.04
2009/04/23 06:51:12.5     -64    -68      8     94     95 223.2   4.9  33940  285.85 0855.04
2009/04/23 06:51:12.6     -84    -85     -4    120    121 224.5  -2.2  33944  285.92 0855.04
2009/04/23 06:51:12.7     -75   -118    -17    141    143 212.5  -7.2  33948  286.00 0855.04
2009/04/23 06:51:12.8     -40   -119    -42    126    134 198.7 -18.7  33946  285.95 0855.04
2009/04/23 06:51:12.9     -47   -124    -36    133    138 200.9 -15.4  33946  285.97 0855.04
2009/04/23 06:51:13.0     -44   -119    -40    128    135 200.5 -17.5  33944  285.92 0855.04
2009/04/23 06:51:13.1     -39   -112    -34    119    124 199.6 -16.0  33944  285.93 0855.04
2009/04/23 06:51:13.2     -61    -96    -14    114    115 212.6  -7.3  33948  286.00 0855.04
2009/04/23 06:51:13.3     -44    -90     -9    101    102 206.3  -5.6  33946  285.95 0855.04
2009/04/23 06:51:13.4     -43   -108    -14    117    118 201.8  -7.2  33946  285.97 0855.04
2009/04/23 06:51:13.5     -57    -98    -20    114    116 210.3 -10.3  33946  285.95 0855.04
2009/04/23 06:51:13.6     -47   -106    -27    117    121 204.1 -12.9  33946  285.95 0855.04
2009/04/23 06:51:13.7     -25   -113    -16    116    118 192.5  -8.2  33946  285.95 0855.04
2009/04/23 06:51:13.8     -27   -117    -26    121    124 192.9 -12.4  33948  286.00 0855.04
2009/04/23 06:51:13.9     -36   -111    -21    117    119 198.3 -10.3  33946  285.95 0855.04
2009/04/23 06:51:14.0     -31    -92    -30     98    103 198.5 -17.0  33948  286.00 0855.04
2009/04/23 06:51:14.1     -28   -105    -29    109    113 195.2 -15.0  33948  285.98 0855.04
2009/04/23 06:51:14.2      -2    -83    -13     84     86 181.8  -9.3  33946  285.95 0855.04
2009/04/23 06:51:14.3     -10    -64    -23     65     70 188.9 -19.7  33948  285.98 0855.04
2009/04/23 06:51:14.4       4    -61    -22     62     66 175.6 -19.7  33948  285.98 0855.04
2009/04/23 06:51:14.5      18    -76    -19     79     82 166.6 -13.9  33946  285.95 0855.04
2009/04/23 06:51:14.6     -57   -229    -66    236    245 194.0 -20.4  34002  286.89 0855.04
2009/04/23 06:51:14.7      15    -69      8     71     72 167.5   7.1  33948  285.98 0855.04
2009/04/23 06:51:14.8      12    -54     19     56     60 167.5  19.2  33946  285.95 0855.04
2009/04/23 06:51:15.0      56    -63     11     85     86 138.1   7.5  33950  286.03 0855.04
2009/04/23 06:51:15.0      74    -49     17     89     91 123.7  11.1  33950  286.02 0855.04
2009/04/23 06:51:15.1      67    -51     15     85     87 127.3  10.6  33948  285.98 0855.04
2009/04/23 06:51:15.2      62    -51     12     81     82 129.6   8.5  33948  285.98 0855.04
2009/04/23 06:51:15.4      61    -50     -3     80     81 129.5  -2.2  33948  285.98 0855.04
2009/04/23 06:51:15.4      61    -50     -3     80     81 129.5  -2.2  33948  285.98 0855.04
2009/04/23 06:51:15.5      60    -45     -9     75     76 126.9  -7.2  33948  285.98 0855.04
2009/04/23 06:51:15.6      52    -38      0     65     66 126.0   0.8  33946  285.97 0855.04
2009/04/23 06:51:15.8      65    -38     -3     76     77 120.7  -2.2  33948  285.98 0855.04
2009/04/23 06:51:15.9      52    -33     -6     62     63 122.4  -6.2  33944  285.93 0855.04
2009/04/23 06:51:16.0      42    -17     -5     46     47 112.6  -7.3  33948  285.98 0855.04
2009/04/23 06:51:16.1      32    -10     -1     34     35 108.4  -2.2  33946  285.97 0855.04
2009/04/23 06:51:16.1      29     -8     -1     31     32 105.1  -2.2  33944  285.93 0855.04
2009/04/23 06:51:16.3      23      0      7     24     26  90.0  17.3  33946  285.95 0855.04
2009/04/23 06:51:16.4      35     -7     21     36     41 101.5  32.4  33944  285.93 0855.04
2009/04/23 06:51:16.4      15    -17     15     24     28 138.6  35.5  33942  285.90 0855.04
2009/04/23 06:51:16.6      29    -15     13     33     35 117.1  21.0  33940  285.87 0855.04
2009/04/23 06:51:16.7      22     -5     23     23     32 103.3  50.1  33942  285.88 0855.04
2009/04/23 06:51:16.7      28    -23     28     37     46 129.5  40.7  33942  285.90 0855.04
2009/04/23 06:51:16.9      26     -7     12     27     29 105.1  23.0  33944  285.92 0855.04
2009/04/23 06:51:16.9      37      0      0     38     39  90.0  -1.3  33944  285.93 0855.04
2009/04/23 06:51:17.1      37      7     -6     38     39  78.6 -10.3  33944  285.93 0855.04
2009/04/23 06:51:17.2      35     16     -2     39     40  64.6  -3.1  33946  285.97 0855.04
2009/04/23 06:51:17.2      44     31      2     54     55  54.9   2.8  33940  285.87 0855.04
2009/04/23 06:51:17.3      45     25      5     52     53  60.2   5.9  33942  285.90 0855.04
2009/04/23 06:51:17.5      32     26      4     42     43  51.4   5.9  33942  285.90 0855.04
2009/04/23 06:51:17.6      34     31      7     47     48  47.8   9.0  33940  285.87 0855.04
2009/04/23 06:51:17.7      18     14     16     24     28  52.2  35.6  33940  285.87 0855.04
2009/04/23 06:51:17.8       6     29     21     30     36  11.6  37.6  33940  285.87 0855.04
2009/04/23 06:51:17.9       0     19     16     20     25 357.3  43.7  33942  285.88 0855.04
2009/04/23 06:51:18.0       0     30     15     31     34 359.1  27.2  33942  285.88 0855.04
2009/04/23 06:51:18.1      -5     19     20     20     28 343.1  50.1  33942  285.88 0855.04
2009/04/23 06:51:18.1       9     15      0     18     19  32.6  -2.2  33944  285.93 0855.04
2009/04/23 06:51:18.3      28     19    -11     34     35  55.8 -23.8  33942  285.90 0855.04
2009/04/23 06:51:18.4      21     16    -17     27     31  52.2 -39.9  33944  285.93 0855.04
2009/04/23 06:51:18.5      35      0    -38     36     52  90.0 -54.5  33946  285.95 0855.04
2009/04/23 06:51:18.6      35    -19    -40     41     57 118.9 -55.5  33946  285.95 0855.04
2009/04/23 06:51:18.7      31     -6    -42     32     52 101.4 -61.9  33946  285.95 0855.04
2009/04/23 06:51:18.8      -1     20    -48     21     52 355.6 -79.4  33942  285.88 0855.04
2009/04/23 06:51:18.9     -24      4    -51     25     56 281.5 -77.2  33942  285.90 0855.04
2009/04/23 06:51:19.0     -43      8    -76     44     87 280.6 -71.6  33946  285.95 0855.04
2009/04/23 06:51:19.1     -67      0    -92     68    114 270.0 -64.9  33944  285.92 0855.04
2009/04/23 06:51:19.2     -83    -15    -98     85    129 259.4 -59.2  33944  285.92 0855.04
2009/04/23 06:51:19.3     -27    -43    -95     52    108 212.5 -73.7  33942  285.90 0855.04
2009/04/23 06:51:19.4     -26     15    -74     31     80 300.7 -80.5  33946  285.95 0855.04
2009/04/23 06:51:19.5     -22      6    -80     23     83 286.8 -88.3  33942  285.88 0855.04
2009/04/23 06:51:19.6     -11     25    -65     28     70 336.4 -79.4  33942  285.88 0855.04
2009/04/23 06:51:19.7      15      4    -51     16     53  74.9 -85.1  33942  285.90 0855.04
2009/04/23 06:51:19.8      41     36    -43     55     69  48.7 -47.1  33942  285.88 0855.04
2009/04/23 06:51:19.9      42     42    -33     60     68  45.0 -35.8  33940  285.87 0855.04
2009/04/23 06:51:20.0     -42     26    -75     50     90 302.4 -68.0  33944  285.93 0855.04
2009/04/23 06:51:20.1       0     52    -38     53     65   0.9 -43.9  33942  285.88 0855.04
2009/04/23 06:51:20.2     -63    -20    -35     67     75 252.3 -34.7  33942  285.90 0855.04
2009/04/23 06:51:20.3    -114     27    -87    118    146 283.7 -44.1  33940  285.87 0855.04
2009/04/23 06:51:20.4    -126     -5    -85    127    152 267.4 -40.9  33942  285.90 0855.04
2009/04/23 06:51:20.5     -92     -7    -62     93    111 265.6 -40.9  33944  285.92 0855.04
2009/04/23 06:51:20.6     -88    -29    -58     93    109 251.4 -39.9  33944  285.93 0855.04
2009/04/23 06:51:20.7     -51    -62    -35     81     88 219.6 -29.5  33944  285.92 0855.04
2009/04/23 06:51:20.8     -56    -57     -3     81     82 224.5  -2.2  33942  285.90 0855.04
2009/04/23 06:51:20.9     -75    -45     -4     88     89 238.9  -2.6  33946  285.95 0855.04
2009/04/23 06:51:21.0     -40    -33     11     53     55 230.5  12.2  33944  285.92 0855.04
2009/04/23 06:51:21.1     -42    -54      3     69     70 217.8   2.9  33944  285.93 0855.04
2009/04/23 06:51:21.2     -45    -86     -7     98     99 207.6  -4.1  33944  285.93 0855.04
2009/04/23 06:51:21.3     -85    -85     -6    121    122 225.0  -3.2  33946  285.95 0855.04
2009/04/23 06:51:21.4    -122    -13    -16    123    125 263.9  -7.7  33942  285.90 0855.04
2009/04/23 06:51:21.5    -101    -65    -18    121    123 237.1  -8.8  33942  285.90 0855.04
2009/04/23 06:51:21.6    -121    -57     -9    134    135 244.8  -4.1  33940  285.87 0855.04
2009/04/23 06:51:21.7     -98    -19      8    100    101 258.5   4.9  33942  285.88 0855.04
2009/04/23 06:51:21.8     -78     15     31     80     85 281.5  22.0  33942  285.90 0855.04
2009/04/23 06:51:21.9     -22    -17     70     29     75 232.2  77.0  33942  285.90 0855.04
2009/04/23 06:51:22.0     -28    -42     64     51     81 214.3  57.5  33942  285.90 0855.04
2009/04/23 06:51:22.1     -69    -57     55     90    105 230.5  35.0  33942  285.88 0855.04
2009/04/23 06:51:22.2     -76    -64     15    100    102 229.6   9.0  33940  285.87 0855.04
2009/04/23 06:51:22.3     -77    -71      1    106    107 227.3   0.8  33940  285.87 0855.04
2009/04/23 06:51:22.4     -72    -81     -6    109    110 221.9  -3.1  33942  285.90 0855.04
2009/04/23 06:51:22.5     -34    -69     16     78     80 206.3  12.2  33944  285.92 0855.04
2009/04/23 06:51:22.6     -64    -71     42     96    104 221.9  25.1  33942  285.90 0855.04
2009/04/23 06:51:22.7     -90    -25     48     94    105 254.1  29.3  33940  285.87 0855.04
2009/04/23 06:51:22.8    -108     12     63    109    125 276.6  33.4  33940  285.85 0855.04
2009/04/23 06:51:22.9    -117     12     54    118    129 276.1  26.6  33940  285.87 0855.04
2009/04/23 06:51:23.0    -124     -3     38    125    131 268.3  17.3  33940  285.87 0855.04
2009/04/23 06:51:23.1    -108     28     42    112    119 284.6  21.0  33942  285.90 0855.04
2009/04/23 06:51:23.2     -97     14     66     99    118 278.4  37.0  33944  285.93 0855.04
2009/04/23 06:51:23.3    -118     31     49    123    132 285.1  23.0  33942  285.90 0855.04
2009/04/23 06:51:23.4    -118     23      0    121    122 281.0   0.2  33944  285.93 0855.04
2009/04/23 06:51:23.5    -112     26     12    116    117 283.3   5.9  33944  285.92 0855.04
2009/04/23 06:51:23.6    -104     41      2    112    113 291.7   1.2  33944  285.93 0855.04
2009/04/23 06:51:23.7     -92     31     -5     98     99 288.6  -3.1  33946  285.97 0855.04
2009/04/23 06:51:23.8     -91     44     -5    102    103 295.8  -3.1  33946  285.97 0855.03
2009/04/23 06:51:23.9     -78     49     -6     93     94 302.4  -4.1  33946  285.97 0855.03
2009/04/23 06:51:24.0     -86     71     -2    112    113 309.5  -1.3  33946  285.95 0855.03
2009/04/23 06:51:24.1     -83     67    -13    107    108 309.1  -7.2  33948  285.98 0855.03
2009/04/23 06:51:24.2     -73     73    -14    104    105 315.0  -7.7  33948  286.00 0855.03
2009/04/23 06:51:24.3     -61     65    -18     90     92 316.8 -11.3  33948  285.98 0855.03
2009/04/23 06:51:24.4     -41     71    -26     83     88 329.7 -17.6  33946  285.95 0855.03
2009/04/23 06:51:24.5     -60     61    -24     86     90 315.3 -15.5  33944  285.93 0855.03
2009/04/23 06:51:24.6     -54     70     -3     89     90 322.2  -2.2  33944  285.93 0855.03
2009/04/23 06:51:24.7     -59     63     30     87     93 316.8  18.9  33942  285.90 0855.03
2009/04/23 06:51:24.8     -55     65     30     86     92 319.5  19.4  33942  285.88 0855.03
2009/04/23 06:51:24.9     -67     64     33     93     98 313.6  20.0  33940  285.85 0855.03
2009/04/23 06:51:25.0     -55     40     64     69     94 306.0  48.5  33934  285.76 0855.03
2009/04/23 06:51:25.1     -76     11     66     77    101 278.8  44.8  33940  285.87 0855.03
2009/04/23 06:51:25.2    -113     22     58    116    129 281.4  28.7  33940  285.85 0855.03
2009/04/23 06:51:25.3    -102     40     54    110    122 291.7  27.8  33938  285.83 0855.03
2009/04/23 06:51:25.4     -90     19     33     93     98 282.4  20.0  33942  285.90 0855.03
2009/04/23 06:51:25.5    -107     14     16    109    111 277.9   8.5  33944  285.92 0855.03
2009/04/23 06:51:25.6    -105     27     41    109    116 284.6  21.0  33942  285.88 0855.03
2009/04/23 06:51:25.7     -82     37     33     91     96 294.4  20.0  33940  285.85 0855.03
2009/04/23 06:51:25.8     -25    -29     24     39     45 221.4  35.5  33938  285.82 0855.03
2009/04/23 06:51:25.9       0    -17     56     18     58 182.7  80.7  33942  285.88 0855.03
2009/04/23 06:51:26.0      18      0     56     19     59  90.0  81.0  33940  285.87 0855.03
2009/04/23 06:51:26.1      51     42     64     67     92  50.5  49.0  33942  285.90 0855.03
2009/04/23 06:51:26.2      47     42     73     64     97  47.8  54.3  33942  285.90 0855.03
2009/04/23 06:51:26.3      48     30     68     57     88  57.6  55.8  33942  285.88 0855.03
2009/04/23 06:51:26.4      32     21     65     39     75  55.8  64.7  33944  285.93 0855.03
2009/04/23 06:51:26.5      31      0     45     32     55  90.0  61.5  33944  285.92 0855.03
2009/04/23 06:51:26.6      25     -9     50     27     56 111.7  69.8  33942  285.90 0855.03
2009/04/23 06:51:26.7      16      0     44     17     47  90.0  79.2  33940  285.87 0855.03
2009/04/23 06:51:26.8      -4      7     34      9     35 327.5  86.9  33946  285.95 0855.03
2009/04/23 06:51:26.9       5     10     39     12     40  25.4  82.8  33946  285.97 0855.03
2009/04/23 06:51:27.0     -11     17     27     21     34 325.7  56.4  33946  285.95 0855.03
2009/04/23 06:51:27.1      -3     22     42     23     47 350.2  68.8  33946  285.95 0855.03
2009/04/23 06:51:27.2       8      0     26      9     27  85.6  81.0  33944  285.93 0855.03
2009/04/23 06:51:27.3      14    -22     38     27     46 147.5  61.5  33940  285.87 0855.03
2009/04/23 06:51:27.4       8     -8     49     12     50 133.1  88.0  33944  285.93 0855.03
2009/04/23 06:51:27.5       2     -7     52      8     52 161.3  90.0  33946  285.95 0855.03
2009/04/23 06:51:27.6      29     11     56     32     64  68.3  67.7  33944  285.93 0855.03
2009/04/23 06:51:27.7      30    -19     48     36     60 122.5  59.4  33944  285.92 0855.03
2009/04/23 06:51:27.8       0     24     41     25     48   0.9  64.7  33944  285.92 0855.03
2009/04/23 06:51:27.9       0     32     47     33     57 359.1  61.5  33946  285.95 0855.03
2009/04/23 06:51:28.0      40     40     40     57     69  45.1  38.6  33944  285.92 0855.03
2009/04/23 06:51:28.1      36     32     32     49     58  48.7  35.6  33946  285.97 0855.03
2009/04/23 06:51:28.2      56     14     45     58     73  75.8  42.7  33944  285.92 0855.03
2009/04/23 06:51:28.3      59     25     65     65     91  66.5  50.1  33944  285.93 0855.03
2009/04/23 06:51:28.4      63     38     62     74     96  58.5  44.3  33944  285.93 0855.03
2009/04/23 06:51:28.5      40     24     66     47     81  59.3  61.1  33940  285.87 0855.03
2009/04/23 06:51:28.6       0      3     40      4     40 355.5  90.0  33942  285.90 0855.03
2009/04/23 06:51:28.7      -6     26     47     27     54 346.6  66.8  33942  285.90 0855.03
2009/04/23 06:51:28.8      -6     26     47     27     54 346.6  66.8  33942  285.90 0855.03
2009/04/23 06:51:28.9       6     14     36     16     39  25.4  75.0  33940  285.87 0855.03
2009/04/23 06:51:29.0      -8     13     31     16     34 327.5  70.8  33940  285.87 0855.03
2009/04/23 06:51:29.1       0     28     43     29     51 359.1  62.6  33942  285.88 0855.03
2009/04/23 06:51:29.2       0     -5     54      6     54 182.7  90.0  33944  285.92 0855.03
2009/04/23 06:51:29.3       6     20     46     22     51  18.5  72.9  33942  285.88 0855.03
2009/04/23 06:51:29.4      45     43     59     63     86  46.9  48.5  33942  285.90 0855.03
2009/04/23 06:51:29.5      48     41     74     64     97  49.6  54.3  33942  285.88 0855.03
2009/04/23 06:51:29.6      45     31     58     55     79  54.9  51.2  33940  285.87 0855.03
2009/04/23 06:51:29.7      69     35     54     78     94  62.9  37.6  33942  285.88 0855.03
2009/04/23 06:51:29.8      63     40     35     75     82  57.6  26.6  33944  285.92 0855.03
2009/04/23 06:51:29.9      31     12     31     34     46  68.3  47.9  33944  285.92 0855.03
2009/04/23 06:51:30.0      55     12     27     57     63  77.6  27.2  33942  285.88 0855.03
2009/04/23 06:51:30.1      49     21     22     54     58  66.5  22.0  33940  285.87 0855.03
2009/04/23 06:51:30.2      58     13      1     60     61  76.7   1.8  33944  285.93 0855.03
2009/04/23 06:51:30.3      56     10      0     57     58  79.4   0.8  33942  285.90 0855.03
2009/04/23 06:51:30.4      91     18      1     93     94  78.5   1.2  33944  285.92 0855.03
2009/04/23 06:51:30.5      41     26     23     49     54  57.6  27.1  33940  285.85 0855.03
2009/04/23 06:51:30.6      -6     35     40     36     53 350.2  52.2  33940  285.87 0855.03
2009/04/23 06:51:30.7      -4     57     22     58     62 355.6  22.0  33940  285.87 0855.03
2009/04/23 06:51:30.8     -16     51     15     54     57 342.2  15.3  33940  285.85 0855.02
2009/04/23 06:51:30.9     -32     50     21     60     64 327.5  19.2  33942  285.88 0855.02
2009/04/23 06:51:31.0     -34     62     14     72     74 331.0  11.1  33940  285.87 0855.02
2009/04/23 06:51:31.1     -39     54     21     67     71 324.0  17.3  33942  285.88 0855.02
2009/04/23 06:51:31.2     -49     53     15     73     75 316.8  12.2  33940  285.87 0855.02
2009/04/23 06:51:31.3     -36     55     24     66     70 326.6  20.0  33940  285.85 0855.02
2009/04/23 06:51:31.4     -22     55     16     60     63 338.1  15.3  33942  285.88 0855.02
2009/04/23 06:51:31.5     -29     59     23     66     71 333.7  19.4  33944  285.92 0855.02
2009/04/23 06:51:31.6     -18     55     21     58     61 341.5  20.0  33944  285.92 0855.02
2009/04/23 06:51:31.7     -20     61     17     65     68 341.7  15.2  33944  285.92 0855.02
2009/04/23 06:51:31.8     -18     57      3     60     61 342.2   2.9  33942  285.88 0855.02
2009/04/23 06:51:31.9     -11     58     -1     60     61 348.5  -1.2  33942  285.90 0855.02
2009/04/23 06:51:32.1     -17     53     -7     56     57 341.5  -7.2  33944  285.93 0855.02
2009/04/23 06:51:32.2     -33     45      0     56     57 323.9  -0.3  33940  285.87 0855.02
2009/04/23 06:51:32.3     -21     44      9     49     50 334.6  11.0  33940  285.85 0855.02
2009/04/23 06:51:32.4     -18     39     13     44     47 334.6  17.3  33940  285.87 0855.02
2009/04/23 06:51:32.5     -22     37      2     44     45 329.3   2.9  33940  285.87 0855.02
2009/04/23 06:51:32.6     -20     34     -1     40     41 329.3  -2.2  33940  285.87 0855.02
2009/04/23 06:51:32.7     -39     25      1     47     48 302.5   1.8  33936  285.80 0855.02
2009/04/23 06:51:32.8     -51     25      6     57     58 296.2   6.9  33938  285.82 0855.02
2009/04/23 06:51:32.9     -53     21      6     58     59 291.7   5.9  33940  285.85 0855.02
2009/04/23 06:51:33.0     -58     22      0     63     64 290.8  -0.3  33936  285.78 0855.02
2009/04/23 06:51:33.1     -65     26      7     71     72 291.7   5.9  33938  285.82 0855.02
2009/04/23 06:51:33.2     -54     21     11     59     61 291.7  11.1  33934  285.76 0855.02
2009/04/23 06:51:33.3     -60     24     14     65     67 291.8  12.2  33936  285.80 0855.02
2009/04/23 06:51:33.4     -57     19     19     61     64 288.4  17.3  33938  285.82 0855.02
2009/04/23 06:51:33.5     -43     22     17     49     52 297.1  19.4  33940  285.85 0855.02
2009/04/23 06:51:33.6     -38     18     22     43     48 296.2  29.3  33938  285.82 0855.02
2009/04/23 06:51:33.7     -44     19     24     48     53 293.5  27.3  33936  285.80 0855.02
2009/04/23 06:51:33.8     -50     16     24     53     58 288.6  26.2  33940  285.85 0855.02
2009/04/23 06:51:33.9     -35      8     25     36     43 283.3  38.6  33938  285.83 0855.02
2009/04/23 06:51:34.0     -32     15     27     36     45 295.4  40.7  33938  285.83 0855.02
2009/04/23 06:51:34.1     -46      7     29     47     55 278.8  35.5  33938  285.82 0855.02
2009/04/23 06:51:34.2     -38     -2     36     39     53 265.7  47.9  33938  285.82 0855.02
2009/04/23 06:51:34.3     -30    -10     31     32     44 250.0  51.1  33938  285.82 0855.02
2009/04/23 06:51:34.4     -48    -16     30     51     59 251.4  34.4  33936  285.78 0855.02
2009/04/23 06:51:34.5     -66    -12     35     68     76 259.4  29.3  33938  285.82 0855.02
2009/04/23 06:51:34.6     -48    -13     27     50     56 254.9  30.3  33938  285.82 0855.02
2009/04/23 06:51:34.7     -47    -15     21     50     54 251.4  23.0  33936  285.80 0855.02
2009/04/23 06:51:34.8     -46    -22      9     52     53 244.6  10.1  33934  285.76 0855.03
2009/04/23 06:51:34.9     -39    -18      8     44     45 244.7  11.1  33938  285.82 0855.03
2009/04/23 06:51:35.0     -35    -23      2     43     44 236.7   2.9  33934  285.76 0855.03
2009/04/23 06:51:35.1     -35    -28      2     45     46 231.4   2.9  33936  285.80 0855.03
2009/04/23 06:51:35.2     -41    -17    -11     45     47 247.4 -14.5  33938  285.82 0855.03
2009/04/23 06:51:35.3     -49     -6    -16     50     52 263.0 -23.8  33936  285.80 0855.03
2009/04/23 06:51:35.4     -38     -2    -10     39     41 266.5 -14.5  33938  285.82 0855.03
2009/04/23 06:51:35.5     -48      3    -13     49     51 274.4 -15.4  33942  285.90 0855.03
2009/04/23 06:51:35.6     -72     -7    -43     73     84 263.9 -38.4  33944  285.92 0855.03
2009/04/23 06:51:35.7     -91     -7    -34     92     98 265.2 -25.9  33944  285.93 0855.03
2009/04/23 06:51:35.8     -79    -21    -24     82     86 254.5 -16.6  33940  285.85 0855.03
2009/04/23 06:51:35.9     -83    -25    -20     87     90 252.7 -12.9  33942  285.88 0855.03
2009/04/23 06:51:36.0     -76    -30    -19     82     85 248.3 -13.4  33940  285.85 0855.03
2009/04/23 06:51:36.1     -61    -51    -17     80     82 230.4 -12.4  33938  285.82 0855.03
2009/04/23 06:51:36.2     -55    -40    -20     69     71 234.1 -20.7  33940  285.85 0855.03
2009/04/23 06:51:36.3     -45    -25    -26     52     58 240.2 -32.6  33940  285.87 0855.03
2009/04/23 06:51:36.4     -21    -47    -16     52     54 204.5 -23.8  33938  285.83 0855.03
2009/04/23 06:51:36.5     -12    -54    -19     56     59 192.5 -23.6  33936  285.80 0855.03
2009/04/23 06:51:36.6     -21    -55    -21     59     62 200.9 -24.4  33940  285.87 0855.03
2009/04/23 06:51:36.7     -37    -58    -32     69     76 212.5 -31.5  33938  285.83 0855.03
2009/04/23 06:51:36.8     -44    -89    -30    100    105 206.7 -16.6  33938  285.83 0855.03
2009/04/23 06:51:36.9     -28    -86     -8     91     92 198.3  -5.6  33938  285.83 0855.03
2009/04/23 06:51:37.0     -23    -66     13     70     72 199.2  11.1  33936  285.80 0855.03
2009/04/23 06:51:37.1     -55    -35     23     66     71 237.6  19.4  33938  285.82 0855.03
2009/04/23 06:51:37.2     -59    -28     18     66     69 244.8  15.3  33938  285.82 0855.03
2009/04/23 06:51:37.3     -60    -26     18     66     69 246.5  15.2  33936  285.80 0855.03
2009/04/23 06:51:37.4     -59    -28     18     66     69 244.8  15.3  33938  285.82 0855.03
2009/04/23 06:51:37.5     -46    -25      0     53     54 241.1   0.8  33938  285.83 0855.03
2009/04/23 06:51:37.6     -31     -2     -1     32     33 265.6  -2.2  33938  285.82 0855.03
2009/04/23 06:51:37.7     -35    -22    -12     42     43 237.6 -21.7  33936  285.80 0855.03
2009/04/23 06:51:37.8     -27    -25     -9     37     39 226.9 -14.5  33938  285.82 0855.03
2009/04/23 06:51:37.9     -19    -23     -8     31     33 219.6 -15.4  33936  285.78 0855.03
2009/04/23 06:51:38.0     -30    -10    -22     32     38 250.0 -42.0  33938  285.82 0855.03
2009/04/23 06:51:38.1     -18    -24    -11     31     32 217.8 -23.3  33938  285.83 0855.03
2009/04/23 06:51:38.2     -29    -32     -4     44     45 221.4  -5.2  33934  285.75 0855.03
2009/04/23 06:51:38.3     -25    -22     -1     34     35 228.7  -2.2  33934  285.76 0855.03
2009/04/23 06:51:38.4     -25    -22     -1     34     35 228.7  -2.2  33934  285.76 0855.03
2009/04/23 06:51:38.5     -23    -19      0     30     31 230.5   0.8  33934  285.75 0855.03
2009/04/23 06:51:38.6     -21    -29      1     37     38 216.1   2.9  33934  285.76 0855.03
2009/04/23 06:51:38.7      -2    -34      3     35     36 184.5   4.9  33934  285.76 0855.03
2009/04/23 06:51:38.8       7    -22      8     24     26 161.5  19.4  33934  285.76 0855.03
2009/04/23 06:51:38.9       9    -30      0     32     33 163.1   0.8  33936  285.80 0855.03
2009/04/23 06:51:39.0       0    -37     -1     38     39 180.9  -2.2  33934  285.76 0855.03
2009/04/23 06:51:39.1       0    -27     -8     28     30 180.9 -15.5  33936  285.80 0855.03
2009/04/23 06:51:39.2       1    -25     -6     26     27 177.3 -13.4  33938  285.82 0855.03
2009/04/23 06:51:39.3     -19    -33     -1     39     40 210.7  -2.2  33938  285.82 0855.03
2009/04/23 06:51:39.4      -2    -45    -24     46     51 182.7 -33.7  33938  285.83 0855.03
2009/04/23 06:51:39.5     -12    -47    -19     49     52 195.1 -26.4  33938  285.83 0855.03
2009/04/23 06:51:39.6      -7    -54    -15     55     57 188.0 -20.7  33940  285.85 0855.03
2009/04/23 06:51:39.7      -4    -52    -14     53     56 184.4 -15.5  33938  285.83 0855.03
2009/04/23 06:51:39.8       0    -46     -1     47     48 180.9  -2.2  33940  285.87 0855.03
2009/04/23 06:51:39.9      10    -53      0     54     55 169.3  -0.3  33940  285.85 0855.03
2009/04/23 06:51:40.0      28    -37      4     47     48 143.0   5.9  33938  285.83 0855.03
2009/04/23 06:51:40.1      60    -18     32     63     70 106.8  28.2  33942  285.90 0855.03
2009/04/23 06:51:40.2      45    -24     42     52     66 118.0  43.7  33942  285.90 0855.03
2009/04/23 06:51:40.3      51    -17     24     55     60 109.1  25.1  33942  285.90 0855.03
2009/04/23 06:51:40.4      26      8     -1     28     29  71.4  -2.2  33942  285.90 0855.03
2009/04/23 06:51:40.5       3    -35    -33     36     48 173.8 -53.4  33942  285.88 0855.03
2009/04/23 06:51:40.6      24    -51    -41     57     70 154.7 -44.1  33942  285.88 0855.03
2009/04/23 06:51:40.7      46    -43    -45     64     78 133.1 -43.0  33942  285.88 0855.03
2009/04/23 06:51:40.8      56    -35    -41     67     78 122.4 -38.8  33942  285.88 0855.02
2009/04/23 06:51:40.9      41    -37    -38     56     67 132.2 -42.0  33942  285.88 0855.02
2009/04/23 06:51:41.0      34    -38    -17     52     55 138.6 -18.7  33944  285.92 0855.02
2009/04/23 06:51:41.1      42    -33     20     54     57 127.8  20.0  33942  285.90 0855.02
2009/04/23 06:51:41.2      36    -38     35     53     63 136.8  36.5  33944  285.92 0855.02
2009/04/23 06:51:41.3      48    -45     32     66     73 133.1  27.3  33942  285.90 0855.02
2009/04/23 06:51:41.4      34    -58     33     68     75 149.3  27.3  33942  285.90 0855.02
2009/04/23 06:51:41.6      34    -54     22     65     69 147.5  18.9  33944  285.93 0855.02
2009/04/23 06:51:41.7      44    -40      1     60     61 132.2   1.8  33944  285.93 0855.02
2009/04/23 06:51:41.8      60    -60    -12     85     86 135.0  -8.2  33944  285.93 0855.02
2009/04/23 06:51:41.9      70    -47     -3     85     86 124.2  -2.2  33944  285.93 0855.02
2009/04/23 06:51:42.0      68    -43     -7     81     82 122.4  -5.2  33944  285.93 0855.02
2009/04/23 06:51:42.0      69    -58    -15     91     93 130.0  -9.3  33944  285.92 0855.02
2009/04/23 06:51:42.1      56    -54    -10     79     80 134.0  -7.3  33942  285.90 0855.02
2009/04/23 06:51:42.3      35    -54     -5     65     66 146.6  -5.2  33944  285.93 0855.02
2009/04/23 06:51:42.4      18    -55      2     58     59 161.7   2.9  33944  285.92 0855.02
2009/04/23 06:51:42.4      37    -58     24     69     74 147.4  19.4  33944  285.92 0855.02
2009/04/23 06:51:42.5      33    -61     32     70     76 151.1  27.1  33946  285.95 0855.02
2009/04/23 06:51:42.6      20    -74     33     77     83 164.9  24.1  33942  285.90 0855.02
2009/04/23 06:51:42.7       6    -78     48     79     92 175.5  34.4  33942  285.88 0855.02
2009/04/23 06:51:42.9       7    -85     48     86     98 175.1  31.4  33944  285.92 0855.02
2009/04/23 06:51:43.0       6    -79     44     80     91 175.5  31.4  33944  285.93 0855.02
2009/04/23 06:51:43.0       1    -81     49     82     95 178.6  34.4  33944  285.93 0855.02
2009/04/23 06:51:43.1     -14    -78     27     80     85 190.7  18.9  33944  285.93 0855.02
2009/04/23 06:51:43.3     -13    -76     27     78     83 189.8  19.4  33944  285.93 0855.02
2009/04/23 06:51:43.4      -3    -78     36     79     86 182.7  25.7  33944  285.92 0855.02
2009/04/23 06:51:43.5      -2    -77     35     78     85 181.8  25.7  33944  285.93 0855.02
2009/04/23 06:51:43.6      -4    -85     42     86     95 183.1  27.8  33946  285.97 0855.02
2009/04/23 06:51:43.6       0    -77     46     78     90 180.0  33.5  33946  285.95 0855.02
2009/04/23 06:51:43.8       0    -77     46     78     90 180.0  33.5  33946  285.95 0855.02
2009/04/23 06:51:43.9      -2    -66     44     67     80 181.8  36.5  33944  285.93 0855.02
2009/04/23 06:51:44.0      -7    -62     37     63     73 187.1  33.5  33946  285.95 0855.02
2009/04/23 06:51:44.0      -4    -53     41     54     67 184.4  40.7  33946  285.95 0855.02
2009/04/23 06:51:44.1      -7    -62     37     63     73 187.1  33.5  33946  285.95 0855.02
2009/04/23 06:51:44.2      -4    -57     40     58     70 184.5  38.6  33948  285.98 0855.02
2009/04/23 06:51:44.3      -2    -70     40     71     81 181.8  31.9  33944  285.92 0855.02
2009/04/23 06:51:44.5      -6    -85     32     86     91 184.5  21.0  33944  285.92 0855.02
2009/04/23 06:51:44.6      -4    -84     22     85     88 183.1  14.7  33940  285.87 0855.02
2009/04/23 06:51:44.6      -4    -88     31     89     95 182.7  19.4  33942  285.90 0855.02
2009/04/23 06:51:44.8      -7    -85     31     86     91 184.9  20.0  33944  285.93 0855.02
2009/04/23 06:51:44.9     -14    -82     38     84     92 190.2  26.2  33942  285.90 0855.02
2009/04/23 06:51:44.9      -8    -71     30     72     78 187.1  23.1  33944  285.92 0855.02
2009/04/23 06:51:45.1      -3    -61     35     62     71 183.6  31.4  33944  285.92 0855.02
2009/04/23 06:51:45.2       1    -65     35     66     74 179.0  30.3  33940  285.87 0855.02
2009/04/23 06:51:45.3       5    -66     33     67     74 175.5  27.3  33942  285.88 0855.02
2009/04/23 06:51:45.4      -7    -52     18     53     57 188.0  19.4  33944  285.92 0855.02
2009/04/23 06:51:45.5      -1    -56     11     57     59 181.8  11.0  33942  285.90 0855.02
2009/04/23 06:51:45.6       0    -67     13     68     70 180.0  11.0  33944  285.93 0855.02
2009/04/23 06:51:45.7       1    -56      0     57     58 178.2   0.8  33942  285.90 0855.02
2009/04/23 06:51:45.8       1    -56      0     57     58 178.2   0.8  33942  285.90 0855.02
2009/04/23 06:51:45.9      -1    -52     -2     53     54 181.8  -2.2  33944  285.93 0855.02
2009/04/23 06:51:46.0       3    -43    -11     44     46 175.5 -14.5  33944  285.93 0855.02
2009/04/23 06:51:46.1       6    -40     -9     41     42 170.2 -12.4  33942  285.90 0855.02
2009/04/23 06:51:46.2       2    -35    -10     36     37 175.5 -21.7  33942  285.90 0855.02
2009/04/23 06:51:46.3       2    -35    -10     36     37 175.5 -21.7  33942  285.90 0855.02
2009/04/23 06:51:46.4      -3    -28     -4     29     30 186.2  -9.3  33944  285.92 0855.02
2009/04/23 06:51:46.5     -12    -30     -1     33     34 201.8  -2.2  33944  285.93 0855.02
2009/04/23 06:51:46.6      -8    -25      1     27     28 198.3   2.9  33942  285.90 0855.02
2009/04/23 06:51:46.7     -14    -16     -1     22     23 221.4  -3.1  33942  285.90 0855.02
2009/04/23 06:51:46.8     -24    -10      1     27     28 246.5   2.8  33942  285.88 0855.02
2009/04/23 06:51:46.9     -31    -10      5     33     34 251.6   9.0  33942  285.90 0855.02
2009/04/23 06:51:47.0     -40      0      5     41     42 270.0   6.9  33940  285.85 0855.02
2009/04/23 06:51:47.1     -50      0      9     51     52 270.0  11.0  33940  285.85 0855.02
2009/04/23 06:51:47.2     -48     -3     27     49     55 265.6  32.4  33940  285.87 0855.02
2009/04/23 06:51:47.3     -42    -23     28     49     56 241.1  33.5  33942  285.90 0855.02
2009/04/23 06:51:47.4     -47    -32     23     58     62 235.8  23.0  33942  285.88 0855.02
2009/04/23 06:51:47.5     -41    -28     22     50     54 235.8  26.2  33940  285.87 0855.02
2009/04/23 06:51:47.6     -21    -33     25     40     47 212.5  35.5  33940  285.87 0855.02
2009/04/23 06:51:47.7     -18    -30     28     36     45 210.7  41.7  33942  285.90 0855.02
2009/04/23 06:51:47.8     -15    -26     24     31     39 210.7  43.7  33942  285.90 0855.02
2009/04/23 06:51:47.9       3    -26     34     27     43 172.0  57.5  33940  285.87 0855.02
2009/04/23 06:51:48.0      10    -19     37     22     43 152.8  66.8  33940  285.85 0855.02
2009/04/23 06:51:48.1      32     -7     31     33     45 103.3  49.0  33940  285.87 0855.02
2009/04/23 06:51:48.2      40    -33     32     52     61 129.5  35.5  33940  285.85 0855.02
2009/04/23 06:51:48.3      16      6     57     18     59  68.3  81.8  33944  285.92 0855.02
2009/04/23 06:51:48.4     -21     13     31     26     40 302.4  55.4  33944  285.93 0855.02
2009/04/23 06:51:48.5     -18    -29     41     35     53 212.5  54.3  33944  285.92 0855.02
2009/04/23 06:51:48.6     -23    -58     29     63     69 201.9  27.1  33942  285.90 0855.02
2009/04/23 06:51:48.7     -46    -72     34     86     92 213.0  22.5  33944  285.92 0855.02
2009/04/23 06:51:48.8     -48    -75     17     90     92 212.5  11.1  33944  285.92 0855.02
2009/04/23 06:51:48.9     -24    -78     11     82     83 197.4   8.0  33942  285.88 0855.02
2009/04/23 06:51:49.0     -23    -71     11     75     76 198.3   9.0  33944  285.92 0855.02
2009/04/23 06:51:49.1     -28    -58      3     65     66 206.3   2.8  33944  285.92 0855.02
2009/04/23 06:51:49.2     -15    -53      4     56     57 196.0   4.9  33944  285.93 0855.02
2009/04/23 06:51:49.3      -1    -56     11     57     59 181.8  11.0  33942  285.90 0855.02
2009/04/23 06:51:49.4      -8    -76     30     77     82 186.2  22.0  33940  285.87 0855.02
2009/04/23 06:51:49.5     -27    -64     53     70     87 202.7  41.2  33940  285.87 0855.02
2009/04/23 06:51:49.6      -7    -62     64     63     89 187.1  49.7  33946  285.95 0855.02
2009/04/23 06:51:49.7      -6    -89     60     90    108 184.4  36.5  33942  285.90 0855.02
2009/04/23 06:51:49.8     -20    -89     60     92    109 192.9  35.6  33942  285.90 0855.02
2009/04/23 06:51:49.9     -15    -78     66     80    103 191.5  43.8  33944  285.92 0855.02
2009/04/23 06:51:50.0      -6    -77     63     78    100 184.5  43.3  33946  285.95 0855.02
2009/04/23 06:51:50.1     -12    -72     60     74     95 189.8  43.7  33946  285.95 0855.02
2009/04/23 06:51:50.2      -5    -70     55     71     89 184.4  42.2  33946  285.97 0855.02
2009/04/23 06:51:50.3     -12    -87     33     88     93 188.5  20.4  33946  285.95 0855.02
2009/04/23 06:51:50.4     -28    -89     15     94     96 197.4   9.0  33946  285.97 0855.02
2009/04/23 06:51:50.5       0    -84     10     85     86 180.0   6.9  33944  285.92 0855.02
2009/04/23 06:51:50.6      30    -55     44     63     76 151.0  37.6  33942  285.88 0855.02
2009/04/23 06:51:50.7      36    -63     49     73     87 150.1  37.0  33942  285.88 0855.02
2009/04/23 06:51:50.8      24    -75     56     79     96 161.7  38.6  33942  285.88 0855.02
2009/04/23 06:51:50.9       6    -77     62     78     99 175.5  42.7  33940  285.87 0855.02
2009/04/23 06:51:51.0      -6    -85     46     86     97 184.5  30.3  33944  285.92 0855.02
2009/04/23 06:51:51.1     -23    -71     19     75     78 198.5  14.7  33944  285.93 0855.02
2009/04/23 06:51:51.2     -20    -72     19     75     78 196.0  14.3  33942  285.90 0855.02
2009/04/23 06:51:51.3     -23    -69     15     73     75 198.7  12.2  33942  285.88 0855.02
2009/04/23 06:51:51.4     -12    -62     12     64     66 191.6  11.1  33944  285.92 0855.02
2009/04/23 06:51:51.5     -12    -62     12     64     66 191.6  11.1  33944  285.92 0855.02
2009/04/23 06:51:51.6     -21    -53     10     58     59 201.8  10.1  33946  285.95 0855.02
2009/04/23 06:51:51.7     -23    -49      6     55     56 205.4   6.9  33944  285.92 0855.02
2009/04/23 06:51:51.8      -9    -23      1     25     26 201.8   2.9  33942  285.90 0855.02
2009/04/23 06:51:51.9      14     -9      5     17     18 122.4  18.9  33946  285.95 0855.03
2009/04/23 06:51:52.0      19    -11     19     23     29 120.7  43.7  33942  285.90 0855.03
2009/04/23 06:51:52.1      30    -23     30     39     49 127.8  41.7  33942  285.88 0855.03
2009/04/23 06:51:52.2      43    -36     28     57     63 129.5  27.3  33942  285.90 0855.03
2009/04/23 06:51:52.3      41    -43     28     60     66 136.6  27.1  33942  285.90 0855.03
2009/04/23 06:51:52.4      40    -38     26     56     61 134.0  27.1  33940  285.87 0855.03
2009/04/23 06:51:52.5      38    -34     30     52     60 132.2  32.4  33944  285.92 0855.03
2009/04/23 06:51:52.6      40    -49     25     64     68 140.3  21.0  33944  285.92 0855.03
2009/04/23 06:51:52.7      29    -59     14     66     68 153.7  12.2  33942  285.90 0855.03
2009/04/23 06:51:52.8      22    -68     12     72     74 161.7  10.1  33944  285.93 0855.03
2009/04/23 06:51:52.9      28    -58      0     65     66 153.7  -0.3  33942  285.90 0855.03
2009/04/23 06:51:53.0      40    -64     12     76     77 147.4   9.0  33944  285.92 0855.03
2009/04/23 06:51:53.1      36    -83     18     91     93 156.4  11.6  33942  285.90 0855.03
2009/04/23 06:51:53.2      28    -71     21     77     80 158.2  15.3  33942  285.90 0855.03
2009/04/23 06:51:53.3      26    -50     15     57     60 152.8  15.3  33944  285.92 0855.03
2009/04/23 06:51:53.4      37    -41      8     56     57 138.6   9.0  33942  285.90 0855.03
2009/04/23 06:51:53.5      41    -28     24     50     55 124.2  27.3  33942  285.90 0855.03
2009/04/23 06:51:53.6      49    -32     23     59     63 123.3  22.0  33944  285.93 0855.03
2009/04/23 06:51:53.7      38    -34     23     52     56 132.2  25.1  33944  285.93 0855.03
2009/04/23 06:51:53.8      46    -43      3     64     65 133.1   2.9  33942  285.90 0855.03
2009/04/23 06:51:53.9      41    -46     -2     62     63 138.6  -2.2  33944  285.92 0855.03
2009/04/23 06:51:54.0      17    -52      3     55     56 161.3   3.8  33944  285.93 0855.03
2009/04/23 06:51:54.1      10    -58     24     59     63 170.2  23.0  33942  285.90 0855.03
2009/04/23 06:51:54.2       2    -64     22     65     69 178.2  19.2  33944  285.92 0855.03
2009/04/23 06:51:54.3      -9    -56     15     57     60 189.8  15.3  33942  285.90 0855.03
2009/04/23 06:51:54.4      -4    -53     22     54     58 184.4  22.0  33940  285.87 0855.03
2009/04/23 06:51:54.5     -10    -50     28     52     59 191.5  31.3  33942  285.90 0855.03
2009/04/23 06:51:54.6      -7    -54     30     55     62 188.0  31.3  33944  285.92 0855.03
2009/04/23 06:51:54.7     -10    -43     28     45     53 193.4  35.5  33942  285.90 0855.03
2009/04/23 06:51:54.8      -7    -32     31     33     45 193.4  49.0  33940  285.87 0855.03
2009/04/23 06:51:54.9      -1    -18     37     19     41 184.4  70.8  33942  285.90 0855.03
2009/04/23 06:51:55.0      -3     -8     34      9     35 205.4  86.9  33940  285.87 0855.03
2009/04/23 06:51:55.1      -8     13     24     16     28 327.5  64.6  33946  285.95 0855.03
2009/04/23 06:51:55.2      -3     32     22     33     39 353.8  36.5  33944  285.92 0855.03
2009/04/23 06:51:55.3      -3     32     22     33     39 353.8  36.5  33944  285.92 0855.03
2009/04/23 06:51:55.4      -3     32     22     33     39 353.8  36.5  33944  285.92 0855.03
2009/04/23 06:51:55.5       6     33     27     34     43  11.6  42.7  33946  285.97 0855.03
2009/04/23 06:51:55.6       8     29     28     31     41  15.1  46.9  33944  285.93 0855.03
2009/04/23 06:51:55.7       2     37     22     38     43   4.4  32.4  33944  285.92 0855.03
2009/04/23 06:51:55.8       5     37     20     38     42   8.0  30.3  33942  285.90 0855.03
2009/04/23 06:51:55.9       5     37     20     38     42   8.0  30.3  33942  285.90 0855.03
2009/04/23 06:51:56.0      10      9     31     14     34  46.7  75.0  33938  285.82 0855.03
2009/04/23 06:51:56.1      12     30     33     33     46  21.8  50.1  33938  285.83 0855.03
2009/04/23 06:51:56.2       6    108     30     50     58 360.0  35.5  33940  285.87 0855.03
2009/04/23 06:51:56.3      18     31     50     37     62  30.7  60.5  33942  285.90 0855.03
2009/04/23 06:51:56.4      14     20     54     25     59  36.1  74.0  33942  285.88 0855.03
2009/04/23 06:51:56.5       3      7     50      8     50  25.4  90.0  33946  285.95 0855.03
2009/04/23 06:51:56.6       0      7     34      8     34 357.3  89.0  33946  285.95 0855.03
2009/04/23 06:51:56.7      -7      6     31     10     32 309.5  80.7  33944  285.93 0855.03
2009/04/23 06:51:56.8      11      9     32     15     35  50.5  72.9  33944  285.93 0855.03
2009/04/23 06:51:56.9      22     -5     37     23     43 103.3  64.7  33942  285.88 0855.03
2009/04/23 06:51:57.0      21      6     29     22     36  73.2  58.5  33946  285.95 0855.03
2009/04/23 06:51:57.1       2      9     29     10     30  11.6  81.0  33942  285.90 0855.03
2009/04/23 06:51:57.2      -3      0     22      4     22 270.0  90.0  33944  285.92 0855.03
2009/04/23 06:51:57.3      13      4     28     14     31  71.4  72.8  33942  285.90 0855.03
2009/04/23 06:51:57.4       4     33     35     34     48   8.0  49.1  33940  285.87 0855.03
2009/04/23 06:51:57.5     -12     38     40     41     57 341.5  51.1  33940  285.87 0855.03
2009/04/23 06:51:57.6      -8     36     26     38     46 346.6  37.6  33942  285.88 0855.03
2009/04/23 06:51:57.7      -1     38     31     39     49 357.3  43.7  33938  285.82 0855.03
2009/04/23 06:51:57.8      -2     33     28     34     44 355.5  44.8  33940  285.85 0855.03
2009/04/23 06:51:57.9      -6     25     17     26     31 346.6  35.6  33940  285.87 0855.03
2009/04/23 06:51:58.0       0     19     15     20     25   0.9  39.7  33940  285.85 0855.03
2009/04/23 06:51:58.1      -1     33     20     34     39 357.4  33.5  33940  285.85 0855.03
2009/04/23 06:51:58.2       8     45     16     46     49  10.7  19.4  33940  285.85 0855.03
2009/04/23 06:51:58.3      20     37     -3     43     44  28.1  -5.2  33940  285.87 0855.03
2009/04/23 06:51:58.4      15     46     -1     49     50  18.3  -2.2  33936  285.78 0855.03
2009/04/23 06:51:58.5      18     31     11     37     39  30.7  17.3  33936  285.78 0855.03
2009/04/23 06:51:58.6      35     36     15     51     54  44.1  16.3  33938  285.83 0855.03
2009/04/23 06:51:58.7      21     25     13     33     35  39.6  21.0  33938  285.82 0855.03
2009/04/23 06:51:58.8      40     35      7     54     55  48.7   8.0  33938  285.82 0855.03
2009/04/23 06:51:58.9      40     35      7     54     55  48.7   8.0  33938  285.82 0855.03
2009/04/23 06:51:59.0      44     31     -3     54     55  54.9  -4.1  33936  285.78 0855.03
2009/04/23 06:51:59.1      39     39     -7     56     57  45.1  -7.3  33936  285.80 0855.03
2009/04/23 06:51:59.2      25     26     -4     37     38  43.4  -7.3  33938  285.82 0855.03
2009/04/23 06:51:59.3      20     32      9     38     40  32.5  13.2  33936  285.78 0855.03
2009/04/23 06:51:59.4      21     25     20     33     38  39.6  35.5  33932  285.73 0855.03
2009/04/23 06:51:59.5      13     40     20     43     47  18.5  26.2  33936  285.78 0855.03
2009/04/23 06:51:59.6      10     45     16     47     50  13.4  18.9  33938  285.82 0855.03
2009/04/23 06:51:59.7      -3     41     16     42     44 355.5  21.0  33936  285.80 0855.03
2009/04/23 06:51:59.8      -9     37     10     39     41 346.6  15.3  33940  285.85 0855.03
2009/04/23 06:51:59.9      -5     31     15     32     35 350.2  27.2  33940  285.85 0855.02
2009/04/23 06:52:00.0      -1     33     20     34     39 357.4  33.5  33936  285.78 0855.02
2009/04/23 06:52:00.1      -2     37     17     38     41 355.5  25.1  33938  285.82 0855.02
2009/04/23 06:52:00.2      -1     33     20     34     39 357.4  33.5  33936  285.78 0855.02
2009/04/23 06:52:00.3      -1     33     20     34     39 357.4  33.5  33936  285.78 0855.02
2009/04/23 06:52:00.4     -10     35     21     37     42 343.1  32.4  33938  285.82 0855.02
2009/04/23 06:52:00.5     -13     36     13     39     42 339.1  19.2  33940  285.87 0855.02
2009/04/23 06:52:00.6     -10     53     10     54     56 349.3  11.1  33940  285.85 0855.02
2009/04/23 06:52:00.7     -14     45      5     48     49 342.2   6.9  33940  285.85 0855.02
2009/04/23 06:52:00.8      -9     45      2     46     47 348.4   2.9  33940  285.87 0855.02
2009/04/23 06:52:00.9      -1     57      6     58     59 358.2   5.9  33940  285.85 0855.02
2009/04/23 06:52:01.0       5     52     11     53     55   6.2  12.2  33938  285.82 0855.02
2009/04/23 06:52:01.1       3     57     17     58     61   3.6  16.3  33934  285.76 0855.02
2009/04/23 06:52:01.2      20     61     16     65     68  18.7  14.3  33930  285.70 0855.02
2009/04/23 06:52:01.3       5     71     12     72     74   4.5  10.1  33928  285.66 0855.02
2009/04/23 06:52:01.4      24     71     14     75     77  18.7  11.1  33926  285.63 0855.02
2009/04/23 06:52:01.5      24     71     14     75     77  18.7  11.1  33926  285.63 0855.02
2009/04/23 06:52:01.6      18     72     16     75     77  14.3  12.2  33924  285.60 0855.02
2009/04/23 06:52:01.7      12     73     20     75     78   9.8  15.2  33926  285.63 0855.02
2009/04/23 06:52:01.8       6     79     18     80     83   4.5  13.2  33926  285.63 0855.02
2009/04/23 06:52:01.9       5     70     24     71     76   4.5  18.9  33928  285.66 0855.02
2009/04/23 06:52:02.0       4     67     17     68     71   3.6  14.3  33926  285.61 0855.02
2009/04/23 06:52:02.1       9     65     14     66     68   8.0  12.2  33926  285.63 0855.02
2009/04/23 06:52:02.2       4     67     17     68     71   3.6  14.3  33926  285.61 0855.02
2009/04/23 06:52:02.3       9     66     14     67     69   8.0  12.2  33926  285.61 0855.02
2009/04/23 06:52:02.4       6     66     14     67     69   5.3  12.2  33926  285.61 0855.02
2009/04/23 06:52:02.5      -6     59     20     60     64 353.8  18.4  33924  285.58 0855.02
2009/04/23 06:52:02.6     -14     61     19     63     67 346.6  17.3  33926  285.63 0855.02
2009/04/23 06:52:02.7     -12     60     21     62     66 348.4  19.4  33930  285.68 0855.02
2009/04/23 06:52:02.8     -15     59     16     61     64 345.7  15.3  33930  285.68 0855.02
2009/04/23 06:52:02.9     -21     54     24     59     63 338.2  23.0  33926  285.63 0855.02
2009/04/23 06:52:03.0     -22     47     24     53     58 334.6  26.2  33930  285.68 0855.02
2009/04/23 06:52:03.1     -22     55     21     60     64 338.1  19.2  33928  285.66 0855.02
2009/04/23 06:52:03.2     -23     54     23     59     63 336.4  22.0  33932  285.73 0855.02
2009/04/23 06:52:03.3     -14     61     32     63     70 346.6  28.2  33930  285.68 0855.02
2009/04/23 06:52:03.4     -16     61     22     64     68 344.8  19.4  33932  285.71 0855.02
2009/04/23 06:52:03.5     -21     65     23     69     73 342.2  18.9  33928  285.66 0855.02
2009/04/23 06:52:03.6     -22     55     21     60     64 338.1  19.2  33928  285.66 0855.02
2009/04/23 06:52:03.7     -30     48     29     57     63 327.4  28.2  33930  285.68 0855.02
2009/04/23 06:52:03.8     -29     54     32     62     69 331.1  29.3  33928  285.65 0855.02
2009/04/23 06:52:03.9     -22     64     24     68     73 340.8  19.4  33928  285.66 0855.01
2009/04/23 06:52:04.0     -22     64     24     68     73 340.8  19.4  33928  285.66 0855.01
2009/04/23 06:52:04.1     -23     71     22     75     79 341.5  16.3  33928  285.66 0855.01
2009/04/23 06:52:04.2     -22     65     13     69     71 340.8  11.1  33930  285.68 0855.01
2009/04/23 06:52:04.3     -14     69      3     71     72 348.5   2.9  33926  285.63 0855.01
2009/04/23 06:52:04.4     -14     69      3     71     72 348.5   2.9  33926  285.63 0855.01
2009/04/23 06:52:04.5      -9     66      5     67     68 351.9   4.9  33928  285.66 0855.01
2009/04/23 06:52:04.6      -4     65     -1     66     67 356.4  -1.2  33930  285.68 0855.01
2009/04/23 06:52:04.7      -1     66     -2     67     68 359.1  -2.2  33932  285.71 0855.01
2009/04/23 06:52:04.8       1     61     -6     62     63   1.8  -6.2  33928  285.65 0855.01
2009/04/23 06:52:04.9     -15     56      2     59     60 344.9   2.8  33928  285.66 0855.01
2009/04/23 06:52:05.0      -6     51      3     52     53 352.9   3.8  33930  285.68 0855.01
2009/04/23 06:52:05.1       0     58      3     59     60 359.1   3.8  33930  285.68 0855.01
2009/04/23 06:52:05.2      -5     56     -6     57     58 354.7  -6.2  33930  285.70 0855.01
2009/04/23 06:52:05.3      -3     48     -1     49     50 355.5  -2.2  33930  285.68 0855.01
2009/04/23 06:52:05.4      -3     48     -1     49     50 355.5  -2.2  33930  285.68 0855.01
2009/04/23 06:52:05.5      -9     45     -3     46     47 348.4  -4.1  33932  285.73 0855.01
2009/04/23 06:52:05.6     -16     38      0     42     43 336.4  -1.3  33930  285.70 0855.01
2009/04/23 06:52:05.7     -20     30     10     37     39 325.7  16.3  33930  285.70 0855.01
2009/04/23 06:52:05.8     -18     26     15     32     35 325.7  27.2  33930  285.70 0855.01
2009/04/23 06:52:05.9     -13     28      5     32     33 334.6   9.0  33930  285.68 0855.01
2009/04/23 06:52:06.0     -20     24      6     32     33 320.4  11.0  33926  285.63 0855.01
2009/04/23 06:52:06.1     -18     20     15     28     31 318.6  29.3  33930  285.68 0855.01
2009/04/23 06:52:06.2     -17     15     22     23     31 311.3  50.0  33928  285.66 0855.01
2009/04/23 06:52:06.3     -26      7     19     27     33 285.1  39.7  33930  285.68 0855.01
2009/04/23 06:52:06.4     -31      0     15     32     35 270.0  27.2  33930  285.68 0855.01
2009/04/23 06:52:06.5     -40      0     13     41     44 270.0  18.4  33934  285.76 0855.01
2009/04/23 06:52:06.6     -43     -3     24     44     50 264.8  31.4  33936  285.78 0855.01
2009/04/23 06:52:06.7     -52    -11     22     54     58 257.6  22.0  33934  285.76 0855.01
2009/04/23 06:52:06.8     -49    -15     18     52     56 252.3  19.2  33934  285.76 0855.01
2009/04/23 06:52:06.9     -47    -22     15     53     56 244.6  16.3  33930  285.68 0855.01
2009/04/23 06:52:07.0     -40    -33     26     52     58 230.5  28.2  33926  285.61 0855.01
2009/04/23 06:52:07.1     -48    -18     18     52     56 249.2  18.9  33926  285.61 0855.01
2009/04/23 06:52:07.2     -48    -18     18     52     56 249.2  18.9  33926  285.63 0855.01
2009/04/23 06:52:07.3     -52    -22     24     57     61 246.5  23.1  33926  285.63 0855.01
2009/04/23 06:52:07.4     -53    -18     15     57     60 250.9  15.3  33932  285.73 0855.01
2009/04/23 06:52:07.5     -57     -9     -6     58     59 260.3  -6.2  33938  285.83 0855.01
2009/04/23 06:52:07.6     -67      0    -28     68     73 270.0 -27.4  33942  285.90 0855.01
2009/04/23 06:52:07.7     -51      3    -50     52     72 273.5 -54.4  33942  285.90 0855.01
2009/04/23 06:52:07.8     -67     10    -50     68     84 278.8 -44.5  33942  285.90 0855.01
2009/04/23 06:52:07.9     -65      5    -23     66     69 274.4 -23.3  33944  285.92 0855.01
2009/04/23 06:52:08.0     -66     13    -24     68     72 281.5 -23.3  33942  285.90 0855.01
2009/04/23 06:52:08.1     -53    -21    -16     58     61 248.3 -15.5  33944  285.92 0855.01
2009/04/23 06:52:08.2     -54    -21     -2     59     60 248.3  -2.2  33944  285.93 0855.01
2009/04/23 06:52:08.3     -54    -42    -16     69     71 232.2 -13.4  33944  285.92 0855.01
2009/04/23 06:52:08.4     -69    -23    -25     73     77 251.4 -23.3  33940  285.87 0855.01
2009/04/23 06:52:08.5     -76    -25    -14     81     83 251.4  -9.8  33942  285.88 0855.01
2009/04/23 06:52:08.6     -86    -16    -15     88     90 259.0  -9.8  33940  285.85 0855.01
2009/04/23 06:52:08.7     -83     -5      0     84     85 266.1   0.2  33942  285.88 0855.01
2009/04/23 06:52:08.8     -92    -15     -3     94     95 260.8  -2.2  33944  285.92 0855.01
2009/04/23 06:52:08.9     -99    -14    -27    101    105 261.6 -15.4  33944  285.92 0855.01
2009/04/23 06:52:09.0     -84      3    -23     85     89 272.6 -15.5  33942  285.90 0855.01
2009/04/23 06:52:09.1     -71     22    -30     75     80 287.7 -27.4  33944  285.92 0855.01
2009/04/23 06:52:09.2     -66     10    -24     67     71 278.8 -23.3  33942  285.90 0855.01
2009/04/23 06:52:09.3     -73     -5    -19     74     77 265.6 -14.5  33942  285.90 0855.01
2009/04/23 06:52:09.4     -82    -22    -26     86     89 254.5 -22.3  33944  285.93 0855.01
2009/04/23 06:52:09.5     -72    -24    -31     77     83 251.4 -27.4  33944  285.93 0855.01
2009/04/23 06:52:09.7     -67    -26    -37     73     81 248.3 -33.1  33942  285.90 0855.01
2009/04/23 06:52:09.7     -70    -40    -49     81     94 240.2 -39.4  33942  285.90 0855.01
2009/04/23 06:52:09.8     -71    -56    -46     91    101 231.4 -33.1  33936  285.80 0855.01
2009/04/23 06:52:09.9     -78   -100    -54    127    138 217.9 -28.5  33936  285.78 0855.00
2009/04/23 06:52:10.1     -68    -77    -59    103    118 221.4 -36.8  33940  285.85 0855.00
2009/04/23 06:52:10.2     -71    -74    -47    103    113 223.7 -31.0  33940  285.85 0855.00
2009/04/23 06:52:10.3     -86    -74    -36    114    119 229.1 -22.8  33938  285.82 0855.00
2009/04/23 06:52:10.3     -85    -67    -37    109    116 231.8 -19.1  33942  285.88 0855.00
2009/04/23 06:52:10.5     -99   -133    -28    167    170 216.7  -9.8  33936  285.80 0855.00
2009/04/23 06:52:10.6    -100   -128    -33    163    167 217.9 -11.6  33936  285.78 0855.00
2009/04/23 06:52:10.7    -125    -72    -18    145    147 240.2  -7.3  33938  285.83 0855.00
2009/04/23 06:52:10.8     -86    -79    -32    117    122 227.3 -15.5  33940  285.85 0855.00
2009/04/23 06:52:10.9     -68    -69    -12     98     99 224.7  -7.3  33936  285.80 0855.00
2009/04/23 06:52:11.0     -51    -78     35     94    100 213.4  21.0  33938  285.82 0855.00
2009/04/23 06:52:11.1     -58    -54      6     80     81 226.9   4.9  33940  285.87 0855.00
2009/04/23 06:52:11.2     -26    -56     33     62     70 205.4  30.3  33940  285.85 0855.00
2009/04/23 06:52:11.3     -42    -45     33     62     70 223.3  30.3  33938  285.83 0855.00
2009/04/23 06:52:11.4     -34    -23     35     42     54 235.8  43.8  33940  285.87 0855.00
2009/04/23 06:52:11.5     -38    -21     39     44     58 240.2  46.9  33940  285.87 0855.00
2009/04/23 06:52:11.6     -32     -3     34     33     47 263.9  49.1  33942  285.90 0855.00
2009/04/23 06:52:11.7     -36    -12     38     39     54 251.4  51.1  33942  285.88 0855.00
2009/04/23 06:52:11.8     -32     -8     23     34     41 254.9  37.6  33940  285.87 0855.00
2009/04/23 06:52:11.9     -26     -8     27     28     38 251.4  52.0  33944  285.93 0855.00
2009/04/23 06:52:12.0     -38     -2     22     39     44 265.6  32.4  33938  285.82 0855.01
2009/04/23 06:52:12.1     -69    -14     13     71     73 258.6  11.0  33934  285.76 0855.01
2009/04/23 06:52:12.2     -67     -5      3     68     69 265.7   2.9  33930  285.70 0855.01
2009/04/23 06:52:12.3     -57     -4     16     58     61 265.6  15.3  33932  285.71 0855.01
2009/04/23 06:52:12.4     -77    -15     11     79     80 258.5   8.0  33930  285.70 0855.01
2009/04/23 06:52:12.5     -68    -43     38     81     89 237.6  27.1  33930  285.68 0855.01
2009/04/23 06:52:12.6     -85    -46     29     97    102 241.6  16.8  33922  285.56 0855.01
2009/04/23 06:52:12.7     -77    -41     21     88     91 242.0  13.7  33924  285.60 0855.01
2009/04/23 06:52:12.8     -56    -31     34     65     73 241.1  29.3  33926  285.63 0855.01
2009/04/23 06:52:12.9     -57     20     46     61     76 290.0  40.7  33928  285.65 0855.01
2009/04/23 06:52:13.0     -66     36     53     76     92 298.9  38.0  33928  285.65 0855.01
2009/04/23 06:52:13.1     -72     31     42     79     89 293.5  30.3  33926  285.63 0855.01
2009/04/23 06:52:13.2     -73     14     28     75     80 281.4  21.0  33926  285.63 0855.01
2009/04/23 06:52:13.3     -66     42     29     79     84 302.5  20.4  33926  285.63 0855.01
2009/04/23 06:52:13.4     -82     23     18     86     89 285.9  12.2  33930  285.68 0855.01
2009/04/23 06:52:13.5     -93     23     25     96    100 284.2  14.7  33930  285.68 0855.01
2009/04/23 06:52:13.6    -104      8     37    105    112 274.4  19.4  33926  285.61 0855.01
2009/04/23 06:52:13.7    -104     -8     37    105    112 265.6  19.4  33926  285.61 0855.01
2009/04/23 06:52:13.8     -99     -7     25    100    104 265.7  14.3  33928  285.65 0855.01
2009/04/23 06:52:13.9     -82    -13     29     84     90 260.8  19.4  33928  285.65 0855.01
2009/04/23 06:52:14.0     -73    -24     28     78     82 251.4  20.4  33930  285.68 0855.01
2009/04/23 06:52:14.1     -67      3     35     68     76 272.6  29.3  33928  285.65 0855.01
2009/04/23 06:52:14.2     -58     19     17     62     65 288.2  15.3  33928  285.65 0855.01
2009/04/23 06:52:14.3     -62     54      7     83     84 310.9   5.4  33930  285.70 0855.01
2009/04/23 06:52:14.4     -63     48     27     80     85 307.3  18.9  33932  285.73 0855.01
2009/04/23 06:52:14.5     -66     49     33     83     89 306.4  22.5  33928  285.66 0855.01
2009/04/23 06:52:14.6     -71     59     44     93    102 309.5  27.1  33928  285.66 0855.01
2009/04/23 06:52:14.7     -54     57     29     79     84 316.8  20.4  33932  285.73 0855.01
2009/04/23 06:52:14.8     -52     25     49     58     75 296.2  43.8  33928  285.65 0855.01
2009/04/23 06:52:14.9     -54     34     44     65     78 302.4  36.5  33928  285.65 0855.01
2009/04/23 06:52:15.0     -58     36     56     69     88 302.4  43.7  33926  285.61 0855.01
2009/04/23 06:52:15.1     -50     39     70     64     94 307.8  52.7  33928  285.66 0855.01
2009/04/23 06:52:15.2     -47     72     69     87    111 327.0  43.3  33940  285.85 0855.01
2009/04/23 06:52:15.3     -63     99     60    118    132 327.5  29.2  33942  285.90 0855.01
2009/04/23 06:52:15.4     -73     92     65    118    134 321.3  31.4  33942  285.90 0855.01
2009/04/23 06:52:15.5     -70    104     60    126    139 325.7  27.3  33946  285.95 0855.01
2009/04/23 06:52:15.6     -72    113     42    135    142 327.5  17.3  33948  286.00 0855.01
2009/04/23 06:52:15.7     -68     77     71    103    125 318.6  37.6  33946  285.95 0855.01
2009/04/23 06:52:15.8     -50     59     86     78    116 319.5  52.7  33944  285.92 0855.01
2009/04/23 06:52:15.9     -79     85     82    117    142 317.2  38.0  33960  286.19 0855.01
2009/04/23 06:52:16.0     -89     95     82    131    154 316.8  35.5  33948  286.00 0855.01
2009/04/23 06:52:16.1     -77     93     72    121    140 320.4  33.5  33944  285.92 0855.01
2009/04/23 06:52:16.2     -72     72     68    102    122 314.9  37.4  33940  285.85 0855.01
2009/04/23 06:52:16.3     -66     66     67     94    115 314.9  39.1  33942  285.88 0855.01
2009/04/23 06:52:16.4     -71     69     71    100    122 314.0  39.1  33944  285.92 0855.01
2009/04/23 06:52:16.5     -66     59     75     89    116 311.8  44.3  33950  286.02 0855.01
2009/04/23 06:52:16.6     -80     66     49    105    115 309.6  27.1  33938  285.82 0855.01
2009/04/23 06:52:16.7     -76     56     39     95    102 306.4  23.1  33936  285.78 0855.01
2009/04/23 06:52:16.8     -76     56     32     95    101 306.4  18.9  33942  285.88 0855.01
2009/04/23 06:52:16.9     -76     62     26     99    103 309.1  14.7  33928  285.66 0855.01
2009/04/23 06:52:17.0     -79     67     20    104    106 310.4  11.0  33928  285.66 0855.00
2009/04/23 06:52:17.1     -96     65     32    117    122 304.2  15.3  33918  285.50 0855.00
2009/04/23 06:52:17.2    -107     83     49    136    144 307.7  20.0  33918  285.48 0855.00
2009/04/23 06:52:17.3     -89    113     49    145    154 321.7  18.9  33922  285.55 0855.00
2009/04/23 06:52:17.4    -107    104     57    150    160 314.4  21.5  33920  285.53 0855.00
2009/04/23 06:52:17.5     -89    104     32    138    142 319.5  13.2  33922  285.56 0855.00
2009/04/23 06:52:17.6    -109     90     55    142    152 309.5  22.0  33924  285.60 0855.00
2009/04/23 06:52:17.7    -108     54     33    121    126 296.6  15.3  33924  285.58 0855.00
2009/04/23 06:52:17.8    -116     48     17    126    128 292.6   8.0  33924  285.58 0855.00
2009/04/23 06:52:17.9    -107     41     13    115    116 291.3   6.9  33918  285.48 0855.00
2009/04/23 06:52:18.0    -116     23     22    119    122 281.5  10.6  33908  285.33 0855.00
2009/04/23 06:52:18.1    -110      8     21    111    114 274.4  11.1  33910  285.34 0855.00
2009/04/23 06:52:18.2    -118      9      1    119    120 274.4   0.8  33916  285.46 0855.00
2009/04/23 06:52:18.3    -118      9     10    119    120 274.4   4.9  33912  285.39 0855.00
2009/04/23 06:52:18.4    -119      0     37    120    126 270.0  17.4  33916  285.44 0855.00
2009/04/23 06:52:18.5    -113     -8     35    114    120 265.7  17.3  33910  285.36 0855.00
2009/04/23 06:52:18.6    -101     -6     43    102    110 266.5  24.1  33910  285.34 0855.00
2009/04/23 06:52:18.7     -95    -52     60    109    124 241.1  31.4  33908  285.31 0855.00
2009/04/23 06:52:18.8     -73    -17     67     76    101 256.7  46.4  33902  285.23 0855.00
2009/04/23 06:52:18.9     -51     -3     49     52     71 266.5  48.0  33908  285.33 0855.00
2009/04/23 06:52:19.0     -21     -7     70     23     73 250.0  80.7  33914  285.41 0855.00
2009/04/23 06:52:19.2      -5     18     33     19     38 341.7  64.7  33914  285.43 0855.00
2009/04/23 06:52:19.3     -15     17     38     24     44 318.6  64.7  33914  285.43 0855.00
2009/04/23 06:52:19.4      15     15     38     22     43  45.0  67.7  33916  285.46 0855.00
2009/04/23 06:52:19.5      19      5     30     20     36  73.2  64.6  33918  285.48 0855.00
2009/04/23 06:52:19.6       0     28     35     29     45   0.9  55.4  33918  285.50 0855.00
2009/04/23 06:52:19.7      -2     18     44     19     47 352.0  76.1  33918  285.50 0855.00
2009/04/23 06:52:19.8      -1     13     56     14     57 352.0  85.9  33922  285.55 0855.00
2009/04/23 06:52:19.9       6     26     40     27     48  13.4  63.6  33922  285.55 0855.00
2009/04/23 06:52:20.0      15     17     35     24     42  41.4  62.6  33918  285.50 0855.00
2009/04/23 06:52:20.1      10     10     24     15     28  45.0  64.7  33914  285.41 0855.00
2009/04/23 06:52:20.2      12      4     10     13     16  71.4  39.7  33910  285.36 0855.00
2009/04/23 06:52:20.3      15      6      0     17     18  68.3  -3.1  33914  285.43 0855.00
2009/04/23 06:52:20.4       5      6     17      8     18  39.6  77.1  33912  285.39 0855.00
2009/04/23 06:52:20.5       0      4     51      5     51 350.3  90.0  33914  285.43 0855.00
2009/04/23 06:52:20.6      -3     38     63     39     74 355.5  64.7  33934  285.75 0855.00
2009/04/23 06:52:20.7     -22     72     57     76     95 343.1  40.7  33940  285.87 0855.00
2009/04/23 06:52:20.8     -34     41     66     54     85 320.4  56.4  33938  285.82 0855.00
2009/04/23 06:52:20.9     -33     24     72     42     83 306.0  67.2  33938  285.83 0855.00
2009/04/23 06:52:21.0     -19     10     60     22     63 297.1  80.2  33938  285.83 0854.99
2009/04/23 06:52:21.1     -10     -3     35     11     36 251.6  80.7  33938  285.82 0854.99
2009/04/23 06:52:21.2       3      0     37      4     37  90.0  90.0  33940  285.85 0854.99
2009/04/23 06:52:21.3       6      6     30      9     31  46.7  82.8  33938  285.83 0854.99
2009/04/23 06:52:21.4       4      2     26      5     26  57.6  90.0  33938  285.82 0854.99
2009/04/23 06:52:21.5      16     -7     31     18     35 115.3  64.7  33934  285.76 0854.99
2009/04/23 06:52:21.6       2    -21     30     22     37 173.8  60.5  33928  285.66 0854.99
2009/04/23 06:52:21.7      19    -19     32     27     41 134.9  55.4  33924  285.58 0854.99
2009/04/23 06:52:21.8      15    -15     32     22     38 134.9  62.6  33922  285.55 0854.99
2009/04/23 06:52:21.9      27      0     40     28     48  90.0  61.5  33922  285.55 0854.99
2009/04/23 06:52:22.0      40     -6     45     41     60  98.8  52.2  33918  285.48 0854.99
2009/04/23 06:52:22.1      48     -4     47     49     67  95.2  50.0  33922  285.55 0854.99
2009/04/23 06:52:22.2      52    -16     61     55     82 107.7  52.7  33920  285.51 0854.99
2009/04/23 06:52:22.3      57    -12     59     59     83 102.4  50.1  33926  285.63 0854.99
2009/04/23 06:52:22.4      62     -6     61     63     87  96.1  50.0  33934  285.76 0854.99
2009/04/23 06:52:22.5      56    -19     49     60     77 108.6  43.7  33938  285.82 0854.99
2009/04/23 06:52:22.6      32     -3     59     33     67  96.1  68.8  33934  285.75 0854.99
2009/04/23 06:52:22.7      48      0     61     49     78  90.0  56.4  33944  285.92 0854.99
2009/04/23 06:52:22.8      53      8     49     54     72  81.2  47.9  33956  286.14 0854.99
2009/04/23 06:52:22.9      37     -2     44     38     58  94.4  54.3  33946  285.97 0854.99
2009/04/23 06:52:23.0      49      3     79     50     93  86.5  64.7  33950  286.02 0855.00
2009/04/23 06:52:23.1      48     41     81     64    103  49.6  57.5  33958  286.17 0855.00
2009/04/23 06:52:23.2      96     23     79     99    126  76.3  42.7  33970  286.35 0855.00
2009/04/23 06:52:23.3     114     15     83    116    142  82.1  39.5  33970  286.37 0855.00
2009/04/23 06:52:23.4     124     13     52    125    135  83.8  23.6  33972  286.41 0855.00
2009/04/23 06:52:23.5     128     25     30    131    135  78.6  13.2  33968  286.32 0855.00
2009/04/23 06:52:23.7      94     58     57    111    124  58.5  29.3  33966  286.29 0855.00
2009/04/23 06:52:23.7      85     54     44    101    110  57.5  25.1  33968  286.34 0855.00
2009/04/23 06:52:23.8      88     55     57    104    118  58.0  31.3  33968  286.34 0855.00
2009/04/23 06:52:23.9     105     62     47    123    131  59.4  21.5  33966  286.29 0855.00
2009/04/23 06:52:24.0     126     54     27    138    141  66.9  11.1  33962  286.24 0855.00
2009/04/23 06:52:24.1     102     47     41    113    120  65.2  20.9  33958  286.15 0855.00
2009/04/23 06:52:24.2     113     30     13    118    119  75.0   6.5  33962  286.22 0855.00
2009/04/23 06:52:24.3     104     70    -18    126    128  55.9  -8.2  33962  286.22 0855.00
2009/04/23 06:52:24.4     102     80     -2    130    131  51.8  -1.3  33958  286.17 0855.00
2009/04/23 06:52:24.5     111    111     15    158    159  45.1   5.7  33976  286.47 0855.00
2009/04/23 06:52:24.6     121     77     16    144    145  57.6   6.5  33976  286.47 0855.00
2009/04/23 06:52:24.7     109     79     59    135    147  54.1  25.1  33980  286.52 0855.00
2009/04/23 06:52:24.8      84     95     47    128    136  41.4  20.9  33974  286.42 0855.00
2009/04/23 06:52:24.9     153     49     39    161    166  72.1  13.9  33980  286.52 0855.00
2009/04/23 06:52:25.0     202     67     25    213    215  71.6   6.9  33978  286.49 0855.00
2009/04/23 06:52:25.1     221     70     36    232    235  72.3   8.9  33982  286.57 0855.00
2009/04/23 06:52:25.2     185     50     28    192    195  74.7   8.5  33980  286.54 0855.00
2009/04/23 06:52:25.3     197     59     58    206    215  73.2  15.8  33982  286.57 0855.00
2009/04/23 06:52:25.4     161     83     53    182    190  62.7  16.3  33972  286.39 0855.00
2009/04/23 06:52:25.5     185     72     28    199    202  68.5   8.0  33970  286.37 0855.00
2009/04/23 06:52:25.6     184     71     17    198    199  68.7   5.2  33958  286.17 0855.00
2009/04/23 06:52:25.7     207     48     31    213    216  76.7   8.5  33968  286.32 0855.00
2009/04/23 06:52:25.8     198     28     85    201    218  81.9  24.1  33974  286.42 0855.00
2009/04/23 06:52:25.9     132     43    110    139    177  71.8  42.7  33972  286.41 0855.00
2009/04/23 06:52:26.0     137     52    122    147    191  69.2  43.8  33976  286.46 0855.00
2009/04/23 06:52:26.1     144     42     86    151    173  73.6  32.4  33968  286.32 0855.00
2009/04/23 06:52:26.2     142     47     38    150    155  71.4  14.5  33946  285.97 0855.00
2009/04/23 06:52:26.3     126     47     47    135    144  69.6  19.4  33954  286.08 0855.00
2009/04/23 06:52:26.4     149     63     29    162    165  66.9  10.3  33958  286.15 0855.00
2009/04/23 06:52:26.5     143     73     30    161    164  62.7  10.6  33952  286.07 0855.00
2009/04/23 06:52:26.6     140     66     27    155    158  64.6   9.9  33950  286.02 0855.00
2009/04/23 06:52:26.7     145     69     24    161    163  64.2   8.8  33948  286.00 0855.00
2009/04/23 06:52:26.8     123     61     37    138    144  63.4  15.2  33948  285.98 0855.00
2009/04/23 06:52:26.9     125     68     22    143    145  61.2   8.9  33948  286.00 0855.00
2009/04/23 06:52:27.0     158     75     -6    176    177  64.5  -2.1  33948  286.00 0854.99
2009/04/23 06:52:27.1     135    100    -28    169    172  53.4  -9.6  33950  286.02 0854.99
2009/04/23 06:52:27.2     119     75     18    141    143  57.6   7.5  33950  286.03 0854.99
2009/04/23 06:52:27.3     107     83     37    136    142  52.2  15.3  33952  286.05 0854.99
2009/04/23 06:52:27.4     114     58     31    128    132  63.0  13.7  33952  286.05 0854.99
2009/04/23 06:52:27.5     110     48     41    121    128  66.5  18.9  33952  286.07 0854.99
2009/04/23 06:52:27.6      94     60     39    112    119  57.5  19.4  33954  286.08 0854.99
2009/04/23 06:52:27.7     107     73     20    130    132  55.8   9.0  33954  286.10 0854.99
2009/04/23 06:52:27.8     114     53     29    126    130  64.8  13.1  33958  286.17 0854.99
2009/04/23 06:52:27.9     124     49     20    134    136  68.3   8.5  33956  286.14 0854.99
2009/04/23 06:52:28.0     123     41     31    130    134  71.4  13.7  33954  286.10 0854.99
2009/04/23 06:52:28.1     116     46     24    126    129  68.2  11.1  33956  286.14 0854.99
2009/04/23 06:52:28.2      99     83     19    130    132  50.0   8.5  33956  286.14 0854.99
2009/04/23 06:52:28.3      92     78      3    121    122  49.6   1.8  33958  286.17 0854.99
2009/04/23 06:52:28.4      98     98     28    140    143  45.0  11.6  33960  286.20 0854.99
2009/04/23 06:52:28.5     117     77     34    141    146  56.7  13.7  33960  286.19 0854.99
2009/04/23 06:52:28.6     125     64     17    141    143  62.9   6.9  33956  286.14 0854.99
2009/04/23 06:52:28.7     121     72     -1    141    142  59.3  -0.7  33956  286.14 0854.99
2009/04/23 06:52:28.8     121     77      0    144    145  57.6   0.2  33958  286.17 0854.99
2009/04/23 06:52:28.9      85     93     27    127    130  42.3  12.2  33960  286.20 0854.99
2009/04/23 06:52:29.0      93     78     43    122    130  50.0  19.4  33962  286.24 0854.98
2009/04/23 06:52:29.1     105    105     38    149    154  45.0  14.3  33962  286.22 0854.98
2009/04/23 06:52:29.2      90     83     33    123    128  47.3  15.3  33960  286.20 0854.98
2009/04/23 06:52:29.3     127     96     18    160    162  52.7   6.5  33958  286.15 0854.98
2009/04/23 06:52:29.4     116     90      1    147    148  52.2   0.7  33956  286.12 0854.98
2009/04/23 06:52:29.5     127     77     -3    149    150  58.5  -1.3  33950  286.03 0854.98
2009/04/23 06:52:29.6     125     53     29    136    140  66.9  12.2  33944  285.93 0854.98
2009/04/23 06:52:29.7     122     38     37    128    134  72.7  16.3  33940  285.87 0854.98
2009/04/23 06:52:29.8     131     39     44    137    144  73.1  17.9  33938  285.82 0854.98
2009/04/23 06:52:29.9     117     50     46    128    136  66.9  20.4  33942  285.90 0854.98
2009/04/23 06:52:30.0     118     46     54    127    138  68.3  24.1  33946  285.95 0854.98
2009/04/23 06:52:30.1      92     45     47    103    113  63.8  26.6  33950  286.02 0854.98
2009/04/23 06:52:30.2      72     58     27     93     97  51.4  16.3  33950  286.03 0854.98
2009/04/23 06:52:30.3      75     51     46     91    101  55.8  28.7  33952  286.05 0854.98
2009/04/23 06:52:30.4      84     29     34     89     95  70.9  21.0  33948  286.00 0854.98
2009/04/23 06:52:30.5      61     20     33     65     72  71.6  28.2  33952  286.05 0854.98
2009/04/23 06:52:30.6      38     26     50     47     68  55.8  51.2  33952  286.07 0854.98
2009/04/23 06:52:30.7      29     18     56     35     66  57.5  64.7  33952  286.05 0854.98
2009/04/23 06:52:30.8      55      5     51     56     75  84.8  47.9  33954  286.08 0854.98
2009/04/23 06:52:30.9      78      6     42     79     89  85.6  30.3  33954  286.10 0854.98
2009/04/23 06:52:31.0      84      6      8     85     86  85.6   5.4  33954  286.10 0854.98
2009/04/23 06:52:31.1      66     31     -2     74     75  64.8  -2.2  33952  286.07 0854.98
2009/04/23 06:52:31.2      32      0     29     33     43  90.0  46.9  33954  286.10 0854.98
2009/04/23 06:52:31.3      66    -24     65     71     96 110.0  47.9  33950  286.03 0854.98
2009/04/23 06:52:31.4      71     -4     69     72     99  93.5  49.0  33950  286.02 0854.98
2009/04/23 06:52:31.5      57     -4     68     58     89  94.3  55.4  33948  286.00 0854.98
2009/04/23 06:52:31.6      32    -10     59     34     68 108.4  67.7  33948  286.00 0854.98
2009/04/23 06:52:31.7      32      7     57     33     65  76.7  66.8  33950  286.02 0854.98
2009/04/23 06:52:31.8      41    -13     42     44     60 107.7  49.0  33950  286.02 0854.98
2009/04/23 06:52:31.9      50    -30     46     59     74 120.7  42.7  33952  286.07 0854.98
2009/04/23 06:52:32.0      45    -40     44     61     75 131.3  39.5  33954  286.08 0854.98
2009/04/23 06:52:32.1      56    -41     24     70     75 125.9  18.9  33954  286.08 0854.98
2009/04/23 06:52:32.2      43    -41     28     60     66 133.3  27.1  33952  286.05 0854.98
2009/04/23 06:52:32.3      40    -33     25     52     57 129.6  27.2  33952  286.07 0854.98
2009/04/23 06:52:32.4      26    -36     23     45     50 143.9  29.3  33952  286.05 0854.98
2009/04/23 06:52:32.5      30    -41     18     51     55 143.9  19.4  33950  286.03 0854.98
2009/04/23 06:52:32.6      40    -40     13     57     59 134.9  13.2  33944  285.92 0854.98
2009/04/23 06:52:32.7      39    -58      7     71     72 145.7   5.9  33942  285.88 0854.98
2009/04/23 06:52:32.8      34    -51     12     62     64 146.6  11.0  33938  285.82 0854.98
2009/04/23 06:52:32.9      40    -33     18     52     56 129.5  19.2  33940  285.87 0854.98
2009/04/23 06:52:33.0      41    -32     11     53     55 127.8  12.2  33938  285.82 0854.98
2009/04/23 06:52:33.1      33    -23     17     41     44 124.2  23.0  33940  285.87 0854.98
2009/04/23 06:52:33.2      27    -17     32     32     45 122.4  50.1  33936  285.80 0854.98
2009/04/23 06:52:33.3      40     -6     32     41     52  98.8  42.7  33936  285.80 0854.98
2009/04/23 06:52:33.4      38     -9     38     40     55 103.3  50.0  33932  285.73 0854.98
2009/04/23 06:52:33.5      25      2     43     26     50  83.9  65.7  33934  285.75 0854.98
2009/04/23 06:52:33.6       7      3     39      8     39  64.7  90.0  33938  285.82 0854.98
2009/04/23 06:52:33.7       0      7     33      8     33   4.5  86.9  33938  285.83 0854.98
2009/04/23 06:52:33.8      -7      6     24     10     26 309.5  77.1  33940  285.85 0854.98
2009/04/23 06:52:33.9      -5      2     20      6     20 295.3  82.8  33940  285.85 0854.98
2009/04/23 06:52:34.0       9     -3     17     10     19 111.7  64.7  33938  285.83 0854.98
2009/04/23 06:52:34.1      17     -7     17     19     25 111.7  47.9  33934  285.76 0854.98
2009/04/23 06:52:34.2      12      4      9     13     15  71.4  35.6  33934  285.76 0854.98
2009/04/23 06:52:34.3      11      7      6     14     15  57.6  23.0  33936  285.80 0854.98
2009/04/23 06:52:34.4      -4     14      8     15     17 341.5  31.4  33934  285.76 0854.98
2009/04/23 06:52:34.5      13     13     20     19     27  46.7  48.2  33936  285.78 0854.98
2009/04/23 06:52:34.6       9     41     16     43     45  12.5  20.0  33940  285.87 0854.98
2009/04/23 06:52:34.7      25     39     20     47     51  32.6  24.1  33956  286.12 0854.98
2009/04/23 06:52:34.8      25     25     30     36     46  45.0  44.8  33954  286.08 0854.98
2009/04/23 06:52:34.9      19     31     31     37     48  32.5  45.8  33950  286.03 0854.98
2009/04/23 06:52:35.0      19     19     39     27     47  45.0  62.6  33946  285.97 0854.98
2009/04/23 06:52:35.1       0     17     37     18     41 357.3  72.9  33948  285.98 0854.98
2009/04/23 06:52:35.2      -2     27     38     28     47 355.5  59.4  33948  286.00 0854.98
2009/04/23 06:52:35.3      -9     30     38     32     49 343.1  56.3  33956  286.12 0854.98
2009/04/23 06:52:35.4     -18     39     35     44     56 334.6  43.7  33954  286.08 0854.98
2009/04/23 06:52:35.5     -19     30     35     36     50 327.5  51.1  33950  286.03 0854.98
2009/04/23 06:52:35.6     -23     19     29     31     42 309.5  49.0  33952  286.07 0854.98
2009/04/23 06:52:35.7     -30     10     17     32     36 290.0  29.3  33948  285.98 0854.98
2009/04/23 06:52:35.8     -10      6     19     13     23 302.4  60.5  33944  285.93 0854.98
2009/04/23 06:52:35.9      -2     -3      4      4      5 212.5  50.1  33944  285.93 0854.98
2009/04/23 06:52:36.0       6     -2      0      7      8 115.3  -2.2  33944  285.93 0854.98
2009/04/23 06:52:36.1      11      0      0     12     13  85.6  -2.2  33944  285.92 0854.98
2009/04/23 06:52:36.2      13     11     -5     18     19  50.5 -15.5  33944  285.92 0854.98
2009/04/23 06:52:36.3      16     15     -2     22     23  46.9  -5.2  33946  285.95 0854.98
2009/04/23 06:52:36.4      21     25    -19     33     38  39.6 -39.9  33942  285.90 0854.98
2009/04/23 06:52:36.5      13     40    -33     43     54  18.5 -46.1  33946  285.95 0854.98
2009/04/23 06:52:36.6       5     23    -48     24     53  13.4 -77.2  33942  285.88 0854.98
2009/04/23 06:52:36.7      -3     57    -64     58     86 356.4 -57.1  33936  285.80 0854.98
2009/04/23 06:52:36.8     -10     59    -64     60     87 350.2 -55.6  33934  285.75 0854.98
2009/04/23 06:52:36.9      -9     59    -77     60     97 351.1 -62.3  33934  285.75 0854.98
2009/04/23 06:52:37.0     -21     54    -55     59     80 338.2 -52.3  33936  285.80 0854.98
2009/04/23 06:52:37.2      12     69    -62     71     94   9.8 -50.2  33934  285.76 0854.98
2009/04/23 06:52:37.3      47     80    -69     93    115  30.7 -44.5  33936  285.80 0854.98
2009/04/23 06:52:37.4      31     68    -78     75    108  24.5 -55.6  33934  285.76 0854.98
2009/04/23 06:52:37.5      54     29    -45     62     76  61.2 -44.1  33936  285.78 0854.98
2009/04/23 06:52:37.6      80     23    -25     84     88  74.1 -16.6  33936  285.78 0854.98
2009/04/23 06:52:37.7     123     46    -26    132    135  69.2 -11.3  33936  285.78 0854.98
2009/04/23 06:52:37.8     112     27     60    116    130  76.3  29.3  33952  286.07 0854.98
2009/04/23 06:52:37.9     102     27     86    106    136  75.0  43.7  33958  286.17 0854.98
2009/04/23 06:52:38.0     109     24     78    112    136  77.6  38.6  33946  285.95 0854.98
2009/04/23 06:52:38.1      97     18     82     99    128  79.0  43.8  33954  286.08 0854.99
2009/04/23 06:52:38.2      67     22     88     71    113  71.4  56.4  33976  286.47 0854.99
2009/04/23 06:52:38.3      74     24     85     78    115  71.8  52.2  33988  286.67 0854.99
2009/04/23 06:52:38.4      70     24     96     75    121  70.9  58.4  34010  287.05 0854.99
2009/04/23 06:52:38.5      67     32    110     75    133  64.6  62.7  34008  287.01 0854.99
2009/04/23 06:52:38.6      50     25     98     57    113  62.9  66.8  34008  287.00 0854.99
2009/04/23 06:52:38.7      42      1     75     43     86  88.3  67.2  33994  286.76 0854.99
2009/04/23 06:52:38.8      41      7     58     42     71  80.3  60.5  33972  286.39 0854.99
2009/04/23 06:52:38.9      18     18     48     26     54  45.0  68.8  33954  286.10 0854.99
2009/04/23 06:52:39.0      17     22     64     28     69  37.8  74.0  33968  286.32 0854.99
2009/04/23 06:52:39.1       8     26     57     28     63  18.3  72.8  33980  286.54 0854.99
2009/04/23 06:52:39.2       0     45     49     46     67 359.1  52.1  33992  286.73 0854.99
2009/04/23 06:52:39.3       7     56     49     57     75   8.0  44.8  33998  286.83 0854.99
2009/04/23 06:52:39.4      16     62     57     65     86  15.1  46.4  34008  287.00 0854.99
2009/04/23 06:52:39.5      21     64     61     68     91  18.7  46.4  34010  287.03 0854.99
2009/04/23 06:52:39.6      23     70     54     74     91  18.5  40.1  33996  286.81 0854.99
2009/04/23 06:52:39.7      26     70     53     75     91  20.9  39.1  33976  286.46 0854.99
2009/04/23 06:52:39.8      24     71     46     76     88  19.2  34.4  33964  286.27 0854.99
2009/04/23 06:52:39.9      26     59     42     65     77  24.5  35.6  33960  286.20 0854.99
2009/04/23 06:52:40.0      34     51     46     62     77  34.3  39.7  33962  286.22 0854.99
2009/04/23 06:52:40.1      46     36     46     59     74  52.2  42.7  33964  286.25 0855.00
2009/04/23 06:52:40.2      37     45     36     59     69  39.6  35.5  33962  286.22 0855.00
2009/04/23 06:52:40.3      29     45     28     54     60  32.6  30.3  33962  286.22 0855.00
2009/04/23 06:52:40.4      19     43     26     48     54  23.6  31.4  33966  286.29 0855.00
2009/04/23 06:52:40.5      -4     58      8     59     60 355.6   8.0  33968  286.34 0855.00
2009/04/23 06:52:40.6       0     52      6     53     54   0.9   6.9  33962  286.24 0855.00
2009/04/23 06:52:40.7       7     46     15     47     50   8.9  18.4  33964  286.27 0855.00
2009/04/23 06:52:40.8       8     57     29     58     64   8.9  28.2  33968  286.32 0855.00
2009/04/23 06:52:40.9     -16     61     28     64     69 344.8  26.2  33974  286.42 0855.00
2009/04/23 06:52:41.0       0     68     39     69     79   0.0  32.4  33978  286.51 0855.00
2009/04/23 06:52:41.1      19     10     52     22     56  62.9  76.1  33976  286.46 0855.00
2009/04/23 06:52:41.2      38     26     65     47     80  55.8  60.5  33970  286.37 0855.00
2009/04/23 06:52:41.3      56     11     62     58     84  78.5  51.6  33976  286.46 0855.00
2009/04/23 06:52:41.4      55     11     75     57     94  78.6  59.0  33976  286.46 0855.00
2009/04/23 06:52:41.5      95     31     80    101    128  71.8  42.7  33972  286.39 0855.00
2009/04/23 06:52:41.6     103     25    113    106    154  76.3  52.1  33962  286.24 0855.00
2009/04/23 06:52:41.7     158    -11    106    159    191  94.3  36.7  33944  285.93 0855.00
2009/04/23 06:52:41.8     128     -8     85    129    154  93.9  35.6  33944  285.92 0855.00
2009/04/23 06:52:41.9      66      1     98     67    118  88.3  62.6  33944  285.92 0855.00
2009/04/23 06:52:42.0      65     19     90     68    112  73.2  59.0  33940  285.85 0855.00
2009/04/23 06:52:42.1      73     29    110     79    135  68.2  61.1  33942  285.88 0855.00
2009/04/23 06:52:42.2      -7      7     65     11     65 315.0  90.0  33948  285.98 0855.00
2009/04/23 06:52:42.3     -10    -10     42     15     44 225.0  81.2  33950  286.03 0855.00
2009/04/23 06:52:42.4      28    -15     33     32     45 118.9  50.1  33952  286.05 0855.00
2009/04/23 06:52:42.5      -9    -27     29     29     41 200.0  50.1  33952  286.07 0855.00
2009/04/23 06:52:42.6       0      7     19      8     20 357.3  77.1  33950  286.03 0855.00
2009/04/23 06:52:42.7       6     18     32     19     37  18.5  64.7  33952  286.05 0855.00
2009/04/23 06:52:42.8      43     45     13     63     65  43.3  12.2  33952  286.07 0855.00
2009/04/23 06:52:42.9      32     68    -12     76     78  25.3  -9.3  33950  286.03 0855.00
2009/04/23 06:52:43.0      54     71     -3     90     91  37.4  -2.2  33954  286.08 0855.00
2009/04/23 06:52:43.1      57     57     -1     82     83  45.0  -1.3  33952  286.05 0855.00
2009/04/23 06:52:43.2      54     46     40     71     81  49.6  31.9  33948  286.00 0855.00
2009/04/23 06:52:43.3      50     36     57     62     84  54.0  47.9  33946  285.97 0855.00
2009/04/23 06:52:43.4      57     27     57     64     85  64.6  46.4  33944  285.92 0855.00
2009/04/23 06:52:43.5      36     36     52     51     72  45.0  49.1  33946  285.97 0855.00
2009/04/23 06:52:43.6      56     19     87     60    105  71.4  62.6  33942  285.90 0855.00
2009/04/23 06:52:43.7      49     23     68     55     87  64.7  56.9  33944  285.93 0855.00
2009/04/23 06:52:43.8      57     22     65     62     89  68.3  51.2  33944  285.93 0855.00
2009/04/23 06:52:43.9      83     14     44     85     95  80.3  29.3  33944  285.93 0855.00
2009/04/23 06:52:44.0      54     12     56     56     79  77.6  50.1  33942  285.88 0855.00
2009/04/23 06:52:44.1      43     18     28     47     54  66.5  34.4  33942  285.90 0854.99
2009/04/23 06:52:44.2      33     21     -5     40     41  56.7  -7.3  33944  285.93 0854.99
2009/04/23 06:52:44.3      20     19    -20     28     34  46.7 -42.0  33946  285.95 0854.99
2009/04/23 06:52:44.4      28     40    -32     50     59  35.2 -40.0  33946  285.97 0854.99
2009/04/23 06:52:44.5      32     39    -42     51     66  39.6 -48.1  33946  285.95 0854.99
2009/04/23 06:52:44.6      47     80    -42     93    102  30.7 -30.1  33946  285.95 0854.99
2009/04/23 06:52:44.7      23     67    -49     72     87  19.2 -41.4  33944  285.92 0854.99
2009/04/23 06:52:44.8      35     74     -2     82     83  25.4  -1.8  33936  285.80 0854.99
2009/04/23 06:52:44.9      68     94      1    117    118  36.1   0.8  33940  285.85 0854.99
2009/04/23 06:52:45.0      27    103      3    107    108  15.1   1.8  33940  285.85 0854.99
2009/04/23 06:52:45.1      11     53    -15     55     57  11.6 -20.7  33942  285.88 0854.99
2009/04/23 06:52:45.2     -23     11    -51     26     57 297.1 -76.3  33942  285.88 0854.99
2009/04/23 06:52:45.3     -27    -17    -80     33     86 237.6 -81.5  33940  285.87 0854.99
2009/04/23 06:52:45.4      13     17    -61     22     64  37.8 -85.6  33938  285.83 0854.99
2009/04/23 06:52:45.5      15      7    -58     17     60  64.7 -89.2  33942  285.88 0854.99
2009/04/23 06:52:45.6      16     21    -43     27     50  37.8 -69.1  33940  285.85 0854.99
2009/04/23 06:52:45.7      26     42    -49     50     70  32.5 -55.5  33942  285.88 0854.99
2009/04/23 06:52:45.8       5     48    -42     49     64   6.2 -50.2  33942  285.88 0854.99
2009/04/23 06:52:45.9      -8     14      4     17     18 331.0  15.3  33940  285.87 0854.99
2009/04/23 06:52:46.0     -19     10    -34     22     40 297.1 -68.0  33942  285.88 0854.99
2009/04/23 06:52:46.1     -22      0    -55     23     59 270.0 -81.4  33940  285.85 0854.99
2009/04/23 06:52:46.2     -12     -6    -59     14     60 241.1 -90.0  33936  285.80 0854.99
2009/04/23 06:52:46.3     -17    -22    -44     28     52 217.8 -69.1  33934  285.76 0854.99
2009/04/23 06:52:46.4       2      0    -36      3     36  90.0 -90.0  33934  285.75 0854.99
2009/04/23 06:52:46.5      15     12    -30     20     36  50.5 -69.0  33936  285.78 0854.99
2009/04/23 06:52:46.6      40     10    -52     42     66  74.9 -60.8  33938  285.83 0854.99
2009/04/23 06:52:46.7      86     -6    -50     87    100  94.3 -36.8  33940  285.87 0854.99
2009/04/23 06:52:46.8      91     12    -52     92    105  82.1 -36.3  33940  285.85 0854.99
2009/04/23 06:52:46.9      94     50    -13    107    108  62.0  -7.3  33940  285.87 0854.99
2009/04/23 06:52:47.0      87     48     19    100    102  60.7  11.1  33942  285.88 0854.99
2009/04/23 06:52:47.1     100     33     32    106    111  71.8  16.8  33944  285.93 0854.99
2009/04/23 06:52:47.2     123      6     42    124    132  87.0  18.9  33944  285.92 0854.99
2009/04/23 06:52:47.3     111      0     30    112    117  90.4  15.2  33944  285.92 0854.99
2009/04/23 06:52:47.4      89      0     19     90     93  90.0  12.2  33942  285.90 0854.99
2009/04/23 06:52:47.5      87    -17     17     89     91 101.5  11.1  33942  285.90 0854.99
2009/04/23 06:52:47.6      63     10     45     64     78  80.3  38.6  33944  285.92 0854.99
2009/04/23 06:52:47.7      16     37      3     41     42  23.6   4.9  33942  285.90 0854.99
2009/04/23 06:52:47.8      67     79    -28    104    108  40.5 -15.5  33942  285.90 0854.99
2009/04/23 06:52:47.9      96    120    -23    154    156  38.7  -8.8  33942  285.88 0854.99
2009/04/23 06:52:48.0      65     67    -33     94    100  44.1 -19.6  33940  285.87 0854.99
2009/04/23 06:52:48.1      68     48    -39     84     92  54.9 -31.0  33944  285.92 0854.99
2009/04/23 06:52:48.2     114     54     12    127    128  64.8   5.4  33938  285.83 0854.99
2009/04/23 06:52:48.3      86    111     44    141    148  37.9  17.3  33938  285.82 0854.99
2009/04/23 06:52:48.4     102     31    -36    107    114  72.7 -18.7  33940  285.85 0854.99
2009/04/23 06:52:48.5     108     36    -27    115    119  71.4 -13.3  33938  285.83 0854.99
2009/04/23 06:52:48.6      76     11    -33     77     83  81.2 -28.5  33942  285.90 0854.99
2009/04/23 06:52:48.7      86     14    -28     88     93  80.8 -18.1  33940  285.87 0854.99
2009/04/23 06:52:48.8     103      7    -28    104    108  85.6 -15.5  33944  285.92 0854.99
2009/04/23 06:52:48.9     110     15     -4    112    113  82.0  -2.2  33944  285.93 0854.99
2009/04/23 06:52:49.0     107     52     23    120    123  63.8  11.1  33944  285.92 0854.99
2009/04/23 06:52:49.1      21    101     77    104    129  12.0  40.1  33942  285.88 0854.99
2009/04/23 06:52:49.2      55     31     72     64     96  60.2  53.7  33942  285.90 0854.99
2009/04/23 06:52:49.3     105    -32     61    110    125 107.3  31.4  33948  285.98 0854.99
2009/04/23 06:52:49.4     125      0     47    126    134  90.0  20.9  33948  285.98 0854.99
2009/04/23 06:52:49.5     155     11      6    156    157  85.6   2.3  33944  285.92 0854.99
2009/04/23 06:52:49.6     158    -18     13    160    161  96.6   4.9  33942  285.90 0854.99
2009/04/23 06:52:49.7     164    -32    -12    168    169 101.0  -4.4  33946  285.95 0854.99
2009/04/23 06:52:49.8     141    -49      7    150    151 109.1   2.9  33942  285.90 0854.99
2009/04/23 06:52:49.9     153    -50     -5    162    163 108.2  -1.8  33942  285.90 0854.99
2009/04/23 06:52:50.0      96    -63     27    115    119 123.3  13.1  33940  285.87 0854.99
2009/04/23 06:52:50.1      80    -91     22    122    125 138.6  10.6  33940  285.85 0854.99
2009/04/23 06:52:50.2      77    -72     21    106    109 133.1  11.1  33940  285.87 0854.99
2009/04/23 06:52:50.3      80    -53     11     97     98 123.7   6.5  33938  285.82 0854.99
2009/04/23 06:52:50.4      78    -52     18     94     96 123.7  11.1  33938  285.83 0854.99
2009/04/23 06:52:50.5      61    -60     28     86     91 134.4  17.9  33938  285.82 0854.99
2009/04/23 06:52:50.6      62    -87     29    108    113 144.4  15.3  33940  285.85 0854.99
2009/04/23 06:52:50.7      72    -93     69    118    136 142.2  33.4  33940  285.87 0854.99
2009/04/23 06:52:50.8      87    -62     41    108    115 125.5  21.0  33942  285.90 0854.99
2009/04/23 06:52:50.9     112    -39     26    119    122 109.5  12.6  33944  285.92 0854.99
2009/04/23 06:52:51.0     121    -26     -1    124    125 102.4  -0.7  33948  285.98 0854.99
2009/04/23 06:52:51.1      98    -62      5    117    118 122.4   2.9  33944  285.93 0854.99
2009/04/23 06:52:51.2     104    -66      6    124    125 122.4   2.8  33944  285.92 0854.99
2009/04/23 06:52:51.3     122    -24      0    125    126 101.4   0.2  33946  285.95 0854.99
2009/04/23 06:52:51.4     126    -30     21    130    132 103.7   9.5  33946  285.95 0854.99
2009/04/23 06:52:51.5     126    -25     33    129    134 101.5  14.3  33942  285.90 0854.99
2009/04/23 06:52:51.6     104     -7     20    105    107  94.3  11.0  33946  285.97 0854.99
2009/04/23 06:52:51.7     118    -26     14    122    123 102.8   6.9  33946  285.95 0854.99
2009/04/23 06:52:51.8     140      4      3    141    142  88.3   1.2  33948  285.98 0854.99
2009/04/23 06:52:51.9     134    -10     21    135    137  94.4   9.0  33942  285.90 0854.99
2009/04/23 06:52:52.0      78    -15     59     80     99 101.5  39.7  33946  285.97 0854.99
2009/04/23 06:52:52.1      43    -64     57     78     96 145.7  39.7  33940  285.87 0854.99
2009/04/23 06:52:52.2      71    -32     53     79     95 114.4  36.5  33942  285.88 0854.99
2009/04/23 06:52:52.3      83    -34     51     90    103 112.2  31.4  33942  285.88 0854.99
2009/04/23 06:52:52.4      89    -42     58     99    114 115.2  33.5  33940  285.85 0854.99
2009/04/23 06:52:52.5      75    -26     45     80     91 109.1  31.9  33942  285.88 0854.99
2009/04/23 06:52:52.6      53    -38     20     66     70 125.9  17.3  33940  285.85 0854.99
2009/04/23 06:52:52.7      36    -55     36     67     76 146.6  31.3  33934  285.75 0854.99
2009/04/23 06:52:52.8      37    -58     37     70     79 147.4  30.3  33932  285.73 0854.99
2009/04/23 06:52:52.9      39    -34     63     53     82 131.3  55.4  33930  285.68 0854.99
2009/04/23 06:52:53.0      36    -36     68     51     85 135.0  59.4  33930  285.68 0854.99
2009/04/23 06:52:53.1      35     -7     49     36     60 101.5  60.5  33934  285.76 0854.99
2009/04/23 06:52:53.2      32     32     47     46     65  44.2  50.1  33940  285.85 0854.99
2009/04/23 06:52:53.3      40     16     37     44     57  68.3  43.8  33948  285.98 0854.99
2009/04/23 06:52:53.4      26      0     46     27     53  90.0  66.8  33946  285.95 0854.99
2009/04/23 06:52:53.5       0      6     48      7     48   4.5  90.0  33948  285.98 0854.99
2009/04/23 06:52:53.6       0     -3     33      4     33 189.7  90.0  33948  285.98 0854.99
2009/04/23 06:52:53.7     -15    -43     44     46     63 200.0  50.0  33948  285.98 0854.99
2009/04/23 06:52:53.8       8    -49     50     50     70 170.2  50.1  33944  285.93 0854.99
2009/04/23 06:52:53.9      16    -50     54     53     75 161.7  49.1  33942  285.88 0854.99
2009/04/23 06:52:54.0      21    -63     57     67     87 161.3  44.8  33940  285.87 0854.99
2009/04/23 06:52:54.1      51    -70     49     87     99 143.9  31.9  33940  285.87 0854.99
2009/04/23 06:52:54.2      32    -94     37    100    106 161.3  20.4  33944  285.93 0854.99
2009/04/23 06:52:54.3      26    -97      5    101    102 164.9   2.9  33942  285.88 0854.99
2009/04/23 06:52:54.4      18    -95     16     97     99 169.3   9.5  33940  285.85 0854.99
2009/04/23 06:52:54.5      15    -98     12    100    101 171.1   7.1  33942  285.90 0854.99
2009/04/23 06:52:54.6      19   -108     25    110    113 169.8  13.2  33938  285.82 0854.99
2009/04/23 06:52:54.7      25   -101     54    105    118 166.2  29.2  33936  285.78 0854.99
2009/04/23 06:52:54.8      14   -107     41    108    115 172.4  21.0  33938  285.83 0854.99
2009/04/23 06:52:54.9       8   -101     41    102    109 175.1  23.0  33940  285.85 0854.99
2009/04/23 06:52:55.0      -1    -93     41     94    102 180.9  24.6  33938  285.83 0854.99
2009/04/23 06:52:55.1     -35    -79     37     87     94 204.1  24.6  33936  285.78 0854.99
2009/04/23 06:52:55.2       5    -68     23     69     74 175.6  18.9  33936  285.78 0854.99
2009/04/23 06:52:55.3      19    -73     19     76     79 164.8  14.3  33932  285.73 0854.99
2009/04/23 06:52:55.4      33    -69      8     77     78 154.6   5.9  33936  285.78 0854.99
2009/04/23 06:52:55.5      30    -65      4     72     73 154.7   3.8  33938  285.82 0854.99
2009/04/23 06:52:55.6      41    -52      5     67     68 142.2   4.9  33938  285.82 0854.99
2009/04/23 06:52:55.7      44    -61      2     76     77 143.9   1.8  33940  285.87 0854.99
2009/04/23 06:52:55.8      30    -66      0     73     74 155.5  -0.3  33940  285.85 0854.99
2009/04/23 06:52:55.9      38    -48     -3     62     63 142.2  -3.1  33940  285.85 0854.99
2009/04/23 06:52:56.0      36    -45     -5     58     59 141.3  -5.2  33940  285.87 0854.99
2009/04/23 06:52:56.1      34    -32     -6     47     48 133.1  -7.3  33940  285.87 0855.00
2009/04/23 06:52:56.2      45    -32      2     56     57 125.1   2.8  33940  285.87 0855.00
2009/04/23 06:52:56.3      46     -4     21     47     51  95.2  26.2  33950  286.03 0855.00
2009/04/23 06:52:56.4      36      2     16     37     40  85.6  25.1  33950  286.02 0855.00
2009/04/23 06:52:56.5      39     13      4     42     43  70.9   5.9  33948  286.00 0855.00
2009/04/23 06:52:56.6      18      3     26     19     32  78.5  60.5  33948  285.98 0855.00
2009/04/23 06:52:56.7      14      8     32     17     36  61.1  70.8  33944  285.93 0855.00
2009/04/23 06:52:56.8      12      8     32     15     35  57.6  72.9  33946  285.95 0855.00
2009/04/23 06:52:56.9       4     -7     24      9     25 147.5  81.2  33944  285.93 0855.00
2009/04/23 06:52:57.0      -6    -21     23     23     32 196.9  50.1  33944  285.92 0855.00
2009/04/23 06:52:57.1     -10    -35     43     37     56 196.9  54.3  33944  285.92 0855.00
2009/04/23 06:52:57.2       2    -40     42     41     58 176.4  48.2  33944  285.92 0855.00
2009/04/23 06:52:57.3       0    -49     22     50     54 179.1  26.2  33940  285.87 0855.00
2009/04/23 06:52:57.4      -1    -53     20     54     57 181.8  20.0  33940  285.85 0855.00
2009/04/23 06:52:57.5      11    -53     10     55     57 168.4  11.0  33940  285.85 0855.00
2009/04/23 06:52:57.6      11    -73     19     74     77 171.1  14.3  33936  285.80 0855.00
2009/04/23 06:52:57.7      20    -62      3     66     67 162.2   2.8  33940  285.87 0855.00
2009/04/23 06:52:57.8      35    -56     13     67     69 147.5  11.0  33938  285.83 0855.00
2009/04/23 06:52:57.9      23    -54     -1     59     60 156.4  -1.3  33936  285.80 0855.00
2009/04/23 06:52:58.0      31    -35      7     47     48 138.6   9.0  33938  285.82 0855.00
2009/04/23 06:52:58.1      38    -38     15     54     57 135.0  16.3  33940  285.85 0855.00
2009/04/23 06:52:58.2      31    -28     45     43     62 132.2  51.2  33938  285.83 0855.00
2009/04/23 06:52:58.3      19    -43     52     48     70 156.4  52.2  33938  285.82 0855.00
2009/04/23 06:52:58.4      15    -34     61     38     71 156.4  64.7  33938  285.82 0855.00
2009/04/23 06:52:58.5       2    -31     64     32     71 175.5  72.8  33940  285.85 0855.00
2009/04/23 06:52:58.6       1    -41     49     42     64 178.2  54.3  33938  285.82 0855.00
2009/04/23 06:52:58.7       7    -50     39     51     64 172.0  40.7  33938  285.82 0855.00
2009/04/23 06:52:58.8      12    -58     29     60     66 168.4  27.2  33938  285.83 0855.00
2009/04/23 06:52:58.9      13    -54     20     56     59 165.7  20.0  33936  285.80 0855.00
2009/04/23 06:52:59.0      24    -81     24     85     89 163.5  15.8  33934  285.75 0855.00
2009/04/23 06:52:59.1      23    -86     31     90     96 164.9  19.4  33936  285.80 0855.00
2009/04/23 06:52:59.2       7    -96     19     97     99 175.6  11.1  33932  285.73 0855.00
2009/04/23 06:52:59.3       8    -43     35     44     56 169.3  43.7  33930  285.70 0855.00
2009/04/23 06:52:59.4      36     -7     36     37     51 101.5  50.0  33934  285.75 0855.00
2009/04/23 06:52:59.5      85     -7     37     86     93  95.2  24.6  33936  285.78 0855.00
2009/04/23 06:52:59.6      98    -26     41    102    109 105.1  23.0  33938  285.82 0855.00
2009/04/23 06:52:59.7      59    -20     26     63     68 108.6  23.0  33938  285.82 0855.00
2009/04/23 06:52:59.8      57    -50     28     77     81 131.3  20.4  33936  285.80 0855.00
2009/04/23 06:52:59.9      32    -64     57     72     91 152.8  42.7  33936  285.78 0855.00
2009/04/23 06:53:00.0      19    -73     66     76    100 164.8  45.8  33938  285.82 0855.00
2009/04/23 06:53:00.1      28    -77     49     82     95 160.0  34.4  33938  285.82 0855.00
2009/04/23 06:53:00.2      43    -68     35     81     88 147.4  25.1  33938  285.82 0855.00
2009/04/23 06:53:00.3      49    -77     26     92     96 147.4  15.8  33938  285.82 0855.00
2009/04/23 06:53:00.4      36    -80     30     88     94 155.5  18.9  33936  285.80 0855.00
2009/04/23 06:53:00.5      43    -84     35     95    101 152.8  21.0  33938  285.82 0855.00
2009/04/23 06:53:00.6      50    -71     42     88     97 144.8  27.2  33936  285.80 0855.00
2009/04/23 06:53:00.7      38    -59     19     71     74 147.4  15.2  33936  285.80 0855.00
2009/04/23 06:53:00.8      27    -45      3     53     54 148.4   3.8  33936  285.80 0855.00
2009/04/23 06:53:00.9      42    -67     22     80     84 147.5  15.8  33938  285.82 0855.00
2009/04/23 06:53:01.1      16    -71     15     73     75 166.6  12.2  33934  285.76 0855.01
2009/04/23 06:53:01.1      19    -87     43     90     99 167.5  27.2  33936  285.78 0855.01
2009/04/23 06:53:01.2     -20    -91     31     94    100 192.9  18.4  33934  285.75 0855.01
2009/04/23 06:53:01.3     -37    -95     13    103    104 201.4   7.5  33932  285.73 0855.01
2009/04/23 06:53:01.4      -8   -100      0    101    102 184.9  -0.3  33934  285.76 0855.01
2009/04/23 06:53:01.5     -14    -89      7     91     92 189.3   4.9  33934  285.75 0855.01
2009/04/23 06:53:01.6     -31    -87     13     93     94 200.0   8.0  33936  285.78 0855.01
2009/04/23 06:53:01.7     -30    -77     21     83     86 201.8  14.7  33934  285.76 0855.01
2009/04/23 06:53:01.8     -30    -92     21     97    100 198.3  12.2  33934  285.76 0855.01
2009/04/23 06:53:01.9     -12    -87     17     88     90 188.5  11.1  33936  285.78 0855.01
2009/04/23 06:53:02.0       0    -92     18     93     95 180.0  11.0  33936  285.80 0855.01
2009/04/23 06:53:02.1      11    -85     18     86     89 172.0  12.2  33936  285.80 0855.01
2009/04/23 06:53:02.2       1    -77     19     78     81 179.1  13.7  33934  285.76 0855.01
2009/04/23 06:53:02.3       0    -76     19     77     80 180.0  14.3  33936  285.78 0855.01
2009/04/23 06:53:02.4       5    -71     24     72     77 175.6  18.9  33934  285.76 0855.01
2009/04/23 06:53:02.5       4    -73     33     74     81 176.4  25.7  33934  285.76 0855.01
2009/04/23 06:53:02.6     -69     64    -36     95    101 312.7 -25.9  33988  286.67 0855.01
2009/04/23 06:53:02.7      -4    -76     35     77     84 183.6  26.2  33934  285.76 0855.01
2009/04/23 06:53:02.8      -6    -76     37     77     85 184.5  27.8  33936  285.80 0855.01
2009/04/23 06:53:02.9      -5    -69     34     70     77 184.4  27.3  33932  285.71 0855.01
2009/04/23 06:53:03.0      -7    -62     37     63     73 187.1  33.5  33936  285.80 0855.00
2009/04/23 06:53:03.1      -8    -61     44     62     76 188.0  39.5  33932  285.71 0855.00
2009/04/23 06:53:03.2      -5    -77     49     78     92 184.4  35.5  33934  285.76 0855.00
2009/04/23 06:53:03.3       0    -81     37     82     89 180.5  26.2  33932  285.73 0855.00
2009/04/23 06:53:03.4       1    -81     35     82     89 178.6  24.1  33934  285.76 0855.00
2009/04/23 06:53:03.5       1    -81     35     82     89 178.6  24.1  33934  285.76 0855.00
2009/04/23 06:53:03.6      10    -65     30     66     72 171.1  27.1  33934  285.76 0855.00
2009/04/23 06:53:03.7      13    -68     34     70     77 168.5  27.3  33936  285.78 0855.00
2009/04/23 06:53:03.8       5    -69     28     70     75 175.5  23.0  33934  285.75 0855.00
2009/04/23 06:53:03.9       0    -83     39     84     92 180.4  26.6  33934  285.75 0855.00
2009/04/23 06:53:04.0      16    -85     43     87     97 169.3  27.8  33934  285.76 0855.00
2009/04/23 06:53:04.1      16   -105     48    107    117 171.1  25.7  33934  285.76 0855.00
2009/04/23 06:53:04.2       0    -97     37     98    104 180.5  21.0  33932  285.73 0855.00
2009/04/23 06:53:04.3     -19    -95     33     98    104 191.6  18.9  33932  285.73 0855.00
2009/04/23 06:53:04.4      -3    -81     39     82     90 182.7  27.2  33934  285.75 0855.00
2009/04/23 06:53:04.6       0    -83     39     84     92 180.4  26.6  33934  285.75 0855.00
2009/04/23 06:53:04.7      -4    -93     35     94    100 182.7  21.0  33934  285.76 0855.00
2009/04/23 06:53:04.8       6    -79     41     80     89 175.5  28.7  33934  285.76 0855.00
2009/04/23 06:53:04.8       4    -85     44     86     96 176.9  29.3  33932  285.71 0855.00
2009/04/23 06:53:05.0      24    -71     49     75     89 161.3  36.0  33932  285.71 0855.00
2009/04/23 06:53:05.1      31    -71     57     78     96 156.4  39.7  33932  285.73 0855.01
2009/04/23 06:53:05.2      31    -71     57     78     96 156.4  39.7  33932  285.73 0855.01
2009/04/23 06:53:05.3      20    -76     58     79     98 164.9  40.1  33932  285.73 0855.01
2009/04/23 06:53:05.4      15    -57     62     60     86 164.9  50.1  33934  285.76 0855.01
2009/04/23 06:53:05.5       0    -42     68     43     80 180.9  64.7  33932  285.73 0855.01
2009/04/23 06:53:05.6      10    -51     78     53     94 168.4  63.2  33932  285.73 0855.01
2009/04/23 06:53:05.7      52    -68     65     86    107 142.6  40.7  33932  285.73 0855.01
2009/04/23 06:53:05.8      45    -77     70     90    114 149.7  42.2  33932  285.71 0855.01
2009/04/23 06:53:05.9      43    -65     82     79    113 146.6  50.7  33932  285.73 0855.01
2009/04/23 06:53:06.0      61    -84     85    104    134 144.0  43.7  33932  285.73 0855.01
2009/04/23 06:53:06.1      80   -109     81    136    158 143.5  33.5  33932  285.71 0855.01
2009/04/23 06:53:06.2      75    -90     86    118    146 140.4  39.7  33932  285.73 0855.01
2009/04/23 06:53:06.3      68    -69     80     98    126 135.5  43.7  33932  285.71 0855.01
2009/04/23 06:53:06.4      42    -36     54     56     77 131.3  51.1  33932  285.73 0855.01
2009/04/23 06:53:06.5      21    -32     49     39     62 145.7  56.4  33932  285.73 0855.01
2009/04/23 06:53:06.6     -16      0     35     17     38 270.0  72.9  33932  285.71 0855.01
2009/04/23 06:53:06.7      24    -36     38     44     58 145.7  45.8  33934  285.75 0855.01
2009/04/23 06:53:06.8      50    -53     62     74     96 136.8  44.3  33932  285.71 0855.01
2009/04/23 06:53:06.9      46    -45     72     65     97 134.0  53.3  33932  285.73 0855.01
2009/04/23 06:53:07.0      18    -15     57     24     61 131.3  77.0  33932  285.71 0855.01
2009/04/23 06:53:07.1      27    -31     26     42     49 139.5  35.5  33932  285.71 0855.01
2009/04/23 06:53:07.2      33    -40     30     52     60 140.4  32.4  33930  285.70 0855.01
2009/04/23 06:53:07.3      30    -47     25     56     61 147.5  25.1  33932  285.73 0855.01
2009/04/23 06:53:07.4       7    -38     35     39     52 168.4  46.9  33934  285.76 0855.01
2009/04/23 06:53:07.5       7    -45     48     46     66 171.1  50.1  33932  285.71 0855.01
2009/04/23 06:53:07.6      36    -57     40     68     78 147.5  33.5  33934  285.75 0855.01
2009/04/23 06:53:07.7      61    -67     44     91    101 137.7  27.3  33932  285.73 0855.01
2009/04/23 06:53:07.8      59    -74     81     95    124 141.3  45.4  33934  285.76 0855.01
2009/04/23 06:53:07.9      38    -70     75     80    109 151.1  48.0  33934  285.75 0855.01
2009/04/23 06:53:08.0      21    -13     74     25     78 122.4  81.0  33934  285.75 0855.01
2009/04/23 06:53:08.1       0     32     46     33     56 359.1  61.5  33936  285.80 0855.01
2009/04/23 06:53:08.2     -10     16     36     19     40 327.5  69.8  33938  285.82 0855.01
2009/04/23 06:53:08.3       3    -20     62     21     65 170.2  81.0  33934  285.76 0855.01
2009/04/23 06:53:08.4       6     30     42     31     52  11.6  59.4  33936  285.78 0855.01
2009/04/23 06:53:08.5      27     33     61     43     74  39.6  61.5  33938  285.82 0855.01
2009/04/23 06:53:08.6     -32      0     67     33     74 270.0  72.8  33938  285.82 0855.01
2009/04/23 06:53:08.7      37     12     63     39     74  71.8  64.7  33938  285.82 0855.01
2009/04/23 06:53:08.8      21      0     68     22     71  90.0  80.7  33940  285.85 0855.01
2009/04/23 06:53:08.9      11      0     66     12     67  90.0  90.0  33934  285.76 0855.01
2009/04/23 06:53:09.0      20     10     51     23     55  62.9  74.0  33936  285.78 0855.01
2009/04/23 06:53:09.1       8      8     48     12     49  43.2  85.9  33934  285.75 0855.02
2009/04/23 06:53:09.2      -6      6     43      9     43 313.3  88.0  33936  285.78 0855.02
2009/04/23 06:53:09.3     -21     25     47     33     57 320.4  61.5  33936  285.78 0855.02
2009/04/23 06:53:09.4     -15    -31     67     35     75 207.2  69.8  33936  285.78 0855.02
2009/04/23 06:53:09.5      12    -30     80     33     86 158.2  77.1  33934  285.76 0855.02
2009/04/23 06:53:09.6      15    -15     77     22     80 134.9  83.9  33936  285.80 0855.02
2009/04/23 06:53:09.7      17     -7     57     19     60 111.7  81.0  33934  285.75 0855.02
2009/04/23 06:53:09.8      24      7     60     26     65  73.2  75.0  33932  285.73 0855.02
2009/04/23 06:53:09.9       5    -18     39     19     43 161.7  72.9  33934  285.76 0855.02
2009/04/23 06:53:10.0       0     -7     27      8     28 184.5  80.7  33936  285.78 0855.02
2009/04/23 06:53:10.1      -8    -22     44     24     50 200.0  68.8  33934  285.76 0855.02
2009/04/23 06:53:10.2      25    -25     38     36     52 135.0  50.1  33934  285.75 0855.02
2009/04/23 06:53:10.3      24     -4     31     25     39  99.7  56.4  33938  285.82 0855.02
2009/04/23 06:53:10.4      28     -6     21     29     35 103.3  39.7  33934  285.75 0855.02
2009/04/23 06:53:10.5      21    -12     20     25     32 120.7  43.7  33934  285.75 0855.02
2009/04/23 06:53:10.6      11     -8     28     14     31 126.0  72.8  33930  285.70 0855.02
2009/04/23 06:53:10.7       4      0     32      5     32  90.0  90.0  33934  285.76 0855.02
2009/04/23 06:53:10.8       7      6     35     10     36  46.9  82.8  33934  285.76 0855.02
2009/04/23 06:53:10.9      -3      7     28      8     29 334.6  80.7  33936  285.80 0855.02
2009/04/23 06:53:11.0     -13    -21     40     26     47 212.5  64.6  33934  285.76 0855.02
2009/04/23 06:53:11.1       8    -20     30     22     37 158.2  60.5  33934  285.76 0855.02
2009/04/23 06:53:11.2      22     13     37     26     45  59.3  62.6  33934  285.75 0855.02
2009/04/23 06:53:11.3      36      7     36     37     51  78.6  50.0  33934  285.75 0855.02
2009/04/23 06:53:11.4      24      2     31     25     39  83.9  56.4  33934  285.76 0855.02
2009/04/23 06:53:11.5      14     -3     29     15     32 105.1  70.8  33932  285.73 0855.02
2009/04/23 06:53:11.6      -2      4     23      5     23 327.5  86.9  33932  285.73 0855.02
2009/04/23 06:53:11.7      -2     -3     24      4     24 212.5  90.0  33934  285.75 0855.02
2009/04/23 06:53:11.8      -3     -8     22      9     23 205.4  79.2  33932  285.71 0855.02
2009/04/23 06:53:11.9       1    -18     22     19     29 175.5  52.2  33932  285.71 0855.02
2009/04/23 06:53:12.0       5    -16     19     17     25 161.3  52.2  33932  285.73 0855.02
2009/04/23 06:53:12.1      15    -21     15     26     30 143.9  33.5  33930  285.68 0855.02
2009/04/23 06:53:12.2      23    -19     17     31     35 129.5  33.5  33928  285.66 0855.02
2009/04/23 06:53:12.3      20    -21     22     30     37 136.8  39.7  33930  285.70 0855.02
2009/04/23 06:53:12.4      14    -26     28     30     41 151.0  49.0  33930  285.68 0855.02
2009/04/23 06:53:12.5       6    -26     32     27     41 166.6  55.4  33930  285.70 0855.02
2009/04/23 06:53:12.6       7    -22     28     24     36 161.7  54.3  33930  285.70 0855.02
2009/04/23 06:53:12.7       5    -11     20     13     23 154.6  64.7  33930  285.68 0855.02
2009/04/23 06:53:12.8       9     -5     24     11     26 118.9  75.0  33930  285.68 0855.02
2009/04/23 06:53:12.9       9      0     21     10     23  90.0  75.0  33930  285.70 0855.02
2009/04/23 06:53:13.0      10    -10     11     15     18 135.0  39.7  33932  285.73 0855.02
2009/04/23 06:53:13.1      11    -18     11     22     24 149.3  27.2  33930  285.68 0855.02
2009/04/23 06:53:13.2      15    -12     15     20     25 129.5  39.7  33930  285.68 0855.02
2009/04/23 06:53:13.3      11    -18     11     22     24 149.3  27.2  33930  285.68 0855.02
2009/04/23 06:53:13.4      15    -12     15     20     25 129.5  39.7  33930  285.68 0855.02
2009/04/23 06:53:13.5      23    -15     22     28     35 122.5  43.7  33932  285.71 0855.02
2009/04/23 06:53:13.6      19    -19     19     27     33 135.0  39.7  33930  285.70 0855.02
2009/04/23 06:53:13.7      25    -25     24     36     43 135.0  37.6  33930  285.68 0855.02
2009/04/23 06:53:13.8      15    -31     31     35     46 152.8  46.9  33932  285.71 0855.02
2009/04/23 06:53:13.9      25    -34     24     43     49 143.9  31.4  33932  285.73 0855.02
2009/04/23 06:53:14.0      15    -31     31     35     46 152.8  46.9  33932  285.71 0855.02
2009/04/23 06:53:14.1      35    -42     26     55     60 140.4  27.2  33932  285.71 0855.02
2009/04/23 06:53:14.2      39    -40     26     57     62 135.8  26.2  33932  285.71 0855.02
2009/04/23 06:53:14.3      36    -39     28     54     60 137.7  30.3  33934  285.75 0855.02
2009/04/23 06:53:14.4      35    -47     23     59     63 143.0  22.0  33930  285.70 0855.02
2009/04/23 06:53:14.5      35    -49     21     61     65 144.8  19.2  33932  285.73 0855.02
2009/04/23 06:53:14.6      24    -50     25     56     61 153.7  25.1  33932  285.73 0855.02
2009/04/23 06:53:14.7      33    -33     32     47     56 135.0  36.5  33932  285.73 0855.02
2009/04/23 06:53:14.8      45    -15     30     48     56 108.4  35.5  33932  285.71 0855.02
2009/04/23 06:53:14.9      53    -30     16     62     65 119.8  14.3  33932  285.71 0855.02
2009/04/23 06:53:15.0      48    -33     18     59     62 125.1  17.3  33932  285.71 0855.02
2009/04/23 06:53:15.1      35    -35     33     50     59 135.0  36.5  33934  285.75 0855.02
2009/04/23 06:53:15.2      36    -41     38     55     66 138.6  37.6  33932  285.73 0855.02
2009/04/23 06:53:15.3      41    -41     34     59     68 135.0  32.4  33932  285.71 0855.02
2009/04/23 06:53:15.4      43    -36     28     57     63 129.6  27.3  33934  285.75 0855.02
2009/04/23 06:53:15.5      42    -41     25     59     64 134.0  23.1  33930  285.70 0855.02
2009/04/23 06:53:15.6      35    -28     26     45     51 128.6  32.4  33932  285.71 0855.02
2009/04/23 06:53:15.7      30    -26     29     40     49 131.3  39.7  33932  285.73 0855.02
2009/04/23 06:53:15.8      46    -33     32     57     65 126.0  31.4  33930  285.70 0855.02
2009/04/23 06:53:15.9      53    -25     35     59     68 115.2  34.4  33932  285.71 0855.02
2009/04/23 06:53:16.0      48    -24     30     54     61 117.1  31.4  33932  285.71 0855.02
2009/04/23 06:53:16.1      25    -25     38     36     52 135.0  50.1  33930  285.68 0855.02
2009/04/23 06:53:16.2      32    -39     31     51     59 140.4  34.4  33932  285.71 0855.02
2009/04/23 06:53:16.3      25    -46     39     53     65 151.0  39.7  33932  285.71 0855.02
2009/04/23 06:53:16.4      42    -50     41     66     77 139.5  35.5  33934  285.75 0855.02
2009/04/23 06:53:16.5      40    -40     38     57     68 135.0  35.6  33932  285.73 0855.02
2009/04/23 06:53:16.6      37     -2     37     38     53  94.4  51.1  33932  285.73 0855.02
2009/04/23 06:53:16.7      53    -17     38     56     67 108.6  37.6  33932  285.73 0855.02
2009/04/23 06:53:16.8      31    -28     41     42     58 132.2  52.0  33932  285.73 0855.02
2009/04/23 06:53:16.9      27    -31     40     42     58 139.5  51.1  33932  285.71 0855.02
2009/04/23 06:53:17.0      21    -32     42     39     57 145.7  51.2  33930  285.70 0855.02
2009/04/23 06:53:17.1       0    -68     32     69     76 180.0  27.1  33930  285.70 0855.02
2009/04/23 06:53:17.2     -15    -77     21     79     82 191.1  15.3  33930  285.70 0855.02
2009/04/23 06:53:17.3      -1    -80     24     81     85 181.4  16.8  33932  285.71 0855.02
2009/04/23 06:53:17.4       0    -75     26     76     81 180.0  19.2  33932  285.71 0855.02
2009/04/23 06:53:17.5       0    -85     33     86     92 180.0  21.5  33930  285.68 0855.02
2009/04/23 06:53:17.6      11    -80     39     81     89 171.5  27.3  33934  285.75 0855.02
2009/04/23 06:53:17.7       2    -77     37     78     86 178.2  27.2  33930  285.70 0855.02
2009/04/23 06:53:17.8       2    -69     30     70     76 178.2  24.1  33932  285.71 0855.02
2009/04/23 06:53:17.9       2    -69     30     70     76 178.2  24.1  33932  285.71 0855.02
2009/04/23 06:53:18.0       5    -73     32     74     80 175.5  25.1  33930  285.70 0855.02
2009/04/23 06:53:18.1       7    -69     42     70     81 173.8  34.0  33930  285.70 0855.02
2009/04/23 06:53:18.2       0    -68     32     69     76 180.0  27.1  33930  285.70 0855.02
2009/04/23 06:53:18.3       0    -55     20     56     59 180.9  20.0  33930  285.68 0855.02
2009/04/23 06:53:18.4      -8    -61      1     62     63 188.1   1.8  33932  285.71 0855.02
2009/04/23 06:53:18.5     -22    -65     -2     69     70 198.7  -2.2  33930  285.70 0855.02
2009/04/23 06:53:18.6     -21    -63     -3     67     68 198.5  -3.1  33930  285.70 0855.02
2009/04/23 06:53:18.7     -10    -53     -3     54     55 190.7  -4.1  33928  285.66 0855.02
2009/04/23 06:53:18.8      -1    -30     14     31     34 182.6  25.1  33932  285.71 0855.02
2009/04/23 06:53:18.9       0    -41     16     42     44 180.9  21.0  33932  285.73 0855.02
2009/04/23 06:53:19.0     -16    -47     21     50     54 199.2  23.0  33932  285.71 0855.02
2009/04/23 06:53:19.1     -16    -47     21     50     54 199.2  23.0  33932  285.71 0855.03
2009/04/23 06:53:19.2     -18    -41     21     45     49 203.6  27.2  33934  285.75 0855.03
2009/04/23 06:53:19.3     -20    -32     17     38     41 212.6  25.1  33934  285.76 0855.03
2009/04/23 06:53:19.4     -14    -36     18     39     42 201.8  26.2  33932  285.71 0855.03
2009/04/23 06:53:19.5       0    -40     14     41     44 179.1  18.9  33934  285.75 0855.03
2009/04/23 06:53:19.6      -7    -41     19     42     46 189.8  25.1  33934  285.75 0855.03
2009/04/23 06:53:19.7      -9    -44     15     45     48 191.6  18.9  33932  285.71 0855.03
2009/04/23 06:53:19.8     -15    -42     15     45     48 200.0  18.9  33932  285.71 0855.03
2009/04/23 06:53:19.9      -6    -49     10     50     52 187.1  12.2  33930  285.70 0855.03
2009/04/23 06:53:20.0       0    -49     -2     50     51 180.0  -3.1  33932  285.73 0855.03
2009/04/23 06:53:20.1      -3    -39      8     40     41 184.5  12.2  33932  285.71 0855.03
2009/04/23 06:53:20.2     -10    -41      7     43     44 194.3  10.1  33932  285.71 0855.03
2009/04/23 06:53:20.3     -14    -44     -1     47     48 198.5  -2.2  33932  285.73 0855.03
2009/04/23 06:53:20.4     -23    -46     -2     52     53 207.2  -2.2  33930  285.70 0855.03
2009/04/23 06:53:20.5     -12    -37     -1     40     41 198.5  -2.2  33932  285.71 0855.03
2009/04/23 06:53:20.6      -1    -39     -2     40     41 182.7  -4.1  33932  285.73 0855.03
2009/04/23 06:53:20.7       1    -24      1     25     26 175.5   2.9  33934  285.75 0855.03
2009/04/23 06:53:20.8       2    -31      1     32     33 175.5   2.9  33934  285.76 0855.03
2009/04/23 06:53:20.9       0    -22      0     23     24 180.9  -2.2  33934  285.76 0855.03
2009/04/23 06:53:21.0     -16    -35      4     39     40 205.5   6.9  33932  285.73 0855.03
2009/04/23 06:53:21.1     -13    -41     10     44     46 198.3  13.2  33934  285.75 0855.03
2009/04/23 06:53:21.2     -17    -30      6     35     36 210.7  11.1  33932  285.71 0855.03
2009/04/23 06:53:21.3      -9    -30      1     32     33 196.9   2.9  33932  285.71 0855.03
2009/04/23 06:53:21.4      -6    -40     13     41     44 188.9  18.4  33934  285.76 0855.03
2009/04/23 06:53:21.5       5    -51     33     52     61 173.8  35.5  33934  285.75 0855.03
2009/04/23 06:53:21.6      24    -72     27     77     81 161.3  20.0  33934  285.76 0855.03
2009/04/23 06:53:21.7      17   -113     10    115    116 171.1   5.4  33934  285.75 0855.03
2009/04/23 06:53:21.8       0   -113     13    114    115 179.5   6.9  33932  285.73 0855.03
2009/04/23 06:53:21.9      -8   -105      1    106    107 184.5   0.8  33932  285.73 0855.03
2009/04/23 06:53:22.0       2   -106     -2    107    108 178.6  -1.3  33934  285.75 0855.03
2009/04/23 06:53:22.1       0    -92    -11     93     94 180.4  -7.2  33936  285.80 0855.03
2009/04/23 06:53:22.2      -7    -91    -22     92     95 184.5 -13.4  33936  285.80 0855.03
2009/04/23 06:53:22.3     -13    -78    -17     80     82 189.8 -12.4  33934  285.76 0855.03
2009/04/23 06:53:22.4      -4    -83    -14     84     86 183.1  -9.8  33936  285.80 0855.03
2009/04/23 06:53:22.5      -1    -93    -11     94     95 180.9  -6.7  33934  285.76 0855.03
2009/04/23 06:53:22.6      -6    -97     -3     98     99 184.0  -2.2  33934  285.76 0855.03
2009/04/23 06:53:22.7      -8   -100      0    101    102 184.9  -0.3  33934  285.76 0855.03
2009/04/23 06:53:22.8      -8   -100      0    101    102 184.9  -0.3  33934  285.76 0855.03
2009/04/23 06:53:22.9     -14    -99      4    101    102 188.0   2.3  33936  285.78 0855.03
2009/04/23 06:53:23.0      -7    -84      1     85     86 184.9   1.2  33934  285.76 0855.03
2009/04/23 06:53:23.1       0    -91      4     92     93 180.4   2.8  33936  285.78 0855.03
2009/04/23 06:53:23.2       7    -99      4    100    101 175.5   2.8  33934  285.76 0855.03
2009/04/23 06:53:23.3      12   -102     17    103    105 172.9   9.5  33936  285.80 0855.03
2009/04/23 06:53:23.4       6    -99      6    100    101 176.4   3.8  33936  285.78 0855.03
2009/04/23 06:53:23.5       4   -107      0    108    109 177.8  -0.3  33934  285.76 0855.03
2009/04/23 06:53:23.6      13   -100      3    101    102 172.4   1.8  33936  285.80 0855.03
2009/04/23 06:53:23.7       7    -94     -3     95     96 175.5  -2.2  33936  285.80 0855.03
2009/04/23 06:53:23.8      16    -97     -7     99    100 170.7  -4.6  33938  285.82 0855.03
2009/04/23 06:53:23.9       3    -92      1     93     94 177.8   0.8  33934  285.76 0855.03
2009/04/23 06:53:24.0      -3    -99     -2    100    101 181.8  -1.3  33936  285.78 0855.03
2009/04/23 06:53:24.1       4    -99      8    100    101 177.3   4.9  33936  285.80 0855.04
2009/04/23 06:53:24.2       6    -94    -12     95     96 176.4  -7.3  33934  285.75 0855.04
2009/04/23 06:53:24.3     -25    -85     10     89     90 196.9   6.9  33934  285.76 0855.04
2009/04/23 06:53:24.4     -20    -61     30     65     71 198.7  27.1  33936  285.78 0855.04
2009/04/23 06:53:24.5     -15    -63     39     65     75 193.4  35.5  33934  285.75 0855.04
2009/04/23 06:53:24.6       1    -73     41     74     84 179.0  31.9  33934  285.75 0855.04
2009/04/23 06:53:24.7       7   -102     35    103    109 176.0  18.9  33936  285.78 0855.04
2009/04/23 06:53:24.8      -7   -101     30    102    107 184.5  16.8  33934  285.76 0855.04
2009/04/23 06:53:24.9      -7    -77     58     78     97 185.3  40.7  33932  285.71 0855.04
2009/04/23 06:53:25.0      12    -71     66     73     98 170.2  47.5  33932  285.71 0855.04
2009/04/23 06:53:25.1      47    -74     59     88    105 147.5  36.5  33934  285.75 0855.04
2009/04/23 06:53:25.2      56    -89     50    106    117 147.5  27.1  33936  285.80 0855.04
2009/04/23 06:53:25.3      63    -95     55    115    127 146.2  27.2  33936  285.80 0855.04
2009/04/23 06:53:25.4      43    -85     52     96    109 153.3  31.3  33936  285.80 0855.04
2009/04/23 06:53:25.5      31   -119     51    123    133 165.3  23.6  33936  285.80 0855.04
2009/04/23 06:53:25.6      24   -117     60    120    134 168.4  28.7  33936  285.80 0855.04
2009/04/23 06:53:25.7      24   -119     55    122    133 168.4  25.7  33936  285.80 0855.04
2009/04/23 06:53:25.8      12   -118     60    119    133 174.2  28.2  33936  285.80 0855.04
2009/04/23 06:53:25.9      14   -100     60    102    118 171.9  33.5  33938  285.82 0855.04
2009/04/23 06:53:26.0      26   -119     65    122    138 167.5  30.8  33936  285.78 0855.04
2009/04/23 06:53:26.1      14   -126     52    127    137 173.3  23.1  33938  285.82 0855.04
2009/04/23 06:53:26.2       2   -108     78    109    134 178.6  39.1  33938  285.83 0855.04
2009/04/23 06:53:26.3      -7   -118     64    119    135 183.6  30.8  33940  285.85 0855.04
2009/04/23 06:53:26.4      10   -130     50    131    140 175.5  21.5  33940  285.85 0855.04
2009/04/23 06:53:26.5       8   -134     55    135    145 176.4  23.1  33938  285.83 0855.04
2009/04/23 06:53:26.6      25   -142     52    145    154 169.8  20.0  33940  285.87 0855.04
2009/04/23 06:53:26.7      11   -149     52    150    158 175.5  20.0  33940  285.87 0855.04
2009/04/23 06:53:26.8      17   -133     64    135    149 172.4  27.2  33940  285.85 0855.04
2009/04/23 06:53:26.9       8   -157     62    158    169 176.9  22.3  33940  285.87 0855.04
2009/04/23 06:53:27.0       6   -175     47    176    183 178.0  15.0  33942  285.90 0855.04
2009/04/23 06:53:27.1      11   -166     36    167    172 176.0  12.4  33942  285.88 0855.04
2009/04/23 06:53:27.2      19   -155     15    157    158 172.9   5.7  33942  285.90 0855.04
2009/04/23 06:53:27.3      14   -160     41    161    167 174.7  14.5  33942  285.90 0855.04
2009/04/23 06:53:27.4       0   -162     37    163    168 180.0  12.9  33944  285.92 0855.04
2009/04/23 06:53:27.5      -2   -157     24    158    160 180.9   8.8  33940  285.87 0855.04
2009/04/23 06:53:27.6     -10   -146     45    147    154 184.0  17.3  33944  285.93 0855.04
2009/04/23 06:53:27.7      -1   -144     37    145    150 180.5  14.3  33942  285.90 0855.04
2009/04/23 06:53:27.8       6   -128     31    129    133 177.3  13.7  33942  285.90 0855.04
2009/04/23 06:53:27.9      10   -107     52    108    119 174.2  27.3  33942  285.90 0855.04
2009/04/23 06:53:28.0       0   -104     82    105    133 179.5  42.2  33942  285.90 0855.04
2009/04/23 06:53:28.1       0    -89     68     90    112 180.4  41.2  33942  285.90 0855.05
2009/04/23 06:53:28.2      18    -95     57     97    112 169.3  33.5  33942  285.88 0855.05
2009/04/23 06:53:28.3      31    -94     50    100    111 161.7  28.2  33940  285.85 0855.05
2009/04/23 06:53:28.4      12    -90     44     91    101 172.4  27.3  33938  285.82 0855.05
2009/04/23 06:53:28.5      21   -103     44    106    114 168.5  23.6  33938  285.82 0855.05
2009/04/23 06:53:28.6       7   -127     40    128    135 176.9  17.4  33938  285.82 0855.05
2009/04/23 06:53:28.7       7   -127     40    128    135 176.9  17.4  33938  285.82 0855.05
2009/04/23 06:53:28.8       0   -130     30    131    135 180.4  13.2  33940  285.85 0855.05
2009/04/23 06:53:28.9     -12   -120     28    121    125 185.8  13.2  33938  285.83 0855.05
2009/04/23 06:53:29.0      -5   -104     26    105    109 183.1  14.3  33938  285.82 0855.05
2009/04/23 06:53:29.1     -12    -92     32     93     99 188.0  19.2  33940  285.85 0855.05
2009/04/23 06:53:29.2      16   -100     37    102    108 170.7  20.4  33938  285.83 0855.05
2009/04/23 06:53:29.3      28   -105     35    109    115 164.9  17.9  33938  285.83 0855.05
2009/04/23 06:53:29.4      12   -103     73    104    127 172.9  38.0  33936  285.80 0855.05
2009/04/23 06:53:29.5       8   -104     84    105    134 175.5  43.3  33938  285.82 0855.05
2009/04/23 06:53:29.6      18    -92     80     94    123 168.4  45.4  33938  285.82 0855.05
2009/04/23 06:53:29.7       4    -66     79     67    103 176.4  55.4  33938  285.82 0855.05
2009/04/23 06:53:29.8      -4    -76     82     77    112 183.6  52.1  33938  285.83 0855.05
2009/04/23 06:53:29.9       2    -54     78     55     95 177.3  62.1  33936  285.80 0855.05
2009/04/23 06:53:30.0      -2    -73     71     74    102 181.8  49.0  33940  285.87 0855.05
2009/04/23 06:53:30.2      13   -126     82    127    151 173.8  35.6  33942  285.88 0855.05
2009/04/23 06:53:30.3       1   -121     62    122    136 179.5  29.2  33938  285.82 0855.05
2009/04/23 06:53:30.3      46    -32     71     57     91 125.1  56.4  33940  285.87 0855.05
2009/04/23 06:53:30.4      21    -56     82     60    101 159.1  60.5  33936  285.80 0855.05
2009/04/23 06:53:30.5       1   -101     96    102    140 179.0  48.0  33940  285.87 0855.05
2009/04/23 06:53:30.6      -9    -86    104     87    135 186.2  56.3  33940  285.85 0855.05
2009/04/23 06:53:30.7       1    -74    102     75    126 179.1  60.5  33938  285.82 0855.05
2009/04/23 06:53:30.8     -32    -92    110     98    147 199.6  53.7  33938  285.82 0855.05
2009/04/23 06:53:30.9     -63    -85     79    106    132 216.5  40.7  33940  285.87 0855.05
2009/04/23 06:53:31.1     -54    -70     46     89    100 217.8  29.3  33940  285.85 0855.05
2009/04/23 06:53:31.1     -10    -88    -15     89     91 186.7  -9.8  33940  285.85 0855.05
2009/04/23 06:53:31.3       0    -81     24     82     86 179.5  16.3  33940  285.85 0855.05
2009/04/23 06:53:31.4      10   -104     57    105    119 174.2  31.3  33938  285.82 0855.05
2009/04/23 06:53:31.4     -22   -125     51    128    137 190.2  23.0  33940  285.85 0855.05
2009/04/23 06:53:31.5      -9   -116     23    117    120 184.5  11.1  33940  285.85 0855.05
2009/04/23 06:53:31.6     -44   -134     -3    142    143 198.3  -1.3  33940  285.85 0855.05
2009/04/23 06:53:31.8     -42   -112     29    120    124 200.9  13.7  33938  285.82 0855.05
2009/04/23 06:53:31.8     -46   -100     12    111    112 204.9   6.5  33940  285.85 0855.05
2009/04/23 06:53:32.0     -21    -95     12     98     99 192.5   7.1  33938  285.82 0855.05
2009/04/23 06:53:32.1     -21    -85      8     88     89 194.3   5.4  33936  285.80 0855.05
2009/04/23 06:53:32.1     -14    -62     -2     64     65 193.4  -2.2  33936  285.80 0855.06
2009/04/23 06:53:32.3      14    -45     -1     48     49 162.2  -2.2  33936  285.80 0855.06
2009/04/23 06:53:32.4      11    -26     16     29     33 156.4  31.4  33936  285.80 0855.06
2009/04/23 06:53:32.5       0    -21     19     22     29 180.9  47.9  33938  285.83 0855.06
2009/04/23 06:53:32.6      -2    -23     20     24     31 186.2  43.8  33938  285.82 0855.06
2009/04/23 06:53:32.7     -18     -2     26     19     32 262.1  60.5  33936  285.80 0855.06
2009/04/23 06:53:32.8     -30     35     33     47     57 319.5  38.6  33936  285.78 0855.06
2009/04/23 06:53:32.9     -24     50     42     56     70 333.7  40.7  33934  285.76 0855.06
2009/04/23 06:53:33.0     -41     46     40     62     73 318.6  35.6  33934  285.76 0855.06
2009/04/23 06:53:33.1     -52     11     29     54     61 282.4  31.3  33936  285.80 0855.06
2009/04/23 06:53:33.2     -31     -2      6     32     33 265.6  11.0  33932  285.73 0855.06
2009/04/23 06:53:33.3     -36     18     -1     41     42 297.1  -2.2  33932  285.73 0855.06
2009/04/23 06:53:33.4     -35     18    -13     40     43 297.1 -18.7  33934  285.75 0855.06
2009/04/23 06:53:33.5     -19     12      4     23     24 302.4  11.1  33934  285.76 0855.06
2009/04/23 06:53:33.6     -25      0      9     26     28 270.0  19.2  33938  285.82 0855.06
2009/04/23 06:53:33.7     -27     11     10     30     32 293.5  19.4  33936  285.78 0855.06
2009/04/23 06:53:33.8     -26      8     13     28     30 288.6  27.1  33934  285.76 0855.06
2009/04/23 06:53:33.9     -33    -12     20     36     41 250.0  31.4  33936  285.78 0855.06
2009/04/23 06:53:34.0     -24    -15     17     29     33 237.5  33.5  33934  285.76 0855.06
2009/04/23 06:53:34.1     -28    -27     24     40     46 226.0  34.4  33936  285.80 0855.06
2009/04/23 06:53:34.2     -35    -31     10     47     49 228.7  12.2  33936  285.80 0855.06
2009/04/23 06:53:34.3     -48    -26      6     55     56 241.1   6.9  33936  285.78 0855.06
2009/04/23 06:53:34.4     -50    -36     11     63     65 234.0  10.1  33938  285.82 0855.06
2009/04/23 06:53:34.5     -57    -58     37     82     89 224.5  26.2  33936  285.80 0855.06
2009/04/23 06:53:34.6     -49    -59     33     77     83 219.7  24.1  33938  285.83 0855.06
2009/04/23 06:53:34.7     -24    -73     35     78     85 198.5  25.7  33938  285.82 0855.06
2009/04/23 06:53:34.8      -7    -77     51     78     93 185.3  36.0  33936  285.80 0855.06
2009/04/23 06:53:34.9     -20    -82     54     85    100 194.3  35.5  33938  285.82 0855.06
2009/04/23 06:53:35.0     -14   -102     48    104    114 188.1  27.1  33936  285.78 0855.06
2009/04/23 06:53:35.1      -7    -93     36     94    100 184.4  22.5  33936  285.78 0855.06
2009/04/23 06:53:35.2      -4   -102     42    103    111 182.2  23.1  33936  285.80 0855.06
2009/04/23 06:53:35.3      -8   -114     39    115    122 184.4  18.9  33938  285.83 0855.06
2009/04/23 06:53:35.4      -6   -134      9    135    136 182.7   3.8  33938  285.82 0855.06
2009/04/23 06:53:35.5       0    -96     31     97    102 180.5  17.9  33938  285.82 0855.06
2009/04/23 06:53:35.6     -35    -90     50     97    109 201.4  29.3  33938  285.83 0855.06
2009/04/23 06:53:35.7     -53   -122     62    134    147 203.7  27.1  33938  285.82 0855.06
2009/04/23 06:53:35.8     -54    -86     73    102    125 212.1  39.1  33938  285.83 0855.06
2009/04/23 06:53:35.9       5    -74     60     75     96 175.5  43.3  33936  285.80 0855.06
2009/04/23 06:53:36.0       5    -74     86     75    114 175.6  54.3  33936  285.80 0855.06
2009/04/23 06:53:36.1      14   -100     60    102    118 171.9  33.5  33938  285.82 0855.06
2009/04/23 06:53:36.2       0    -98     59     99    115 180.5  34.4  33938  285.83 0855.06
2009/04/23 06:53:36.3      33   -101     27    107    111 161.7  14.3  33938  285.82 0855.06
2009/04/23 06:53:36.4      51   -100     43    113    120 152.8  22.0  33938  285.82 0855.06
2009/04/23 06:53:36.5      35   -105     67    111    129 161.5  34.0  33938  285.83 0855.06
2009/04/23 06:53:36.6      25    -95     67     99    119 165.3  37.6  33940  285.87 0855.06
2009/04/23 06:53:36.7      38    -84     37     93    100 155.5  23.0  33938  285.83 0855.06
2009/04/23 06:53:36.8      63    -99     10    118    119 147.5   4.9  33938  285.82 0855.06
2009/04/23 06:53:36.9      57   -107      5    122    123 151.9   2.3  33938  285.82 0855.06
2009/04/23 06:53:37.0      45   -125      6    134    135 160.0   2.8  33936  285.78 0855.06
2009/04/23 06:53:37.1      46   -101     20    112    114 155.5  10.1  33936  285.80 0855.06
2009/04/23 06:53:37.2      29   -104      4    108    109 164.4   2.3  33938  285.83 0855.06
2009/04/23 06:53:37.3      36   -107    -14    114    115 161.3  -7.3  33936  285.80 0855.06
2009/04/23 06:53:37.4      52   -113    -34    125    130 155.1 -15.4  33934  285.76 0855.06
2009/04/23 06:53:37.5      38   -124    -26    130    133 163.0 -11.3  33938  285.82 0855.06
2009/04/23 06:53:37.6      19   -132    -14    134    135 171.5  -6.2  33936  285.78 0855.06
2009/04/23 06:53:37.7      22   -104     -4    107    108 168.0  -2.2  33938  285.82 0855.06
2009/04/23 06:53:37.8      34   -102     -7    108    109 161.3  -4.1  33934  285.76 0855.06
2009/04/23 06:53:37.9      46   -104    -19    114    116 155.9  -9.8  33938  285.82 0855.06
2009/04/23 06:53:38.0      66   -105    -15    125    126 147.9  -7.2  33938  285.82 0855.06
2009/04/23 06:53:38.1      83    -99     -7    130    131 139.9  -3.2  33936  285.80 0855.06
2009/04/23 06:53:38.2      70    -92    -23    116    119 142.6 -11.3  33936  285.80 0855.06
2009/04/23 06:53:38.3      59    -82    -29    102    107 144.4 -16.0  33936  285.80 0855.06
2009/04/23 06:53:38.4      31   -131     -4    135    136 166.6  -1.8  33938  285.82 0855.06
2009/04/23 06:53:38.5      19   -140      5    142    143 172.0   2.3  33934  285.76 0855.06
2009/04/23 06:53:38.6       6   -107      2    108    109 176.4   1.2  33934  285.76 0855.06
2009/04/23 06:53:38.8     -17   -101      5    103    104 189.8   2.9  33934  285.76 0855.06
2009/04/23 06:53:38.9     -20    -98     -3    101    102 191.6  -2.2  33938  285.82 0855.06
2009/04/23 06:53:39.0     -31    -89     11     95     96 199.2   6.9  33938  285.82 0855.06
2009/04/23 06:53:39.1     -22    -81      5     85     86 195.6   3.8  33938  285.82 0855.06
2009/04/23 06:53:39.2      -4    -84     -1     85     86 183.1  -0.7  33936  285.80 0855.06
2009/04/23 06:53:39.3      10    -74      3     75     76 172.0   2.8  33938  285.82 0855.06
2009/04/23 06:53:39.4      23    -69     40     73     83 161.3  30.8  33934  285.76 0855.06
2009/04/23 06:53:39.5      63   -119     43    135    142 151.9  17.9  33938  285.82 0855.06
2009/04/23 06:53:39.6      49   -136     19    145    147 160.0   7.5  33940  285.85 0855.06
2009/04/23 06:53:39.7      53   -136     28    147    150 158.6  11.1  33938  285.82 0855.06
2009/04/23 06:53:39.8      60   -117     51    132    141 152.8  22.5  33938  285.82 0855.06
2009/04/23 06:53:39.9      64   -120     82    137    159 151.9  33.7  33940  285.85 0855.06
2009/04/23 06:53:40.0      49   -110     68    121    138 155.9  31.4  33940  285.85 0855.06
2009/04/23 06:53:40.1      59    -87     72    106    128 145.7  37.6  33940  285.85 0855.06
2009/04/23 06:53:40.2      72    -93     69    118    136 142.2  33.4  33940  285.87 0855.07
2009/04/23 06:53:40.3      60    -89     30    108    113 145.7  15.8  33940  285.87 0855.07
2009/04/23 06:53:40.4      49    -77     26     92     96 147.4  15.8  33938  285.82 0855.07
2009/04/23 06:53:40.5      33    -69      8     77     78 154.6   5.9  33938  285.82 0855.07
2009/04/23 06:53:40.6       6    -78     -3     79     80 175.6  -2.6  33938  285.83 0855.07
2009/04/23 06:53:40.7      -8    -62     -4     63     64 188.0  -4.1  33936  285.78 0855.07
2009/04/23 06:53:40.8     -17    -53      0     56     57 198.5  -0.3  33940  285.85 0855.07
2009/04/23 06:53:40.9     -15    -33    -23     37     43 205.4 -39.9  33936  285.80 0855.07
2009/04/23 06:53:41.0     -50    -41    -49     66     82 230.5 -45.1  33940  285.87 0855.07
2009/04/23 06:53:41.1     -46    -38    -24     61     65 230.4 -27.4  33940  285.85 0855.07
2009/04/23 06:53:41.2     -89    -26      9     93     94 253.6   5.9  33940  285.87 0855.07
2009/04/23 06:53:41.3     -87    -61     16    107    109 234.9   8.5  33938  285.82 0855.07
2009/04/23 06:53:41.4     -77    -80    -21    112    115 223.7 -10.9  33938  285.83 0855.07
2009/04/23 06:53:41.5     -34   -103    -42    109    116 198.3 -25.9  33940  285.85 0855.07
2009/04/23 06:53:41.6     -16    -98    -31    100    105 189.3 -17.6  33938  285.83 0855.07
2009/04/23 06:53:41.7     -33    -99    -36    105    112 198.7 -19.1  33938  285.83 0855.07
2009/04/23 06:53:41.8     -61   -129    -33    143    147 205.3 -13.3  33940  285.85 0855.07
2009/04/23 06:53:41.9     -64    -89    -41    110    117 216.0 -25.4  33938  285.83 0855.07
2009/04/23 06:53:42.0     -60    -94    -64    112    128 212.5 -36.8  33940  285.85 0855.07
2009/04/23 06:53:42.1     -10   -129    -57    130    141 184.5 -29.5  33938  285.82 0855.07
2009/04/23 06:53:42.2     -10   -155    -40    156    162 184.0 -14.5  33938  285.82 0855.07
2009/04/23 06:53:42.3     -15   -143    -20    144    146 186.2  -8.2  33938  285.83 0855.07
2009/04/23 06:53:42.4      -6   -152     -6    153    154 182.6  -2.2  33938  285.82 0855.07
2009/04/23 06:53:42.5      26   -112     25    116    119 166.6  12.6  33940  285.87 0855.07
2009/04/23 06:53:42.6       3   -108     38    109    116 178.2  19.2  33940  285.85 0855.07
2009/04/23 06:53:42.7       6   -131     26    132    135 177.3  11.1  33938  285.83 0855.07
2009/04/23 06:53:42.8       2   -137     -5    138    139 179.0  -2.2  33940  285.85 0855.07
2009/04/23 06:53:42.9     -14   -119     31    120    125 187.1  14.7  33938  285.82 0855.07
2009/04/23 06:53:43.0     -33   -100     54    106    118 198.7  29.3  33938  285.82 0855.07
2009/04/23 06:53:43.1     -47   -104     43    115    122 204.5  21.0  33938  285.82 0855.07
2009/04/23 06:53:43.2     -43   -110     42    119    127 201.4  19.4  33938  285.83 0855.07
2009/04/23 06:53:43.3     -20   -120     18    122    124 189.8   8.5  33938  285.83 0855.07
2009/04/23 06:53:43.4     -25    -87     38     91     98 196.5  23.6  33936  285.78 0855.07
2009/04/23 06:53:43.5     -34    -74     41     82     91 204.9  28.2  33936  285.80 0855.07
2009/04/23 06:53:43.6     -24    -63     44     68     80 200.9  36.0  33934  285.76 0855.07
2009/04/23 06:53:43.7     -50    -16     31     53     61 252.3  33.5  33934  285.76 0855.07
2009/04/23 06:53:43.8     -69    -18     59     72     93 255.0  43.7  33930  285.68 0855.07
2009/04/23 06:53:43.9     -59     -7     56     60     82 263.0  48.5  33926  285.63 0855.07
2009/04/23 06:53:44.0     -64     -5     52     65     83 264.8  43.3  33930  285.68 0855.07
2009/04/23 06:53:44.1     -42    -14     46     45     64 251.6  49.1  33930  285.68 0855.07
2009/04/23 06:53:44.2     -42    -34     58     55     79 231.4  51.2  33930  285.68 0855.07
2009/04/23 06:53:44.3     -55    -35     60     66     89 237.5  47.5  33926  285.63 0855.07
2009/04/23 06:53:44.4     -35    -34     59     50     77 226.0  56.3  33932  285.71 0855.07
2009/04/23 06:53:44.5     -40    -37     47     55     72 226.9  44.8  33932  285.73 0855.07
2009/04/23 06:53:44.6     -18    -39     35     44     56 205.4  43.7  33934  285.76 0855.07
2009/04/23 06:53:44.7     -17     -7      9     19     21 248.3  27.2  33934  285.76 0855.07
2009/04/23 06:53:44.8     -26      7     26     27     37 285.1  52.0  33934  285.76 0855.07
2009/04/23 06:53:44.9     -14     36     38     39     54 338.2  51.1  33936  285.78 0855.07
2009/04/23 06:53:45.0     -20     14     43     25     49 306.0  66.8  33934  285.75 0855.07
2009/04/23 06:53:45.1     -26      3     37     27     45 277.9  60.5  33936  285.80 0855.07
2009/04/23 06:53:45.2       5    -21     38     22     43 166.6  67.7  33934  285.76 0855.07
2009/04/23 06:53:45.3       0    -36     54     37     65 180.9  62.6  33934  285.75 0855.07
2009/04/23 06:53:45.4      49    -50     59     71     92 135.8  43.8  33936  285.80 0855.07
2009/04/23 06:53:45.5      78    -48     78     92    120 121.5  44.8  33938  285.82 0855.07
2009/04/23 06:53:45.6      85    -28     49     90    102 108.2  31.3  33938  285.82 0855.07
2009/04/23 06:53:45.7      79    -50     50     94    106 122.5  30.8  33936  285.80 0855.07
2009/04/23 06:53:45.8      60    -63     44     88     98 136.3  28.2  33934  285.76 0855.07
2009/04/23 06:53:45.9      24    -38     67     46     81 147.5  62.1  33936  285.78 0855.07
2009/04/23 06:53:46.0      13    -22     73     26     77 149.3  81.2  33936  285.80 0855.07
2009/04/23 06:53:46.1      -8      2     48      9     48 288.4  90.0  33934  285.75 0855.07
2009/04/23 06:53:46.2       0    -20     61     21     64 182.7  81.2  33938  285.82 0855.07
2009/04/23 06:53:46.3      37    -17     69     41     80 115.4  66.8  33934  285.76 0855.07
2009/04/23 06:53:46.4      41    -79     79     90    119 152.4  45.8  33934  285.76 0855.07
2009/04/23 06:53:46.5      89    -73     64    116    132 129.5  31.4  33936  285.80 0855.07
2009/04/23 06:53:46.6      51    -61     75     80    109 140.4  48.0  33934  285.76 0855.07
2009/04/23 06:53:46.7      23    -65     78     70    104 160.0  53.3  33932  285.73 0855.07
2009/04/23 06:53:46.8      44      7     70     45     83  80.3  64.1  33934  285.75 0855.07
2009/04/23 06:53:46.9      54    -54     86     77    115 135.0  53.3  33934  285.75 0855.07
2009/04/23 06:53:47.0      66     13     85     68    108  78.6  56.4  33936  285.78 0855.07
2009/04/23 06:53:47.1      28      3     68     29     73  82.1  77.0  33936  285.78 0855.07
2009/04/23 06:53:47.2      -6      7     50     10     51 316.8  89.0  33938  285.82 0855.08
2009/04/23 06:53:47.3     -27     -9     40     29     49 251.4  60.5  33934  285.76 0855.08
2009/04/23 06:53:47.4      -5    -10     26     12     28 205.4  75.0  33938  285.82 0855.08
2009/04/23 06:53:47.5      -4     12      9     13     15 341.3  35.6  33934  285.75 0855.08
2009/04/23 06:53:47.6       1      5     -4      6      7  18.5 -48.1  33936  285.80 0855.08
2009/04/23 06:53:47.8      25    -11    -22     28     35 113.5 -48.1  33934  285.76 0855.08
2009/04/23 06:53:47.9       1      2    -11      3     11  32.5 -89.3  33932  285.73 0855.08
2009/04/23 06:53:48.0       0      7    -14      8     16 357.3 -69.1  33934  285.75 0855.08
2009/04/23 06:53:48.1     -11      0    -26     12     28 270.0 -79.4  33934  285.76 0855.08
2009/04/23 06:53:48.2     -27    -14     -8     31     33 242.9 -15.4  33936  285.78 0855.08
2009/04/23 06:53:48.3     -39    -20    -13     44     46 242.9 -16.6  33934  285.75 0855.08
2009/04/23 06:53:48.4     -30    -15    -18     34     38 242.9 -33.7  33936  285.78 0855.08
2009/04/23 06:53:48.5     -55    -45    -39     72     81 230.4 -35.2  33938  285.82 0855.08
2009/04/23 06:53:48.6     -52    -74    -30     91     95 215.2 -23.8  33938  285.82 0855.08
2009/04/23 06:53:48.7     -66   -139      6    154    155 205.5   2.3  33940  285.85 0855.08
2009/04/23 06:53:48.8     -35   -173      4    177    178 191.6   1.6  33936  285.80 0855.08
2009/04/23 06:53:48.9     -39   -192     17    196    197 191.5   5.2  33938  285.82 0855.08
2009/04/23 06:53:49.0     -16   -187     -5    188    189 185.1  -1.6  33936  285.80 0855.08
2009/04/23 06:53:49.1      -2   -168      5    169    170 180.9   1.8  33936  285.78 0855.08
2009/04/23 06:53:49.2      -3   -156    -10    157    158 181.4  -3.7  33936  285.80 0855.09
2009/04/23 06:53:49.3       6   -170    -18    171    173 177.8  -6.2  33936  285.78 0855.09
2009/04/23 06:53:49.4       3   -179     -8    180    181 179.0  -2.8  33936  285.78 0855.09
2009/04/23 06:53:49.5       1   -180      7    181    182 179.5   2.3  33936  285.78 0855.09
2009/04/23 06:53:49.6      13   -162      1    163    164 175.1   0.5  33936  285.78 0855.09
2009/04/23 06:53:49.7     -50   -140    -25    149    152 200.0  -9.8  33938  285.82 0855.09
2009/04/23 06:53:49.8     -33   -187    -43    190    195 190.0 -12.9  33934  285.76 0855.09
2009/04/23 06:53:49.9     -30   -168     -7    171    172 190.2  -2.6  33932  285.73 0855.09
2009/04/23 06:53:50.0     -17   -164     17    165    166 186.0   6.1  33934  285.76 0855.09
2009/04/23 06:53:50.1     -58   -146      6    158    159 201.8   2.3  33932  285.73 0855.09
2009/04/23 06:53:50.2     -48   -119    -41    129    135 201.9 -23.8  33936  285.80 0855.09
2009/04/23 06:53:50.3     -50   -133    -63    143    156 200.5 -29.6  33932  285.73 0855.09
2009/04/23 06:53:50.4     -41   -131    -49    138    146 197.4 -24.4  33934  285.75 0855.09
2009/04/23 06:53:50.5     -63   -113    -47    130    138 209.4 -25.3  33932  285.73 0855.09
2009/04/23 06:53:50.6     -61    -70    -49     94    106 221.0 -34.2  33934  285.75 0855.09
2009/04/23 06:53:50.7     -28    -59    -42     66     78 205.5 -39.9  33932  285.73 0855.09
2009/04/23 06:53:50.8      -2    -34    -35     35     49 184.4 -54.5  33934  285.76 0855.09
2009/04/23 06:53:50.9      19    -73    -27     76     80 164.8 -24.4  33930  285.70 0855.09
2009/04/23 06:53:51.0      42    -58     -1     72     73 143.9  -1.3  33934  285.75 0855.09
2009/04/23 06:53:51.1      66    -43     33     79     85 123.3  24.1  33932  285.73 0855.09
2009/04/23 06:53:51.2      70    -98     68    121    138 144.4  31.4  33934  285.75 0855.09
2009/04/23 06:53:51.3      25   -132     47    135    144 169.3  19.4  33932  285.71 0855.09
2009/04/23 06:53:51.4       0   -167     26    168    170 179.8   8.8  33934  285.75 0855.09
2009/04/23 06:53:51.5      27   -135      6    138    139 168.4   2.8  33934  285.76 0855.09
2009/04/23 06:53:51.6      24   -147    -19    150    152 170.7  -7.2  33936  285.78 0855.09
2009/04/23 06:53:51.7      17   -171    -23    172    174 174.0  -7.7  33936  285.78 0855.09
2009/04/23 06:53:51.8      36   -191    -19    195    196 169.3  -5.6  33934  285.76 0855.09
2009/04/23 06:53:51.9      40   -157     -6    163    164 165.5  -2.2  33934  285.75 0855.09
2009/04/23 06:53:52.0     -10   -121    -24    122    125 184.9 -11.3  33928  285.66 0855.09
2009/04/23 06:53:52.1      -9   -126    -16    127    129 184.5  -7.3  33932  285.73 0855.09
2009/04/23 06:53:52.2      10   -136     -8    137    138 175.6  -3.7  33928  285.66 0855.09
2009/04/23 06:53:52.3       9   -127     22    128    131 175.5  10.1  33932  285.73 0855.09
2009/04/23 06:53:52.4      10   -104     50    105    116 174.2  27.2  33932  285.73 0855.09
2009/04/23 06:53:52.5      20   -122     59    124    137 170.3  27.2  33934  285.75 0855.09
2009/04/23 06:53:52.6      16   -115     62    117    132 172.0  29.8  33934  285.75 0855.09
2009/04/23 06:53:52.7       5   -113     73    114    135 177.3  35.6  33934  285.75 0855.09
2009/04/23 06:53:52.8       9   -119     78    120    143 175.5  35.6  33932  285.73 0855.09
2009/04/23 06:53:52.9     -37   -138     67    144    158 195.2  26.6  33932  285.71 0855.09
2009/04/23 06:53:53.0     -55   -127     53    139    148 203.6  22.0  33932  285.71 0855.09
2009/04/23 06:53:53.1     -50   -152     57    161    170 198.5  20.0  33932  285.71 0855.09
2009/04/23 06:53:53.2     -52   -140     65    150    163 200.5  24.6  33930  285.68 0855.10
2009/04/23 06:53:53.3     -91   -130     32    159    163 215.0  11.4  33930  285.70 0855.10
2009/04/23 06:53:53.4    -102   -109     18    150    152 223.3   7.1  33930  285.70 0855.10
2009/04/23 06:53:53.5    -107    -88     -1    139    140 230.4  -0.7  33932  285.71 0855.10
2009/04/23 06:53:53.6     -91    -95      0    132    133 223.7  -0.3  33932  285.71 0855.10
2009/04/23 06:53:53.7     -84    -92     10    125    126 222.3   4.9  33930  285.70 0855.10
2009/04/23 06:53:53.8     -61    -96      8    114    115 212.5   4.4  33930  285.70 0855.10
2009/04/23 06:53:53.9     -62   -105    -11    123    124 210.7  -5.2  33932  285.73 0855.10
2009/04/23 06:53:54.0     -71    -86     -2    112    113 219.7  -1.3  33930  285.70 0855.10
2009/04/23 06:53:54.1     -58    -93    -14    110    111 212.1  -7.3  33930  285.68 0855.10
2009/04/23 06:53:54.2     -48    -86    -13     99    100 209.0  -7.7  33930  285.70 0855.10
2009/04/23 06:53:54.3     -23    -85      1     89     90 195.1   0.8  33932  285.71 0855.10
2009/04/23 06:53:54.4      -8    -92     15     93     95 185.3   9.5  33932  285.71 0855.10
2009/04/23 06:53:54.5       7    -84     54     85    100 174.7  35.5  33930  285.68 0855.10
2009/04/23 06:53:54.6      27   -135     53    138    147 168.4  22.0  33926  285.61 0855.10
2009/04/23 06:53:54.7      67   -160     52    174    182 157.1  16.8  33924  285.58 0855.10
2009/04/23 06:53:54.8      45   -190     47    196    202 166.6  13.7  33926  285.63 0855.10
2009/04/23 06:53:54.9      34   -172     67    176    188 168.7  21.7  33926  285.63 0855.10
2009/04/23 06:53:55.0      48   -171     36    178    182 164.2  11.6  33930  285.68 0855.10
2009/04/23 06:53:55.1      33   -239      2    242    243 172.0   0.5  33930  285.67 0855.10
2009/04/23 06:53:55.2      44   -257      7    261    262 170.3   1.7  33930  285.69 0855.10
2009/04/23 06:53:55.3      46   -198      2    204    205 166.9   0.8  33930  285.68 0855.10
2009/04/23 06:53:55.4      76   -156      8    174    175 153.9   2.8  33928  285.66 0855.10
2009/04/23 06:53:55.5      71   -144    -37    161    166 153.5 -13.2  33930  285.68 0855.10
2009/04/23 06:53:55.6      65   -102    -41    122    129 147.5 -18.7  33930  285.68 0855.10
2009/04/23 06:53:55.7      81   -112    -38    139    145 144.0 -15.5  33928  285.66 0855.10
2009/04/23 06:53:55.8      67    -63    -33     93     98 133.1 -24.4  33930  285.68 0855.10
2009/04/23 06:53:55.9      58    -42    -46     72     85 126.0 -40.0  33928  285.66 0855.10
2009/04/23 06:53:56.0      28    -27    -37     40     54 134.0 -53.4  33926  285.61 0855.10
2009/04/23 06:53:56.1      -1     -8    -49      9     49 191.6 -90.0  33928  285.65 0855.10
2009/04/23 06:53:56.2      -1    -40    -49     41     63 182.7 -59.8  33928  285.65 0855.10
2009/04/23 06:53:56.3     -29    -66    -62     73     95 203.6 -48.7  33928  285.66 0855.10
2009/04/23 06:53:56.4     -31    -94    -50    100    111 198.3 -32.6  33930  285.70 0855.10
2009/04/23 06:53:56.5     -28    -83    -49     88    100 199.2 -35.8  33928  285.66 0855.10
2009/04/23 06:53:56.6     -23    -82    -57     86    103 196.0 -40.9  33928  285.66 0855.10
2009/04/23 06:53:56.8     -37    -96    -37    104    111 201.4 -19.7  33928  285.65 0855.10
2009/04/23 06:53:56.9     -18    -95    -33     97    103 191.1 -18.7  33928  285.65 0855.10
2009/04/23 06:53:57.0     -27    -94    -33     98    104 196.0 -18.7  33930  285.68 0855.10
2009/04/23 06:53:57.2       0    -89    -25     90     94 180.4 -15.5  33926  285.63 0855.10
2009/04/23 06:53:57.2      19    -78    -18     81     84 166.2 -12.9  33928  285.65 0855.11
2009/04/23 06:53:57.3      56    -89    -21    106    109 147.5 -11.5  33930  285.68 0855.11
2009/04/23 06:53:57.5     102   -134     -3    169    170 142.6  -1.3  33926  285.61 0855.11
2009/04/23 06:53:57.5     108   -125    -12    166    167 139.0  -4.4  33924  285.60 0855.11
2009/04/23 06:53:57.7     104    -91    -25    139    142 131.4 -10.3  33924  285.60 0855.11
2009/04/23 06:53:57.8      -5    -77    -58     78     97 184.4 -45.1  33924  285.60 0855.11
2009/04/23 06:53:57.8     -54    -70    -26     89     92 217.8 -21.2  33926  285.61 0855.11
2009/04/23 06:53:57.9     -78    -60    -41     99    107 232.2 -27.5  33928  285.65 0855.11
2009/04/23 06:53:58.0     -85    -71    -34    111    116 230.0 -22.3  33928  285.66 0855.11
2009/04/23 06:53:58.1     -84    -95    -63    127    141 221.4 -32.6  33924  285.58 0855.11
2009/04/23 06:53:58.3     -87    -96    -43    130    136 222.3 -23.8  33926  285.61 0855.11
2009/04/23 06:53:58.4    -103    -88    -44    136    142 229.6 -23.8  33924  285.60 0855.11
2009/04/23 06:53:58.5    -130    -51    -55    140    150 248.3 -27.4  33924  285.58 0855.11
2009/04/23 06:53:58.6     -83    -14    -22     85     88 260.3 -15.0  33924  285.60 0855.11
2009/04/23 06:53:58.6     -48    -48      0     68     69 225.1   0.8  33924  285.60 0855.11
2009/04/23 06:53:58.7     -54    -61     -8     82     83 221.4  -6.2  33924  285.60 0855.11
2009/04/23 06:53:58.9     -50    -63      1     81     82 218.7   0.8  33924  285.60 0855.11
2009/04/23 06:53:59.0     -22    -46      2     52     53 205.4   2.8  33924  285.60 0855.11
2009/04/23 06:53:59.1      11    -23     19     26     32 152.8  39.7  33926  285.63 0855.11
2009/04/23 06:53:59.1       8     -8     22     12     25 133.1  66.8  33924  285.60 0855.11
2009/04/23 06:53:59.2       0    -22      0     23     24 180.9  -2.2  33924  285.60 0855.11
2009/04/23 06:53:59.4     -27    -22     26     36     44 230.5  39.7  33924  285.60 0855.11
2009/04/23 06:53:59.5     -21    -32     41     39     56 214.3  50.1  33926  285.61 0855.11
2009/04/23 06:53:59.5     -43    -33     24     55     60 232.2  25.1  33926  285.61 0855.11
2009/04/23 06:53:59.7     -38      7    -21     39     44 281.4 -35.8  33926  285.63 0855.11
2009/04/23 06:53:59.7     -62      9    -19     63     65 278.8 -22.8  33924  285.58 0855.11
2009/04/23 06:53:59.9     -52    -33    -47     62     77 237.5 -45.1  33924  285.60 0855.11
2009/04/23 06:54:00.0     -42    -24    -46     49     67 240.2 -52.4  33926  285.63 0855.11
2009/04/23 06:54:00.1     -36    -38    -35     53     63 223.2 -40.9  33924  285.60 0855.11
2009/04/23 06:54:00.2     -59    -48    -57     77     95 230.5 -44.5  33926  285.61 0855.11
2009/04/23 06:54:00.3     -54    -70    -66     89    110 217.8 -44.5  33926  285.61 0855.11
2009/04/23 06:54:00.3     -68    -69    -53     98    111 224.5 -35.2  33922  285.55 0855.11
2009/04/23 06:54:00.5     -62    -71    -47     95    105 221.0 -32.6  33924  285.60 0855.11
2009/04/23 06:54:00.6     -67    -32    -62     75     97 244.6 -48.2  33922  285.55 0855.11
2009/04/23 06:54:00.7     -58     -6    -70     59     91 263.9 -60.2  33922  285.56 0855.11
2009/04/23 06:54:00.8     -49      0    -60     50     78 269.2 -59.8  33924  285.60 0855.11
2009/04/23 06:54:00.9     -92     30    -62     97    115 288.4 -39.9  33922  285.56 0855.11
2009/04/23 06:54:01.0     -86    -16    -42     88     97 259.4 -31.6  33924  285.60 0855.11
2009/04/23 06:54:01.1     -98     -6    -14     99    101 266.1  -8.2  33920  285.53 0855.11
2009/04/23 06:54:01.2     -81    -51    -12     96     97 237.6  -7.3  33924  285.60 0855.11
2009/04/23 06:54:01.3     -63    -62    -11     89     90 225.1  -7.3  33922  285.55 0855.11
2009/04/23 06:54:01.4     -66    -54     12     86     87 230.9   8.5  33922  285.56 0855.11
2009/04/23 06:54:01.5     -65    -58     -2     88     89 228.2  -1.8  33924  285.58 0855.11
2009/04/23 06:54:01.6     -52    -65    -22     84     87 218.7 -15.0  33926  285.61 0855.11
2009/04/23 06:54:01.7     -39    -70    -48     81     94 209.0 -38.4  33926  285.61 0855.11
2009/04/23 06:54:01.8      -5    -81    -47     82     94 184.0 -37.3  33924  285.58 0855.11
2009/04/23 06:54:01.9     -21    -55    -48     59     76 200.9 -48.1  33922  285.55 0855.11
2009/04/23 06:54:02.0     -35    -54    -41     65     76 213.4 -39.9  33920  285.53 0855.11
2009/04/23 06:54:02.1     -27    -52    -34     59     68 208.1 -36.8  33924  285.58 0855.11
2009/04/23 06:54:02.2     -18    -45    -32     49     58 202.7 -40.0  33924  285.58 0855.11
2009/04/23 06:54:02.3      -1    -49    -29     50     57 181.8 -37.9  33924  285.58 0855.11
2009/04/23 06:54:02.4      19    -41    -21     46     50 155.5 -31.5  33924  285.60 0855.11
2009/04/23 06:54:02.5       5    -12    -27     14     30 158.2 -75.2  33922  285.55 0855.11
2009/04/23 06:54:02.6       0      0    -12      0     12   0.0 -90.0  33922  285.55 0855.11
2009/04/23 06:54:02.7      31     -6     -9     32     33 101.5 -21.7  33922  285.56 0855.11
2009/04/23 06:54:02.8      50      0     13     51     53  90.0  14.3  33920  285.51 0855.11
2009/04/23 06:54:02.9      34      6     28     35     44  78.5  42.7  33920  285.53 0855.11
2009/04/23 06:54:03.0      41     34     41     54     67  50.5  40.7  33924  285.58 0855.11
2009/04/23 06:54:03.1      17     36     41     40     57  25.4  49.1  33922  285.56 0855.11
2009/04/23 06:54:03.2       5     37     47     38     60   8.0  56.4  33924  285.58 0855.11
2009/04/23 06:54:03.3     -14     46     33     49     59 342.2  37.6  33920  285.53 0855.11
2009/04/23 06:54:03.4     -19     31     24     37     44 327.5  36.5  33922  285.55 0855.11
2009/04/23 06:54:03.5     -34     58     40     68     78 329.3  33.5  33918  285.50 0855.11
2009/04/23 06:54:03.6      -9     59     47     60     76 351.1  42.7  33920  285.51 0855.11
2009/04/23 06:54:03.7      18     54     24     57     61  18.5  23.1  33920  285.53 0855.11
2009/04/23 06:54:03.8     -19     56     -2     60     61 340.8  -2.2  33922  285.55 0855.11
2009/04/23 06:54:03.9      60     38     -1     72     73  57.6  -1.3  33920  285.53 0855.11
2009/04/23 06:54:04.0      53     10    -16     55     57  78.5 -21.7  33924  285.58 0855.11
2009/04/23 06:54:04.1     -48    -19    -33     52     61 248.3 -39.9  33924  285.58 0855.11
2009/04/23 06:54:04.2     -44     -8    -56     45     71 259.4 -60.8  33924  285.60 0855.11
2009/04/23 06:54:04.3      -7    -18    -25     20     32 201.8 -60.8  33928  285.65 0855.11
2009/04/23 06:54:04.4      -7    -21      3     23     24 198.3   9.0  33926  285.61 0855.11
2009/04/23 06:54:04.5     -19    -19     20     27     33 225.1  41.7  33924  285.58 0855.11
2009/04/23 06:54:04.6     -40    -23      2     47     48 240.2   2.9  33924  285.60 0855.11
2009/04/23 06:54:04.7     -70     14     11     72     73 281.5   9.0  33924  285.60 0855.11
2009/04/23 06:54:04.8     -53     29    -26     61     66 298.9 -27.5  33922  285.56 0855.11
2009/04/23 06:54:04.9     -17     26    -41     32     52 327.4 -61.9  33922  285.56 0855.11
2009/04/23 06:54:05.0     -20     -9    -25     23     33 244.7 -54.5  33920  285.53 0855.11
2009/04/23 06:54:05.1     -10    -42    -44     44     62 194.3 -54.5  33922  285.55 0855.11
2009/04/23 06:54:05.2     -10    -32    -98     34    103 198.5 -85.6  33920  285.53 0855.11
2009/04/23 06:54:05.3      78    -17    -54     81     97 102.8 -40.4  33922  285.56 0855.11
2009/04/23 06:54:05.4      78      0    -43     79     89  90.0 -35.2  33926  285.61 0855.11
2009/04/23 06:54:05.5      98      2     -3     99    100  88.3  -1.8  33924  285.58 0855.11
2009/04/23 06:54:05.6     129     18     15    131    132  82.0   6.9  33924  285.58 0855.11
2009/04/23 06:54:05.7      98     19     41    100    108  78.5  23.0  33922  285.56 0855.11
2009/04/23 06:54:05.8      97     26     19    101    103  74.9  11.0  33926  285.61 0855.11
2009/04/23 06:54:05.9      87     28     26     92     96  71.8  16.3  33926  285.63 0855.11
2009/04/23 06:54:06.0      90     30     61     96    113  71.4  35.5  33922  285.56 0855.11
2009/04/23 06:54:06.1      97      0     67     98    118  89.6  37.6  33924  285.60 0855.11
2009/04/23 06:54:06.2      95      0     80     96    124  90.0  43.8  33926  285.61 0855.11
2009/04/23 06:54:06.3      66    -43     48     79     92 123.3  34.4  33924  285.60 0855.12
2009/04/23 06:54:06.4      30    -51     -1     60     61 149.3  -1.2  33922  285.56 0855.12
2009/04/23 06:54:06.5      22    -39    -18     46     49 150.1 -26.4  33922  285.55 0855.12
2009/04/23 06:54:06.6      -7    -32    -23     33     40 193.4 -43.0  33920  285.53 0855.12
2009/04/23 06:54:06.7     -13    -47    -33     49     59 196.0 -42.0  33920  285.53 0855.12
2009/04/23 06:54:06.8       1    -49    -31     50     58 178.2 -39.9  33918  285.50 0855.12
2009/04/23 06:54:06.9       4    -30    -35     31     46 172.0 -57.7  33916  285.44 0855.12
2009/04/23 06:54:07.0      25    -42    -28     49     56 149.3 -37.9  33916  285.44 0855.12
2009/04/23 06:54:07.1      31    -48    -21     58     61 146.6 -24.4  33916  285.44 0855.12
2009/04/23 06:54:07.2      40   -113    -21    121    123 160.4 -10.3  33916  285.46 0855.12
2009/04/23 06:54:07.3      49   -136    -50    145    153 159.9 -23.3  33916  285.44 0855.12
2009/04/23 06:54:07.4      71    -88    -36    114    120 141.3 -17.6  33918  285.48 0855.12
2009/04/23 06:54:07.5      40    -48     11     63     64 140.4  10.1  33916  285.46 0855.12
2009/04/23 06:54:07.6      -3    -38     55     39     67 184.5  60.6  33918  285.48 0855.12
2009/04/23 06:54:07.7     -30   -103     77    108    132 196.5  39.1  33916  285.46 0855.12
2009/04/23 06:54:07.8     -42   -144     75    151    168 196.5  28.2  33922  285.56 0855.12
2009/04/23 06:54:07.9      -6   -139     94    140    168 182.7  37.0  33920  285.51 0855.12
2009/04/23 06:54:08.0     -19   -164     68    166    179 186.7  23.4  33920  285.53 0855.12
2009/04/23 06:54:08.1     -18   -132     94    134    163 188.0  38.4  33920  285.53 0855.12
2009/04/23 06:54:08.2     -30   -128    125    132    181 193.4  48.2  33918  285.50 0855.12
2009/04/23 06:54:08.3     -19   -148     82    150    170 187.6  31.0  33920  285.53 0855.12
2009/04/23 06:54:08.4     -23   -174     56    176    185 187.8  17.9  33920  285.53 0855.12
2009/04/23 06:54:08.5     -32   -150     55    154    163 192.0  20.2  33918  285.48 0855.12
2009/04/23 06:54:08.6     -23   -113     64    116    132 191.6  31.4  33920  285.51 0855.12
2009/04/23 06:54:08.7     -30   -129     36    133    138 193.3  15.2  33920  285.53 0855.12
2009/04/23 06:54:08.8     -45   -148     25    155    158 197.0   9.3  33920  285.53 0855.12
2009/04/23 06:54:08.9     -58   -115     71    129    147 206.7  31.3  33920  285.53 0855.12
2009/04/23 06:54:09.0     -23   -118     58    121    134 191.1  27.3  33922  285.56 0855.12
2009/04/23 06:54:09.1     -21   -155     65    157    169 188.0  23.8  33922  285.55 0855.12
2009/04/23 06:54:09.2     -18   -154     47    156    163 186.7  16.8  33922  285.56 0855.12
2009/04/23 06:54:09.3     -60   -143     61    156    167 202.7  22.3  33918  285.50 0855.12
2009/04/23 06:54:09.4     -73   -114     44    136    143 212.5  17.9  33920  285.53 0855.12
2009/04/23 06:54:09.5     -40   -112     10    120    121 200.0   4.9  33924  285.58 0855.12
2009/04/23 06:54:09.6      -6   -106     52    107    118 183.6  27.8  33922  285.56 0855.12
2009/04/23 06:54:09.7      22   -124     63    127    141 169.8  28.2  33926  285.63 0855.12
2009/04/23 06:54:09.8     -24   -133     57    136    147 190.2  23.6  33922  285.56 0855.12
2009/04/23 06:54:09.9     -40   -105     39    113    120 200.9  19.4  33922  285.56 0855.12
2009/04/23 06:54:10.0     -83    -53     11     99    100 237.6   6.9  33922  285.56 0855.12
2009/04/23 06:54:10.1     -83    -49      8     97     98 239.3   4.9  33920  285.53 0855.12
2009/04/23 06:54:10.2     -54    -26      7     61     62 243.8   6.9  33922  285.55 0855.12
2009/04/23 06:54:10.3     -15    -17     18     23     29 221.4  43.7  33920  285.53 0855.11
2009/04/23 06:54:10.4      24     -6     48     25     54 105.1  71.9  33920  285.53 0855.11
2009/04/23 06:54:10.5      40    -27     64     49     80 124.2  59.0  33924  285.58 0855.11
2009/04/23 06:54:10.6     -14    -38     60     41     72 200.9  62.6  33926  285.63 0855.11
2009/04/23 06:54:10.7       6    -56     66     57     87 173.8  54.3  33922  285.55 0855.11
2009/04/23 06:54:10.8      -5    -69     96     70    118 184.4  60.5  33918  285.48 0855.11
2009/04/23 06:54:10.9       0     10     72     11     72 359.1  90.0  33918  285.50 0855.11
2009/04/23 06:54:11.0     -24      9     84     26     87 291.7  81.8  33926  285.63 0855.11
2009/04/23 06:54:11.1     -59    -43     71     74    102 234.0  49.0  33920  285.53 0855.11
2009/04/23 06:54:11.2     -88      0     55     89    104 270.0  35.5  33920  285.53 0855.11
2009/04/23 06:54:11.3     -61      3     52     62     80 273.5  44.8  33920  285.53 0855.11
2009/04/23 06:54:11.4      -4    -28     24     29     37 189.8  43.8  33920  285.53 0855.11
2009/04/23 06:54:11.5     -42    -49     53     65     83 220.5  43.7  33922  285.56 0855.11
2009/04/23 06:54:11.6     -86    -54     49    102    113 237.5  27.2  33922  285.56 0855.11
2009/04/23 06:54:11.7    -109    -93     40    144    150 229.6  15.8  33922  285.55 0855.11
2009/04/23 06:54:11.8     -73   -111     45    133    141 213.4  18.9  33922  285.55 0855.11
2009/04/23 06:54:11.9     -64   -116     21    133    135 209.0   9.0  33920  285.51 0855.11
2009/04/23 06:54:12.0     -69   -117     16    137    139 210.7   6.9  33922  285.55 0855.11
2009/04/23 06:54:12.1     -35   -117     13    123    124 197.0   6.5  33924  285.60 0855.11
2009/04/23 06:54:12.2       1   -131     55    132    143 179.5  23.1  33924  285.58 0855.11
2009/04/23 06:54:12.3       7   -124     49    125    134 176.4  22.0  33922  285.56 0855.10
2009/04/23 06:54:12.4      23   -136     19    138    140 170.3   8.0  33922  285.55 0855.10
2009/04/23 06:54:12.5     -15   -122     51    123    133 187.1  23.6  33924  285.58 0855.10
2009/04/23 06:54:12.6       0   -133     73    134    152 180.4  31.3  33920  285.53 0855.10
2009/04/23 06:54:12.7     -11   -156     97    157    184 184.4  35.0  33922  285.56 0855.10
2009/04/23 06:54:12.8     -12   -142     83    143    165 184.9  32.9  33922  285.56 0855.10
2009/04/23 06:54:12.9       6   -155     87    156    178 177.8  31.4  33922  285.55 0855.10
2009/04/23 06:54:13.0       1   -151     75    152    169 179.5  28.0  33918  285.50 0855.10
2009/04/23 06:54:13.1      15   -135     64    136    150 173.3  27.1  33920  285.53 0855.10
2009/04/23 06:54:13.2     -45    -84    116     96    150 208.5  56.3  33916  285.46 0855.10
2009/04/23 06:54:13.3     -58    -65     84     88    121 221.9  49.0  33918  285.48 0855.10
2009/04/23 06:54:13.4     -87    -41     67     97    117 244.6  38.0  33916  285.44 0855.10
2009/04/23 06:54:13.5     -80      6     78     81    112 274.4  49.0  33918  285.48 0855.10
2009/04/23 06:54:13.6     -81    -34     20     89     92 246.9  12.6  33918  285.50 0855.10
2009/04/23 06:54:13.7    -106    -27    -65    110    127 255.4 -37.9  33918  285.50 0855.10
2009/04/23 06:54:13.8    -133    -13    -17    134    136 264.3  -7.3  33918  285.50 0855.10
2009/04/23 06:54:13.9    -124     13      1    125    126 276.2   0.8  33920  285.53 0855.10
2009/04/23 06:54:14.0    -116      0    -19    117    119 270.0  -9.4  33918  285.48 0855.10
2009/04/23 06:54:14.1    -109     -9      2    110    111 264.8   1.2  33920  285.53 0855.10
2009/04/23 06:54:14.2    -102    -26    -18    106    108 255.4  -9.8  33918  285.50 0855.10
2009/04/23 06:54:14.3     -76    -55      4     95     96 234.0   2.9  33922  285.55 0855.11
2009/04/23 06:54:14.5     -72     -4     -2     73     74 266.5  -2.2  33918  285.50 0855.11
2009/04/23 06:54:14.6     -74    -35     16     82     84 244.6  11.1  33918  285.50 0855.11
2009/04/23 06:54:14.7     -53      0     19     54     58 270.0  19.4  33916  285.46 0855.11
2009/04/23 06:54:14.8     -57     11     45     59     74 281.4  41.7  33918  285.50 0855.11
2009/04/23 06:54:14.9     -23    -23     56     33     65 225.1  66.8  33918  285.48 0855.11
2009/04/23 06:54:15.0     -26     25     82     37     89 313.3  74.0  33924  285.58 0855.11
2009/04/23 06:54:15.1      10     51     41     53     67  11.5  41.7  33926  285.63 0855.11
2009/04/23 06:54:15.2      14     22     65     27     70  32.6  76.1  33922  285.56 0855.11
2009/04/23 06:54:15.3      74    -28     98     80    126 110.8  56.4  33922  285.55 0855.11
2009/04/23 06:54:15.4      65    -14     94     67    115 102.4  61.1  33924  285.60 0855.11
2009/04/23 06:54:15.5      64     17    117     67    134  74.9  67.2  33922  285.56 0855.11
2009/04/23 06:54:15.6      26    -12     89     29     93 115.3  80.7  33924  285.60 0855.11
2009/04/23 06:54:15.7     105     -7    115    106    156  93.9  52.2  33922  285.56 0855.11
2009/04/23 06:54:15.8      74    -15    101     76    126 101.5  59.4  33922  285.56 0855.11
2009/04/23 06:54:15.9      -1    -11     64     12     65 188.0  90.0  33924  285.58 0855.11
2009/04/23 06:54:16.0      36    -18     60     41     72 117.1  62.6  33924  285.58 0855.11
2009/04/23 06:54:16.1      75      3     73     76    105  87.4  49.4  33926  285.61 0855.11
2009/04/23 06:54:16.2      95      7     79     96    124  85.6  43.7  33922  285.56 0855.11
2009/04/23 06:54:16.3      75    -25     74     80    108 108.6  47.9  33922  285.55 0855.11
2009/04/23 06:54:16.4     109    -39     47    116    125 110.0  23.0  33922  285.55 0855.11
2009/04/23 06:54:16.5     101    -40     38    109    116 111.7  19.4  33920  285.51 0855.11
2009/04/23 06:54:16.6      67    -67     53     95    108 134.9  31.4  33924  285.60 0855.11
2009/04/23 06:54:16.7      58    -75     56     96    111 142.2  32.9  33920  285.51 0855.11
2009/04/23 06:54:16.8      92    -88     69    128    145 133.6  31.3  33920  285.53 0855.11
2009/04/23 06:54:16.9      75    -60     72     97    120 128.6  40.1  33924  285.58 0855.11
2009/04/23 06:54:17.0      47    -44     73     65     97 133.1  53.3  33924  285.58 0855.11
2009/04/23 06:54:17.1      43    -41     68     60     90 133.3  54.3  33924  285.58 0855.11
2009/04/23 06:54:17.2      43    -26     52     51     72 120.7  49.1  33922  285.56 0855.11
2009/04/23 06:54:17.3       3     -3     34      5     34 136.6  90.0  33924  285.58 0855.11
2009/04/23 06:54:17.4     -13     -8     45     16     47 237.6  81.2  33922  285.55 0855.11
2009/04/23 06:54:17.5     -29    -12     30     32     43 246.5  50.0  33922  285.55 0855.11
2009/04/23 06:54:17.6     -43     14     21     46     50 288.4  27.1  33922  285.55 0855.11
2009/04/23 06:54:17.7     -12      8     10     15     18 302.5  35.6  33922  285.56 0855.11
2009/04/23 06:54:17.8       9     30     10     32     34  16.9  17.3  33922  285.55 0855.11
2009/04/23 06:54:17.9     -26     31     27     41     49 319.5  36.5  33924  285.58 0855.11
2009/04/23 06:54:18.0     -51     17     14     55     57 289.1  14.3  33924  285.58 0855.11
2009/04/23 06:54:18.1     -67     17     12     70     72 284.2  10.1  33926  285.61 0855.11
2009/04/23 06:54:18.2     -60      4     21     61     65 274.4  18.9  33922  285.56 0855.11
2009/04/23 06:54:18.3     -25     15     26     30     39 300.7  45.8  33922  285.55 0855.11
2009/04/23 06:54:18.4     -23    -32     42     40     58 216.1  49.1  33924  285.60 0855.11
2009/04/23 06:54:18.5    -125   -197    -36    234    237 212.5  -8.8  33976  286.45 0855.11
2009/04/23 06:54:18.6     -23    -50     71     56     90 205.3  57.5  33922  285.56 0855.11
2009/04/23 06:54:18.7     -23    -95     78     98    125 193.8  42.7  33920  285.53 0855.11
2009/04/23 06:54:18.8     -25    -77     80     82    114 198.5  50.5  33922  285.56 0855.11
2009/04/23 06:54:18.9     -22    -74     80     78    111 196.9  50.1  33922  285.56 0855.11
2009/04/23 06:54:19.0     -25    -97     77    101    127 194.7  41.7  33922  285.55 0855.11
2009/04/23 06:54:19.1     -14    -70     93     72    117 191.5  58.4  33922  285.55 0855.11
2009/04/23 06:54:19.2      -1    -65     70     66     96 181.0  51.2  33922  285.56 0855.11
2009/04/23 06:54:19.3      -7    -82     65     83    105 184.9  42.2  33922  285.55 0855.11
2009/04/23 06:54:19.4     -18    -86     69     88    111 192.0  42.7  33920  285.53 0855.11
2009/04/23 06:54:19.5     -24    -73     70     77    104 198.3  47.9  33924  285.58 0855.11
2009/04/23 06:54:19.6     -17    -66     70     69     98 194.3  50.1  33922  285.56 0855.11
2009/04/23 06:54:19.7     -57    -44     57     73     92 232.2  42.7  33922  285.55 0855.11
2009/04/23 06:54:19.8     -56    -38     49     68     83 235.8  39.7  33920  285.51 0855.11
2009/04/23 06:54:19.9     -50    -69     71     86    111 216.1  43.7  33922  285.55 0855.11
2009/04/23 06:54:20.0     -60    -56     67     83    106 226.9  43.7  33918  285.50 0855.11
2009/04/23 06:54:20.1     -72    -49     66     88    110 235.8  40.7  33918  285.48 0855.11
2009/04/23 06:54:20.2    -111    -43     37    120    126 248.7  17.4  33916  285.46 0855.11
2009/04/23 06:54:20.3    -116    -74      0    138    139 237.5   0.2  33920  285.51 0855.12
2009/04/23 06:54:20.4     -70    -58     32     91     97 230.4  19.4  33918  285.50 0855.12
2009/04/23 06:54:20.5     -40    -39     24     57     61 225.9  23.1  33922  285.56 0855.12
2009/04/23 06:54:20.6     -31    -19     18     37     41 237.6  27.2  33920  285.53 0855.12
2009/04/23 06:54:20.7     -23    -34     35     42     54 214.3  43.8  33922  285.56 0855.12
2009/04/23 06:54:20.8     -22    -29     36     37     51 217.8  50.0  33920  285.53 0855.12
2009/04/23 06:54:20.9     -23    -19     34     31     46 230.5  52.2  33922  285.56 0855.12
2009/04/23 06:54:21.0     -45    -15     22     48     52 251.4  27.1  33922  285.55 0855.12
2009/04/23 06:54:21.1     -37    -12      8     40     41 251.4  12.2  33918  285.50 0855.12
2009/04/23 06:54:21.2     -18     -7     29     20     35 248.3  64.6  33920  285.53 0855.12
2009/04/23 06:54:21.3     -15      7     27     17     31 295.3  64.7  33922  285.55 0855.12
2009/04/23 06:54:21.4     -22      0     25     23     33 270.8  50.1  33920  285.51 0855.12
2009/04/23 06:54:21.5     -14     12     38     19     42 309.5  71.9  33924  285.58 0855.12
2009/04/23 06:54:21.6      -7      3     46      8     46 295.3  90.0  33924  285.58 0855.12
2009/04/23 06:54:21.7     -11      3     43     12     44 288.4  83.9  33922  285.56 0855.12
2009/04/23 06:54:21.8     -54     -6     45     55     71 263.0  43.7  33916  285.46 0855.12
2009/04/23 06:54:21.9     -80    -32     50     87    100 248.3  32.4  33910  285.36 0855.12
2009/04/23 06:54:22.0     -89    -44     37    100    106 243.8  20.4  33914  285.43 0855.12
2009/04/23 06:54:22.1     -78    -40     13     88     89 242.9   8.5  33910  285.36 0855.12
2009/04/23 06:54:22.2     -75    -21     10     79     80 254.1   7.5  33906  285.29 0855.12
2009/04/23 06:54:22.3     -82    -27      5     87     88 251.4   3.8  33904  285.24 0855.11
2009/04/23 06:54:22.4     -81     -8     -3     82     83 264.3  -2.2  33906  285.28 0855.11
2009/04/23 06:54:22.6     -83     27    -11     88     89 288.2  -7.3  33910  285.34 0855.11
2009/04/23 06:54:22.6     -89     37    -20     97    100 292.6 -11.9  33910  285.36 0855.11
2009/04/23 06:54:22.7    -116     26    -46    119    127 282.8 -26.4  33914  285.43 0855.11
2009/04/23 06:54:22.8    -103     26    -29    107    112 284.6 -15.5  33914  285.41 0855.11
2009/04/23 06:54:22.9    -119      5    -39    120    127 272.6 -18.1  33916  285.46 0855.11
2009/04/23 06:54:23.1    -116     30    -33    120    125 284.6 -15.5  33914  285.41 0855.11
2009/04/23 06:54:23.1     -91     28    -12     96     97 287.3  -7.3  33914  285.41 0855.11
2009/04/23 06:54:23.2    -103     33     25    109    112 287.7  13.2  33912  285.38 0855.11
2009/04/23 06:54:23.4    -108     15     38    110    117 277.9  19.4  33910  285.36 0855.11
2009/04/23 06:54:23.5    -112    -17     22    114    117 261.2  11.0  33908  285.33 0855.11
2009/04/23 06:54:23.6     -95      1     21     96     99 270.8  12.6  33910  285.34 0855.11
2009/04/23 06:54:23.6     -81    -32    -60     88    106 248.3 -42.0  33916  285.46 0855.11
2009/04/23 06:54:23.8    -108    -33    -32    114    118 252.7 -20.2  33918  285.50 0855.11
2009/04/23 06:54:23.9    -132    -29      0    136    137 257.6   0.2  33916  285.44 0855.11
2009/04/23 06:54:24.0    -137    -22      1    139    140 260.8   0.8  33910  285.36 0855.11
2009/04/23 06:54:24.1    -137    -22      1    139    140 260.8   0.8  33910  285.36 0855.11
2009/04/23 06:54:24.1    -149    -18     11    151    152 263.0   4.4  33908  285.31 0855.11
2009/04/23 06:54:24.2    -126    -52    -14    137    138 247.4  -6.2  33914  285.41 0855.11
2009/04/23 06:54:24.4    -108    -39    -36    116    122 250.0 -17.5  33914  285.43 0855.11
2009/04/23 06:54:24.4     -89    -53    -21    104    107 238.9 -11.3  33914  285.41 0855.11
2009/04/23 06:54:24.6     -84    -75     -5    113    114 228.2  -2.6  33914  285.41 0855.11
2009/04/23 06:54:24.7     -86    -60    -21    106    109 234.9 -11.3  33914  285.41 0855.11
2009/04/23 06:54:24.8     -89    -54     -4    105    106 238.5  -2.6  33914  285.43 0855.11
2009/04/23 06:54:24.9     -90    -34      3     97     98 249.2   2.3  33914  285.41 0855.11
2009/04/23 06:54:25.0     -83    -53     46     99    109 237.6  27.1  33914  285.43 0855.11
2009/04/23 06:54:25.1     -83    -41     72     93    117 243.8  41.7  33912  285.39 0855.11
2009/04/23 06:54:25.1    -115    -27     32    119    124 256.7  15.2  33912  285.39 0855.11
2009/04/23 06:54:25.3    -106    -34     30    112    117 252.3  15.3  33916  285.44 0855.11
2009/04/23 06:54:25.4    -106    -34     13    112    113 251.8   6.9  33912  285.39 0855.11
2009/04/23 06:54:25.5    -131    -57     -2    143    144 246.5  -1.2  33910  285.34 0855.11
2009/04/23 06:54:25.6     -81    -75     69    111    130 226.9  35.5  33914  285.41 0855.11
2009/04/23 06:54:25.7    -108    -58     57    123    135 241.6  27.1  33916  285.46 0855.11
2009/04/23 06:54:25.8     -77    -37     20     86     89 244.2  13.2  33914  285.41 0855.11
2009/04/23 06:54:25.9     -91    -38      5     99    100 247.4   2.9  33912  285.38 0855.11
2009/04/23 06:54:26.0     -99    -11     44    100    109 263.4  25.7  33910  285.34 0855.11
2009/04/23 06:54:26.0    -114     -1     43    115    122 269.1  21.0  33910  285.34 0855.11
2009/04/23 06:54:26.2    -141     24     24    144    146 279.6   9.5  33906  285.29 0855.11
2009/04/23 06:54:26.3    -159     23     28    161    164 278.4  10.1  33908  285.31 0855.11
2009/04/23 06:54:26.4    -127    -17     45    129    137 262.1  19.4  33916  285.44 0855.11
2009/04/23 06:54:26.5    -115    -15     22    116    119 262.5  11.1  33914  285.43 0855.11
2009/04/23 06:54:26.6    -103    -19     10    105    106 259.4   5.9  33912  285.39 0855.11
2009/04/23 06:54:26.7    -103    -16     36    105    112 260.8  18.9  33912  285.39 0855.11
2009/04/23 06:54:26.8     -89    -10     10     90     91 263.4   6.9  33912  285.39 0855.11
2009/04/23 06:54:26.9     -84      6     12     85     86 274.4   8.5  33916  285.44 0855.11
2009/04/23 06:54:27.0     -67      8     -1     68     69 277.0  -1.2  33912  285.39 0855.11
2009/04/23 06:54:27.1     -86      9     -3     87     88 276.6  -2.6  33914  285.41 0855.11
2009/04/23 06:54:27.2    -127     19     13    129    130 278.8   5.9  33918  285.50 0855.11
2009/04/23 06:54:27.3    -147     29      6    150    151 281.5   2.3  33916  285.46 0855.11
2009/04/23 06:54:27.4    -100     72     29    124    128 306.0  13.2  33914  285.41 0855.10
2009/04/23 06:54:27.5    -105     57     28    120    124 298.9  13.1  33914  285.41 0855.10
2009/04/23 06:54:27.6    -106     64     -8    124    125 301.1  -3.7  33918  285.48 0855.10
2009/04/23 06:54:27.7    -101     21    -28    104    108 281.9 -15.4  33912  285.39 0855.10
2009/04/23 06:54:27.8    -109     43    -28    118    122 291.7 -13.4  33910  285.36 0855.10
2009/04/23 06:54:27.9    -114     37    -36    120    126 288.2 -16.6  33910  285.36 0855.10
2009/04/23 06:54:28.0     -91      0    -34     92     98 270.0 -25.9  33912  285.39 0855.10
2009/04/23 06:54:28.1     -95     -7     -5     96     97 265.6  -3.1  33908  285.33 0855.10
2009/04/23 06:54:28.2     -90    -20     20     93     96 257.2  12.6  33914  285.41 0855.10
2009/04/23 06:54:28.3    -117      0     37    118    124 270.0  17.4  33914  285.41 0855.10
2009/04/23 06:54:28.4    -148     39     52    154    163 285.1  18.9  33912  285.38 0855.10
2009/04/23 06:54:28.5    -117     35     54    123    134 286.9  25.1  33912  285.39 0855.10
2009/04/23 06:54:28.6    -119     74     48    141    150 302.0  18.9  33910  285.34 0855.10
2009/04/23 06:54:28.7    -146     15     18    147    149 276.1   7.1  33916  285.44 0855.10
2009/04/23 06:54:28.8    -148     17     38    149    154 276.6  14.3  33916  285.44 0855.10
2009/04/23 06:54:28.9    -142     -2     63    143    156 269.2  25.2  33918  285.48 0855.10
2009/04/23 06:54:29.0    -176     39     60    181    191 282.6  18.6  33910  285.36 0855.10
2009/04/23 06:54:29.1    -166     32     55    170    179 281.0  18.1  33912  285.38 0855.10
2009/04/23 06:54:29.2    -162      1     83    163    182 270.4  29.3  33914  285.43 0855.10
2009/04/23 06:54:29.3    -154     62     61    167    177 292.0  21.0  33912  285.39 0855.10
2009/04/23 06:54:29.4    -125     19     77    127    148 278.8  34.4  33916  285.46 0855.10
2009/04/23 06:54:29.5     -67    -13    103     69    123 258.5  63.2  33918  285.50 0855.10
2009/04/23 06:54:29.6     -84     40     91     94    130 295.8  49.4  33914  285.43 0855.10
2009/04/23 06:54:29.7    -124     17     71    126    144 277.9  31.4  33916  285.44 0855.10
2009/04/23 06:54:29.8    -148    -20     71    150    165 262.0  27.0  33916  285.44 0855.10
2009/04/23 06:54:29.9    -178    -13     38    179    184 265.7  12.0  33910  285.36 0855.10
2009/04/23 06:54:30.0    -168     32      7    172    173 280.8   2.5  33904  285.24 0855.10
2009/04/23 06:54:30.1    -162     38     12    167    168 283.3   4.4  33904  285.24 0855.10
2009/04/23 06:54:30.2    -170     10     46    171    178 273.5  15.0  33900  285.18 0855.10
2009/04/23 06:54:30.3    -151    -11     62    152    164 265.6  23.4  33902  285.23 0855.10
2009/04/23 06:54:30.4    -128    -45     73    136    154 250.5  30.8  33904  285.26 0855.10
2009/04/23 06:54:30.5    -139      4     53    140    149 271.7  21.0  33906  285.28 0855.10
2009/04/23 06:54:30.6    -154      0     66    155    168 270.0  24.3  33906  285.29 0855.10
2009/04/23 06:54:30.7    -151     -2     76    152    169 269.1  28.5  33902  285.23 0855.10
2009/04/23 06:54:30.8    -127    -20     82    129    152 260.8  35.5  33908  285.33 0855.10
2009/04/23 06:54:30.9    -111     17     46    113    122 278.8  23.0  33904  285.26 0855.10
2009/04/23 06:54:31.0    -105     32     45    110    118 287.3  23.1  33906  285.29 0855.10
2009/04/23 06:54:31.1    -150     15     39    151    157 276.1  14.7  33904  285.26 0855.10
2009/04/23 06:54:31.2    -158     32     27    162    165 281.5   9.5  33898  285.16 0855.10
2009/04/23 06:54:31.3    -220     23     27    222    224 276.1   7.1  33906  285.29 0855.10
2009/04/23 06:54:31.4    -186    -92     92    208    227 243.6  25.3  33910  285.36 0855.09
2009/04/23 06:54:31.5    -134    -56     92    146    172 247.4  35.5  33918  285.50 0855.09
2009/04/23 06:54:31.6    -132    -35     66    137    152 255.0  27.3  33910  285.34 0855.09
2009/04/23 06:54:31.7     -76    -15     70     78    104 258.6  46.9  33916  285.46 0855.09
2009/04/23 06:54:31.8     -24      0     65     25     69 270.0  78.2  33920  285.51 0855.09
2009/04/23 06:54:31.9     -13     21     53     26     59 327.5  72.9  33922  285.55 0855.09
2009/04/23 06:54:32.0     -30     23     75     39     84 307.8  70.4  33920  285.51 0855.09
2009/04/23 06:54:32.1     -40     33     72     52     88 309.5  60.5  33920  285.51 0855.09
2009/04/23 06:54:32.2     -43     33     66     55     85 307.8  55.8  33916  285.44 0855.09
2009/04/23 06:54:32.3     -45     39     62     60     86 311.3  50.1  33916  285.44 0855.09
2009/04/23 06:54:32.4     -67    -48     35     83     90 234.1  24.6  33912  285.39 0855.09
2009/04/23 06:54:32.5     -70    -76     52    104    116 222.3  28.2  33916  285.44 0855.09
2009/04/23 06:54:32.6     -22    -74     61     78     99 196.9  42.2  33914  285.43 0855.09
2009/04/23 06:54:32.7     -58    -80     69    100    121 216.1  37.6  33914  285.41 0855.09
2009/04/23 06:54:32.8     -63    -63     58     90    107 225.0  35.6  33914  285.41 0855.09
2009/04/23 06:54:32.9     -69    -64     81     95    124 226.9  45.4  33916  285.44 0855.09
2009/04/23 06:54:33.0     -54    -57     82     79    113 223.2  50.7  33914  285.43 0855.09
2009/04/23 06:54:33.1     -95    -42     53    105    117 246.0  28.7  33908  285.31 0855.09
2009/04/23 06:54:33.2    -105    -48     42    116    123 245.2  20.9  33908  285.31 0855.09
2009/04/23 06:54:33.3     -32    -46     82     57     99 215.2  61.5  33912  285.38 0855.09
2009/04/23 06:54:33.4     -25    -45     70     52     87 209.0  59.4  33914  285.43 0855.09
2009/04/23 06:54:33.5     -52    -68     43     86     96 217.8  28.2  33914  285.41 0855.09
2009/04/23 06:54:33.6     -37    -62     51     73     89 210.7  38.6  33918  285.48 0855.09
2009/04/23 06:54:33.7      -3    -66     69     67     96 182.7  50.1  33918  285.50 0855.09
2009/04/23 06:54:33.8     -32    -77     69     84    108 202.7  43.7  33920  285.53 0855.09
2009/04/23 06:54:33.9     -43    -92     70    102    123 205.4  37.6  33918  285.50 0855.09
2009/04/23 06:54:34.0     -46    -99     50    110    120 204.9  26.2  33916  285.46 0855.09
2009/04/23 06:54:34.1     -31    -95     75    101    125 198.5  40.1  33916  285.44 0855.09
2009/04/23 06:54:34.2     -56    -95     73    111    132 210.7  36.0  33918  285.48 0855.09
2009/04/23 06:54:34.3     -41    -64     78     77    109 212.6  49.7  33916  285.46 0855.09
2009/04/23 06:54:34.4     -45    -69    108     83    136 213.0  58.5  33916  285.46 0855.09
2009/04/23 06:54:34.5     -60    -51     72     79    106 229.6  47.9  33918  285.50 0855.09
2009/04/23 06:54:34.6     -76    -19     60     79     99 255.8  40.7  33914  285.43 0855.09
2009/04/23 06:54:34.7     -57    -11     38     59     70 258.5  35.6  33914  285.41 0855.09
2009/04/23 06:54:34.8     -52     -4     40     53     66 265.6  40.7  33914  285.43 0855.09
2009/04/23 06:54:34.9     -71    -11     44     72     84 261.2  35.0  33910  285.34 0855.09
2009/04/23 06:54:35.0     -78    -15     24     80     84 258.5  17.3  33910  285.34 0855.09
2009/04/23 06:54:35.1     -81     15     52     83     97 280.6  35.5  33912  285.38 0855.09
2009/04/23 06:54:35.2     -64    -16     37     66     75 255.8  31.4  33910  285.36 0855.09
2009/04/23 06:54:35.3     -37     -4     50     38     62 263.9  58.5  33910  285.34 0855.09
2009/04/23 06:54:35.4     -31    -13     43     34     54 246.5  57.5  33912  285.38 0855.08
2009/04/23 06:54:35.5     -24    -15     51     29     58 237.5  66.8  33910  285.36 0855.08
2009/04/23 06:54:35.6     -90    -30     41     95    103 251.4  24.6  33910  285.36 0855.08
2009/04/23 06:54:35.7     -83    -42     57     94    109 242.9  34.4  33912  285.39 0855.08
2009/04/23 06:54:35.8     -19    -55     74     59     94 199.2  57.5  33914  285.43 0855.08
2009/04/23 06:54:35.9      -6    -31     71     32     77 191.5  74.0  33920  285.53 0855.08
2009/04/23 06:54:36.0       0    -43     64     44     77 180.9  62.6  33922  285.56 0855.08
2009/04/23 06:54:36.1      -5    -40     74     41     84 188.0  68.3  33922  285.56 0855.08
2009/04/23 06:54:36.2      11    -12     58     17     60 136.8  84.8  33922  285.56 0855.08
2009/04/23 06:54:36.3      12    -14     46     19     49 140.4  77.1  33918  285.48 0855.08
2009/04/23 06:54:36.4      19    -19     52     27     58 135.0  70.8  33916  285.44 0855.08
2009/04/23 06:54:36.5      32     15     44     36     56  64.6  56.4  33916  285.44 0855.08
2009/04/23 06:54:36.6      15     32     34     36     49  25.4  50.0  33918  285.50 0855.08
2009/04/23 06:54:36.7     -16      5     49     17     51 288.2  81.2  33916  285.44 0855.08
2009/04/23 06:54:36.8     -49      0     51     50     71 270.0  50.1  33910  285.36 0855.08
2009/04/23 06:54:36.9     -58      4     57     59     82 274.3  49.4  33910  285.34 0855.08
2009/04/23 06:54:37.0     -48    -29     58     57     81 238.5  50.1  33910  285.34 0855.08
2009/04/23 06:54:37.1     -43    -43     44     62     76 225.1  39.5  33910  285.34 0855.08
2009/04/23 06:54:37.2     -28    -85     -7     90     91 198.7  -4.6  33916  285.46 0855.08
2009/04/23 06:54:37.3       5    -53     57     54     78 174.7  51.6  33912  285.39 0855.08
2009/04/23 06:54:37.4       5    -65    106     66    124 175.5  64.7  33912  285.39 0855.08
2009/04/23 06:54:37.5     -26    -81     94     86    127 197.8  52.7  33922  285.56 0855.08
2009/04/23 06:54:37.6     -56    -83    111    101    150 213.8  52.7  33924  285.58 0855.08
2009/04/23 06:54:37.7     -12    -82     95     83    126 188.5  54.3  33924  285.58 0855.08
2009/04/23 06:54:37.8     -28   -141     92    144    170 191.5  35.6  33924  285.60 0855.08
2009/04/23 06:54:37.9     -49   -136    103    145    177 200.1  39.1  33916  285.46 0855.08
2009/04/23 06:54:38.0     -19   -141     95    143    171 188.0  36.7  33926  285.63 0855.08
2009/04/23 06:54:38.1      -7   -129     73    130    149 183.1  31.4  33924  285.58 0855.08
2009/04/23 06:54:38.2     -35   -102    107    109    152 199.2  50.0  33918  285.50 0855.08
2009/04/23 06:54:38.3     -39   -116     78    123    145 198.7  35.5  33920  285.51 0855.08
2009/04/23 06:54:38.4      -5   -100     49    101    112 183.1  27.3  33914  285.41 0855.08
2009/04/23 06:54:38.5      -5    -77     61     78     99 184.4  42.2  33916  285.44 0855.08
2009/04/23 06:54:38.6       0    -89     55     90    105 179.5  35.0  33918  285.48 0855.08
2009/04/23 06:54:38.7      -7   -112     33    113    118 184.0  16.3  33918  285.48 0855.08
2009/04/23 06:54:38.9      -1    -86     65     87    108 180.9  40.7  33908  285.31 0855.08
2009/04/23 06:54:38.9       0    -90     67     91    113 180.4  40.1  33904  285.26 0855.08
2009/04/23 06:54:39.0     -35   -116     65    122    138 197.0  30.8  33910  285.34 0855.08
2009/04/23 06:54:39.1     -31   -128     89    132    159 193.8  37.3  33916  285.44 0855.08
2009/04/23 06:54:39.2      -9    -76    105     77    130 187.1  60.5  33916  285.46 0855.08
2009/04/23 06:54:39.3     -36   -111    110    117    160 198.3  48.2  33922  285.55 0855.08
2009/04/23 06:54:39.4     -30    -96     98    101    140 197.4  49.0  33918  285.50 0855.09
2009/04/23 06:54:39.5     -49   -107    106    118    158 204.9  46.9  33912  285.39 0855.09
2009/04/23 06:54:39.6     -30    -49     84     58    102 211.6  61.5  33910  285.34 0855.09
2009/04/23 06:54:39.7     -27    -45     61     53     80 211.6  54.3  33910  285.36 0855.09
2009/04/23 06:54:39.8      -2    -42     31     43     53 182.7  39.7  33910  285.34 0855.09
2009/04/23 06:54:39.9       0    -15     32     16     35 179.1  72.8  33906  285.29 0855.09
2009/04/23 06:54:40.0       4     -5     24      7     25 140.4  82.8  33908  285.31 0855.09
2009/04/23 06:54:40.1      -6     -1     26      7     26 258.5  84.9  33910  285.34 0855.09
2009/04/23 06:54:40.2      -9     -1     28     10     29 258.5  81.2  33908  285.31 0855.09
2009/04/23 06:54:40.3     -21      0     32     22     38 272.6  62.6  33906  285.29 0855.09
2009/04/23 06:54:40.4     -41    -56     33     70     77 216.1  27.1  33914  285.41 0855.09
2009/04/23 06:54:40.5     -67    -32     38     75     84 244.7  28.7  33918  285.48 0855.09
2009/04/23 06:54:40.6     -60    -23     29     65     71 249.2  26.2  33916  285.46 0855.09
2009/04/23 06:54:40.7     -67      0     34     68     76 270.8  28.2  33910  285.36 0855.09
2009/04/23 06:54:40.8     -77     45     38     90     97 300.7  24.1  33912  285.38 0855.09
2009/04/23 06:54:40.9     -69     58     51     91    104 310.0  31.9  33912  285.39 0855.09
2009/04/23 06:54:41.0     -71     82     50    109    119 319.0  26.2  33916  285.46 0855.09
2009/04/23 06:54:41.1     -53     99     48    113    122 331.9  24.1  33912  285.39 0855.09
2009/04/23 06:54:41.2     -40     74     49     85     98 331.9  32.9  33912  285.39 0855.09
2009/04/23 06:54:41.3     -41     63     53     76     92 326.6  38.0  33916  285.44 0855.09
2009/04/23 06:54:41.4     -50     79     44     94    103 327.4  27.1  33916  285.44 0855.09
2009/04/23 06:54:41.5     -45     74     43     87     97 328.8  27.8  33912  285.38 0855.09
2009/04/23 06:54:41.6     -48     68     45     84     95 324.8  30.3  33912  285.39 0855.09
2009/04/23 06:54:41.7     -68     51     30     86     92 306.9  19.4  33910  285.36 0855.09
2009/04/23 06:54:41.8     -74     44     25     87     91 301.1  16.3  33910  285.36 0855.09
2009/04/23 06:54:41.9     -91     50     20    104    107 298.8  11.1  33912  285.39 0855.09
2009/04/23 06:54:42.0     -86     47     34     99    105 298.8  19.4  33928  285.65 0855.09
2009/04/23 06:54:42.1     -80     50     42     95    103 302.4  25.1  33932  285.73 0855.09
2009/04/23 06:54:42.2     -52     59     36     80     87 318.6  25.7  33932  285.71 0855.09
2009/04/23 06:54:42.3     -72     54     48     90    102 306.9  30.8  33926  285.61 0855.09
2009/04/23 06:54:42.4     -63     40     39     75     84 302.5  29.8  33924  285.60 0855.09
2009/04/23 06:54:42.5     -42     26     38     50     62 302.4  41.7  33918  285.48 0855.09
2009/04/23 06:54:42.6     -63     15     17     65     68 284.2  15.3  33922  285.55 0855.09
2009/04/23 06:54:42.7     -67     25     22     72     76 290.8  17.3  33924  285.60 0855.09
2009/04/23 06:54:42.8     -52     40     24     66     70 307.8  20.0  33950  286.03 0855.09
2009/04/23 06:54:42.9     -53     52     31     75     81 314.1  23.6  33950  286.02 0855.09
2009/04/23 06:54:43.0     -60     73     33     95    101 320.4  19.4  33942  285.88 0855.09
2009/04/23 06:54:43.1     -75     90      2    118    119 320.4   1.2  33934  285.75 0855.09
2009/04/23 06:54:43.2     -74     66     11    100    101 311.8   6.5  33932  285.71 0855.09
2009/04/23 06:54:43.3     -78     49      4     93     94 302.4   2.9  33928  285.66 0855.09
2009/04/23 06:54:43.4     -69     41     24     81     85 301.1  16.8  33928  285.65 0855.09
2009/04/23 06:54:43.5    -101     32     21    106    109 287.7  11.1  33922  285.56 0855.09
2009/04/23 06:54:43.6    -118     51     31    129    133 293.6  13.7  33950  286.03 0855.09
2009/04/23 06:54:43.7    -132     53     22    143    145 291.8   9.0  33964  286.27 0855.09
2009/04/23 06:54:43.8    -112     37     -6    119    120 288.6  -3.1  33948  286.00 0855.09
2009/04/23 06:54:43.9    -115     16     22    117    120 277.9  10.6  33978  286.49 0855.09
2009/04/23 06:54:44.0     -92     37     18    100    102 292.2  10.6  33964  286.25 0855.09
2009/04/23 06:54:44.1     -43     36     32     57     65 309.5  31.4  33954  286.10 0855.09
2009/04/23 06:54:44.2     -54     39     39     67     77 306.0  33.5  33944  285.93 0855.09
2009/04/23 06:54:44.3     -69     33     15     77     79 295.4  11.6  33946  285.97 0855.09
2009/04/23 06:54:44.4     -47     30      2     56     57 302.4   2.9  33944  285.92 0855.09
2009/04/23 06:54:44.5     -52     25     43     58     72 296.2  39.7  33920  285.53 0855.09
2009/04/23 06:54:44.6     -39     42     16     58     61 316.6  15.3  33940  285.87 0855.09
2009/04/23 06:54:44.7     -41     29     26     51     57 306.0  28.2  33938  285.82 0855.09
2009/04/23 06:54:44.8     -56     35     29     67     73 302.4  25.1  33956  286.12 0855.09
2009/04/23 06:54:44.9     -64     57     21     87     90 311.8  13.7  33934  285.76 0855.09
2009/04/23 06:54:45.0     -51     58     35     78     85 318.6  25.7  33944  285.92 0855.09
2009/04/23 06:54:45.1     -76     25     33     81     87 288.2  23.0  33926  285.63 0855.09
2009/04/23 06:54:45.2     -83     27      2     88     89 288.2   1.8  33926  285.61 0855.09
2009/04/23 06:54:45.3     -63     15     32     65     72 284.2  27.3  33932  285.71 0855.09
2009/04/23 06:54:45.4     -66      0     37     67     76 270.8  31.4  33920  285.53 0855.08
2009/04/23 06:54:45.5     -89    -19     40     92    100 257.6  25.1  33912  285.39 0855.08
2009/04/23 06:54:45.6     -98    -22     35    101    107 257.2  19.2  33912  285.39 0855.08
2009/04/23 06:54:45.7     -82    -14     40     84     93 260.3  27.2  33928  285.66 0855.08
2009/04/23 06:54:45.8     -92    -30     58     97    113 251.8  34.0  33946  285.95 0855.08
2009/04/23 06:54:45.9     -99    -39     53    107    119 248.3  28.7  33932  285.71 0855.08
2009/04/23 06:54:46.0     -97    -46     24    108    111 244.7  12.6  33934  285.76 0855.08
2009/04/23 06:54:46.1     -64    -46     37     80     88 234.1  26.2  33954  286.10 0855.08
2009/04/23 06:54:46.2     -60    -60     58     85    102 225.0  37.6  33962  286.22 0855.08
2009/04/23 06:54:46.3     -55    -83     44    100    109 213.8  25.7  33952  286.07 0855.08
2009/04/23 06:54:46.4     -45    -40      7     61     62 227.8   6.9  33938  285.82 0855.09
2009/04/23 06:54:46.5      -5    -48     24     49     54 186.2  27.2  33956  286.12 0855.09
2009/04/23 06:54:46.6      33    -33     35     47     58 135.0  40.7  33960  286.19 0855.09
2009/04/23 06:54:46.7      57    -18     35     60     69 108.2  33.5  33962  286.24 0855.09
2009/04/23 06:54:46.8      82    -14     33     84     90  99.7  22.0  33970  286.37 0855.09
2009/04/23 06:54:46.9      75      3     53     76     92  87.4  38.0  33996  286.79 0855.09
2009/04/23 06:54:47.0      70     -5     41     71     81  94.3  32.9  34000  286.86 0855.09
2009/04/23 06:54:47.1      81    -11     57     82     99  98.4  38.6  34014  287.10 0855.09
2009/04/23 06:54:47.2      49     25     70     56     89  62.9  56.9  34022  287.25 0855.09
2009/04/23 06:54:47.3      54     18     70     57     90  71.6  56.4  34028  287.33 0855.09
2009/04/23 06:54:47.4      24      4     57     25     62  80.3  75.0  34014  287.10 0855.09
2009/04/23 06:54:47.5       0     -2     35      3     35 161.5  90.0  34014  287.10 0855.09
2009/04/23 06:54:47.6       0     11     24     12     26 355.5  70.8  34008  287.01 0855.09
2009/04/23 06:54:47.7       0     -6     28      7     28 175.5  84.9  34008  287.01 0855.09
2009/04/23 06:54:47.8      -2    -20     30     21     36 188.0  62.6  34010  287.05 0855.09
2009/04/23 06:54:47.9     -27    -37     53     47     70 216.1  53.3  34010  287.05 0855.09
2009/04/23 06:54:48.0     -60    -49     42     78     88 230.5  30.8  33994  286.76 0855.09
2009/04/23 06:54:48.1     -26    -68     55     73     91 200.9  41.2  33970  286.35 0855.09
2009/04/23 06:54:48.2      57     -7     62     58     84  97.9  51.6  33948  285.98 0855.09
2009/04/23 06:54:48.3      -6    -31     70     32     76 191.6  73.1  33936  285.78 0855.09
2009/04/23 06:54:48.4     -22   -108     82    111    138 191.5  40.1  33922  285.56 0855.09
2009/04/23 06:54:48.5     -33   -142    141    146    202 193.3  49.2  33926  285.61 0855.09
2009/04/23 06:54:48.6     -31   -174    167    177    243 190.2  48.5  33926  285.63 0855.09
2009/04/23 06:54:48.7     -27   -157    140    160    212 189.8  45.8  33926  285.63 0855.09
2009/04/23 06:54:48.8     -59   -115    105    130    167 207.2  43.5  33924  285.58 0855.09
2009/04/23 06:54:48.9    -104   -106     37    149    154 224.5  13.9  33920  285.53 0855.09
2009/04/23 06:54:49.0    -113    -94     50    148    157 230.4  18.6  33916  285.44 0855.09
2009/04/23 06:54:49.1     -97    -91     51    134    143 226.9  21.5  33904  285.26 0855.09
2009/04/23 06:54:49.2     -57    -83     77    101    127 214.7  41.7  33914  285.41 0855.09
2009/04/23 06:54:49.3     -76   -135    100    155    184 209.4  35.6  33922  285.56 0855.09
2009/04/23 06:54:49.4     -37   -138    100    144    175 195.2  38.0  33926  285.63 0855.09
2009/04/23 06:54:49.6     -24   -133    104    136    171 190.2  41.4  33930  285.68 0855.09
2009/04/23 06:54:49.6     -22   -109     98    112    148 191.6  45.8  33928  285.66 0855.09
2009/04/23 06:54:49.8     -37   -119     63    125    139 197.4  29.2  33930  285.68 0855.09
2009/04/23 06:54:49.8      -8   -113    106    114    155 184.4  47.9  33928  285.66 0855.09
2009/04/23 06:54:49.9     -37   -157     90    162    185 193.4  31.4  33930  285.68 0855.09
2009/04/23 06:54:50.1     -60   -171     74    182    196 199.4  23.4  33926  285.63 0855.09
2009/04/23 06:54:50.2     -82   -194    115    211    240 202.9  31.0  33928  285.66 0855.09
2009/04/23 06:54:50.2     -76   -158    128    176    217 205.6  39.7  33932  285.71 0855.09
2009/04/23 06:54:50.3     -61   -128    108    142    178 205.5  41.2  33930  285.68 0855.09
2009/04/23 06:54:50.5     -47   -117    109    127    167 201.8  45.1  33930  285.70 0855.10
2009/04/23 06:54:50.6     -33    -99     84    105    134 198.5  43.3  33926  285.61 0855.10
2009/04/23 06:54:50.6      62    -15     68     64     93 104.2  51.2  33926  285.63 0855.10
2009/04/23 06:54:50.7      36    -94     82    101    130 158.6  43.7  33930  285.70 0855.10
2009/04/23 06:54:50.8      36   -110     82    116    142 161.7  39.5  33928  285.65 0855.10
2009/04/23 06:54:51.0      21    -65     73     69    100 161.7  52.1  33926  285.61 0855.10
2009/04/23 06:54:51.1     -12    -38     59     41     71 198.5  61.5  33928  285.65 0855.10
2009/04/23 06:54:51.2     -24      4     35     25     43 279.7  60.5  33928  285.66 0855.10
2009/04/23 06:54:51.2     -25    -30     45     40     60 219.6  53.3  33928  285.65 0855.10
2009/04/23 06:54:51.4      16    -80     49     82     95 168.4  34.4  33930  285.68 0855.10
2009/04/23 06:54:51.4      32    -93     34     99    105 160.8  19.4  33930  285.70 0855.10
2009/04/23 06:54:51.6      45    -95     51    106    117 154.5  27.2  33926  285.63 0855.10
2009/04/23 06:54:51.7      56    -95     47    111    120 149.3  24.6  33926  285.63 0855.10
2009/04/23 06:54:51.8      46    -82     41     95    103 150.6  24.6  33924  285.60 0855.10
2009/04/23 06:54:51.8      51    -73     42     90     99 145.3  27.1  33926  285.63 0855.10
2009/04/23 06:54:52.0      28    -83     74     88    114 161.3  43.8  33926  285.61 0855.10
2009/04/23 06:54:52.1      79   -154     70    174    187 152.8  23.0  33932  285.71 0855.10
2009/04/23 06:54:52.1      37   -143    100    148    178 165.3  37.3  33930  285.70 0855.10
2009/04/23 06:54:52.3      42   -116    102    124    160 159.9  43.7  33928  285.66 0855.10
2009/04/23 06:54:52.4      52   -131     97    142    171 158.2  37.6  33928  285.66 0855.10
2009/04/23 06:54:52.5      75    -91     91    119    149 140.4  41.6  33928  285.65 0855.09
2009/04/23 06:54:52.6      23   -138     90    141    167 170.2  35.5  33928  285.65 0855.09
2009/04/23 06:54:52.7      -1   -139     86    140    164 180.5  34.8  33928  285.65 0855.09
2009/04/23 06:54:52.8      17   -130     81    132    154 172.4  35.5  33928  285.65 0855.09
2009/04/23 06:54:52.9     -19   -110     56    112    125 190.2  28.7  33926  285.63 0855.09
2009/04/23 06:54:53.0     -28    -87     41     92    100 198.3  25.7  33926  285.61 0855.09
2009/04/23 06:54:53.1     -27   -102     40    106    113 195.1  21.5  33926  285.61 0855.09
2009/04/23 06:54:53.2      10   -118     46    119    127 175.1  22.0  33926  285.63 0855.09
2009/04/23 06:54:53.3      17   -145     78    146    165 173.3  30.6  33926  285.63 0855.09
2009/04/23 06:54:53.4      -4   -149    102    150    181 181.8  37.6  33932  285.71 0855.09
2009/04/23 06:54:53.5      29   -163     57    166    176 169.8  19.2  33930  285.70 0855.09
2009/04/23 06:54:53.6      12   -141     50    142    151 175.1  19.4  33930  285.68 0855.09
2009/04/23 06:54:53.7       4   -129     48    130    138 178.2  21.0  33928  285.65 0855.09
2009/04/23 06:54:53.8       0   -113     55    114    126 179.5  27.3  33930  285.68 0855.09
2009/04/23 06:54:53.9       8   -112     61    113    128 175.6  30.8  33930  285.68 0855.09
2009/04/23 06:54:54.0     -13   -126      0    127    128 186.2   0.2  33930  285.68 0855.09
2009/04/23 06:54:54.1     -11    -85    -25     86     90 188.0 -16.6  33926  285.63 0855.09
2009/04/23 06:54:54.2     -11    -95     -3     96     97 186.7  -1.8  33928  285.65 0855.09
2009/04/23 06:54:54.3       8    -94     15     95     97 175.1   9.0  33926  285.61 0855.09
2009/04/23 06:54:54.4       5   -105     40    106    113 176.9  21.5  33928  285.66 0855.09
2009/04/23 06:54:54.5      10    -82     30     83     88 172.9  20.0  33928  285.66 0855.10
2009/04/23 06:54:54.6      25    -63     40     68     78 158.2  33.5  33932  285.71 0855.10
2009/04/23 06:54:54.7      32    -55      9     64     65 149.3   8.0  33926  285.63 0855.10
2009/04/23 06:54:54.8      15    -49      6     52     53 162.2   6.9  33928  285.66 0855.10
2009/04/23 06:54:54.9      20    -62     -1     66     67 161.7  -1.2  33930  285.68 0855.10
2009/04/23 06:54:55.0       0    -76      3     77     78 180.0   2.9  33926  285.63 0855.10
2009/04/23 06:54:55.1      -9    -63      7     64     65 188.1   6.9  33928  285.65 0855.10
2009/04/23 06:54:55.2       5    -36     13     37     40 172.0  19.2  33928  285.66 0855.10
2009/04/23 06:54:55.3      -3    -49     17     50     54 183.6  19.4  33928  285.65 0855.10
2009/04/23 06:54:55.4      -1    -60      5     61     62 181.0   4.9  33926  285.61 0855.10
2009/04/23 06:54:55.5       1    -70     11     71     72 179.0   9.0  33926  285.61 0855.10
2009/04/23 06:54:55.6       5    -76      2     77     78 175.6   1.8  33924  285.60 0855.10
2009/04/23 06:54:55.7      12    -71     -9     73     74 170.2  -7.3  33926  285.63 0855.10
2009/04/23 06:54:55.8      17    -50    -18     54     56 160.8 -23.6  33924  285.60 0855.10
2009/04/23 06:54:55.9      15    -16    -28     23     36 136.8 -60.8  33926  285.61 0855.10
2009/04/23 06:54:56.0      31    -31    -22     45     50 135.0 -31.7  33924  285.60 0855.10
2009/04/23 06:54:56.1       3    -34    -32     35     47 173.8 -52.3  33928  285.65 0855.10
2009/04/23 06:54:56.2       8    -59    -40     60     72 172.0 -40.9  33926  285.63 0855.10
2009/04/23 06:54:56.3      11    -34    -35     36     50 161.3 -55.5  33928  285.65 0855.10
2009/04/23 06:54:56.4      19    -20    -40     28     48 136.6 -65.9  33928  285.65 0855.10
2009/04/23 06:54:56.5      12    -14    -40     19     44 138.6 -78.4  33924  285.60 0855.10
2009/04/23 06:54:56.6      12    -14    -40     19     44 138.6 -78.4  33924  285.60 0855.10
2009/04/23 06:54:56.7      22     -7    -31     24     39 108.2 -60.8  33928  285.66 0855.10
2009/04/23 06:54:56.8      16     -1    -23     17     28  94.4 -62.9  33926  285.63 0855.10
2009/04/23 06:54:56.9      21    -12    -33     25     41 120.7 -62.9  33926  285.63 0855.10
2009/04/23 06:54:57.0      23     -7    -37     25     44 108.6 -68.0  33932  285.73 0855.10
2009/04/23 06:54:57.1      41    -33    -40     53     66 128.6 -45.1  33956  286.14 0855.10
2009/04/23 06:54:57.2      46    -20    -30     51     59 113.5 -38.8  33966  286.29 0855.10
2009/04/23 06:54:57.3      41    -14    -32     44     54 109.1 -44.1  33964  286.27 0855.10
2009/04/23 06:54:57.4      45    -15    -29     48     56 108.6 -39.9  33964  286.27 0855.10
2009/04/23 06:54:57.5      22    -22    -31     32     44 135.0 -55.5  33960  286.19 0855.10
2009/04/23 06:54:57.6      17    -17    -24     25     34 135.0 -56.4  33962  286.22 0855.10
2009/04/23 06:54:57.7       3      0    -22      4     22  90.0 -90.0  33964  286.25 0855.10
2009/04/23 06:54:57.8      19      2    -20     20     28  83.9 -54.5  33964  286.27 0855.10
2009/04/23 06:54:57.9      16      5    -30     17     34  71.4 -73.2  33962  286.24 0855.10
2009/04/23 06:54:58.0      27      9    -26     29     38  71.4 -52.3  33956  286.14 0855.10
2009/04/23 06:54:58.1      33     18    -20     38     42  61.1 -34.7  33948  286.00 0855.10
2009/04/23 06:54:58.2      32     20    -26     39     46  57.6 -40.9  33938  285.82 0855.10
2009/04/23 06:54:58.3      32     10    -13     34     36  71.6 -23.3  33934  285.76 0855.10
2009/04/23 06:54:58.4      26     -2      1     27     28  94.4   2.9  33938  285.83 0855.10
2009/04/23 06:54:58.5      27    -19     16     34     37 126.0  27.2  33952  286.05 0855.10
2009/04/23 06:54:58.6      36    -38     35     53     63 136.8  36.5  33966  286.29 0855.10
2009/04/23 06:54:58.7      58    -17     23     61     65 106.8  22.0  33990  286.71 0855.10
2009/04/23 06:54:58.8      73    -29      3     79     80 111.7   2.3  34004  286.94 0855.10
2009/04/23 06:54:58.9      89     16     -3     91     92  79.4  -2.2  34002  286.91 0855.10
2009/04/23 06:54:59.0      77      5     -6     78     79  85.6  -4.6  34006  286.98 0855.10
2009/04/23 06:54:59.1      83     26    -15     88     90  72.3  -9.8  34022  287.23 0855.10
2009/04/23 06:54:59.2      78     31    -31     85     90  68.3 -25.4  34020  287.20 0855.10
2009/04/23 06:54:59.3      85     17    -25     87     90  78.1 -20.7  34006  286.96 0855.10
2009/04/23 06:54:59.4      79     35     -8     87     88  66.0  -5.6  33992  286.73 0855.10
2009/04/23 06:54:59.5     103      9    -12    104    105  84.8  -6.7  33990  286.69 0855.10
2009/04/23 06:54:59.6     107      3    -13    108    109  88.3  -7.2  33988  286.66 0855.10
2009/04/23 06:54:59.7     113      3    -14    114    115  88.3  -7.3  33996  286.81 0855.10
2009/04/23 06:54:59.8      84    -13     -2     85     86  98.8  -1.8  33976  286.47 0855.10
2009/04/23 06:54:59.9      74    -16      3     76     77 102.4   2.8  33972  286.41 0855.10
2009/04/23 06:55:00.0      71    -23     16     75     77 108.6  12.6  33976  286.46 0855.10
2009/04/23 06:55:00.1      63    -41     37     76     84 123.3  27.8  33974  286.42 0855.10
2009/04/23 06:55:00.2      53    -25     28     59     65 115.2  27.2  33974  286.44 0855.10
2009/04/23 06:55:00.3      23     -8     50     25     55 110.0  71.9  33970  286.37 0855.10
2009/04/23 06:55:00.4      21     -3     39     22     44  99.7  67.7  33964  286.27 0855.10
2009/04/23 06:55:00.5      21     -7     35     23     41 110.0  63.6  33968  286.34 0855.10
2009/04/23 06:55:00.6       7    -10     28     13     30 143.9  73.1  33968  286.32 0855.10
2009/04/23 06:55:00.7       5    -15     30     16     34 161.7  70.8  33964  286.27 0855.10
2009/04/23 06:55:00.8       7    -32     41     33     52 166.6  56.4  33968  286.32 0855.10
2009/04/23 06:55:00.9       2    -46     42     47     63 176.4  47.9  33968  286.32 0855.10
2009/04/23 06:55:01.0       6    -26     40     27     48 166.6  63.6  33954  286.08 0855.10
2009/04/23 06:55:01.1      10    -33     32     35     47 161.7  47.9  33958  286.15 0855.10
2009/04/23 06:55:01.2      17    -39     37     43     56 156.4  45.8  33956  286.12 0855.10
2009/04/23 06:55:01.3      16    -48     37     51     63 161.7  39.7  33948  286.00 0855.10
2009/04/23 06:55:01.4       7    -50     39     51     64 171.1  40.7  33952  286.07 0855.10
2009/04/23 06:55:01.5       7    -54     42     55     69 172.0  42.7  33946  285.95 0855.10
2009/04/23 06:55:01.6       1    -49     49     50     70 178.2  51.1  33940  285.87 0855.10
2009/04/23 06:55:01.7       7    -41     46     42     62 170.2  52.2  33940  285.85 0855.10
2009/04/23 06:55:01.8     -11    -58     35     60     69 191.5  33.5  33950  286.03 0855.10
2009/04/23 06:55:01.9     -15    -58     24     61     65 195.2  23.0  33954  286.10 0855.10
2009/04/23 06:55:02.0       5    -58     20     59     63 174.7  19.2  33952  286.05 0855.10
2009/04/23 06:55:02.1       7    -58     21     59     62 172.9  20.0  33952  286.07 0855.10
2009/04/23 06:55:02.2     -40    -75    -29     86     90 208.1 -23.6  33952  286.05 0855.10
2009/04/23 06:55:02.3     -52    -95    -35    109    114 208.5 -23.8  33938  285.82 0855.10
2009/04/23 06:55:02.4     -61    -96    -40    114    122 212.6 -19.6  33936  285.78 0855.10
2009/04/23 06:55:02.5     -57    -69     -2     90     91 219.6  -1.8  33934  285.75 0855.10
2009/04/23 06:55:02.6     -61    -73    -25     96    100 219.6 -15.0  33936  285.80 0855.10
2009/04/23 06:55:02.7     -64    -60    -30     88     92 226.9 -23.3  33938  285.82 0855.10
2009/04/23 06:55:02.8     -69    -43    -13     82     84 237.6  -9.3  33936  285.78 0855.10
2009/04/23 06:55:02.9     -81    -50     16     96     98 238.0   9.5  33934  285.76 0855.10
2009/04/23 06:55:03.0     -59    -38     19     71     74 237.6  15.2  33938  285.82 0855.10
2009/04/23 06:55:03.1     -50     -9    -26     51     57 259.4 -32.6  33946  285.95 0855.10
2009/04/23 06:55:03.2     -63    -19    -39     66     76 253.2 -38.8  33946  285.97 0855.10
2009/04/23 06:55:03.3     -62    -33    -31     71     77 242.0 -29.5  33934  285.76 0855.10
2009/04/23 06:55:03.4     -47    -15    -11     50     52 252.3 -12.4  33934  285.76 0855.10
2009/04/23 06:55:03.5     -50    -16      4     53     54 251.4   4.9  33934  285.76 0855.10
2009/04/23 06:55:03.6     -56    -15     -7     59     60 254.9  -7.2  33934  285.76 0855.10
2009/04/23 06:55:03.7     -55     -5     12     56     58 263.9  12.2  33934  285.76 0855.10
2009/04/23 06:55:03.8     -49     -8     24     50     55 260.3  27.3  33936  285.78 0855.10
2009/04/23 06:55:03.9     -45     -5     23     46     51 263.0  27.3  33934  285.75 0855.10
2009/04/23 06:55:04.0     -22    -22     44     32     54 225.1  60.5  33932  285.71 0855.10
2009/04/23 06:55:04.1     -12     -8     52     15     54 237.6  82.8  33928  285.66 0855.10
2009/04/23 06:55:04.2     -25     -9     34     27     43 250.0  57.5  33930  285.70 0855.10
2009/04/23 06:55:04.3     -14     -3     38     15     40 254.9  78.2  33934  285.75 0855.10
2009/04/23 06:55:04.4      -1      6     40      7     40 350.3  90.0  33934  285.76 0855.10
2009/04/23 06:55:04.5      -5     -4     32      7     32 230.5  89.0  33936  285.80 0855.11
2009/04/23 06:55:04.6      -6     -6     32      9     33 223.4  82.8  33934  285.76 0855.11
2009/04/23 06:55:04.7       3    -14     31     15     34 164.9  72.9  33934  285.76 0855.11
2009/04/23 06:55:04.8       6    -16     40     18     43 158.2  75.0  33936  285.78 0855.11
2009/04/23 06:55:04.9       0    -35     40     36     53 180.9  52.2  33934  285.75 0855.11
2009/04/23 06:55:05.0      -5    -34     40     35     53 189.8  54.3  33932  285.71 0855.11
2009/04/23 06:55:05.1       0    -38     40     39     55 180.9  49.1  33934  285.76 0855.11
2009/04/23 06:55:05.2      -5    -42     32     43     53 188.0  40.7  33932  285.73 0855.11
2009/04/23 06:55:05.3      -5    -42     47     43     63 188.0  52.2  33932  285.73 0855.11
2009/04/23 06:55:05.4      -3    -38     42     39     57 184.5  51.2  33936  285.80 0855.11
2009/04/23 06:55:05.5       3    -45     57     46     73 175.6  56.4  33934  285.76 0855.11
2009/04/23 06:55:05.6       8    -47     29     48     56 170.2  35.5  33936  285.80 0855.11
2009/04/23 06:55:05.7      -3    -50     32     51     60 184.5  35.5  33938  285.83 0855.11
2009/04/23 06:55:05.8       1    -57     34     58     67 178.2  33.5  33938  285.82 0855.11
2009/04/23 06:55:05.9       1    -49     34     50     60 178.2  37.6  33938  285.82 0855.11
2009/04/23 06:55:06.0      -3    -46     28     47     54 184.5  34.4  33940  285.85 0855.11
2009/04/23 06:55:06.1       2    -46     24     47     52 176.4  28.2  33940  285.85 0855.11
2009/04/23 06:55:06.2       0    -55     27     56     62 180.9  27.2  33942  285.88 0855.11
2009/04/23 06:55:06.3      -1    -53     21     54     57 181.8  21.0  33940  285.87 0855.11
2009/04/23 06:55:06.4      -1    -64     19     65     68 181.0  16.3  33938  285.82 0855.11
2009/04/23 06:55:06.5     -14    -62      4     64     65 193.4   3.8  33940  285.85 0855.11
2009/04/23 06:55:06.6     -13    -56     16     58     61 193.4  15.3  33938  285.82 0855.11
2009/04/23 06:55:06.7      -3    -45     22     46     51 184.5  27.2  33936  285.78 0855.11
2009/04/23 06:55:06.8     -11    -34     22     36     42 198.7  34.4  33932  285.71 0855.11
2009/04/23 06:55:06.9       2    -34      6     35     36 175.5  11.1  33934  285.76 0855.11
2009/04/23 06:55:07.0      14    -38     -8     41     42 160.0 -11.3  33936  285.80 0855.11
2009/04/23 06:55:07.1       8    -52     -2     53     54 171.1  -2.2  33938  285.83 0855.11
2009/04/23 06:55:07.2       9    -45      0     46     47 168.4  -0.3  33936  285.78 0855.11
2009/04/23 06:55:07.3       1    -46     -1     47     48 178.2  -2.2  33940  285.85 0855.11
2009/04/23 06:55:07.4      11    -41      2     43     44 164.9   2.9  33938  285.82 0855.11
2009/04/23 06:55:07.5      12    -38      5     41     42 161.5   6.9  33936  285.80 0855.12
2009/04/23 06:55:07.6      15    -42      0     45     46 160.0   0.8  33940  285.85 0855.12
2009/04/23 06:55:07.7      11    -41      2     43     44 164.9   2.9  33938  285.82 0855.12
2009/04/23 06:55:07.8       3    -45     12     46     48 175.5  15.3  33938  285.83 0855.12
2009/04/23 06:55:07.9      -4    -52      7     53     54 184.4   8.0  33940  285.87 0855.12
2009/04/23 06:55:08.0      -4    -53     22     54     58 184.4  22.0  33940  285.87 0855.12
2009/04/23 06:55:08.1       4    -70     43     71     83 176.4  34.0  33942  285.88 0855.12
2009/04/23 06:55:08.2     -14    -56     32     58     66 194.3  31.4  33938  285.82 0855.12
2009/04/23 06:55:08.3     -32    -47     20     58     62 214.3  19.4  33936  285.78 0855.12
2009/04/23 06:55:08.4     -33    -71     17     79     81 205.4  12.6  33938  285.83 0855.12
2009/04/23 06:55:08.5     -33    -52     35     62     71 212.5  31.4  33940  285.87 0855.12
2009/04/23 06:55:08.6     -52    -49     14     72     74 226.9  11.0  33944  285.92 0855.12
2009/04/23 06:55:08.7     -95    -21     -2     98     99 257.6  -1.3  33950  286.02 0855.12
2009/04/23 06:55:08.8     -91     -7    -27     92     97 265.6 -16.6  33946  285.95 0855.12
2009/04/23 06:55:08.9     -94     -3    -31     95     99 267.9 -23.8  33950  286.03 0855.12
2009/04/23 06:55:09.0     -87     -7    -31     88     93 265.2 -23.8  33950  286.03 0855.12
2009/04/23 06:55:09.1     -64      8    -28     65     70 277.9 -29.5  33948  286.00 0855.12
2009/04/23 06:55:09.2     -59     12    -17     61     64 281.5 -15.5  33946  285.97 0855.12
2009/04/23 06:55:09.3     -34     15      9     38     40 293.5  13.2  33946  285.95 0855.12
2009/04/23 06:55:09.4       3      7     24      8     25  25.4  81.0  33944  285.93 0855.12
2009/04/23 06:55:09.5      23    -42     57     49     75 151.0  55.4  33944  285.93 0855.12
2009/04/23 06:55:09.6      28    -35     41     46     61 141.3  46.9  33940  285.85 0855.12
2009/04/23 06:55:09.7      20     -3     52     21     56  99.7  78.2  33944  285.92 0855.12
2009/04/23 06:55:09.8       3     -7     57      8     57 154.6  90.0  33942  285.88 0855.12
2009/04/23 06:55:09.9      -5    -48     47     49     67 186.2  50.0  33936  285.78 0855.12
2009/04/23 06:55:10.0     -10    -54     50     55     74 190.7  47.9  33938  285.83 0855.12
2009/04/23 06:55:10.1     -32    -69     49     77     91 205.3  35.5  33940  285.87 0855.12
2009/04/23 06:55:10.2     -50    -69     44     86     96 216.1  29.3  33940  285.87 0855.12
2009/04/23 06:55:10.3     -42    -73     16     85     87 210.3  11.1  33940  285.87 0855.12
2009/04/23 06:55:10.4     -44    -76      0     89     90 210.3  -0.3  33942  285.88 0855.12
2009/04/23 06:55:10.5     -30    -70      3     77     78 203.6   2.9  33940  285.87 0855.12
2009/04/23 06:55:10.6      -5    -76     13     77     79 184.4  10.1  33940  285.85 0855.12
2009/04/23 06:55:10.7      -9    -76     33     77     83 187.1  24.1  33938  285.82 0855.12
2009/04/23 06:55:10.8     -12    -67     41     69     80 190.7  33.5  33942  285.88 0855.12
2009/04/23 06:55:10.9     -17    -90     37     92     99 190.7  23.0  33942  285.90 0855.12
2009/04/23 06:55:11.0      33   -101     50    107    118 161.7  26.6  33944  285.93 0855.12
2009/04/23 06:55:11.1       7   -108     56    109    122 176.0  29.3  33946  285.95 0855.12
2009/04/23 06:55:11.2      -2   -117     42    118    125 181.4  20.0  33946  285.95 0855.12
2009/04/23 06:55:11.3       1   -113     41    114    121 179.1  20.9  33942  285.90 0855.12
2009/04/23 06:55:11.4       2   -132     29    133    137 179.0  12.6  33944  285.92 0855.12
2009/04/23 06:55:11.5      -2   -135      6    136    137 181.0   2.8  33942  285.90 0855.13
2009/04/23 06:55:11.6     -10   -128     26    129    132 184.5  11.6  33942  285.90 0855.13
2009/04/23 06:55:11.7      -8   -134     13    135    136 183.6   5.9  33944  285.92 0855.13
2009/04/23 06:55:11.8       6   -134    -19    135    137 177.3  -8.2  33944  285.93 0855.13
2009/04/23 06:55:11.9      -2   -143     -2    144    145 180.9  -1.2  33942  285.90 0855.13
2009/04/23 06:55:12.0     -18   -132     -7    134    135 188.1  -3.1  33944  285.93 0855.13
2009/04/23 06:55:12.1    -108     11    -84    109    137 276.1 -46.1  34000  286.88 0855.13
2009/04/23 06:55:12.2     -16   -130      6    132    133 187.1   2.8  33944  285.93 0855.13
2009/04/23 06:55:12.3     -12   -132    -12    133    134 185.3  -5.2  33946  285.95 0855.13
2009/04/23 06:55:12.4      19   -124    -21    126    128 171.1  -9.8  33944  285.93 0855.13
2009/04/23 06:55:12.5      10   -132    -10    133    134 175.5  -4.6  33944  285.93 0855.13
2009/04/23 06:55:12.6     -29   -145      7    148    149 191.5   2.8  33942  285.90 0855.13
2009/04/23 06:55:12.7     -10   -130     14    131    132 184.4   6.5  33942  285.90 0855.13
2009/04/23 06:55:12.8      20   -160     33    162    166 172.9  11.6  33946  285.95 0855.13
2009/04/23 06:55:12.9      31   -135     38    139    145 166.7  15.3  33946  285.95 0855.13
2009/04/23 06:55:13.0     -29   -137     64    141    154 192.0  26.6  33942  285.90 0855.13
2009/04/23 06:55:13.1      -9   -187     70    188    200 182.9  21.0  33940  285.87 0855.13
2009/04/23 06:55:13.2     -14   -181     92    182    203 184.5  29.2  33940  285.87 0855.13
2009/04/23 06:55:13.3      15   -208     60    209    218 175.8  16.0  33942  285.90 0855.13
2009/04/23 06:55:13.4      13   -228     50    229    235 176.6  12.4  33944  285.93 0855.13
2009/04/23 06:55:13.5      12   -195     61    196    206 176.2  17.4  33946  285.97 0855.13
2009/04/23 06:55:13.6      22   -206     32    208    211 173.8   8.9  33944  285.93 0855.13
2009/04/23 06:55:13.7      39   -190     67    195    207 168.4  18.9  33944  285.92 0855.13
2009/04/23 06:55:13.8      36   -179     84    183    201 168.5  26.2  33944  285.93 0855.13
2009/04/23 06:55:13.9      54   -186     30    194    197 163.7   9.0  33946  285.95 0855.13
2009/04/23 06:55:14.0       7   -195     47    196    202 177.8  13.5  33944  285.92 0855.13
2009/04/23 06:55:14.1       0   -186     58    187    197 179.8  17.4  33946  285.95 0855.13
2009/04/23 06:55:14.2       0   -156     65    157    169 180.0  23.8  33950  286.03 0855.13
2009/04/23 06:55:14.3       2   -150     63    151    163 179.1  23.8  33946  285.97 0855.13
2009/04/23 06:55:14.4     -20   -146     66    148    162 188.0  25.7  33946  285.97 0855.13
2009/04/23 06:55:14.5      -1   -134     46    135    143 180.8  18.9  33948  285.98 0855.13
2009/04/23 06:55:14.6       6   -136     53    137    146 177.3  22.0  33946  285.95 0855.13
2009/04/23 06:55:14.7      22   -142     56    144    154 171.1  22.0  33948  286.00 0855.13
2009/04/23 06:55:14.8      33   -124     66    129    144 164.9  29.3  33946  285.97 0855.13
2009/04/23 06:55:14.9      23   -116     83    119    145 168.5  38.0  33948  285.98 0855.13
2009/04/23 06:55:15.0      22   -128     83    130    154 170.2  35.5  33948  286.00 0855.13
2009/04/23 06:55:15.1      19   -135     91    137    164 172.0  36.7  33946  285.97 0855.13
2009/04/23 06:55:15.2      51   -108     65    120    136 154.7  30.8  33946  285.97 0855.13
2009/04/23 06:55:15.3      55    -62     73     84    111 138.6  45.4  33946  285.95 0855.13
2009/04/23 06:55:15.4      49    -50     72     71    101 135.8  50.1  33946  285.95 0855.13
2009/04/23 06:55:15.5      79    -45     80     92    121 119.8  45.8  33948  285.98 0855.13
2009/04/23 06:55:15.6      99    -55     50    114    124 118.9  25.1  33946  285.95 0855.13
2009/04/23 06:55:15.7      95    -53     29    109    113 119.3  15.2  33946  285.97 0855.13
2009/04/23 06:55:15.8      80    -57     28     99    103 125.5  15.8  33946  285.95 0855.13
2009/04/23 06:55:15.9      63    -63     31     90     96 135.3  18.9  33946  285.95 0855.13
2009/04/23 06:55:16.0      48    -58     46     76     88 140.4  34.4  33946  285.95 0855.13
2009/04/23 06:55:16.1      29    -74     49     80     93 158.2  35.0  33946  285.97 0855.13
2009/04/23 06:55:16.2       4    -85     77     86    115 176.9  46.9  33946  285.95 0855.13
2009/04/23 06:55:16.3       5   -105    106    106    149 176.9  50.1  33948  286.00 0855.13
2009/04/23 06:55:16.4       0   -171     93    172    195 180.0  30.8  33944  285.93 0855.13
2009/04/23 06:55:16.5     -36   -175     78    179    195 191.8  25.1  33946  285.97 0855.13
2009/04/23 06:55:16.6     -47   -191     82    197    213 194.0  23.6  33946  285.95 0855.13
2009/04/23 06:55:16.7     -34   -195     62    199    209 190.0  17.3  33944  285.92 0855.13
2009/04/23 06:55:16.8     -39   -184     64    189    200 192.0  18.9  33944  285.93 0855.13
2009/04/23 06:55:16.9     -30   -179     38    182    187 189.6  12.0  33946  285.95 0855.13
2009/04/23 06:55:17.1     -21   -153     44    155    162 188.1  16.0  33944  285.93 0855.13
2009/04/23 06:55:17.1     -11   -144     34    145    149 184.4  13.2  33944  285.92 0855.13
2009/04/23 06:55:17.2      19   -140     34    142    147 172.0  13.7  33942  285.90 0855.13
2009/04/23 06:55:17.4      45   -137     28    145    148 161.7  11.1  33944  285.92 0855.13
2009/04/23 06:55:17.5      45   -129     37    137    143 160.4  15.3  33946  285.95 0855.13
2009/04/23 06:55:17.6      44   -132     35    140    145 161.3  14.3  33944  285.93 0855.13
2009/04/23 06:55:17.7      45   -134     43    142    149 161.3  16.8  33942  285.88 0855.13
2009/04/23 06:55:17.8      34   -127     56    132    143 164.9  24.1  33944  285.93 0855.13
2009/04/23 06:55:17.8      38   -116     64    123    138 161.5  29.3  33944  285.92 0855.13
2009/04/23 06:55:17.9      54    -87     66    103    122 147.9  35.6  33944  285.92 0855.13
2009/04/23 06:55:18.1      47    -71     56     86    102 146.2  36.0  33944  285.93 0855.13
2009/04/23 06:55:18.1      38    -74     51     84     98 152.8  34.4  33942  285.90 0855.13
2009/04/23 06:55:18.2      67    -70     60     98    114 136.3  35.5  33946  285.95 0855.13
2009/04/23 06:55:18.3      77    -93     48    122    131 140.3  23.0  33944  285.92 0855.13
2009/04/23 06:55:18.4      70    -97     25    120    123 144.0  12.2  33944  285.92 0855.13
2009/04/23 06:55:18.6      43    -89     19    100    102 154.1  11.1  33944  285.93 0855.13
2009/04/23 06:55:18.7      46    -96     23    107    110 154.5  12.2  33946  285.95 0855.13
2009/04/23 06:55:18.8      33   -123      9    128    129 164.9   4.4  33944  285.92 0855.13
2009/04/23 06:55:18.9      33   -122      0    127    128 164.9  -0.3  33944  285.93 0855.13
2009/04/23 06:55:19.0      55   -101    -19    116    118 151.5  -9.3  33944  285.92 0855.13
2009/04/23 06:55:19.1      86    -93    -13    128    129 137.2  -6.2  33944  285.93 0855.13
2009/04/23 06:55:19.2     116    -77     22    140    142 123.7   9.0  33942  285.90 0855.13
2009/04/23 06:55:19.3     101    -52     39    114    121 117.5  18.9  33942  285.90 0855.13
2009/04/23 06:55:19.4     113    -71     36    134    139 122.0  15.3  33942  285.90 0855.13
2009/04/23 06:55:19.5     103    -88     14    136    137 130.4   5.9  33944  285.92 0855.13
2009/04/23 06:55:19.6     114    -90     40    146    152 128.2  15.3  33944  285.92 0855.14
2009/04/23 06:55:19.7     119   -101     62    157    168 130.4  22.5  33942  285.90 0855.14
2009/04/23 06:55:19.8      66   -139     65    155    168 154.5  24.1  33940  285.87 0855.14
2009/04/23 06:55:19.9     127   -186     21    226    228 145.7   5.4  33942  285.88 0855.14
2009/04/23 06:55:20.0     133   -172     10    218    219 142.2   2.8  33942  285.88 0855.14
2009/04/23 06:55:20.1     128   -158     -4    204    205 140.8  -1.2  33940  285.87 0855.14
2009/04/23 06:55:20.2     105   -155     14    188    189 145.9   4.4  33942  285.88 0855.14
2009/04/23 06:55:20.3     102   -126     12    163    164 141.0   4.4  33940  285.87 0855.14
2009/04/23 06:55:20.4     103   -103     20    147    149 135.0   8.0  33940  285.85 0855.14
2009/04/23 06:55:20.5      98    -98     47    139    147 134.9  18.9  33940  285.85 0855.14
2009/04/23 06:55:20.6      86   -113     39    143    149 142.6  15.3  33940  285.87 0855.14
2009/04/23 06:55:20.7      87   -138      9    164    165 147.9   3.3  33942  285.88 0855.14
2009/04/23 06:55:20.8      84   -157     -7    179    180 151.7  -2.2  33942  285.88 0855.14
2009/04/23 06:55:20.9     105   -167     10    198    199 147.9   2.9  33944  285.92 0855.14
2009/04/23 06:55:21.0      88   -172    -15    194    195 153.0  -4.6  33944  285.92 0855.14
2009/04/23 06:55:21.1      79   -150      2    170    171 152.1   0.8  33940  285.87 0855.14
2009/04/23 06:55:21.2      96   -124     12    158    159 142.2   4.6  33940  285.87 0855.14
2009/04/23 06:55:21.3     138   -117      1    182    183 130.4   0.5  33940  285.87 0855.14
2009/04/23 06:55:21.4     125   -102     10    162    163 129.1   3.8  33942  285.90 0855.14
2009/04/23 06:55:21.5     131   -104     10    168    169 128.6   3.6  33944  285.93 0855.14
2009/04/23 06:55:21.6     107   -110     18    154    156 135.9   6.9  33944  285.92 0855.13
2009/04/23 06:55:21.7      98    -98     43    139    146 134.9  17.3  33942  285.88 0855.13
2009/04/23 06:55:21.8      54   -106     69    120    138 152.8  32.4  33942  285.90 0855.13
2009/04/23 06:55:21.9      68   -116     68    135    151 149.7  28.2  33942  285.88 0855.13
2009/04/23 06:55:22.0      67   -137     66    153    166 153.7  24.9  33942  285.88 0855.13
2009/04/23 06:55:22.1       7   -162     75    163    179 177.5  26.6  33942  285.90 0855.13
2009/04/23 06:55:22.2     -32   -119     75    124    144 195.2  34.4  33942  285.88 0855.13
2009/04/23 06:55:22.3      38   -116     84    123    148 161.5  37.6  33940  285.85 0855.13
2009/04/23 06:55:22.4      77   -151     59    170    181 153.0  19.2  33942  285.88 0855.13
2009/04/23 06:55:22.5      45   -137     22    145    147 161.7   8.9  33940  285.85 0855.13
2009/04/23 06:55:22.6      59   -107     54    123    134 151.0  25.1  33942  285.88 0855.13
2009/04/23 06:55:22.7      33   -115     72    120    139 164.0  33.5  33942  285.90 0855.13
2009/04/23 06:55:22.8       8   -105     77    106    131 175.5  39.7  33942  285.90 0855.13
2009/04/23 06:55:22.9       9   -127    101    128    163 175.5  42.4  33940  285.87 0855.13
2009/04/23 06:55:23.0      32   -164    122    168    207 168.9  39.7  33940  285.85 0855.13
2009/04/23 06:55:23.1      11   -153    104    154    185 175.6  37.3  33942  285.90 0855.13
2009/04/23 06:55:23.2      23   -138     78    141    161 170.2  31.4  33942  285.90 0855.13
2009/04/23 06:55:23.3      26   -119    126    122    175 167.5  50.9  33940  285.85 0855.13
2009/04/23 06:55:23.4     106   -120    116    161    198 138.6  39.5  33938  285.82 0855.13
2009/04/23 06:55:23.5      97    -87     93    131    160 132.2  39.1  33940  285.85 0855.13
2009/04/23 06:55:23.6     110   -118     90    162    185 136.8  31.4  33944  285.92 0855.13
2009/04/23 06:55:23.7     140   -115     55    182    191 129.5  16.8  33940  285.87 0855.13
2009/04/23 06:55:23.8     132   -105     51    169    177 128.6  17.1  33938  285.83 0855.13
2009/04/23 06:55:23.9     158   -100     73    188    201 122.4  22.3  33940  285.87 0855.13
2009/04/23 06:55:24.0     169   -158     79    232    246 133.2  18.9  33940  285.84 0855.13
2009/04/23 06:55:24.1     131   -129     35    184    188 134.6  11.0  33938  285.83 0855.13
2009/04/23 06:55:24.2     106   -109     -4    153    154 135.9  -1.8  33940  285.85 0855.13
2009/04/23 06:55:24.3     119    -89     -3    149    150 126.9  -1.3  33940  285.87 0855.13
2009/04/23 06:55:24.4     114    -82     -5    141    142 126.0  -2.2  33942  285.88 0855.13
2009/04/23 06:55:24.5      96   -107    -42    144    150 138.1 -21.7  33942  285.90 0855.13
2009/04/23 06:55:24.6      76    -76    -33    108    112 134.9 -22.3  33942  285.90 0855.13
2009/04/23 06:55:24.7      68    -68    -29     97    101 135.0 -21.7  33942  285.88 0855.13
2009/04/23 06:55:24.8      61    -91    -33    110    114 146.2 -22.3  33942  285.90 0855.13
2009/04/23 06:55:24.9      45    -96    -49    107    117 154.7 -30.6  33940  285.87 0855.13
2009/04/23 06:55:25.0      57    -75    -37     95    101 142.6 -26.9  33942  285.90 0855.13
2009/04/23 06:55:25.1      52    -41    -18     67     70 127.8 -15.5  33942  285.88 0855.13
2009/04/23 06:55:25.2      74    -28    -24     80     83 110.8 -22.3  33942  285.88 0855.13
2009/04/23 06:55:25.3     125    -15    -12    126    127  97.0  -5.6  33940  285.85 0855.13
2009/04/23 06:55:25.4     129    -42      0    136    137 108.4   0.2  33942  285.90 0855.13
2009/04/23 06:55:25.5     118    -31      5    123    124 105.1   2.3  33940  285.87 0855.13
2009/04/23 06:55:25.6     101    -48      5    112    113 115.4   2.8  33940  285.85 0855.13
2009/04/23 06:55:25.7      96    -21     39     99    106 102.8  22.5  33940  285.87 0855.13
2009/04/23 06:55:25.8      97    -62     23    116    119 122.4  11.6  33942  285.88 0855.13
2009/04/23 06:55:25.9      96    -47     20    107    109 116.2  10.6  33940  285.87 0855.13
2009/04/23 06:55:26.0      72    -24      2     77     78 108.6   1.8  33944  285.92 0855.13
2009/04/23 06:55:26.1      61    -27     27     67     72 114.4  23.0  33942  285.88 0855.13
2009/04/23 06:55:26.2     103    -49     22    115    118 115.4  11.1  33946  285.95 0855.13
2009/04/23 06:55:26.3      85    -54     37    101    107 122.5  20.4  33942  285.90 0855.13
2009/04/23 06:55:26.4      63    -63     21     90     93 135.0  13.7  33942  285.88 0855.13
2009/04/23 06:55:26.5      66    -65     19     93     95 134.4  11.6  33938  285.83 0855.13
2009/04/23 06:55:26.6      60    -94     41    112    119 147.4  20.9  33944  285.92 0855.13
2009/04/23 06:55:26.7      17   -108     72    110    131 170.7  36.0  33942  285.88 0855.13
2009/04/23 06:55:26.8      29   -110     58    114    127 164.9  28.7  33942  285.88 0855.13
2009/04/23 06:55:26.9      23   -116     50    119    129 168.5  24.1  33942  285.88 0855.13
2009/04/23 06:55:27.0      36   -126     49    132    140 164.0  21.0  33940  285.87 0855.13
2009/04/23 06:55:27.1      27   -159      7    162    163 170.2   2.5  33942  285.88 0855.13
2009/04/23 06:55:27.2      16   -162     29    163    166 174.2  10.3  33942  285.90 0855.13
2009/04/23 06:55:27.3     -15   -150     52    151    160 185.8  19.2  33942  285.90 0855.13
2009/04/23 06:55:27.4     -28   -145     52    148    158 191.1  19.6  33944  285.92 0855.13
2009/04/23 06:55:27.5     -10   -142     43    143    150 184.4  16.8  33942  285.90 0855.13
2009/04/23 06:55:27.6     -27   -107     24    111    114 194.3  12.6  33942  285.88 0855.13
2009/04/23 06:55:27.7     -21   -103     27    106    110 191.6  14.3  33944  285.92 0855.13
2009/04/23 06:55:27.8     -25    -86      2     90     91 196.5   1.8  33942  285.88 0855.13
2009/04/23 06:55:27.9     -25    -79     12     83     84 197.8   8.5  33942  285.88 0855.13
2009/04/23 06:55:28.0     -21    -91     31     94    100 193.4  18.4  33944  285.92 0855.13
2009/04/23 06:55:28.1     -30    -90     21     95     98 198.5  12.6  33944  285.92 0855.13
2009/04/23 06:55:28.2     -40    -84     25     94     98 205.5  15.3  33940  285.87 0855.13
2009/04/23 06:55:28.3      -7    -70     19     71     74 186.2  15.2  33944  285.92 0855.13
2009/04/23 06:55:28.4     -23    -71     11     75     76 198.3   9.0  33944  285.92 0855.13
2009/04/23 06:55:28.5     -16    -68     22     70     74 193.4  17.3  33944  285.93 0855.13
2009/04/23 06:55:28.6      -1    -79     39     80     89 181.0  27.3  33942  285.88 0855.14
2009/04/23 06:55:28.7     -10    -73     49     74     88 188.1  36.5  33940  285.87 0855.14
2009/04/23 06:55:28.8      -3    -83     63     84    105 182.7  40.1  33942  285.88 0855.14
2009/04/23 06:55:28.9       7    -69     69     70     98 173.8  50.0  33940  285.85 0855.14
2009/04/23 06:55:29.0      11    -67     82     69    107 170.2  55.8  33942  285.90 0855.14
2009/04/23 06:55:29.1       0    -57     82     58    100 180.9  61.1  33942  285.88 0855.14
2009/04/23 06:55:29.2     -21    -48     58     53     78 204.5  52.2  33944  285.92 0855.14
2009/04/23 06:55:29.3       2    -40     40     41     57 176.4  51.1  33942  285.88 0855.14
2009/04/23 06:55:29.4       3     -8     44      9     44 154.6  90.0  33940  285.87 0855.14
2009/04/23 06:55:29.5      -1    -41     37     42     55 181.8  45.8  33944  285.93 0855.14
2009/04/23 06:55:29.6      -3    -21     22     22     31 189.8  50.1  33940  285.87 0855.14
2009/04/23 06:55:29.7       7     -4     23      9     24 122.4  79.2  33944  285.92 0855.14
2009/04/23 06:55:29.8      41      7     51     42     66  80.3  56.4  33942  285.90 0855.14
2009/04/23 06:55:29.9      80     11     64     81    103  82.1  42.7  33942  285.90 0855.14
2009/04/23 06:55:30.0      61     36     39     71     81  59.3  31.4  33940  285.87 0855.14
2009/04/23 06:55:30.1      20     37     44     43     61  29.0  50.1  33942  285.90 0855.14
2009/04/23 06:55:30.2      24     20     63     32     70  50.4  71.9  33942  285.88 0855.14
2009/04/23 06:55:30.3       5     16     44     17     47  18.7  79.2  33944  285.92 0855.14
2009/04/23 06:55:30.4      -1    -18     37     19     41 184.4  70.8  33942  285.90 0855.14
2009/04/23 06:55:30.5      -9     -3     28     10     29 248.3  81.2  33942  285.90 0855.14
2009/04/23 06:55:30.6     -20    -12     20     24     31 237.6  43.8  33942  285.90 0855.14
2009/04/23 06:55:30.7     -10     10     15     15     21 315.0  50.1  33942  285.88 0855.14
2009/04/23 06:55:30.8       3     31     31     32     44   6.2  51.1  33944  285.92 0855.14
2009/04/23 06:55:30.9     -17     22     35     28     44 322.2  57.5  33944  285.93 0855.14
2009/04/23 06:55:31.0       8     12     42     15     44  32.5  81.2  33944  285.92 0855.14
2009/04/23 06:55:31.1      23     19     37     30     47  50.5  56.4  33942  285.90 0855.14
2009/04/23 06:55:31.2      37     27     23     46     51  54.0  27.3  33942  285.88 0855.14
2009/04/23 06:55:31.3      36     22     22     43     48  58.5  29.3  33944  285.92 0855.14
2009/04/23 06:55:31.4      31     31     17     45     48  45.1  20.0  33944  285.92 0855.14
2009/04/23 06:55:31.5      38     25     11     46     48  55.8  14.3  33942  285.90 0855.14
2009/04/23 06:55:31.6      52     11     18     54     57  77.6  18.4  33942  285.88 0855.14
2009/04/23 06:55:31.7      43     26     -8     51     52  58.5  -9.3  33942  285.88 0855.14
2009/04/23 06:55:31.8      60     49      3     78     79  50.4   2.3  33942  285.90 0855.14
2009/04/23 06:55:31.9      65     49      7     82     83  52.7   5.4  33942  285.90 0855.14
2009/04/23 06:55:32.0      70     49     14     86     88  54.9   9.5  33942  285.90 0855.14
2009/04/23 06:55:32.1      71     62      2     95     96  49.1   1.2  33940  285.85 0855.14
2009/04/23 06:55:32.2     100     20      5    103    104  78.5   2.9  33944  285.92 0855.14
2009/04/23 06:55:32.3      67     -5     51     68     85  94.4  40.7  33942  285.88 0855.14
2009/04/23 06:55:32.4      35    -14     49     38     62 111.7  58.5  33940  285.87 0855.14
2009/04/23 06:55:32.5      47     26     20     54     57  61.1  20.0  33942  285.88 0855.14
2009/04/23 06:55:32.6      60     28     23     67     72  64.6  19.4  33942  285.88 0855.14
2009/04/23 06:55:32.7      58     22     30     63     69  69.2  27.2  33940  285.87 0855.14
2009/04/23 06:55:32.8      42      5     14     43     46  83.0  18.9  33944  285.92 0855.14
2009/04/23 06:55:32.9      50     -7     22     51     55  98.8  25.1  33940  285.87 0855.14
2009/04/23 06:55:33.0      51    -17     10     54     56 109.1  11.1  33942  285.90 0855.14
2009/04/23 06:55:33.1      42    -34     15     55     58 129.5  15.3  33942  285.90 0855.14
2009/04/23 06:55:33.2      39    -32     -2     51     52 129.5  -2.2  33944  285.93 0855.14
2009/04/23 06:55:33.3      39    -39     -2     56     57 135.0  -2.2  33940  285.87 0855.14
2009/04/23 06:55:33.4      52    -49      8     72     73 133.2   6.9  33942  285.88 0855.14
2009/04/23 06:55:33.5      46    -42     19     63     67 132.2  17.3  33942  285.90 0855.14
2009/04/23 06:55:33.6      47    -32     18     58     61 124.2  17.3  33940  285.87 0855.14
2009/04/23 06:55:33.7      67    -53      8     86     87 128.6   5.9  33942  285.88 0855.14
2009/04/23 06:55:33.8      79    -59     19     99    101 126.9  11.0  33942  285.90 0855.14
2009/04/23 06:55:33.9      76    -55     16     94     96 126.0  10.1  33944  285.92 0855.14
2009/04/23 06:55:34.0      75    -66    -11    101    102 131.3  -6.2  33940  285.87 0855.14
2009/04/23 06:55:34.1      68    -60     -5     91     92 131.3  -3.7  33942  285.88 0855.14
2009/04/23 06:55:34.2      47    -67    -23     83     87 144.8 -15.5  33942  285.88 0855.14
2009/04/23 06:55:34.3      54    -97    -17    112    114 151.0  -8.8  33942  285.90 0855.14
2009/04/23 06:55:34.4      64   -107      6    125    126 149.2   2.9  33942  285.88 0855.14
2009/04/23 06:55:34.5      58   -107     11    122    123 151.5   5.4  33942  285.90 0855.14
2009/04/23 06:55:34.6      50   -103      5    115    116 153.7   2.8  33940  285.87 0855.14
2009/04/23 06:55:34.7      48   -113    -11    124    125 156.8  -5.2  33942  285.88 0855.14
2009/04/23 06:55:34.8      49   -146      7    155    156 161.3   2.9  33944  285.93 0855.14
2009/04/23 06:55:34.9      45   -148     69    155    169 163.1  25.9  33942  285.90 0855.14
2009/04/23 06:55:35.0      38   -150     53    155    164 165.7  18.9  33942  285.90 0855.14
2009/04/23 06:55:35.1      23   -159     63    161    172 171.5  22.3  33944  285.92 0855.14
2009/04/23 06:55:35.2      16   -184     -7    185    186 174.9  -2.2  33944  285.92 0855.14
2009/04/23 06:55:35.3       0   -219    -25    220    222 180.0  -6.7  33942  285.88 0855.14
2009/04/23 06:55:35.4      -9   -200    -25    201    203 182.6  -7.3  33942  285.90 0855.14
2009/04/23 06:55:35.5       5   -209     -8    210    211 178.6  -2.3  33946  285.95 0855.14
2009/04/23 06:55:35.6      26   -213     33    215    218 172.9   8.8  33940  285.87 0855.14
2009/04/23 06:55:35.7      -9   -194     40    195    200 182.9  11.6  33944  285.92 0855.14
2009/04/23 06:55:35.8     -27   -230     36    232    235 186.9   9.0  33944  285.93 0855.14
2009/04/23 06:55:35.9     -35   -225     48    228    234 188.9  12.0  33940  285.85 0855.14
2009/04/23 06:55:36.0     -14   -191     70    192    204 184.5  20.9  33942  285.88 0855.14
2009/04/23 06:55:36.1      26   -169     84    172    191 171.1  27.4  33944  285.92 0855.14
2009/04/23 06:55:36.2      27   -193      6    195    196 172.0   1.8  33944  285.92 0855.14
2009/04/23 06:55:36.3      45   -194      8    200    201 166.9   2.5  33942  285.88 0855.14
2009/04/23 06:55:36.4      52   -177     59    185    195 163.5  17.7  33940  285.85 0855.14
2009/04/23 06:55:36.5      62   -186     25    197    199 161.5   7.5  33940  285.87 0855.14
2009/04/23 06:55:36.6      46   -197      1    203    204 166.7   0.5  33940  285.85 0855.14
2009/04/23 06:55:36.7      32   -160     30    164    167 168.5  10.6  33942  285.90 0855.14
2009/04/23 06:55:36.8      26   -170     26    173    176 171.1   8.8  33942  285.90 0855.14
2009/04/23 06:55:36.9      27   -150      7    153    154 169.8   2.9  33944  285.93 0855.14
2009/04/23 06:55:37.0      23   -154    -39    156    162 171.3 -14.3  33944  285.92 0855.14
2009/04/23 06:55:37.1      43   -119    -44    127    135 160.0 -19.1  33940  285.87 0855.14
2009/04/23 06:55:37.2      36   -103    -35    110    116 160.4 -17.6  33944  285.92 0855.14
2009/04/23 06:55:37.3      25   -126    -35    129    134 168.5 -15.5  33942  285.90 0855.14
2009/04/23 06:55:37.4      57   -142     10    154    155 158.1   3.8  33944  285.92 0855.14
2009/04/23 06:55:37.5      51   -134     33    144    148 159.1  13.2  33942  285.90 0855.14
2009/04/23 06:55:37.6      48   -146     49    154    162 161.7  17.9  33944  285.92 0855.14
2009/04/23 06:55:37.7      51   -148     51    157    166 160.8  18.1  33944  285.92 0855.14
2009/04/23 06:55:37.8      21   -126     48    128    136 170.3  21.0  33944  285.92 0855.14
2009/04/23 06:55:37.9      43   -129     55    137    147 161.3  23.0  33942  285.90 0855.14
2009/04/23 06:55:38.0      64   -119     33    136    140 151.5  13.7  33942  285.90 0855.14
2009/04/23 06:55:38.1      86   -103     11    135    136 139.9   4.9  33942  285.90 0855.14
2009/04/23 06:55:38.2     122   -122    -26    173    175 135.0  -8.6  33942  285.88 0855.14
2009/04/23 06:55:38.3     148   -122    -38    192    196 129.5 -11.3  33942  285.88 0855.14
2009/04/23 06:55:38.4      58   -133     -1    146    147 156.4  -0.7  33940  285.87 0855.14
2009/04/23 06:55:38.5      47   -136     28    145    148 160.8  11.1  33944  285.92 0855.14
2009/04/23 06:55:38.6      21   -125     34    127    132 170.3  15.3  33944  285.92 0855.13
2009/04/23 06:55:38.7      -1    -96     51     97    109 180.9  30.3  33942  285.90 0855.13
2009/04/23 06:55:38.8      13   -111     40    112    118 173.3  20.4  33944  285.92 0855.13
2009/04/23 06:55:38.9      16    -89     56     91    106 169.3  35.0  33944  285.92 0855.13
2009/04/23 06:55:39.0      32    -67     59     75     95 154.5  42.7  33940  285.87 0855.13
2009/04/23 06:55:39.1      43    -68     67     81    105 147.4  43.8  33942  285.88 0855.13
2009/04/23 06:55:39.2       9    -41    105     42    113 167.5  77.1  33942  285.88 0855.13
2009/04/23 06:55:39.3     -41    -65     96     78    123 212.5  56.4  33942  285.90 0855.13
2009/04/23 06:55:39.4      -4    -65     88     66    110 183.6  59.4  33942  285.88 0855.13
2009/04/23 06:55:39.5      11   -150    106    151    184 175.5  38.6  33942  285.88 0855.13
2009/04/23 06:55:39.6       2   -150    108    151    185 179.0  39.1  33942  285.88 0855.13
2009/04/23 06:55:39.7      14   -157    124    158    200 174.7  42.2  33942  285.88 0855.13
2009/04/23 06:55:39.8      13   -181    106    182    210 175.8  33.1  33942  285.88 0855.13
2009/04/23 06:55:39.9     -40   -228     82    232    246 190.0  20.0  33942  285.89 0855.13
2009/04/23 06:55:40.0     -44   -246     63    250    258 190.2  14.2  33938  285.83 0855.13
2009/04/23 06:55:40.1     -39   -214    105    218    241 190.5  27.4  33942  285.88 0855.13
2009/04/23 06:55:40.2      -6   -174    118    175    211 182.0  37.3  33938  285.83 0855.13
2009/04/23 06:55:40.3     -38   -223    123    227    258 189.8  31.0  33942  285.89 0855.13
2009/04/23 06:55:40.4     -37   -176    109    180    210 192.0  34.0  33940  285.87 0855.13
2009/04/23 06:55:40.5      36   -178     63    182    193 168.4  19.2  33940  285.87 0855.13
2009/04/23 06:55:40.6      70   -221     51    232    238 162.4  12.6  33942  285.89 0855.14
2009/04/23 06:55:40.7      34   -215     38    218    222 170.9   9.9  33942  285.88 0855.14
2009/04/23 06:55:40.8      24   -187    -16    189    190 172.4  -4.9  33942  285.88 0855.14
2009/04/23 06:55:40.9      21   -206    -29    208    211 174.2  -8.0  33938  285.83 0855.14
2009/04/23 06:55:41.0       3   -206    -48    207    213 179.1 -13.2  33942  285.88 0855.14
2009/04/23 06:55:41.1      35   -205    -11    209    210 170.2  -3.2  33942  285.88 0855.14
2009/04/23 06:55:41.2      25   -202     18    204    205 172.9   5.2  33940  285.85 0855.14
2009/04/23 06:55:41.3      31   -249     49    251    256 172.8  11.1  33938  285.81 0855.14
2009/04/23 06:55:41.4      78   -287     83    298    310 164.8  15.6  33938  285.83 0855.14
2009/04/23 06:55:41.5      12   -350     58    351    356 178.0   9.4  33940  285.87 0855.14
2009/04/23 06:55:41.6      95   -351     36    364    366 164.9   5.7  33940  285.85 0855.14
2009/04/23 06:55:41.7     102   -367      3    382    383 164.4   0.5  33942  285.89 0855.14
2009/04/23 06:55:41.8      56   -361      5    366    367 171.1   0.8  33940  285.87 0855.14
2009/04/23 06:55:41.9      57   -343     57    348    353 170.6   9.4  33946  285.94 0855.14
2009/04/23 06:55:42.0      85   -359     38    370    373 166.6   6.0  33944  285.92 0855.14
2009/04/23 06:55:42.1      34   -330     80    332    342 174.0  13.7  33942  285.89 0855.14
2009/04/23 06:55:42.2      79   -340     65    350    356 166.9  10.6  33946  285.94 0855.14
2009/04/23 06:55:42.3      52   -345     91    349    361 171.3  14.7  33944  285.92 0855.14
2009/04/23 06:55:42.4      93   -365     44    377    380 165.6   6.8  33944  285.92 0855.14
2009/04/23 06:55:42.5      97   -366     63    379    385 165.1   9.5  33940  285.84 0855.14
2009/04/23 06:55:42.6     161   -355    106    390    405 155.6  15.3  33942  285.89 0855.14
2009/04/23 06:55:42.7     170   -355     92    394    405 154.4  13.2  33940  285.85 0855.14
2009/04/23 06:55:42.8     169   -354    109    393    409 154.5  15.6  33942  285.88 0855.14
2009/04/23 06:55:42.9     180   -343     18    388    389 152.3   2.8  33940  285.84 0855.14
2009/04/23 06:55:43.0     133   -324     35    351    353 157.6   5.8  33940  285.85 0855.14
2009/04/23 06:55:43.1      79   -313     26    323    325 165.8   4.7  33942  285.89 0855.14
2009/04/23 06:55:43.2     156   -262     26    306    308 149.2   5.0  33942  285.89 0855.14
2009/04/23 06:55:43.3     152   -240     49    285    290 147.7   9.9  33942  285.89 0855.14
2009/04/23 06:55:43.4     147   -223     68    268    277 146.6  14.3  33942  285.89 0855.14
2009/04/23 06:55:43.5     134   -192     24    235    237 145.0   5.9  33940  285.86 0855.14
2009/04/23 06:55:43.6     121   -190     28    226    228 147.4   7.1  33940  285.85 0855.14
2009/04/23 06:55:43.7     158   -169     -1    232    233 136.8  -0.3  33942  285.88 0855.14
2009/04/23 06:55:43.8     113   -177    -34    211    214 147.4  -9.3  33940  285.85 0855.14
2009/04/23 06:55:43.9      95   -235    -16    254    255 157.9  -3.7  33940  285.84 0855.14
2009/04/23 06:55:44.0     118   -237     20    265    266 153.5   4.4  33942  285.88 0855.14
2009/04/23 06:55:44.1     123   -179     28    218    220 145.5   7.5  33940  285.87 0855.14
2009/04/23 06:55:44.2     113   -116    -20    163    165 135.7  -7.2  33940  285.87 0855.14
2009/04/23 06:55:44.3     106    -95    -18    143    145 131.8  -7.2  33940  285.85 0855.14
2009/04/23 06:55:44.4     153   -148     -1    214    215 134.0  -0.5  33934  285.76 0855.14
2009/04/23 06:55:44.5     113   -128     30    172    175 138.6  10.1  33936  285.80 0855.14
2009/04/23 06:55:44.6     122   -122     60    173    184 135.1  19.2  33940  285.85 0855.14
2009/04/23 06:55:44.7     116   -143     36    185    189 141.0  11.0  33942  285.88 0855.14
2009/04/23 06:55:44.8     122   -183     26    221    223 146.2   6.9  33938  285.83 0855.14
2009/04/23 06:55:45.0      97   -152    -51    181    188 147.5 -20.4  33940  285.85 0855.14
2009/04/23 06:55:45.1      38   -198    -71    202    214 169.1 -24.0  33936  285.80 0855.14
2009/04/23 06:55:45.2      39   -165    -83    170    189 166.4 -31.8  33940  285.87 0855.14
2009/04/23 06:55:45.3      23   -155   -112    157    192 171.5 -43.5  33942  285.88 0855.14
2009/04/23 06:55:45.4      12   -156   -100    157    186 175.5 -39.9  33936  285.78 0855.14
2009/04/23 06:55:45.5     -16   -150    -78    151    169 186.3 -33.7  33938  285.83 0855.14
2009/04/23 06:55:45.6      42   -164    -21    170    172 165.5  -7.3  33940  285.87 0855.14
2009/04/23 06:55:45.7      51   -163     20    172    174 162.4   6.7  33940  285.87 0855.14
2009/04/23 06:55:45.8      23   -136    -12    139    140 170.2  -5.1  33940  285.87 0855.14
2009/04/23 06:55:45.9       0   -158    -36    159    164 180.0 -12.9  33942  285.88 0855.14
2009/04/23 06:55:46.0      14   -102     11    104    105 172.0   6.5  33940  285.87 0855.14
2009/04/23 06:55:46.1     -52    -41    -35     67     75 232.2 -34.7  33938  285.82 0855.14
2009/04/23 06:55:46.2     -23    -78    -40     82     91 196.9 -32.2  33940  285.87 0855.14
2009/04/23 06:55:46.3     -48   -109    -39    120    126 203.6 -23.8  33940  285.85 0855.14
2009/04/23 06:55:46.4    -107   -119    -39    161    166 221.9 -13.7  33936  285.80 0855.14
2009/04/23 06:55:46.5     -81    -86      1    119    120 223.2   0.8  33938  285.83 0855.14
2009/04/23 06:55:46.6      -2    -27     30     28     41 184.4  51.2  33936  285.80 0855.14
2009/04/23 06:55:46.7      28      3     49     29     56  82.1  65.7  33938  285.82 0855.15
2009/04/23 06:55:46.8      33     -2     26     34     42  94.4  41.7  33938  285.82 0855.15
2009/04/23 06:55:46.9      49    -19     25     53     58 111.7  27.1  33938  285.82 0855.15
2009/04/23 06:55:47.0      60      4     13     61     63  85.6  12.2  33938  285.82 0855.15
2009/04/23 06:55:47.1      78     27     10     83     84  70.5   6.9  33940  285.85 0855.15
2009/04/23 06:55:47.2      79     23     -3     83     84  73.6  -2.2  33936  285.78 0855.15
2009/04/23 06:55:47.3      74     25     43     79     89  71.4  30.8  33936  285.80 0855.15
2009/04/23 06:55:47.4      34     13     41     37     55  68.3  53.3  33936  285.78 0855.15
2009/04/23 06:55:47.5      54     25     15     60     62  64.7  14.3  33938  285.82 0855.15
2009/04/23 06:55:47.6      47     57    -28     75     80  39.7 -25.4  33938  285.83 0855.15
2009/04/23 06:55:47.7      47      8    -38     48     61  79.4 -48.1  33936  285.80 0855.15
2009/04/23 06:55:47.8      55    -23    -19     60     62 113.5 -22.8  33938  285.83 0855.15
2009/04/23 06:55:47.9      16    -25    -30     30     42 147.5 -54.5  33938  285.83 0855.15
2009/04/23 06:55:48.0      -8      8    -69     12     70 316.8 -90.0  33938  285.82 0855.15
2009/04/23 06:55:48.1      20      3    -53     21     57  80.3 -82.6  33938  285.82 0855.15
2009/04/23 06:55:48.2      36     -3    -38     37     53  96.1 -53.5  33938  285.83 0855.15
2009/04/23 06:55:48.3      33    -23    -28     41     49 124.2 -42.0  33936  285.78 0855.15
2009/04/23 06:55:48.4      12    -35    -34     38     50 161.3 -51.3  33936  285.80 0855.15
2009/04/23 06:55:48.5     -23    -70    -55     74     92 198.7 -45.1  33938  285.82 0855.15
2009/04/23 06:55:48.6     -30    -63    -84     70    109 205.5 -60.7  33938  285.82 0855.15
2009/04/23 06:55:48.7     -12    -54    -87     56    103 192.5 -69.0  33936  285.78 0855.16
2009/04/23 06:55:48.8      -6    -33   -107     34    112 191.6 -85.6  33936  285.80 0855.16
2009/04/23 06:55:48.9      39    -62    -79     74    108 147.5 -56.5  33936  285.78 0855.16
2009/04/23 06:55:49.0      51    -49    -77     71    104 134.0 -56.6  33938  285.83 0855.16
2009/04/23 06:55:49.1      61    -29    -60     68     90 115.3 -50.2  33936  285.78 0855.16
2009/04/23 06:55:49.2      46    -32    -56     57     79 125.1 -54.4  33936  285.78 0855.16
2009/04/23 06:55:49.3      58    -34    -46     68     82 120.7 -42.0  33936  285.78 0855.16
2009/04/23 06:55:49.4      40    -16    -47     44     64 112.6 -56.5  33938  285.83 0855.16
2009/04/23 06:55:49.5      31     14    -36     35     50  64.7 -53.5  33934  285.76 0855.16
2009/04/23 06:55:49.6      -6     55    -27     56     62 353.8 -31.6  33938  285.83 0855.16
2009/04/23 06:55:49.7     -16     59    -39     62     73 344.8 -39.9  33938  285.82 0855.16
2009/04/23 06:55:49.8      -9     50    -31     51     59 349.3 -38.8  33938  285.82 0855.16
2009/04/23 06:55:49.9      14     37    -31     40     50  21.8 -47.1  33938  285.82 0855.16
2009/04/23 06:55:50.0      22     33    -24     40     46  34.3 -38.8  33940  285.85 0855.16
2009/04/23 06:55:50.1      17     22    -22     29     36  37.8 -46.1  33934  285.76 0855.16
2009/04/23 06:55:50.2      22     -1     -8     23     25  92.6 -19.7  33936  285.80 0855.16
2009/04/23 06:55:50.3      -3    -20      1     21     22 189.8   2.9  33936  285.80 0855.16
2009/04/23 06:55:50.4      -2    -37      0     38     39 184.5   0.8  33936  285.80 0855.16
2009/04/23 06:55:50.5      -2    -17     32     18     36 188.0  66.8  33936  285.80 0855.16
2009/04/23 06:55:50.6      -7    -32     24     33     40 193.4  39.7  33936  285.78 0855.16
2009/04/23 06:55:50.7     -11    -34     24     36     43 198.3  37.6  33938  285.82 0855.16
2009/04/23 06:55:50.8       0    -50     30     51     59 180.0  34.4  33938  285.82 0855.16
2009/04/23 06:55:50.9     -11    -93     18     94     96 187.1  11.1  33938  285.83 0855.16
2009/04/23 06:55:51.0     -21   -124     -5    126    127 189.8  -2.6  33940  285.85 0855.16
2009/04/23 06:55:51.1       4   -130    -11    131    132 178.2  -5.2  33940  285.85 0855.16
2009/04/23 06:55:51.2      20   -130      7    132    133 171.1   3.3  33938  285.82 0855.16
2009/04/23 06:55:51.3      -7   -150      7    151    152 182.7   2.9  33938  285.82 0855.16
2009/04/23 06:55:51.4     -11   -131    -43    132    139 184.9 -18.1  33936  285.80 0855.16
2009/04/23 06:55:51.5     -70    -70    -39    100    107 225.0 -26.4  33940  285.85 0855.16
2009/04/23 06:55:51.6     -70    -47    -42     85     94 235.8 -32.2  33940  285.85 0855.16
2009/04/23 06:55:51.7     -94     18    -31     96    100 281.4 -23.3  33938  285.82 0855.15
2009/04/23 06:55:51.8     -59    -12     25     61     65 258.5  23.0  33940  285.85 0855.15
2009/04/23 06:55:51.9     -61    -43     21     75     78 234.9  15.8  33940  285.87 0855.15
2009/04/23 06:55:52.0     -28    -62    -14     69     71 204.5 -11.5  33940  285.87 0855.15
2009/04/23 06:55:52.1     -45    -95    -30    106    110 205.4 -20.2  33942  285.88 0855.15
2009/04/23 06:55:52.2     -23    -49      6     55     56 205.4   6.9  33936  285.80 0855.15
2009/04/23 06:55:52.3     -55    -23    -20     60     63 247.4 -23.6  33940  285.85 0855.15
2009/04/23 06:55:52.4     -14    -89     -5     91     92 188.9  -3.1  33938  285.83 0855.15
2009/04/23 06:55:52.5      51    -93     26    107    111 151.1  13.7  33938  285.82 0855.15
2009/04/23 06:55:52.6      38    -91      5     99    100 157.3   2.9  33940  285.85 0855.15
2009/04/23 06:55:52.7      41   -151     -6    157    158 164.9  -2.2  33942  285.88 0855.15
2009/04/23 06:55:52.8     -12   -173    -58    174    183 184.0 -23.6  33938  285.83 0855.15
2009/04/23 06:55:52.9     -13   -177    -42    178    184 184.5 -13.4  33940  285.85 0855.15
2009/04/23 06:55:53.0       0   -165    -61    166    176 180.2 -25.7  33938  285.83 0855.15
2009/04/23 06:55:53.1     -29    -99    -55    104    117 196.5 -34.7  33940  285.85 0855.15
2009/04/23 06:55:53.2     -73   -108    -36    131    136 214.3 -15.5  33938  285.82 0855.15
2009/04/23 06:55:53.3     -60   -126    -17    140    142 205.4  -7.2  33938  285.83 0855.15
2009/04/23 06:55:53.4    -117    -70    -14    137    138 239.3  -6.2  33936  285.80 0855.15
2009/04/23 06:55:53.5    -160    -60     38    172    177 249.4  12.6  33938  285.83 0855.15
2009/04/23 06:55:53.6    -147    -64     29    161    164 246.5  10.3  33940  285.87 0855.15
2009/04/23 06:55:53.7     -69    -73    -36    101    107 223.2 -23.8  33938  285.83 0855.14
2009/04/23 06:55:53.8     -13   -186    -81    187    203 184.2 -29.5  33938  285.82 0855.14
2009/04/23 06:55:53.9      32   -156    -38    160    165 168.2 -13.4  33938  285.83 0855.14
2009/04/23 06:55:54.0     -47   -103     40    114    121 204.5  19.4  33940  285.87 0855.14
2009/04/23 06:55:54.1     -80   -110     25    137    140 216.1  10.6  33940  285.87 0855.14
2009/04/23 06:55:54.2     -52    -86    -33    101    106 211.6 -23.8  33940  285.87 0855.14
2009/04/23 06:55:54.3     -51    -77    -43     93    102 213.8 -31.0  33940  285.87 0855.14
2009/04/23 06:55:54.4     -71    -53    -36     89     96 233.1 -27.4  33938  285.82 0855.14
2009/04/23 06:55:54.5     -30    -96    -52    101    113 197.4 -33.1  33940  285.85 0855.14
2009/04/23 06:55:54.6     -18    -93    -69     95    117 191.5 -44.1  33940  285.87 0855.14
2009/04/23 06:55:54.7       0    -80    -41     81     90 180.5 -33.1  33942  285.88 0855.14
2009/04/23 06:55:54.8      10    -99    -17    100    102 173.8  -9.8  33940  285.85 0855.14
2009/04/23 06:55:54.9      14    -89    -42     91    100 170.7 -31.0  33940  285.87 0855.14
2009/04/23 06:55:55.0      41    -70    -40     82     91 149.3 -32.2  33940  285.87 0855.14
2009/04/23 06:55:55.1      37    -57    -37     69     78 146.6 -34.7  33938  285.83 0855.14
2009/04/23 06:55:55.2      27    -45    -10     53     55 148.4 -11.3  33940  285.85 0855.14
2009/04/23 06:55:55.3      41    -57      8     71     72 143.9   6.9  33940  285.85 0855.14
2009/04/23 06:55:55.4       7    -69     29     70     75 173.8  23.1  33940  285.85 0855.14
2009/04/23 06:55:55.5       0    -80     48     81     94 179.5  34.0  33938  285.82 0855.14
2009/04/23 06:55:55.6       9    -39     42     41     58 166.6  48.2  33938  285.83 0855.14
2009/04/23 06:55:55.7      11    -18     43     22     48 149.3  70.8  33938  285.82 0855.14
2009/04/23 06:55:55.8      -1     13     29     14     32 352.0  72.9  33938  285.82 0855.14
2009/04/23 06:55:55.9     -37     31      5     49     50 309.5   5.9  33940  285.85 0855.14
2009/04/23 06:55:56.0     -68     47     14     83     85 304.6  10.1  33936  285.80 0855.14
2009/04/23 06:55:56.1    -191     40     -7    196    197 281.9  -2.2  33936  285.78 0855.14
2009/04/23 06:55:56.2    -112     22    -50    115    125 281.4 -29.5  33936  285.80 0855.14
2009/04/23 06:55:56.3    -104    -13    -47    105    115 262.5 -30.6  33930  285.70 0855.14
2009/04/23 06:55:56.4    -101      6      7    102    103 273.5   4.4  33932  285.73 0855.14
2009/04/23 06:55:56.5    -142     -8     22    143    145 266.5   9.0  33934  285.75 0855.14
2009/04/23 06:55:56.6    -125    -36     20    131    133 253.6   9.0  33936  285.80 0855.14
2009/04/23 06:55:56.7    -115    -73    -46    137    144 237.5 -23.6  33936  285.80 0855.14
2009/04/23 06:55:56.8     -64   -120   -115    137    178 208.1 -48.7  33934  285.76 0855.14
2009/04/23 06:55:56.9    -105    -57    -83    120    145 241.6 -42.0  33932  285.73 0855.14
2009/04/23 06:55:57.0    -124    -90    -48    154    161 234.0 -22.3  33934  285.75 0855.14
2009/04/23 06:55:57.1    -140   -106     13    176    177 232.9   4.2  33934  285.75 0855.14
2009/04/23 06:55:57.2    -130   -130    -20    184    186 225.0  -6.5  33928  285.66 0855.14
2009/04/23 06:55:57.3    -131    -67    -59    148    159 243.0 -27.2  33930  285.68 0855.14
2009/04/23 06:55:57.4    -177    -87    -62    198    207 243.8 -22.5  33928  285.66 0855.14
2009/04/23 06:55:57.5    -182    -97    -60    207    215 241.8 -21.2  33928  285.65 0855.14
2009/04/23 06:55:57.6    -185    -94    -68    208    218 242.9 -23.6  33928  285.66 0855.14
2009/04/23 06:55:57.7    -198   -108    -65    226    235 241.4 -20.7  33930  285.70 0855.14
2009/04/23 06:55:57.8    -174    -93    -86    198    215 241.8 -29.5  33930  285.70 0855.14
2009/04/23 06:55:57.9     -99   -114   -129    152    199 221.0 -48.9  33928  285.66 0855.14
2009/04/23 06:55:58.0    -128   -184   -149    225    269 214.7 -40.9  33936  285.77 0855.14
2009/04/23 06:55:58.1    -186   -175   -132    256    288 226.9 -33.7  33934  285.74 0855.14
2009/04/23 06:55:58.2    -260   -173    -98    313    327 236.3 -22.4  33938  285.81 0855.14
2009/04/23 06:55:58.3    -176   -131    -51    220    226 233.4 -13.2  33934  285.76 0855.14
2009/04/23 06:55:58.4    -148   -118    -24    190    192 231.6  -7.5  33932  285.73 0855.14
2009/04/23 06:55:58.5    -136    -87    -20    162    164 237.1  -7.3  33932  285.71 0855.14
2009/04/23 06:55:58.6    -137   -108    -19    175    177 231.8  -6.2  33934  285.75 0855.14
2009/04/23 06:55:58.7    -150    -88      7    174    175 239.6   2.3  33932  285.71 0855.14
2009/04/23 06:55:58.8    -108    -78    -26    134    137 234.1 -11.3  33932  285.73 0855.14
2009/04/23 06:55:58.9     -87    -72     -2    114    115 230.5  -1.3  33936  285.80 0855.14
2009/04/23 06:55:59.0     -69   -128    -35    146    151 208.5 -13.4  33934  285.75 0855.14
2009/04/23 06:55:59.1     -81   -167    -23    186    188 205.9  -7.3  33934  285.76 0855.14
2009/04/23 06:55:59.2    -151   -160     34    221    224 223.4   8.9  33934  285.75 0855.14
2009/04/23 06:55:59.3    -137   -236      3    273    274 210.1   0.7  33934  285.76 0855.14
2009/04/23 06:55:59.4    -128   -264   -129    294    321 205.9 -29.5  33938  285.81 0855.14
2009/04/23 06:55:59.5    -149   -208    -98    257    275 215.6 -26.4  33936  285.77 0855.14
2009/04/23 06:55:59.6    -142   -223    -67    265    274 212.5 -14.3  33938  285.81 0855.14
2009/04/23 06:55:59.7     -39   -248    -86    252    267 189.1 -18.9  33936  285.79 0855.15
2009/04/23 06:55:59.8    -145   -184    -84    235    250 218.1 -19.7  33938  285.81 0855.15
2009/04/23 06:55:59.9    -153   -210    -87    261    276 216.1 -18.6  33936  285.79 0855.15
2009/04/23 06:56:00.0    -178   -208    -59    274    281 220.5 -12.2  33936  285.79 0855.15
2009/04/23 06:56:00.1    -207   -200      5    289    290 226.0   1.0  33938  285.81 0855.15
2009/04/23 06:56:00.2    -163   -214    -24    270    272 217.4  -5.2  33936  285.79 0855.15
2009/04/23 06:56:00.3    -204   -162    -75    261    272 231.6 -16.0  33936  285.77 0855.15
2009/04/23 06:56:00.4    -184   -140    -96    232    251 232.7 -28.2  33938  285.83 0855.15
2009/04/23 06:56:00.5     -67   -165    -60    179    190 202.3 -18.7  33938  285.82 0855.15
2009/04/23 06:56:00.6    -133   -183     21    227    229 216.0   5.4  33932  285.71 0855.15
2009/04/23 06:56:00.7     -95   -129     67    161    174 216.5  24.1  33930  285.70 0855.15
2009/04/23 06:56:00.8    -121   -121     84    172    191 225.0  27.4  33936  285.78 0855.15
2009/04/23 06:56:00.9     -87   -120     56    149    159 216.1  21.5  33936  285.78 0855.15
2009/04/23 06:56:01.0     -75    -69     22    103    106 227.3  12.2  33936  285.78 0855.15
2009/04/23 06:56:01.1    -119    -55    -40    132    137 245.2 -21.7  33934  285.76 0855.15
2009/04/23 06:56:01.2    -132   -105    -23    169    171 231.4  -8.0  33934  285.76 0855.15
2009/04/23 06:56:01.3    -149    -81    -40    170    175 241.4 -13.4  33934  285.76 0855.15
2009/04/23 06:56:01.4     -94   -123    -84    156    177 217.4 -35.2  33932  285.73 0855.15
2009/04/23 06:56:01.5     -50   -142    -19    151    153 199.6  -7.2  33932  285.73 0855.15
2009/04/23 06:56:01.6       0   -108    -92    109    142 180.0 -48.7  33932  285.71 0855.15
2009/04/23 06:56:01.7     -28      3    -62     29     68 277.9 -77.5  33922  285.55 0855.16
2009/04/23 06:56:01.8     -66     -5     65     67     93 265.7  50.0  33932  285.71 0855.16
2009/04/23 06:56:01.9     -10    -90     42     91    100 186.7  26.6  33932  285.73 0855.16
2009/04/23 06:56:02.0      23   -133     27    136    139 170.2  11.6  33936  285.78 0855.16
2009/04/23 06:56:02.1      30   -150     37    154    159 168.4  13.7  33936  285.80 0855.16
2009/04/23 06:56:02.2      22   -146     46    148    156 171.1  17.4  33938  285.82 0855.16
2009/04/23 06:56:02.3      74   -109     44    132    140 145.8  18.4  33934  285.75 0855.16
2009/04/23 06:56:02.4      94    -72     67    119    136 127.3  31.9  33938  285.83 0855.16
2009/04/23 06:56:02.5      51    -72     30     89     95 144.8  18.9  33934  285.76 0855.16
2009/04/23 06:56:02.6     -15    -63      3     65     66 193.4   2.9  33938  285.83 0855.16
2009/04/23 06:56:02.7     -22    -66     40     70     80 198.7  32.4  33938  285.82 0855.16
2009/04/23 06:56:02.8     -34    -84     24     91     95 202.3  15.2  33938  285.83 0855.16
2009/04/23 06:56:02.9     -58    -65     17     88     90 221.4  11.1  33936  285.80 0855.16
2009/04/23 06:56:03.0     -53    -53      3     76     77 225.0   2.9  33940  285.85 0855.16
2009/04/23 06:56:03.1     -77    -85      5    115    116 222.3   2.9  33936  285.78 0855.16
2009/04/23 06:56:03.2    -130    -66    -34    146    150 242.9 -13.3  33930  285.70 0855.16
2009/04/23 06:56:03.3    -129    -71    -48    148    156 241.2 -17.9  33932  285.73 0855.16
2009/04/23 06:56:03.4    -154    -60    -58    166    175 248.7 -24.0  33930  285.68 0855.16
2009/04/23 06:56:03.5    -142    -56    -53    153    161 248.3 -24.0  33924  285.60 0855.16
2009/04/23 06:56:03.6    -145    -55    -50    156    163 249.2 -23.0  33926  285.63 0855.16
2009/04/23 06:56:03.7     -94    -74    -62    120    135 231.8 -33.7  33926  285.61 0855.15
2009/04/23 06:56:03.8     -89    -89    -73    127    146 225.0 -37.3  33926  285.63 0855.15
2009/04/23 06:56:03.9    -121   -114    -41    167    173 226.9 -13.9  33928  285.66 0855.15
2009/04/23 06:56:04.0    -103    -97    -54    142    151 226.9 -25.9  33930  285.68 0855.15
2009/04/23 06:56:04.1     -70   -127    -59    145    156 208.9 -28.0  33930  285.68 0855.15
2009/04/23 06:56:04.2     -54   -141    -53    152    160 200.9 -24.0  33934  285.75 0855.15
2009/04/23 06:56:04.3     -98   -138    -68    170    183 215.6 -27.4  33924  285.58 0855.15
2009/04/23 06:56:04.4    -100   -107    -96    147    175 223.2 -40.1  33922  285.56 0855.15
2009/04/23 06:56:04.5    -134    -93    -96    164    190 235.4 -37.5  33924  285.60 0855.15
2009/04/23 06:56:04.6    -114   -141    -93    182    204 219.0 -33.7  33928  285.66 0855.15
2009/04/23 06:56:04.7    -131   -115   -106    175    204 228.7 -38.6  33928  285.66 0855.15
2009/04/23 06:56:04.8     -66   -100    -96    120    153 213.4 -47.7  33928  285.66 0855.15
2009/04/23 06:56:04.9     -33   -122    -66    127    143 195.2 -33.7  33928  285.66 0855.15
2009/04/23 06:56:05.0     -20   -122    -46    124    132 189.3 -25.4  33930  285.70 0855.15
2009/04/23 06:56:05.1     -68   -170     21    184    186 201.8   6.7  33934  285.76 0855.15
2009/04/23 06:56:05.2     -64   -136    -13    151    152 205.5  -5.2  33934  285.75 0855.15
2009/04/23 06:56:05.3     -13   -128     15    129    130 186.2   6.9  33934  285.75 0855.15
2009/04/23 06:56:05.4     -31   -102    -25    107    110 196.9 -13.4  33930  285.70 0855.15
2009/04/23 06:56:05.5      -7    -92    -11     93     94 184.5  -7.3  33932  285.71 0855.15
2009/04/23 06:56:05.6     -32    -94     -1    100    101 198.7  -0.7  33930  285.70 0855.15
2009/04/23 06:56:05.7     -37   -110    -14    117    118 198.7  -7.2  33932  285.71 0855.15
2009/04/23 06:56:05.8     -64   -141     13    155    156 204.5   4.9  33932  285.71 0855.15
2009/04/23 06:56:05.9     -55   -130      5    142    143 203.2   2.3  33928  285.65 0855.15
2009/04/23 06:56:06.0     -30   -150     -3    154    155 191.6  -1.3  33930  285.68 0855.15
2009/04/23 06:56:06.1     -41   -150     -6    156    157 195.6  -2.2  33930  285.70 0855.15
2009/04/23 06:56:06.2     -41   -123     -7    130    131 198.7  -3.1  33928  285.65 0855.15
2009/04/23 06:56:06.3     -34   -127    -15    132    133 195.1  -6.7  33930  285.70 0855.15
2009/04/23 06:56:06.4     -57   -127     -9    140    141 204.1  -3.7  33924  285.60 0855.15
2009/04/23 06:56:06.5     -69   -132     -8    149    150 207.6  -3.1  33928  285.65 0855.15
2009/04/23 06:56:06.6     -72   -113      0    135    136 212.5  -0.3  33928  285.66 0855.15
2009/04/23 06:56:06.7     -91    -86     23    126    129 226.8  10.6  33930  285.68 0855.15
2009/04/23 06:56:06.8    -137    -91     10    165    166 236.3   3.8  33930  285.70 0855.15
2009/04/23 06:56:06.9    -126   -102     22    163    165 230.9   8.0  33932  285.71 0855.15
2009/04/23 06:56:07.0    -128   -100     15    163    164 232.2   5.4  33930  285.70 0855.15
2009/04/23 06:56:07.1    -160    -53    -60    169    180 251.4 -19.6  33928  285.66 0855.15
2009/04/23 06:56:07.2    -181    -22    -52    183    190 263.0 -20.7  33930  285.70 0855.15
2009/04/23 06:56:07.3    -105   -125      6    164    165 220.1   2.3  33930  285.68 0855.15
2009/04/23 06:56:07.4     -51   -151      2    160    161 198.7   0.8  33930  285.68 0855.15
2009/04/23 06:56:07.5     -45    -86    -14     98    100 207.6  -8.2  33930  285.70 0855.15
2009/04/23 06:56:07.6     -51    -67    -30     85     90 217.4 -23.8  33930  285.68 0855.15
2009/04/23 06:56:07.7     -62    -59    -32     86     91 226.4 -25.4  33930  285.68 0855.15
2009/04/23 06:56:07.8     -57      2    -22     58     62 272.6 -26.4  33928  285.65 0855.15
2009/04/23 06:56:07.9     -16    -27     -9     32     34 210.7 -15.4  33928  285.66 0855.15
2009/04/23 06:56:08.0     -14    -38    -25     41     48 200.9 -39.9  33928  285.66 0855.15
2009/04/23 06:56:08.1     -19    -41    -15     46     48 204.5 -23.8  33926  285.63 0855.15
2009/04/23 06:56:08.2     -17    -55    -23     58     62 197.8 -27.4  33928  285.65 0855.15
2009/04/23 06:56:08.3       5    -76     -4     77     78 175.6  -3.2  33930  285.68 0855.15
2009/04/23 06:56:08.4      25    -81    -10     85     86 162.6  -7.3  33928  285.66 0855.15
2009/04/23 06:56:08.5      10    -94      1     95     96 173.8   0.8  33930  285.70 0855.15
2009/04/23 06:56:08.6     -16   -114     13    116    117 188.0   6.9  33930  285.70 0855.15
2009/04/23 06:56:08.7     -23   -117    -38    120    126 191.1 -17.6  33926  285.61 0855.15
2009/04/23 06:56:08.8     -76    -57    -30     96    100 233.1 -22.8  33926  285.61 0855.15
2009/04/23 06:56:08.9     -81    -14     -3     83     84 259.9  -2.2  33928  285.66 0855.15
2009/04/23 06:56:09.0     -92      4     -6     93     94 273.0  -3.7  33930  285.68 0855.15
2009/04/23 06:56:09.1     -93      2     -7     94     95 271.7  -4.6  33928  285.66 0855.15
2009/04/23 06:56:09.2     -70    -10    -34     71     78 261.2 -31.6  33928  285.66 0855.15
2009/04/23 06:56:09.3     -50    -37    -27     63     68 233.1 -28.5  33926  285.63 0855.15
2009/04/23 06:56:09.4     -32    -68    -46     76     88 205.5 -38.8  33926  285.63 0855.15
2009/04/23 06:56:09.5     -38    -91    -57     99    114 202.7 -37.3  33926  285.61 0855.15
2009/04/23 06:56:09.6     -28   -108    -61    112    127 194.7 -35.7  33928  285.65 0855.15
2009/04/23 06:56:09.7     -33   -110    -42    116    123 196.9 -25.3  33926  285.61 0855.15
2009/04/23 06:56:09.8     -27   -117    -53    121    132 192.9 -29.5  33926  285.61 0855.15
2009/04/23 06:56:09.9      -1    -96    -75     97    122 180.9 -46.1  33924  285.58 0855.15
2009/04/23 06:56:10.0       7    -50    -73     51     89 172.0 -65.9  33924  285.58 0855.15
2009/04/23 06:56:10.1      -1    -81    -56     82     99 181.4 -42.4  33924  285.58 0855.15
2009/04/23 06:56:10.2      36   -115    -59    121    134 162.6 -32.2  33924  285.58 0855.15
2009/04/23 06:56:10.3       7   -113    -46    114    122 176.0 -27.4  33924  285.58 0855.15
2009/04/23 06:56:10.4     -50    -93    -48    106    116 208.5 -31.0  33924  285.60 0855.15
2009/04/23 06:56:10.5     -32    -86    -49     92    104 200.5 -35.2  33926  285.63 0855.15
2009/04/23 06:56:10.6     -67    -26    -76     73    105 248.3 -55.1  33926  285.61 0855.15
2009/04/23 06:56:10.7     -78    -55    -72     96    120 234.9 -45.1  33926  285.61 0855.16
2009/04/23 06:56:10.8     -53    -33    -61     63     87 237.6 -54.4  33926  285.61 0855.16
2009/04/23 06:56:10.9     -20    -42    -46     47     65 205.4 -54.4  33924  285.58 0855.16
2009/04/23 06:56:11.0       1    -40    -58     41     71 177.3 -65.0  33924  285.60 0855.16
2009/04/23 06:56:11.1      -1    -39    -53     40     66 182.6 -63.8  33924  285.60 0855.16
2009/04/23 06:56:11.2       6    -58    -33     59     67 173.8 -35.8  33924  285.58 0855.16
2009/04/23 06:56:11.3       1    -49    -24     50     55 178.2 -31.7  33924  285.58 0855.16
2009/04/23 06:56:11.4      38      2    -63     39     74  85.7 -69.1  33922  285.56 0855.16
2009/04/23 06:56:11.5      38     -7    -39     39     55 101.5 -54.5  33922  285.55 0855.16
2009/04/23 06:56:11.6      -1    -20     -5     21     22 184.5 -15.5  33920  285.53 0855.16
2009/04/23 06:56:11.7     -59    -38    -19     71     74 237.6 -15.5  33924  285.58 0855.16
2009/04/23 06:56:11.8     -68     -9     -1     69     70 262.1  -1.3  33922  285.56 0855.16
2009/04/23 06:56:11.9     -94    -30    -17     99    101 251.8  -9.8  33924  285.60 0855.16
2009/04/23 06:56:12.0     -82    -27    -21     87     90 251.8 -13.9  33924  285.58 0855.16
2009/04/23 06:56:12.2    -140    -30      8    144    145 257.6   3.3  33922  285.55 0855.16
2009/04/23 06:56:12.2    -118    -23    -21    121    123 258.6 -10.3  33924  285.58 0855.16
2009/04/23 06:56:12.3     -73    -18    -40     76     85 255.8 -34.7  33924  285.58 0855.16
2009/04/23 06:56:12.4     -12   -103     15    104    106 186.7   8.5  33924  285.60 0855.16
2009/04/23 06:56:12.5      -9   -116    -11    117    118 184.5  -5.6  33926  285.63 0855.16
2009/04/23 06:56:12.6      10   -129    -21    130    132 175.5  -9.3  33922  285.56 0855.16
2009/04/23 06:56:12.8      28   -149    -19    152    154 169.3  -7.3  33924  285.60 0855.16
2009/04/23 06:56:12.9      29   -145     11    148    149 168.5   4.4  33924  285.58 0855.16
2009/04/23 06:56:13.0       4   -139     43    140    147 178.2  17.4  33924  285.60 0855.16
2009/04/23 06:56:13.1     -37    -93     70    101    122 201.8  38.0  33918  285.48 0855.16
2009/04/23 06:56:13.2     -32    -68     80     76    110 205.3  51.6  33926  285.61 0855.16
2009/04/23 06:56:13.3     -55   -117     38    130    136 205.4  16.3  33926  285.61 0855.16
2009/04/23 06:56:13.4     -80   -146     52    167    175 208.7  17.3  33926  285.61 0855.16
2009/04/23 06:56:13.5     -74   -174     48    190    197 202.9  14.3  33926  285.61 0855.16
2009/04/23 06:56:13.6    -123   -153     22    197    199 218.7   6.5  33924  285.60 0855.16
2009/04/23 06:56:13.7    -126   -148      0    195    196 220.5   0.2  33924  285.58 0855.16
2009/04/23 06:56:13.8    -114   -148    -23    187    189 217.6  -7.2  33924  285.58 0855.16
2009/04/23 06:56:13.9    -133   -152    -48    203    209 221.2 -13.4  33922  285.55 0855.16
2009/04/23 06:56:14.0    -158   -131    -40    206    210 230.5 -11.1  33922  285.56 0855.16
2009/04/23 06:56:14.1    -112   -125    -51    169    177 221.9 -17.0  33922  285.55 0855.16
2009/04/23 06:56:14.2    -185   -177    -14    257    258 226.2  -3.1  33924  285.59 0855.16
2009/04/23 06:56:14.3    -181   -139      3    229    230 232.5   0.8  33920  285.53 0855.16
2009/04/23 06:56:14.4    -256   -121     39    284    287 244.7   8.0  33922  285.56 0855.16
2009/04/23 06:56:14.5    -287    -26     19    289    290 264.8   3.9  33920  285.52 0855.16
2009/04/23 06:56:14.6    -249    -18     72    250    261 265.7  16.0  33916  285.45 0855.16
2009/04/23 06:56:14.7    -199   -107    161    227    278 241.6  38.8  33922  285.54 0855.16
2009/04/23 06:56:14.8     -86    -62    164    107    195 234.0  63.9  33920  285.51 0855.17
2009/04/23 06:56:14.9    -138    -59    146    151    210 246.9  49.4  33920  285.53 0855.17
2009/04/23 06:56:15.0    -190    -51    107    197    224 254.9  31.3  33920  285.53 0855.17
2009/04/23 06:56:15.1    -196    -46    108    202    229 256.7  30.6  33922  285.55 0855.17
2009/04/23 06:56:15.2     -98    -29    127    103    163 253.2  56.9  33922  285.55 0855.17
2009/04/23 06:56:15.3    -199     38     66    203    214 280.8  18.1  33918  285.48 0855.17
2009/04/23 06:56:15.4    -184     27     32    186    189 278.4   9.9  33922  285.55 0855.17
2009/04/23 06:56:15.5    -220     16    -17    221    222 274.3  -4.6  33924  285.58 0855.17
2009/04/23 06:56:15.6    -237    108    -27    261    263 294.6  -6.1  33922  285.56 0855.17
2009/04/23 06:56:15.7    -181    149      8    235    236 309.5   2.1  33922  285.54 0855.17
2009/04/23 06:56:15.8    -125    161     48    205    211 322.2  13.2  33924  285.60 0855.17
2009/04/23 06:56:15.9    -141    117     19    184    186 309.6   6.1  33924  285.58 0855.17
2009/04/23 06:56:16.0    -171     29    -56    174    183 279.7 -17.9  33920  285.53 0855.17
2009/04/23 06:56:16.1    -172     39    -62    177    188 282.8 -19.4  33918  285.50 0855.17
2009/04/23 06:56:16.2    -238    -12    -70    239    250 267.0 -16.4  33920  285.51 0855.17
2009/04/23 06:56:16.3    -233     18    -79    234    248 274.6 -18.7  33918  285.49 0855.17
2009/04/23 06:56:16.4    -209    -68    -71    221    233 251.8 -17.9  33920  285.51 0855.17
2009/04/23 06:56:16.5    -163    -84     13    184    185 242.5   4.2  33916  285.44 0855.17
2009/04/23 06:56:16.6    -130   -101     -1    165    166 232.2  -0.5  33918  285.50 0855.17
2009/04/23 06:56:16.7    -123    -78     51    146    155 237.6  19.4  33922  285.55 0855.17
2009/04/23 06:56:16.8    -156    -39     46    161    168 255.8  16.0  33920  285.53 0855.17
2009/04/23 06:56:16.9    -176   -107    -26    207    209 238.7  -7.2  33922  285.56 0855.17
2009/04/23 06:56:17.0    -214   -101    -34    237    240 244.6  -8.2  33918  285.49 0855.17
2009/04/23 06:56:17.1    -153    -81     49    174    181 242.0  15.8  33924  285.58 0855.17
2009/04/23 06:56:17.2    -147    -53     25    157    160 250.1   9.3  33918  285.50 0855.17
2009/04/23 06:56:17.3    -151    -45     -5    158    159 253.1  -2.1  33922  285.55 0855.17
2009/04/23 06:56:17.4    -162    -75    -16    179    180 245.2  -5.2  33918  285.50 0855.17
2009/04/23 06:56:17.5    -147    -28      0    150    151 259.0  -0.3  33918  285.48 0855.17
2009/04/23 06:56:17.6    -150     45     -6    157    158 286.8  -2.2  33924  285.58 0855.17
2009/04/23 06:56:17.7    -147     15     28    148    151 276.1  11.0  33920  285.53 0855.17
2009/04/23 06:56:17.8    -149      4     53    150    160 271.7  19.4  33922  285.56 0855.17
2009/04/23 06:56:17.9    -129      3    -23    130    133 271.7 -10.3  33918  285.50 0855.17
2009/04/23 06:56:18.0    -110     12     15    111    113 276.6   8.0  33916  285.44 0855.17
2009/04/23 06:56:18.1     -85      1     27     86     91 270.8  17.3  33922  285.56 0855.17
2009/04/23 06:56:18.2     -82    -22     13     86     88 254.5   9.0  33924  285.60 0855.17
2009/04/23 06:56:18.3    -120    -31    -25    125    128 255.4 -11.3  33920  285.51 0855.17
2009/04/23 06:56:18.4    -137    -14    -31    138    142 263.9 -12.9  33920  285.51 0855.17
2009/04/23 06:56:18.5    -123    -91     -8    154    155 233.6  -3.1  33920  285.51 0855.17
2009/04/23 06:56:18.6     -88   -106     22    139    141 219.7   9.0  33918  285.50 0855.17
2009/04/23 06:56:18.7    -135    -31     30    139    143 256.8  12.2  33916  285.44 0855.17
2009/04/23 06:56:18.8    -137    -27     11    140    141 258.6   4.9  33918  285.50 0855.17
2009/04/23 06:56:18.9    -106    -38      5    113    114 250.0   2.9  33918  285.48 0855.17
2009/04/23 06:56:19.0    -118    -15      0    119    120 262.5  -0.3  33918  285.50 0855.17
2009/04/23 06:56:19.1    -116      8      2    117    118 274.3   1.2  33918  285.48 0855.17
2009/04/23 06:56:19.2    -123    -57     -1    136    137 245.2  -0.7  33916  285.44 0855.17
2009/04/23 06:56:19.3    -137    -23    -17    139    141 260.3  -7.2  33916  285.44 0855.17
2009/04/23 06:56:19.4    -155     11    -26    156    159 274.4  -9.6  33916  285.46 0855.17
2009/04/23 06:56:19.5    -160      0    -15    161    162 270.0  -5.4  33916  285.44 0855.17
2009/04/23 06:56:19.6    -128      0    -26    129    132 270.0 -11.5  33916  285.44 0855.17
2009/04/23 06:56:19.7    -117    -34    -38    122    128 253.6 -17.6  33918  285.50 0855.17
2009/04/23 06:56:19.8    -103    -70    -36    125    131 235.8 -16.0  33922  285.55 0855.17
2009/04/23 06:56:19.9    -112    -77    -38    137    143 235.4 -15.5  33918  285.48 0855.17
2009/04/23 06:56:20.0    -127    -46    -48    136    145 250.0 -19.7  33918  285.50 0855.17
2009/04/23 06:56:20.1     -96    -87      2    130    131 227.8   1.2  33918  285.48 0855.17
2009/04/23 06:56:20.2     -91    -91     -5    129    130 225.0  -2.2  33918  285.50 0855.17
2009/04/23 06:56:20.3     -82    -77    -29    113    117 226.9 -14.5  33922  285.55 0855.17
2009/04/23 06:56:20.4     -71    -48    -32     87     92 235.8 -24.8  33920  285.53 0855.17
2009/04/23 06:56:20.5     -53    -33     -4     63     64 237.6  -4.1  33920  285.51 0855.17
2009/04/23 06:56:20.6     -17    -52     15     55     58 198.5  15.2  33920  285.53 0855.17
2009/04/23 06:56:20.7       2    -32     23     33     40 175.5  38.6  33920  285.53 0855.17
2009/04/23 06:56:20.8      23    -37     23     44     49 147.5  29.3  33922  285.56 0855.16
2009/04/23 06:56:20.9      12    -61     19     63     67 168.4  17.3  33920  285.53 0855.16
2009/04/23 06:56:21.0       6    -69     13     70     72 174.7  11.0  33920  285.53 0855.16
2009/04/23 06:56:21.1      26    -56     21     62     66 154.7  19.4  33920  285.53 0855.16
2009/04/23 06:56:21.2      16    -47     30     50     58 160.8  35.5  33922  285.55 0855.16
2009/04/23 06:56:21.3      -3    -46     29     47     55 184.5  35.5  33920  285.51 0855.16
2009/04/23 06:56:21.4     -20    -34     27     40     48 210.7  36.5  33918  285.50 0855.16
2009/04/23 06:56:21.5     -65    -56     38     86     94 229.1  25.1  33920  285.53 0855.16
2009/04/23 06:56:21.6     -41    -63     32     76     82 213.4  24.1  33920  285.51 0855.16
2009/04/23 06:56:21.7     -28    -40     19     50     53 215.2  20.0  33920  285.51 0855.16
2009/04/23 06:56:21.8     -14    -35      1     38     39 201.8   2.9  33918  285.50 0855.16
2009/04/23 06:56:21.9     -12    -14    -13     19     23 221.4 -44.1  33918  285.50 0855.16
2009/04/23 06:56:22.1      -9    -12    -13     16     20 216.1 -48.1  33918  285.48 0855.16
2009/04/23 06:56:22.2     -20      0     -1     21     22 270.0  -3.1  33920  285.53 0855.16
2009/04/23 06:56:22.3     -52      0     18     53     57 270.0  19.2  33916  285.46 0855.16
2009/04/23 06:56:22.4     -58      0     16     59     62 270.8  15.3  33920  285.51 0855.16
2009/04/23 06:56:22.5     -98     -6    -14     99    101 266.1  -8.2  33920  285.53 0855.16
2009/04/23 06:56:22.6    -130    -34    -37    135    141 255.4 -15.5  33918  285.50 0855.16
2009/04/23 06:56:22.7    -120    -61      0    135    136 242.9   0.2  33920  285.53 0855.16
2009/04/23 06:56:22.8    -127    -95    -24    159    161 233.1  -8.8  33918  285.50 0855.17
2009/04/23 06:56:22.9    -102   -108    -32    149    153 223.2 -12.4  33916  285.44 0855.17
2009/04/23 06:56:23.0     -85   -127    -42    154    160 213.8 -15.5  33916  285.44 0855.17
2009/04/23 06:56:23.1     -82    -81    -11    116    117 225.4  -5.6  33918  285.50 0855.17
2009/04/23 06:56:23.2     -71   -109     20    131    133 213.0   9.0  33922  285.55 0855.17
2009/04/23 06:56:23.3     -78    -83     -1    114    115 223.2  -0.7  33922  285.55 0855.17
2009/04/23 06:56:23.4     -84    -95      1    128    129 221.4   0.7  33918  285.50 0855.17
2009/04/23 06:56:23.5     -67   -113    -10    132    133 210.8  -4.6  33920  285.53 0855.17
2009/04/23 06:56:23.6     -51   -119     -1    130    131 203.2  -0.7  33922  285.55 0855.17
2009/04/23 06:56:23.7     -55   -126     -5    138    139 203.6  -2.2  33922  285.56 0855.17
2009/04/23 06:56:23.8     -56   -120    -12    133    134 205.3  -5.2  33920  285.53 0855.17
2009/04/23 06:56:23.9     -73    -77    -29    107    112 223.3 -15.5  33918  285.48 0855.17
2009/04/23 06:56:24.0     -77    -51    -16     93     95 236.7  -9.8  33918  285.50 0855.17
2009/04/23 06:56:24.1     -74    -67      4    100    101 227.8   2.8  33922  285.55 0855.17
2009/04/23 06:56:24.2    -101    -89     31    135    139 228.7  13.2  33922  285.56 0855.17
2009/04/23 06:56:24.3     -79   -101     16    129    131 218.3   7.1  33922  285.55 0855.17
2009/04/23 06:56:24.4     -45    -97     11    107    108 204.9   5.9  33922  285.55 0855.17
2009/04/23 06:56:24.5     -44    -75     20     88     91 210.3  13.2  33922  285.55 0855.17
2009/04/23 06:56:24.6     -53    -86    -12    102    103 211.6  -6.7  33922  285.55 0855.17
2009/04/23 06:56:24.7     -43    -91      6    101    102 205.5   3.8  33920  285.53 0855.17
2009/04/23 06:56:24.8     -40   -107     24    115    118 200.5  12.2  33924  285.60 0855.17
2009/04/23 06:56:24.9     -54   -100     24    114    117 208.5  12.2  33926  285.61 0855.17
2009/04/23 06:56:25.0     -57    -96     22    112    115 210.7  11.1  33924  285.58 0855.17
2009/04/23 06:56:25.1     -79    -74     13    109    110 226.9   7.1  33924  285.58 0855.17
2009/04/23 06:56:25.2     -90    -57      9    107    108 237.6   4.9  33924  285.60 0855.17
2009/04/23 06:56:25.3     -78    -78      2    111    112 224.7   1.2  33924  285.60 0855.17
2009/04/23 06:56:25.4     -82    -93     -4    125    126 221.4  -2.2  33922  285.56 0855.17
2009/04/23 06:56:25.5     -44   -114    -22    123    125 201.4 -10.3  33924  285.58 0855.17
2009/04/23 06:56:25.6     -49   -115    -11    126    127 203.2  -5.2  33924  285.58 0855.17
2009/04/23 06:56:25.7     -68   -133    -19    150    152 207.1  -7.2  33922  285.56 0855.17
2009/04/23 06:56:25.8     -76   -131    -12    152    153 210.3  -4.6  33924  285.58 0855.17
2009/04/23 06:56:25.9     -73   -156    -18    173    175 205.2  -6.2  33924  285.60 0855.17
2009/04/23 06:56:26.0     -74   -134    -19    154    156 208.9  -7.2  33920  285.53 0855.17
2009/04/23 06:56:26.1     -70   -110    -26    131    134 212.5 -11.5  33920  285.53 0855.17
2009/04/23 06:56:26.2     -52   -130    -17    141    143 201.8  -7.2  33924  285.58 0855.17
2009/04/23 06:56:26.3     -61   -115    -16    131    133 208.1  -7.3  33924  285.58 0855.17
2009/04/23 06:56:26.4     -55    -83    -41    100    108 213.8 -27.4  33924  285.58 0855.17
2009/04/23 06:56:26.5     -66    -52    -57     85    102 231.8 -41.4  33920  285.51 0855.17
2009/04/23 06:56:26.6     -84      1    -12     85     86 270.8  -8.2  33918  285.48 0855.17
2009/04/23 06:56:26.7     -85    -44     22     96     99 242.5  13.2  33918  285.50 0855.17
2009/04/23 06:56:26.8     -58    -70      4     92     93 219.6   2.9  33922  285.56 0855.16
2009/04/23 06:56:26.9     -99    -66    -87    120    148 236.3 -44.1  33922  285.55 0855.16
2009/04/23 06:56:27.0     -85    -81    -89    118    147 226.4 -45.6  33920  285.51 0855.16
2009/04/23 06:56:27.1     -41    -87     -3     97     98 205.5  -2.2  33918  285.50 0855.16
2009/04/23 06:56:27.2     -77    -77      6    109    110 225.0   3.3  33920  285.53 0855.16
2009/04/23 06:56:27.3     -85    -57      8    103    104 236.3   4.9  33918  285.50 0855.16
2009/04/23 06:56:27.4     -47    -48     -1     68     69 224.2  -1.2  33916  285.44 0855.16
2009/04/23 06:56:27.5     -29    -32      2     44     45 221.4   2.9  33916  285.44 0855.16
2009/04/23 06:56:27.6     -11    -57    -21     59     63 191.6 -19.7  33918  285.48 0855.16
2009/04/23 06:56:27.7      -3    -72    -23     73     76 182.7 -23.8  33918  285.50 0855.16
2009/04/23 06:56:27.8     -48    -48    -23     69     72 225.1 -23.6  33916  285.44 0855.16
2009/04/23 06:56:27.9     -35    -54    -11     65     67 213.4 -10.3  33914  285.43 0855.16
2009/04/23 06:56:28.0     -56    -57     15     80     82 224.5  11.1  33912  285.39 0855.16
2009/04/23 06:56:28.1     -62    -39     -8     74     75 237.5  -6.2  33912  285.39 0855.16
2009/04/23 06:56:28.2     -58    -54     -1     80     81 226.9  -1.3  33914  285.41 0855.16
2009/04/23 06:56:28.3     -66    -26      4     72     73 248.3   3.8  33918  285.48 0855.16
2009/04/23 06:56:28.4     -38    -34     35     52     62 227.8  37.6  33918  285.50 0855.16
2009/04/23 06:56:28.5     -53    -33     58     63     85 237.6  47.9  33916  285.46 0855.16
2009/04/23 06:56:28.6     -50    -62     57     80     98 218.7  39.5  33916  285.46 0855.16
2009/04/23 06:56:28.7     -42    -29     48     52     70 234.9  47.9  33916  285.44 0855.16
2009/04/23 06:56:28.8     -50    -42     46     66     80 230.4  38.6  33916  285.46 0855.16
2009/04/23 06:56:28.9     -53    -53     50     75     90 225.0  36.5  33916  285.46 0855.16
2009/04/23 06:56:29.0     -67    -57     30     88     94 229.6  18.9  33914  285.43 0855.16
2009/04/23 06:56:29.1     -99    -63    -37    118    123 237.6 -22.3  33914  285.43 0855.16
2009/04/23 06:56:29.2     -90    -35    -10     97     98 248.7  -6.2  33914  285.41 0855.16
2009/04/23 06:56:29.3     -73    -46    -19     87     90 237.6 -12.4  33918  285.48 0855.16
2009/04/23 06:56:29.4     -77    -45    -25     90     94 239.8 -15.5  33916  285.46 0855.16
2009/04/23 06:56:29.5    -119    -23    -48    122    131 259.0 -27.4  33914  285.43 0855.16
2009/04/23 06:56:29.6    -112    -35    -35    118    123 252.7 -21.7  33912  285.39 0855.16
2009/04/23 06:56:29.7     -95    -57    -35    111    117 238.9 -17.6  33912  285.38 0855.16
2009/04/23 06:56:29.8     -86    -66     -3    109    110 232.7  -1.8  33910  285.36 0855.16
2009/04/23 06:56:29.9     -70    -73      7    102    103 224.1   4.4  33914  285.43 0855.16
2009/04/23 06:56:30.0     -72    -49     17     88     90 235.8  11.1  33910  285.36 0855.16
2009/04/23 06:56:30.1     -54    -62     17     83     85 221.0  11.6  33912  285.38 0855.16
2009/04/23 06:56:30.2     -38    -64     22     75     79 210.7  16.3  33910  285.34 0855.16
2009/04/23 06:56:30.3     -52    -95     13    109    110 208.5   7.1  33916  285.46 0855.16
2009/04/23 06:56:30.4     -32   -109     13    114    115 196.5   6.9  33920  285.53 0855.16
2009/04/23 06:56:30.5     125    -97    -71    159    174 127.8 -30.3  33976  286.47 0855.16
2009/04/23 06:56:30.6     -37    -93      3    101    102 201.9   1.8  33922  285.55 0855.16
2009/04/23 06:56:30.7     -20   -113    -13    115    116 190.2  -6.7  33924  285.58 0855.16
2009/04/23 06:56:30.8     -12   -109    -13    110    111 186.7  -7.2  33920  285.51 0855.16
2009/04/23 06:56:30.9     -23   -118    -15    121    122 191.1  -7.2  33922  285.56 0855.16
2009/04/23 06:56:31.0     -31   -116    -11    121    122 195.2  -5.6  33922  285.56 0855.16
2009/04/23 06:56:31.1     -33   -100     -7    106    107 198.3  -4.1  33922  285.55 0855.16
2009/04/23 06:56:31.2     -26   -116      2    120    121 192.9   1.2  33920  285.53 0855.16
2009/04/23 06:56:31.3     -20   -119     -4    121    122 189.7  -2.2  33922  285.55 0855.16
2009/04/23 06:56:31.4      -9   -121    -15    122    123 184.5  -7.3  33922  285.56 0855.16
2009/04/23 06:56:31.5      -3   -116     -8    117    118 181.8  -4.1  33922  285.55 0855.16
2009/04/23 06:56:31.6     -13   -112     -7    113    114 186.7  -3.7  33924  285.58 0855.16
2009/04/23 06:56:31.7      -8   -107      0    108    109 184.4  -0.3  33922  285.56 0855.16
2009/04/23 06:56:31.8     -21   -131      0    133    134 189.3   0.2  33922  285.56 0855.15
2009/04/23 06:56:31.9     -27   -124      9    128    129 192.5   4.4  33922  285.55 0855.15
2009/04/23 06:56:32.0     -36    -95     27    102    106 200.9  15.3  33924  285.58 0855.15
2009/04/23 06:56:32.1     -23   -104     20    107    110 192.9  11.0  33924  285.58 0855.15
2009/04/23 06:56:32.2      -1   -130      6    131    132 180.5   2.9  33924  285.60 0855.15
2009/04/23 06:56:32.3       2   -130     11    131    132 179.1   4.9  33924  285.60 0855.15
2009/04/23 06:56:32.4      13   -131      1    132    133 174.2   0.8  33926  285.61 0855.15
2009/04/23 06:56:32.5      12   -163      2    164    165 175.5   0.8  33926  285.63 0855.15
2009/04/23 06:56:32.6     -41   -167     20    172    174 193.8   6.9  33922  285.55 0855.15
2009/04/23 06:56:32.7     -60   -140      7    153    154 203.2   2.9  33920  285.51 0855.15
2009/04/23 06:56:32.8     -47   -140     32    148    152 198.7  12.2  33922  285.55 0855.15
2009/04/23 06:56:32.9     -47   -149     47    157    164 197.6  16.8  33924  285.58 0855.15
2009/04/23 06:56:33.0     -52   -169     18    177    178 197.2   5.9  33928  285.66 0855.15
2009/04/23 06:56:33.1     -63   -158      6    171    172 201.8   2.1  33926  285.63 0855.15
2009/04/23 06:56:33.2     -76   -152     -6    171    172 206.7  -2.2  33928  285.65 0855.15
2009/04/23 06:56:33.3     -58   -178    -16    188    189 198.0  -4.9  33928  285.66 0855.15
2009/04/23 06:56:33.4     -67   -190     -7    202    203 199.4  -2.2  33926  285.61 0855.15
2009/04/23 06:56:33.5     -35   -192      7    196    197 190.5   2.1  33922  285.56 0855.15
2009/04/23 06:56:33.6     -83   -183    -19    202    203 204.5  -5.6  33924  285.60 0855.15
2009/04/23 06:56:33.7     -89   -213    -29    231    233 202.7  -7.3  33924  285.59 0855.15
2009/04/23 06:56:33.8     -64   -149    -29    163    166 203.2 -10.1  33924  285.58 0855.15
2009/04/23 06:56:33.9     -40   -138    -16    144    145 196.5  -6.7  33922  285.55 0855.15
2009/04/23 06:56:34.0     -29   -137     41    141    147 192.0  16.3  33920  285.53 0855.15
2009/04/23 06:56:34.1     -45   -138     34    146    150 198.3  13.2  33922  285.56 0855.15
2009/04/23 06:56:34.2     -62   -112     67    129    145 208.9  29.8  33922  285.55 0855.15
2009/04/23 06:56:34.3     -45   -125     75    134    153 200.0  31.4  33922  285.56 0855.15
2009/04/23 06:56:34.4     -38   -115     56    122    134 198.3  27.1  33924  285.58 0855.15
2009/04/23 06:56:34.5     -41   -103     36    111    117 201.9  18.4  33924  285.58 0855.15
2009/04/23 06:56:34.6     -66    -81     13    105    106 219.2   7.1  33924  285.58 0855.15
2009/04/23 06:56:34.7     -62    -69      1     94     95 221.9   0.8  33924  285.60 0855.15
2009/04/23 06:56:34.8     -83    -49      1     97     98 239.3   0.8  33926  285.61 0855.15
2009/04/23 06:56:34.9     -43    -69     -9     82     83 212.1  -6.7  33926  285.61 0855.15
2009/04/23 06:56:35.0     -23    -48    -15     54     57 205.5 -15.5  33922  285.56 0855.15
2009/04/23 06:56:35.1       4    -53      2     54     55 175.6   2.8  33922  285.55 0855.15
2009/04/23 06:56:35.2     -12    -85     28     86     91 188.5  17.9  33922  285.56 0855.15
2009/04/23 06:56:35.3     -42   -106     -5    115    116 201.9  -2.6  33924  285.58 0855.15
2009/04/23 06:56:35.4     -27    -91    -15     96     98 196.9  -8.8  33920  285.53 0855.15
2009/04/23 06:56:35.5     -27    -97     24    101    104 195.6  13.7  33924  285.60 0855.15
2009/04/23 06:56:35.6     -34   -102     43    108    116 198.7  23.0  33922  285.55 0855.15
2009/04/23 06:56:35.7     -41   -123     21    130    132 198.7   9.5  33922  285.56 0855.15
2009/04/23 06:56:35.8     -41   -107    -14    115    116 201.4  -7.3  33922  285.56 0855.15
2009/04/23 06:56:35.9     -77   -115    -37    139    144 213.8 -15.0  33922  285.55 0855.15
2009/04/23 06:56:36.0     -88   -167    -25    190    192 207.9  -7.7  33918  285.50 0855.15
2009/04/23 06:56:36.1    -151    -49    -51    159    166 251.8 -23.3  33924  285.58 0855.15
2009/04/23 06:56:36.2    -179    -62    -49    190    197 250.7 -14.7  33918  285.48 0855.15
2009/04/23 06:56:36.3    -265   -130    -26    296    298 243.8  -5.1  33916  285.44 0855.15
2009/04/23 06:56:36.4    -246   -141    -62    284    291 240.2 -12.4  33918  285.49 0855.15
2009/04/23 06:56:36.5    -173   -143    -60    225    233 230.4 -15.0  33916  285.44 0855.15
2009/04/23 06:56:36.6    -157   -186    -53    244    250 220.1 -12.4  33920  285.51 0855.15
2009/04/23 06:56:36.7    -139   -166     -8    217    218 220.1  -2.3  33914  285.43 0855.15
2009/04/23 06:56:36.8    -177   -161    -28    240    242 227.6  -6.7  33920  285.51 0855.15
2009/04/23 06:56:36.9    -163   -154      0    225    226 226.7   0.2  33920  285.51 0855.15
2009/04/23 06:56:37.0    -145   -146     34    207    210 224.8   9.5  33918  285.50 0855.15
2009/04/23 06:56:37.1    -136   -154    -11    206    207 221.5  -3.1  33920  285.53 0855.15
2009/04/23 06:56:37.2    -103   -175    -26    204    206 210.5  -7.3  33922  285.56 0855.15
2009/04/23 06:56:37.3    -110    -79    -27    136    139 234.0 -11.3  33920  285.53 0855.15
2009/04/23 06:56:37.4    -135   -115    -34    178    182 229.6 -10.9  33922  285.56 0855.15
2009/04/23 06:56:37.5    -104    -97    -28    143    146 226.8 -11.3  33926  285.63 0855.15
2009/04/23 06:56:37.6     -82    -69     -4    108    109 229.6  -2.2  33926  285.61 0855.15
2009/04/23 06:56:37.7    -133    -29    -74    137    155 257.6 -35.7  33922  285.56 0855.15
2009/04/23 06:56:37.8    -152    -84    -71    174    187 240.9 -27.5  33926  285.61 0855.16
2009/04/23 06:56:37.9    -156    -97    -57    184    192 238.0 -22.5  33926  285.61 0855.16
2009/04/23 06:56:38.0     -86    -49    -59    100    116 240.2 -38.4  33926  285.63 0855.16
2009/04/23 06:56:38.1      -4   -103     -4    104    105 182.2  -2.2  33922  285.56 0855.16
2009/04/23 06:56:38.2      -7   -127     24    128    131 183.1  11.0  33916  285.44 0855.16
2009/04/23 06:56:38.3       0   -149     41    150    156 180.4  15.6  33916  285.46 0855.16
2009/04/23 06:56:38.4      -9   -190     46    191    197 182.9  13.5  33918  285.50 0855.16
2009/04/23 06:56:38.6     -10   -154     66    155    168 184.0  24.3  33916  285.46 0855.16
2009/04/23 06:56:38.7     -22   -123     79    126    148 190.2  35.5  33918  285.50 0855.16
2009/04/23 06:56:38.7      27   -151     80    154    173 169.8  29.8  33916  285.44 0855.16
2009/04/23 06:56:38.9      32   -164     78    168    185 168.9  27.0  33922  285.55 0855.16
2009/04/23 06:56:38.9      43   -139     82    146    167 162.6  31.9  33924  285.58 0855.16
2009/04/23 06:56:39.0      44   -138    106    145    179 162.2  39.7  33922  285.56 0855.16
2009/04/23 06:56:39.1      47   -136     56    145    155 160.8  21.5  33926  285.61 0855.16
2009/04/23 06:56:39.3       8   -115     62    116    131 175.6  30.3  33924  285.60 0855.16
2009/04/23 06:56:39.3      15   -102     56    104    118 171.5  30.8  33924  285.58 0855.16
2009/04/23 06:56:39.5      16    -80     42     82     92 168.4  28.7  33924  285.58 0855.16
2009/04/23 06:56:39.5      16   -114     82    116    142 172.0  39.5  33924  285.58 0855.16
2009/04/23 06:56:39.6      40    -63     91     75    117 147.5  56.3  33924  285.58 0855.16
2009/04/23 06:56:39.8     -19    -58     86     62    106 198.5  60.6  33924  285.58 0855.16
2009/04/23 06:56:39.9      -8   -109     98    110    147 184.5  46.4  33922  285.56 0855.16
2009/04/23 06:56:39.9      -1    -82     77     83    113 180.9  48.0  33924  285.58 0855.16
2009/04/23 06:56:40.1      15    -57     68     60     90 164.9  54.3  33924  285.58 0855.16
2009/04/23 06:56:40.1       8    -30     55     32     63 164.9  67.7  33926  285.63 0855.16
2009/04/23 06:56:40.2      -7    -26     46     27     53 195.1  66.8  33924  285.58 0855.16
2009/04/23 06:56:40.3       2      0     51      3     51  90.0  90.0  33920  285.51 0855.16
2009/04/23 06:56:40.5      10      0     45     11     46  85.6  85.9  33926  285.61 0855.16
2009/04/23 06:56:40.6       7    -45     35     46     57 171.1  41.7  33922  285.56 0855.16
2009/04/23 06:56:40.7     -26    -56     53     62     81 205.4  45.4  33926  285.61 0855.16
2009/04/23 06:56:40.8     -23    -58     56     63     84 201.9  46.9  33924  285.58 0855.16
2009/04/23 06:56:40.9     -19    -58     33     62     70 198.3  30.3  33924  285.58 0855.16
2009/04/23 06:56:41.0     -26    -29     26     40     47 221.4  35.6  33922  285.55 0855.16
2009/04/23 06:56:41.1     -36    -22      3     43     44 238.5   4.9  33924  285.60 0855.16
2009/04/23 06:56:41.2     -63    -10     22     64     68 260.3  19.4  33924  285.58 0855.16
2009/04/23 06:56:41.3     -45      7     21     46     50 279.7  27.1  33922  285.55 0855.16
2009/04/23 06:56:41.4     -12     61     21     63     67 348.4  18.4  33920  285.53 0855.16
2009/04/23 06:56:41.5     -60     38     -3     72     73 302.4  -3.1  33920  285.53 0855.16
2009/04/23 06:56:41.6     -84     33     -3     91     92 291.7  -2.2  33920  285.51 0855.16
2009/04/23 06:56:41.7     -71     66     11     98     99 313.1   6.5  33920  285.53 0855.16
2009/04/23 06:56:41.8     -49     77      6     92     93 327.5   3.8  33920  285.53 0855.16
2009/04/23 06:56:41.9     -64     71     51     96    108 318.1  30.3  33920  285.53 0855.17
2009/04/23 06:56:42.0     -55     57     46     80     92 315.8  32.9  33920  285.51 0855.17
2009/04/23 06:56:42.1     -57     69     27     90     95 320.3  16.8  33918  285.48 0855.17
2009/04/23 06:56:42.2     -60     11     -2     62     63 280.6  -2.2  33918  285.50 0855.17
2009/04/23 06:56:42.3       6     18     -6     19     19  18.5 -23.8  33918  285.50 0855.17
2009/04/23 06:56:42.4       6    -17     26     19     32 161.3  60.5  33920  285.53 0855.17
2009/04/23 06:56:42.5     -15    -58     64     61     88 195.2  50.7  33922  285.56 0855.17
2009/04/23 06:56:42.6     -83    -49     24     97    101 239.3  14.3  33920  285.53 0855.17
2009/04/23 06:56:42.7     -67    -61     35     91     97 227.8  21.5  33922  285.55 0855.17
2009/04/23 06:56:42.8     -43    -75     37     87     94 210.3  24.6  33924  285.58 0855.17
2009/04/23 06:56:42.9     -28    -78     38     83     91 200.0  26.6  33924  285.58 0855.17
2009/04/23 06:56:43.0     -27    -68     21     74     78 201.8  16.3  33920  285.53 0855.17
2009/04/23 06:56:43.1     -82    -38     -8     91     92 245.2  -5.6  33922  285.55 0855.17
2009/04/23 06:56:43.2    -101      7     12    102    103 274.3   7.1  33920  285.53 0855.17
2009/04/23 06:56:43.3     -80     -3     -5     81     82 267.4  -4.1  33918  285.50 0855.17
2009/04/23 06:56:43.4     -63    -21    -20     67     70 251.4 -16.6  33922  285.55 0855.17
2009/04/23 06:56:43.5     -64     -8      0     65     66 262.1   0.8  33926  285.61 0855.17
2009/04/23 06:56:43.6     -60    -25      4     66     67 247.4   3.8  33922  285.56 0855.17
2009/04/23 06:56:43.7     -80    -52      3     96     97 236.7   2.3  33924  285.58 0855.17
2009/04/23 06:56:43.8     -74    -32     -7     81     82 246.5  -5.2  33922  285.55 0855.17
2009/04/23 06:56:43.9     -95    -74      0    121    122 231.8  -0.3  33924  285.60 0855.17
2009/04/23 06:56:44.0    -139   -101      4    172    173 234.0   1.6  33920  285.51 0855.17
2009/04/23 06:56:44.1    -127    -60     -3    141    142 244.6  -1.3  33924  285.58 0855.17
2009/04/23 06:56:44.2    -210    -64     -8    220    221 252.9  -2.2  33942  285.90 0855.17
2009/04/23 06:56:44.3    -188     60    -91    198    217 287.9 -30.8  33944  285.92 0855.17
2009/04/23 06:56:44.4    -172     21    -97    174    199 277.2 -35.8  33934  285.75 0855.17
2009/04/23 06:56:44.5    -168    -14    -52    169    176 265.2 -22.1  33940  285.87 0855.17
2009/04/23 06:56:44.6    -204    -27    -66    206    217 262.3 -17.9  33938  285.83 0855.17
2009/04/23 06:56:44.7    -215     16    -84    216    231 274.4 -26.9  33942  285.90 0855.17
2009/04/23 06:56:44.8    -179      0    -79    180    196 270.0 -29.5  33944  285.93 0855.17
2009/04/23 06:56:44.9    -157    -14   -137    158    209 264.8 -49.8  33942  285.88 0855.17
2009/04/23 06:56:45.0    -207      9    -90    208    226 272.6 -29.5  33932  285.73 0855.17
2009/04/23 06:56:45.1    -199     21    -69    201    212 276.1 -23.6  33930  285.70 0855.17
2009/04/23 06:56:45.2    -155     44    -57    162    172 285.9 -19.6  33926  285.61 0855.17
2009/04/23 06:56:45.3    -185     64    -79    196    211 289.1 -27.4  33930  285.68 0855.17
2009/04/23 06:56:45.4    -207     63    -27    217    219 286.9  -7.3  33930  285.68 0855.17
2009/04/23 06:56:45.5    -239     71    -69    250    259 286.6 -20.0  33936  285.77 0855.17
2009/04/23 06:56:45.6    -227     60    -25    235    237 285.0  -6.2  33926  285.62 0855.17
2009/04/23 06:56:45.7    -186     46    -60    192    202 284.2 -17.3  33930  285.70 0855.17
2009/04/23 06:56:45.8    -167     55    -51    177    185 288.4 -16.0  33932  285.71 0855.17
2009/04/23 06:56:45.9    -175     82    -57    194    202 295.2 -21.2  33942  285.90 0855.17
2009/04/23 06:56:46.0    -201     89    -59    220    229 294.0 -15.2  33948  285.98 0855.17
2009/04/23 06:56:46.1    -187    124    -28    225    227 303.5  -7.3  33928  285.65 0855.17
2009/04/23 06:56:46.2    -191    138    -43    236    241 306.0 -10.5  33928  285.66 0855.17
2009/04/23 06:56:46.3    -221    140    -66    262    271 302.4 -14.3  33924  285.57 0855.17
2009/04/23 06:56:46.4    -219    158    -73    271    281 305.9 -15.2  33924  285.59 0855.17
2009/04/23 06:56:46.5    -158    168      6    231    232 316.8   1.6  33916  285.44 0855.17
2009/04/23 06:56:46.6    -196    155     26    251    253 308.4   5.9  33922  285.54 0855.17
2009/04/23 06:56:46.7    -202    111    -44    231    236 298.9 -10.9  33928  285.64 0855.17
2009/04/23 06:56:46.8    -188     74    -72    203    216 291.5 -19.7  33924  285.60 0855.17
2009/04/23 06:56:46.9    -188     73    -72    202    215 291.3 -19.6  33924  285.60 0855.17
2009/04/23 06:56:47.0    -199     96    -47    221    227 295.8 -12.2  33926  285.63 0855.17
2009/04/23 06:56:47.1    -195    123    -59    231    239 302.4 -14.5  33938  285.83 0855.17
2009/04/23 06:56:47.2    -182    138    -67    229    239 307.1 -16.4  33938  285.81 0855.17
2009/04/23 06:56:47.3    -192    144    -56    241    248 306.9 -13.2  33938  285.81 0855.17
2009/04/23 06:56:47.4    -183    134    -48    228    234 306.2 -11.9  33934  285.76 0855.17
2009/04/23 06:56:47.5    -154     70    -51    170    178 294.6 -16.8  33926  285.63 0855.17
2009/04/23 06:56:47.6    -208     77    -65    222    231 290.4 -21.2  33926  285.61 0855.17
2009/04/23 06:56:47.7    -184    101    -75    211    224 298.9 -19.6  33940  285.87 0855.17
2009/04/23 06:56:47.8    -174     99    -71    201    213 299.8 -24.4  33946  285.95 0855.17
2009/04/23 06:56:47.9    -155    102    -65    186    197 303.5 -24.6  33934  285.75 0855.17
2009/04/23 06:56:48.0    -156     89    -58    180    189 299.8 -23.3  33928  285.65 0855.17
2009/04/23 06:56:48.1    -145     91    -79    172    189 302.2 -31.0  33926  285.61 0855.17
2009/04/23 06:56:48.2    -161     90    -84    185    203 299.1 -30.3  33926  285.63 0855.17
2009/04/23 06:56:48.3    -163     77    -85    181    199 295.3 -31.5  33928  285.65 0855.17
2009/04/23 06:56:48.4    -132     72    -83    151    172 298.9 -35.8  33928  285.66 0855.17
2009/04/23 06:56:48.5    -145     52    -66    155    168 290.0 -28.7  33928  285.66 0855.17
2009/04/23 06:56:48.6    -110     74    -76    133    153 304.2 -36.8  33952  286.07 0855.17
2009/04/23 06:56:48.7     -91     77    -62    120    135 310.0 -33.7  33960  286.19 0855.17
2009/04/23 06:56:48.8     -83     84    -63    119    134 315.5 -34.7  33964  286.27 0855.17
2009/04/23 06:56:48.9     -63     95    -68    115    133 326.2 -37.9  33958  286.15 0855.17
2009/04/23 06:56:49.0     -58     95    -65    112    129 328.8 -37.3  33960  286.19 0855.17
2009/04/23 06:56:49.1     -80     66    -62    105    121 309.6 -37.8  33952  286.07 0855.17
2009/04/23 06:56:49.2     -65     58    -30     88     92 311.8 -23.3  33956  286.14 0855.17
2009/04/23 06:56:49.3     -34     49    -40     60     72 324.8 -40.9  33956  286.14 0855.17
2009/04/23 06:56:49.4     -23     58    -50     63     80 338.1 -47.1  33954  286.10 0855.17
2009/04/23 06:56:49.5     -13     50    -36     52     63 344.9 -43.0  33956  286.12 0855.17
2009/04/23 06:56:49.6     -22     39    -56     45     71 330.1 -60.8  33948  285.98 0855.17
2009/04/23 06:56:49.7     -25     25    -57     36     67 315.0 -69.1  33940  285.87 0855.17
2009/04/23 06:56:49.8      23     70    -25     74     78  18.7 -23.6  33954  286.10 0855.17
2009/04/23 06:56:49.9      36     79    -44     87     97  24.5 -32.6  33960  286.19 0855.17
2009/04/23 06:56:50.0      -7     34    -66     35     74 348.4 -74.2  33956  286.12 0855.17
2009/04/23 06:56:50.1     -13     67    -62     69     92 348.4 -51.3  33956  286.14 0855.17
2009/04/23 06:56:50.2       6     87    -53     88    102   4.5 -38.4  33966  286.30 0855.17
2009/04/23 06:56:50.3      22     93    -56     96    111  13.4 -37.3  33966  286.30 0855.17
2009/04/23 06:56:50.4      48    102    -76    114    137  25.4 -41.4  33964  286.25 0855.17
2009/04/23 06:56:50.5      43    109    -59    118    131  21.4 -32.6  33958  286.15 0855.17
2009/04/23 06:56:50.6     -15     75    -68     77    102 348.4 -50.8  33958  286.15 0855.17
2009/04/23 06:56:50.7     -58     42    -74     72    103 306.0 -54.5  33942  285.90 0855.17
2009/04/23 06:56:50.8    -109     77    -78    134    155 305.1 -37.8  33924  285.58 0855.17
2009/04/23 06:56:50.9    -138     80   -109    160    193 300.4 -41.7  33926  285.61 0855.17
2009/04/23 06:56:51.0    -116    116   -104    165    195 314.9 -39.9  33928  285.65 0855.17
2009/04/23 06:56:51.1    -112    112    -54    159    169 315.1 -18.9  33924  285.58 0855.17
2009/04/23 06:56:51.2    -118    123    -17    171    172 316.1  -6.0  33928  285.66 0855.17
2009/04/23 06:56:51.3    -130    114     -6    173    174 311.3  -2.2  33930  285.68 0855.17
2009/04/23 06:56:51.4    -156     91    -38    181    185 300.4 -11.9  33930  285.70 0855.17
2009/04/23 06:56:51.5    -137    104    -29    173    176 307.1  -9.6  33932  285.71 0855.17
2009/04/23 06:56:51.6    -105    133      8    170    171 321.5   2.8  33928  285.65 0855.17
2009/04/23 06:56:51.7     -80     85     33    117    122 316.8  15.8  33930  285.68 0855.17
2009/04/23 06:56:51.8     -88     97     23    132    135 317.7  10.1  33930  285.68 0855.17
2009/04/23 06:56:51.9    -123     72     39    143    149 300.2  15.3  33934  285.75 0855.16
2009/04/23 06:56:52.0    -194     13     16    195    196 273.9   4.9  33928  285.65 0855.16
2009/04/23 06:56:52.1    -157      0     20    158    160 270.0   7.2  33926  285.63 0855.16
2009/04/23 06:56:52.2    -106      0     45    107    116 270.0  24.1  33926  285.61 0855.16
2009/04/23 06:56:52.3    -130     42     -4    137    138 288.2  -1.8  33926  285.63 0855.16
2009/04/23 06:56:52.4    -146     28    -45    149    155 281.0 -22.3  33924  285.58 0855.16
2009/04/23 06:56:52.5    -146    -12    -47    147    154 265.2 -23.8  33926  285.63 0855.16
2009/04/23 06:56:52.6    -126    -10    -41    127    133 265.2 -23.8  33924  285.58 0855.16
2009/04/23 06:56:52.7    -122    -20     23    124    127 260.4  10.6  33922  285.55 0855.16
2009/04/23 06:56:52.8    -131     11     47    132    140 274.8  20.0  33926  285.63 0855.16
2009/04/23 06:56:52.9     -56     53     15     78     80 313.2  11.1  33926  285.63 0855.15
2009/04/23 06:56:53.0     -66     39     26     77     82 300.7  19.2  33930  285.70 0855.15
2009/04/23 06:56:53.2     -98     32    -10    104    105 288.2  -5.6  33932  285.71 0855.15
2009/04/23 06:56:53.3     -96     51      3    109    110 298.0   1.8  33936  285.80 0855.15
2009/04/23 06:56:53.4    -103     -2    -28    104    108 268.7 -15.5  33934  285.75 0855.15
2009/04/23 06:56:53.5    -138    -27     21    141    143 258.6   8.5  33932  285.71 0855.15
2009/04/23 06:56:53.6    -110     49     22    121    124 294.0  10.6  33934  285.75 0855.15
2009/04/23 06:56:53.7     -75     53     23     93     96 305.5  14.3  33934  285.76 0855.15
2009/04/23 06:56:53.8     -46     19     47     50     68 292.6  49.0  33936  285.78 0855.15
2009/04/23 06:56:53.9     -47    -10     46     49     67 257.6  48.0  33940  285.85 0855.15
2009/04/23 06:56:54.0     -56    -11     38     58     69 258.5  35.6  33942  285.90 0855.15
2009/04/23 06:56:54.1     -44    -28     44     53     68 237.6  43.8  33940  285.87 0855.15
2009/04/23 06:56:54.2     -35    -49     79     61     99 216.1  58.5  33940  285.87 0855.15
2009/04/23 06:56:54.3     -29    -34     70     46     83 220.5  64.1  33938  285.82 0855.15
2009/04/23 06:56:54.4     -29    -34     57     45     72 220.5  56.4  33938  285.82 0855.15
2009/04/23 06:56:54.5     -52    -30     59     61     84 240.2  50.0  33938  285.82 0855.15
2009/04/23 06:56:54.6     -55    -24     40     61     72 246.5  35.6  33934  285.76 0855.15
2009/04/23 06:56:54.7     -36    -17     45     40     60 244.7  53.3  33938  285.82 0855.15
2009/04/23 06:56:54.8     -27    -18     21     33     39 235.8  35.5  33938  285.82 0855.15
2009/04/23 06:56:54.9       0    -14     32     15     35 182.7  72.9  33936  285.80 0855.15
2009/04/23 06:56:55.0       4      2     26      5     26  57.6  90.0  33938  285.82 0855.15
2009/04/23 06:56:55.1      10     -9     32     14     34 133.1  73.1  33936  285.78 0855.15
2009/04/23 06:56:55.2       0    -38     40     39     55 180.9  49.1  33934  285.76 0855.15
2009/04/23 06:56:55.3      -3    -30     35     31     46 186.2  53.3  33934  285.76 0855.15
2009/04/23 06:56:55.4     -37     -2     16     38     41 265.6  24.1  33932  285.73 0855.15
2009/04/23 06:56:55.5     -80     22     11     84     85 285.5   7.5  33934  285.76 0855.15
2009/04/23 06:56:55.6    -119    -36     24    125    128 253.1  11.1  33932  285.71 0855.15
2009/04/23 06:56:55.7     -86    -16    -18     88     90 259.0 -11.9  33936  285.80 0855.15
2009/04/23 06:56:55.8     -25     38     11     46     48 325.7  14.3  33934  285.76 0855.15
2009/04/23 06:56:56.0      11     34     43     36     56  18.7  56.3  33934  285.75 0855.15
2009/04/23 06:56:56.1      14     42     28     45     53  18.5  35.5  33932  285.73 0855.15
2009/04/23 06:56:56.2      32     16     22     37     43  62.9  33.5  33934  285.75 0855.15
2009/04/23 06:56:56.3      32     20     19     39     43  57.6  27.2  33932  285.73 0855.15
2009/04/23 06:56:56.4      28    -13     30     31     43 115.4  50.0  33934  285.75 0855.15
2009/04/23 06:56:56.5     -31    -31     49     44     65 225.1  52.2  33934  285.76 0855.15
2009/04/23 06:56:56.6     -43    -36     82     57     99 230.4  61.5  33928  285.66 0855.15
2009/04/23 06:56:56.7       7    -23     75     25     79 161.5  81.0  33922  285.56 0855.15
2009/04/23 06:56:56.8      11    -80    106     81    133 172.0  58.5  33924  285.58 0855.15
2009/04/23 06:56:56.9      -9   -125     84    126    151 184.4  37.0  33922  285.56 0855.15
2009/04/23 06:56:57.0     -41   -122    109    129    168 198.7  44.3  33924  285.58 0855.15
2009/04/23 06:56:57.1     -41   -103    126    112    168 201.9  53.7  33926  285.63 0855.15
2009/04/23 06:56:57.2     -60    -77    103     98    142 217.8  51.6  33924  285.60 0855.15
2009/04/23 06:56:57.3     -51    -80     98     95    136 212.6  50.2  33924  285.60 0855.15
2009/04/23 06:56:57.4     -45    -58     83     74    111 217.8  53.7  33920  285.53 0855.15
2009/04/23 06:56:57.5     -37    -41     95     56    110 222.3  66.8  33922  285.56 0855.15
2009/04/23 06:56:57.6     -18      6     74     19     76 288.6  84.9  33924  285.60 0855.15
2009/04/23 06:56:57.7     -17     39     62     43     75 336.4  62.6  33924  285.60 0855.15
2009/04/23 06:56:57.8     -14     47     67     50     83 343.1  59.4  33924  285.60 0855.15
2009/04/23 06:56:57.9       0     62     95     63    113 359.1  64.1  33924  285.58 0855.15
2009/04/23 06:56:58.0      54     39     66     67     94  54.0  50.5  33926  285.63 0855.15
2009/04/23 06:56:58.1      79     16     67     81    105  78.5  43.8  33930  285.68 0855.15
2009/04/23 06:56:58.2     100      9     80    101    128  84.3  42.7  33926  285.63 0855.15
2009/04/23 06:56:58.3     111     -3     95    112    146  91.7  44.3  33924  285.58 0855.15
2009/04/23 06:56:58.4      91      0     88     92    127  90.0  49.0  33922  285.56 0855.15
2009/04/23 06:56:58.5      29     30     86     43     96  44.1  71.9  33926  285.61 0855.15
2009/04/23 06:56:58.6      44    -14     90     47    101 108.2  70.4  33926  285.63 0855.15
2009/04/23 06:56:58.7      79      0     60     80    100  90.0  40.7  33926  285.63 0855.15
2009/04/23 06:56:58.8      81     -6     52     82     97  94.8  35.5  33924  285.60 0855.15
2009/04/23 06:56:58.9      72     -5     57     73     92  94.4  42.7  33924  285.60 0855.16
2009/04/23 06:56:59.0      63    -14     62     65     89 103.3  49.0  33922  285.55 0855.16
2009/04/23 06:56:59.1      77     -5     58     78     97  94.3  40.7  33924  285.58 0855.16
2009/04/23 06:56:59.2      97     13     39     98    105  82.1  23.0  33924  285.60 0855.16
2009/04/23 06:56:59.3     104     13     10    105    106  82.5   5.4  33928  285.66 0855.16
2009/04/23 06:56:59.4     137      5     61    138    150  87.9  25.2  33924  285.60 0855.16
2009/04/23 06:56:59.5     106    -10     90    107    139  95.7  43.8  33924  285.58 0855.16
2009/04/23 06:56:59.6      98      8     75     99    124  85.2  41.2  33924  285.58 0855.16
2009/04/23 06:56:59.7     136     10     97    137    167  85.7  38.8  33922  285.55 0855.16
2009/04/23 06:56:59.8     111      5     60    112    127  87.0  30.8  33930  285.68 0855.16
2009/04/23 06:56:59.9      99     -7     64    100    118  94.4  35.6  33938  285.82 0855.16
2009/04/23 06:57:00.0      67    -33     75     75    106 116.2  50.1  33932  285.71 0855.16
2009/04/23 06:57:00.1      68      0     72     69     99  90.0  51.2  33952  286.05 0855.16
2009/04/23 06:57:00.2      70     33     46     78     90  64.8  33.5  33954  286.08 0855.16
2009/04/23 06:57:00.3      91     18     45     93    103  78.5  27.3  33970  286.35 0855.16
2009/04/23 06:57:00.4      82     41     57     92    108  63.4  35.5  33988  286.67 0855.16
2009/04/23 06:57:00.5     103     34     65    109    126  71.4  33.5  33974  286.44 0855.16
2009/04/23 06:57:00.6      86      5     57     87    104  86.5  36.0  33966  286.29 0855.16
2009/04/23 06:57:00.7     112     -8     94    113    146  94.3  43.8  33936  285.78 0855.16
2009/04/23 06:57:00.8     121     12     90    122    151  84.3  39.7  33934  285.75 0855.16
2009/04/23 06:57:00.9     110     10     99    111    148  84.8  46.4  33928  285.66 0855.15
2009/04/23 06:57:01.0      96     37     88    104    136  68.7  44.3  33946  285.97 0855.15
2009/04/23 06:57:01.1      92     21     99     95    137  76.7  51.6  33944  285.93 0855.15
2009/04/23 06:57:01.2     102    -11     66    103    122  96.6  35.6  33934  285.75 0855.15
2009/04/23 06:57:01.3      54    -15     40     57     69 105.9  38.6  33928  285.66 0855.15
2009/04/23 06:57:01.4      70    -18     68     73     99 105.1  48.0  33940  285.85 0855.15
2009/04/23 06:57:01.5      83    -16     31     85     90 101.0  21.0  33934  285.76 0855.15
2009/04/23 06:57:01.6      76      3     22     77     81  87.4  16.3  33936  285.78 0855.15
2009/04/23 06:57:01.7      43      3     35     44     56  84.8  43.7  33938  285.82 0855.15
2009/04/23 06:57:01.8      27     11     54     30     61  68.3  68.8  33944  285.92 0855.15
2009/04/23 06:57:01.9     -13     30     47     33     57 336.4  61.5  33942  285.90 0855.15
2009/04/23 06:57:02.0      -9      9     28     14     31 315.0  72.8  33936  285.78 0855.15
2009/04/23 06:57:02.1     -46    -11     32     48     57 255.8  35.6  33932  285.73 0855.15
2009/04/23 06:57:02.2      -2     -3     24      4     24 212.5  90.0  33930  285.70 0855.15
2009/04/23 06:57:02.3      18    -14     36     24     43 127.8  62.6  33926  285.63 0855.15
2009/04/23 06:57:02.4      51     -3     50     52     72  93.5  50.0  33920  285.53 0855.15
2009/04/23 06:57:02.5      72      5     50     73     88  85.6  37.6  33920  285.53 0855.15
2009/04/23 06:57:02.6      72      7     39     73     82  83.9  30.3  33920  285.51 0855.15
2009/04/23 06:57:02.7      34    -25     28     43     51 126.0  35.6  33920  285.51 0855.15
2009/04/23 06:57:02.8      52     -3     64     53     83  94.3  55.8  33918  285.48 0855.15
2009/04/23 06:57:02.9      52     16     51     55     75  72.3  47.9  33924  285.58 0855.16
2009/04/23 06:57:03.0      43     41     51     60     78  45.9  45.4  33942  285.88 0855.16
2009/04/23 06:57:03.1       8     25     54     27     60  18.7  71.9  33952  286.07 0855.16
2009/04/23 06:57:03.2     -56     68     30     89     95 320.4  18.9  34006  286.98 0855.16
2009/04/23 06:57:03.3     -67     68      5     96     97 315.3   3.3  33984  286.61 0855.16
2009/04/23 06:57:03.4     -40    -33     41     53     67 230.5  41.7  33988  286.66 0855.16
2009/04/23 06:57:03.5       6    -42     41     43     59 171.1  49.0  33952  286.07 0855.16
2009/04/23 06:57:03.6      48    -44     65     66     92 132.2  50.5  33924  285.60 0855.16
2009/04/23 06:57:03.7      71    -43     86     84    120 121.5  50.1  33924  285.60 0855.16
2009/04/23 06:57:03.8      50     -5     78     51     93  96.1  64.1  33938  285.82 0855.16
2009/04/23 06:57:03.9       0    -31     38     32     49 180.9  56.3  33936  285.78 0855.16
2009/04/23 06:57:04.0       8    -23     49     25     55 161.3  70.8  33930  285.70 0855.16
2009/04/23 06:57:04.1      24      4     38     25     45  80.3  64.6  33932  285.73 0855.16
2009/04/23 06:57:04.2      90     -9     65     91    111  95.7  39.5  33942  285.90 0855.16
2009/04/23 06:57:04.3     101    -47     63    112    128 115.2  31.9  33936  285.80 0855.16
2009/04/23 06:57:04.4      97    -39     65    105    123 111.8  35.5  33932  285.71 0855.16
2009/04/23 06:57:04.5      99    -32     50    105    116 108.2  27.2  33936  285.80 0855.16
2009/04/23 06:57:04.7      58    -33     52     67     84 119.8  41.7  33950  286.02 0855.16
2009/04/23 06:57:04.7      -2      6     41      7     41 341.7  90.0  33962  286.24 0855.16
2009/04/23 06:57:04.8      17     54     38     57     68  17.8  35.6  33970  286.37 0855.16
2009/04/23 06:57:04.9      29     46     -8     55     56  32.6  -8.2  33978  286.51 0855.16
2009/04/23 06:57:05.1      28     45    -41     54     67  31.6 -45.1  33968  286.34 0855.16
2009/04/23 06:57:05.1      24     21    -63     32     70  48.7 -76.3  33966  286.29 0855.16
2009/04/23 06:57:05.3      29    -18    -73     35     80 122.4 -76.8  33964  286.25 0855.16
2009/04/23 06:57:05.3      45    -25    -61     52     80 118.9 -59.8  33972  286.39 0855.16
2009/04/23 06:57:05.4     142     42      8    149    150  73.6   3.3  34006  286.96 0855.16
2009/04/23 06:57:05.5     151      3      6    152    153  88.7   2.3  34008  287.01 0855.16
2009/04/23 06:57:05.6     111     52    -52    123    133  64.8 -28.5  34004  286.94 0855.16
2009/04/23 06:57:05.7     132     51     -1    142    143  68.7  -0.7  34048  287.69 0855.16
2009/04/23 06:57:05.9     102     81     24    131    134  51.4  10.6  34042  287.57 0855.16
2009/04/23 06:57:05.9      69     96     -5    119    120  36.0  -2.6  34046  287.65 0855.16
2009/04/23 06:57:06.1      86    104     -1    136    137  39.6  -0.7  34026  287.32 0855.16
2009/04/23 06:57:06.2      38     87     41     96    104  23.6  23.6  34020  287.21 0855.16
2009/04/23 06:57:06.2      69     76     33    103    109  42.3  17.9  34036  287.47 0855.16
2009/04/23 06:57:06.3     125     72     17    145    147  60.2   6.9  34040  287.55 0855.16
2009/04/23 06:57:06.5     132     63     -4    147    148  64.6  -1.8  34038  287.50 0855.16
2009/04/23 06:57:06.6     112    133      7    174    175  40.1   2.5  34048  287.67 0855.16
2009/04/23 06:57:06.6     159    100     28    188    191  57.8   8.5  34044  287.62 0855.16
2009/04/23 06:57:06.7     251     99    -31    270    272  68.5  -6.7  34024  287.26 0855.16
2009/04/23 06:57:06.9     262    128     -5    292    293  63.8  -1.2  34012  287.07 0855.16
2009/04/23 06:57:07.0     227    103     73    250    261  65.6  16.3  34000  286.87 0855.15
2009/04/23 06:57:07.1     191    114    -45    223    228  59.3 -11.5  34008  287.00 0855.15
2009/04/23 06:57:07.2     181     92   -114    204    233  62.9 -36.0  34014  287.10 0855.15
2009/04/23 06:57:07.2     246     85   -112    261    284  70.9 -29.5  34006  286.95 0855.15
2009/04/23 06:57:07.4     196    104   -160    222    273  62.0 -43.9  34000  286.87 0855.15
2009/04/23 06:57:07.5     282     41    -34    286    289  81.6  -6.9  33974  286.43 0855.15
2009/04/23 06:57:07.6     207     47    -63    213    222  77.2 -21.5  33964  286.27 0855.15
2009/04/23 06:57:07.6      64     81   -108    104    149  38.3 -55.1  33968  286.34 0855.15
2009/04/23 06:57:07.8      65     55   -124     86    150  49.6 -66.5  33962  286.22 0855.15
2009/04/23 06:57:07.9     115     83   -123    142    187  54.1 -49.8  33954  286.10 0855.15
2009/04/23 06:57:08.0      76     97   -135    124    183  38.3 -56.9  33940  285.87 0855.15
2009/04/23 06:57:08.1      52    120   -144    132    195  23.6 -57.1  33928  285.65 0855.15
2009/04/23 06:57:08.2      79     96    -99    125    159  39.2 -46.8  33930  285.68 0855.15
2009/04/23 06:57:08.3      76     30   -107     82    134  68.3 -62.9  33928  285.65 0855.15
2009/04/23 06:57:08.4      91    -36    -88     98    131 111.7 -51.3  33944  285.93 0855.15
2009/04/23 06:57:08.5       4    -15    -95     16     96 164.9 -90.0  33946  285.95 0855.15
2009/04/23 06:57:08.6      73     88   -132    115    175  39.6 -59.0  33966  286.30 0855.15
2009/04/23 06:57:08.7      54     51   -124     75    144  46.8 -70.1  33970  286.35 0855.15
2009/04/23 06:57:08.8     -25     74   -115     79    139 340.8 -67.0  33972  286.39 0855.15
2009/04/23 06:57:08.9       2    140   -138    141    197   1.0 -53.8  33950  286.02 0855.15
2009/04/23 06:57:09.0     -24     96   -153    100    182 345.7 -68.5  33948  285.98 0855.15
2009/04/23 06:57:09.1      52    146   -148    156    215  19.6 -52.4  33932  285.73 0855.15
2009/04/23 06:57:09.2     108    134   -135    173    219  39.0 -46.4  33952  286.07 0855.15
2009/04/23 06:57:09.3     101     47   -149    112    186  64.8 -63.6  33952  286.07 0855.15
2009/04/23 06:57:09.4      92     80   -124    123    174  49.1 -54.1  33952  286.07 0855.15
2009/04/23 06:57:09.5       6     51   -107     52    118   7.1 -76.8  33962  286.24 0855.15
2009/04/23 06:57:09.6      48     79   -148     93    174  31.6 -69.1  33964  286.27 0855.15
2009/04/23 06:57:09.7      27     71   -120     77    142  20.9 -69.0  33966  286.30 0855.15
2009/04/23 06:57:09.8      21     79   -100     82    129  15.1 -60.8  33968  286.34 0855.15
2009/04/23 06:57:09.9       9     39    -91     41     99  13.4 -78.4  33968  286.32 0855.15
2009/04/23 06:57:10.0       6     87    -73     88    114   4.5 -48.1  33954  286.08 0855.15
2009/04/23 06:57:10.1    -102     45   -120    112    164 294.0 -56.4  33958  286.15 0855.15
2009/04/23 06:57:10.2     -98    120   -110    156    190 320.8 -43.2  33952  286.07 0855.15
2009/04/23 06:57:10.3     -79    124   -106    148    182 327.5 -43.7  33944  285.93 0855.15
2009/04/23 06:57:10.4    -126     42   -119    133    178 288.6 -51.3  33944  285.92 0855.15
2009/04/23 06:57:10.5     -99    -23   -157    102    187 256.7 -68.8  33942  285.88 0855.15
2009/04/23 06:57:10.6     -78     41   -104     89    136 298.0 -59.8  33940  285.87 0855.15
2009/04/23 06:57:10.7     -83    -41   -127     93    157 243.8 -64.7  33938  285.83 0855.15
2009/04/23 06:57:10.8    -141     -5   -165    142    217 267.9 -59.2  33940  285.87 0855.15
2009/04/23 06:57:10.9    -152    -31   -173    156    232 258.5 -57.7  33950  286.02 0855.15
2009/04/23 06:57:11.0    -139     69    -51    156    164 296.6 -23.3  33964  286.27 0855.15
2009/04/23 06:57:11.1     -68    203    -43    215    220 341.5 -11.5  33964  286.25 0855.15
2009/04/23 06:57:11.2     -39    118   -110    125    166 341.7 -50.2  33958  286.17 0855.15
2009/04/23 06:57:11.3    -124    158    -23    201    203 321.9  -6.7  33954  286.10 0855.15
2009/04/23 06:57:11.4     -50     88    -63    102    119 330.6 -38.8  33958  286.17 0855.15
2009/04/23 06:57:11.5      -7     42    -56     43     70 349.3 -62.9  33958  286.15 0855.15
2009/04/23 06:57:11.6     -10     -3    -17     11     20 251.6 -67.0  33954  286.08 0855.15
2009/04/23 06:57:11.7       9      0     23     10     25  90.8  77.1  33952  286.07 0855.15
2009/04/23 06:57:11.8      -7      0     15      8     17 274.4  68.8  33950  286.03 0855.15
2009/04/23 06:57:11.9     -17     -7     35     19     39 248.3  68.8  33954  286.08 0855.15
2009/04/23 06:57:12.0      33     39     56     52     76  40.5  52.1  33954  286.08 0855.15
2009/04/23 06:57:12.1      37     -5     78     38     86  97.9  72.4  33954  286.08 0855.15
2009/04/23 06:57:12.2      26    -59    -23     65     70 155.5 -19.7  33954  286.10 0855.15
2009/04/23 06:57:12.3     -44    -28    -54     53     75 237.6 -53.5  33954  286.10 0855.15
2009/04/23 06:57:12.4     -56    -14    -58     58     82 255.8 -54.5  33954  286.10 0855.15
2009/04/23 06:57:12.5       0    -57    -49     58     75 180.9 -48.2  33956  286.14 0855.15
2009/04/23 06:57:12.6     -17    -53    -36     56     66 198.7 -40.0  33948  286.00 0855.15
2009/04/23 06:57:12.7     -23    -68    -31     73     79 199.2 -28.5  33944  285.93 0855.15
2009/04/23 06:57:12.8     -51    -47    -53     70     87 226.9 -45.6  33940  285.87 0855.15
2009/04/23 06:57:12.9     -32      0    -41     33     52 269.2 -60.8  33946  285.95 0855.15
2009/04/23 06:57:13.0     -11     -7    -14     14     19 237.6 -54.5  33946  285.97 0855.15
2009/04/23 06:57:13.1      39    -90     33     99    105 156.4  18.4  33946  285.97 0855.15
2009/04/23 06:57:13.2     -18    -68     23     71     75 195.1  18.4  33952  286.07 0855.15
2009/04/23 06:57:13.3      23    -67     44     72     84 160.8  35.0  33948  285.98 0855.15
2009/04/23 06:57:13.4      26    -73     40     78     87 160.0  29.3  33946  285.97 0855.15
2009/04/23 06:57:13.5      33    -45     11     56     58 143.9  11.1  33948  285.98 0855.15
2009/04/23 06:57:13.7      49    -61    -22     79     82 141.3 -20.2  33950  286.02 0855.15
2009/04/23 06:57:13.8      23    -38      7     45     46 149.3   9.0  33948  285.98 0855.15
2009/04/23 06:57:13.9      44    -22      6     50     51 117.1   6.9  33944  285.93 0855.15
2009/04/23 06:57:14.0      42    -14     45     45     63 109.1  50.1  33948  286.00 0855.14
2009/04/23 06:57:14.1      67      7     60     68     90  83.9  45.8  33946  285.95 0855.14
2009/04/23 06:57:14.2      27     22     72     36     80  50.5  71.4  33954  286.10 0855.14
2009/04/23 06:57:14.3      23     -7     47     25     53 108.4  69.8  33950  286.02 0855.14
2009/04/23 06:57:14.4      58    -75     29     96    101 142.2  16.8  33948  286.00 0855.14
2009/04/23 06:57:14.5      70    -46     56     84    100 123.3  37.0  33946  285.97 0855.14
2009/04/23 06:57:14.6      73    -11     40     74     84  98.8  31.4  33942  285.90 0855.14
2009/04/23 06:57:14.7      39    -54     23     67     72 143.9  19.4  33944  285.93 0855.14
2009/04/23 06:57:14.8      45    -45     -2     64     65 134.9  -2.2  33942  285.88 0855.14
2009/04/23 06:57:14.9      60    -25     22     66     70 112.6  18.9  33946  285.97 0855.14
2009/04/23 06:57:15.0      95    -41     20    104    107 113.5  11.1  33944  285.93 0855.14
2009/04/23 06:57:15.1     139    -28     48    142    151 101.5  18.9  33940  285.85 0855.14
2009/04/23 06:57:15.2     165    -57     54    175    184 109.1  17.3  33942  285.90 0855.14
2009/04/23 06:57:15.3     152    -97     63    181    192 122.4  19.4  33942  285.90 0855.14
2009/04/23 06:57:15.4     151    -23     13    153    154  98.8   5.0  33936  285.80 0855.14
2009/04/23 06:57:15.5     177     38      8    182    183  77.8   2.8  33938  285.83 0855.14
2009/04/23 06:57:15.6     164     40     30    169    172  76.1  10.1  33938  285.83 0855.14
2009/04/23 06:57:15.7     150     49     11    158    159  71.8   4.2  33936  285.80 0855.14
2009/04/23 06:57:15.8     112     16     23    114    117  81.6  11.6  33938  285.83 0855.14
2009/04/23 06:57:15.9      57     35     27     68     73  58.5  23.0  33938  285.82 0855.14
2009/04/23 06:57:16.0       9     69     31     70     76   8.0  25.1  33936  285.80 0855.14
2009/04/23 06:57:16.1      -6     80     46     81     93 355.6  31.9  33940  285.87 0855.14
2009/04/23 06:57:16.2      15     19     36     25     43  39.6  61.5  33940  285.85 0855.14
2009/04/23 06:57:16.3      21    -17     14     28     31 129.5  27.3  33940  285.87 0855.14
2009/04/23 06:57:16.4      15    -26    -31     31     43 149.3 -54.5  33938  285.82 0855.14
2009/04/23 06:57:16.5      50    -70    -36     87     94 144.4 -27.4  33936  285.78 0855.14
2009/04/23 06:57:16.6      45    -71    -62     85    105 147.5 -44.1  33934  285.76 0855.14
2009/04/23 06:57:16.7      53    -49    -90     73    115 133.2 -60.8  33932  285.71 0855.14
2009/04/23 06:57:16.8      28   -104    -66    108    126 164.9 -39.4  33934  285.76 0855.14
2009/04/23 06:57:16.9      52   -110    -57    122    134 154.6 -31.5  33934  285.75 0855.14
2009/04/23 06:57:17.0      67    -61    -28     91     95 132.2 -22.8  33936  285.78 0855.14
2009/04/23 06:57:17.1      66    -56    -50     87    100 130.4 -36.8  33938  285.82 0855.14
2009/04/23 06:57:17.2     -10    -20    -43     23     48 207.2 -74.2  33936  285.80 0855.14
2009/04/23 06:57:17.3     -57    -21    -40     61     72 249.2 -40.0  33934  285.75 0855.14
2009/04/23 06:57:17.4     -92     22    -28     95     99 283.7 -21.2  33922  285.56 0855.14
2009/04/23 06:57:17.5    -196     -5    -64    197    207 268.3 -23.3  33934  285.75 0855.14
2009/04/23 06:57:17.6    -203     -2    -37    204    208 269.2 -10.3  33932  285.71 0855.14
2009/04/23 06:57:17.7    -184    -46     55    190    198 255.8  16.3  33936  285.80 0855.14
2009/04/23 06:57:17.8    -170   -105     46    201    207 238.2  12.9  33934  285.75 0855.14
2009/04/23 06:57:17.9    -160    -78     21    179    181 244.0   6.7  33932  285.73 0855.14
2009/04/23 06:57:18.0    -168    -34      0    172    173 258.5  -0.3  33928  285.66 0855.14
2009/04/23 06:57:18.1    -151    -30    -25    155    158 258.5  -9.3  33932  285.71 0855.14
2009/04/23 06:57:18.2    -110    -41    -33    118    122 249.6 -20.2  33930  285.68 0855.14
2009/04/23 06:57:18.3     -77    -64      7    101    102 230.5   4.4  33930  285.68 0855.14
2009/04/23 06:57:18.4    -107    -58     43    122    130 241.6  19.4  33930  285.68 0855.14
2009/04/23 06:57:18.5    -108    -58     12    123    124 241.6   5.9  33930  285.68 0855.14
2009/04/23 06:57:18.6     -35    -98      5    105    106 199.6   2.8  33930  285.68 0855.14
2009/04/23 06:57:18.7     -12   -138    -27    139    142 185.3 -11.3  33936  285.80 0855.14
2009/04/23 06:57:18.8      22   -133    -17    135    137 170.2  -7.3  33936  285.78 0855.14
2009/04/23 06:57:18.9      32   -122     17    127    129 165.3   8.0  33936  285.80 0855.14
2009/04/23 06:57:19.0      23   -116    -18    119    121 168.4  -8.8  33936  285.78 0855.14
2009/04/23 06:57:19.1      -7   -100     13    101    102 184.0   7.5  33936  285.78 0855.14
2009/04/23 06:57:19.2       8   -105     36    106    113 175.5  18.9  33934  285.75 0855.14
2009/04/23 06:57:19.3      30   -118      7    122    123 165.3   3.3  33936  285.78 0855.14
2009/04/23 06:57:19.4       7    -99     34    100    106 175.6  18.9  33936  285.78 0855.14
2009/04/23 06:57:19.5      -5    -81     65     82    104 184.0  42.7  33934  285.76 0855.14
2009/04/23 06:57:19.6     -13    -79     66     81    104 189.8  43.7  33934  285.76 0855.14
2009/04/23 06:57:19.7      12    -86     33     87     93 172.0  21.5  33936  285.80 0855.14
2009/04/23 06:57:19.8     -32    -59     30     68     74 208.1  25.1  33930  285.70 0855.14
2009/04/23 06:57:19.9     -35    -49     33     61     69 215.2  31.3  33934  285.75 0855.14
2009/04/23 06:57:20.0     -29    -52      8     60     61 209.0   8.0  33932  285.73 0855.13
2009/04/23 06:57:20.1     -11    -83     41     84     93 188.0  27.3  33932  285.73 0855.13
2009/04/23 06:57:20.2     -11   -151     55    152    161 184.5  20.7  33934  285.76 0855.13
2009/04/23 06:57:20.3     -17   -165     58    166    176 186.0  19.4  33932  285.73 0855.13
2009/04/23 06:57:20.4     -19   -164     53    166    175 186.9  17.7  33930  285.70 0855.13
2009/04/23 06:57:20.5     -16   -167     59    168    178 185.8  20.0  33930  285.70 0855.13
2009/04/23 06:57:20.6     -33   -196     39    199    203 189.8  11.1  33930  285.70 0855.13
2009/04/23 06:57:20.7      -5   -177     90    178    199 181.8  29.1  33932  285.73 0855.13
2009/04/23 06:57:20.8     -13   -172     13    173    174 184.5   4.6  33928  285.66 0855.13
2009/04/23 06:57:20.9     -10   -178     27    179    182 183.4   8.8  33932  285.73 0855.13
2009/04/23 06:57:21.0     -11   -141     41    142    148 184.5  16.3  33932  285.73 0855.13
2009/04/23 06:57:21.1       5    -86     61     87    106 176.4  38.6  33932  285.71 0855.13
2009/04/23 06:57:21.2      19   -110    100    112    150 169.8  46.4  33934  285.75 0855.13
2009/04/23 06:57:21.3     -32    -91    100     97    139 199.6  50.7  33934  285.75 0855.13
2009/04/23 06:57:21.4     -17   -125    119    127    174 188.1  48.5  33934  285.76 0855.13
2009/04/23 06:57:21.5      17   -141     98    143    173 172.9  37.6  33932  285.73 0855.13
2009/04/23 06:57:21.6      21   -118     78    120    143 169.8  35.6  33932  285.73 0855.13
2009/04/23 06:57:21.7      18   -126     56    128    139 171.5  25.1  33930  285.70 0855.13
2009/04/23 06:57:21.8      32   -135     13    139    140 166.6   5.4  33932  285.71 0855.13
2009/04/23 06:57:21.9     -32    -95     42    101    109 198.7  23.1  33930  285.68 0855.13
2009/04/23 06:57:22.0     -59   -142     55    155    164 202.7  20.0  33930  285.68 0855.12
2009/04/23 06:57:22.1     -77   -162     39    180    185 205.5  12.4  33928  285.65 0855.12
2009/04/23 06:57:22.2     -69   -157     23    172    174 203.8   7.8  33928  285.65 0855.12
2009/04/23 06:57:22.3     -63   -134     18    149    151 205.3   6.9  33928  285.66 0855.12
2009/04/23 06:57:22.4     -50   -105     37    117    123 205.3  17.9  33930  285.68 0855.12
2009/04/23 06:57:22.5     -42   -137     40    144    150 197.0  15.8  33926  285.63 0855.12
2009/04/23 06:57:22.6     -52   -134     65    145    158 201.4  25.9  33926  285.61 0855.12
2009/04/23 06:57:22.7     -45   -142     50    150    159 197.8  18.4  33926  285.61 0855.12
2009/04/23 06:57:22.8     -57   -138     33    150    154 202.7  12.4  33926  285.61 0855.12
2009/04/23 06:57:22.9     -20   -140      0    142    143 188.5   0.2  33924  285.60 0855.12
2009/04/23 06:57:23.0       2   -146    -21    147    149 179.0  -8.2  33926  285.63 0855.12
2009/04/23 06:57:23.1     -31    -94      5    100    101 198.5   3.3  33924  285.60 0855.12
2009/04/23 06:57:23.2     -64    -77      7    101    102 219.6   4.4  33926  285.63 0855.12
2009/04/23 06:57:23.3     -47    -97     18    108    110 205.9   9.5  33924  285.58 0855.12
2009/04/23 06:57:23.4     -65    -84     17    107    109 217.8   9.0  33926  285.61 0855.12
2009/04/23 06:57:23.5     -50    -88     27    102    106 209.9  15.3  33924  285.58 0855.12
2009/04/23 06:57:23.6     -57   -120     36    133    138 205.4  15.3  33924  285.58 0855.12
2009/04/23 06:57:23.7     -59   -124     47    138    146 205.5  18.9  33922  285.56 0855.12
2009/04/23 06:57:23.8     -66   -111     45    130    138 210.8  19.4  33922  285.56 0855.12
2009/04/23 06:57:23.9     -39   -118     39    125    132 198.3  17.4  33924  285.60 0855.12
2009/04/23 06:57:24.0     -29   -124     52    128    138 193.4  23.1  33924  285.58 0855.13
2009/04/23 06:57:24.1     -28    -91     33     96    102 197.4  18.9  33926  285.61 0855.13
2009/04/23 06:57:24.2     -36    -95     27    102    106 200.9  15.3  33924  285.58 0855.13
2009/04/23 06:57:24.3     -59    -93     13    111    112 212.5   6.9  33920  285.53 0855.13
2009/04/23 06:57:24.4     -49    -85     29     99    104 210.3  16.3  33924  285.58 0855.13
2009/04/23 06:57:24.5     -32    -99     20    105    108 197.8  11.1  33922  285.55 0855.13
2009/04/23 06:57:24.6      -8   -112    -10    113    114 184.4  -5.2  33920  285.51 0855.13
2009/04/23 06:57:24.7      21   -125    -17    127    129 170.3  -7.7  33920  285.51 0855.13
2009/04/23 06:57:24.8      16   -109      0    111    112 171.5  -0.3  33922  285.55 0855.13
2009/04/23 06:57:24.9     -10   -131    -20    132    134 184.5  -8.8  33922  285.55 0855.13
2009/04/23 06:57:25.0     -48   -180    -12    187    188 195.1  -3.7  33922  285.56 0855.13
2009/04/23 06:57:25.1     -31   -196    -19    199    200 189.1  -5.6  33922  285.55 0855.13
2009/04/23 06:57:25.2     -14   -188    -24    189    191 184.5  -7.3  33922  285.56 0855.13
2009/04/23 06:57:25.3      -4   -170    -11    171    172 181.6  -3.9  33920  285.53 0855.13
2009/04/23 06:57:25.4     -11   -144      9    145    146 184.4   3.8  33924  285.58 0855.13
2009/04/23 06:57:25.5       2   -144     18    145    147 179.1   7.1  33926  285.61 0855.13
2009/04/23 06:57:25.6      23   -114     12    117    118 168.5   5.9  33928  285.65 0855.13
2009/04/23 06:57:25.7      31   -135     38    139    145 166.7  15.3  33926  285.63 0855.13
2009/04/23 06:57:25.8      19   -133     57    135    146 171.9  24.1  33924  285.58 0855.13
2009/04/23 06:57:25.9      17   -130     61    132    145 172.4  26.6  33928  285.65 0855.13
2009/04/23 06:57:26.0      17   -127     64    129    144 172.0  28.2  33926  285.63 0855.13
2009/04/23 06:57:26.1       5   -113     59    114    128 177.3  29.2  33924  285.58 0855.13
2009/04/23 06:57:26.2       0    -85     45     86     97 179.5  29.8  33924  285.58 0855.13
2009/04/23 06:57:26.3     -11    -96    -30     97    102 187.1 -17.6  33924  285.58 0855.13
2009/04/23 06:57:26.4     -55    -23    -40     60     72 247.4 -40.9  33926  285.61 0855.13
2009/04/23 06:57:26.5     -26    -38    -13     47     48 214.3 -21.7  33926  285.61 0855.13
2009/04/23 06:57:26.6      10    -37     22     39     44 164.9  32.4  33926  285.61 0855.13
2009/04/23 06:57:26.7      23    -59     43     64     77 158.1  35.6  33926  285.61 0855.13
2009/04/23 06:57:26.8      14    -71     57     73     92 168.4  42.7  33926  285.61 0855.13
2009/04/23 06:57:26.9       0    -93     60     94    111 180.4  35.6  33926  285.63 0855.13
2009/04/23 06:57:27.0      -3   -109     61    110    125 181.8  31.4  33926  285.61 0855.13
2009/04/23 06:57:27.1       1   -106     55    107    120 179.1  29.3  33924  285.58 0855.13
2009/04/23 06:57:27.2     -21   -111     31    113    118 190.7  15.3  33924  285.58 0855.13
2009/04/23 06:57:27.3     -21   -123     29    125    129 189.8  13.2  33924  285.60 0855.13
2009/04/23 06:57:27.4       0    -97     48     98    109 179.5  27.8  33926  285.61 0855.13
2009/04/23 06:57:27.5      -1   -121     41    122    129 180.5  18.9  33924  285.58 0855.13
2009/04/23 06:57:27.6      -1   -112     39    113    120 180.9  19.2  33924  285.58 0855.13
2009/04/23 06:57:27.7     -23   -117     42    120    128 191.5  19.4  33924  285.58 0855.13
2009/04/23 06:57:27.8     -35   -106     43    112    119 198.7  21.5  33924  285.60 0855.13
2009/04/23 06:57:27.9     -33   -101     46    107    116 198.3  24.6  33924  285.60 0855.13
2009/04/23 06:57:28.0     -37    -80     44     89     99 204.9  28.2  33922  285.56 0855.13
2009/04/23 06:57:28.1     -34    -62     62     71     94 208.9  45.8  33926  285.61 0855.13
2009/04/23 06:57:28.2     -11    -58     55     60     81 191.5  47.5  33924  285.58 0855.13
2009/04/23 06:57:28.3     -11    -46     65     48     80 194.3  60.0  33926  285.63 0855.13
2009/04/23 06:57:28.4     -13    -62     80     64    102 192.5  56.9  33926  285.61 0855.13
2009/04/23 06:57:28.5     -22    -47     57     53     77 205.5  52.1  33926  285.61 0855.13
2009/04/23 06:57:28.6     -21    -32     44     39     58 212.6  53.3  33924  285.60 0855.13
2009/04/23 06:57:28.7      -5    -10     40     12     41 209.0  82.8  33928  285.66 0855.13
2009/04/23 06:57:28.8       5      4     40      7     40  50.5  90.0  33926  285.61 0855.13
2009/04/23 06:57:28.9       3     -8     24      9     25 154.6  81.2  33926  285.63 0855.13
2009/04/23 06:57:29.0       8      0     29      9     30  90.0  80.7  33926  285.63 0855.13
2009/04/23 06:57:29.1      36    -24     22     44     49 123.3  27.3  33926  285.61 0855.13
2009/04/23 06:57:29.2      66    -26      8     72     73 111.7   6.9  33924  285.58 0855.13
2009/04/23 06:57:29.3      49    -46     -7     68     69 133.1  -6.2  33924  285.60 0855.13
2009/04/23 06:57:29.4      64    -40      6     76     77 122.5   4.9  33926  285.61 0855.13
2009/04/23 06:57:29.5      48    -51     18     71     74 136.8  14.3  33924  285.60 0855.13
2009/04/23 06:57:29.6      52    -55     15     76     78 136.7  11.1  33926  285.63 0855.13
2009/04/23 06:57:29.7      70    -49      9     86     87 125.1   6.5  33926  285.61 0855.13
2009/04/23 06:57:29.8      54    -85    -15    101    103 147.5  -8.8  33924  285.60 0855.13
2009/04/23 06:57:29.9      60   -102     -6    119    120 149.3  -3.1  33926  285.63 0855.13
2009/04/23 06:57:30.0      72   -106     12    129    130 145.7   5.4  33924  285.60 0855.14
2009/04/23 06:57:30.1     107   -107     21    152    154 134.9   8.0  33924  285.58 0855.14
2009/04/23 06:57:30.2     131    -76     37    152    157 120.2  13.9  33922  285.55 0855.14
2009/04/23 06:57:30.3     102    -99     39    143    149 134.0  15.3  33920  285.53 0855.14
2009/04/23 06:57:30.4     120   -109     74    163    179 132.2  26.2  33922  285.55 0855.14
2009/04/23 06:57:30.5     172   -109     48    204    210 122.5  13.2  33922  285.55 0855.14
2009/04/23 06:57:30.6     146    -96     42    175    180 123.3  13.5  33922  285.55 0855.14
2009/04/23 06:57:30.7     159   -101     16    189    190 122.6   4.9  33920  285.53 0855.14
2009/04/23 06:57:30.8     192    -69     42    205    210 109.7  11.6  33922  285.56 0855.14
2009/04/23 06:57:30.9     117   -129     92    175    197 137.7  29.8  33922  285.55 0855.14
2009/04/23 06:57:31.0     139    -98     95    171    195 125.3  31.4  33920  285.53 0855.14
2009/04/23 06:57:31.1     103    -94    112    140    179 132.2  43.0  33924  285.58 0855.14
2009/04/23 06:57:31.3     102    -81    123    131    179 128.2  48.2  33922  285.56 0855.14
2009/04/23 06:57:31.3     108    -73    115    131    174 124.2  45.8  33922  285.55 0855.14
2009/04/23 06:57:31.4     112    -92     95    146    174 129.5  35.7  33924  285.60 0855.14
2009/04/23 06:57:31.6      94   -100     -3    138    139 136.8  -1.3  33920  285.51 0855.14
2009/04/23 06:57:31.6      84   -117      1    145    146 144.4   0.7  33920  285.51 0855.14
2009/04/23 06:57:31.8     118   -101      6    156    157 130.4   2.3  33920  285.53 0855.14
2009/04/23 06:57:31.9      95    -70     30    119    123 126.4  14.3  33918  285.50 0855.14
2009/04/23 06:57:31.9     103    -86     26    135    138 129.6  11.1  33920  285.53 0855.14
2009/04/23 06:57:32.0      96    -97     40    137    143 135.5  16.3  33920  285.53 0855.13
2009/04/23 06:57:32.2     103   -119     52    158    167 139.0  18.4  33920  285.53 0855.13
2009/04/23 06:57:32.3     133    -96     69    165    178 126.0  23.8  33922  285.55 0855.13
2009/04/23 06:57:32.3     107    -88     63    139    152 129.6  26.2  33922  285.55 0855.13
2009/04/23 06:57:32.4      85    -76     35    115    121 131.8  17.3  33918  285.50 0855.13
2009/04/23 06:57:32.6     103    -63     19    121    123 121.5   8.9  33920  285.53 0855.13
2009/04/23 06:57:32.6      85      8    -26     86     90  84.3 -17.0  33920  285.51 0855.13
2009/04/23 06:57:32.7      78    -15     -2     80     81 101.0  -1.8  33918  285.50 0855.13
2009/04/23 06:57:32.8      84    -26     26     89     93 107.3  16.3  33920  285.51 0855.13
2009/04/23 06:57:32.9      97     33     -2    103    104  70.9  -1.3  33920  285.51 0855.13
2009/04/23 06:57:33.0      91     30     26     97    101  71.4  15.2  33920  285.53 0855.13
2009/04/23 06:57:33.2      94     37      8    102    103  68.3   4.9  33922  285.55 0855.13
2009/04/23 06:57:33.3      85     54     -2    101    102  57.6  -1.2  33922  285.56 0855.13
2009/04/23 06:57:33.3      83     53     25     99    103  57.5  14.3  33922  285.56 0855.13
2009/04/23 06:57:33.5      82     31     53     88    102  69.2  34.0  33922  285.55 0855.13
2009/04/23 06:57:33.6      76     31     55     83     99  67.8  36.5  33920  285.53 0855.13
2009/04/23 06:57:33.7      73     42     73     85    112  60.2  44.8  33924  285.58 0855.13
2009/04/23 06:57:33.8      59     55     70     81    107  46.8  45.4  33922  285.56 0855.13
2009/04/23 06:57:33.9      51     48     67     71     97  46.9  49.0  33922  285.55 0855.13
2009/04/23 06:57:34.0      48     48     56     68     88  45.0  43.8  33922  285.55 0855.13
2009/04/23 06:57:34.0      41     36     69     55     88  48.7  56.4  33922  285.56 0855.13
2009/04/23 06:57:34.1      14     19     57     24     61  36.1  77.0  33924  285.58 0855.13
2009/04/23 06:57:34.3       6     18     47     19     50  18.5  77.1  33924  285.58 0855.13
2009/04/23 06:57:34.4       0     25     41     26     48 359.1  64.7  33924  285.60 0855.13
2009/04/23 06:57:34.5      -3      0     49      4     49 270.0  90.0  33928  285.66 0855.13
2009/04/23 06:57:34.5     -11    -34     69     36     77 198.7  70.8  33924  285.58 0855.13
2009/04/23 06:57:34.7     -39    -24     65     46     79 238.5  61.5  33920  285.53 0855.13
2009/04/23 06:57:34.8     -38    -27     62     47     77 234.0  59.4  33922  285.56 0855.13
2009/04/23 06:57:34.9       0     -7     52      8     52 184.5  90.0  33924  285.58 0855.13
2009/04/23 06:57:35.0      -2    -19     50     20     53 186.2  78.2  33922  285.56 0855.13
2009/04/23 06:57:35.1      -6    -26     59     27     64 193.4  73.1  33924  285.58 0855.13
2009/04/23 06:57:35.2     -12    -40     61     42     74 196.9  63.6  33922  285.55 0855.13
2009/04/23 06:57:35.3     -15    -43     64     46     78 200.0  60.5  33924  285.58 0855.13
2009/04/23 06:57:35.4      -2    -35     63     36     72 184.4  68.8  33924  285.58 0855.13
2009/04/23 06:57:35.5     -19    -37     54     42     68 208.1  56.4  33920  285.51 0855.13
2009/04/23 06:57:35.6     -25    -23     39     35     52 226.9  53.3  33922  285.56 0855.13
2009/04/23 06:57:35.7     -16    -24     30     30     42 214.3  50.1  33920  285.53 0855.13
2009/04/23 06:57:35.8      31     -6     31     32     44 101.5  51.1  33922  285.55 0855.13
2009/04/23 06:57:35.9      39    -31     37     50     62 128.6  39.7  33922  285.56 0855.13
2009/04/23 06:57:36.0      51    -62     40     81     90 140.4  27.8  33922  285.55 0855.13
2009/04/23 06:57:36.1      58    -42     54     72     90 126.0  41.2  33920  285.51 0855.13
2009/04/23 06:57:36.2      64    -24     49     69     84 110.8  38.6  33918  285.50 0855.13
2009/04/23 06:57:36.3      72    -31     33     79     85 113.5  24.1  33920  285.53 0855.13
2009/04/23 06:57:36.4      87    -30     64     93    112 109.1  38.0  33920  285.53 0855.13
2009/04/23 06:57:36.5      61    -44     67     76    101 126.0  46.4  33924  285.60 0855.13
2009/04/23 06:57:36.6      78    -37     59     87    105 115.3  37.0  33922  285.56 0855.13
2009/04/23 06:57:36.7      34    -21     59     41     71 122.4  61.5  33924  285.58 0855.13
2009/04/23 06:57:36.8      42    -21     64     48     80 117.1  59.4  33922  285.56 0855.13
2009/04/23 06:57:36.9      70    -26     55     75     93 110.8  40.1  33920  285.53 0855.13
2009/04/23 06:57:37.0      81    -22     46     85     96 105.5  30.8  33920  285.53 0855.13
2009/04/23 06:57:37.1      92    -23     52     95    108 104.2  30.8  33920  285.53 0855.13
2009/04/23 06:57:37.2      93    -15     74     95    120  99.2  41.7  33922  285.55 0855.13
2009/04/23 06:57:37.3      83    -10     68     84    108  97.5  43.7  33924  285.58 0855.13
2009/04/23 06:57:37.4      60    -33     65     69     94 118.8  49.0  33922  285.56 0855.13
2009/04/23 06:57:37.5      82    -52     66     98    118 122.4  37.4  33922  285.56 0855.13
2009/04/23 06:57:37.6      99    -47     74    110    132 115.8  37.0  33922  285.55 0855.13
2009/04/23 06:57:37.7      65    -36     47     75     88 118.8  35.5  33922  285.55 0855.13
2009/04/23 06:57:37.8      79    -38     46     88     99 115.8  30.3  33924  285.58 0855.13
2009/04/23 06:57:37.9      94    -18     50     96    108 101.4  29.3  33924  285.58 0855.13
2009/04/23 06:57:38.0     100    -23     63    103    120 103.3  34.4  33920  285.53 0855.13
2009/04/23 06:57:38.1     117    -55     50    130    139 115.3  22.0  33922  285.55 0855.13
2009/04/23 06:57:38.2     115    -61     45    131    139 118.0  18.9  33920  285.51 0855.13
2009/04/23 06:57:38.3     106    -48     59    117    131 114.4  28.7  33922  285.56 0855.13
2009/04/23 06:57:38.4     102    -58     65    118    134 119.8  31.4  33922  285.56 0855.13
2009/04/23 06:57:38.5      74    -61     71     97    120 129.5  39.7  33922  285.56 0855.13
2009/04/23 06:57:38.6      63    -55     56     84    100 131.3  37.0  33920  285.53 0855.13
2009/04/23 06:57:38.7      62    -66     72     91    116 136.8  42.7  33924  285.58 0855.13
2009/04/23 06:57:38.8      60   -104     70    121    139 150.1  32.4  33922  285.56 0855.13
2009/04/23 06:57:38.9      35   -129    100    134    167 164.9  40.9  33926  285.61 0855.13
2009/04/23 06:57:39.0      12   -126     80    127    150 174.2  35.5  33924  285.60 0855.13
2009/04/23 06:57:39.1      19    -80     80     83    115 166.6  49.4  33924  285.60 0855.14
2009/04/23 06:57:39.2     -10    -40     76     42     86 194.3  68.3  33924  285.58 0855.14
2009/04/23 06:57:39.3     114    -23     50    117    127 101.4  24.6  33926  285.61 0855.14
2009/04/23 06:57:39.4     113    -31     44    118    125 105.5  21.0  33926  285.61 0855.14
2009/04/23 06:57:39.5     136    -54     38    147    152 111.7  14.7  33924  285.60 0855.14
2009/04/23 06:57:39.6     130    -83     53    155    164 122.4  18.9  33926  285.61 0855.14
2009/04/23 06:57:39.7     119    -70     35    139    144 120.7  14.3  33922  285.56 0855.14
2009/04/23 06:57:39.8     122    -57     21    135    137 115.3   9.0  33926  285.61 0855.14
2009/04/23 06:57:39.9     114    -63      6    131    132 118.9   2.8  33924  285.58 0855.14
2009/04/23 06:57:40.0     106    -58     30    121    125 118.8  14.3  33926  285.61 0855.14
2009/04/23 06:57:40.1      85    -65     46    108    117 127.3  24.1  33926  285.61 0855.14
2009/04/23 06:57:40.2      64    -71     49     96    107 138.1  28.2  33926  285.61 0855.14
2009/04/23 06:57:40.3      50    -93     48    106    116 151.5  26.6  33924  285.60 0855.14
2009/04/23 06:57:40.4       7    -91     12     92     93 175.5   8.0  33924  285.60 0855.14
2009/04/23 06:57:40.5      37   -126    -36    132    137 163.5 -15.5  33922  285.56 0855.14
2009/04/23 06:57:40.6       1   -143    -18    144    146 179.5  -7.2  33924  285.58 0855.14
2009/04/23 06:57:40.7       2   -137     -2    138    139 179.0  -1.2  33924  285.60 0855.14
2009/04/23 06:57:40.8      16   -152     24    153    155 173.8   9.0  33924  285.60 0855.14
2009/04/23 06:57:40.9      14   -161     20    162    164 174.9   7.2  33924  285.58 0855.14
2009/04/23 06:57:41.0       3   -131      6    132    133 178.6   2.9  33926  285.63 0855.14
2009/04/23 06:57:41.1      17   -160     -6    161    162 173.8  -2.2  33928  285.65 0855.13
2009/04/23 06:57:41.2      42   -141      7    148    149 163.5   2.9  33924  285.60 0855.13
2009/04/23 06:57:41.3      27   -123    -19    126    128 167.5  -8.8  33922  285.55 0855.13
2009/04/23 06:57:41.4      19   -101    -26    103    107 168.9 -14.5  33924  285.58 0855.13
2009/04/23 06:57:41.5      20    -93    -25     96    100 167.5 -15.0  33924  285.58 0855.13
2009/04/23 06:57:41.6      43   -115      5    123    124 159.5   2.3  33926  285.63 0855.13
2009/04/23 06:57:41.7      31    -93    -24     99    103 161.3 -13.9  33922  285.56 0855.13
2009/04/23 06:57:41.8      31    -94    -28    100    103 161.7 -20.7  33920  285.53 0855.13
2009/04/23 06:57:41.9      37    -94     -7    102    103 158.6  -4.1  33922  285.56 0855.13
2009/04/23 06:57:42.0      37    -94     -7    102    103 158.6  -4.1  33922  285.56 0855.13
2009/04/23 06:57:42.1      43    -68    -24     81     84 147.5 -21.7  33924  285.58 0855.13
2009/04/23 06:57:42.2      61    -50     -8     80     81 129.5  -6.2  33922  285.56 0855.13
2009/04/23 06:57:42.4      49    -59      3     77     78 140.3   2.9  33924  285.58 0855.13
2009/04/23 06:57:42.5      66    -61     38     91     98 132.7  23.6  33924  285.58 0855.13
2009/04/23 06:57:42.6      83    -76     38    113    120 132.7  18.9  33924  285.60 0855.13
2009/04/23 06:57:42.7      71    -26     48     76     89 110.8  35.5  33928  285.66 0855.13
2009/04/23 06:57:42.8      71    -26     41     76     86 110.8  30.8  33930  285.68 0855.13
2009/04/23 06:57:42.9      68    -15     33     70     77 102.4  27.1  33930  285.68 0855.13
2009/04/23 06:57:43.0      54    -18     24     58     62 108.6  23.1  33930  285.70 0855.13
2009/04/23 06:57:43.1      58    -22      7     63     64 110.8   7.1  33926  285.63 0855.14
2009/04/23 06:57:43.2      38    -59    -17     71     74 147.4 -13.4  33924  285.60 0855.14
2009/04/23 06:57:43.3      27    -84    -17     89     91 161.7 -11.3  33926  285.61 0855.14
2009/04/23 06:57:43.4      45   -104     -9    114    115 156.4  -4.6  33924  285.58 0855.14
2009/04/23 06:57:43.5      86   -134     12    160    161 147.4   4.6  33924  285.60 0855.14
2009/04/23 06:57:43.6     121   -122    -16    172    173 135.2  -5.6  33928  285.66 0855.14
2009/04/23 06:57:43.7     130   -114    -30    174    177 131.3  -9.8  33926  285.63 0855.14
2009/04/23 06:57:43.8     147   -121    -23    191    193 129.3  -6.9  33928  285.66 0855.14
2009/04/23 06:57:43.9     177   -100    -15    204    205 119.5  -4.4  33926  285.63 0855.14
2009/04/23 06:57:44.0     140    -99     33    172    176 125.5  10.8  33926  285.61 0855.14
2009/04/23 06:57:44.1      77   -141     16    161    162 151.1   5.7  33924  285.58 0855.14
2009/04/23 06:57:44.2      33   -124    -12    129    130 164.8  -5.6  33924  285.60 0855.14
2009/04/23 06:57:44.3      34   -103     -8    109    110 161.3  -4.6  33926  285.61 0855.14
2009/04/23 06:57:44.4      22    -91      4     94     95 166.2   2.9  33924  285.60 0855.14
2009/04/23 06:57:44.5      -7    -84    -11     85     86 184.9  -7.7  33924  285.60 0855.14
2009/04/23 06:57:44.6     -14    -49     -2     51     52 196.0  -2.2  33924  285.58 0855.14
2009/04/23 06:57:44.7      -7    -46      9     47     48 189.8  11.1  33928  285.65 0855.14
2009/04/23 06:57:44.8     -11    -34     22     36     42 198.7  34.4  33926  285.61 0855.14
2009/04/23 06:57:44.9     -17    -22     23     28     36 217.8  43.7  33926  285.61 0855.14
2009/04/23 06:57:45.0     -10     -2     49     11     50 254.9  89.0  33924  285.58 0855.14
2009/04/23 06:57:45.1     -16    -18     44     25     50 221.4  67.7  33926  285.61 0855.14
2009/04/23 06:57:45.2     -25     -9     36     27     45 248.3  59.4  33928  285.65 0855.14
2009/04/23 06:57:45.3     -22     -7     24     24     33 251.8  50.1  33926  285.63 0855.14
2009/04/23 06:57:45.4     -35    -19     27     41     49 241.1  36.5  33928  285.66 0855.14
2009/04/23 06:57:45.5     -37    -19     39     42     57 242.9  49.0  33928  285.65 0855.14
2009/04/23 06:57:45.6     -46      7     49     47     67 278.8  50.1  33926  285.61 0855.14
2009/04/23 06:57:45.7     -82     34     49     89    101 292.6  31.4  33926  285.63 0855.14
2009/04/23 06:57:45.8     -93     59     26    111    115 302.5  13.2  33924  285.60 0855.14
2009/04/23 06:57:45.9     -91     86      0    126    127 313.6   0.2  33926  285.61 0855.14
2009/04/23 06:57:46.0     -53     84     26    100    104 327.5  14.7  33926  285.61 0855.14
2009/04/23 06:57:46.1     -27     72     16     78     80 339.1  11.6  33924  285.60 0855.14
2009/04/23 06:57:46.2     -16     47     28     50     57 340.8  32.4  33926  285.63 0855.14
2009/04/23 06:57:46.3     -39     50     -1     64     65 322.2  -1.2  33922  285.56 0855.14
2009/04/23 06:57:46.4     -29     21     15     36     39 306.0  21.0  33924  285.58 0855.14
2009/04/23 06:57:46.5     -50     59     41     78     88 319.5  29.8  33928  285.65 0855.14
2009/04/23 06:57:46.6    -181    -31     57    184    193 260.1  17.3  33926  285.61 0855.14
2009/04/23 06:57:46.7    -126    -70     53    145    154 240.7  20.4  33926  285.63 0855.14
2009/04/23 06:57:46.8    -114    -48      2    124    125 246.9   1.2  33926  285.63 0855.14
2009/04/23 06:57:46.9    -197    -15     74    198    211 265.6  21.3  33922  285.55 0855.14
2009/04/23 06:57:47.0    -269     25     44    271    275 275.5   9.3  33924  285.59 0855.14
2009/04/23 06:57:47.1    -220    -21    -10    222    223 264.5  -2.6  33924  285.60 0855.14
2009/04/23 06:57:47.2    -136     32     71    140    156 283.3  28.7  33922  285.55 0855.14
2009/04/23 06:57:47.3     -98     48    118    110    161 296.2  52.2  33924  285.58 0855.14
2009/04/23 06:57:47.4     -99     64    109    118    160 302.9  47.7  33928  285.65 0855.14
2009/04/23 06:57:47.5     -77      8     95     78    122 276.1  56.4  33922  285.55 0855.14
2009/04/23 06:57:47.6    -128    -51     74    138    156 248.2  30.3  33926  285.61 0855.14
2009/04/23 06:57:47.7    -176    -79     92    194    214 245.8  27.2  33924  285.58 0855.14
2009/04/23 06:57:47.8    -112    -85     83    141    163 232.7  33.5  33924  285.60 0855.14
2009/04/23 06:57:47.9     -86    -80     89    118    147 226.9  41.2  33924  285.60 0855.14
2009/04/23 06:57:48.0    -105   -103     78    148    167 225.6  29.8  33926  285.63 0855.14
2009/04/23 06:57:48.1    -111   -121     80    165    183 222.5  27.8  33924  285.60 0855.14
2009/04/23 06:57:48.2    -182    -98     30    207    210 241.6   8.2  33920  285.51 0855.14
2009/04/23 06:57:48.3    -113   -125     58    169    179 222.1  18.9  33926  285.61 0855.14
2009/04/23 06:57:48.4     -59   -152     90    164    187 201.2  31.4  33922  285.56 0855.14
2009/04/23 06:57:48.5     -66   -154     90    168    190 203.4  30.6  33924  285.58 0855.14
2009/04/23 06:57:48.6     -96   -140     94    170    194 214.5  31.4  33926  285.63 0855.14
2009/04/23 06:57:48.7    -111   -103     24    152    154 227.3   9.0  33924  285.58 0855.14
2009/04/23 06:57:48.8     -71    -73     38    103    109 224.1  20.4  33924  285.58 0855.14
2009/04/23 06:57:48.9     -75    -52     79     92    121 235.4  45.4  33924  285.58 0855.14
2009/04/23 06:57:49.0     -96     79     60    125    138 309.5  27.2  33920  285.53 0855.14
2009/04/23 06:57:49.1     -73     24     75     78    108 288.6  49.0  33916  285.44 0855.13
2009/04/23 06:57:49.2    -124     45     74    132    151 290.0  31.4  33916  285.46 0855.13
2009/04/23 06:57:49.3     -15     85    115     87    144 349.8  59.4  33916  285.46 0855.13
2009/04/23 06:57:49.4     -36     87    124     95    156 337.3  58.5  33924  285.58 0855.13
2009/04/23 06:57:49.5     -17    126     90    128    156 352.0  38.6  33930  285.68 0855.13
2009/04/23 06:57:49.6     -16    116     90    118    148 351.9  41.6  33930  285.68 0855.13
2009/04/23 06:57:49.7      -5    117     82    118    143 357.3  38.0  33930  285.68 0855.13
2009/04/23 06:57:49.8     -13     87     73     89    115 351.1  43.7  33928  285.66 0855.13
2009/04/23 06:57:49.9       0    105     75    106    129 359.6  38.6  33916  285.44 0855.13
2009/04/23 06:57:50.0       5     87     58     88    105   3.6  36.0  33910  285.36 0855.13
2009/04/23 06:57:50.1     -12     61     60     63     87 348.5  49.0  33910  285.34 0855.13
2009/04/23 06:57:50.2     -40     87     67     96    117 335.1  38.0  33908  285.33 0855.13
2009/04/23 06:57:50.3     -23     86     84     90    123 344.9  48.0  33912  285.39 0855.13
2009/04/23 06:57:50.4     -20     74     72     77    105 344.9  48.0  33908  285.33 0855.13
2009/04/23 06:57:50.5     -12     46     78     48     91 344.9  65.1  33906  285.29 0855.13
2009/04/23 06:57:50.6     -59     48     50     77     91 309.5  35.6  33914  285.43 0855.13
2009/04/23 06:57:50.7    -111     31     -2    116    117 285.5  -1.3  33918  285.50 0855.13
2009/04/23 06:57:50.8    -110     39    -19    117    119 289.5  -9.4  33916  285.46 0855.13
2009/04/23 06:57:50.9    -101     40     49    109    119 291.8  25.7  33914  285.43 0855.13
2009/04/23 06:57:51.0    -125     35     -7    131    132 285.9  -3.1  33916  285.44 0855.13
2009/04/23 06:57:51.1    -119    -10    -21    120    122 265.2 -10.3  33918  285.50 0855.13
2009/04/23 06:57:51.2     -81     22    -59     85    103 285.5 -42.4  33918  285.50 0855.13
2009/04/23 06:57:51.3    -101    -19    -47    103    113 259.0 -31.0  33918  285.50 0855.13
2009/04/23 06:57:51.4    -101      1    -78    102    128 270.8 -46.0  33918  285.50 0855.13
2009/04/23 06:57:51.5     -98      7    -39     99    106 274.3 -26.9  33920  285.51 0855.13
2009/04/23 06:57:51.6     -81     36      3     89     90 294.0   2.3  33922  285.55 0855.13
2009/04/23 06:57:51.7     -87     23      5     91     92 285.1   3.3  33922  285.56 0855.13
2009/04/23 06:57:51.8    -100     15      5    102    103 278.8   2.8  33922  285.55 0855.13
2009/04/23 06:57:51.9    -122      0      5    123    124 270.0   2.3  33922  285.55 0855.13
2009/04/23 06:57:52.0    -120     23    -19    123    125 281.0  -8.8  33922  285.55 0855.13
2009/04/23 06:57:52.1    -102     27    -10    106    107 285.0  -5.6  33920  285.53 0855.13
2009/04/23 06:57:52.2     -95     32      4    101    102 288.6   2.3  33920  285.53 0855.13
2009/04/23 06:57:52.3     -86     31     13     92     94 290.0   8.5  33920  285.53 0855.13
2009/04/23 06:57:52.4     -67     46     19     82     85 304.6  13.2  33920  285.53 0855.13
2009/04/23 06:57:52.5     -61     57      8     84     85 313.1   5.9  33920  285.51 0855.13
2009/04/23 06:57:52.6     -94     45    -11    105    106 295.8  -6.2  33920  285.53 0855.13
2009/04/23 06:57:52.7    -123     40      2    130    131 288.2   1.2  33916  285.44 0855.13
2009/04/23 06:57:52.8    -131      9      6    132    133 274.3   2.9  33916  285.46 0855.13
2009/04/23 06:57:52.9    -135    -16     26    137    140 263.0  11.1  33916  285.44 0855.13
2009/04/23 06:57:53.0    -150     19     -3    152    153 277.5  -1.2  33918  285.48 0855.13
2009/04/23 06:57:53.1    -161     36      4    166    167 282.6   1.6  33928  285.65 0855.12
2009/04/23 06:57:53.2    -152     21    -27    154    157 277.9 -10.1  33944  285.92 0855.12
2009/04/23 06:57:53.3    -148     -6    -32    149    153 267.4 -12.4  33940  285.87 0855.12
2009/04/23 06:57:53.4    -140     -6     32    141    145 267.4  13.1  33928  285.66 0855.12
2009/04/23 06:57:53.5    -147     26     18    150    152 280.1   6.9  33924  285.58 0855.12
2009/04/23 06:57:53.6     -90     -1     68     91    113 269.2  40.1  33922  285.55 0855.12
2009/04/23 06:57:53.7     -64      8     57     65     86 277.9  46.4  33916  285.44 0855.12
2009/04/23 06:57:53.8     -27      9     53     29     60 288.6  68.8  33916  285.44 0855.12
2009/04/23 06:57:53.9     -32    -10     52     34     62 251.6  63.6  33928  285.66 0855.12
2009/04/23 06:57:54.0     -43    -11     50     45     67 254.9  52.2  33942  285.90 0855.12
2009/04/23 06:57:54.1       9     16     56     19     59  29.0  81.0  33936  285.78 0855.12
2009/04/23 06:57:54.2      16     35     67     39     77  25.4  66.8  33932  285.73 0855.12
2009/04/23 06:57:54.3      -3     39     68     40     78 355.5  66.8  33926  285.63 0855.12
2009/04/23 06:57:54.4     -20     63     68     67     95 342.2  49.1  33926  285.63 0855.12
2009/04/23 06:57:54.5     -24     71     73     76    105 340.8  49.4  33930  285.68 0855.12
2009/04/23 06:57:54.6     -19     64     68     67     95 343.1  49.1  33926  285.63 0855.12
2009/04/23 06:57:54.7       9     51     50     52     72  10.7  50.0  33924  285.58 0855.12
2009/04/23 06:57:54.8       0     46     35     47     58   0.0  40.7  33926  285.61 0855.12
2009/04/23 06:57:54.9     -15     51     44     54     69 343.1  43.7  33918  285.50 0855.12
2009/04/23 06:57:55.0     -22     47     51     53     73 334.6  50.0  33920  285.53 0855.12
2009/04/23 06:57:55.1     -37     36     52     52     73 314.1  50.1  33920  285.51 0855.12
2009/04/23 06:57:55.2     -59     34     47     69     83 299.8  37.6  33922  285.56 0855.12
2009/04/23 06:57:55.3     -71     73     50    103    114 315.9  27.3  33930  285.68 0855.12
2009/04/23 06:57:55.4     -91     31     25     97    101 289.1  14.7  33930  285.68 0855.12
2009/04/23 06:57:55.5     -33     39     -3     52     53 319.5  -4.1  33942  285.88 0855.12
2009/04/23 06:57:55.6     -10     18     -5     21     22 329.3 -13.4  33944  285.92 0855.12
2009/04/23 06:57:55.7      39      7     15     40     42  79.4  21.0  33940  285.85 0855.12
2009/04/23 06:57:55.8      84    -21     30     87     93 104.2  19.4  33950  286.02 0855.12
2009/04/23 06:57:55.9      67     54     79     87    117  51.4  47.5  33990  286.69 0855.12
2009/04/23 06:57:56.0      77     93     92    121    152  39.6  41.6  33994  286.78 0855.12
2009/04/23 06:57:56.1      83     88     79    121    144  43.3  35.6  33990  286.71 0855.13
2009/04/23 06:57:56.2      61     73     75     96    121  39.6  41.7  33994  286.78 0855.13
2009/04/23 06:57:56.3      35     64     75     74    105  29.0  49.7  34000  286.88 0855.13
2009/04/23 06:57:56.4      34     22     68     41     79  56.7  66.2  33996  286.81 0855.13
2009/04/23 06:57:56.5      60     25     73     66     98  67.4  52.7  33966  286.30 0855.13
2009/04/23 06:57:56.6      99     49     53    111    123  63.4  27.2  33958  286.15 0855.13
2009/04/23 06:57:56.7     121     74     27    142    145  58.5  11.1  33952  286.05 0855.13
2009/04/23 06:57:56.8     116     71     19    137    139  58.5   8.0  33934  285.76 0855.13
2009/04/23 06:57:56.9     110     97      7    148    149  48.6   2.9  33936  285.78 0855.13
2009/04/23 06:57:57.1     128     93     12    159    160  54.0   4.6  33932  285.71 0855.13
2009/04/23 06:57:57.1     137     94     -1    167    168  55.6  -0.5  33936  285.80 0855.13
2009/04/23 06:57:57.2     129    100    -13    164    165  52.2  -4.9  33942  285.90 0855.13
2009/04/23 06:57:57.3     123    102     -7    161    162  50.4  -2.8  33940  285.85 0855.13
2009/04/23 06:57:57.5     121    106     -3    162    163  48.7  -1.1  33938  285.83 0855.13
2009/04/23 06:57:57.6     133    125    -17    183    184  46.9  -5.6  33942  285.88 0855.13
2009/04/23 06:57:57.7     144    129      4    194    195  48.2   1.2  33940  285.85 0855.13
2009/04/23 06:57:57.7     170    108     39    202    206  57.5  11.0  33976  286.47 0855.13
2009/04/23 06:57:57.9     278    132      9    308    309  64.6   1.8  33952  286.06 0855.13
2009/04/23 06:57:57.9     324    152    -23    359    360  64.8  -3.8  33952  286.05 0855.13
2009/04/23 06:57:58.1     321    155    -11    357    358  64.1  -1.8  33952  286.07 0855.13
2009/04/23 06:57:58.2     302    141     -1    334    335  65.0  -0.2  33942  285.89 0855.12
2009/04/23 06:57:58.2     285    124    -16    311    312  66.5  -3.0  33944  285.91 0855.12
2009/04/23 06:57:58.4     271    109      9    293    294  68.0   1.8  33932  285.71 0855.12
2009/04/23 06:57:58.5     276     83    -23    289    290  73.2  -4.6  33928  285.64 0855.12
2009/04/23 06:57:58.5     286     93    -14    301    302  71.8  -2.8  33930  285.69 0855.12
2009/04/23 06:57:58.7     273     87      4    287    288  72.2   0.8  33932  285.72 0855.12
2009/04/23 06:57:58.8     274     90     14    289    290  71.8   2.9  33942  285.88 0855.12
2009/04/23 06:57:58.8     256     94     24    273    275  69.8   5.2  33936  285.77 0855.12
2009/04/23 06:57:59.0     246     87     -1    261    262  70.5  -0.3  33952  286.06 0855.12
2009/04/23 06:57:59.0     255     78     21    267    268  72.9   4.6  33950  286.01 0855.12
2009/04/23 06:57:59.2     281     90     37    296    299  72.2   7.2  33944  285.91 0855.12
2009/04/23 06:57:59.2     266     70    -35    276    279  75.2  -7.3  33944  285.91 0855.12
2009/04/23 06:57:59.4     246    -16     25    247    249  93.9   5.9  33934  285.74 0855.12
2009/04/23 06:57:59.5     246    -45     42    251    255 100.4   9.5  33936  285.79 0855.12
2009/04/23 06:57:59.6     219    -81      4    234    235 110.4   1.0  33940  285.86 0855.12
2009/04/23 06:57:59.7     195    -32    -47    198    204  99.5 -13.4  33936  285.78 0855.12
2009/04/23 06:57:59.8     183    -21     26    185    187  96.6   8.2  33934  285.75 0855.12
2009/04/23 06:57:59.9     167     34     93    171    194  78.5  31.3  33932  285.73 0855.12
2009/04/23 06:58:00.0     171      8    110    172    204  87.2  35.6  33932  285.71 0855.12
2009/04/23 06:58:00.1     156     45     50    163    171  73.8  17.1  33932  285.71 0855.12
2009/04/23 06:58:00.2     147     62    -18    160    162  67.2  -6.7  33940  285.85 0855.12
2009/04/23 06:58:00.3     170     88    -16    192    193  62.5  -4.9  33942  285.88 0855.12
2009/04/23 06:58:00.4     205     94    -62    226    235  65.4 -15.4  33944  285.93 0855.12
2009/04/23 06:58:00.5     216     89     91    234    251  67.4  22.1  33958  286.15 0855.12
2009/04/23 06:58:00.6     219    113    105    247    268  62.7  24.3  33952  286.04 0855.12
2009/04/23 06:58:00.7     219    120    119    250    276  61.2  27.2  33942  285.89 0855.12
2009/04/23 06:58:00.8     207    114     59    237    245  61.2  14.2  33940  285.86 0855.12
2009/04/23 06:58:00.9     162     70     14    177    178  66.7   4.6  33938  285.83 0855.12
2009/04/23 06:58:01.0     210     25     20    212    214  83.0   5.4  33942  285.88 0855.12
2009/04/23 06:58:01.1     224     54     17    231    232  76.3   4.4  33946  285.97 0855.12
2009/04/23 06:58:01.2     207     69     11    219    220  71.4   2.9  33944  285.93 0855.12
2009/04/23 06:58:01.3     246     88    -52    262    268  70.3 -11.3  33948  285.98 0855.12
2009/04/23 06:58:01.4     190     69     61    203    213  70.0  16.8  33944  285.92 0855.12
2009/04/23 06:58:01.5     206     82     72    223    235  68.2  17.9  33944  285.92 0855.12
2009/04/23 06:58:01.6     227     73     40    239    243  72.2   9.5  33946  285.96 0855.12
2009/04/23 06:58:01.7     210     96     42    232    236  65.4  10.3  33952  286.06 0855.12
2009/04/23 06:58:01.8     226    111     26    252    254  63.8   5.9  33952  286.06 0855.12
2009/04/23 06:58:01.9     241    104     25    263    265  66.7   5.4  33944  285.93 0855.12
2009/04/23 06:58:02.0     234    109     24    259    261  64.9   5.4  33948  285.99 0855.12
2009/04/23 06:58:02.1     222     45    -10    227    228  78.5  -2.6  33942  285.90 0855.12
2009/04/23 06:58:02.2     220     45    -20    225    226  78.3  -5.2  33940  285.85 0855.12
2009/04/23 06:58:02.3     198     31     -7    201    202  81.0  -2.2  33942  285.90 0855.12
2009/04/23 06:58:02.4     209      2    -58    210    218  89.4 -15.5  33942  285.90 0855.12
2009/04/23 06:58:02.5     182      7    -23    183    185  87.6  -7.3  33940  285.87 0855.12
2009/04/23 06:58:02.6     199     27     13    201    202  82.1   3.8  33938  285.83 0855.12
2009/04/23 06:58:02.7     213     62     37    222    226  73.6   9.5  33946  285.97 0855.12
2009/04/23 06:58:02.8     195     39     33    199    202  78.6   9.5  33944  285.93 0855.12
2009/04/23 06:58:02.9     188     52     16    196    197  74.5   4.9  33948  285.98 0855.12
2009/04/23 06:58:03.0     132    182    -76    225    238  36.0 -18.7  33994  286.75 0855.12
2009/04/23 06:58:03.1     190     85     42    209    214  65.8  11.4  33938  285.83 0855.12
2009/04/23 06:58:03.2     209    103     50    234    240  63.8  12.2  33940  285.84 0855.12
2009/04/23 06:58:03.3     212     84     24    229    231  68.3   6.1  33936  285.80 0855.12
2009/04/23 06:58:03.4     196     75     17    211    212  68.9   4.9  33930  285.70 0855.12
2009/04/23 06:58:03.5     216     57     17    224    225  75.0   4.6  33930  285.68 0855.12
2009/04/23 06:58:03.6     188     63     40    199    204  71.4  11.4  33930  285.70 0855.12
2009/04/23 06:58:03.7     181     63     71    192    204  70.7  21.0  33928  285.66 0855.12
2009/04/23 06:58:03.8     158     22     63    160    171  82.1  22.5  33936  285.78 0855.12
2009/04/23 06:58:03.9     179     47     40    186    191  75.2  12.2  33934  285.75 0855.12
2009/04/23 06:58:04.0     150     30     53    154    164  78.5  19.2  33934  285.75 0855.12
2009/04/23 06:58:04.1     123     29     44    127    135  76.7  19.2  33932  285.71 0855.12
2009/04/23 06:58:04.2     113     26     95    117    150  76.7  43.7  33932  285.73 0855.11
2009/04/23 06:58:04.3      52    -31     75     61     96 121.5  56.4  33934  285.75 0855.11
2009/04/23 06:58:04.4     102    -27     72    106    128 105.0  37.6  33932  285.73 0855.11
2009/04/23 06:58:04.5      98    -92    107    135    172 133.1  42.7  33912  285.38 0855.11
2009/04/23 06:58:04.6     127    -96     79    160    178 127.3  28.2  33906  285.29 0855.11
2009/04/23 06:58:04.7     118    -47     90    128    156 111.7  38.6  33914  285.41 0855.11
2009/04/23 06:58:04.8     132    -72    100    151    181 118.9  36.5  33918  285.50 0855.11
2009/04/23 06:58:04.9     124    -72     79    144    164 120.2  31.4  33938  285.82 0855.11
2009/04/23 06:58:05.0     120    -52     85    132    157 113.6  35.7  33932  285.73 0855.11
2009/04/23 06:58:05.1     108   -100     90    148    173 132.7  34.8  33934  285.75 0855.11
2009/04/23 06:58:05.2      61   -128    123    142    187 154.5  45.4  33926  285.61 0855.11
2009/04/23 06:58:05.3     106   -119    135    160    209 138.5  44.3  33920  285.51 0855.11
2009/04/23 06:58:05.4      43    -77    114     89    144 151.0  58.4  33920  285.51 0855.11
2009/04/23 06:58:05.5      86   -110    124    140    187 142.1  46.2  33924  285.60 0855.11
2009/04/23 06:58:05.6      86   -154    122    177    214 150.8  37.6  33932  285.73 0855.11
2009/04/23 06:58:05.7      50   -168     62    176    186 163.3  20.2  33932  285.71 0855.11
2009/04/23 06:58:05.8      45   -159     53    166    175 164.2  17.7  33926  285.63 0855.11
2009/04/23 06:58:05.9      30   -150     53    154    164 168.4  19.2  33926  285.63 0855.11
2009/04/23 06:58:06.0       2   -161     52    162    171 179.3  17.9  33926  285.61 0855.11
2009/04/23 06:58:06.1       0   -182     49    183    190 180.0  15.2  33918  285.50 0855.11
2009/04/23 06:58:06.2      -3   -206     77    207    220 180.9  21.3  33918  285.48 0855.10
2009/04/23 06:58:06.3       6   -218     82    219    233 178.4  21.0  33916  285.46 0855.10
2009/04/23 06:58:06.4      10   -215     77    216    229 177.3  20.2  33924  285.60 0855.10
2009/04/23 06:58:06.5       0   -188     85    189    207 179.8  25.9  33916  285.46 0855.10
2009/04/23 06:58:06.6       0   -204     71    205    218 180.0  19.2  33924  285.58 0855.10
2009/04/23 06:58:06.7      -4   -194     61    195    205 181.4  17.4  33920  285.53 0855.10
2009/04/23 06:58:06.8      15   -187     58    188    197 175.3  17.3  33922  285.56 0855.10
2009/04/23 06:58:06.9      53   -187     55    195    203 164.0  15.8  33924  285.60 0855.10
2009/04/23 06:58:07.0      62   -197     37    207    211 162.4  10.3  33928  285.66 0855.10
2009/04/23 06:58:07.1      65   -192     50    203    210 161.3  13.9  33924  285.60 0855.10
2009/04/23 06:58:07.2      90   -189     50    210    216 154.5  13.5  33928  285.65 0855.10
2009/04/23 06:58:07.3     106   -165     59    197    206 147.3  16.8  33924  285.58 0855.10
2009/04/23 06:58:07.4      63   -142    108    156    189 155.9  38.0  33926  285.63 0855.10
2009/04/23 06:58:07.5      42   -148     87    154    176 164.0  31.6  33928  285.66 0855.10
2009/04/23 06:58:07.6       0   -116     59    117    131 180.0  28.7  33928  285.66 0855.10
2009/04/23 06:58:07.7      -8   -122     61    123    137 184.0  28.2  33922  285.56 0855.10
2009/04/23 06:58:07.8      13   -125    112    126    168 173.8  46.4  33926  285.63 0855.10
2009/04/23 06:58:07.9      25   -122     90    125    154 168.4  39.5  33924  285.60 0855.10
2009/04/23 06:58:08.0      43   -131    107    139    175 161.7  41.7  33924  285.60 0855.10
2009/04/23 06:58:08.1      21   -122     91    124    153 170.2  39.7  33928  285.65 0855.10
2009/04/23 06:58:08.2      54   -108     80    122    145 153.3  36.0  33924  285.58 0855.10
2009/04/23 06:58:08.3      75   -109     77    133    153 145.3  33.4  33926  285.61 0855.10
2009/04/23 06:58:08.4      34   -114     91    120    150 163.1  41.2  33928  285.65 0855.10
2009/04/23 06:58:08.5      -1   -118     79    119    142 180.5  36.5  33932  285.71 0855.10
2009/04/23 06:58:08.6      18   -115     85    117    144 171.1  39.7  33924  285.60 0855.10
2009/04/23 06:58:08.7      50   -105    111    117    161 154.7  48.7  33924  285.60 0855.10
2009/04/23 06:58:08.8      36   -135    101    140    172 164.9  39.1  33926  285.61 0855.10
2009/04/23 06:58:08.9      34   -106     86    112    141 162.2  41.7  33926  285.63 0855.10
2009/04/23 06:58:09.0      84    -89     76    123    144 136.7  35.5  33926  285.63 0855.10
2009/04/23 06:58:09.1      78    -99     39    127    133 141.7  17.3  33936  285.80 0855.10
2009/04/23 06:58:09.2      54    -70     66     89    110 142.6  40.1  33928  285.66 0855.10
2009/04/23 06:58:09.3      91    -30     68     97    118 108.6  38.6  33946  285.95 0855.10
2009/04/23 06:58:09.4     127    -23     69    130    147 100.6  29.8  33952  286.05 0855.10
2009/04/23 06:58:09.5     125      9     24    126    129  85.6  11.1  33958  286.17 0855.10
2009/04/23 06:58:09.6      50    -82     25     97    101 148.4  14.7  33936  285.80 0855.10
2009/04/23 06:58:09.7       0    -68     47     69     83 180.0  37.6  33924  285.58 0855.10
2009/04/23 06:58:09.8      10    -50     64     52     82 168.5  56.4  33926  285.63 0855.10
2009/04/23 06:58:09.9      32    -35     42     48     63 137.7  46.9  33934  285.75 0855.10
2009/04/23 06:58:10.0      47     -3     33     48     58  94.4  36.5  33960  286.20 0855.10
2009/04/23 06:58:10.1      23     10     24     26     35  66.5  50.0  33970  286.37 0855.10
2009/04/23 06:58:10.2      15      8     19     18     26  61.1  50.1  33960  286.19 0855.09
2009/04/23 06:58:10.3      -7      2      6      8     10 288.6  43.7  33946  285.95 0855.09
2009/04/23 06:58:10.4      -8      9    -23     13     26 316.6 -71.2  33948  285.98 0855.09
2009/04/23 06:58:10.5     -60     -4    -39     61     72 265.6 -40.0  33946  285.95 0855.09
2009/04/23 06:58:10.6     -36    -57     -6     68     69 212.6  -5.2  33930  285.70 0855.09
2009/04/23 06:58:10.7     -25    -34      7     43     44 217.0  10.1  33924  285.60 0855.09
2009/04/23 06:58:10.8     -29    -34      2     45     46 220.5   2.9  33924  285.58 0855.09
2009/04/23 06:58:10.9     -43    -39    -21     59     63 227.8 -19.7  33926  285.61 0855.09
2009/04/23 06:58:11.0     -17    -51    -12     54     56 198.7 -12.4  33930  285.70 0855.09
2009/04/23 06:58:11.1     -37    -75     -6     84     85 206.7  -4.6  33928  285.66 0855.09
2009/04/23 06:58:11.2     -35    -54    -10     65     66 213.4  -9.3  33926  285.61 0855.09
2009/04/23 06:58:11.3     -43    -39    -21     59     63 227.8 -19.7  33926  285.61 0855.09
2009/04/23 06:58:11.4     -35    -23     -9     43     45 236.7 -12.4  33924  285.60 0855.09
2009/04/23 06:58:11.5     -24     -8     -8     26     28 251.4 -17.6  33930  285.70 0855.09
2009/04/23 06:58:11.6     -32     -6     -9     33     35 258.5 -15.5  33928  285.66 0855.09
2009/04/23 06:58:11.7     -22      0    -15     23     27 270.0 -40.0  33930  285.68 0855.09
2009/04/23 06:58:11.8      -3     14    -11     15     18 344.9 -44.1  33930  285.68 0855.09
2009/04/23 06:58:11.9       9     21    -16     24     28  23.6 -40.0  33936  285.78 0855.09
2009/04/23 06:58:12.0      19      5     -2     20     21  74.9  -7.3  33940  285.85 0855.09
2009/04/23 06:58:12.1      40      0     26     41     48  90.0  35.5  33938  285.82 0855.09
2009/04/23 06:58:12.2      49     -9     20     50     53 101.5  22.0  33944  285.93 0855.10
2009/04/23 06:58:12.3      48      7     16     49     52  81.2  18.4  33946  285.95 0855.10
2009/04/23 06:58:12.4      49      0     21     50     54  90.8  23.0  33944  285.92 0855.10
2009/04/23 06:58:12.5      42     -3     21     43     47  95.2  28.2  33938  285.82 0855.10
2009/04/23 06:58:12.6      28      0     21     29     35  89.2  39.7  33938  285.82 0855.10
2009/04/23 06:58:12.7      10    -10     18     15     23 135.0  54.3  33938  285.82 0855.10
2009/04/23 06:58:12.8      -5    -10     20     12     23 209.0  66.8  33940  285.85 0855.10
2009/04/23 06:58:12.9     -16     -7     15     18     23 244.7  45.8  33940  285.85 0855.10
2009/04/23 06:58:13.0     -28    -18     11     34     36 237.6  18.9  33942  285.88 0855.10
2009/04/23 06:58:13.1     -12    -35     15     38     40 198.7  22.0  33936  285.80 0855.10
2009/04/23 06:58:13.2       0    -51     32     52     61 180.9  35.5  33920  285.51 0855.10
2009/04/23 06:58:13.3      29    -46     25     55     60 147.5  27.1  33922  285.55 0855.10
2009/04/23 06:58:13.4      13    -49     23     51     55 164.9  26.2  33920  285.51 0855.10
2009/04/23 06:58:13.5     -20    -35      5     41     42 209.9   6.9  33924  285.58 0855.10
2009/04/23 06:58:13.6     -42    -17     16     46     49 247.4  19.2  33928  285.65 0855.10
2009/04/23 06:58:13.7     -43    -43     24     61     65 225.0  23.0  33924  285.58 0855.10
2009/04/23 06:58:13.8     -24    -66     27     71     75 200.0  21.0  33922  285.56 0855.10
2009/04/23 06:58:13.9     -45    -55     57     72     91 219.6  42.7  33920  285.51 0855.10
2009/04/23 06:58:14.0     -45    -54     -7     71     72 219.7  -6.2  33926  285.61 0855.10
2009/04/23 06:58:14.1      -1    -74    -27     75     79 180.9 -24.8  33924  285.58 0855.10
2009/04/23 06:58:14.2      -7    -71    -21     72     75 186.2 -21.7  33924  285.60 0855.10
2009/04/23 06:58:14.3       5    -66    -20     67     69 175.5 -21.7  33924  285.58 0855.10
2009/04/23 06:58:14.4      10    -72    -20     73     76 172.0 -15.4  33924  285.58 0855.10
2009/04/23 06:58:14.5       8    -59    -21     60     64 172.0 -19.6  33922  285.55 0855.10
2009/04/23 06:58:14.6      15    -45    -12     48     50 161.7 -14.5  33922  285.56 0855.10
2009/04/23 06:58:14.7      -2    -45     -1     46     47 182.7  -2.2  33922  285.55 0855.10
2009/04/23 06:58:14.8     -16    -70      4     72     73 193.4   3.8  33926  285.61 0855.10
2009/04/23 06:58:14.9     -27    -77      1     82     83 200.0   1.2  33918  285.50 0855.10
2009/04/23 06:58:15.0     -40    -91     -5    100    101 204.1  -3.1  33918  285.50 0855.10
2009/04/23 06:58:15.1     -23    -94      7     97     98 193.8   4.4  33920  285.53 0855.10
2009/04/23 06:58:15.2     -21   -111    -14    113    114 190.7  -7.2  33924  285.58 0855.10
2009/04/23 06:58:15.3      -9   -117    -19    118    120 184.4  -9.4  33922  285.55 0855.10
2009/04/23 06:58:15.4     -32    -91     -3     97     98 199.6  -2.2  33918  285.50 0855.10
2009/04/23 06:58:15.5     -92   -119      7    151    152 217.9   2.8  33920  285.53 0855.10
2009/04/23 06:58:15.6     -68   -130     35    147    152 207.6  13.5  33918  285.50 0855.10
2009/04/23 06:58:15.7     -64   -130     37    146    151 206.3  14.3  33922  285.56 0855.10
2009/04/23 06:58:15.8     -53   -114     32    126    131 204.9  14.3  33920  285.53 0855.10
2009/04/23 06:58:15.9     -31   -129     45    133    141 193.8  18.9  33922  285.55 0855.10
2009/04/23 06:58:16.0     -59   -124     40    138    144 205.5  16.3  33922  285.55 0855.10
2009/04/23 06:58:16.1     -61   -116     46    132    140 207.6  19.4  33922  285.56 0855.10
2009/04/23 06:58:16.2     -73   -119     67    140    155 211.6  27.3  33922  285.55 0855.09
2009/04/23 06:58:16.3     -29    -88     58     93    109 198.7  35.5  33920  285.51 0855.09
2009/04/23 06:58:16.4      -5   -123     95    124    156 182.7  41.6  33920  285.53 0855.09
2009/04/23 06:58:16.5     -13   -140     99    141    172 185.3  38.4  33920  285.53 0855.09
2009/04/23 06:58:16.6       9   -140     73    141    158 176.0  29.5  33922  285.55 0855.09
2009/04/23 06:58:16.7      23   -159     75    161    177 171.5  27.0  33922  285.55 0855.09
2009/04/23 06:58:16.8      -8   -157     57    158    167 183.1  20.4  33922  285.56 0855.09
2009/04/23 06:58:16.9      17   -123     66    125    141 171.9  29.8  33920  285.53 0855.09
2009/04/23 06:58:17.0       2   -101     84    102    132 178.6  43.8  33922  285.56 0855.09
2009/04/23 06:58:17.1       4    -78     77     79    110 176.4  49.4  33920  285.53 0855.09
2009/04/23 06:58:17.2     -18    -62     62     65     89 196.9  49.0  33922  285.56 0855.09
2009/04/23 06:58:17.3      39    -62     47     74     87 147.5  35.5  33922  285.55 0855.09
2009/04/23 06:58:17.4      54    -71     46     90    101 143.0  29.3  33920  285.53 0855.09
2009/04/23 06:58:17.5      32    -67     32     75     81 154.7  24.1  33920  285.53 0855.09
2009/04/23 06:58:17.6      12    -53     58     55     79 166.6  51.2  33926  285.61 0855.09
2009/04/23 06:58:17.7      52    -38     49     65     81 126.0  41.2  33922  285.56 0855.09
2009/04/23 06:58:17.8      97    -43     49    107    117 114.0  26.2  33924  285.60 0855.09
2009/04/23 06:58:17.9     112   -118      6    163    164 136.6   2.1  33924  285.58 0855.09
2009/04/23 06:58:18.0     125   -137     34    186    190 137.5  10.3  33926  285.61 0855.09
2009/04/23 06:58:18.1     113   -114     69    161    175 135.3  24.6  33924  285.58 0855.09
2009/04/23 06:58:18.2     104    -97     60    143    155 133.1  23.6  33924  285.58 0855.09
2009/04/23 06:58:18.3      64   -119     42    136    143 151.5  17.3  33926  285.61 0855.09
2009/04/23 06:58:18.4      51   -122     41    133    140 157.3  17.4  33926  285.61 0855.09
2009/04/23 06:58:18.5      17   -119     56    121    133 171.5  26.6  33924  285.60 0855.09
2009/04/23 06:58:18.6       0   -100     85    101    132 180.0  44.3  33924  285.60 0855.09
2009/04/23 06:58:18.7     -33    -87     83     94    125 200.9  45.9  33926  285.63 0855.09
2009/04/23 06:58:18.8     -37   -119     58    125    137 197.4  26.6  33926  285.61 0855.09
2009/04/23 06:58:18.9     -56   -101     60    116    130 209.0  29.3  33926  285.61 0855.09
2009/04/23 06:58:19.0     -88   -101     62    135    148 221.0  26.6  33924  285.58 0855.09
2009/04/23 06:58:19.1     -97   -103     61    142    154 223.2  25.1  33926  285.63 0855.09
2009/04/23 06:58:19.2    -106   -105     29    150    153 225.2  11.0  33924  285.58 0855.09
2009/04/23 06:58:19.3    -103    -21    -66    106    124 258.5 -39.9  33926  285.63 0855.09
2009/04/23 06:58:19.4    -104      8    -59    105    120 274.4 -36.3  33924  285.58 0855.09
2009/04/23 06:58:19.5    -118      0    -33    119    123 270.0 -20.2  33920  285.53 0855.09
2009/04/23 06:58:19.6     -80      6    -29     81     87 274.8 -19.7  33918  285.48 0855.09
2009/04/23 06:58:19.7     -58     39     49     71     86 304.2  38.0  33920  285.53 0855.09
2009/04/23 06:58:19.8     -49     21     71     54     89 293.5  59.0  33922  285.55 0855.09
2009/04/23 06:58:19.9     -22      7     72     24     75 288.2  81.0  33922  285.55 0855.09
2009/04/23 06:58:20.0      -2    -20     37     21     42 188.0  67.7  33924  285.58 0855.09
2009/04/23 06:58:20.1       4    -23     31     24     39 170.2  56.4  33922  285.56 0855.09
2009/04/23 06:58:20.2     -37    -40     30     55     62 223.2  31.3  33924  285.60 0855.09
2009/04/23 06:58:20.3     -58    -57      4     82     83 225.6   3.3  33922  285.56 0855.09
2009/04/23 06:58:20.4     -58    -46     22     75     79 231.4  16.8  33924  285.60 0855.09
2009/04/23 06:58:20.5     -46    -34      2     58     59 234.0   2.9  33922  285.55 0855.09
2009/04/23 06:58:20.6     -25    -40    -17     48     52 212.6 -19.7  33924  285.58 0855.09
2009/04/23 06:58:20.7     -12    -61      3     63     64 191.5   2.9  33924  285.58 0855.09
2009/04/23 06:58:20.8      41    -57     27     71     75 143.9  21.0  33924  285.58 0855.09
2009/04/23 06:58:20.9      34    -67     58     76     95 152.8  41.7  33924  285.58 0855.09
2009/04/23 06:58:21.0      57    -34     52     67     84 120.7  41.7  33922  285.55 0855.09
2009/04/23 06:58:21.1      33    -33     59     48     76 135.0  56.4  33924  285.58 0855.09
2009/04/23 06:58:21.2      29    -15     40     33     51 117.1  56.4  33922  285.55 0855.10
2009/04/23 06:58:21.3     -24    -12     28     28     39 242.9  50.1  33924  285.58 0855.10
2009/04/23 06:58:21.4     -23     -7     17     25     30 251.4  37.6  33922  285.56 0855.10
2009/04/23 06:58:21.5     -11      1     14     12     18 277.9  48.2  33922  285.56 0855.10
2009/04/23 06:58:21.6       0      5     11      6     12 357.3  68.8  33924  285.60 0855.10
2009/04/23 06:58:21.7     -18      1      7     19     20 274.4  21.0  33924  285.58 0855.10
2009/04/23 06:58:21.8     -47     18     -8     51     52 291.7  -9.3  33924  285.58 0855.10
2009/04/23 06:58:21.9     -50     10    -37     52     63 281.5 -43.9  33922  285.56 0855.10
2009/04/23 06:58:22.0     -41     43    -16     60     63 316.8 -15.5  33922  285.55 0855.10
2009/04/23 06:58:22.1     -73     23     41     77     87 287.7  30.3  33920  285.51 0855.10
2009/04/23 06:58:22.2     -84      9    -12     85     86 276.6  -8.2  33918  285.50 0855.10
2009/04/23 06:58:22.3     -91      2      4     92     93 271.7   2.9  33916  285.44 0855.10
2009/04/23 06:58:22.4     -65     37     38     75     84 299.8  28.7  33918  285.48 0855.10
2009/04/23 06:58:22.5    -115    -63    -14    132    133 241.2  -6.2  33922  285.55 0855.10
2009/04/23 06:58:22.6    -162      0    -80    163    181 270.0 -32.2  33920  285.51 0855.10
2009/04/23 06:58:22.7    -219    -21    -99    221    242 264.5 -30.1  33922  285.54 0855.10
2009/04/23 06:58:22.8    -231   -106    -87    255    270 245.4 -18.9  33920  285.51 0855.10
2009/04/23 06:58:22.9    -233    -94    -89    252    268 248.0 -19.4  33922  285.54 0855.10
2009/04/23 06:58:23.0    -321    -24   -131    322    347 265.6 -27.6  33918  285.50 0855.10
2009/04/23 06:58:23.1    -221    -72    -79    233    246 251.8 -23.6  33914  285.42 0855.10
2009/04/23 06:58:23.2    -144   -137     -1    200    201 226.4  -0.5  33916  285.46 0855.09
2009/04/23 06:58:23.3    -216   -100     98    239    258 245.2  23.4  33918  285.49 0855.09
2009/04/23 06:58:23.4    -209   -123     57    243    250 239.4  13.2  33920  285.52 0855.09
2009/04/23 06:58:23.5    -138    -98     45    170    177 234.5  15.0  33920  285.51 0855.09
2009/04/23 06:58:23.6    -121    -91     54    152    162 233.1  19.6  33918  285.50 0855.09
2009/04/23 06:58:23.7    -107   -102     29    148    151 226.4  11.1  33920  285.51 0855.09
2009/04/23 06:58:23.8    -109   -102     25    150    153 226.9   9.5  33916  285.46 0855.09
2009/04/23 06:58:23.9    -101    -84     44    132    140 230.0  18.4  33920  285.51 0855.09
2009/04/23 06:58:24.0     -46    -38     96     61    113 230.4  64.7  33920  285.53 0855.09
2009/04/23 06:58:24.1     -84    -56     59    102    117 236.3  32.4  33920  285.53 0855.09
2009/04/23 06:58:24.2    -126    -13     44    127    135 263.9  19.4  33924  285.58 0855.09
2009/04/23 06:58:24.3     -85    -22     17     88     90 255.4  11.1  33922  285.55 0855.09
2009/04/23 06:58:24.4     -40    -39     41     57     70 225.9  39.7  33922  285.55 0855.09
2009/04/23 06:58:24.5     -90    -30     26     95     99 251.4  15.3  33916  285.44 0855.09
2009/04/23 06:58:24.6      -6    -43      0     44     45 188.0  -0.3  33920  285.51 0855.09
2009/04/23 06:58:24.7     -13    -67     -2     69     70 191.5  -2.2  33920  285.53 0855.09
2009/04/23 06:58:24.8     -46   -105     57    115    128 203.6  28.2  33922  285.55 0855.09
2009/04/23 06:58:24.9     -88   -117     63    147    159 217.0  24.6  33922  285.55 0855.09
2009/04/23 06:58:25.1    -100   -138     62    171    181 216.1  20.7  33924  285.58 0855.09
2009/04/23 06:58:25.2     -56   -121     40    134    140 204.9  16.8  33920  285.53 0855.09
2009/04/23 06:58:25.3     -85    -70    -24    111    114 230.4 -12.4  33920  285.53 0855.09
2009/04/23 06:58:25.4     -36    -45      2     58     59 218.7   2.9  33922  285.55 0855.09
2009/04/23 06:58:25.5     -76    -48     -6     90     91 237.6  -4.1  33922  285.55 0855.09
2009/04/23 06:58:25.6    -118    -75    -11    140    141 237.5  -4.6  33920  285.53 0855.09
2009/04/23 06:58:25.7    -110    -97    -18    147    149 228.7  -7.2  33922  285.56 0855.09
2009/04/23 06:58:25.8    -141   -130      8    193    194 227.3   2.5  33918  285.50 0855.09
2009/04/23 06:58:25.8    -151    -93    -42    178    183 238.5 -13.4  33920  285.53 0855.09
2009/04/23 06:58:26.0    -150    -58    -43    161    167 248.7 -15.2  33920  285.51 0855.09
2009/04/23 06:58:26.1    -120    -72    -28    141    144 238.9 -11.5  33922  285.55 0855.09
2009/04/23 06:58:26.2     -54    -61    -15     82     84 221.4 -10.9  33922  285.55 0855.09
2009/04/23 06:58:26.2     -17    -36    -10     40     42 205.5 -14.5  33922  285.55 0855.09
2009/04/23 06:58:26.4     -18    -89     43     91    100 191.5  27.2  33918  285.50 0855.09
2009/04/23 06:58:26.4     -68    -69     40     98    105 224.5  23.1  33922  285.55 0855.09
2009/04/23 06:58:26.5     -41    -97     54    106    118 203.2  29.3  33920  285.53 0855.09
2009/04/23 06:58:26.7     -35    -48     92     60    109 216.1  64.6  33918  285.50 0855.09
2009/04/23 06:58:26.8     -14     30     87     34     93 334.7  78.2  33918  285.48 0855.09
2009/04/23 06:58:26.9      21     63     15     67     69  18.3  13.2  33920  285.51 0855.09
2009/04/23 06:58:27.0     -81    102     15    131    132 321.7   6.9  33922  285.55 0855.09
2009/04/23 06:58:27.1     -78    107     23    133    136 324.0  10.1  33914  285.43 0855.09
2009/04/23 06:58:27.2    -170     80    -20    189    191 295.3  -6.2  33918  285.48 0855.09
2009/04/23 06:58:27.3    -159     53     34    168    172 288.6  11.4  33916  285.44 0855.09
2009/04/23 06:58:27.4    -165     12     47    166    173 274.4  15.8  33916  285.44 0855.09
2009/04/23 06:58:27.5    -133     -7     -7    134    135 267.0  -3.1  33914  285.41 0855.09
2009/04/23 06:58:27.6    -173    -45    -13    179    180 255.2  -4.4  33918  285.50 0855.09
2009/04/23 06:58:27.7    -153    -16    -24    154    156 263.9  -9.0  33918  285.50 0855.09
2009/04/23 06:58:27.8    -152     15     30    153    156 275.7  11.1  33920  285.51 0855.09
2009/04/23 06:58:27.9    -207    -28     47    209    215 262.1  12.9  33916  285.46 0855.09
2009/04/23 06:58:28.0    -197   -109     70    226    237 241.1  17.3  33922  285.54 0855.09
2009/04/23 06:58:28.1    -208    -96     27    230    232 245.2   6.9  33920  285.51 0855.09
2009/04/23 06:58:28.2    -153    -87     61    177    188 240.2  19.2  33916  285.46 0855.09
2009/04/23 06:58:28.3    -142    -77     13    162    163 241.6   4.9  33912  285.39 0855.09
2009/04/23 06:58:28.4    -102    -66     24    122    125 237.1  11.1  33916  285.44 0855.09
2009/04/23 06:58:28.5     -49    -28     20     57     61 240.2  19.4  33912  285.39 0855.09
2009/04/23 06:58:28.6    -102      0    -28    103    107 270.0 -15.5  33914  285.43 0855.09
2009/04/23 06:58:28.7     -57     57    -21     81     84 314.9 -15.0  33914  285.41 0855.09
2009/04/23 06:58:28.8     -36    -27     85     45     96 233.1  69.8  33916  285.46 0855.09
2009/04/23 06:58:28.9     -83    -57     97    101    140 235.4  49.0  33922  285.55 0855.09
2009/04/23 06:58:29.0     -87    -90     66    126    142 224.1  29.8  33920  285.51 0855.09
2009/04/23 06:58:29.1     -85    -98     58    131    143 221.0  25.1  33918  285.50 0855.09
2009/04/23 06:58:29.2    -111    -63     40    128    135 240.2  17.4  33920  285.51 0855.09
2009/04/23 06:58:29.3     -85    -40      4     95     96 244.7   2.8  33920  285.53 0855.08
2009/04/23 06:58:29.4     -72    -24     -1     76     77 251.4  -1.2  33920  285.53 0855.08
2009/04/23 06:58:29.5     -86     -6     -6     87     88 265.6  -4.1  33922  285.56 0855.08
2009/04/23 06:58:29.6     -65    -22    -28     69     74 250.9 -27.4  33920  285.53 0855.08
2009/04/23 06:58:29.7     -54     -5    -19     55     59 263.9 -19.7  33920  285.53 0855.08
2009/04/23 06:58:29.8     -84    -13      1     85     86 261.2   1.2  33918  285.50 0855.08
2009/04/23 06:58:29.9     -64      0     39     65     75 270.8  35.5  33916  285.46 0855.08
2009/04/23 06:58:30.0     -35      7     66     36     75 281.5  68.8  33920  285.51 0855.08
2009/04/23 06:58:30.1       4    -28     52     29     59 172.0  68.8  33920  285.51 0855.08
2009/04/23 06:58:30.2       2     -3     61      4     61 147.5  90.0  33918  285.50 0855.08
2009/04/23 06:58:30.3      -5    -69     68     70     97 184.4  50.5  33918  285.48 0855.08
2009/04/23 06:58:30.4     -48     16     91     51    104 288.4  68.3  33920  285.51 0855.08
2009/04/23 06:58:30.5     -69     40     98     80    126 300.2  56.4  33918  285.50 0855.08
2009/04/23 06:58:30.6     -47     65     66     81    104 323.9  43.7  33918  285.50 0855.08
2009/04/23 06:58:30.7       4     62     73     63     96   4.5  54.8  33918  285.48 0855.08
2009/04/23 06:58:30.8      21     63     69     67     96  18.3  50.1  33920  285.53 0855.08
2009/04/23 06:58:30.9     -16     12     70     21     73 307.8  82.8  33916  285.44 0855.08
2009/04/23 06:58:31.0      19     50     60     54     80  20.9  53.3  33920  285.53 0855.08
2009/04/23 06:58:31.1      22     67     71     71    100  18.3  50.1  33918  285.50 0855.08
2009/04/23 06:58:31.2     -27    100    124    104    161 344.9  55.6  33922  285.56 0855.08
2009/04/23 06:58:31.3     -35    107     93    113    146 341.7  43.7  33928  285.66 0855.07
2009/04/23 06:58:31.4      12     69     97     71    120   9.8  60.5  33928  285.66 0855.07
2009/04/23 06:58:31.5       0     34     74     35     81 359.1  73.5  33928  285.66 0855.07
2009/04/23 06:58:31.6      13     21     60     26     65  32.5  75.0  33928  285.66 0855.07
2009/04/23 06:58:31.7     -22     35     83     42     93 328.4  71.9  33930  285.68 0855.07
2009/04/23 06:58:31.8      14     71     86     73    112  11.5  55.8  33926  285.63 0855.07
2009/04/23 06:58:31.9      -8    122     86    123    150 356.0  38.6  33936  285.78 0855.07
2009/04/23 06:58:32.0      26     79     73     84    111  18.7  45.4  33926  285.63 0855.07
2009/04/23 06:58:32.1      30     50     62     59     85  30.7  51.2  33928  285.66 0855.07
2009/04/23 06:58:32.2      33     18     53     38     65  61.1  60.6  33926  285.61 0855.07
2009/04/23 06:58:32.3       0     43     64     44     77   0.0  62.6  33928  285.66 0855.07
2009/04/23 06:58:32.4      42     88     79     98    125  25.4  43.3  33932  285.71 0855.07
2009/04/23 06:58:32.5      36     77     82     86    118  24.9  49.0  33936  285.80 0855.07
2009/04/23 06:58:32.6      41     74     73     85    112  29.4  44.8  33934  285.75 0855.07
2009/04/23 06:58:32.7       6     83     70     84    109   4.4  43.8  33934  285.75 0855.07
2009/04/23 06:58:32.8      25     37     66     45     79  34.3  62.6  33934  285.75 0855.07
2009/04/23 06:58:32.9      24    118     90    121    150  11.5  40.1  33932  285.73 0855.07
2009/04/23 06:58:33.0      17    124     64    126    141   8.1  29.2  33932  285.71 0855.07
2009/04/23 06:58:33.1     -12    102     45    103    112 353.3  25.1  33932  285.73 0855.07
2009/04/23 06:58:33.2       0     49     79     50     93 359.1  64.7  33940  285.87 0855.07
2009/04/23 06:58:33.3       1     70     76     71    104   0.9  52.1  33944  285.93 0855.06
2009/04/23 06:58:33.4       0    106     22    107    110 359.6  11.6  33938  285.83 0855.06
2009/04/23 06:58:33.5      25     82      0     86     87  17.4   0.2  33938  285.82 0855.06
2009/04/23 06:58:33.6      37     65     -4     76     77  29.9  -3.2  33940  285.85 0855.06
2009/04/23 06:58:33.7     -21     90    -12     93     94 346.6  -7.7  33932  285.71 0855.06
2009/04/23 06:58:33.8     -19     94      3     97     98 348.4   2.3  33934  285.76 0855.06
2009/04/23 06:58:33.9      15     83      4     85     86  10.2   3.3  33940  285.87 0855.06
2009/04/23 06:58:34.0      35     55     23     66     70  32.5  19.2  33948  285.98 0855.06
2009/04/23 06:58:34.1      24     52     24     58     62  25.5  23.1  33952  286.07 0855.06
2009/04/23 06:58:34.2      50     53     28     74     79  43.2  21.5  33962  286.22 0855.06
2009/04/23 06:58:34.3      68     85     58    109    123  38.7  30.3  33970  286.37 0855.06
2009/04/23 06:58:34.4      89    114     49    145    154  37.9  18.9  33960  286.20 0855.06
2009/04/23 06:58:34.5      87    100     89    133    160  41.0  37.0  33960  286.19 0855.06
2009/04/23 06:58:34.6      74    111     71    134    151  33.8  29.8  33966  286.29 0855.06
2009/04/23 06:58:34.7      83    103     59    133    145  38.7  25.2  33964  286.27 0855.06
2009/04/23 06:58:34.8      99     95     65    138    152  46.4  27.1  33964  286.27 0855.06
2009/04/23 06:58:34.9      59     93     39    111    118  32.5  19.4  33966  286.30 0855.06
2009/04/23 06:58:35.0      50    100     52    112    123  26.7  26.6  33962  286.24 0855.06
2009/04/23 06:58:35.1      54     80     59     97    113  34.3  35.5  33958  286.15 0855.06
2009/04/23 06:58:35.2      47     67     53     83     98  35.2  35.6  33938  285.82 0855.06
2009/04/23 06:58:35.3      43     59     55     74     92  36.1  40.7  33926  285.63 0855.05
2009/04/23 06:58:35.4      27     39     39     48     61  34.3  43.7  33924  285.60 0855.05
2009/04/23 06:58:35.5      37     12     56     39     68  71.8  61.5  33930  285.68 0855.05
2009/04/23 06:58:35.6      44     36     60     58     83  50.5  50.1  33960  286.19 0855.05
2009/04/23 06:58:35.7      34     35     65     50     82  44.2  58.5  33952  286.05 0855.05
2009/04/23 06:58:35.8       0     48     74     49     88 359.1  63.6  33936  285.78 0855.05
2009/04/23 06:58:35.9       0     41     67     42     79 359.1  65.1  33938  285.82 0855.05
2009/04/23 06:58:36.0       1     12     49     13     50   8.0  84.9  33938  285.82 0855.05
2009/04/23 06:58:36.1       1    -18     48     19     51 175.6  78.2  33932  285.71 0855.05
2009/04/23 06:58:36.2       8     15     55     18     57  29.0  80.7  33926  285.63 0855.05
2009/04/23 06:58:36.3      21      7     60     23     64  70.0  79.2  33920  285.53 0855.05
2009/04/23 06:58:36.4     -49    -81     94     95    133 211.2  50.0  33910  285.36 0855.05
2009/04/23 06:58:36.5     -30    -82    123     88    151 200.5  60.6  33910  285.34 0855.05
2009/04/23 06:58:36.6     -51    -86    104    101    144 210.7  50.2  33910  285.36 0855.05
2009/04/23 06:58:36.7     -52    -73    102     90    136 215.6  54.2  33910  285.34 0855.05
2009/04/23 06:58:36.8     -50    -96    105    109    151 207.6  49.0  33910  285.36 0855.05
2009/04/23 06:58:36.9     -90    -90     80    128    150 225.1  35.5  33912  285.38 0855.05
2009/04/23 06:58:37.0     -83   -119     73    146    163 214.7  28.7  33910  285.36 0855.05
2009/04/23 06:58:37.1    -105   -123     80    162    180 220.5  28.2  33912  285.39 0855.05
2009/04/23 06:58:37.2     -94   -126     58    158    168 216.5  21.0  33912  285.39 0855.05
2009/04/23 06:58:37.3     -93   -124     56    156    165 217.0  20.2  33908  285.33 0855.05
2009/04/23 06:58:37.4    -100   -138     85    171    190 216.1  28.2  33910  285.34 0855.05
2009/04/23 06:58:37.5     -84   -109    100    138    170 217.8  39.7  33912  285.38 0855.05
2009/04/23 06:58:37.6    -100    -67    115    121    166 236.3  48.7  33912  285.39 0855.05
2009/04/23 06:58:37.7    -117   -108    107    160    192 227.3  36.5  33948  285.98 0855.05
2009/04/23 06:58:37.8    -114    -78    122    139    184 235.8  45.8  33956  286.12 0855.05
2009/04/23 06:58:37.9     -78    -37    118     87    146 244.2  60.5  33942  285.90 0855.05
2009/04/23 06:58:38.0     -45    -28     74     54     91 237.6  60.0  33960  286.19 0855.05
2009/04/23 06:58:38.1      24      0     70     25     74  90.0  81.2  33970  286.37 0855.05
2009/04/23 06:58:38.2      56      4     82     57     99  85.7  61.5  33996  286.81 0855.05
2009/04/23 06:58:38.3      95     -5     85     96    128  93.0  45.9  34026  287.30 0855.05
2009/04/23 06:58:38.4     129     39     77    135    155  73.2  32.4  34044  287.60 0855.05
2009/04/23 06:58:38.5      84     27     68     89    112  71.8  41.7  34008  287.01 0855.05
2009/04/23 06:58:38.6      42     14     90     45    100  71.8  71.9  34000  286.86 0855.05
2009/04/23 06:58:38.7      13    -11     65     18     67 129.5  84.8  33982  286.56 0855.05
2009/04/23 06:58:38.8       0      0     46      0     46   0.0  90.0  33968  286.32 0855.05
2009/04/23 06:58:38.9      -4    -12     71     13     72 198.3  89.1  33960  286.20 0855.05
2009/04/23 06:58:39.0      34    -76    124     84    149 155.5  62.7  33956  286.12 0855.05
2009/04/23 06:58:39.1     -55    -88    121    105    160 212.1  54.6  33974  286.44 0855.05
2009/04/23 06:58:39.2     -16   -104    190    106    217 188.9  68.8  33928  285.66 0855.05
2009/04/23 06:58:39.3     -42   -174    226    180    288 193.8  57.5  33922  285.54 0855.05
2009/04/23 06:58:39.4     -68   -176    179    189    260 201.2  48.2  33920  285.52 0855.05
2009/04/23 06:58:39.5    -110   -252    196    276    338 203.6  39.0  33922  285.54 0855.05
2009/04/23 06:58:39.6     -99   -209    135    232    268 205.5  32.9  33924  285.57 0855.05
2009/04/23 06:58:39.7      -7   -152    166    153    225 182.7  52.5  33924  285.60 0855.05
2009/04/23 06:58:39.8      14    -90    117     92    148 171.1  57.9  33924  285.58 0855.05
2009/04/23 06:58:39.9     100    -60    118    117    166 121.1  49.9  33922  285.55 0855.05
2009/04/23 06:58:40.0     109    -68    127    129    181 122.0  49.8  33926  285.61 0855.05
2009/04/23 06:58:40.1     137    -41     80    144    164 106.8  31.6  33924  285.60 0855.05
2009/04/23 06:58:40.2     109    -32     90    114    145 106.8  42.2  33922  285.56 0855.05
2009/04/23 06:58:40.3     127    -37     96    133    164 106.4  39.3  33918  285.50 0855.05
2009/04/23 06:58:40.4     126    -80      2    150    151 122.4   0.8  33920  285.53 0855.05
2009/04/23 06:58:40.5     116    -42     24    124    127 109.9  11.0  33920  285.51 0855.05
2009/04/23 06:58:40.6     165    -63     35    177    181 111.1  11.4  33922  285.55 0855.05
2009/04/23 06:58:40.7     124    -69    -12    143    144 119.3  -5.1  33922  285.56 0855.05
2009/04/23 06:58:40.8      96    -85     -5    129    130 131.3  -2.2  33922  285.56 0855.05
2009/04/23 06:58:40.9      60    -60     12     85     86 134.9   8.5  33924  285.58 0855.05
2009/04/23 06:58:41.0      91    -22     62     94    112 103.7  36.0  33924  285.58 0855.05
2009/04/23 06:58:41.1      60    -48     69     77    103 128.6  47.5  33924  285.60 0855.05
2009/04/23 06:58:41.2      47    -56     68     74    100 140.4  47.9  33928  285.65 0855.05
2009/04/23 06:58:41.3       6    -85     75     86    114 175.6  45.8  33924  285.60 0855.05
2009/04/23 06:58:41.4     -10    -99     54    100    113 186.2  31.3  33924  285.58 0855.05
2009/04/23 06:58:41.5      12    -58     43     60     73 168.4  39.7  33928  285.65 0855.05
2009/04/23 06:58:41.6      -3    -46     36     47     59 184.5  41.7  33924  285.60 0855.05
2009/04/23 06:58:41.7       8    -81     18     82     85 173.8  12.6  33924  285.58 0855.05
2009/04/23 06:58:41.8      16    -67     13     69     71 166.6  11.1  33924  285.58 0855.05
2009/04/23 06:58:41.9      30    -87     37     93    100 160.8  23.0  33926  285.63 0855.05
2009/04/23 06:58:42.0      -1    -37     26     38     46 182.6  37.6  33926  285.61 0855.05
2009/04/23 06:58:42.1     -17    -36     74     40     84 205.4  68.8  33924  285.58 0855.05
2009/04/23 06:58:42.2      -4    -70     56     71     90 183.6  42.7  33926  285.63 0855.05
2009/04/23 06:58:42.3     -11    -78     53     79     95 188.1  36.5  33924  285.60 0855.05
2009/04/23 06:58:42.4      30    -55     57     63     84 151.0  47.5  33922  285.56 0855.05
2009/04/23 06:58:42.5      -8   -109     94    110    144 184.4  44.8  33920  285.53 0855.05
2009/04/23 06:58:42.6     -57   -107     33    122    127 208.1  15.2  33924  285.58 0855.05
2009/04/23 06:58:42.7     -48   -102     31    113    118 205.3  15.3  33922  285.55 0855.05
2009/04/23 06:58:42.8     -32    -96     41    102    109 198.3  23.0  33922  285.55 0855.05
2009/04/23 06:58:42.9     -48   -107     36    118    124 204.5  17.3  33920  285.53 0855.05
2009/04/23 06:58:43.0     -32    -97     25    103    106 198.3  13.7  33922  285.56 0855.05
2009/04/23 06:58:43.1     -36    -93     15    100    102 201.4   8.5  33922  285.55 0855.05
2009/04/23 06:58:43.2     -18    -84     16     87     89 192.5  11.0  33920  285.53 0855.05
2009/04/23 06:58:43.3     -22   -111     25    114    117 191.5  12.6  33920  285.53 0855.05
2009/04/23 06:58:43.4      -2   -114     44    115    123 181.0  21.5  33918  285.50 0855.05
2009/04/23 06:58:43.5     -23    -77      9     81     82 196.5   6.5  33920  285.53 0855.05
2009/04/23 06:58:43.6     -76    -11    -25     77     80 261.2 -23.3  33924  285.58 0855.05
2009/04/23 06:58:43.7    -136    -16    -29    138    142 263.0 -11.9  33938  285.82 0855.05
2009/04/23 06:58:43.8     -84    -10    -17     85     87 263.0 -11.9  33940  285.85 0855.05
2009/04/23 06:58:43.9     -69    -43      5     82     83 237.6   3.8  33942  285.90 0855.05
2009/04/23 06:58:44.0     -51    -58     35     78     85 221.4  25.7  33940  285.87 0855.05
2009/04/23 06:58:44.1      15    -57     62     60     86 164.9  50.1  33934  285.76 0855.05
2009/04/23 06:58:44.2      10    -67     65     68     94 171.1  49.4  33932  285.73 0855.05
2009/04/23 06:58:44.3     -12   -154    110    155    190 184.5  39.1  33928  285.65 0855.05
2009/04/23 06:58:44.4     -55   -226    136    233    269 193.8  32.9  33924  285.57 0855.05
2009/04/23 06:58:44.5     -40   -211    256    215    334 190.9  55.8  33910  285.35 0855.05
2009/04/23 06:58:44.6      10   -139    249    140    285 175.5  68.3  33922  285.54 0855.05
2009/04/23 06:58:44.7      39    -55    179     68    191 144.0  78.4  33924  285.60 0855.05
2009/04/23 06:58:44.8     -41    -42    148     59    159 224.1  77.4  33922  285.56 0855.05
2009/04/23 06:58:44.9     -57   -109    115    124    169 207.6  47.9  33922  285.56 0855.05
2009/04/23 06:58:45.0     -63   -143    119    157    197 203.7  41.2  33918  285.48 0855.05
2009/04/23 06:58:45.1     -18    -68    109     71    130 195.1  64.1  33922  285.55 0855.05
2009/04/23 06:58:45.2      -1   -111     78    112    136 180.9  38.6  33924  285.58 0855.05
2009/04/23 06:58:45.3      26   -136    127    139    188 168.9  47.5  33920  285.51 0855.05
2009/04/23 06:58:45.4     105   -139    128    175    216 142.8  39.7  33922  285.56 0855.05
2009/04/23 06:58:45.5      74   -148    154    166    226 153.5  47.9  33916  285.46 0855.05
2009/04/23 06:58:45.6      75   -192     85    207    223 158.6  23.1  33918  285.48 0855.05
2009/04/23 06:58:45.7      68   -206    100    217    238 161.7  26.4  33918  285.50 0855.05
2009/04/23 06:58:45.8      63   -200    108    210    236 162.4  29.3  33920  285.53 0855.05
2009/04/23 06:58:45.9      38   -205    118    209    240 169.3  31.9  33926  285.61 0855.05
2009/04/23 06:58:46.0     174    -93    143    198    244 118.2  39.3  33936  285.78 0855.05
2009/04/23 06:58:46.1     125    -80    107    149    183 122.5  39.3  33930  285.70 0855.05
2009/04/23 06:58:46.2      54    -85     91    102    136 147.4  46.4  33924  285.58 0855.05
2009/04/23 06:58:46.3      27   -132     93    135    163 168.4  37.8  33918  285.48 0855.04
2009/04/23 06:58:46.4      13   -206     86    207    224 176.4  23.4  33920  285.53 0855.04
2009/04/23 06:58:46.5      70   -223     75    234    246 162.6  17.9  33920  285.51 0855.04
2009/04/23 06:58:46.6      28   -220     78    222    236 172.7  19.4  33916  285.46 0855.04
2009/04/23 06:58:46.7      46   -174     19    181    183 165.1   6.1  33920  285.51 0855.04
2009/04/23 06:58:46.8      19   -188     41    189    194 174.2  12.4  33922  285.55 0855.04
2009/04/23 06:58:46.9      -4   -168     76    169    185 181.4  25.9  33916  285.46 0855.04
2009/04/23 06:58:47.0      16   -186    105    187    214 174.9  31.6  33918  285.48 0855.04
2009/04/23 06:58:47.1       0   -149    119    150    191 180.0  42.7  33916  285.46 0855.04
2009/04/23 06:58:47.2      26   -187    131    189    229 172.0  38.0  33922  285.55 0855.04
2009/04/23 06:58:47.3      83   -138     88    162    184 148.8  31.3  33918  285.48 0855.04
2009/04/23 06:58:47.4       1   -120     88    121    149 179.1  39.7  33918  285.50 0855.04
2009/04/23 06:58:47.5      37   -133     87    139    163 164.4  35.2  33920  285.53 0855.04
2009/04/23 06:58:47.6      -2   -148    107    149    183 181.0  39.3  33918  285.48 0855.04
2009/04/23 06:58:47.7      12    -99    115    100    152 172.9  54.3  33918  285.50 0855.04
2009/04/23 06:58:47.8      67    -96     89    118    147 145.3  41.2  33920  285.51 0855.04
2009/04/23 06:58:47.9      -6    -86    104     87    135 184.5  56.3  33920  285.51 0855.04
2009/04/23 06:58:48.0     -32   -163    109    167    199 191.1  36.3  33918  285.48 0855.04
2009/04/23 06:58:48.1     -72   -217    129    229    262 198.5  31.9  33916  285.45 0855.04
2009/04/23 06:58:48.2     -86   -194     73    213    226 204.1  18.9  33914  285.43 0855.04
2009/04/23 06:58:48.3     -96   -137    114    168    203 215.2  37.4  33910  285.34 0855.04
2009/04/23 06:58:48.4     -10   -107     94    108    143 185.8  45.8  33918  285.48 0855.04
2009/04/23 06:58:48.5     -65   -153    151    167    225 203.2  46.9  33916  285.46 0855.04
2009/04/23 06:58:48.6     -44   -130    170    138    218 198.7  56.6  33916  285.46 0855.04
2009/04/23 06:58:48.7     -50    -82    140     97    170 211.6  62.1  33916  285.46 0855.04
2009/04/23 06:58:48.8     -58    -91    131    108    169 212.5  56.4  33920  285.51 0855.04
2009/04/23 06:58:48.9     -35   -162    166    166    234 192.3  50.1  33918  285.48 0855.04
2009/04/23 06:58:49.0     -22   -110    116    113    161 191.5  50.7  33916  285.46 0855.04
2009/04/23 06:58:49.1     -44   -133     86    141    165 198.5  34.4  33916  285.46 0855.04
2009/04/23 06:58:49.2     -43   -109    109    118    160 201.8  47.7  33918  285.48 0855.04
2009/04/23 06:58:49.3     -59   -136    120    149    191 203.6  43.5  33916  285.44 0855.04
2009/04/23 06:58:49.4     -44   -132    134    140    193 198.7  49.0  33918  285.48 0855.04
2009/04/23 06:58:49.5     -57   -130    136    142    196 203.7  48.7  33918  285.50 0855.04
2009/04/23 06:58:49.6     -55   -107    154    121    195 207.2  57.9  33918  285.50 0855.04
2009/04/23 06:58:49.7     -46    -56    137     73    155 219.7  69.3  33920  285.51 0855.04
2009/04/23 06:58:49.8     -17    -51     90     54    104 198.7  65.7  33916  285.46 0855.04
2009/04/23 06:58:49.9       0    -90    127     91    156 180.4  61.1  33918  285.50 0855.04
2009/04/23 06:58:50.0     -16   -113    138    115    179 188.5  56.3  33920  285.51 0855.04
2009/04/23 06:58:50.1     -44    -93    125    103    161 205.3  56.1  33918  285.48 0855.04
2009/04/23 06:58:50.2     -12    -87     99     88    132 188.5  54.2  33918  285.48 0855.04
2009/04/23 06:58:50.3       7    -45     74     46     87 171.1  64.7  33922  285.55 0855.04
2009/04/23 06:58:50.4      18    -17     46     26     52 133.1  67.7  33920  285.53 0855.04
2009/04/23 06:58:50.5       6    -13     55     15     57 154.6  83.9  33918  285.48 0855.04
2009/04/23 06:58:50.6       6     20     77     22     80  18.5  83.9  33918  285.48 0855.04
2009/04/23 06:58:50.7      -5     -6     42      8     42 219.6  90.0  33918  285.48 0855.04
2009/04/23 06:58:50.8       5     32     53     33     62   9.8  64.7  33918  285.48 0855.04
2009/04/23 06:58:50.9      60    -20     71     64     95 109.1  53.3  33920  285.53 0855.04
2009/04/23 06:58:51.0      49     -8     74     50     89  99.7  63.2  33922  285.55 0855.04
2009/04/23 06:58:51.1      21     43     65     48     80  26.3  60.0  33924  285.60 0855.04
2009/04/23 06:58:51.2     -17      0     47     18     50 269.2  79.2  33924  285.58 0855.04
2009/04/23 06:58:51.3       0      0     53      0     53   0.0 -90.0  33922  285.55 0855.04
2009/04/23 06:58:51.4       4    -57     74     58     94 175.6  57.9  33924  285.58 0855.04
2009/04/23 06:58:51.5      37    -58     57     70     90 147.4  43.7  33926  285.63 0855.04
2009/04/23 06:58:51.6      58    -65     59     88    105 138.6  36.5  33924  285.60 0855.04
2009/04/23 06:58:51.7      85   -127     77    153    171 146.2  28.5  33920  285.53 0855.04
2009/04/23 06:58:51.8      68   -125     95    143    171 151.5  36.7  33920  285.51 0855.04
2009/04/23 06:58:51.9      41   -124     94    131    161 161.7  39.3  33918  285.48 0855.04
2009/04/23 06:58:52.0      31   -156     99    160    188 168.5  35.0  33920  285.51 0855.04
2009/04/23 06:58:52.1      25   -146     97    149    177 170.3  36.0  33920  285.51 0855.04
2009/04/23 06:58:52.2      91   -142     87    169    190 147.3  29.3  33920  285.51 0855.04
2009/04/23 06:58:52.3      85   -125     79    152    171 145.7  29.5  33920  285.53 0855.04
2009/04/23 06:58:52.4      75   -126     76    147    165 149.3  29.5  33918  285.48 0855.04
2009/04/23 06:58:52.5      51   -146     98    155    183 160.4  35.5  33918  285.50 0855.04
2009/04/23 06:58:52.7      -1   -113    110    114    158 180.9  49.2  33918  285.50 0855.04
2009/04/23 06:58:52.8     -19   -140     89    142    167 188.0  35.2  33920  285.53 0855.04
2009/04/23 06:58:52.9     -29   -139     72    143    160 192.0  28.7  33918  285.50 0855.04
2009/04/23 06:58:53.0     -38   -149     90    154    178 194.3  32.9  33920  285.53 0855.04
2009/04/23 06:58:53.1     -10   -140     78    141    161 184.5  31.4  33918  285.48 0855.04
2009/04/23 06:58:53.3     -34    -89     18     96     98 200.9  11.1  33916  285.46 0855.04
2009/04/23 06:58:53.4     -70    -63     -2     95     96 228.2  -1.8  33916  285.46 0855.04
2009/04/23 06:58:53.5     -72    -56      4     92     93 232.2   2.8  33916  285.46 0855.04
2009/04/23 06:58:53.6     -80    -34    -22     87     90 246.9 -14.5  33918  285.50 0855.04
2009/04/23 06:58:53.7     -94    -30    -31     99    104 252.3 -17.6  33916  285.46 0855.04
2009/04/23 06:58:53.8     -95    -39    -35    103    108 247.4 -23.3  33916  285.44 0855.04
2009/04/23 06:58:53.9     -92    -18    -32     94     99 258.6 -23.3  33914  285.41 0855.04
2009/04/23 06:58:54.0     -60    -33    -22     69     73 241.2 -17.6  33914  285.43 0855.04
2009/04/23 06:58:54.1     -43    -36    -11     57     59 230.4 -11.5  33910  285.34 0855.04
2009/04/23 06:58:54.2     -46    -28      8     54     55 238.5   9.0  33916  285.46 0855.04
2009/04/23 06:58:54.3     -47    -24      6     53     54 242.9   6.9  33916  285.44 0855.04
2009/04/23 06:58:54.4     -32    -15     10     36     38 244.7  15.3  33916  285.44 0855.04
2009/04/23 06:58:54.5     -32    -10     -1     34     35 251.6  -2.2  33916  285.44 0855.04
2009/04/23 06:58:54.6     -12    -14     13     19     23 221.4  39.7  33916  285.44 0855.04
2009/04/23 06:58:54.7       0      0      7      0      7   0.0 -90.0  33916  285.46 0855.04
2009/04/23 06:58:54.8       0      4      5      5      7 350.3  50.1  33920  285.51 0855.04
2009/04/23 06:58:54.9       7      6      8     10     12  46.9  47.9  33916  285.44 0855.04
2009/04/23 06:58:55.0       4     14     17     15     22  18.5  52.2  33916  285.44 0855.04
2009/04/23 06:58:55.1     -13     23     20     27     33 329.3  41.7  33918  285.48 0855.04
2009/04/23 06:58:55.2       0     37     17     38     41   0.9  25.1  33918  285.50 0855.04
2009/04/23 06:58:55.3      28     32     32     43     53  41.4  40.7  33916  285.46 0855.04
2009/04/23 06:58:55.4      26     43     31     51     59  30.7  34.4  33918  285.50 0855.04
2009/04/23 06:58:55.5      38     26     43     47     63  55.8  47.9  33920  285.51 0855.04
2009/04/23 06:58:55.6      32     32     37     46     59  44.2  43.7  33920  285.53 0855.04
2009/04/23 06:58:55.7      36     12     37     39     53  71.4  50.0  33924  285.58 0855.04
2009/04/23 06:58:55.8      33     11     33     35     48  71.4  50.0  33926  285.63 0855.04
2009/04/23 06:58:55.9      36     19     50     41     64  62.0  56.4  33934  285.76 0855.04
2009/04/23 06:58:56.0      32     21     46     39     60  55.8  56.3  33946  285.97 0855.04
2009/04/23 06:58:56.1      21     21     49     31     57  45.1  64.7  33944  285.92 0855.04
2009/04/23 06:58:56.2      27     29     55     40     68  43.4  60.5  33946  285.95 0855.04
2009/04/23 06:58:56.3      46     32     52     57     77  54.9  47.9  33946  285.97 0855.04
2009/04/23 06:58:56.4      43     41     42     60     73  45.9  39.5  33952  286.07 0855.04
2009/04/23 06:58:56.5      31     49     30     59     66  32.5  29.3  33954  286.08 0855.04
2009/04/23 06:58:56.6      27     39     26     48     54  34.3  31.4  33956  286.14 0855.04
2009/04/23 06:58:56.7      13     45     13     48     50  16.9  15.3  33954  286.08 0855.04
2009/04/23 06:58:56.8      14     42     -5     45     46  18.3  -7.3  33954  286.08 0855.04
2009/04/23 06:58:56.9       8     25      1     27     28  18.3   2.9  33948  285.98 0855.04
2009/04/23 06:58:57.0      17      9     -8     20     21  62.9 -27.4  33944  285.93 0855.04
2009/04/23 06:58:57.1      19     -3     -6     20     20 101.5 -21.7  33946  285.95 0855.04
2009/04/23 06:58:57.2      21     -7      1     23     24 108.2   2.9  33948  286.00 0855.04
2009/04/23 06:58:57.3       4    -14     -2     15     16 161.3  -7.2  33942  285.88 0855.04
2009/04/23 06:58:57.4     -24    -33      8     41     42 216.1  11.1  33932  285.71 0855.04
2009/04/23 06:58:57.5     -41    -40     16     58     61 226.0  15.3  33930  285.70 0855.04
2009/04/23 06:58:57.6      -1    -32     24     33     40 182.7  39.7  33930  285.70 0855.04
2009/04/23 06:58:57.7     -19    -30      0     36     37 212.5   0.8  33936  285.78 0855.04
2009/04/23 06:58:57.8     -12    -15    -19     20     27 217.8 -56.4  33938  285.83 0855.04
2009/04/23 06:58:57.9     -17     -9    -37     20     42 241.1 -74.2  33938  285.83 0855.04
2009/04/23 06:58:58.0     -24    -12    -38     28     47 242.9 -63.8  33936  285.78 0855.04
2009/04/23 06:58:58.1     -28     -3    -28     29     40 262.1 -54.4  33936  285.78 0855.04
2009/04/23 06:58:58.2     -36     -8    -12     38     39 256.7 -22.8  33932  285.71 0855.04
2009/04/23 06:58:58.3     -31      0    -11     32     33 270.0 -23.6  33930  285.70 0855.04
2009/04/23 06:58:58.4     -26      0    -26     27     37 270.0 -56.4  33932  285.71 0855.04
2009/04/23 06:58:58.5     -14      2    -41     15     43 281.5 -84.6  33930  285.68 0855.04
2009/04/23 06:58:58.6     -32      0    -24     33     40 270.8 -44.1  33930  285.68 0855.04
2009/04/23 06:58:58.7     -24      7    -32     26     41 286.8 -60.8  33930  285.68 0855.04
2009/04/23 06:58:58.8       0     23    -31     24     39 359.1 -60.8  33932  285.71 0855.04
2009/04/23 06:58:58.9      15     26    -31     31     43  30.7 -54.5  33928  285.66 0855.04
2009/04/23 06:58:59.0      19     23    -30     31     43  39.7 -54.4  33930  285.70 0855.04
2009/04/23 06:58:59.1      26     19    -30     33     44  54.0 -52.3  33930  285.70 0855.04
2009/04/23 06:58:59.2      35     32    -32     48     57  47.8 -40.0  33932  285.71 0855.04
2009/04/23 06:58:59.3      36     39    -24     54     59  42.3 -29.5  33930  285.68 0855.04
2009/04/23 06:58:59.4      32     39    -29     51     58  39.6 -37.9  33926  285.63 0855.05
2009/04/23 06:58:59.5      34     22    -31     41     51  56.7 -46.1  33926  285.61 0855.05
2009/04/23 06:58:59.6      39     22    -40     46     60  60.2 -50.2  33922  285.56 0855.05
2009/04/23 06:58:59.7      21     13    -57     26     62  57.6 -78.4  33926  285.61 0855.05
2009/04/23 06:58:59.8      19     11    -60     23     64  59.3 -83.6  33942  285.90 0855.05
2009/04/23 06:58:59.9      45    -10    -58     47     74 102.4 -60.8  33954  286.10 0855.05
2009/04/23 06:59:00.0      30    -25    -43     40     58 129.5 -55.6  33952  286.07 0855.05
2009/04/23 06:59:00.1      50     -1     29     51     58  91.7  33.5  33952  286.05 0855.05
2009/04/23 06:59:00.2      43     32     38     54     66  53.1  38.6  33946  285.95 0855.05
2009/04/23 06:59:00.3      58     43     35     73     80  53.1  27.8  33938  285.82 0855.05
2009/04/23 06:59:00.4      50     39     35     64     72  52.2  31.3  33932  285.71 0855.05
2009/04/23 06:59:00.5      46     58     -2     75     76  38.7  -2.2  33928  285.65 0855.05
2009/04/23 06:59:00.6      34     32      7     47     48  46.9   9.0  33924  285.60 0855.05
2009/04/23 06:59:00.7      41     36     16     55     58  48.7  16.3  33924  285.58 0855.05
2009/04/23 06:59:00.8      23     25     17     35     38  43.2  27.2  33922  285.55 0855.05
2009/04/23 06:59:00.9      19     26     19     33     38  36.1  35.5  33924  285.58 0855.05
2009/04/23 06:59:01.0       8     26     23     28     36  18.3  43.7  33924  285.58 0855.05
2009/04/23 06:59:01.1      -1     24     26     25     36 357.3  48.2  33924  285.60 0855.05
2009/04/23 06:59:01.2     -12     11     28     17     32 313.3  64.7  33926  285.63 0855.05
2009/04/23 06:59:01.3     -24      8     33     26     42 288.2  57.5  33928  285.66 0855.05
2009/04/23 06:59:01.4     -36      6     36     37     51 279.7  50.0  33930  285.68 0855.04
2009/04/23 06:59:01.5     -43     11     31     45     54 285.1  37.6  33932  285.71 0855.04
2009/04/23 06:59:01.6     -19     14     30     24     38 306.0  56.4  33934  285.75 0855.04
2009/04/23 06:59:01.7       6     -1     21      7     22 101.5  81.0  33932  285.73 0855.04
2009/04/23 06:59:01.8      21    -21     28     31     41 135.0  46.9  33926  285.63 0855.04
2009/04/23 06:59:01.9       7      0     49      8     49  90.0  90.0  33922  285.56 0855.04
2009/04/23 06:59:02.0      16    -34     48     38     61 154.6  56.4  33918  285.50 0855.04
2009/04/23 06:59:02.1     -14    -46     33     49     59 197.8  37.6  33918  285.50 0855.04
2009/04/23 06:59:02.2     -20    -20     31     29     42 225.0  51.2  33920  285.51 0855.04
2009/04/23 06:59:02.3      -2    -32     45     33     55 184.4  60.5  33918  285.50 0855.04
2009/04/23 06:59:02.4      36    -63     62     73     95 150.1  44.3  33920  285.53 0855.04
2009/04/23 06:59:02.5      71    -98     74    122    142 143.9  34.4  33920  285.51 0855.04
2009/04/23 06:59:02.6       9   -103    112    104    152 174.7  52.2  33918  285.50 0855.04
2009/04/23 06:59:02.7       9   -127     82    128    152 175.5  35.6  33916  285.46 0855.04
2009/04/23 06:59:02.8      57   -106     49    121    130 151.9  23.1  33918  285.50 0855.04
2009/04/23 06:59:02.9      49   -123     65    133    148 158.1  27.3  33918  285.50 0855.04
2009/04/23 06:59:03.0      39   -119     73    126    145 161.7  32.9  33920  285.51 0855.04
2009/04/23 06:59:03.1       8   -108     68    109    128 175.6  35.5  33916  285.44 0855.04
2009/04/23 06:59:03.2      76    -71     29    105    110 133.1  15.8  33916  285.46 0855.04
2009/04/23 06:59:03.3      68    -41     42     80     90 121.5  29.8  33920  285.53 0855.04
2009/04/23 06:59:03.4      48    -41     52     64     82 130.4  43.7  33918  285.50 0855.05
2009/04/23 06:59:03.5      15    -46     57     49     75 161.7  55.4  33918  285.50 0855.05
2009/04/23 06:59:03.6      17    -39     51     43     66 156.4  55.4  33920  285.53 0855.05
2009/04/23 06:59:03.7      62      3     55     63     83  86.5  46.4  33920  285.51 0855.05
2009/04/23 06:59:03.8      50     -7     62     51     80  97.9  56.4  33922  285.56 0855.05
2009/04/23 06:59:03.9      42    -13     56     45     71 107.7  56.4  33922  285.55 0855.05
2009/04/23 06:59:04.0      29     -8     44     31     53 105.1  61.5  33922  285.55 0855.05
2009/04/23 06:59:04.1      26      8     53     28     59  71.4  69.8  33926  285.61 0855.05
2009/04/23 06:59:04.2       5     10     40     12     41  29.0  82.8  33928  285.66 0855.05
2009/04/23 06:59:04.3       6      6     14      9     16  43.4  64.7  33922  285.56 0855.05
2009/04/23 06:59:04.4      -7    -15     18     17     24 205.4  48.2  33922  285.55 0855.05
2009/04/23 06:59:04.5     -22    -22     11     32     34 225.1  18.9  33916  285.46 0855.05
2009/04/23 06:59:04.6     -17     15     15     23     27 311.3  35.6  33918  285.48 0855.05
2009/04/23 06:59:04.7      12     30     -1     33     34  21.8  -2.2  33926  285.61 0855.05
2009/04/23 06:59:04.8      20     37     27     43     50  29.0  35.5  33928  285.65 0855.05
2009/04/23 06:59:04.9      11     53     38     55     66  11.6  37.6  33934  285.76 0855.05
2009/04/23 06:59:05.0      31     54     57     63     84  29.9  47.5  33932  285.71 0855.05
2009/04/23 06:59:05.1      33     26     46     43     62  51.4  52.1  33926  285.63 0855.05
2009/04/23 06:59:05.2      51    -10     64     53     83 101.4  55.8  33924  285.58 0855.05
2009/04/23 06:59:05.3      43     14     70     46     83  71.8  64.1  33922  285.56 0855.05
2009/04/23 06:59:05.4      63     -8     67     64     92  97.9  51.2  33920  285.53 0855.05
2009/04/23 06:59:05.5      36     12     51     38     63  71.6  59.4  33922  285.56 0855.05
2009/04/23 06:59:05.6      32    -16     36     37     51 117.1  50.0  33920  285.51 0855.05
2009/04/23 06:59:05.7      38    -12     34     40     52 108.2  44.8  33920  285.53 0855.05
2009/04/23 06:59:05.8      22     -7     42     24     48 108.2  66.8  33918  285.48 0855.05
2009/04/23 06:59:05.9      65      4     63     66     91  86.5  49.0  33920  285.51 0855.05
2009/04/23 06:59:06.0      61      0     76     62     98  90.0  56.4  33920  285.53 0855.05
2009/04/23 06:59:06.1      65    -10     83     66    106  98.8  57.5  33926  285.61 0855.05
2009/04/23 06:59:06.2      93     -7     49     94    106  94.4  29.8  33924  285.58 0855.05
2009/04/23 06:59:06.3      59     12    106     61    122  78.6  67.7  33922  285.56 0855.05
2009/04/23 06:59:06.4      85      7     71     86    111  84.8  43.7  33922  285.55 0855.05
2009/04/23 06:59:06.5      59      5     56     60     82  84.8  48.5  33922  285.55 0855.05
2009/04/23 06:59:06.6      38      2     57     39     69  85.6  62.6  33926  285.61 0855.05
2009/04/23 06:59:06.7      85     -7     57     86    103  95.2  36.5  33922  285.55 0855.05
2009/04/23 06:59:06.8     115      0     77    116    139  90.0  36.5  33920  285.53 0855.05
2009/04/23 06:59:06.9      99      7     90    100    134  85.7  46.9  33920  285.53 0855.05
2009/04/23 06:59:07.0      90      6     82     91    122  85.6  46.9  33920  285.53 0855.05
2009/04/23 06:59:07.1      84     11     62     85    105  82.5  39.7  33918  285.50 0855.05
2009/04/23 06:59:07.2      48      0     66     49     82  90.0  59.4  33920  285.51 0855.05
2009/04/23 06:59:07.3      54     15     73     57     92  74.1  57.5  33918  285.48 0855.05
2009/04/23 06:59:07.4      89     14     69     91    114  80.8  41.2  33916  285.46 0855.05
2009/04/23 06:59:07.5      93      9    103     94    139  83.9  52.2  33914  285.43 0855.05
2009/04/23 06:59:07.6      73     -5     98     74    122  94.4  59.0  33918  285.48 0855.05
2009/04/23 06:59:07.7     100     20     48    103    113  78.5  27.1  33940  285.85 0855.05
2009/04/23 06:59:07.8     107     37     -4    114    115  70.9  -2.2  33930  285.70 0855.05
2009/04/23 06:59:07.9      53     22     86     58    103  67.4  63.2  33920  285.53 0855.05
2009/04/23 06:59:08.0      21    -21     73     31     79 134.9  76.1  33920  285.53 0855.05
2009/04/23 06:59:08.1      64    -21     74     68    100 108.2  52.2  33918  285.48 0855.05
2009/04/23 06:59:08.2      67    -13     93     69    115 101.5  60.0  33916  285.44 0855.05
2009/04/23 06:59:08.3     102     -3    126    103    162  91.7  56.6  33914  285.43 0855.05
2009/04/23 06:59:08.4     148     -2    143    149    206  90.9  49.0  33914  285.43 0855.05
2009/04/23 06:59:08.5      42    -14     91     45    101 109.1  71.9  33920  285.51 0855.05
2009/04/23 06:59:08.6      60    -13    104     62    121 102.4  66.7  33920  285.51 0855.05
2009/04/23 06:59:08.7     125    -19    101    127    162  98.8  42.7  33920  285.53 0855.05
2009/04/23 06:59:08.8     104    -41    117    112    161 111.7  51.2  33920  285.53 0855.05
2009/04/23 06:59:08.9     103      0    106    104    148  90.0  50.1  33920  285.51 0855.05
2009/04/23 06:59:09.0      58    -11    101     60    117 101.4  66.2  33920  285.51 0855.05
2009/04/23 06:59:09.1      35     -7     69     36     77 101.5  70.8  33920  285.53 0855.05
2009/04/23 06:59:09.2      35    -72     55     81     97 153.7  37.0  33920  285.53 0855.05
2009/04/23 06:59:09.3     141    -19     74    143    161  97.9  29.5  33918  285.48 0855.05
2009/04/23 06:59:09.4      64    -60    103     88    135 133.1  55.4  33920  285.51 0855.04
2009/04/23 06:59:09.5       3    -51    106     52    118 175.6  72.4  33918  285.50 0855.04
2009/04/23 06:59:09.6      39    -60     90     72    115 146.6  56.4  33918  285.48 0855.04
2009/04/23 06:59:09.7      49    -60     90     78    119 140.3  54.3  33918  285.50 0855.04
2009/04/23 06:59:09.8      51    -98     98    111    148 152.4  45.9  33918  285.50 0855.04
2009/04/23 06:59:09.9      48    -82     80     96    124 149.7  43.8  33918  285.50 0855.04
2009/04/23 06:59:10.0     -13   -117    106    118    158 186.7  46.9  33920  285.51 0855.04
2009/04/23 06:59:10.1      -1    -79     88     80    118 180.9  52.7  33916  285.46 0855.04
2009/04/23 06:59:10.2      50      7     49     51     70  81.2  49.0  33920  285.53 0855.04
2009/04/23 06:59:10.3      82      0     74     83    111  90.4  46.4  33918  285.50 0855.04
2009/04/23 06:59:10.4      79      4     83     80    115  86.5  50.7  33918  285.48 0855.04
2009/04/23 06:59:10.5      53     37     72     65     97  54.9  53.3  33920  285.51 0855.04
2009/04/23 06:59:10.6       0     17     48     18     51 357.3  79.2  33918  285.50 0855.04
2009/04/23 06:59:10.7     -10      3     29     11     31 288.4  79.2  33916  285.46 0855.04
2009/04/23 06:59:10.8     -12    -12     45     18     48 225.0  79.2  33920  285.51 0855.04
2009/04/23 06:59:10.9      32     16     35     37     50  62.9  49.0  33920  285.53 0855.04
2009/04/23 06:59:11.0     -10     54     -2     55     56 349.3  -2.2  33922  285.55 0855.04
2009/04/23 06:59:11.1      13     43      5     46     47  16.9   6.9  33920  285.51 0855.04
2009/04/23 06:59:11.2      13     46     -7     48     49  16.0  -9.3  33920  285.53 0855.04
2009/04/23 06:59:11.3      32      2     -9     33     35  85.6 -15.5  33920  285.53 0855.04
2009/04/23 06:59:11.4      37      0    -31     38     49  90.0 -48.1  33922  285.55 0855.04
2009/04/23 06:59:11.5      41      7    -53     42     67  80.3 -61.9  33922  285.56 0855.04
2009/04/23 06:59:11.6      49     21    -64     54     83  66.5 -59.2  33930  285.68 0855.04
2009/04/23 06:59:11.7      17    -26    -81     32     87 147.4 -82.6  33926  285.63 0855.04
2009/04/23 06:59:11.8      48    -18    -33     52     61 110.8 -39.9  33932  285.73 0855.04
2009/04/23 06:59:11.9      37     11     42     39     57  73.2  51.2  33924  285.60 0855.04
2009/04/23 06:59:12.0      82    -50     88     97    130 121.5  46.9  33926  285.61 0855.04
2009/04/23 06:59:12.1      62    -56    108     84    136 132.2  58.4  33920  285.53 0855.04
2009/04/23 06:59:12.2      13    -22     93     26     96 149.3  83.9  33922  285.56 0855.04
2009/04/23 06:59:12.3      56     13     96     58    112  76.7  65.7  33922  285.56 0855.04
2009/04/23 06:59:12.4     -36    -32    112     49    122 228.7  75.0  33920  285.53 0855.04
2009/04/23 06:59:12.5     -54    -34     90     65    111 237.5  60.5  33922  285.55 0855.04
2009/04/23 06:59:12.6     -67    -55     47     88     99 230.5  30.8  33920  285.51 0855.04
2009/04/23 06:59:12.7     -83    -43      5     94     95 242.5   3.3  33918  285.50 0855.04
2009/04/23 06:59:12.8     -89    -59    -13    107    108 236.3  -7.3  33918  285.50 0855.04
2009/04/23 06:59:12.9     -72   -125     28    145    148 209.9  11.0  33918  285.48 0855.04
2009/04/23 06:59:13.0     -54   -141     59    152    163 200.9  22.0  33918  285.48 0855.04
2009/04/23 06:59:13.1    -138   -164     95    215    235 220.1  25.3  33916  285.46 0855.04
2009/04/23 06:59:13.2    -118   -178     92    214    232 213.6  24.9  33928  285.65 0855.04
2009/04/23 06:59:13.3    -113   -106     65    156    169 226.9  23.8  33936  285.80 0855.04
2009/04/23 06:59:13.4     -92    -81     42    123    131 228.7  18.9  33940  285.85 0855.05
2009/04/23 06:59:13.5     -68    -87     39    111    118 218.3  19.4  33932  285.73 0855.05
2009/04/23 06:59:13.6     -66    -79     35    104    111 220.1  18.9  33922  285.56 0855.05
2009/04/23 06:59:13.7    -116    -96     18    151    153 230.5   6.9  33916  285.44 0855.05
2009/04/23 06:59:13.8    -101    -76     39    127    134 232.7  17.3  33914  285.41 0855.05
2009/04/23 06:59:13.9    -100    -71     56    123    135 234.5  26.2  33914  285.43 0855.05
2009/04/23 06:59:14.0    -158    -49    -19    166    168 252.5  -6.7  33920  285.51 0855.05
2009/04/23 06:59:14.1    -124    -45    -37    133    139 250.0 -15.5  33910  285.36 0855.05
2009/04/23 06:59:14.2    -130    -91      9    159    160 234.9   3.3  33916  285.44 0855.05
2009/04/23 06:59:14.3    -120   -111      7    164    165 227.3   2.5  33916  285.46 0855.05
2009/04/23 06:59:14.4    -124    -57    -48    137    145 245.2 -23.3  33914  285.43 0855.05
2009/04/23 06:59:14.5     -98    -51    -23    111    114 242.5 -11.9  33922  285.55 0855.05
2009/04/23 06:59:14.6     -32    -36     34     49     59 221.4  38.6  33922  285.55 0855.05
2009/04/23 06:59:14.7     -31      0     35     32     47 270.0  52.2  33926  285.61 0855.05
2009/04/23 06:59:14.8     -12    -37     81     39     89 198.3  72.8  33922  285.55 0855.05
2009/04/23 06:59:14.9     -20    -43     66     48     81 205.4  60.0  33922  285.56 0855.05
2009/04/23 06:59:15.0     -32    -68     57     76     95 205.5  40.7  33928  285.65 0855.05
2009/04/23 06:59:15.1     -45    -45     49     65     81 225.0  41.2  33922  285.55 0855.05
2009/04/23 06:59:15.2     -30    -64     28     72     77 205.5  22.0  33920  285.53 0855.05
2009/04/23 06:59:15.3     -29    -65      8     72     73 204.5   6.9  33924  285.58 0855.05
2009/04/23 06:59:15.4     -56    -66      7     87     88 220.5   4.9  33924  285.58 0855.05
2009/04/23 06:59:15.5     -21    -67     45     71     84 197.8  35.5  33924  285.58 0855.05
2009/04/23 06:59:15.6     -16    -27     77     32     83 210.7  76.6  33922  285.56 0855.05
2009/04/23 06:59:15.7     -25    -19     95     32    100 232.2  81.0  33926  285.63 0855.05
2009/04/23 06:59:15.8    -103    -10     87    104    135 264.3  43.8  33920  285.51 0855.05
2009/04/23 06:59:15.9     -81    -32     78     88    117 248.3  46.4  33918  285.50 0855.05
2009/04/23 06:59:16.0    -127    -14     74    128    147 263.4  32.9  33918  285.50 0855.05
2009/04/23 06:59:16.1    -111    -81     92    138    165 234.0  36.7  33920  285.51 0855.05
2009/04/23 06:59:16.2     -91    -58     81    108    135 237.5  40.7  33926  285.61 0855.05
2009/04/23 06:59:16.3     -85    -48     57     98    113 240.2  33.5  33924  285.60 0855.05
2009/04/23 06:59:16.4    -107      2      5    108    109 271.3   2.8  33918  285.50 0855.05
2009/04/23 06:59:16.5     -50    -75     47     91    102 213.8  29.3  33922  285.55 0855.05
2009/04/23 06:59:16.6       0   -125     65    126    141 180.4  29.3  33922  285.56 0855.05
2009/04/23 06:59:16.7     -44   -106     39    115    122 202.7  18.9  33920  285.51 0855.05
2009/04/23 06:59:16.8     -61   -125     38    140    146 205.9  15.3  33920  285.53 0855.05
2009/04/23 06:59:16.9      -9   -114     76    115    137 184.9  36.5  33922  285.55 0855.05
2009/04/23 06:59:17.0      -8   -157     55    158    168 183.1  19.4  33922  285.56 0855.05
2009/04/23 06:59:17.1       8   -200     75    201    214 177.5  21.3  33920  285.51 0855.05
2009/04/23 06:59:17.2      40   -168     79    173    190 166.6  26.6  33922  285.56 0855.05
2009/04/23 06:59:17.3      12   -196    123    197    232 176.4  35.5  33924  285.58 0855.05
2009/04/23 06:59:17.4       9   -168    104    169    198 176.9  34.4  33924  285.58 0855.05
2009/04/23 06:59:17.5      -8   -159    113    160    195 183.1  38.6  33926  285.61 0855.05
2009/04/23 06:59:17.6     -68   -166     67    180    192 202.5  21.3  33924  285.60 0855.05
2009/04/23 06:59:17.7     -50   -123     68    134    150 202.3  29.2  33920  285.51 0855.05
2009/04/23 06:59:17.8     -31   -112     57    117    130 195.6  27.3  33920  285.51 0855.05
2009/04/23 06:59:17.9     -24    -81     64     85    106 196.5  40.7  33920  285.51 0855.05
2009/04/23 06:59:18.0     -45    -68     82     82    115 213.8  50.1  33922  285.56 0855.05
2009/04/23 06:59:18.1     -50   -148    101    157    186 198.7  35.6  33924  285.60 0855.05
2009/04/23 06:59:18.2     -62   -175    116    186    219 199.6  35.2  33926  285.61 0855.05
2009/04/23 06:59:18.3     -59   -166    102    177    204 199.8  32.7  33926  285.61 0855.05
2009/04/23 06:59:18.4     -67   -146     31    161    165 204.9  11.1  33920  285.51 0855.05
2009/04/23 06:59:18.5    -103   -103     27    146    149 225.0  10.6  33918  285.48 0855.05
2009/04/23 06:59:18.6    -101    -76     29    127    131 232.7  13.2  33918  285.48 0855.05
2009/04/23 06:59:18.7     -85    -40     26     95     99 244.7  15.3  33916  285.44 0855.05
2009/04/23 06:59:18.8     -58    -15     35     61     70 255.0  32.4  33916  285.44 0855.05
2009/04/23 06:59:18.9     -52    -10     28     54     60 258.6  30.3  33916  285.46 0855.05
2009/04/23 06:59:19.0     -55    -22     33     60     68 248.3  31.4  33920  285.53 0855.05
2009/04/23 06:59:19.1     -50      7     38     51     63 277.9  40.7  33918  285.48 0855.05
2009/04/23 06:59:19.2     -59     32     34     68     76 298.9  28.2  33916  285.46 0855.05
2009/04/23 06:59:19.3     -61     20     58     65     87 288.2  46.9  33914  285.43 0855.05
2009/04/23 06:59:19.4     -83     73     67    111    129 311.3  34.0  33914  285.43 0855.04
2009/04/23 06:59:19.5    -109     86     60    140    152 308.2  24.6  33912  285.38 0855.04
2009/04/23 06:59:19.6    -105     53     72    118    138 297.1  34.4  33912  285.39 0855.04
2009/04/23 06:59:19.7    -103     21     58    106    120 281.5  31.3  33912  285.39 0855.04
2009/04/23 06:59:19.8    -123    -45     70    132    149 250.0  30.3  33916  285.46 0855.04
2009/04/23 06:59:19.9     -77      4     66     78    102 273.5  44.8  33908  285.33 0855.04
2009/04/23 06:59:20.0     -36    -11     60     38     71 251.8  64.7  33910  285.34 0855.04
2009/04/23 06:59:20.1     -27     17     32     32     45 302.4  50.1  33908  285.33 0855.04
2009/04/23 06:59:20.2     -63     47     52     79     94 306.9  35.6  33908  285.31 0855.04
2009/04/23 06:59:20.3     -60     60     56     86    102 315.0  36.0  33912  285.38 0855.04
2009/04/23 06:59:20.5     -64     46     63     80    101 306.0  42.7  33908  285.31 0855.05
2009/04/23 06:59:20.6     -69     14     73     71    101 281.4  50.7  33910  285.34 0855.05
2009/04/23 06:59:20.7     -85     20     70     88    112 283.3  43.7  33908  285.33 0855.05
2009/04/23 06:59:20.8     -86     23     69     90    113 285.1  41.7  33908  285.31 0855.05
2009/04/23 06:59:20.9     -27     30     59     41     71 317.7  61.5  33908  285.31 0855.05
2009/04/23 06:59:21.0     -38    -24     64     45     78 237.6  61.5  33912  285.38 0855.05
2009/04/23 06:59:21.1     -62      1     27     63     68 271.7  24.1  33926  285.61 0855.05
2009/04/23 06:59:21.2     -16     27     44     32     54 329.3  60.5  33934  285.76 0855.05
2009/04/23 06:59:21.3       9     27     38     29     47  20.0  58.5  33942  285.88 0855.05
2009/04/23 06:59:21.4      -8    -15     11     18     21 209.0  33.5  33940  285.85 0855.05
2009/04/23 06:59:21.5       5    -16      0     17     18 161.5  -1.3  33934  285.76 0855.05
2009/04/23 06:59:21.6      32    -44     -8     55     56 143.9  -8.2  33934  285.75 0855.05
2009/04/23 06:59:21.7       7    -40     -3     41     42 169.3  -5.2  33928  285.66 0855.05
2009/04/23 06:59:21.8       8    -43     20     44     48 169.3  25.1  33922  285.56 0855.05
2009/04/23 06:59:21.9      -2    -34     50     35     61 184.4  61.5  33924  285.58 0855.05
2009/04/23 06:59:22.0       0    -44     41     45     60 180.9  47.9  33924  285.58 0855.05
2009/04/23 06:59:22.1      -1    -68     60     69     91 181.0  45.4  33922  285.55 0855.05
2009/04/23 06:59:22.2       5    -82     80     83    115 176.0  49.4  33922  285.55 0855.05
2009/04/23 06:59:22.3      16    -25     66     30     72 147.5  73.1  33920  285.53 0855.05
2009/04/23 06:59:22.4      54    -14     66     56     86 105.1  54.8  33922  285.55 0855.05
2009/04/23 06:59:22.5      63      0     74     64     97  90.0  54.3  33922  285.55 0855.05
2009/04/23 06:59:22.6       6    -24     54     25     59 164.9  74.0  33922  285.55 0855.05
2009/04/23 06:59:22.7      15    -34     56     38     67 156.4  62.6  33922  285.56 0855.05
2009/04/23 06:59:22.8       2    -32     53     33     62 175.5  64.7  33924  285.58 0855.05
2009/04/23 06:59:22.9      48    -33     45     59     74 124.2  41.7  33922  285.56 0855.05
2009/04/23 06:59:23.0      71    -26     55     76     93 110.8  39.1  33924  285.58 0855.05
2009/04/23 06:59:23.1      87    -31     43     93    102 109.5  26.6  33926  285.61 0855.05
2009/04/23 06:59:23.2     106    -14     19    107    109  97.9  10.1  33926  285.63 0855.05
2009/04/23 06:59:23.3      99    -13     34    100    106  97.9  19.2  33924  285.58 0855.05
2009/04/23 06:59:23.4      81    -46     58     94    110 119.8  35.5  33924  285.58 0855.05
2009/04/23 06:59:23.5      86    -54     49    102    113 122.4  27.2  33922  285.56 0855.05
2009/04/23 06:59:23.6      70    -45     57     84    101 122.5  37.6  33926  285.61 0855.05
2009/04/23 06:59:23.7      97    -11     41     98    106  96.6  23.6  33922  285.56 0855.05
2009/04/23 06:59:23.8     172     37     73    177    191  77.8  23.6  33930  285.70 0855.05
2009/04/23 06:59:23.9     241     83     26    255    257  71.0   5.9  33934  285.74 0855.05
2009/04/23 06:59:24.0     113    -71    150    134    201 122.4  53.7  33928  285.65 0855.05
2009/04/23 06:59:24.1      80    -85    126    118    172 136.8  52.0  33924  285.58 0855.05
2009/04/23 06:59:24.2      36    -84    112     92    144 156.4  56.4  33924  285.60 0855.05
2009/04/23 06:59:24.3      61    -79     89    101    134 142.2  45.8  33920  285.53 0855.05
2009/04/23 06:59:24.4      93    -40     82    102    130 113.5  43.7  33922  285.56 0855.05
2009/04/23 06:59:24.5     121    -19     71    123    142  99.2  32.4  33926  285.61 0855.05
2009/04/23 06:59:24.6     113     -1     32    114    119  90.9  15.8  33942  285.88 0855.05
2009/04/23 06:59:24.7     108    -36     58    115    128 108.6  28.7  33934  285.75 0855.05
2009/04/23 06:59:24.8     160    -86     35    182    186 118.2  11.1  33924  285.60 0855.05
2009/04/23 06:59:24.9     172   -132     19    217    218 127.5   5.2  33920  285.51 0855.05
2009/04/23 06:59:25.0     159   -159     55    225    232 135.0  13.9  33922  285.56 0855.05
2009/04/23 06:59:25.1     141   -130     67    193    205 132.7  19.2  33922  285.55 0855.05
2009/04/23 06:59:25.2     117   -106     29    159    162 132.2  10.6  33922  285.55 0855.05
2009/04/23 06:59:25.3      87   -128     34    155    159 145.7  12.6  33922  285.55 0855.05
2009/04/23 06:59:25.4      56   -128     26    140    143 156.4  10.6  33922  285.56 0855.05
2009/04/23 06:59:25.5      10   -138     38    139    145 175.5  15.3  33924  285.58 0855.05
2009/04/23 06:59:25.6      30   -115     12    119    120 165.3   5.9  33924  285.58 0855.05
2009/04/23 06:59:25.7      -4   -134     36    135    140 181.8  15.2  33922  285.56 0855.05
2009/04/23 06:59:25.8      -9   -123      7    124    125 184.5   3.3  33922  285.56 0855.05
2009/04/23 06:59:25.9     -49   -158     27    166    169 197.4   9.3  33924  285.60 0855.05
2009/04/23 06:59:26.0     -24   -121     27    124    128 191.6  12.6  33922  285.55 0855.05
2009/04/23 06:59:26.1     -39   -131     -3    137    138 196.9  -1.3  33924  285.58 0855.05
2009/04/23 06:59:26.2     -20   -145     17    147    149 188.0   6.9  33920  285.53 0855.05
2009/04/23 06:59:26.3      -2   -135     54    136    146 180.9  23.0  33920  285.51 0855.05
2009/04/23 06:59:26.4      47   -141     95    149    176 161.3  35.6  33920  285.51 0855.05
2009/04/23 06:59:26.5      29   -133    106    137    173 167.5  41.7  33918  285.48 0855.06
2009/04/23 06:59:26.6      36   -134     91    139    166 164.8  36.3  33920  285.53 0855.06
2009/04/23 06:59:26.7       7   -153     84    154    175 177.3  31.3  33920  285.53 0855.06
2009/04/23 06:59:26.8     -10   -131     82    132    155 184.4  35.5  33922  285.56 0855.06
2009/04/23 06:59:26.9     -31   -152     57    156    166 191.5  20.4  33918  285.50 0855.06
2009/04/23 06:59:27.0     -73   -132     50    152    161 209.0  18.4  33920  285.51 0855.06
2009/04/23 06:59:27.1     -76   -106     23    131    134 216.0  10.1  33920  285.51 0855.06
2009/04/23 06:59:27.2     -92    -90     12    129    130 225.6   5.4  33922  285.56 0855.06
2009/04/23 06:59:27.3    -125    -86      7    153    154 235.4   2.9  33918  285.48 0855.06
2009/04/23 06:59:27.4    -136    -62      7    150    151 245.6   2.9  33918  285.50 0855.06
2009/04/23 06:59:27.5    -147    -65    -37    161    166 246.0 -13.2  33918  285.50 0855.06
2009/04/23 06:59:27.6     -89    -53    -21    104    107 238.9 -11.5  33916  285.46 0855.06
2009/04/23 06:59:27.8     -63     20     18     67     70 288.2  15.3  33916  285.44 0855.06
2009/04/23 06:59:27.9     -27    -25      1     38     39 226.9   2.9  33918  285.50 0855.06
2009/04/23 06:59:28.0      45    -54     31     71     77 140.3  25.1  33920  285.51 0855.06
2009/04/23 06:59:28.1      43    -80     36     92     98 151.5  22.5  33918  285.50 0855.06
2009/04/23 06:59:28.2      43    -76     47     88     99 150.6  30.8  33918  285.50 0855.06
2009/04/23 06:59:28.3      20    -99     53    101    114 168.5  30.3  33918  285.50 0855.06
2009/04/23 06:59:28.4      31   -107     50    112    122 163.5  25.2  33920  285.51 0855.06
2009/04/23 06:59:28.5       0   -101     35    102    109 179.5  19.2  33918  285.50 0855.06
2009/04/23 06:59:28.6      14   -111     35    112    118 172.4  17.4  33920  285.51 0855.06
2009/04/23 06:59:28.7      -6   -106     26    107    111 183.6  13.7  33920  285.51 0855.06
2009/04/23 06:59:28.8     -16    -93    -13     95     96 190.2  -8.2  33918  285.48 0855.06
2009/04/23 06:59:28.9      -9   -103     -7    104    105 185.3  -4.1  33918  285.50 0855.06
2009/04/23 06:59:29.0     -16    -90      0     92     93 190.2  -0.3  33918  285.50 0855.06
2009/04/23 06:59:29.1     -31    -94     -2     99    100 198.3  -1.3  33920  285.53 0855.06
2009/04/23 06:59:29.2     -34    -75     -3     83     84 204.5  -2.2  33918  285.50 0855.06
2009/04/23 06:59:29.3     -25    -59      5     65     66 202.7   4.9  33918  285.50 0855.06
2009/04/23 06:59:29.4     -28    -41     -2     50     51 214.3  -3.1  33920  285.53 0855.06
2009/04/23 06:59:29.5     -16    -37    -14     41     44 203.6 -19.7  33920  285.53 0855.06
2009/04/23 06:59:29.6       0    -21     -6     22     22 180.9 -21.7  33920  285.53 0855.06
2009/04/23 06:59:29.7      15    -30     12     34     37 152.8  19.4  33918  285.48 0855.06
2009/04/23 06:59:29.8      32    -30     12     44     46 133.1  15.3  33920  285.53 0855.06
2009/04/23 06:59:29.9      44    -40     24     60     64 132.2  23.0  33920  285.53 0855.06
2009/04/23 06:59:30.0      44    -40     38     60     71 132.2  35.5  33920  285.53 0855.06
2009/04/23 06:59:30.1      54    -34     48     64     80 122.4  40.7  33916  285.46 0855.06
2009/04/23 06:59:30.2      60    -24     51     65     82 111.7  42.7  33918  285.48 0855.06
2009/04/23 06:59:30.3      48    -33     50     59     77 124.2  43.8  33918  285.48 0855.06
2009/04/23 06:59:30.4      65    -28     66     71     96 113.5  48.5  33918  285.50 0855.06
2009/04/23 06:59:30.5      57    -28     62     64     89 116.2  50.0  33920  285.51 0855.06
2009/04/23 06:59:30.6      15    -27     58     31     65 151.0  68.9  33920  285.53 0855.06
2009/04/23 06:59:30.7     -15    -58     70     61     92 195.2  54.3  33918  285.50 0855.06
2009/04/23 06:59:30.8     -10   -108     85    109    138 185.3  41.7  33922  285.55 0855.06
2009/04/23 06:59:30.9     -19    -94     82     96    126 191.6  45.4  33916  285.46 0855.06
2009/04/23 06:59:31.0      18    -68     91     71    115 164.9  57.9  33920  285.53 0855.06
2009/04/23 06:59:31.1     -30   -162    110    165    198 190.7  37.0  33920  285.51 0855.06
2009/04/23 06:59:31.2     -12   -159     84    160    180 184.4  30.1  33922  285.56 0855.06
2009/04/23 06:59:31.3     -25   -141     65    144    157 190.2  25.7  33922  285.55 0855.06
2009/04/23 06:59:31.4     -65   -197    104    208    232 198.5  28.5  33920  285.53 0855.06
2009/04/23 06:59:31.5     -36   -184    130    188    228 191.1  38.0  33920  285.51 0855.06
2009/04/23 06:59:31.6       2   -144    148    145    207 179.1  50.4  33920  285.53 0855.06
2009/04/23 06:59:31.7     101   -159    144    189    237 147.7  41.2  33918  285.48 0855.06
2009/04/23 06:59:31.8      96   -154    124    182    220 148.1  37.6  33920  285.51 0855.06
2009/04/23 06:59:31.9     113   -134     91    176    198 139.9  29.3  33916  285.46 0855.06
2009/04/23 06:59:32.0      86   -155     87    178    198 150.8  28.0  33920  285.51 0855.06
2009/04/23 06:59:32.1     101   -191     42    217    222 152.1  11.1  33918  285.50 0855.06
2009/04/23 06:59:32.2      77   -232     69    245    255 161.5  15.8  33924  285.59 0855.06
2009/04/23 06:59:32.3      27   -238     80    240    254 173.3  18.5  33924  285.57 0855.06
2009/04/23 06:59:32.4      18   -243     83    244    258 175.6  18.9  33922  285.56 0855.06
2009/04/23 06:59:32.5       6   -309     54    310    315 178.9   9.9  33918  285.47 0855.07
2009/04/23 06:59:32.6       8   -265    149    266    304 178.2  31.4  33922  285.54 0855.07
2009/04/23 06:59:32.7     -45   -317    148    321    353 188.1  26.5  33920  285.52 0855.07
2009/04/23 06:59:32.8     -84   -267    141    281    314 197.6  28.6  33918  285.47 0855.07
2009/04/23 06:59:32.9     -11   -206    149    207    255 183.1  39.5  33924  285.59 0855.07
2009/04/23 06:59:33.0     -16   -262    131    263    293 183.6  28.2  33922  285.56 0855.07
2009/04/23 06:59:33.1       3   -264     91    265    281 179.3  18.9  33922  285.56 0855.07
2009/04/23 06:59:33.2      79   -262     99    274    291 163.1  20.4  33922  285.56 0855.07
2009/04/23 06:59:33.3      10   -260    107    261    282 177.8  23.4  33922  285.56 0855.07
2009/04/23 06:59:33.4      10   -228    105    229    251 177.3  26.2  33924  285.57 0855.07
2009/04/23 06:59:33.5       1   -179    104    180    207 179.5  32.9  33920  285.53 0855.07
2009/04/23 06:59:33.6       4   -149    111    150    186 178.2  40.1  33922  285.55 0855.07
2009/04/23 06:59:33.7      39   -180    123    185    222 167.7  36.7  33918  285.50 0855.07
2009/04/23 06:59:33.8      52   -218     61    225    234 166.4  15.3  33922  285.55 0855.07
2009/04/23 06:59:33.9      19   -195     71    197    209 174.2  20.7  33920  285.51 0855.07
2009/04/23 06:59:34.0      35   -169     -2    173    174 168.2  -0.7  33924  285.58 0855.07
2009/04/23 06:59:34.1      25   -147      7    150    151 170.2   2.9  33920  285.51 0855.07
2009/04/23 06:59:34.2      61    -67     54     91    105 137.7  34.0  33924  285.58 0855.07
2009/04/23 06:59:34.3      37   -110     22    117    120 161.3  10.6  33922  285.56 0855.07
2009/04/23 06:59:34.4      40    -92    -18    101    103 156.4 -10.3  33924  285.58 0855.07
2009/04/23 06:59:34.5       9    -90    -27     91     94 173.8 -22.3  33924  285.58 0855.07
2009/04/23 06:59:34.6      14   -133    -41    134    140 173.7 -21.8  33920  285.51 0855.07
2009/04/23 06:59:34.7      27   -202    -56    204    211 172.2 -20.0  33920  285.53 0855.07
2009/04/23 06:59:34.8      45   -225    -82    230    245 168.5 -19.7  33922  285.56 0855.07
2009/04/23 06:59:34.9      23   -301    -82    302    313 175.6 -15.2  33922  285.56 0855.07
2009/04/23 06:59:35.0      33   -313   -109    315    334 173.9 -19.1  33922  285.56 0855.07
2009/04/23 06:59:35.1      16   -323    -85    324    336 177.1 -14.8  33922  285.55 0855.07
2009/04/23 06:59:35.2      61   -281    -11    288    289 167.6  -2.2  33922  285.56 0855.07
2009/04/23 06:59:35.3      59   -227      0    235    236 165.3   0.0  33922  285.56 0855.07
2009/04/23 06:59:35.4      51   -212    -12    219    220 166.4  -3.3  33920  285.51 0855.07
2009/04/23 06:59:35.5      75   -245     13    257    258 162.8   2.9  33922  285.54 0855.07
2009/04/23 06:59:35.6     106   -265     29    286    288 158.2   5.9  33922  285.56 0855.07
2009/04/23 06:59:35.7      61   -270     23    277    279 167.1   4.9  33922  285.56 0855.07
2009/04/23 06:59:35.8      43   -275     28    279    281 171.1   5.9  33920  285.52 0855.07
2009/04/23 06:59:35.9     -24   -309      4    311    312 184.5   0.8  33918  285.49 0855.07
2009/04/23 06:59:36.0      30   -272     98    274    291 173.7  20.2  33920  285.52 0855.07
2009/04/23 06:59:36.1      73   -241     88    253    268 163.1  19.2  33922  285.54 0855.07
2009/04/23 06:59:36.2      35   -208     51    212    219 170.3  13.5  33918  285.50 0855.07
2009/04/23 06:59:36.3      98   -202     19    225    226 154.1   5.0  33922  285.56 0855.07
2009/04/23 06:59:36.4      70   -244    -32    254    257 164.0  -7.2  33920  285.52 0855.07
2009/04/23 06:59:36.5      79   -239     -9    252    253 161.7  -2.1  33922  285.54 0855.07
2009/04/23 06:59:36.6      41   -219    -28    223    225 169.3  -7.3  33920  285.53 0855.07
2009/04/23 06:59:36.7      53   -185    -53    193    201 164.0 -15.4  33922  285.55 0855.07
2009/04/23 06:59:36.8      63   -176    -52    188    196 160.2 -15.5  33922  285.55 0855.07
2009/04/23 06:59:36.9     134   -162      3    211    212 140.3   1.0  33922  285.55 0855.07
2009/04/23 06:59:37.0     104   -164     -8    195    196 147.5  -2.6  33920  285.51 0855.07
2009/04/23 06:59:37.1     108   -147    -29    183    186 143.5  -9.0  33920  285.53 0855.07
2009/04/23 06:59:37.2     120   -133     -9    180    181 137.9  -3.1  33922  285.56 0855.07
2009/04/23 06:59:37.3     125   -179     -8    219    220 145.0  -2.2  33918  285.50 0855.07
2009/04/23 06:59:37.4     135   -199     -4    241    242 145.7  -1.1  33920  285.51 0855.07
2009/04/23 06:59:37.5     123   -176    -11    216    217 145.0  -3.1  33918  285.50 0855.07
2009/04/23 06:59:37.6      81   -193    -41    210    215 157.3 -11.1  33926  285.61 0855.07
2009/04/23 06:59:37.7      90   -142    -37    169    174 147.5 -12.6  33920  285.51 0855.07
2009/04/23 06:59:37.8      87   -158    -49    181    188 151.0 -15.4  33920  285.53 0855.07
2009/04/23 06:59:37.9     127   -198    -38    236    240 147.4  -9.3  33920  285.52 0855.07
2009/04/23 06:59:38.0     110   -193     -4    223    224 150.4  -1.3  33920  285.51 0855.07
2009/04/23 06:59:38.1      86   -219     17    236    237 158.6   4.2  33920  285.51 0855.07
2009/04/23 06:59:38.2      94   -174    -25    199    201 151.5  -7.2  33920  285.51 0855.07
2009/04/23 06:59:38.3      92   -169    -41    193    198 151.3 -12.2  33922  285.55 0855.07
2009/04/23 06:59:38.4      91   -139     21    167    169 146.6   7.2  33918  285.48 0855.07
2009/04/23 06:59:38.5     186   -174    -51    255    261 133.1 -11.3  33920  285.52 0855.07
2009/04/23 06:59:38.6     184   -156    -13    242    243 130.2  -3.3  33920  285.52 0855.07
2009/04/23 06:59:38.7     172   -124     10    213    214 125.7   2.9  33920  285.53 0855.07
2009/04/23 06:59:38.8     121   -170     -4    209    210 144.6  -1.3  33918  285.50 0855.07
2009/04/23 06:59:38.9     120   -144    -10    188    189 140.1  -3.1  33918  285.50 0855.07
2009/04/23 06:59:39.0     114   -104    -36    155    160 132.2 -13.2  33918  285.50 0855.07
2009/04/23 06:59:39.1     107   -143    -52    179    186 143.3 -20.7  33920  285.53 0855.07
2009/04/23 06:59:39.2      87   -213    -70    231    242 157.7 -17.0  33918  285.49 0855.07
2009/04/23 06:59:39.3       0    -50    -35     51     61 180.0 -43.0  33976  286.46 0855.07
2009/04/23 06:59:39.4      99   -180     36    206    210 151.1   9.9  33918  285.48 0855.07
2009/04/23 06:59:39.5     109   -134    -27    173    176 140.8  -9.0  33918  285.50 0855.07
2009/04/23 06:59:39.6      79   -161    -50    180    186 153.9 -20.0  33920  285.51 0855.07
2009/04/23 06:59:39.7      73   -146    -44    164    170 153.5 -15.2  33918  285.48 0855.07
2009/04/23 06:59:39.8      43   -118    -39    126    131 160.0 -22.3  33914  285.43 0855.07
2009/04/23 06:59:39.9      -4   -120    -78    121    143 182.2 -40.0  33918  285.48 0855.07
2009/04/23 06:59:40.0      43   -119    -48    127    135 160.0 -25.4  33916  285.46 0855.07
2009/04/23 06:59:40.1      73   -191    -41    205    210 159.1 -11.5  33912  285.39 0855.07
2009/04/23 06:59:40.2     137   -170    -17    219    220 141.0  -4.6  33916  285.46 0855.07
2009/04/23 06:59:40.3      51   -166    -23    174    176 162.8  -7.7  33918  285.48 0855.07
2009/04/23 06:59:40.4      48   -162    -55    170    179 163.3 -18.1  33912  285.38 0855.07
2009/04/23 06:59:40.5      -5   -213    -67    214    225 181.4 -17.6  33918  285.48 0855.06
2009/04/23 06:59:40.6     -57   -224    -29    232    234 194.3  -7.3  33916  285.45 0855.06
2009/04/23 06:59:40.7     -62   -175     -8    186    187 199.6  -2.6  33916  285.46 0855.06
2009/04/23 06:59:40.8       9   -203     -7    204    205 177.3  -2.1  33916  285.46 0855.06
2009/04/23 06:59:40.9     -59   -175     -7    185    186 198.7  -2.2  33918  285.50 0855.06
2009/04/23 06:59:41.0     -57   -143     -3    155    156 201.8  -1.3  33920  285.51 0855.06
2009/04/23 06:59:41.1     -19   -139    -31    141    145 188.0 -12.4  33916  285.46 0855.06
2009/04/23 06:59:41.2      28   -111    -34    115    119 165.7 -21.7  33916  285.46 0855.06
2009/04/23 06:59:41.3      30    -95    -40    100    107 162.2 -27.4  33922  285.55 0855.06
2009/04/23 06:59:41.4      50    -77    -57     93    109 147.0 -39.4  33916  285.44 0855.06
2009/04/23 06:59:41.5      64   -116     -9    133    134 151.1  -4.1  33912  285.38 0855.06
2009/04/23 06:59:41.6      74   -112     21    135    137 146.6   9.0  33918  285.48 0855.06
2009/04/23 06:59:41.7      56   -119     -7    132    133 154.6  -3.1  33918  285.50 0855.06
2009/04/23 06:59:41.8      14   -105     -8    107    108 172.0  -4.6  33920  285.51 0855.06
2009/04/23 06:59:41.9      44    -92    -32    103    109 154.5 -17.6  33918  285.48 0855.06
2009/04/23 06:59:42.0      19    -63    -55     66     85 163.1 -48.7  33918  285.48 0855.06
2009/04/23 06:59:42.1      16    -47    -55     50     74 160.8 -56.6  33918  285.48 0855.06
2009/04/23 06:59:42.2      -9    -62    -67     63     91 188.9 -56.0  33916  285.46 0855.06
2009/04/23 06:59:42.3      -1    -94    -80     95    124 180.9 -48.7  33922  285.55 0855.06
2009/04/23 06:59:42.4     -15   -126    -57    127    139 187.1 -30.6  33922  285.56 0855.06
2009/04/23 06:59:42.5       2   -115    -33    116    120 178.6 -20.2  33920  285.53 0855.06
2009/04/23 06:59:42.6       0   -109    -40    110    117 180.0 -25.3  33922  285.56 0855.06
2009/04/23 06:59:42.7      30   -107    -57    112    125 164.0 -33.6  33920  285.51 0855.06
2009/04/23 06:59:42.8      36   -108    -47    114    123 161.5 -27.5  33920  285.51 0855.06
2009/04/23 06:59:42.9      22   -142    -51    144    152 171.1 -23.8  33920  285.53 0855.06
2009/04/23 06:59:43.0      -5    -95   -107     96    143 183.1 -57.7  33918  285.50 0855.06
2009/04/23 06:59:43.1      -5    -97    -93     98    135 183.1 -53.4  33918  285.50 0855.06
2009/04/23 06:59:43.2      11   -114    -79    115    139 174.2 -42.0  33920  285.53 0855.06
2009/04/23 06:59:43.3      55    -99    -60    114    128 151.1 -34.2  33920  285.53 0855.06
2009/04/23 06:59:43.4     -19    -64    -84     67    107 196.9 -61.3  33920  285.53 0855.06
2009/04/23 06:59:43.5     -18   -135    -55    137    147 187.6 -27.4  33920  285.51 0855.06
2009/04/23 06:59:43.6      44   -133     -7    141    142 161.7  -3.1  33920  285.51 0855.06
2009/04/23 06:59:43.7      69   -135     29    152    155 152.8  11.1  33920  285.53 0855.06
2009/04/23 06:59:43.8     115   -136     10    179    180 139.7   3.3  33922  285.56 0855.06
2009/04/23 06:59:43.9     133   -142      0    195    196 136.8   0.2  33924  285.58 0855.06
2009/04/23 06:59:44.0     101   -189     13    215    216 151.7   3.6  33922  285.55 0855.06
2009/04/23 06:59:44.1     155   -191    -31    247    249 141.0  -7.2  33922  285.56 0855.06
2009/04/23 06:59:44.2     131   -206     10    245    246 147.5   2.5  33922  285.56 0855.06
2009/04/23 06:59:44.3     126   -197     22    235    237 147.3   5.4  33924  285.59 0855.06
2009/04/23 06:59:44.4     120   -209     12    242    243 150.1   2.9  33924  285.59 0855.06
2009/04/23 06:59:44.5     134   -197     -2    239    240 145.7  -0.5  33922  285.56 0855.06
2009/04/23 06:59:44.6     109   -161    -57    195    204 145.9 -16.4  33920  285.51 0855.06
2009/04/23 06:59:44.7      92   -144    -36    172    176 147.4 -11.9  33922  285.55 0855.06
2009/04/23 06:59:44.8     108   -145    -19    182    184 143.3  -6.0  33924  285.58 0855.06
2009/04/23 06:59:44.9     104   -178    -26    207    209 149.7  -7.3  33922  285.55 0855.06
2009/04/23 06:59:45.0     113   -196     19    227    228 149.9   5.0  33922  285.55 0855.06
2009/04/23 06:59:45.1      75   -169    -35    186    190 155.9 -10.9  33920  285.53 0855.06
2009/04/23 06:59:45.2      79   -193    -18    209    210 157.5  -5.1  33920  285.51 0855.06
2009/04/23 06:59:45.3     102   -199      2    224    225 152.8   0.7  33920  285.53 0855.06
2009/04/23 06:59:45.4     109   -162     50    196    203 146.2  14.5  33924  285.60 0855.06
2009/04/23 06:59:45.5      96   -158     43    186    192 148.6  13.2  33926  285.61 0855.07
2009/04/23 06:59:45.6     112   -145     48    184    191 142.4  14.7  33926  285.63 0855.07
2009/04/23 06:59:45.7     115   -166     55    202    210 145.3  15.3  33922  285.55 0855.07
2009/04/23 06:59:45.8      96   -152     38    180    185 147.7  12.2  33920  285.53 0855.07
2009/04/23 06:59:45.9      70   -133     48    151    159 152.4  17.9  33920  285.51 0855.07
2009/04/23 06:59:46.0      85   -124     50    151    160 145.3  18.4  33920  285.53 0855.07
2009/04/23 06:59:46.1      90   -114     51    146    155 141.7  19.4  33920  285.53 0855.07
2009/04/23 06:59:46.3      45   -120     50    129    138 159.5  22.5  33920  285.53 0855.07
2009/04/23 06:59:46.3      76   -128     48    150    158 149.2  17.9  33924  285.58 0855.07
2009/04/23 06:59:46.4      72   -146     69    163    177 153.7  24.3  33924  285.58 0855.07
2009/04/23 06:59:46.5      75   -148     29    167    170 153.0   9.9  33922  285.56 0855.07
2009/04/23 06:59:46.6      67   -115     51    134    143 149.7  21.5  33924  285.58 0855.07
2009/04/23 06:59:46.7      84   -134     37    159    164 147.9  13.2  33924  285.58 0855.07
2009/04/23 06:59:46.9      80   -125     19    149    151 147.4   7.5  33924  285.58 0855.07
2009/04/23 06:59:47.0      80   -126     29    150    153 147.5  11.1  33924  285.58 0855.07
2009/04/23 06:59:47.0      78   -120     50    144    153 147.0  19.2  33924  285.58 0855.07
2009/04/23 06:59:47.1      26   -132     63    135    148 168.5  27.1  33924  285.58 0855.07
2009/04/23 06:59:47.3      20   -145     92    147    173 172.0  35.5  33922  285.56 0855.07
2009/04/23 06:59:47.4      44   -122    101    130    164 159.9  41.7  33922  285.56 0855.07
2009/04/23 06:59:47.4     -11   -145     95    146    174 184.5  35.7  33924  285.58 0855.07
2009/04/23 06:59:47.6     -18   -133     75    135    154 188.0  31.4  33924  285.58 0855.07
2009/04/23 06:59:47.7     -32   -133    101    137    170 193.8  40.1  33922  285.56 0855.07
2009/04/23 06:59:47.8     -10   -136    108    137    174 184.5  42.4  33920  285.53 0855.07
2009/04/23 06:59:47.8     -55   -152     87    162    183 200.0  30.8  33920  285.53 0855.07
2009/04/23 06:59:47.9     -65   -127     84    143    165 207.2  33.1  33922  285.56 0855.07
2009/04/23 06:59:48.1     -51   -114     77    125    146 204.1  35.5  33920  285.53 0855.07
2009/04/23 06:59:48.2     -38    -87     64     95    114 203.6  36.5  33920  285.53 0855.07
2009/04/23 06:59:48.3     -32    -77     69     84    108 202.7  43.7  33920  285.53 0855.07
2009/04/23 06:59:48.4     -52    -94     52    108    119 209.0  27.3  33922  285.56 0855.07
2009/04/23 06:59:48.5     -21   -112     31    114    119 190.7  15.3  33922  285.56 0855.07
2009/04/23 06:59:48.6     -46   -127     49    136    144 200.0  20.0  33922  285.56 0855.07
2009/04/23 06:59:48.7     -35   -142     28    147    150 193.8  11.1  33922  285.55 0855.07
2009/04/23 06:59:48.8      -9   -138     43    139    146 184.0  17.4  33922  285.55 0855.07
2009/04/23 06:59:48.9     -65   -176     38    188    192 200.3  11.4  33920  285.53 0855.07
2009/04/23 06:59:49.0     -90   -197     73    217    230 204.5  18.6  33924  285.58 0855.07
2009/04/23 06:59:49.1     -21   -201     73    203    215 186.2  20.7  33920  285.53 0855.07
2009/04/23 06:59:49.2      41   -172     52    177    185 166.6  16.6  33922  285.55 0855.07
2009/04/23 06:59:49.3       9   -139     18    140    142 176.0   7.5  33922  285.56 0855.07
2009/04/23 06:59:49.4      -2   -153     21    154    156 180.9   8.0  33922  285.56 0855.07
2009/04/23 06:59:49.5      -6   -139     39    140    146 182.7  15.8  33920  285.51 0855.07
2009/04/23 06:59:49.6      -1   -134      6    135    136 180.8   2.9  33922  285.56 0855.08
2009/04/23 06:59:49.7       0   -163     26    164    167 179.8   9.0  33922  285.56 0855.08
2009/04/23 06:59:49.8      10   -137     21    138    140 175.5   9.0  33924  285.58 0855.08
2009/04/23 06:59:49.9      46   -115     34    125    130 158.1  15.2  33922  285.56 0855.08
2009/04/23 06:59:50.0      24   -154     28    156    159 171.1  10.3  33922  285.55 0855.08
2009/04/23 06:59:50.1      36   -178     38    182    187 168.5  12.0  33918  285.50 0855.08
2009/04/23 06:59:50.2      -7   -172     43    173    179 182.5  13.9  33922  285.55 0855.08
2009/04/23 06:59:50.3     -12   -164     79    165    182 184.2  27.4  33922  285.55 0855.08
2009/04/23 06:59:50.4       3   -147     70    148    163 178.6  27.2  33922  285.56 0855.08
2009/04/23 06:59:50.5      14   -133     52    134    143 173.8  22.5  33922  285.55 0855.08
2009/04/23 06:59:50.6      45   -128     31    136    140 160.4  13.1  33922  285.56 0855.08
2009/04/23 06:59:50.7      51   -115     41    127    134 155.9  17.9  33922  285.56 0855.08
2009/04/23 06:59:50.8      45    -95     31    106    111 154.7  16.3  33922  285.55 0855.08
2009/04/23 06:59:50.9      66    -59      8     89     90 131.8   5.4  33924  285.58 0855.08
2009/04/23 06:59:51.0      80    -22     11     84     85 105.5   7.5  33926  285.61 0855.08
2009/04/23 06:59:51.1     100     -9      5    101    102  95.7   2.9  33924  285.58 0855.08
2009/04/23 06:59:51.2      95     17     11     97     98  79.9   6.9  33924  285.60 0855.08
2009/04/23 06:59:51.3      54     18     34     58     67  71.4  33.5  33926  285.63 0855.08
2009/04/23 06:59:51.4      18     -5     31     19     36 108.2  64.7  33926  285.61 0855.08
2009/04/23 06:59:51.5      -7    -38     17     39     42 191.6  25.1  33926  285.61 0855.08
2009/04/23 06:59:51.6      -3    -83     36     84     91 182.7  24.6  33922  285.56 0855.08
2009/04/23 06:59:51.7      -3    -61     21     62     66 183.6  18.9  33926  285.61 0855.08
2009/04/23 06:59:51.8     -12    -61     53     63     82 191.6  44.8  33926  285.61 0855.08
2009/04/23 06:59:51.9     -11    -35     75     37     83 198.3  71.9  33928  285.66 0855.08
2009/04/23 06:59:52.0      15      0     69     16     70  90.0  89.0  33930  285.70 0855.08
2009/04/23 06:59:52.1      28    -15     78     33     84 118.9  76.6  33930  285.70 0855.08
2009/04/23 06:59:52.2      -1    -53     73     54     90 181.8  60.0  33930  285.70 0855.08
2009/04/23 06:59:52.3      15    -92     75     94    120 170.2  42.7  33928  285.65 0855.08
2009/04/23 06:59:52.4       8    -85     80     86    117 174.2  47.9  33930  285.70 0855.08
2009/04/23 06:59:52.5     -14    -70     66     72     97 191.5  47.9  33932  285.71 0855.08
2009/04/23 06:59:52.6      14   -102     75    104    128 172.0  39.5  33930  285.70 0855.08
2009/04/23 06:59:52.7      -3    -72     73     73    103 182.7  50.1  33930  285.68 0855.08
2009/04/23 06:59:52.8     -19   -121     33    123    128 188.9  15.3  33922  285.56 0855.08
2009/04/23 06:59:52.9     -35   -136     45    141    149 194.7  17.9  33922  285.56 0855.08
2009/04/23 06:59:53.0     -37   -100     57    107    121 200.5  30.3  33924  285.58 0855.08
2009/04/23 06:59:53.1     -51    -63     70     82    107 218.7  44.8  33924  285.60 0855.08
2009/04/23 06:59:53.2     -57    -50     64     76     99 228.7  44.3  33924  285.58 0855.08
2009/04/23 06:59:53.3     -45    -58     51     74     89 217.8  37.6  33924  285.58 0855.08
2009/04/23 06:59:53.4      -5    -75     66     76    100 184.4  45.8  33926  285.61 0855.08
2009/04/23 06:59:53.5     -10    -51     55     53     76 191.6  50.1  33924  285.58 0855.08
2009/04/23 06:59:53.6     -20    -21     46     30     54 223.2  64.6  33948  285.98 0855.08
2009/04/23 06:59:53.7     -74     54     42     92    101 306.4  26.6  34008  287.00 0855.08
2009/04/23 06:59:53.8     -75     71     35    104    111 313.1  18.9  34090  288.38 0855.08
2009/04/23 06:59:53.9     -81     71     40    108    115 311.3  20.4  34094  288.47 0855.08
2009/04/23 06:59:54.0     -63     43     68     77    102 304.2  46.4  34104  288.64 0855.08
2009/04/23 06:59:54.1     -56     13     49     58     75 283.3  43.8  34092  288.42 0855.08
2009/04/23 06:59:54.2     -67    -10     49     68     83 261.2  39.7  34098  288.53 0855.08
2009/04/23 06:59:54.3     -77     -3     47     78     91 267.4  34.0  34098  288.52 0855.08
2009/04/23 06:59:54.4     -43      0     28     44     52 270.0  35.5  34092  288.42 0855.08
2009/04/23 06:59:54.5     -31     -6     16     32     35 258.5  27.3  34084  288.30 0855.08
2009/04/23 06:59:54.6     -20      4     13     21     24 281.5  35.5  34074  288.11 0855.08
2009/04/23 06:59:54.7       0      0      7      0      7   0.0 -90.0  34068  288.03 0855.08
2009/04/23 06:59:54.8      15    -34     41     38     55 156.4  52.2  34046  287.64 0855.08
2009/04/23 06:59:54.9      13    -45     66     48     81 163.1  60.0  33984  286.61 0855.08
2009/04/23 06:59:55.0       8    -65     54     66     85 172.9  43.7  33992  286.74 0855.08
2009/04/23 06:59:55.1      21    -67     54     71     89 162.2  41.2  33962  286.24 0855.08
2009/04/23 06:59:55.2      21    -64     48     68     83 161.5  39.1  33966  286.29 0855.08
2009/04/23 06:59:55.3      23    -96     34     99    105 166.2  18.9  33982  286.56 0855.08
2009/04/23 06:59:55.4      40    -84     46     94    104 154.6  27.8  33936  285.78 0855.08
2009/04/23 06:59:55.5      41    -87     54     97    111 154.7  31.4  33930  285.70 0855.08
2009/04/23 06:59:55.6      39    -78     65     88    109 153.3  39.7  33916  285.44 0855.09
2009/04/23 06:59:55.7      24    -73     65     77    100 161.5  44.3  33914  285.41 0855.09
2009/04/23 06:59:55.8      28    -77     62     82    102 160.0  41.2  33918  285.50 0855.09
2009/04/23 06:59:55.9      60    -76     62     97    115 141.7  35.5  33920  285.51 0855.09
2009/04/23 06:59:56.0      48    -76     67     91    113 147.5  40.1  33920  285.51 0855.09
2009/04/23 06:59:56.1      57    -74     82     94    124 142.2  45.8  33914  285.43 0855.09
2009/04/23 06:59:56.2      44    -28     54     53     75 122.4  49.1  33916  285.44 0855.09
2009/04/23 06:59:56.3      50     -3     51     51     72  93.5  50.1  33920  285.51 0855.09
2009/04/23 06:59:56.4      72      7     38     73     82  83.9  29.3  33926  285.63 0855.09
2009/04/23 06:59:56.5      39      6     65     40     76  80.3  64.7  33922  285.56 0855.09
2009/04/23 06:59:56.6      44      7     70     45     83  80.3  64.1  33928  285.66 0855.09
2009/04/23 06:59:56.7      21     13     75     26     79  57.5  80.7  33934  285.76 0855.09
2009/04/23 06:59:56.8      27      7     62     29     68  74.9  73.1  33998  286.84 0855.09
2009/04/23 06:59:56.9      82     63    107    104    149  52.7  50.7  34090  288.38 0855.09
2009/04/23 06:59:57.0      22    170    140    172    221   7.6  43.7  34086  288.31 0855.09
2009/04/23 06:59:57.1      -1     78    109     79    134 359.1  60.5  34078  288.20 0855.09
2009/04/23 06:59:57.2      72    -59     80     94    123 129.1  45.4  34084  288.30 0855.09
2009/04/23 06:59:57.3     132      0    108    133    171  90.4  43.5  34106  288.65 0855.09
2009/04/23 06:59:57.4      73     29    137     79    158  68.3  67.5  34100  288.57 0855.09
2009/04/23 06:59:57.5      96     49    128    108    167  62.9  55.6  34090  288.40 0855.09
2009/04/23 06:59:57.6     108     40     92    116    148  69.6  42.7  34096  288.48 0855.09
2009/04/23 06:59:57.7      78     23     83     82    116  73.6  49.7  34084  288.30 0855.09
2009/04/23 06:59:57.8      84     39     98     93    135  64.8  51.2  34064  287.96 0855.09
2009/04/23 06:59:57.9     100     39     84    108    136  68.7  41.7  34058  287.84 0855.09
2009/04/23 06:59:58.0      90     49     68    103    123  61.2  36.0  34042  287.57 0855.09
2009/04/23 06:59:58.1     103     75     79    128    150  54.0  35.5  34024  287.27 0855.09
2009/04/23 06:59:58.2     121     91    110    152    187  53.1  39.7  34032  287.42 0855.09
2009/04/23 06:59:58.3     127    123     60    177    188  46.0  18.9  34050  287.70 0855.09
2009/04/23 06:59:58.4     189     30     49    192    199  80.8  14.3  34046  287.64 0855.09
2009/04/23 06:59:58.5     119     36     38    125    131  73.1  17.3  34048  287.69 0855.09
2009/04/23 06:59:58.6     108     60     45    124    131  60.7  20.4  34052  287.76 0855.09
2009/04/23 06:59:58.7       4    133     87    134    159   1.8  36.0  34050  287.70 0855.09
2009/04/23 06:59:58.8      70     95     67    119    136  36.5  31.9  34028  287.33 0855.09
2009/04/23 06:59:58.9      89     89     92    127    156  44.9  39.3  34016  287.13 0855.09
2009/04/23 06:59:59.0     184    123     91    222    239  56.3  23.6  33982  286.57 0855.09
2009/04/23 06:59:59.1     185    120     91    221    239  56.9  23.6  34018  287.16 0855.09
2009/04/23 06:59:59.2     151    134     98    203    225  48.4  27.3  34000  286.88 0855.09
2009/04/23 06:59:59.3     152     85     96    175    199  60.9  31.3  33990  286.71 0855.09
2009/04/23 06:59:59.4     108     43     57    117    130  68.3  27.3  33994  286.78 0855.09
2009/04/23 06:59:59.5     153     58     37    164    169  68.9  12.9  33986  286.64 0855.09
2009/04/23 06:59:59.6     131     64     17    147    149  63.8   6.9  34000  286.86 0855.10
2009/04/23 06:59:59.7     102     48      8    113    114  64.7   4.4  33998  286.83 0855.10
2009/04/23 06:59:59.8      89     42     39     99    106  64.7  22.5  33982  286.56 0855.10
